<?xml version='1.0' encoding='UTF-8'?><gpx version="1.1" creator="JPX - https://github.com/jenetics/jpx" xmlns="http://www.topografix.com/GPX/1/1"><trk><trkseg><trkpt lat="43.504898697446166" lon="10.620460850245365"><ele>304.0</ele><time>2026-04-18T06:57:13.999Z</time></trkpt><trkpt lat="43.50483581328877" lon="10.620451060702722"><ele>304.0</ele><time>2026-04-18T06:57:24.999Z</time></trkpt><trkpt lat="43.50476661650956" lon="10.62043901118072"><ele>304.0</ele><time>2026-04-18T06:58:17.999Z</time></trkpt><trkpt lat="43.50473327361768" lon="10.620360320086684"><ele>304.0</ele><time>2026-04-18T06:58:23.999Z</time></trkpt><trkpt lat="43.50475766248933" lon="10.620269933400186"><ele>304.0</ele><time>2026-04-18T06:58:38.999Z</time></trkpt><trkpt lat="43.5047529240677" lon="10.620164650859202"><ele>304.0</ele><time>2026-04-18T06:58:43.999Z</time></trkpt><trkpt lat="43.50477451604691" lon="10.620076456614752"><ele>304.0</ele><time>2026-04-18T06:58:47.999Z</time></trkpt><trkpt lat="43.504860364299375" lon="10.619980288609852"><ele>304.8333333333333</ele><time>2026-04-18T06:59:11.999Z</time></trkpt><trkpt lat="43.50491797367731" lon="10.619915931672429"><ele>305.66666666666663</ele><time>2026-04-18T06:59:12.999Z</time></trkpt><trkpt lat="43.50499298951463" lon="10.619888116251182"><ele>306.5</ele><time>2026-04-18T06:59:13.999Z</time></trkpt><trkpt lat="43.505036882215094" lon="10.619805756420329"><ele>307.3333333333333</ele><time>2026-04-18T06:59:14.999Z</time></trkpt><trkpt lat="43.50506945952814" lon="10.6197052593606"><ele>308.1666666666667</ele><time>2026-04-18T06:59:15.999Z</time></trkpt><trkpt lat="43.50510907170921" lon="10.619599325886517"><ele>309.0</ele><time>2026-04-18T06:59:16.999Z</time></trkpt><trkpt lat="43.50514323577764" lon="10.619504280895868"><ele>309.59999999999997</ele><time>2026-04-18T06:59:17.999Z</time></trkpt><trkpt lat="43.50520299949743" lon="10.619379443035653"><ele>310.2</ele><time>2026-04-18T06:59:19.999Z</time></trkpt><trkpt lat="43.50527519871433" lon="10.619356459579645"><ele>310.79999999999995</ele><time>2026-04-18T06:59:21.999Z</time></trkpt><trkpt lat="43.50539443666785" lon="10.619397548848557"><ele>311.4</ele><time>2026-04-18T06:59:23.999Z</time></trkpt><trkpt lat="43.50546885703432" lon="10.61942127796986"><ele>312.0</ele><time>2026-04-18T06:59:24.999Z</time></trkpt><trkpt lat="43.50555396139191" lon="10.619448644349406"><ele>310.0</ele><time>2026-04-18T06:59:25.999Z</time></trkpt><trkpt lat="43.505630519558565" lon="10.619478176162266"><ele>308.0</ele><time>2026-04-18T06:59:26.999Z</time></trkpt><trkpt lat="43.505702547245015" lon="10.619501121326223"><ele>306.0</ele><time>2026-04-18T06:59:27.999Z</time></trkpt><trkpt lat="43.505771209617805" lon="10.619481385535545"><ele>304.0</ele><time>2026-04-18T06:59:28.998Z</time></trkpt><trkpt lat="43.50589470569357" lon="10.61944844200108"><ele>302.0</ele><time>2026-04-18T06:59:30.998Z</time></trkpt><trkpt lat="43.50596243439492" lon="10.619420469774674"><ele>300.0</ele><time>2026-04-18T06:59:31.998Z</time></trkpt><trkpt lat="43.50603054839069" lon="10.619394254563074"><ele>300.0</ele><time>2026-04-18T06:59:32.998Z</time></trkpt><trkpt lat="43.50609608960764" lon="10.619368943591018"><ele>300.0</ele><time>2026-04-18T06:59:33.998Z</time></trkpt><trkpt lat="43.506165906537994" lon="10.61934590869297"><ele>300.0</ele><time>2026-04-18T06:59:34.998Z</time></trkpt><trkpt lat="43.506275921713566" lon="10.619340915149598"><ele>300.0</ele><time>2026-04-18T06:59:36.998Z</time></trkpt><trkpt lat="43.5063585162864" lon="10.619340961960924"><ele>300.0</ele><time>2026-04-18T06:59:38.998Z</time></trkpt><trkpt lat="43.50643140133308" lon="10.619347392485551"><ele>300.0</ele><time>2026-04-18T06:59:40.998Z</time></trkpt><trkpt lat="43.506528658283834" lon="10.619357175112578"><ele>297.8</ele><time>2026-04-18T06:59:42.998Z</time></trkpt><trkpt lat="43.50666195726766" lon="10.619327982449313"><ele>295.6</ele><time>2026-04-18T06:59:44.998Z</time></trkpt><trkpt lat="43.50672554269048" lon="10.619301463073962"><ele>293.4</ele><time>2026-04-18T06:59:45.998Z</time></trkpt><trkpt lat="43.50683120071457" lon="10.619255023548343"><ele>291.2</ele><time>2026-04-18T06:59:47.998Z</time></trkpt><trkpt lat="43.50694519449975" lon="10.619162758544975"><ele>289.0</ele><time>2026-04-18T06:59:49.998Z</time></trkpt><trkpt lat="43.50700392847867" lon="10.61907351342175"><ele>289.0</ele><time>2026-04-18T06:59:50.998Z</time></trkpt><trkpt lat="43.507063220481484" lon="10.61899296274603"><ele>289.0</ele><time>2026-04-18T06:59:51.998Z</time></trkpt><trkpt lat="43.50713160694954" lon="10.618924549883511"><ele>289.0</ele><time>2026-04-18T06:59:52.998Z</time></trkpt><trkpt lat="43.5072059821643" lon="10.618864350812416"><ele>289.0</ele><time>2026-04-18T06:59:53.998Z</time></trkpt><trkpt lat="43.50728329980071" lon="10.618815840061137"><ele>289.0</ele><time>2026-04-18T06:59:54.998Z</time></trkpt><trkpt lat="43.50736319944028" lon="10.61879627781935"><ele>289.0</ele><time>2026-04-18T06:59:55.998Z</time></trkpt><trkpt lat="43.507445798296736" lon="10.618768538877687"><ele>288.3333333333333</ele><time>2026-04-18T06:59:56.998Z</time></trkpt><trkpt lat="43.50753010411137" lon="10.618714493382738"><ele>287.66666666666663</ele><time>2026-04-18T06:59:57.998Z</time></trkpt><trkpt lat="43.50759957591836" lon="10.618637323816055"><ele>287.0</ele><time>2026-04-18T06:59:58.998Z</time></trkpt><trkpt lat="43.50768159378646" lon="10.618589497681812"><ele>286.3333333333333</ele><time>2026-04-18T06:59:59.998Z</time></trkpt><trkpt lat="43.50774553323638" lon="10.618520774943766"><ele>285.6666666666667</ele><time>2026-04-18T07:00:00.998Z</time></trkpt><trkpt lat="43.50780639399799" lon="10.618441597771309"><ele>285.0</ele><time>2026-04-18T07:00:01.998Z</time></trkpt><trkpt lat="43.50786121096032" lon="10.618354973638697"><ele>285.0</ele><time>2026-04-18T07:00:02.998Z</time></trkpt><trkpt lat="43.50790704182956" lon="10.618272501696884"><ele>285.0</ele><time>2026-04-18T07:00:03.998Z</time></trkpt><trkpt lat="43.50794723055048" lon="10.618194239817404"><ele>285.0</ele><time>2026-04-18T07:00:04.998Z</time></trkpt><trkpt lat="43.50798355063881" lon="10.61811276237055"><ele>285.0</ele><time>2026-04-18T07:00:05.998Z</time></trkpt><trkpt lat="43.50801576368828" lon="10.61802727431599"><ele>285.0</ele><time>2026-04-18T07:00:06.998Z</time></trkpt><trkpt lat="43.50804574890825" lon="10.617941660723606"><ele>285.0</ele><time>2026-04-18T07:00:07.998Z</time></trkpt><trkpt lat="43.5080640281573" lon="10.617845033651175"><ele>285.0</ele><time>2026-04-18T07:00:08.998Z</time></trkpt><trkpt lat="43.50811160141388" lon="10.617769744936513"><ele>285.57142857142856</ele><time>2026-04-18T07:00:09.998Z</time></trkpt><trkpt lat="43.5081436375321" lon="10.617685044827667"><ele>286.14285714285717</ele><time>2026-04-18T07:00:10.998Z</time></trkpt><trkpt lat="43.50817427369348" lon="10.617600578562147"><ele>286.7142857142857</ele><time>2026-04-18T07:00:11.999Z</time></trkpt><trkpt lat="43.50820110748069" lon="10.6175174362416"><ele>287.2857142857143</ele><time>2026-04-18T07:00:12.999Z</time></trkpt><trkpt lat="43.508212761109036" lon="10.617425581247868"><ele>287.85714285714283</ele><time>2026-04-18T07:00:13.999Z</time></trkpt><trkpt lat="43.50824645792324" lon="10.617337085849417"><ele>288.42857142857144</ele><time>2026-04-18T07:00:14.999Z</time></trkpt><trkpt lat="43.50829956740006" lon="10.617252191475973"><ele>289.0</ele><time>2026-04-18T07:00:15.999Z</time></trkpt><trkpt lat="43.50835153525998" lon="10.617150852839247"><ele>289.0</ele><time>2026-04-18T07:00:16.999Z</time></trkpt><trkpt lat="43.50841680201437" lon="10.617042250753936"><ele>289.0</ele><time>2026-04-18T07:00:17.999Z</time></trkpt><trkpt lat="43.50849016086253" lon="10.616930918730436"><ele>289.0</ele><time>2026-04-18T07:00:18.999Z</time></trkpt><trkpt lat="43.50857704762066" lon="10.616817055876167"><ele>289.0</ele><time>2026-04-18T07:00:19.999Z</time></trkpt><trkpt lat="43.50867172977552" lon="10.616703641543369"><ele>289.59999999999997</ele><time>2026-04-18T07:00:20.999Z</time></trkpt><trkpt lat="43.508763583105456" lon="10.616605012152846"><ele>290.2</ele><time>2026-04-18T07:00:21.999Z</time></trkpt><trkpt lat="43.508841768319016" lon="10.616505495793081"><ele>290.79999999999995</ele><time>2026-04-18T07:00:22.999Z</time></trkpt><trkpt lat="43.50889860187651" lon="10.616439935658796"><ele>291.4</ele><time>2026-04-18T07:00:23.999Z</time></trkpt><trkpt lat="43.50897543299257" lon="10.616392264981195"><ele>292.0</ele><time>2026-04-18T07:00:25.999Z</time></trkpt><trkpt lat="43.50905924517687" lon="10.616422819229548"><ele>292.0</ele><time>2026-04-18T07:00:28.999Z</time></trkpt><trkpt lat="43.50909736416607" lon="10.616558313516126"><ele>292.0</ele><time>2026-04-18T07:00:30.999Z</time></trkpt><trkpt lat="43.50913188295185" lon="10.6166358557564"><ele>292.0</ele><time>2026-04-18T07:00:31.999Z</time></trkpt><trkpt lat="43.50917376292861" lon="10.616722010268882"><ele>292.0</ele><time>2026-04-18T07:00:32.999Z</time></trkpt><trkpt lat="43.509223713915" lon="10.616811382060916"><ele>292.0</ele><time>2026-04-18T07:00:33.999Z</time></trkpt><trkpt lat="43.509278968500965" lon="10.61690713134173"><ele>292.0</ele><time>2026-04-18T07:00:34.999Z</time></trkpt><trkpt lat="43.509341361457494" lon="10.617003489235849"><ele>291.0</ele><time>2026-04-18T07:00:35.999Z</time></trkpt><trkpt lat="43.509399891944135" lon="10.617115527360964"><ele>290.0</ele><time>2026-04-18T07:00:36.999Z</time></trkpt><trkpt lat="43.509459363333654" lon="10.617233316956892"><ele>289.0</ele><time>2026-04-18T07:00:37.999Z</time></trkpt><trkpt lat="43.50951971415628" lon="10.617343135833359"><ele>288.0</ele><time>2026-04-18T07:00:38.999Z</time></trkpt><trkpt lat="43.50957531680083" lon="10.617443176315478"><ele>287.0</ele><time>2026-04-18T07:00:39.999Z</time></trkpt><trkpt lat="43.509626908571235" lon="10.617535720420781"><ele>286.85714285714283</ele><time>2026-04-18T07:00:40.999Z</time></trkpt><trkpt lat="43.50967335694297" lon="10.617619521811593"><ele>286.7142857142857</ele><time>2026-04-18T07:00:41.999Z</time></trkpt><trkpt lat="43.50971585864958" lon="10.617696889948457"><ele>286.57142857142856</ele><time>2026-04-18T07:00:42.999Z</time></trkpt><trkpt lat="43.509743925274705" lon="10.617791286164621"><ele>286.42857142857144</ele><time>2026-04-18T07:00:43.999Z</time></trkpt><trkpt lat="43.50979227405971" lon="10.617867704344038"><ele>286.2857142857143</ele><time>2026-04-18T07:00:44.999Z</time></trkpt><trkpt lat="43.50982264337764" lon="10.617957473472437"><ele>286.1428571428571</ele><time>2026-04-18T07:00:45.999Z</time></trkpt><trkpt lat="43.50985785851128" lon="10.618045966708243"><ele>286.0</ele><time>2026-04-18T07:00:46.999Z</time></trkpt><trkpt lat="43.50989279526239" lon="10.618132810831506"><ele>285.5</ele><time>2026-04-18T07:00:47.999Z</time></trkpt><trkpt lat="43.509919927826395" lon="10.618217748999824"><ele>285.0</ele><time>2026-04-18T07:00:48.999Z</time></trkpt><trkpt lat="43.509938915705156" lon="10.618306693870753"><ele>284.5</ele><time>2026-04-18T07:00:49.999Z</time></trkpt><trkpt lat="43.50996523776177" lon="10.618393328071312"><ele>284.0</ele><time>2026-04-18T07:00:50.999Z</time></trkpt><trkpt lat="43.51000426015445" lon="10.618478144961381"><ele>283.5</ele><time>2026-04-18T07:00:51.999Z</time></trkpt><trkpt lat="43.51004667932808" lon="10.618547991652253"><ele>283.0</ele><time>2026-04-18T07:00:52.999Z</time></trkpt><trkpt lat="43.51016489124664" lon="10.618605024337723"><ele>283.0</ele><time>2026-04-18T07:00:54.999Z</time></trkpt><trkpt lat="43.510242874964725" lon="10.61857970077369"><ele>283.0</ele><time>2026-04-18T07:00:55.999Z</time></trkpt><trkpt lat="43.51031694550751" lon="10.618531864916221"><ele>283.0</ele><time>2026-04-18T07:00:56.999Z</time></trkpt><trkpt lat="43.51039271556128" lon="10.618469965454473"><ele>283.0</ele><time>2026-04-18T07:00:57.999Z</time></trkpt><trkpt lat="43.51046598716008" lon="10.618405447437233"><ele>283.0</ele><time>2026-04-18T07:00:58.999Z</time></trkpt><trkpt lat="43.51054086575318" lon="10.618341238452677"><ele>283.0</ele><time>2026-04-18T07:00:59.999Z</time></trkpt><trkpt lat="43.510620159600485" lon="10.618278582049896"><ele>281.0</ele><time>2026-04-18T07:01:00.999Z</time></trkpt><trkpt lat="43.51069861186432" lon="10.61823256312086"><ele>279.0</ele><time>2026-04-18T07:01:01.999Z</time></trkpt><trkpt lat="43.510784052593515" lon="10.618203207431119"><ele>277.0</ele><time>2026-04-18T07:01:02.999Z</time></trkpt><trkpt lat="43.510877726189385" lon="10.618192069419823"><ele>275.0</ele><time>2026-04-18T07:01:03.999Z</time></trkpt><trkpt lat="43.51097509347536" lon="10.61820179540982"><ele>273.0</ele><time>2026-04-18T07:01:04.999Z</time></trkpt><trkpt lat="43.51107700335562" lon="10.618222202878698"><ele>273.0</ele><time>2026-04-18T07:01:05.999Z</time></trkpt><trkpt lat="43.51118063314797" lon="10.618244377343627"><ele>273.0</ele><time>2026-04-18T07:01:06.999Z</time></trkpt><trkpt lat="43.511290313491024" lon="10.618267016845762"><ele>273.0</ele><time>2026-04-18T07:01:07.999Z</time></trkpt><trkpt lat="43.51140067413773" lon="10.618288887479904"><ele>273.0</ele><time>2026-04-18T07:01:08.999Z</time></trkpt><trkpt lat="43.51150560289501" lon="10.618311328468845"><ele>273.0</ele><time>2026-04-18T07:01:09.999Z</time></trkpt><trkpt lat="43.511608618574" lon="10.618339541088861"><ele>271.2</ele><time>2026-04-18T07:01:10.999Z</time></trkpt><trkpt lat="43.511708256697446" lon="10.618383707992715"><ele>269.4</ele><time>2026-04-18T07:01:11.999Z</time></trkpt><trkpt lat="43.511806756959416" lon="10.618439692437917"><ele>267.59999999999997</ele><time>2026-04-18T07:01:12.999Z</time></trkpt><trkpt lat="43.511889966325185" lon="10.618533409620897"><ele>265.8</ele><time>2026-04-18T07:01:13.999Z</time></trkpt><trkpt lat="43.51198982564364" lon="10.61860384436885"><ele>264.0</ele><time>2026-04-18T07:01:14.999Z</time></trkpt><trkpt lat="43.51207423174301" lon="10.618696499581755"><ele>261.75</ele><time>2026-04-18T07:01:15.999Z</time></trkpt><trkpt lat="43.51216827001546" lon="10.618783842861356"><ele>259.5</ele><time>2026-04-18T07:01:16.999Z</time></trkpt><trkpt lat="43.512274764803266" lon="10.618859445412292"><ele>257.25</ele><time>2026-04-18T07:01:17.999Z</time></trkpt><trkpt lat="43.51239171517427" lon="10.618925737484771"><ele>255.0</ele><time>2026-04-18T07:01:18.999Z</time></trkpt><trkpt lat="43.51252378006397" lon="10.618991583674317"><ele>255.0</ele><time>2026-04-18T07:01:19.999Z</time></trkpt><trkpt lat="43.51266786007599" lon="10.619061912774413"><ele>255.0</ele><time>2026-04-18T07:01:20.999Z</time></trkpt><trkpt lat="43.512817629995475" lon="10.61913580312391"><ele>255.0</ele><time>2026-04-18T07:01:21.999Z</time></trkpt><trkpt lat="43.512968034765066" lon="10.619208037081147"><ele>252.0</ele><time>2026-04-18T07:01:22.999Z</time></trkpt><trkpt lat="43.51311389625058" lon="10.619279008490441"><ele>249.0</ele><time>2026-04-18T07:01:23.998Z</time></trkpt><trkpt lat="43.51326189397409" lon="10.619353556761963"><ele>246.0</ele><time>2026-04-18T07:01:24.998Z</time></trkpt><trkpt lat="43.513411169685675" lon="10.619428240028158"><ele>245.0</ele><time>2026-04-18T07:01:25.998Z</time></trkpt><trkpt lat="43.5135558503085" lon="10.619493475117874"><ele>244.0</ele><time>2026-04-18T07:01:26.998Z</time></trkpt><trkpt lat="43.51369575562582" lon="10.61954891292846"><ele>243.0</ele><time>2026-04-18T07:01:27.998Z</time></trkpt><trkpt lat="43.513821993059665" lon="10.619599693642401"><ele>242.0</ele><time>2026-04-18T07:01:28.998Z</time></trkpt><trkpt lat="43.513921441443635" lon="10.619649179497843"><ele>241.00000000000003</ele><time>2026-04-18T07:01:29.998Z</time></trkpt><trkpt lat="43.5139989516933" lon="10.619712401138319"><ele>240.0</ele><time>2026-04-18T07:01:30.998Z</time></trkpt><trkpt lat="43.51405907039222" lon="10.619800290274362"><ele>239.0</ele><time>2026-04-18T07:01:31.998Z</time></trkpt><trkpt lat="43.51408466251785" lon="10.619911038405485"><ele>238.0</ele><time>2026-04-18T07:01:32.998Z</time></trkpt><trkpt lat="43.51408554936318" lon="10.620037642331022"><ele>237.00000000000003</ele><time>2026-04-18T07:01:33.998Z</time></trkpt><trkpt lat="43.51405025695657" lon="10.620146473372683"><ele>236.0</ele><time>2026-04-18T07:01:34.998Z</time></trkpt><trkpt lat="43.51400750361787" lon="10.620269374079404"><ele>235.60000000000002</ele><time>2026-04-18T07:01:35.998Z</time></trkpt><trkpt lat="43.5139503760375" lon="10.620383142745277"><ele>235.20000000000002</ele><time>2026-04-18T07:01:36.998Z</time></trkpt><trkpt lat="43.51387564113225" lon="10.620488498824665"><ele>234.79999999999998</ele><time>2026-04-18T07:01:37.998Z</time></trkpt><trkpt lat="43.51379601541465" lon="10.620599923352003"><ele>234.39999999999998</ele><time>2026-04-18T07:01:38.998Z</time></trkpt><trkpt lat="43.51371155300783" lon="10.620713204492713"><ele>234.0</ele><time>2026-04-18T07:01:39.998Z</time></trkpt><trkpt lat="43.51362295597686" lon="10.620832030817036"><ele>234.0</ele><time>2026-04-18T07:01:40.998Z</time></trkpt><trkpt lat="43.51353803185468" lon="10.620949482222564"><ele>233.99999999999997</ele><time>2026-04-18T07:01:41.998Z</time></trkpt><trkpt lat="43.51348314428963" lon="10.621066961400963"><ele>233.99999999999997</ele><time>2026-04-18T07:01:42.998Z</time></trkpt><trkpt lat="43.51344723260377" lon="10.62117810280935"><ele>234.0</ele><time>2026-04-18T07:01:43.998Z</time></trkpt><trkpt lat="43.51344169154248" lon="10.621298164447808"><ele>234.0</ele><time>2026-04-18T07:01:44.998Z</time></trkpt><trkpt lat="43.51347090053193" lon="10.621412368946997"><ele>232.39999999999998</ele><time>2026-04-18T07:01:45.998Z</time></trkpt><trkpt lat="43.51353375078752" lon="10.621509135760682"><ele>230.79999999999998</ele><time>2026-04-18T07:01:46.998Z</time></trkpt><trkpt lat="43.51362671179085" lon="10.621574899005749"><ele>229.20000000000002</ele><time>2026-04-18T07:01:47.998Z</time></trkpt><trkpt lat="43.5137348666223" lon="10.621610171164004"><ele>227.60000000000002</ele><time>2026-04-18T07:01:48.998Z</time></trkpt><trkpt lat="43.51385513089387" lon="10.621628427142538"><ele>226.0</ele><time>2026-04-18T07:01:49.998Z</time></trkpt><trkpt lat="43.513977206892605" lon="10.621670485401895"><ele>225.25</ele><time>2026-04-18T07:01:50.998Z</time></trkpt><trkpt lat="43.514099617567496" lon="10.621735049586047"><ele>224.5</ele><time>2026-04-18T07:01:51.998Z</time></trkpt><trkpt lat="43.51421554700894" lon="10.621824618993742"><ele>223.75</ele><time>2026-04-18T07:01:52.998Z</time></trkpt><trkpt lat="43.51432885477236" lon="10.62191360484749"><ele>223.0</ele><time>2026-04-18T07:01:53.998Z</time></trkpt><trkpt lat="43.51444683377129" lon="10.62199606664693"><ele>220.75</ele><time>2026-04-18T07:01:54.998Z</time></trkpt><trkpt lat="43.51457468956885" lon="10.62205754424397"><ele>218.5</ele><time>2026-04-18T07:01:55.998Z</time></trkpt><trkpt lat="43.5147136439892" lon="10.622102948022293"><ele>216.25</ele><time>2026-04-18T07:01:56.998Z</time></trkpt><trkpt lat="43.51485975167068" lon="10.622133626176362"><ele>214.0</ele><time>2026-04-18T07:01:57.998Z</time></trkpt><trkpt lat="43.51500744371574" lon="10.622183277453292"><ele>214.0</ele><time>2026-04-18T07:01:58.998Z</time></trkpt><trkpt lat="43.51514769584964" lon="10.62220733951075"><ele>214.0</ele><time>2026-04-18T07:01:59.998Z</time></trkpt><trkpt lat="43.5152846014672" lon="10.622220960339964"><ele>214.0</ele><time>2026-04-18T07:02:00.998Z</time></trkpt><trkpt lat="43.51543162929085" lon="10.622226517540309"><ele>214.0</ele><time>2026-04-18T07:02:01.998Z</time></trkpt><trkpt lat="43.51558311387338" lon="10.622227479094795"><ele>212.0</ele><time>2026-04-18T07:02:02.998Z</time></trkpt><trkpt lat="43.515740777814294" lon="10.622208572017264"><ele>210.0</ele><time>2026-04-18T07:02:03.998Z</time></trkpt><trkpt lat="43.51590293547217" lon="10.622212034073108"><ele>208.0</ele><time>2026-04-18T07:02:04.998Z</time></trkpt><trkpt lat="43.5160654138142" lon="10.622236325582229"><ele>208.0</ele><time>2026-04-18T07:02:05.998Z</time></trkpt><trkpt lat="43.5162244860009" lon="10.622305074547286"><ele>208.0</ele><time>2026-04-18T07:02:06.998Z</time></trkpt><trkpt lat="43.51636697221995" lon="10.622401982694386"><ele>208.0</ele><time>2026-04-18T07:02:07.998Z</time></trkpt><trkpt lat="43.51649116435816" lon="10.622527995992783"><ele>206.33333333333331</ele><time>2026-04-18T07:02:08.998Z</time></trkpt><trkpt lat="43.5165939525984" lon="10.62266790758195"><ele>204.66666666666669</ele><time>2026-04-18T07:02:09.998Z</time></trkpt><trkpt lat="43.51668915381573" lon="10.622831754369544"><ele>203.0</ele><time>2026-04-18T07:02:10.998Z</time></trkpt><trkpt lat="43.51676965703824" lon="10.623014502901553"><ele>202.66666666666669</ele><time>2026-04-18T07:02:11.998Z</time></trkpt><trkpt lat="43.51683459461783" lon="10.623207908024886"><ele>202.33333333333331</ele><time>2026-04-18T07:02:12.998Z</time></trkpt><trkpt lat="43.516927683970195" lon="10.62358234444125"><ele>202.0</ele><time>2026-04-18T07:02:14.998Z</time></trkpt><trkpt lat="43.516973977486245" lon="10.623751635554944"><ele>201.75</ele><time>2026-04-18T07:02:15.998Z</time></trkpt><trkpt lat="43.51702904024119" lon="10.623895885196614"><ele>201.5</ele><time>2026-04-18T07:02:16.998Z</time></trkpt><trkpt lat="43.51710341888356" lon="10.62400198980426"><ele>201.25</ele><time>2026-04-18T07:02:17.998Z</time></trkpt><trkpt lat="43.51719769542665" lon="10.624085249948312"><ele>201.0</ele><time>2026-04-18T07:02:18.998Z</time></trkpt><trkpt lat="43.51731055453976" lon="10.624142589807835"><ele>198.75</ele><time>2026-04-18T07:02:19.998Z</time></trkpt><trkpt lat="43.51743571204583" lon="10.62417385698227"><ele>196.5</ele><time>2026-04-18T07:02:20.998Z</time></trkpt><trkpt lat="43.51754860479634" lon="10.624194665427636"><ele>194.25</ele><time>2026-04-18T07:02:21.998Z</time></trkpt><trkpt lat="43.51766155406266" lon="10.62421919503122"><ele>192.0</ele><time>2026-04-18T07:02:22.998Z</time></trkpt><trkpt lat="43.51778031957616" lon="10.624246514002056"><ele>189.0</ele><time>2026-04-18T07:02:23.998Z</time></trkpt><trkpt lat="43.517905246224515" lon="10.624278826051418"><ele>186.0</ele><time>2026-04-18T07:02:24.998Z</time></trkpt><trkpt lat="43.51803210543917" lon="10.62431158436586"><ele>183.0</ele><time>2026-04-18T07:02:25.998Z</time></trkpt><trkpt lat="43.51816320886809" lon="10.624345512929624"><ele>180.0</ele><time>2026-04-18T07:02:26.998Z</time></trkpt><trkpt lat="43.51829722803926" lon="10.62438005256646"><ele>180.0</ele><time>2026-04-18T07:02:27.999Z</time></trkpt><trkpt lat="43.51843247288292" lon="10.62441573146155"><ele>180.0</ele><time>2026-04-18T07:02:28.999Z</time></trkpt><trkpt lat="43.5185655347391" lon="10.62445071992236"><ele>180.0</ele><time>2026-04-18T07:02:29.999Z</time></trkpt><trkpt lat="43.518696403365496" lon="10.624486882832072"><ele>180.0</ele><time>2026-04-18T07:02:30.999Z</time></trkpt><trkpt lat="43.5188204058289" lon="10.624524239882362"><ele>178.4</ele><time>2026-04-18T07:02:31.999Z</time></trkpt><trkpt lat="43.518939615845404" lon="10.624553394325245"><ele>176.8</ele><time>2026-04-18T07:02:32.999Z</time></trkpt><trkpt lat="43.51904843664907" lon="10.624579361292932"><ele>175.2</ele><time>2026-04-18T07:02:33.999Z</time></trkpt><trkpt lat="43.51914572811111" lon="10.624603641045333"><ele>173.6</ele><time>2026-04-18T07:02:34.999Z</time></trkpt><trkpt lat="43.51923279748497" lon="10.624631686222092"><ele>172.0</ele><time>2026-04-18T07:02:35.999Z</time></trkpt><trkpt lat="43.51930494297483" lon="10.624663257440865"><ele>172.0</ele><time>2026-04-18T07:02:36.999Z</time></trkpt><trkpt lat="43.51940619962321" lon="10.624711744355675"><ele>172.0</ele><time>2026-04-18T07:02:38.999Z</time></trkpt><trkpt lat="43.51950235395642" lon="10.624743586150553"><ele>172.0</ele><time>2026-04-18T07:02:40.999Z</time></trkpt><trkpt lat="43.519567356740446" lon="10.624760992516448"><ele>172.0</ele><time>2026-04-18T07:02:41.999Z</time></trkpt><trkpt lat="43.51963852793238" lon="10.6248030669022"><ele>172.0</ele><time>2026-04-18T07:02:42.999Z</time></trkpt><trkpt lat="43.51970521223115" lon="10.62490378214614"><ele>172.0</ele><time>2026-04-18T07:02:43.999Z</time></trkpt><trkpt lat="43.51979581889212" lon="10.624995401008627"><ele>170.6</ele><time>2026-04-18T07:02:44.999Z</time></trkpt><trkpt lat="43.519886092152284" lon="10.62508155124248"><ele>169.2</ele><time>2026-04-18T07:02:45.999Z</time></trkpt><trkpt lat="43.51997487565096" lon="10.625162787744268"><ele>167.8</ele><time>2026-04-18T07:02:46.999Z</time></trkpt><trkpt lat="43.520061189035246" lon="10.625239047171416"><ele>166.4</ele><time>2026-04-18T07:02:47.999Z</time></trkpt><trkpt lat="43.520144415951364" lon="10.625304876981087"><ele>165.0</ele><time>2026-04-18T07:02:48.999Z</time></trkpt><trkpt lat="43.52023276544184" lon="10.625347045499284"><ele>164.83333333333334</ele><time>2026-04-18T07:02:49.999Z</time></trkpt><trkpt lat="43.520308937245204" lon="10.625408676287842"><ele>164.66666666666666</ele><time>2026-04-18T07:02:50.999Z</time></trkpt><trkpt lat="43.52037928668249" lon="10.625458497201903"><ele>164.5</ele><time>2026-04-18T07:02:51.999Z</time></trkpt><trkpt lat="43.520445219957104" lon="10.625498836458856"><ele>164.33333333333331</ele><time>2026-04-18T07:02:52.999Z</time></trkpt><trkpt lat="43.52049298153581" lon="10.625557746519648"><ele>164.16666666666666</ele><time>2026-04-18T07:02:53.999Z</time></trkpt><trkpt lat="43.52058252156857" lon="10.625683257648602"><ele>164.0</ele><time>2026-04-18T07:02:55.999Z</time></trkpt><trkpt lat="43.52060213676312" lon="10.625783021800379"><ele>164.0</ele><time>2026-04-18T07:02:56.999Z</time></trkpt><trkpt lat="43.52063292414866" lon="10.625883958314024"><ele>164.0</ele><time>2026-04-18T07:02:57.999Z</time></trkpt><trkpt lat="43.520679365847876" lon="10.62598318118835"><ele>164.0</ele><time>2026-04-18T07:02:58.999Z</time></trkpt><trkpt lat="43.52071083429885" lon="10.62608869047647"><ele>164.0</ele><time>2026-04-18T07:02:59.999Z</time></trkpt><trkpt lat="43.52075157802139" lon="10.626178236802483"><ele>164.0</ele><time>2026-04-18T07:03:00.999Z</time></trkpt><trkpt lat="43.520801636603366" lon="10.62624510479417"><ele>164.0</ele><time>2026-04-18T07:03:01.999Z</time></trkpt><trkpt lat="43.52085748504947" lon="10.626291995867046"><ele>164.0</ele><time>2026-04-18T07:03:02.999Z</time></trkpt><trkpt lat="43.520918530963954" lon="10.626333655081277"><ele>164.0</ele><time>2026-04-18T07:03:03.999Z</time></trkpt><trkpt lat="43.520987323009045" lon="10.62637613034068"><ele>164.0</ele><time>2026-04-18T07:03:04.999Z</time></trkpt><trkpt lat="43.521061813264694" lon="10.626417755898478"><ele>164.0</ele><time>2026-04-18T07:03:05.999Z</time></trkpt><trkpt lat="43.521137347708766" lon="10.626486980709272"><ele>164.0</ele><time>2026-04-18T07:03:06.999Z</time></trkpt><trkpt lat="43.5212309491446" lon="10.626542796925312"><ele>164.0</ele><time>2026-04-18T07:03:07.999Z</time></trkpt><trkpt lat="43.521330882454315" lon="10.626608037420315"><ele>163.25</ele><time>2026-04-18T07:03:08.999Z</time></trkpt><trkpt lat="43.521439963992314" lon="10.626678986334586"><ele>162.5</ele><time>2026-04-18T07:03:09.999Z</time></trkpt><trkpt lat="43.5215540885666" lon="10.626750062745552"><ele>161.75</ele><time>2026-04-18T07:03:10.999Z</time></trkpt><trkpt lat="43.52166831760019" lon="10.6268179339839"><ele>161.0</ele><time>2026-04-18T07:03:11.999Z</time></trkpt><trkpt lat="43.52178317519024" lon="10.626880493423737"><ele>161.0</ele><time>2026-04-18T07:03:12.999Z</time></trkpt><trkpt lat="43.52189721215285" lon="10.626934555534158"><ele>161.0</ele><time>2026-04-18T07:03:13.999Z</time></trkpt><trkpt lat="43.52201080919581" lon="10.62697468103957"><ele>161.0</ele><time>2026-04-18T07:03:14.999Z</time></trkpt><trkpt lat="43.522224186811286" lon="10.627045540076011"><ele>160.0</ele><time>2026-04-18T07:03:16.999Z</time></trkpt><trkpt lat="43.522331304723714" lon="10.627079765723519"><ele>159.0</ele><time>2026-04-18T07:03:17.999Z</time></trkpt><trkpt lat="43.522442704367755" lon="10.62711353282942"><ele>158.0</ele><time>2026-04-18T07:03:18.998Z</time></trkpt><trkpt lat="43.52255546188756" lon="10.62714539428747"><ele>157.0</ele><time>2026-04-18T07:03:19.998Z</time></trkpt><trkpt lat="43.52267140328882" lon="10.627178155402143"><ele>157.0</ele><time>2026-04-18T07:03:20.998Z</time></trkpt><trkpt lat="43.52278844317044" lon="10.627211226910228"><ele>157.0</ele><time>2026-04-18T07:03:21.998Z</time></trkpt><trkpt lat="43.52290473872659" lon="10.627246056707003"><ele>157.0</ele><time>2026-04-18T07:03:22.998Z</time></trkpt><trkpt lat="43.52302256791074" lon="10.627264263426753"><ele>157.0</ele><time>2026-04-18T07:03:23.998Z</time></trkpt><trkpt lat="43.52312231953455" lon="10.62732548983066"><ele>155.6</ele><time>2026-04-18T07:03:24.998Z</time></trkpt><trkpt lat="43.52321391123775" lon="10.627379816697122"><ele>154.2</ele><time>2026-04-18T07:03:25.998Z</time></trkpt><trkpt lat="43.52328282159909" lon="10.627463911656934"><ele>152.8</ele><time>2026-04-18T07:03:26.998Z</time></trkpt><trkpt lat="43.523349954618915" lon="10.627563462721978"><ele>151.4</ele><time>2026-04-18T07:03:27.998Z</time></trkpt><trkpt lat="43.52341157456942" lon="10.627663204309911"><ele>150.0</ele><time>2026-04-18T07:03:28.998Z</time></trkpt><trkpt lat="43.52348482784184" lon="10.627720085468175"><ele>149.99999999999997</ele><time>2026-04-18T07:03:29.998Z</time></trkpt><trkpt lat="43.523547938322444" lon="10.627761654322086"><ele>150.0</ele><time>2026-04-18T07:03:30.998Z</time></trkpt><trkpt lat="43.52360561653923" lon="10.627805427988848"><ele>150.0</ele><time>2026-04-18T07:03:31.998Z</time></trkpt><trkpt lat="43.523677009453856" lon="10.627826128432256"><ele>150.0</ele><time>2026-04-18T07:03:32.998Z</time></trkpt><trkpt lat="43.52376123268842" lon="10.627798151075698"><ele>150.0</ele><time>2026-04-18T07:03:33.998Z</time></trkpt><trkpt lat="43.52383526565752" lon="10.627787833481383"><ele>149.99999999999997</ele><time>2026-04-18T07:03:34.998Z</time></trkpt><trkpt lat="43.5239067583458" lon="10.627793961104022"><ele>150.0</ele><time>2026-04-18T07:03:35.998Z</time></trkpt><trkpt lat="43.52398133562652" lon="10.627800417275601"><ele>148.8</ele><time>2026-04-18T07:03:36.998Z</time></trkpt><trkpt lat="43.5240577724961" lon="10.627813885563882"><ele>147.6</ele><time>2026-04-18T07:03:37.998Z</time></trkpt><trkpt lat="43.52413482121427" lon="10.627824327198734"><ele>146.4</ele><time>2026-04-18T07:03:38.998Z</time></trkpt><trkpt lat="43.52423391192509" lon="10.627820212770834"><ele>145.2</ele><time>2026-04-18T07:03:40.998Z</time></trkpt><trkpt lat="43.52426422182976" lon="10.627599108918423"><ele>144.0</ele><time>2026-04-18T07:03:43.999Z</time></trkpt><trkpt lat="43.52425964769422" lon="10.627452330948906"><ele>143.83333333333334</ele><time>2026-04-18T07:03:45.999Z</time></trkpt><trkpt lat="43.52425682009603" lon="10.627286461776277"><ele>143.66666666666666</ele><time>2026-04-18T07:03:47.999Z</time></trkpt><trkpt lat="43.52426790155339" lon="10.627192672840247"><ele>143.5</ele><time>2026-04-18T07:03:48.999Z</time></trkpt><trkpt lat="43.52429354160414" lon="10.627095354772916"><ele>143.33333333333331</ele><time>2026-04-18T07:03:49.999Z</time></trkpt><trkpt lat="43.5243052086669" lon="10.626994626429427"><ele>143.16666666666666</ele><time>2026-04-18T07:03:50.999Z</time></trkpt><trkpt lat="43.52431704344844" lon="10.626891441752905"><ele>143.0</ele><time>2026-04-18T07:03:51.999Z</time></trkpt><trkpt lat="43.524328165647404" lon="10.62678786386489"><ele>143.0</ele><time>2026-04-18T07:03:52.999Z</time></trkpt><trkpt lat="43.52432322504505" lon="10.626683388826764"><ele>143.0</ele><time>2026-04-18T07:03:53.999Z</time></trkpt><trkpt lat="43.52434380246523" lon="10.62659187268329"><ele>143.0</ele><time>2026-04-18T07:03:54.999Z</time></trkpt><trkpt lat="43.52435780817679" lon="10.626431006296585"><ele>143.0</ele><time>2026-04-18T07:03:56.999Z</time></trkpt><trkpt lat="43.52441305470549" lon="10.626313675531696"><ele>143.0</ele><time>2026-04-18T07:03:58.999Z</time></trkpt><trkpt lat="43.52446772027199" lon="10.626208822882434"><ele>142.33333333333331</ele><time>2026-04-18T07:04:00.999Z</time></trkpt><trkpt lat="43.52454953925968" lon="10.626095941543598"><ele>141.66666666666666</ele><time>2026-04-18T07:04:02.999Z</time></trkpt><trkpt lat="43.52458829258802" lon="10.626014726591084"><ele>141.0</ele><time>2026-04-18T07:04:03.999Z</time></trkpt><trkpt lat="43.5246330050694" lon="10.625935397568007"><ele>140.33333333333334</ele><time>2026-04-18T07:04:04.999Z</time></trkpt><trkpt lat="43.524683244497766" lon="10.62585924282138"><ele>139.66666666666669</ele><time>2026-04-18T07:04:05.999Z</time></trkpt><trkpt lat="43.52473038409618" lon="10.625788930308621"><ele>139.0</ele><time>2026-04-18T07:04:06.999Z</time></trkpt><trkpt lat="43.52481661703885" lon="10.6256619960269"><ele>137.6</ele><time>2026-04-18T07:04:08.999Z</time></trkpt><trkpt lat="43.52485918959091" lon="10.6255972271118"><ele>136.2</ele><time>2026-04-18T07:04:09.999Z</time></trkpt><trkpt lat="43.52493634884148" lon="10.625468262110525"><ele>134.79999999999998</ele><time>2026-04-18T07:04:11.999Z</time></trkpt><trkpt lat="43.52501048419081" lon="10.625342518735957"><ele>133.4</ele><time>2026-04-18T07:04:13.999Z</time></trkpt><trkpt lat="43.52508147571487" lon="10.625219349359714"><ele>132.0</ele><time>2026-04-18T07:04:15.999Z</time></trkpt><trkpt lat="43.52515547005624" lon="10.625099986137304"><ele>131.2</ele><time>2026-04-18T07:04:17.999Z</time></trkpt><trkpt lat="43.525244262661424" lon="10.624976139698202"><ele>130.39999999999998</ele><time>2026-04-18T07:04:19.999Z</time></trkpt><trkpt lat="43.525296013957494" lon="10.624908134947516"><ele>129.60000000000002</ele><time>2026-04-18T07:04:20.999Z</time></trkpt><trkpt lat="43.52535552696668" lon="10.62483538177644"><ele>128.8</ele><time>2026-04-18T07:04:21.999Z</time></trkpt><trkpt lat="43.52542296863042" lon="10.624759514599617"><ele>128.0</ele><time>2026-04-18T07:04:22.999Z</time></trkpt><trkpt lat="43.52549411901342" lon="10.624674795646763"><ele>127.4</ele><time>2026-04-18T07:04:24Z</time></trkpt><trkpt lat="43.525563520788275" lon="10.62458554048899"><ele>126.80000000000001</ele><time>2026-04-18T07:04:25Z</time></trkpt><trkpt lat="43.52563326248022" lon="10.624495064478358"><ele>126.2</ele><time>2026-04-18T07:04:26Z</time></trkpt><trkpt lat="43.52570374450808" lon="10.624405167517775"><ele>125.6</ele><time>2026-04-18T07:04:27Z</time></trkpt><trkpt lat="43.52577228064" lon="10.624315294174792"><ele>125.0</ele><time>2026-04-18T07:04:28Z</time></trkpt><trkpt lat="43.525838927049236" lon="10.624230336660096"><ele>123.6</ele><time>2026-04-18T07:04:29Z</time></trkpt><trkpt lat="43.525910308873215" lon="10.624160738479967"><ele>122.2</ele><time>2026-04-18T07:04:30Z</time></trkpt><trkpt lat="43.525966877143304" lon="10.624076427369422"><ele>120.80000000000001</ele><time>2026-04-18T07:04:31Z</time></trkpt><trkpt lat="43.526066216377224" lon="10.6239086883653"><ele>119.4</ele><time>2026-04-18T07:04:33Z</time></trkpt><trkpt lat="43.526108286779525" lon="10.623837710129287"><ele>118.0</ele><time>2026-04-18T07:04:34Z</time></trkpt><trkpt lat="43.52618437340217" lon="10.623712199158522"><ele>117.80000000000001</ele><time>2026-04-18T07:04:36Z</time></trkpt><trkpt lat="43.52624810600244" lon="10.623595073991373"><ele>117.60000000000001</ele><time>2026-04-18T07:04:38Z</time></trkpt><trkpt lat="43.52627741386517" lon="10.623423041771696"><ele>117.39999999999999</ele><time>2026-04-18T07:04:40Z</time></trkpt><trkpt lat="43.526257284076216" lon="10.623317013409473"><ele>117.19999999999999</ele><time>2026-04-18T07:04:41Z</time></trkpt><trkpt lat="43.52621691839995" lon="10.623214239214557"><ele>117.0</ele><time>2026-04-18T07:04:42Z</time></trkpt><trkpt lat="43.526163021168344" lon="10.623114372332566"><ele>117.0</ele><time>2026-04-18T07:04:43Z</time></trkpt><trkpt lat="43.52610239159653" lon="10.623013220326909"><ele>117.0</ele><time>2026-04-18T07:04:44Z</time></trkpt><trkpt lat="43.5260433653667" lon="10.622922936106537"><ele>117.0</ele><time>2026-04-18T07:04:45Z</time></trkpt><trkpt lat="43.52598203242904" lon="10.622840475547244"><ele>117.0</ele><time>2026-04-18T07:04:46Z</time></trkpt><trkpt lat="43.525915651256774" lon="10.622759938194237"><ele>117.0</ele><time>2026-04-18T07:04:47Z</time></trkpt><trkpt lat="43.5258501445538" lon="10.62268631809609"><ele>117.0</ele><time>2026-04-18T07:04:48Z</time></trkpt><trkpt lat="43.525784826490934" lon="10.62262425279527"><ele>115.83333333333333</ele><time>2026-04-18T07:04:49Z</time></trkpt><trkpt lat="43.5257138647164" lon="10.622566408467389"><ele>114.66666666666666</ele><time>2026-04-18T07:04:50Z</time></trkpt><trkpt lat="43.525642947920076" lon="10.622517052345756"><ele>113.5</ele><time>2026-04-18T07:04:51Z</time></trkpt><trkpt lat="43.52557070751802" lon="10.622466042603836"><ele>112.33333333333333</ele><time>2026-04-18T07:04:52Z</time></trkpt><trkpt lat="43.52550334089325" lon="10.622407405228167"><ele>111.16666666666666</ele><time>2026-04-18T07:04:53Z</time></trkpt><trkpt lat="43.525448037075655" lon="10.622346075453764"><ele>110.0</ele><time>2026-04-18T07:04:54Z</time></trkpt><trkpt lat="43.52539745907938" lon="10.62228202488683"><ele>110.0</ele><time>2026-04-18T07:04:55Z</time></trkpt><trkpt lat="43.52534075239058" lon="10.622127437420133"><ele>110.0</ele><time>2026-04-18T07:04:57Z</time></trkpt><trkpt lat="43.52527801888517" lon="10.621971726583391"><ele>110.0</ele><time>2026-04-18T07:04:59Z</time></trkpt><trkpt lat="43.52524124826381" lon="10.621894020192604"><ele>110.0</ele><time>2026-04-18T07:05:00Z</time></trkpt><trkpt lat="43.52526972371071" lon="10.62167579285513"><ele>110.6</ele><time>2026-04-18T07:05:03Z</time></trkpt><trkpt lat="43.525305852632975" lon="10.621594510035173"><ele>111.2</ele><time>2026-04-18T07:05:05Z</time></trkpt><trkpt lat="43.52537416539528" lon="10.621545786226333"><ele>111.80000000000001</ele><time>2026-04-18T07:05:08Z</time></trkpt><trkpt lat="43.52549639426301" lon="10.621551247629291"><ele>112.4</ele><time>2026-04-18T07:05:10Z</time></trkpt><trkpt lat="43.52558191506386" lon="10.621552189746469"><ele>113.0</ele><time>2026-04-18T07:05:11Z</time></trkpt><trkpt lat="43.52567883273664" lon="10.621553672226376"><ele>113.0</ele><time>2026-04-18T07:05:12Z</time></trkpt><trkpt lat="43.52579139977017" lon="10.621554805262207"><ele>113.0</ele><time>2026-04-18T07:05:13Z</time></trkpt><trkpt lat="43.525912003206045" lon="10.621557032049722"><ele>113.0</ele><time>2026-04-18T07:05:14Z</time></trkpt><trkpt lat="43.5260345102944" lon="10.621559615673316"><ele>113.0</ele><time>2026-04-18T07:05:15Z</time></trkpt><trkpt lat="43.52615699875662" lon="10.621563912200443"><ele>112.25</ele><time>2026-04-18T07:05:16Z</time></trkpt><trkpt lat="43.52627917397241" lon="10.621568739182038"><ele>111.5</ele><time>2026-04-18T07:05:17Z</time></trkpt><trkpt lat="43.52640286905745" lon="10.6215723628977"><ele>110.75</ele><time>2026-04-18T07:05:18Z</time></trkpt><trkpt lat="43.52652468038236" lon="10.621576269592138"><ele>110.0</ele><time>2026-04-18T07:05:19Z</time></trkpt><trkpt lat="43.52664520168757" lon="10.621581002338456"><ele>110.0</ele><time>2026-04-18T07:05:20Z</time></trkpt><trkpt lat="43.526764701429364" lon="10.621585873625952"><ele>110.0</ele><time>2026-04-18T07:05:21Z</time></trkpt><trkpt lat="43.52688358599293" lon="10.621590206119517"><ele>110.0</ele><time>2026-04-18T07:05:22Z</time></trkpt><trkpt lat="43.52700132735943" lon="10.621593701792678"><ele>110.0</ele><time>2026-04-18T07:05:23Z</time></trkpt><trkpt lat="43.527227258501135" lon="10.621601676583285"><ele>108.75</ele><time>2026-04-18T07:05:25Z</time></trkpt><trkpt lat="43.527337894295535" lon="10.621603190444882"><ele>107.5</ele><time>2026-04-18T07:05:26Z</time></trkpt><trkpt lat="43.52745080330758" lon="10.621595627301623"><ele>106.25</ele><time>2026-04-18T07:05:27Z</time></trkpt><trkpt lat="43.52756921517558" lon="10.62157142142052"><ele>105.0</ele><time>2026-04-18T07:05:28Z</time></trkpt><trkpt lat="43.52768994038964" lon="10.621526791334224"><ele>105.0</ele><time>2026-04-18T07:05:29Z</time></trkpt><trkpt lat="43.5278104325709" lon="10.621463795210522"><ele>105.0</ele><time>2026-04-18T07:05:30Z</time></trkpt><trkpt lat="43.527927873926345" lon="10.621400300690578"><ele>105.0</ele><time>2026-04-18T07:05:31Z</time></trkpt><trkpt lat="43.52804126175373" lon="10.621340675076716"><ele>105.0</ele><time>2026-04-18T07:05:32Z</time></trkpt><trkpt lat="43.52815012984052" lon="10.621283835049264"><ele>105.0</ele><time>2026-04-18T07:05:33Z</time></trkpt><trkpt lat="43.52825726737004" lon="10.621227766414437"><ele>105.0</ele><time>2026-04-18T07:05:34Z</time></trkpt><trkpt lat="43.52836171462779" lon="10.621174759097798"><ele>105.0</ele><time>2026-04-18T07:05:35Z</time></trkpt><trkpt lat="43.528469810819445" lon="10.621122209493603"><ele>105.0</ele><time>2026-04-18T07:05:36Z</time></trkpt><trkpt lat="43.52857860059086" lon="10.621074469138694"><ele>105.0</ele><time>2026-04-18T07:05:37Z</time></trkpt><trkpt lat="43.52868935571611" lon="10.621030618731275"><ele>105.0</ele><time>2026-04-18T07:05:38Z</time></trkpt><trkpt lat="43.528799986771155" lon="10.620986505490222"><ele>105.0</ele><time>2026-04-18T07:05:39Z</time></trkpt><trkpt lat="43.528912047586374" lon="10.620944989400645"><ele>105.0</ele><time>2026-04-18T07:05:40Z</time></trkpt><trkpt lat="43.529141247647715" lon="10.620884502221044"><ele>103.5</ele><time>2026-04-18T07:05:42Z</time></trkpt><trkpt lat="43.52925757473673" lon="10.620871535017374"><ele>102.0</ele><time>2026-04-18T07:05:43Z</time></trkpt><trkpt lat="43.529375636547634" lon="10.620869152118859"><ele>100.5</ele><time>2026-04-18T07:05:43.999Z</time></trkpt><trkpt lat="43.52949485121729" lon="10.620871328483844"><ele>99.0</ele><time>2026-04-18T07:05:44.999Z</time></trkpt><trkpt lat="43.52961494043092" lon="10.620882347698615"><ele>98.0</ele><time>2026-04-18T07:05:45.999Z</time></trkpt><trkpt lat="43.52973211204354" lon="10.620904546518625"><ele>97.0</ele><time>2026-04-18T07:05:46.999Z</time></trkpt><trkpt lat="43.52984703572552" lon="10.620936691142996"><ele>96.0</ele><time>2026-04-18T07:05:47.999Z</time></trkpt><trkpt lat="43.52996187453392" lon="10.620970469551319"><ele>95.0</ele><time>2026-04-18T07:05:48.999Z</time></trkpt><trkpt lat="43.53007276651125" lon="10.620999324247451"><ele>95.0</ele><time>2026-04-18T07:05:49.999Z</time></trkpt><trkpt lat="43.53018318669787" lon="10.621030361296837"><ele>95.0</ele><time>2026-04-18T07:05:50.999Z</time></trkpt><trkpt lat="43.530294324581284" lon="10.621060909411936"><ele>95.0</ele><time>2026-04-18T07:05:51.999Z</time></trkpt><trkpt lat="43.53040842650017" lon="10.621087279422463"><ele>95.0</ele><time>2026-04-18T07:05:52.999Z</time></trkpt><trkpt lat="43.53052482682788" lon="10.62110406114205"><ele>93.25</ele><time>2026-04-18T07:05:53.999Z</time></trkpt><trkpt lat="43.530643981477795" lon="10.62109975585084"><ele>91.5</ele><time>2026-04-18T07:05:54.999Z</time></trkpt><trkpt lat="43.5307621259424" lon="10.621068810110181"><ele>89.75</ele><time>2026-04-18T07:05:55.999Z</time></trkpt><trkpt lat="43.53087111201509" lon="10.621011344872855"><ele>88.0</ele><time>2026-04-18T07:05:56.999Z</time></trkpt><trkpt lat="43.53096793069427" lon="10.620916355785958"><ele>88.0</ele><time>2026-04-18T07:05:57.999Z</time></trkpt><trkpt lat="43.53105204581771" lon="10.620776157639968"><ele>88.0</ele><time>2026-04-18T07:05:58.999Z</time></trkpt><trkpt lat="43.53110655019823" lon="10.620649835854604"><ele>88.0</ele><time>2026-04-18T07:05:59.999Z</time></trkpt><trkpt lat="43.531154290841336" lon="10.620529939093364"><ele>88.0</ele><time>2026-04-18T07:06:00.999Z</time></trkpt><trkpt lat="43.53120253610707" lon="10.620418960979123"><ele>88.0</ele><time>2026-04-18T07:06:01.999Z</time></trkpt><trkpt lat="43.53128489123479" lon="10.62022644845213"><ele>86.66666666666666</ele><time>2026-04-18T07:06:03.999Z</time></trkpt><trkpt lat="43.53133597886372" lon="10.620103808346386"><ele>85.33333333333333</ele><time>2026-04-18T07:06:05.999Z</time></trkpt><trkpt lat="43.531377582568574" lon="10.620009076751654"><ele>84.0</ele><time>2026-04-18T07:06:09.999Z</time></trkpt><trkpt lat="43.53142692544219" lon="10.619901508494086"><ele>82.66666666666667</ele><time>2026-04-18T07:06:12.999Z</time></trkpt><trkpt lat="43.53146343380786" lon="10.6198254597093"><ele>81.33333333333334</ele><time>2026-04-18T07:06:14.999Z</time></trkpt><trkpt lat="43.53151116830771" lon="10.619738439376727"><ele>80.0</ele><time>2026-04-18T07:06:17.999Z</time></trkpt><trkpt lat="43.531570669431325" lon="10.619652029646032"><ele>80.0</ele><time>2026-04-18T07:06:19.999Z</time></trkpt><trkpt lat="43.53167126817441" lon="10.619545439789542"><ele>80.0</ele><time>2026-04-18T07:06:21.999Z</time></trkpt><trkpt lat="43.53173524448358" lon="10.619491333697688"><ele>80.0</ele><time>2026-04-18T07:06:22.999Z</time></trkpt><trkpt lat="43.53181731799606" lon="10.619468319367416"><ele>80.0</ele><time>2026-04-18T07:06:23.999Z</time></trkpt><trkpt lat="43.531898640576124" lon="10.619426645661129"><ele>80.0</ele><time>2026-04-18T07:06:24.999Z</time></trkpt><trkpt lat="43.5319812671177" lon="10.619391791549432"><ele>78.6</ele><time>2026-04-18T07:06:25.999Z</time></trkpt><trkpt lat="43.532063661548584" lon="10.619341262709652"><ele>77.2</ele><time>2026-04-18T07:06:26.999Z</time></trkpt><trkpt lat="43.53215524900884" lon="10.619324209407127"><ele>75.8</ele><time>2026-04-18T07:06:27.999Z</time></trkpt><trkpt lat="43.532254519936515" lon="10.619323060129666"><ele>74.4</ele><time>2026-04-18T07:06:28.999Z</time></trkpt><trkpt lat="43.53236442097168" lon="10.619335650930035"><ele>73.0</ele><time>2026-04-18T07:06:30Z</time></trkpt><trkpt lat="43.53247136790494" lon="10.619360238954535"><ele>73.0</ele><time>2026-04-18T07:06:31Z</time></trkpt><trkpt lat="43.53258312509825" lon="10.619387840574165"><ele>73.0</ele><time>2026-04-18T07:06:32Z</time></trkpt><trkpt lat="43.53269264758064" lon="10.619423970961515"><ele>73.0</ele><time>2026-04-18T07:06:33Z</time></trkpt><trkpt lat="43.53280776988921" lon="10.619456436085729"><ele>73.0</ele><time>2026-04-18T07:06:34Z</time></trkpt><trkpt lat="43.5329260360839" lon="10.619490754713865"><ele>72.0</ele><time>2026-04-18T07:06:35Z</time></trkpt><trkpt lat="43.53305129194709" lon="10.619527349966726"><ele>71.0</ele><time>2026-04-18T07:06:36Z</time></trkpt><trkpt lat="43.533183805525496" lon="10.61956763893506"><ele>70.0</ele><time>2026-04-18T07:06:37Z</time></trkpt><trkpt lat="43.53332074619588" lon="10.619607378730388"><ele>69.0</ele><time>2026-04-18T07:06:38Z</time></trkpt><trkpt lat="43.53345765887873" lon="10.619667016302236"><ele>69.0</ele><time>2026-04-18T07:06:39Z</time></trkpt><trkpt lat="43.53359903640764" lon="10.619708258323831"><ele>69.0</ele><time>2026-04-18T07:06:40Z</time></trkpt><trkpt lat="43.533739774362374" lon="10.61974986438027"><ele>69.0</ele><time>2026-04-18T07:06:41Z</time></trkpt><trkpt lat="43.533880432086434" lon="10.619791848221997"><ele>69.0</ele><time>2026-04-18T07:06:42Z</time></trkpt><trkpt lat="43.53401891675241" lon="10.619832622627893"><ele>68.75</ele><time>2026-04-18T07:06:43Z</time></trkpt><trkpt lat="43.53415831671267" lon="10.619872423823534"><ele>68.5</ele><time>2026-04-18T07:06:44Z</time></trkpt><trkpt lat="43.53429973547123" lon="10.619884966926154"><ele>68.25</ele><time>2026-04-18T07:06:45Z</time></trkpt><trkpt lat="43.53444111908089" lon="10.619910028411715"><ele>68.0</ele><time>2026-04-18T07:06:46Z</time></trkpt><trkpt lat="43.534584864430755" lon="10.619905266727923"><ele>67.75</ele><time>2026-04-18T07:06:47Z</time></trkpt><trkpt lat="43.534725498178844" lon="10.619874780663416"><ele>67.5</ele><time>2026-04-18T07:06:48Z</time></trkpt><trkpt lat="43.53486773658297" lon="10.619837017410461"><ele>67.25</ele><time>2026-04-18T07:06:49Z</time></trkpt><trkpt lat="43.53501439781048" lon="10.619798102569144"><ele>67.0</ele><time>2026-04-18T07:06:50Z</time></trkpt><trkpt lat="43.53516165981803" lon="10.619756293915977"><ele>67.0</ele><time>2026-04-18T07:06:51Z</time></trkpt><trkpt lat="43.535308890604924" lon="10.619714161308577"><ele>67.0</ele><time>2026-04-18T07:06:52Z</time></trkpt><trkpt lat="43.53545652962281" lon="10.619671698512079"><ele>67.0</ele><time>2026-04-18T07:06:53Z</time></trkpt><trkpt lat="43.535606646275895" lon="10.619658903786103"><ele>66.0</ele><time>2026-04-18T07:06:54Z</time></trkpt><trkpt lat="43.53575138890065" lon="10.619621641705862"><ele>65.0</ele><time>2026-04-18T07:06:55Z</time></trkpt><trkpt lat="43.535897054994166" lon="10.61955738860515"><ele>64.0</ele><time>2026-04-18T07:06:56Z</time></trkpt><trkpt lat="43.53604801022809" lon="10.619519270818138"><ele>64.33333333333333</ele><time>2026-04-18T07:06:57Z</time></trkpt><trkpt lat="43.53620252361025" lon="10.619479482138166"><ele>64.66666666666667</ele><time>2026-04-18T07:06:58Z</time></trkpt><trkpt lat="43.53635819884772" lon="10.619438771840446"><ele>65.0</ele><time>2026-04-18T07:06:59Z</time></trkpt><trkpt lat="43.536513818530246" lon="10.619399048608633"><ele>65.33333333333334</ele><time>2026-04-18T07:07:00Z</time></trkpt><trkpt lat="43.53666829809865" lon="10.61936492167191"><ele>65.66666666666667</ele><time>2026-04-18T07:07:01Z</time></trkpt><trkpt lat="43.53681951972359" lon="10.619333304540651"><ele>66.0</ele><time>2026-04-18T07:07:02Z</time></trkpt><trkpt lat="43.53697022166444" lon="10.619312993408688"><ele>65.75</ele><time>2026-04-18T07:07:03Z</time></trkpt><trkpt lat="43.53711718988996" lon="10.619297254674121"><ele>65.5</ele><time>2026-04-18T07:07:04Z</time></trkpt><trkpt lat="43.53726381175904" lon="10.619281521200909"><ele>65.25</ele><time>2026-04-18T07:07:05Z</time></trkpt><trkpt lat="43.53740860064685" lon="10.61926554774559"><ele>65.0</ele><time>2026-04-18T07:07:06Z</time></trkpt><trkpt lat="43.53755125255748" lon="10.619255165623784"><ele>65.0</ele><time>2026-04-18T07:07:07Z</time></trkpt><trkpt lat="43.53769240091638" lon="10.619248217012782"><ele>65.0</ele><time>2026-04-18T07:07:08Z</time></trkpt><trkpt lat="43.537834184678836" lon="10.619241543789625"><ele>65.0</ele><time>2026-04-18T07:07:09Z</time></trkpt><trkpt lat="43.53797339780602" lon="10.619232994148225"><ele>65.0</ele><time>2026-04-18T07:07:10Z</time></trkpt><trkpt lat="43.538111417873345" lon="10.6192266028875"><ele>64.0</ele><time>2026-04-18T07:07:11Z</time></trkpt><trkpt lat="43.53824738645577" lon="10.619224227023478"><ele>63.0</ele><time>2026-04-18T07:07:12Z</time></trkpt><trkpt lat="43.538382873567535" lon="10.619228969479442"><ele>62.0</ele><time>2026-04-18T07:07:13Z</time></trkpt><trkpt lat="43.53851740117443" lon="10.61923596243711"><ele>61.0</ele><time>2026-04-18T07:07:14Z</time></trkpt><trkpt lat="43.53865128527898" lon="10.619247496411434"><ele>61.0</ele><time>2026-04-18T07:07:15Z</time></trkpt><trkpt lat="43.53878576304143" lon="10.619263503895384"><ele>61.0</ele><time>2026-04-18T07:07:16Z</time></trkpt><trkpt lat="43.538921195663626" lon="10.619281285409278"><ele>61.0</ele><time>2026-04-18T07:07:17Z</time></trkpt><trkpt lat="43.539057543529495" lon="10.61929946397709"><ele>61.0</ele><time>2026-04-18T07:07:18Z</time></trkpt><trkpt lat="43.539194360624364" lon="10.619319722051214"><ele>61.0</ele><time>2026-04-18T07:07:19Z</time></trkpt><trkpt lat="43.53933175552153" lon="10.619342221600826"><ele>61.0</ele><time>2026-04-18T07:07:20Z</time></trkpt><trkpt lat="43.53947166239159" lon="10.61935757411892"><ele>61.0</ele><time>2026-04-18T07:07:21Z</time></trkpt><trkpt lat="43.53961190342923" lon="10.619362897727328"><ele>61.0</ele><time>2026-04-18T07:07:22Z</time></trkpt><trkpt lat="43.53975227404984" lon="10.619355330648498"><ele>61.0</ele><time>2026-04-18T07:07:23Z</time></trkpt><trkpt lat="43.5398937057255" lon="10.619336406952732"><ele>61.0</ele><time>2026-04-18T07:07:24Z</time></trkpt><trkpt lat="43.54003494313182" lon="10.619310629987792"><ele>61.0</ele><time>2026-04-18T07:07:25Z</time></trkpt><trkpt lat="43.54017656748263" lon="10.619280987776444"><ele>61.0</ele><time>2026-04-18T07:07:26Z</time></trkpt><trkpt lat="43.54031855223586" lon="10.61925341979069"><ele>59.0</ele><time>2026-04-18T07:07:27Z</time></trkpt><trkpt lat="43.54146077689282" lon="10.619165541619461"><ele>59.0</ele><time>2026-04-18T07:07:35Z</time></trkpt><trkpt lat="43.54160218675692" lon="10.61918896413199"><ele>59.0</ele><time>2026-04-18T07:07:36Z</time></trkpt><trkpt lat="43.5417419205808" lon="10.619216142162475"><ele>59.0</ele><time>2026-04-18T07:07:37Z</time></trkpt><trkpt lat="43.5418818152545" lon="10.619251483287375"><ele>59.0</ele><time>2026-04-18T07:07:38Z</time></trkpt><trkpt lat="43.54202196076291" lon="10.619300080920462"><ele>59.0</ele><time>2026-04-18T07:07:39Z</time></trkpt><trkpt lat="43.54216390217369" lon="10.619359839913761"><ele>59.0</ele><time>2026-04-18T07:07:40Z</time></trkpt><trkpt lat="43.542307067135674" lon="10.619429444525393"><ele>59.0</ele><time>2026-04-18T07:07:41Z</time></trkpt><trkpt lat="43.54245319113165" lon="10.619505344510344"><ele>59.0</ele><time>2026-04-18T07:07:42Z</time></trkpt><trkpt lat="43.54260278053967" lon="10.619580931251164"><ele>59.0</ele><time>2026-04-18T07:07:43Z</time></trkpt><trkpt lat="43.54275405867553" lon="10.619654430866504"><ele>59.0</ele><time>2026-04-18T07:07:44Z</time></trkpt><trkpt lat="43.54290651480894" lon="10.619730746669426"><ele>58.333333333333336</ele><time>2026-04-18T07:07:45Z</time></trkpt><trkpt lat="43.5430590793122" lon="10.619808144608072"><ele>57.66666666666667</ele><time>2026-04-18T07:07:46Z</time></trkpt><trkpt lat="43.543211804531104" lon="10.619884606770132"><ele>57.0</ele><time>2026-04-18T07:07:47Z</time></trkpt><trkpt lat="43.54336523194798" lon="10.619958837942185"><ele>57.0</ele><time>2026-04-18T07:07:48Z</time></trkpt><trkpt lat="43.54351755995113" lon="10.620033349490651"><ele>57.0</ele><time>2026-04-18T07:07:49Z</time></trkpt><trkpt lat="43.543669354175314" lon="10.620110040312733"><ele>57.0</ele><time>2026-04-18T07:07:50Z</time></trkpt><trkpt lat="43.543820624061624" lon="10.620191186099575"><ele>57.0</ele><time>2026-04-18T07:07:51Z</time></trkpt><trkpt lat="43.54397008452115" lon="10.620270014291403"><ele>57.0</ele><time>2026-04-18T07:07:52Z</time></trkpt><trkpt lat="43.544118350407274" lon="10.62035808196982"><ele>57.0</ele><time>2026-04-18T07:07:53Z</time></trkpt><trkpt lat="43.544265071366894" lon="10.620449802716825"><ele>56.66666666666667</ele><time>2026-04-18T07:07:54Z</time></trkpt><trkpt lat="43.54440951197114" lon="10.620546933095383"><ele>56.333333333333336</ele><time>2026-04-18T07:07:55Z</time></trkpt><trkpt lat="43.54454975795393" lon="10.620646745547841"><ele>56.0</ele><time>2026-04-18T07:07:56Z</time></trkpt><trkpt lat="43.544688926366824" lon="10.620749510609507"><ele>55.333333333333336</ele><time>2026-04-18T07:07:57Z</time></trkpt><trkpt lat="43.54482955926761" lon="10.620849756623912"><ele>54.66666666666667</ele><time>2026-04-18T07:07:58Z</time></trkpt><trkpt lat="43.544970297280386" lon="10.620954658984076"><ele>54.0</ele><time>2026-04-18T07:07:59Z</time></trkpt><trkpt lat="43.54511093745611" lon="10.621070313202516"><ele>53.33333333333333</ele><time>2026-04-18T07:08:00Z</time></trkpt><trkpt lat="43.54525222238503" lon="10.621196111314024"><ele>52.666666666666664</ele><time>2026-04-18T07:08:01Z</time></trkpt><trkpt lat="43.5453931099947" lon="10.621331569051362"><ele>52.0</ele><time>2026-04-18T07:08:02Z</time></trkpt><trkpt lat="43.54553501824934" lon="10.621469018206376"><ele>51.666666666666664</ele><time>2026-04-18T07:08:03Z</time></trkpt><trkpt lat="43.545676369951835" lon="10.621606202257254"><ele>51.33333333333333</ele><time>2026-04-18T07:08:04Z</time></trkpt><trkpt lat="43.54581671240458" lon="10.621743215671122"><ele>51.0</ele><time>2026-04-18T07:08:05Z</time></trkpt><trkpt lat="43.54595690197342" lon="10.621876919452456"><ele>51.0</ele><time>2026-04-18T07:08:06Z</time></trkpt><trkpt lat="43.54610243330766" lon="10.621991265689328"><ele>51.0</ele><time>2026-04-18T07:08:07Z</time></trkpt><trkpt lat="43.546247204913755" lon="10.622094608806858"><ele>51.0</ele><time>2026-04-18T07:08:08Z</time></trkpt><trkpt lat="43.54639293174269" lon="10.622193063162975"><ele>51.0</ele><time>2026-04-18T07:08:09Z</time></trkpt><trkpt lat="43.54653862059952" lon="10.622279872806875"><ele>51.0</ele><time>2026-04-18T07:08:10Z</time></trkpt><trkpt lat="43.54668313338654" lon="10.622354760316817"><ele>51.0</ele><time>2026-04-18T07:08:11Z</time></trkpt><trkpt lat="43.546826669320964" lon="10.622421590629635"><ele>51.0</ele><time>2026-04-18T07:08:11.999Z</time></trkpt><trkpt lat="43.546970072796675" lon="10.62247309339667"><ele>51.0</ele><time>2026-04-18T07:08:12.999Z</time></trkpt><trkpt lat="43.54711389138917" lon="10.622509746315401"><ele>51.0</ele><time>2026-04-18T07:08:13.999Z</time></trkpt><trkpt lat="43.547256443351685" lon="10.62254105082272"><ele>51.0</ele><time>2026-04-18T07:08:14.999Z</time></trkpt><trkpt lat="43.54739524306795" lon="10.622575859718438"><ele>52.5</ele><time>2026-04-18T07:08:15.999Z</time></trkpt><trkpt lat="43.54752859020229" lon="10.62262559388364"><ele>54.0</ele><time>2026-04-18T07:08:16.999Z</time></trkpt><trkpt lat="43.547657977990205" lon="10.622685937390044"><ele>55.5</ele><time>2026-04-18T07:08:17.999Z</time></trkpt><trkpt lat="43.54778342864178" lon="10.6227547328196"><ele>57.0</ele><time>2026-04-18T07:08:18.999Z</time></trkpt><trkpt lat="43.54790796479543" lon="10.622818607051359"><ele>57.0</ele><time>2026-04-18T07:08:19.999Z</time></trkpt><trkpt lat="43.54802802621917" lon="10.62288282541247"><ele>57.0</ele><time>2026-04-18T07:08:20.999Z</time></trkpt><trkpt lat="43.54814371851532" lon="10.622946301929371"><ele>57.0</ele><time>2026-04-18T07:08:21.999Z</time></trkpt><trkpt lat="43.54825476758852" lon="10.623017982911005"><ele>57.0</ele><time>2026-04-18T07:08:22.999Z</time></trkpt><trkpt lat="43.54835511180181" lon="10.62311243537204"><ele>57.0</ele><time>2026-04-18T07:08:23.999Z</time></trkpt><trkpt lat="43.548444245144324" lon="10.623225483072892"><ele>57.0</ele><time>2026-04-18T07:08:24.999Z</time></trkpt><trkpt lat="43.548515993947376" lon="10.62336095628813"><ele>57.0</ele><time>2026-04-18T07:08:25.999Z</time></trkpt><trkpt lat="43.54855857568762" lon="10.623517531334931"><ele>57.0</ele><time>2026-04-18T07:08:26.999Z</time></trkpt><trkpt lat="43.54862217547059" lon="10.623662109165084"><ele>56.25</ele><time>2026-04-18T07:08:27.999Z</time></trkpt><trkpt lat="43.54866600390553" lon="10.62382073059064"><ele>55.5</ele><time>2026-04-18T07:08:28.999Z</time></trkpt><trkpt lat="43.54871387268112" lon="10.623977062634813"><ele>54.75</ele><time>2026-04-18T07:08:29.999Z</time></trkpt><trkpt lat="43.54876310534462" lon="10.62413364184693"><ele>54.0</ele><time>2026-04-18T07:08:30.999Z</time></trkpt><trkpt lat="43.54881510002172" lon="10.624288557942272"><ele>54.75</ele><time>2026-04-18T07:08:31.999Z</time></trkpt><trkpt lat="43.548883863871005" lon="10.624429485963901"><ele>55.5</ele><time>2026-04-18T07:08:32.999Z</time></trkpt><trkpt lat="43.548965384345856" lon="10.624560182832273"><ele>56.25</ele><time>2026-04-18T07:08:33.999Z</time></trkpt><trkpt lat="43.549053301421736" lon="10.624682266817043"><ele>57.0</ele><time>2026-04-18T07:08:35Z</time></trkpt><trkpt lat="43.54914395413244" lon="10.624802024279544"><ele>57.0</ele><time>2026-04-18T07:08:36Z</time></trkpt><trkpt lat="43.54923725138257" lon="10.624920324662245"><ele>57.0</ele><time>2026-04-18T07:08:37Z</time></trkpt><trkpt lat="43.54933013032585" lon="10.625038898110768"><ele>57.0</ele><time>2026-04-18T07:08:38Z</time></trkpt><trkpt lat="43.54942344304803" lon="10.625155149527739"><ele>57.0</ele><time>2026-04-18T07:08:39Z</time></trkpt><trkpt lat="43.54951777611224" lon="10.62526499752729"><ele>56.25</ele><time>2026-04-18T07:08:40Z</time></trkpt><trkpt lat="43.54961463955503" lon="10.625365791360025"><ele>55.5</ele><time>2026-04-18T07:08:41Z</time></trkpt><trkpt lat="43.549720143046265" lon="10.62544342661767"><ele>54.75</ele><time>2026-04-18T07:08:42Z</time></trkpt><trkpt lat="43.5498354956149" lon="10.625500521289327"><ele>54.0</ele><time>2026-04-18T07:08:43Z</time></trkpt><trkpt lat="43.54995803609013" lon="10.625536490727702"><ele>54.0</ele><time>2026-04-18T07:08:44Z</time></trkpt><trkpt lat="43.550082366999675" lon="10.62557112065444"><ele>54.0</ele><time>2026-04-18T07:08:45Z</time></trkpt><trkpt lat="43.55021049485714" lon="10.625606786572103"><ele>54.0</ele><time>2026-04-18T07:08:46Z</time></trkpt><trkpt lat="43.55034324547822" lon="10.625643605027125"><ele>54.0</ele><time>2026-04-18T07:08:47Z</time></trkpt><trkpt lat="43.55047840556816" lon="10.625682105170332"><ele>53.75</ele><time>2026-04-18T07:08:48Z</time></trkpt><trkpt lat="43.55061491012562" lon="10.625718803001705"><ele>53.5</ele><time>2026-04-18T07:08:49Z</time></trkpt><trkpt lat="43.55075366922309" lon="10.625745763521698"><ele>53.25</ele><time>2026-04-18T07:08:50Z</time></trkpt><trkpt lat="43.550895857277574" lon="10.625762526279892"><ele>53.0</ele><time>2026-04-18T07:08:51Z</time></trkpt><trkpt lat="43.551043767847" lon="10.625762297273193"><ele>53.0</ele><time>2026-04-18T07:08:52Z</time></trkpt><trkpt lat="43.55120061648851" lon="10.625746753367437"><ele>53.0</ele><time>2026-04-18T07:08:53Z</time></trkpt><trkpt lat="43.551366318604" lon="10.625728730326406"><ele>53.0</ele><time>2026-04-18T07:08:54Z</time></trkpt><trkpt lat="43.55153397335721" lon="10.625710389605214"><ele>52.333333333333336</ele><time>2026-04-18T07:08:55Z</time></trkpt><trkpt lat="43.55169992415843" lon="10.625689353158133"><ele>51.66666666666667</ele><time>2026-04-18T07:08:56Z</time></trkpt><trkpt lat="43.55186391874426" lon="10.62567170733601"><ele>51.0</ele><time>2026-04-18T07:08:57Z</time></trkpt><trkpt lat="43.552016624504176" lon="10.625680217563517"><ele>51.75</ele><time>2026-04-18T07:08:58Z</time></trkpt><trkpt lat="43.55215955066495" lon="10.625744855810378"><ele>52.5</ele><time>2026-04-18T07:08:59Z</time></trkpt><trkpt lat="43.55229869109157" lon="10.625817118527582"><ele>53.25</ele><time>2026-04-18T07:09:00Z</time></trkpt><trkpt lat="43.552430122930915" lon="10.62591105408247"><ele>54.0</ele><time>2026-04-18T07:09:01Z</time></trkpt><trkpt lat="43.55256793661836" lon="10.626002652737592"><ele>54.0</ele><time>2026-04-18T07:09:02Z</time></trkpt><trkpt lat="43.552697194989996" lon="10.62611672884486"><ele>54.0</ele><time>2026-04-18T07:09:03Z</time></trkpt><trkpt lat="43.55282239678797" lon="10.626240227426115"><ele>54.0</ele><time>2026-04-18T07:09:04Z</time></trkpt><trkpt lat="43.55305996095001" lon="10.62648847821087"><ele>54.0</ele><time>2026-04-18T07:09:06Z</time></trkpt><trkpt lat="43.553173435785936" lon="10.626609562516952"><ele>54.0</ele><time>2026-04-18T07:09:07Z</time></trkpt><trkpt lat="43.55328913709304" lon="10.626721644110072"><ele>54.0</ele><time>2026-04-18T07:09:08Z</time></trkpt><trkpt lat="43.55340637560243" lon="10.626809176290513"><ele>54.0</ele><time>2026-04-18T07:09:09Z</time></trkpt><trkpt lat="43.55352449138975" lon="10.626869575264081"><ele>54.0</ele><time>2026-04-18T07:09:10Z</time></trkpt><trkpt lat="43.55364464568844" lon="10.626889814885526"><ele>54.0</ele><time>2026-04-18T07:09:11Z</time></trkpt><trkpt lat="43.55376765657342" lon="10.626887148779264"><ele>54.0</ele><time>2026-04-18T07:09:12Z</time></trkpt><trkpt lat="43.55389123573444" lon="10.626895851170897"><ele>54.0</ele><time>2026-04-18T07:09:13Z</time></trkpt><trkpt lat="43.55401429106735" lon="10.626938055936556"><ele>51.75</ele><time>2026-04-18T07:09:14Z</time></trkpt><trkpt lat="43.554134009183755" lon="10.62701204961595"><ele>49.5</ele><time>2026-04-18T07:09:15Z</time></trkpt><trkpt lat="43.554242488712646" lon="10.627101844872126"><ele>47.25</ele><time>2026-04-18T07:09:16Z</time></trkpt><trkpt lat="43.55435654076025" lon="10.62716566877893"><ele>45.0</ele><time>2026-04-18T07:09:17Z</time></trkpt><trkpt lat="43.554473664838355" lon="10.627197013948292"><ele>45.5</ele><time>2026-04-18T07:09:18Z</time></trkpt><trkpt lat="43.55458370906227" lon="10.627199613650856"><ele>46.0</ele><time>2026-04-18T07:09:19Z</time></trkpt><trkpt lat="43.55468413753258" lon="10.627213437605127"><ele>46.5</ele><time>2026-04-18T07:09:20Z</time></trkpt><trkpt lat="43.55482050592916" lon="10.62718808901909"><ele>47.0</ele><time>2026-04-18T07:09:22Z</time></trkpt><trkpt lat="43.55480116089007" lon="10.627386226906255"><ele>47.0</ele><time>2026-04-18T07:09:26Z</time></trkpt><trkpt lat="43.5547214268742" lon="10.627517103412032"><ele>47.0</ele><time>2026-04-18T07:09:28Z</time></trkpt><trkpt lat="43.554660857748466" lon="10.62758181091907"><ele>47.0</ele><time>2026-04-18T07:09:29Z</time></trkpt><trkpt lat="43.554608148072624" lon="10.627665932799394"><ele>47.0</ele><time>2026-04-18T07:09:30Z</time></trkpt><trkpt lat="43.55455280075394" lon="10.627753377523526"><ele>47.0</ele><time>2026-04-18T07:09:31Z</time></trkpt><trkpt lat="43.55449541255325" lon="10.62784225990383"><ele>46.2</ele><time>2026-04-18T07:09:32Z</time></trkpt><trkpt lat="43.55444760543564" lon="10.62794800955361"><ele>45.400000000000006</ele><time>2026-04-18T07:09:33Z</time></trkpt><trkpt lat="43.55438241271452" lon="10.628030473213814"><ele>44.599999999999994</ele><time>2026-04-18T07:09:34Z</time></trkpt><trkpt lat="43.554318618474014" lon="10.628104505991043"><ele>43.8</ele><time>2026-04-18T07:09:35Z</time></trkpt><trkpt lat="43.55424718556962" lon="10.628136519607422"><ele>43.0</ele><time>2026-04-18T07:09:36Z</time></trkpt><trkpt lat="43.55413435697883" lon="10.62818275650177"><ele>43.0</ele><time>2026-04-18T07:09:38Z</time></trkpt><trkpt lat="43.55400993065452" lon="10.628234298134332"><ele>43.0</ele><time>2026-04-18T07:09:40Z</time></trkpt><trkpt lat="43.55395329429817" lon="10.628285457706562"><ele>43.0</ele><time>2026-04-18T07:09:41Z</time></trkpt><trkpt lat="43.553900214258526" lon="10.628365173889954"><ele>43.0</ele><time>2026-04-18T07:09:42Z</time></trkpt><trkpt lat="43.55386056870651" lon="10.628461877789157"><ele>43.0</ele><time>2026-04-18T07:09:43Z</time></trkpt><trkpt lat="43.553828355791524" lon="10.628564318080468"><ele>43.0</ele><time>2026-04-18T07:09:44Z</time></trkpt><trkpt lat="43.553803502651256" lon="10.628672457360812"><ele>43.0</ele><time>2026-04-18T07:09:45Z</time></trkpt><trkpt lat="43.55378126996997" lon="10.628785946863163"><ele>43.0</ele><time>2026-04-18T07:09:46Z</time></trkpt><trkpt lat="43.55377108340181" lon="10.628906729470101"><ele>43.0</ele><time>2026-04-18T07:09:47Z</time></trkpt><trkpt lat="43.553752443441766" lon="10.62902556960586"><ele>43.0</ele><time>2026-04-18T07:09:48Z</time></trkpt><trkpt lat="43.55373449921188" lon="10.629149845506861"><ele>43.0</ele><time>2026-04-18T07:09:49Z</time></trkpt><trkpt lat="43.55371508655941" lon="10.62927428273441"><ele>43.0</ele><time>2026-04-18T07:09:50Z</time></trkpt><trkpt lat="43.55369445721662" lon="10.629402484425425"><ele>43.599999999999994</ele><time>2026-04-18T07:09:51Z</time></trkpt><trkpt lat="43.553673690456264" lon="10.629529011019322"><ele>44.199999999999996</ele><time>2026-04-18T07:09:52Z</time></trkpt><trkpt lat="43.55363697582521" lon="10.629646053001094"><ele>44.8</ele><time>2026-04-18T07:09:53Z</time></trkpt><trkpt lat="43.55363380891616" lon="10.629770737517637"><ele>45.4</ele><time>2026-04-18T07:09:54Z</time></trkpt><trkpt lat="43.5536161222734" lon="10.629891886246387"><ele>46.0</ele><time>2026-04-18T07:09:55Z</time></trkpt><trkpt lat="43.55359726410627" lon="10.630020616629997"><ele>46.0</ele><time>2026-04-18T07:09:56Z</time></trkpt><trkpt lat="43.553581209696404" lon="10.630155590891597"><ele>46.0</ele><time>2026-04-18T07:09:57Z</time></trkpt><trkpt lat="43.553563259147495" lon="10.630296388195234"><ele>46.0</ele><time>2026-04-18T07:09:58Z</time></trkpt><trkpt lat="43.553546341791545" lon="10.630443734888651"><ele>46.0</ele><time>2026-04-18T07:09:59Z</time></trkpt><trkpt lat="43.553529497462485" lon="10.63059659356591"><ele>46.0</ele><time>2026-04-18T07:10:00Z</time></trkpt><trkpt lat="43.553509827297546" lon="10.630753925217016"><ele>46.0</ele><time>2026-04-18T07:10:01Z</time></trkpt><trkpt lat="43.553488869301084" lon="10.630919073996267"><ele>46.0</ele><time>2026-04-18T07:10:02Z</time></trkpt><trkpt lat="43.55347021434336" lon="10.631086311869739"><ele>46.0</ele><time>2026-04-18T07:10:03Z</time></trkpt><trkpt lat="43.55344791897543" lon="10.63125740305001"><ele>46.0</ele><time>2026-04-18T07:10:04Z</time></trkpt><trkpt lat="43.553423531249344" lon="10.631430407668255"><ele>46.0</ele><time>2026-04-18T07:10:05Z</time></trkpt><trkpt lat="43.553396202457776" lon="10.631597588999906"><ele>46.0</ele><time>2026-04-18T07:10:06Z</time></trkpt><trkpt lat="43.55336244519509" lon="10.631760265623699"><ele>46.0</ele><time>2026-04-18T07:10:07Z</time></trkpt><trkpt lat="43.55332415370755" lon="10.63192108795232"><ele>46.0</ele><time>2026-04-18T07:10:08Z</time></trkpt><trkpt lat="43.553281924132534" lon="10.6320788718218"><ele>46.0</ele><time>2026-04-18T07:10:09Z</time></trkpt><trkpt lat="43.55324063505577" lon="10.632236457112924"><ele>46.0</ele><time>2026-04-18T07:10:10Z</time></trkpt><trkpt lat="43.553199044437605" lon="10.63239317235303"><ele>46.0</ele><time>2026-04-18T07:10:11Z</time></trkpt><trkpt lat="43.55314597923489" lon="10.632540249228144"><ele>46.0</ele><time>2026-04-18T07:10:12Z</time></trkpt><trkpt lat="43.553107909017726" lon="10.632690525906836"><ele>46.8</ele><time>2026-04-18T07:10:13Z</time></trkpt><trkpt lat="43.55307510633171" lon="10.632826880855527"><ele>47.599999999999994</ele><time>2026-04-18T07:10:14Z</time></trkpt><trkpt lat="43.55304665779953" lon="10.632942886984551"><ele>48.4</ele><time>2026-04-18T07:10:15Z</time></trkpt><trkpt lat="43.55302197771523" lon="10.633033240123906"><ele>49.2</ele><time>2026-04-18T07:10:16Z</time></trkpt><trkpt lat="43.55293619959852" lon="10.633120181329465"><ele>50.0</ele><time>2026-04-18T07:10:18Z</time></trkpt><trkpt lat="43.55281489032471" lon="10.633096694122344"><ele>51.0</ele><time>2026-04-18T07:10:20Z</time></trkpt><trkpt lat="43.55274540191366" lon="10.633060966136968"><ele>52.0</ele><time>2026-04-18T07:10:21Z</time></trkpt><trkpt lat="43.55266660847804" lon="10.633009920173347"><ele>53.0</ele><time>2026-04-18T07:10:22Z</time></trkpt><trkpt lat="43.55257538076552" lon="10.63295361501163"><ele>54.0</ele><time>2026-04-18T07:10:23Z</time></trkpt><trkpt lat="43.55247379008483" lon="10.632893102204392"><ele>55.0</ele><time>2026-04-18T07:10:24Z</time></trkpt><trkpt lat="43.552364348306206" lon="10.632830340665235"><ele>54.0</ele><time>2026-04-18T07:10:25Z</time></trkpt><trkpt lat="43.55224858225373" lon="10.632764424678735"><ele>53.0</ele><time>2026-04-18T07:10:26Z</time></trkpt><trkpt lat="43.552133588888665" lon="10.632679503536663"><ele>52.0</ele><time>2026-04-18T07:10:27Z</time></trkpt><trkpt lat="43.552018216804726" lon="10.632577240138492"><ele>51.0</ele><time>2026-04-18T07:10:28Z</time></trkpt><trkpt lat="43.5519119167039" lon="10.632446203625369"><ele>51.0</ele><time>2026-04-18T07:10:29Z</time></trkpt><trkpt lat="43.55179140041139" lon="10.632344765161855"><ele>51.0</ele><time>2026-04-18T07:10:30Z</time></trkpt><trkpt lat="43.55168210483394" lon="10.6322262081027"><ele>51.0</ele><time>2026-04-18T07:10:31Z</time></trkpt><trkpt lat="43.551575485995734" lon="10.632109238671543"><ele>51.0</ele><time>2026-04-18T07:10:32Z</time></trkpt><trkpt lat="43.551466380969146" lon="10.632003750147103"><ele>50.75</ele><time>2026-04-18T07:10:33Z</time></trkpt><trkpt lat="43.55135007827974" lon="10.631921160169803"><ele>50.5</ele><time>2026-04-18T07:10:34Z</time></trkpt><trkpt lat="43.55123280179233" lon="10.631833578301759"><ele>50.25</ele><time>2026-04-18T07:10:34.999Z</time></trkpt><trkpt lat="43.55110498268484" lon="10.631783249104998"><ele>50.0</ele><time>2026-04-18T07:10:35.999Z</time></trkpt><trkpt lat="43.55098050073629" lon="10.631758052315671"><ele>50.0</ele><time>2026-04-18T07:10:36.999Z</time></trkpt><trkpt lat="43.55085509926841" lon="10.631733377834594"><ele>50.0</ele><time>2026-04-18T07:10:37.999Z</time></trkpt><trkpt lat="43.550727871590645" lon="10.631734188147625"><ele>50.0</ele><time>2026-04-18T07:10:38.999Z</time></trkpt><trkpt lat="43.55059999402236" lon="10.631741163003015"><ele>50.0</ele><time>2026-04-18T07:10:40Z</time></trkpt><trkpt lat="43.550468853842155" lon="10.631753813393583"><ele>50.5</ele><time>2026-04-18T07:10:41Z</time></trkpt><trkpt lat="43.55033879533273" lon="10.63176942385779"><ele>51.0</ele><time>2026-04-18T07:10:42Z</time></trkpt><trkpt lat="43.55020758830852" lon="10.63179227365871"><ele>51.5</ele><time>2026-04-18T07:10:43Z</time></trkpt><trkpt lat="43.550072952897445" lon="10.631811398103421"><ele>52.0</ele><time>2026-04-18T07:10:44Z</time></trkpt><trkpt lat="43.54993715465711" lon="10.631833380111"><ele>52.0</ele><time>2026-04-18T07:10:45Z</time></trkpt><trkpt lat="43.549798235261015" lon="10.631852315534957"><ele>52.0</ele><time>2026-04-18T07:10:46Z</time></trkpt><trkpt lat="43.549660140384695" lon="10.631865609446164"><ele>52.0</ele><time>2026-04-18T07:10:47Z</time></trkpt><trkpt lat="43.549524365786844" lon="10.63187758502797"><ele>52.0</ele><time>2026-04-18T07:10:48Z</time></trkpt><trkpt lat="43.54939674977567" lon="10.631889392964503"><ele>52.25</ele><time>2026-04-18T07:10:49Z</time></trkpt><trkpt lat="43.54927628516137" lon="10.63191596181498"><ele>52.5</ele><time>2026-04-18T07:10:50Z</time></trkpt><trkpt lat="43.54915942051852" lon="10.631980894700732"><ele>52.75</ele><time>2026-04-18T07:10:51Z</time></trkpt><trkpt lat="43.54904575636855" lon="10.632066697032975"><ele>53.0</ele><time>2026-04-18T07:10:52Z</time></trkpt><trkpt lat="43.54892952550617" lon="10.63215400599188"><ele>52.66666666666667</ele><time>2026-04-18T07:10:53Z</time></trkpt><trkpt lat="43.548806736597136" lon="10.6322515447574"><ele>52.33333333333333</ele><time>2026-04-18T07:10:54Z</time></trkpt><trkpt lat="43.54867504508646" lon="10.632360876254772"><ele>52.0</ele><time>2026-04-18T07:10:55Z</time></trkpt><trkpt lat="43.548532252324875" lon="10.632475180855545"><ele>52.0</ele><time>2026-04-18T07:10:56Z</time></trkpt><trkpt lat="43.54838285482311" lon="10.632594742181405"><ele>52.0</ele><time>2026-04-18T07:10:57Z</time></trkpt><trkpt lat="43.54822425293724" lon="10.632718170734817"><ele>52.0</ele><time>2026-04-18T07:10:58Z</time></trkpt><trkpt lat="43.548060549773716" lon="10.632842006010467"><ele>53.0</ele><time>2026-04-18T07:10:59Z</time></trkpt><trkpt lat="43.54789433170618" lon="10.632966001362211"><ele>54.0</ele><time>2026-04-18T07:11:00Z</time></trkpt><trkpt lat="43.547727162983534" lon="10.633087373564434"><ele>55.0</ele><time>2026-04-18T07:11:01Z</time></trkpt><trkpt lat="43.54756107996753" lon="10.633201192011901"><ele>55.0</ele><time>2026-04-18T07:11:02Z</time></trkpt><trkpt lat="43.547398076362974" lon="10.633311935249607"><ele>55.0</ele><time>2026-04-18T07:11:03Z</time></trkpt><trkpt lat="43.5472373863676" lon="10.633417938576097"><ele>55.0</ele><time>2026-04-18T07:11:04Z</time></trkpt><trkpt lat="43.54708106599178" lon="10.633524234707577"><ele>55.0</ele><time>2026-04-18T07:11:05Z</time></trkpt><trkpt lat="43.54693495850991" lon="10.633647229551745"><ele>55.0</ele><time>2026-04-18T07:11:06Z</time></trkpt><trkpt lat="43.546797785143724" lon="10.633789807263023"><ele>55.0</ele><time>2026-04-18T07:11:07Z</time></trkpt><trkpt lat="43.54666942992379" lon="10.633954661377656"><ele>55.0</ele><time>2026-04-18T07:11:08Z</time></trkpt><trkpt lat="43.546541737024135" lon="10.634121842969748"><ele>55.0</ele><time>2026-04-18T07:11:09Z</time></trkpt><trkpt lat="43.54641385169105" lon="10.634291003141794"><ele>55.0</ele><time>2026-04-18T07:11:10Z</time></trkpt><trkpt lat="43.54628555866163" lon="10.63445721200248"><ele>54.33333333333333</ele><time>2026-04-18T07:11:11Z</time></trkpt><trkpt lat="43.54616022034484" lon="10.634626771461793"><ele>53.66666666666667</ele><time>2026-04-18T07:11:12Z</time></trkpt><trkpt lat="43.54603546693887" lon="10.634799695595694"><ele>53.0</ele><time>2026-04-18T07:11:13Z</time></trkpt><trkpt lat="43.545909008801395" lon="10.634971608292721"><ele>53.0</ele><time>2026-04-18T07:11:14Z</time></trkpt><trkpt lat="43.545777636931874" lon="10.635135342685055"><ele>53.0</ele><time>2026-04-18T07:11:15Z</time></trkpt><trkpt lat="43.54564330154893" lon="10.635272778565703"><ele>53.0</ele><time>2026-04-18T07:11:16Z</time></trkpt><trkpt lat="43.545501833217834" lon="10.635384121080557"><ele>55.333333333333336</ele><time>2026-04-18T07:11:17Z</time></trkpt><trkpt lat="43.54535289730174" lon="10.635467453062011"><ele>57.66666666666667</ele><time>2026-04-18T07:11:18Z</time></trkpt><trkpt lat="43.54519828675539" lon="10.635520021023407"><ele>60.0</ele><time>2026-04-18T07:11:19Z</time></trkpt><trkpt lat="43.545043212476465" lon="10.635544069196953"><ele>60.0</ele><time>2026-04-18T07:11:20Z</time></trkpt><trkpt lat="43.54488876415506" lon="10.63555872312163"><ele>60.0</ele><time>2026-04-18T07:11:21Z</time></trkpt><trkpt lat="43.54473959489928" lon="10.635583025177809"><ele>60.0</ele><time>2026-04-18T07:11:22Z</time></trkpt><trkpt lat="43.544597658988344" lon="10.635633320665267"><ele>58.66666666666667</ele><time>2026-04-18T07:11:23Z</time></trkpt><trkpt lat="43.54445997509786" lon="10.63571308881941"><ele>57.333333333333336</ele><time>2026-04-18T07:11:24Z</time></trkpt><trkpt lat="43.54432706474297" lon="10.635825403533882"><ele>56.0</ele><time>2026-04-18T07:11:25Z</time></trkpt><trkpt lat="43.54420031018956" lon="10.635961355621935"><ele>56.0</ele><time>2026-04-18T07:11:26Z</time></trkpt><trkpt lat="43.54407258372264" lon="10.636106342575133"><ele>56.0</ele><time>2026-04-18T07:11:27Z</time></trkpt><trkpt lat="43.543942410817955" lon="10.636258456775838"><ele>56.0</ele><time>2026-04-18T07:11:28Z</time></trkpt><trkpt lat="43.543810182941186" lon="10.636414158360374"><ele>56.333333333333336</ele><time>2026-04-18T07:11:29Z</time></trkpt><trkpt lat="43.54367556411493" lon="10.636573320756616"><ele>56.66666666666667</ele><time>2026-04-18T07:11:30Z</time></trkpt><trkpt lat="43.54354028912035" lon="10.636733287240638"><ele>57.0</ele><time>2026-04-18T07:11:31Z</time></trkpt><trkpt lat="43.54340632025402" lon="10.636893342565198"><ele>57.66666666666667</ele><time>2026-04-18T07:11:32Z</time></trkpt><trkpt lat="43.54327392979689" lon="10.637051579249004"><ele>58.333333333333336</ele><time>2026-04-18T07:11:33Z</time></trkpt><trkpt lat="43.54314607244451" lon="10.637205194136977"><ele>59.0</ele><time>2026-04-18T07:11:34Z</time></trkpt><trkpt lat="43.54301863599676" lon="10.637357231174548"><ele>59.0</ele><time>2026-04-18T07:11:35Z</time></trkpt><trkpt lat="43.542891821895594" lon="10.637511941859012"><ele>59.0</ele><time>2026-04-18T07:11:36Z</time></trkpt><trkpt lat="43.54276547061545" lon="10.63766433320899"><ele>59.0</ele><time>2026-04-18T07:11:37Z</time></trkpt><trkpt lat="43.54264077774995" lon="10.63781160455636"><ele>59.66666666666667</ele><time>2026-04-18T07:11:38Z</time></trkpt><trkpt lat="43.5425177215459" lon="10.637951777649842"><ele>60.33333333333333</ele><time>2026-04-18T07:11:39Z</time></trkpt><trkpt lat="43.54239588021384" lon="10.638085502436947"><ele>61.0</ele><time>2026-04-18T07:11:40Z</time></trkpt><trkpt lat="43.54227579522717" lon="10.638216494259725"><ele>61.0</ele><time>2026-04-18T07:11:41Z</time></trkpt><trkpt lat="43.542159317969656" lon="10.638348799340658"><ele>61.0</ele><time>2026-04-18T07:11:42Z</time></trkpt><trkpt lat="43.54204241946118" lon="10.638480526660546"><ele>61.0</ele><time>2026-04-18T07:11:43Z</time></trkpt><trkpt lat="43.541925836476786" lon="10.638611362064278"><ele>60.0</ele><time>2026-04-18T07:11:44Z</time></trkpt><trkpt lat="43.54180994960728" lon="10.638743206048582"><ele>59.0</ele><time>2026-04-18T07:11:45Z</time></trkpt><trkpt lat="43.541694249801544" lon="10.638878207545357"><ele>58.0</ele><time>2026-04-18T07:11:46Z</time></trkpt><trkpt lat="43.54157914227103" lon="10.639017719068335"><ele>58.0</ele><time>2026-04-18T07:11:47Z</time></trkpt><trkpt lat="43.54146401258885" lon="10.63916041777228"><ele>58.0</ele><time>2026-04-18T07:11:48Z</time></trkpt><trkpt lat="43.54134679877421" lon="10.639303744381605"><ele>58.0</ele><time>2026-04-18T07:11:49Z</time></trkpt><trkpt lat="43.54123038815492" lon="10.639454604616164"><ele>57.33333333333333</ele><time>2026-04-18T07:11:50Z</time></trkpt><trkpt lat="43.54111889987032" lon="10.639612557690095"><ele>56.66666666666667</ele><time>2026-04-18T07:11:51Z</time></trkpt><trkpt lat="43.54101517649677" lon="10.639782199077468"><ele>56.0</ele><time>2026-04-18T07:11:52Z</time></trkpt><trkpt lat="43.54091991608273" lon="10.639961301584389"><ele>56.0</ele><time>2026-04-18T07:11:53Z</time></trkpt><trkpt lat="43.54082846652619" lon="10.64014411143439"><ele>56.0</ele><time>2026-04-18T07:11:54Z</time></trkpt><trkpt lat="43.540736525822396" lon="10.640327180832507"><ele>56.0</ele><time>2026-04-18T07:11:55Z</time></trkpt><trkpt lat="43.54064441623567" lon="10.640509727705783"><ele>56.0</ele><time>2026-04-18T07:11:56Z</time></trkpt><trkpt lat="43.540550911560544" lon="10.640691497859857"><ele>56.0</ele><time>2026-04-18T07:11:57Z</time></trkpt><trkpt lat="43.54045671453442" lon="10.640872761822282"><ele>56.0</ele><time>2026-04-18T07:11:58Z</time></trkpt><trkpt lat="43.540362927429356" lon="10.641051225871108"><ele>56.66666666666667</ele><time>2026-04-18T07:11:59Z</time></trkpt><trkpt lat="43.54026729618712" lon="10.6412216230394"><ele>57.33333333333333</ele><time>2026-04-18T07:12:00Z</time></trkpt><trkpt lat="43.54016766713805" lon="10.641386759479717"><ele>58.0</ele><time>2026-04-18T07:12:01Z</time></trkpt><trkpt lat="43.540064634295845" lon="10.641551832023218"><ele>58.0</ele><time>2026-04-18T07:12:02Z</time></trkpt><trkpt lat="43.53995683796749" lon="10.641715543664066"><ele>58.0</ele><time>2026-04-18T07:12:03Z</time></trkpt><trkpt lat="43.53984335668278" lon="10.641877683980214"><ele>58.0</ele><time>2026-04-18T07:12:04Z</time></trkpt><trkpt lat="43.53972757702839" lon="10.642040845815028"><ele>58.0</ele><time>2026-04-18T07:12:05Z</time></trkpt><trkpt lat="43.53960994524005" lon="10.642203952757587"><ele>58.0</ele><time>2026-04-18T07:12:06Z</time></trkpt><trkpt lat="43.539491615393885" lon="10.642364546922595"><ele>58.0</ele><time>2026-04-18T07:12:07Z</time></trkpt><trkpt lat="43.53937226261611" lon="10.642522653440269"><ele>58.0</ele><time>2026-04-18T07:12:08Z</time></trkpt><trkpt lat="43.53925614932012" lon="10.642680091547199"><ele>58.0</ele><time>2026-04-18T07:12:09Z</time></trkpt><trkpt lat="43.53914222067752" lon="10.642838902434143"><ele>58.0</ele><time>2026-04-18T07:12:10Z</time></trkpt><trkpt lat="43.53903181177789" lon="10.642997519192244"><ele>65.0</ele><time>2026-04-18T07:12:11Z</time></trkpt><trkpt lat="43.53892605339207" lon="10.643153068693406"><ele>72.0</ele><time>2026-04-18T07:12:12Z</time></trkpt><trkpt lat="43.53872737231204" lon="10.643486073155275"><ele>69.66666666666667</ele><time>2026-04-18T07:12:14Z</time></trkpt><trkpt lat="43.538636943614115" lon="10.643663650532076"><ele>67.33333333333334</ele><time>2026-04-18T07:12:15Z</time></trkpt><trkpt lat="43.53854935115953" lon="10.64383650399884"><ele>65.0</ele><time>2026-04-18T07:12:16Z</time></trkpt><trkpt lat="43.538462713116" lon="10.644003489642408"><ele>65.0</ele><time>2026-04-18T07:12:17Z</time></trkpt><trkpt lat="43.538381800275886" lon="10.644169288160716"><ele>65.0</ele><time>2026-04-18T07:12:18Z</time></trkpt><trkpt lat="43.53830557810923" lon="10.644336723173016"><ele>65.0</ele><time>2026-04-18T07:12:19Z</time></trkpt><trkpt lat="43.53823108269885" lon="10.64450153112488"><ele>65.0</ele><time>2026-04-18T07:12:20Z</time></trkpt><trkpt lat="43.53816021673816" lon="10.644660605281151"><ele>66.4</ele><time>2026-04-18T07:12:21Z</time></trkpt><trkpt lat="43.53809571199386" lon="10.644808940207527"><ele>67.8</ele><time>2026-04-18T07:12:22Z</time></trkpt><trkpt lat="43.53804223751001" lon="10.644943661864366"><ele>69.2</ele><time>2026-04-18T07:12:23Z</time></trkpt><trkpt lat="43.537998223261276" lon="10.645066281895323"><ele>70.6</ele><time>2026-04-18T07:12:24Z</time></trkpt><trkpt lat="43.53796130396778" lon="10.645184294395094"><ele>72.0</ele><time>2026-04-18T07:12:25Z</time></trkpt><trkpt lat="43.53793806638966" lon="10.645287242120498"><ele>72.71428571428572</ele><time>2026-04-18T07:12:26Z</time></trkpt><trkpt lat="43.53793326853312" lon="10.645382674371335"><ele>73.42857142857143</ele><time>2026-04-18T07:12:27Z</time></trkpt><trkpt lat="43.537959576293225" lon="10.645476071405543"><ele>74.14285714285714</ele><time>2026-04-18T07:12:28Z</time></trkpt><trkpt lat="43.53799581403561" lon="10.645560486823054"><ele>74.85714285714286</ele><time>2026-04-18T07:12:29Z</time></trkpt><trkpt lat="43.53803012083261" lon="10.645646667776042"><ele>75.57142857142857</ele><time>2026-04-18T07:12:30Z</time></trkpt><trkpt lat="43.53805359646756" lon="10.645737350213755"><ele>76.28571428571429</ele><time>2026-04-18T07:12:31Z</time></trkpt><trkpt lat="43.53807496267279" lon="10.645833692754909"><ele>77.0</ele><time>2026-04-18T07:12:32Z</time></trkpt><trkpt lat="43.538092804796165" lon="10.645936926419067"><ele>77.0</ele><time>2026-04-18T07:12:33Z</time></trkpt><trkpt lat="43.538107599456666" lon="10.646035996028388"><ele>77.0</ele><time>2026-04-18T07:12:34Z</time></trkpt><trkpt lat="43.53811754900891" lon="10.646132059744405"><ele>77.0</ele><time>2026-04-18T07:12:35Z</time></trkpt><trkpt lat="43.53812967661103" lon="10.646222081604625"><ele>77.0</ele><time>2026-04-18T07:12:36Z</time></trkpt><trkpt lat="43.53815949593679" lon="10.646307996357258"><ele>77.0</ele><time>2026-04-18T07:12:37Z</time></trkpt><trkpt lat="43.53820922918315" lon="10.64638550069857"><ele>77.0</ele><time>2026-04-18T07:12:38Z</time></trkpt><trkpt lat="43.53827224330228" lon="10.646455395390898"><ele>77.0</ele><time>2026-04-18T07:12:39Z</time></trkpt><trkpt lat="43.538329483754296" lon="10.64652864245841"><ele>76.66666666666667</ele><time>2026-04-18T07:12:40Z</time></trkpt><trkpt lat="43.5383889218223" lon="10.64660451527309"><ele>76.33333333333334</ele><time>2026-04-18T07:12:41Z</time></trkpt><trkpt lat="43.53844914305805" lon="10.646687213827706"><ele>76.0</ele><time>2026-04-18T07:12:42Z</time></trkpt><trkpt lat="43.53850535916115" lon="10.646771163170744"><ele>75.66666666666667</ele><time>2026-04-18T07:12:43Z</time></trkpt><trkpt lat="43.538570976281434" lon="10.646851218282668"><ele>75.33333333333333</ele><time>2026-04-18T07:12:44Z</time></trkpt><trkpt lat="43.53863885397683" lon="10.646932972649342"><ele>75.0</ele><time>2026-04-18T07:12:45Z</time></trkpt><trkpt lat="43.5387068092779" lon="10.647021285050062"><ele>77.0</ele><time>2026-04-18T07:12:46Z</time></trkpt><trkpt lat="43.53878498441345" lon="10.647106432018553"><ele>79.0</ele><time>2026-04-18T07:12:47Z</time></trkpt><trkpt lat="43.53885420217612" lon="10.647161991871934"><ele>81.0</ele><time>2026-04-18T07:12:48Z</time></trkpt><trkpt lat="43.539174446317304" lon="10.647327920195327"><ele>81.0</ele><time>2026-04-18T07:12:52Z</time></trkpt><trkpt lat="43.53926068689976" lon="10.647358940130701"><ele>81.0</ele><time>2026-04-18T07:12:53Z</time></trkpt><trkpt lat="43.53935170297614" lon="10.64739802671705"><ele>81.0</ele><time>2026-04-18T07:12:54Z</time></trkpt><trkpt lat="43.53942885827496" lon="10.64746884082957"><ele>81.0</ele><time>2026-04-18T07:12:55Z</time></trkpt><trkpt lat="43.53949884582" lon="10.647554056564667"><ele>81.0</ele><time>2026-04-18T07:12:56Z</time></trkpt><trkpt lat="43.53955898344376" lon="10.647623293758421"><ele>81.0</ele><time>2026-04-18T07:12:57Z</time></trkpt><trkpt lat="43.53961957101351" lon="10.647692954136362"><ele>83.66666666666667</ele><time>2026-04-18T07:12:58Z</time></trkpt><trkpt lat="43.53966628933059" lon="10.647771147052694"><ele>86.33333333333334</ele><time>2026-04-18T07:12:59Z</time></trkpt><trkpt lat="43.539680243637314" lon="10.647879148743089"><ele>89.0</ele><time>2026-04-18T07:13:00Z</time></trkpt><trkpt lat="43.539703919182266" lon="10.647980430736448"><ele>91.66666666666667</ele><time>2026-04-18T07:13:01Z</time></trkpt><trkpt lat="43.53973309736781" lon="10.648096825947471"><ele>94.33333333333334</ele><time>2026-04-18T07:13:02Z</time></trkpt><trkpt lat="43.53976184398993" lon="10.648212734919335"><ele>97.0</ele><time>2026-04-18T07:13:03Z</time></trkpt><trkpt lat="43.5397904150356" lon="10.648330418227086"><ele>97.0</ele><time>2026-04-18T07:13:04Z</time></trkpt><trkpt lat="43.539817651941426" lon="10.648442486957912"><ele>97.0</ele><time>2026-04-18T07:13:05Z</time></trkpt><trkpt lat="43.539858178903586" lon="10.648541608696611"><ele>97.0</ele><time>2026-04-18T07:13:06Z</time></trkpt><trkpt lat="43.53987510861774" lon="10.64865122182863"><ele>97.0</ele><time>2026-04-18T07:13:07Z</time></trkpt><trkpt lat="43.539933095462" lon="10.64885388846235"><ele>97.0</ele><time>2026-04-18T07:13:09Z</time></trkpt><trkpt lat="43.539954366669846" lon="10.648954140192462"><ele>97.00000000000001</ele><time>2026-04-18T07:13:10Z</time></trkpt><trkpt lat="43.53997525255603" lon="10.6490472771036"><ele>97.0</ele><time>2026-04-18T07:13:11Z</time></trkpt><trkpt lat="43.5400009228468" lon="10.649134254488901"><ele>97.0</ele><time>2026-04-18T07:13:12Z</time></trkpt><trkpt lat="43.540037765716356" lon="10.649223168647582"><ele>97.0</ele><time>2026-04-18T07:13:13Z</time></trkpt><trkpt lat="43.540081054212905" lon="10.649312352553048"><ele>97.00000000000001</ele><time>2026-04-18T07:13:14Z</time></trkpt><trkpt lat="43.54012869927587" lon="10.649411247247288"><ele>97.0</ele><time>2026-04-18T07:13:15Z</time></trkpt><trkpt lat="43.5401730855465" lon="10.649508649466053"><ele>97.33333333333334</ele><time>2026-04-18T07:13:16Z</time></trkpt><trkpt lat="43.54021448570263" lon="10.649609552087673"><ele>97.66666666666667</ele><time>2026-04-18T07:13:17Z</time></trkpt><trkpt lat="43.5402541074812" lon="10.649710241584023"><ele>98.0</ele><time>2026-04-18T07:13:18Z</time></trkpt><trkpt lat="43.54029081431649" lon="10.649798896243682"><ele>98.33333333333334</ele><time>2026-04-18T07:13:19Z</time></trkpt><trkpt lat="43.54032572149028" lon="10.649880423629684"><ele>98.66666666666667</ele><time>2026-04-18T07:13:20Z</time></trkpt><trkpt lat="43.540365775136664" lon="10.649976566709368"><ele>99.0</ele><time>2026-04-18T07:13:21Z</time></trkpt><trkpt lat="43.540407171853914" lon="10.650058627326016"><ele>103.4</ele><time>2026-04-18T07:13:22Z</time></trkpt><trkpt lat="43.54044107005578" lon="10.650138578082586"><ele>107.80000000000001</ele><time>2026-04-18T07:13:23Z</time></trkpt><trkpt lat="43.54047170775936" lon="10.650215680695855"><ele>112.19999999999999</ele><time>2026-04-18T07:13:24Z</time></trkpt><trkpt lat="43.54052943221465" lon="10.650368162767291"><ele>116.6</ele><time>2026-04-18T07:13:26Z</time></trkpt><trkpt lat="43.540497707032216" lon="10.650468659388409"><ele>121.0</ele><time>2026-04-18T07:13:27Z</time></trkpt><trkpt lat="43.54044350143868" lon="10.6506438635681"><ele>121.14285714285714</ele><time>2026-04-18T07:13:29Z</time></trkpt><trkpt lat="43.54042067366236" lon="10.65072976605463"><ele>121.28571428571428</ele><time>2026-04-18T07:13:30Z</time></trkpt><trkpt lat="43.54039673601331" lon="10.650813262757701"><ele>121.42857142857142</ele><time>2026-04-18T07:13:31Z</time></trkpt><trkpt lat="43.540372691043466" lon="10.650897066656139"><ele>121.57142857142856</ele><time>2026-04-18T07:13:32Z</time></trkpt><trkpt lat="43.5402823200756" lon="10.650918568332356"><ele>121.71428571428571</ele><time>2026-04-18T07:13:34Z</time></trkpt><trkpt lat="43.54020884878677" lon="10.65093710141075"><ele>121.85714285714283</ele><time>2026-04-18T07:13:35Z</time></trkpt><trkpt lat="43.54013939221895" lon="10.65096172504887"><ele>121.99999999999999</ele><time>2026-04-18T07:13:36Z</time></trkpt><trkpt lat="43.5400511409671" lon="10.65099252865419"><ele>120.7142857142857</ele><time>2026-04-18T07:13:37Z</time></trkpt><trkpt lat="43.53998043014794" lon="10.651008864350672"><ele>119.42857142857142</ele><time>2026-04-18T07:13:38Z</time></trkpt><trkpt lat="43.539911677974196" lon="10.651000445856909"><ele>118.14285714285714</ele><time>2026-04-18T07:13:39Z</time></trkpt><trkpt lat="43.53988866843727" lon="10.650877236340486"><ele>116.85714285714285</ele><time>2026-04-18T07:13:40Z</time></trkpt><trkpt lat="43.539831381156716" lon="10.650837272273359"><ele>115.57142857142856</ele><time>2026-04-18T07:13:41Z</time></trkpt><trkpt lat="43.53975921489291" lon="10.650804646900278"><ele>114.28571428571429</ele><time>2026-04-18T07:13:42Z</time></trkpt><trkpt lat="43.53968907480959" lon="10.650835842056265"><ele>113.0</ele><time>2026-04-18T07:13:43Z</time></trkpt><trkpt lat="43.53961761449363" lon="10.650870785557752"><ele>114.4</ele><time>2026-04-18T07:13:44Z</time></trkpt><trkpt lat="43.53954559313172" lon="10.650891786944879"><ele>115.80000000000001</ele><time>2026-04-18T07:13:45Z</time></trkpt><trkpt lat="43.53944317210044" lon="10.650945815717971"><ele>117.2</ele><time>2026-04-18T07:13:47Z</time></trkpt><trkpt lat="43.539350497325394" lon="10.65101061236689"><ele>118.6</ele><time>2026-04-18T07:13:49Z</time></trkpt><trkpt lat="43.53926360700418" lon="10.651077094624306"><ele>120.0</ele><time>2026-04-18T07:13:51Z</time></trkpt><trkpt lat="43.53917932444587" lon="10.651144694049473"><ele>122.6</ele><time>2026-04-18T07:13:53Z</time></trkpt><trkpt lat="43.539102768908066" lon="10.651198574376378"><ele>125.2</ele><time>2026-04-18T07:13:55Z</time></trkpt><trkpt lat="43.53903157810773" lon="10.651352697531557"><ele>127.80000000000001</ele><time>2026-04-18T07:13:58Z</time></trkpt><trkpt lat="43.539131913166855" lon="10.651453164808231"><ele>130.4</ele><time>2026-04-18T07:14:00Z</time></trkpt><trkpt lat="43.53919161463234" lon="10.651510080561215"><ele>133.0</ele><time>2026-04-18T07:14:01Z</time></trkpt><trkpt lat="43.5392449396219" lon="10.651565282272147"><ele>133.0</ele><time>2026-04-18T07:14:02Z</time></trkpt><trkpt lat="43.53928108701739" lon="10.651689242825707"><ele>133.0</ele><time>2026-04-18T07:14:04Z</time></trkpt><trkpt lat="43.53925100464434" lon="10.651812886847111"><ele>133.0</ele><time>2026-04-18T07:14:06Z</time></trkpt><trkpt lat="43.5391906235316" lon="10.651851518332476"><ele>133.0</ele><time>2026-04-18T07:14:07Z</time></trkpt><trkpt lat="43.53912356791914" lon="10.651841161224098"><ele>133.0</ele><time>2026-04-18T07:14:08Z</time></trkpt><trkpt lat="43.53905452783818" lon="10.651842694570318"><ele>133.0</ele><time>2026-04-18T07:14:09Z</time></trkpt><trkpt lat="43.539011297483576" lon="10.651767507780182"><ele>133.0</ele><time>2026-04-18T07:14:10Z</time></trkpt><trkpt lat="43.53895433369142" lon="10.651722527003564"><ele>133.0</ele><time>2026-04-18T07:14:11Z</time></trkpt><trkpt lat="43.538849771328735" lon="10.651636187374613"><ele>133.0</ele><time>2026-04-18T07:14:13Z</time></trkpt><trkpt lat="43.53874509696625" lon="10.651548330567854"><ele>133.0</ele><time>2026-04-18T07:14:15Z</time></trkpt><trkpt lat="43.53865255973797" lon="10.651475841893413"><ele>133.0</ele><time>2026-04-18T07:14:17Z</time></trkpt><trkpt lat="43.53855398885104" lon="10.651398626799695"><ele>135.85714285714286</ele><time>2026-04-18T07:14:19Z</time></trkpt><trkpt lat="43.53849832965667" lon="10.651355026436477"><ele>138.71428571428572</ele><time>2026-04-18T07:14:20Z</time></trkpt><trkpt lat="43.53842729140495" lon="10.65132746521842"><ele>141.57142857142856</ele><time>2026-04-18T07:14:21Z</time></trkpt><trkpt lat="43.53837041821068" lon="10.651284649755535"><ele>144.42857142857144</ele><time>2026-04-18T07:14:22Z</time></trkpt><trkpt lat="43.53831116238352" lon="10.651237458674641"><ele>147.28571428571428</ele><time>2026-04-18T07:14:23Z</time></trkpt><trkpt lat="43.538254717611046" lon="10.651191968795848"><ele>150.14285714285714</ele><time>2026-04-18T07:14:24Z</time></trkpt><trkpt lat="43.538153230291634" lon="10.651135366113373"><ele>153.0</ele><time>2026-04-18T07:14:26Z</time></trkpt><trkpt lat="43.538036941450855" lon="10.651192423251711"><ele>153.0</ele><time>2026-04-18T07:14:28Z</time></trkpt><trkpt lat="43.53798180809534" lon="10.651249526515995"><ele>153.0</ele><time>2026-04-18T07:14:29Z</time></trkpt><trkpt lat="43.537919277199535" lon="10.651303867222305"><ele>153.0</ele><time>2026-04-18T07:14:30Z</time></trkpt><trkpt lat="43.53786249232591" lon="10.651369703646726"><ele>153.0</ele><time>2026-04-18T07:14:31Z</time></trkpt><trkpt lat="43.53781164619083" lon="10.651430293437883"><ele>153.0</ele><time>2026-04-18T07:14:32Z</time></trkpt><trkpt lat="43.53776477603661" lon="10.65150862744274"><ele>153.0</ele><time>2026-04-18T07:14:33Z</time></trkpt><trkpt lat="43.53769061166466" lon="10.651565149199712"><ele>153.0</ele><time>2026-04-18T07:14:34Z</time></trkpt><trkpt lat="43.537637052265126" lon="10.651630545785078"><ele>153.0</ele><time>2026-04-18T07:14:35Z</time></trkpt><trkpt lat="43.53753203817476" lon="10.651677341925769"><ele>153.0</ele><time>2026-04-18T07:14:37Z</time></trkpt><trkpt lat="43.53744964643218" lon="10.651674859666816"><ele>153.0</ele><time>2026-04-18T07:14:39Z</time></trkpt><trkpt lat="43.53737932812243" lon="10.65167520829082"><ele>153.0</ele><time>2026-04-18T07:14:41Z</time></trkpt><trkpt lat="43.53728594015226" lon="10.651634614277787"><ele>153.0</ele><time>2026-04-18T07:14:42.999Z</time></trkpt><trkpt lat="43.5372155590194" lon="10.65160509585513"><ele>153.0</ele><time>2026-04-18T07:14:43.999Z</time></trkpt><trkpt lat="43.53716706902834" lon="10.651542023568354"><ele>153.0</ele><time>2026-04-18T07:14:44.999Z</time></trkpt><trkpt lat="43.53706592961531" lon="10.651459368242318"><ele>153.0</ele><time>2026-04-18T07:14:46.999Z</time></trkpt><trkpt lat="43.53696402423065" lon="10.651380711923538"><ele>153.0</ele><time>2026-04-18T07:14:48.999Z</time></trkpt><trkpt lat="43.53686046856457" lon="10.6513008554081"><ele>153.0</ele><time>2026-04-18T07:14:50.999Z</time></trkpt><trkpt lat="43.53675360334257" lon="10.651222115249984"><ele>152.6</ele><time>2026-04-18T07:14:52.999Z</time></trkpt><trkpt lat="43.53666293205295" lon="10.651196293733127"><ele>152.20000000000002</ele><time>2026-04-18T07:14:54.999Z</time></trkpt><trkpt lat="43.53655878151614" lon="10.651180603268518"><ele>151.8</ele><time>2026-04-18T07:14:56.999Z</time></trkpt><trkpt lat="43.53643533203454" lon="10.651187101181424"><ele>151.4</ele><time>2026-04-18T07:14:58.999Z</time></trkpt><trkpt lat="43.53631489228467" lon="10.651205013140801"><ele>151.0</ele><time>2026-04-18T07:15:00.999Z</time></trkpt><trkpt lat="43.536247846471454" lon="10.651212941433783"><ele>149.71428571428572</ele><time>2026-04-18T07:15:01.999Z</time></trkpt><trkpt lat="43.536182685546635" lon="10.651220646832932"><ele>148.42857142857144</ele><time>2026-04-18T07:15:02.999Z</time></trkpt><trkpt lat="43.53611061502076" lon="10.651237909128882"><ele>147.14285714285714</ele><time>2026-04-18T07:15:03.999Z</time></trkpt><trkpt lat="43.53603656155453" lon="10.651220023412929"><ele>145.85714285714286</ele><time>2026-04-18T07:15:04.999Z</time></trkpt><trkpt lat="43.535952471064796" lon="10.651217037650438"><ele>144.57142857142856</ele><time>2026-04-18T07:15:05.999Z</time></trkpt><trkpt lat="43.53586880207131" lon="10.651225519413673"><ele>143.28571428571428</ele><time>2026-04-18T07:15:06.999Z</time></trkpt><trkpt lat="43.53580356188921" lon="10.651235119659859"><ele>142.0</ele><time>2026-04-18T07:15:07.999Z</time></trkpt><trkpt lat="43.535692429454976" lon="10.65124063553643"><ele>142.0</ele><time>2026-04-18T07:15:09.999Z</time></trkpt><trkpt lat="43.53562609766089" lon="10.651240191712533"><ele>142.0</ele><time>2026-04-18T07:15:10.999Z</time></trkpt><trkpt lat="43.535562182008455" lon="10.65124202174825"><ele>142.0</ele><time>2026-04-18T07:15:11.999Z</time></trkpt><trkpt lat="43.535495396194605" lon="10.65124393396118"><ele>142.0</ele><time>2026-04-18T07:15:13Z</time></trkpt><trkpt lat="43.53542770864401" lon="10.651246068674928"><ele>142.0</ele><time>2026-04-18T07:15:14Z</time></trkpt><trkpt lat="43.53531534458601" lon="10.651274409684826"><ele>142.0</ele><time>2026-04-18T07:15:16Z</time></trkpt><trkpt lat="43.535194772244736" lon="10.651337271089197"><ele>139.57142857142856</ele><time>2026-04-18T07:15:18Z</time></trkpt><trkpt lat="43.535125372390105" lon="10.651365117399946"><ele>137.14285714285714</ele><time>2026-04-18T07:15:19Z</time></trkpt><trkpt lat="43.53506477369657" lon="10.651426021679166"><ele>134.71428571428572</ele><time>2026-04-18T07:15:20Z</time></trkpt><trkpt lat="43.53500366695204" lon="10.651487128434246"><ele>132.28571428571428</ele><time>2026-04-18T07:15:21Z</time></trkpt><trkpt lat="43.534943612733464" lon="10.651536943066397"><ele>129.85714285714286</ele><time>2026-04-18T07:15:22Z</time></trkpt><trkpt lat="43.534881300205306" lon="10.651587023581026"><ele>127.42857142857142</ele><time>2026-04-18T07:15:23Z</time></trkpt><trkpt lat="43.53482654206817" lon="10.651656730412435"><ele>125.0</ele><time>2026-04-18T07:15:24Z</time></trkpt><trkpt lat="43.53478576355227" lon="10.65173841805759"><ele>124.99999999999999</ele><time>2026-04-18T07:15:25Z</time></trkpt><trkpt lat="43.53475467857022" lon="10.651830507196614"><ele>125.0</ele><time>2026-04-18T07:15:26Z</time></trkpt><trkpt lat="43.53474322692059" lon="10.651943039441315"><ele>125.0</ele><time>2026-04-18T07:15:27Z</time></trkpt><trkpt lat="43.53474968487894" lon="10.652051468205025"><ele>125.0</ele><time>2026-04-18T07:15:28Z</time></trkpt><trkpt lat="43.534772724174765" lon="10.652154966412821"><ele>124.99999999999999</ele><time>2026-04-18T07:15:29Z</time></trkpt><trkpt lat="43.534759640149055" lon="10.652265067109179"><ele>125.0</ele><time>2026-04-18T07:15:30Z</time></trkpt><trkpt lat="43.534764570820634" lon="10.65237193921252"><ele>124.0</ele><time>2026-04-18T07:15:31Z</time></trkpt><trkpt lat="43.53477453373031" lon="10.652468409662182"><ele>123.0</ele><time>2026-04-18T07:15:32Z</time></trkpt><trkpt lat="43.534773205419" lon="10.652559669797043"><ele>122.0</ele><time>2026-04-18T07:15:33Z</time></trkpt><trkpt lat="43.53481125705977" lon="10.65271720457224"><ele>121.0</ele><time>2026-04-18T07:15:35Z</time></trkpt><trkpt lat="43.53486653425977" lon="10.652857398399139"><ele>120.0</ele><time>2026-04-18T07:15:37Z</time></trkpt><trkpt lat="43.53491283513677" lon="10.653005258364637"><ele>118.5</ele><time>2026-04-18T07:15:39Z</time></trkpt><trkpt lat="43.53494384833551" lon="10.653169789999692"><ele>117.0</ele><time>2026-04-18T07:15:41Z</time></trkpt><trkpt lat="43.534978100313715" lon="10.65324592009625"><ele>115.5</ele><time>2026-04-18T07:15:42Z</time></trkpt><trkpt lat="43.53502477405056" lon="10.65340664387094"><ele>114.0</ele><time>2026-04-18T07:15:44Z</time></trkpt><trkpt lat="43.53504751130125" lon="10.653493923001012"><ele>112.5</ele><time>2026-04-18T07:15:45Z</time></trkpt><trkpt lat="43.535062246078354" lon="10.653583303453567"><ele>111.0</ele><time>2026-04-18T07:15:46Z</time></trkpt><trkpt lat="43.53504934910928" lon="10.65367308193582"><ele>110.66666666666667</ele><time>2026-04-18T07:15:47Z</time></trkpt><trkpt lat="43.535035467282896" lon="10.653839476293589"><ele>110.33333333333334</ele><time>2026-04-18T07:15:49Z</time></trkpt><trkpt lat="43.534999815924174" lon="10.654007458865618"><ele>110.0</ele><time>2026-04-18T07:15:51Z</time></trkpt><trkpt lat="43.53497609903115" lon="10.654094143247208"><ele>109.66666666666667</ele><time>2026-04-18T07:15:52Z</time></trkpt><trkpt lat="43.53494984168941" lon="10.654179673662567"><ele>109.33333333333334</ele><time>2026-04-18T07:15:53Z</time></trkpt><trkpt lat="43.53493683945819" lon="10.654268597843275"><ele>109.0</ele><time>2026-04-18T07:15:54Z</time></trkpt><trkpt lat="43.53488659894435" lon="10.654336309843103"><ele>109.00000000000001</ele><time>2026-04-18T07:15:55Z</time></trkpt><trkpt lat="43.534848355016955" lon="10.65442389721918"><ele>109.0</ele><time>2026-04-18T07:15:56Z</time></trkpt><trkpt lat="43.5348050482985" lon="10.654513074608923"><ele>109.0</ele><time>2026-04-18T07:15:57Z</time></trkpt><trkpt lat="43.53475405806971" lon="10.654600053583883"><ele>109.0</ele><time>2026-04-18T07:15:58Z</time></trkpt><trkpt lat="43.53469460975738" lon="10.654685529593115"><ele>109.00000000000001</ele><time>2026-04-18T07:15:59Z</time></trkpt><trkpt lat="43.53462783745532" lon="10.654757535691793"><ele>109.0</ele><time>2026-04-18T07:16:00Z</time></trkpt><trkpt lat="43.53455496457499" lon="10.654825281890123"><ele>109.0</ele><time>2026-04-18T07:16:01Z</time></trkpt><trkpt lat="43.53447676006768" lon="10.654894160001215"><ele>109.0</ele><time>2026-04-18T07:16:02Z</time></trkpt><trkpt lat="43.534399702148086" lon="10.654980409917385"><ele>109.0</ele><time>2026-04-18T07:16:03Z</time></trkpt><trkpt lat="43.53431087943644" lon="10.655053018126276"><ele>109.0</ele><time>2026-04-18T07:16:04Z</time></trkpt><trkpt lat="43.53421495300147" lon="10.655101487742899"><ele>109.0</ele><time>2026-04-18T07:16:05Z</time></trkpt><trkpt lat="43.534135442485656" lon="10.655188559228261"><ele>109.0</ele><time>2026-04-18T07:16:06Z</time></trkpt><trkpt lat="43.534052467234034" lon="10.655264666122704"><ele>109.0</ele><time>2026-04-18T07:16:07Z</time></trkpt><trkpt lat="43.53397364890089" lon="10.65534262361048"><ele>109.0</ele><time>2026-04-18T07:16:08Z</time></trkpt><trkpt lat="43.53390878313363" lon="10.655438863889113"><ele>109.0</ele><time>2026-04-18T07:16:09Z</time></trkpt><trkpt lat="43.53385584453055" lon="10.655535864028451"><ele>109.0</ele><time>2026-04-18T07:16:10Z</time></trkpt><trkpt lat="43.53381366064271" lon="10.65563434102668"><ele>109.50000000000001</ele><time>2026-04-18T07:16:11Z</time></trkpt><trkpt lat="43.53378131026439" lon="10.655740792556202"><ele>110.0</ele><time>2026-04-18T07:16:12Z</time></trkpt><trkpt lat="43.533740148135124" lon="10.655838753608922"><ele>110.5</ele><time>2026-04-18T07:16:13Z</time></trkpt><trkpt lat="43.53373305821743" lon="10.65595384281818"><ele>111.0</ele><time>2026-04-18T07:16:14Z</time></trkpt><trkpt lat="43.53370289501573" lon="10.656058984341017"><ele>111.50000000000001</ele><time>2026-04-18T07:16:15Z</time></trkpt><trkpt lat="43.53367780820234" lon="10.656173929654612"><ele>112.0</ele><time>2026-04-18T07:16:16Z</time></trkpt><trkpt lat="43.5336520797158" lon="10.656288961610402"><ele>113.83333333333334</ele><time>2026-04-18T07:16:17Z</time></trkpt><trkpt lat="43.53362744463591" lon="10.656401788190138"><ele>115.66666666666667</ele><time>2026-04-18T07:16:18Z</time></trkpt><trkpt lat="43.533598317391004" lon="10.656509435899718"><ele>117.5</ele><time>2026-04-18T07:16:19Z</time></trkpt><trkpt lat="43.53355418526681" lon="10.656600191178756"><ele>119.33333333333334</ele><time>2026-04-18T07:16:20Z</time></trkpt><trkpt lat="43.5335216151526" lon="10.656692963913448"><ele>121.16666666666667</ele><time>2026-04-18T07:16:21Z</time></trkpt><trkpt lat="43.53350095753132" lon="10.656795199820367"><ele>123.0</ele><time>2026-04-18T07:16:22Z</time></trkpt><trkpt lat="43.53345873362881" lon="10.656882026199915"><ele>124.5</ele><time>2026-04-18T07:16:23Z</time></trkpt><trkpt lat="43.533420686569265" lon="10.656968814543752"><ele>126.0</ele><time>2026-04-18T07:16:24Z</time></trkpt><trkpt lat="43.533380143794496" lon="10.657055720989241"><ele>127.5</ele><time>2026-04-18T07:16:25Z</time></trkpt><trkpt lat="43.533338769443105" lon="10.657138019266492"><ele>129.0</ele><time>2026-04-18T07:16:26Z</time></trkpt><trkpt lat="43.53329384465732" lon="10.65722114202158"><ele>130.5</ele><time>2026-04-18T07:16:27Z</time></trkpt><trkpt lat="43.53323825329268" lon="10.657301194578832"><ele>132.0</ele><time>2026-04-18T07:16:28Z</time></trkpt><trkpt lat="43.53318529672371" lon="10.657376481203752"><ele>132.0</ele><time>2026-04-18T07:16:29Z</time></trkpt><trkpt lat="43.533113693680335" lon="10.657427575345764"><ele>132.0</ele><time>2026-04-18T07:16:30Z</time></trkpt><trkpt lat="43.53305286008667" lon="10.657477599097387"><ele>132.0</ele><time>2026-04-18T07:16:31Z</time></trkpt><trkpt lat="43.53299276174368" lon="10.657505408045106"><ele>132.0</ele><time>2026-04-18T07:16:32Z</time></trkpt><trkpt lat="43.5328804083675" lon="10.657554076534083"><ele>132.0</ele><time>2026-04-18T07:16:34Z</time></trkpt><trkpt lat="43.53281779269566" lon="10.657567518012502"><ele>132.0</ele><time>2026-04-18T07:16:35Z</time></trkpt><trkpt lat="43.53275239152109" lon="10.657583894242252"><ele>133.16666666666666</ele><time>2026-04-18T07:16:36Z</time></trkpt><trkpt lat="43.53268932611487" lon="10.657597509084447"><ele>134.33333333333334</ele><time>2026-04-18T07:16:37Z</time></trkpt><trkpt lat="43.53256942980496" lon="10.657604905195969"><ele>135.5</ele><time>2026-04-18T07:16:39Z</time></trkpt><trkpt lat="43.53247185975571" lon="10.657621013385006"><ele>136.66666666666669</ele><time>2026-04-18T07:16:41Z</time></trkpt><trkpt lat="43.53238791448408" lon="10.657615175600812"><ele>137.83333333333334</ele><time>2026-04-18T07:16:44Z</time></trkpt><trkpt lat="43.53232543489477" lon="10.657629621679792"><ele>139.0</ele><time>2026-04-18T07:16:51.999Z</time></trkpt><trkpt lat="43.5323673049273" lon="10.657772224981601"><ele>141.33333333333334</ele><time>2026-04-18T07:16:53.999Z</time></trkpt><trkpt lat="43.53244473771711" lon="10.657807233137744"><ele>143.66666666666669</ele><time>2026-04-18T07:16:55.999Z</time></trkpt><trkpt lat="43.53249900017118" lon="10.657859201925204"><ele>146.0</ele><time>2026-04-18T07:16:57.999Z</time></trkpt><trkpt lat="43.53251926133037" lon="10.657960629207574"><ele>148.33333333333334</ele><time>2026-04-18T07:16:59.999Z</time></trkpt><trkpt lat="43.532486397745636" lon="10.658084484108427"><ele>150.66666666666666</ele><time>2026-04-18T07:17:01.999Z</time></trkpt><trkpt lat="43.5323938561128" lon="10.658176970029286"><ele>153.0</ele><time>2026-04-18T07:17:03.999Z</time></trkpt><trkpt lat="43.532276998414474" lon="10.658175632229831"><ele>153.0</ele><time>2026-04-18T07:17:05.999Z</time></trkpt><trkpt lat="43.53218038472516" lon="10.658115581014801"><ele>153.0</ele><time>2026-04-18T07:17:08Z</time></trkpt><trkpt lat="43.53207197502902" lon="10.658041392070597"><ele>153.0</ele><time>2026-04-18T07:17:10Z</time></trkpt><trkpt lat="43.53195844124927" lon="10.657969067712624"><ele>153.0</ele><time>2026-04-18T07:17:12Z</time></trkpt><trkpt lat="43.53189980174327" lon="10.657935949422072"><ele>153.0</ele><time>2026-04-18T07:17:13Z</time></trkpt><trkpt lat="43.531781522555924" lon="10.657871781154046"><ele>154.20000000000002</ele><time>2026-04-18T07:17:15Z</time></trkpt><trkpt lat="43.53171444608463" lon="10.657926125020621"><ele>155.4</ele><time>2026-04-18T07:17:16Z</time></trkpt><trkpt lat="43.53166459217679" lon="10.657979304320975"><ele>156.60000000000002</ele><time>2026-04-18T07:17:17Z</time></trkpt><trkpt lat="43.53162302574839" lon="10.65813242750099"><ele>157.8</ele><time>2026-04-18T07:17:19Z</time></trkpt><trkpt lat="43.53165864499119" lon="10.658283571746002"><ele>159.0</ele><time>2026-04-18T07:17:21Z</time></trkpt><trkpt lat="43.531756006537385" lon="10.65838947094531"><ele>159.0</ele><time>2026-04-18T07:17:23Z</time></trkpt><trkpt lat="43.53181213363052" lon="10.658433951494487"><ele>159.0</ele><time>2026-04-18T07:17:24Z</time></trkpt><trkpt lat="43.53187042453544" lon="10.658481105487986"><ele>159.0</ele><time>2026-04-18T07:17:25Z</time></trkpt><trkpt lat="43.53192532491498" lon="10.658537502174138"><ele>159.0</ele><time>2026-04-18T07:17:26Z</time></trkpt><trkpt lat="43.53197734533032" lon="10.658607690912314"><ele>159.0</ele><time>2026-04-18T07:17:27Z</time></trkpt><trkpt lat="43.53202297658881" lon="10.658695101256813"><ele>159.0</ele><time>2026-04-18T07:17:28Z</time></trkpt><trkpt lat="43.53206379299016" lon="10.658791985274673"><ele>159.0</ele><time>2026-04-18T07:17:29Z</time></trkpt><trkpt lat="43.53210727107587" lon="10.658896602827014"><ele>159.5</ele><time>2026-04-18T07:17:30Z</time></trkpt><trkpt lat="43.53215416869423" lon="10.659002788870206"><ele>160.0</ele><time>2026-04-18T07:17:31Z</time></trkpt><trkpt lat="43.53220755124675" lon="10.65910700495298"><ele>160.5</ele><time>2026-04-18T07:17:32Z</time></trkpt><trkpt lat="43.53226626040489" lon="10.659215403358933"><ele>161.0</ele><time>2026-04-18T07:17:33Z</time></trkpt><trkpt lat="43.53239705485296" lon="10.659431879931395"><ele>164.0</ele><time>2026-04-18T07:17:35Z</time></trkpt><trkpt lat="43.532466807610795" lon="10.659543785412138"><ele>167.0</ele><time>2026-04-18T07:17:36Z</time></trkpt><trkpt lat="43.532538782317765" lon="10.65966086719302"><ele>170.0</ele><time>2026-04-18T07:17:37Z</time></trkpt><trkpt lat="43.5326134784571" lon="10.659780670398444"><ele>173.0</ele><time>2026-04-18T07:17:38Z</time></trkpt><trkpt lat="43.53269439405755" lon="10.659904986576002"><ele>173.0</ele><time>2026-04-18T07:17:39Z</time></trkpt><trkpt lat="43.53277907729101" lon="10.660032285005252"><ele>173.0</ele><time>2026-04-18T07:17:40Z</time></trkpt><trkpt lat="43.532859618580275" lon="10.66015592537087"><ele>173.0</ele><time>2026-04-18T07:17:41Z</time></trkpt><trkpt lat="43.532934512158725" lon="10.66027085910073"><ele>173.0</ele><time>2026-04-18T07:17:42Z</time></trkpt><trkpt lat="43.53300662579242" lon="10.6603821186864"><ele>172.33333333333331</ele><time>2026-04-18T07:17:43Z</time></trkpt><trkpt lat="43.53307244016572" lon="10.660486795110602"><ele>171.66666666666666</ele><time>2026-04-18T07:17:44Z</time></trkpt><trkpt lat="43.53313501280623" lon="10.660584234450852"><ele>171.0</ele><time>2026-04-18T07:17:45Z</time></trkpt><trkpt lat="43.533192957034316" lon="10.66067383417338"><ele>170.33333333333334</ele><time>2026-04-18T07:17:46Z</time></trkpt><trkpt lat="43.533257111252205" lon="10.660747621907383"><ele>169.66666666666669</ele><time>2026-04-18T07:17:47Z</time></trkpt><trkpt lat="43.53332012595265" lon="10.660803287310822"><ele>169.0</ele><time>2026-04-18T07:17:48Z</time></trkpt><trkpt lat="43.53340935841561" lon="10.66086868437588"><ele>169.0</ele><time>2026-04-18T07:17:50Z</time></trkpt><trkpt lat="43.53347965260125" lon="10.660919981123442"><ele>169.0</ele><time>2026-04-18T07:17:52Z</time></trkpt><trkpt lat="43.53354360554768" lon="10.66098266575441"><ele>169.0</ele><time>2026-04-18T07:17:54Z</time></trkpt><trkpt lat="43.533598890540546" lon="10.661036376242983"><ele>169.0</ele><time>2026-04-18T07:17:57Z</time></trkpt><trkpt lat="43.533689854448525" lon="10.661093449255455"><ele>169.0</ele><time>2026-04-18T07:17:59Z</time></trkpt><trkpt lat="43.53381183849447" lon="10.661135498802855"><ele>167.79999999999998</ele><time>2026-04-18T07:18:01Z</time></trkpt><trkpt lat="43.53392633732816" lon="10.66115948448145"><ele>166.6</ele><time>2026-04-18T07:18:03Z</time></trkpt><trkpt lat="43.53403862347963" lon="10.661181179568556"><ele>165.4</ele><time>2026-04-18T07:18:05Z</time></trkpt><trkpt lat="43.534130458924174" lon="10.661198372719134"><ele>164.2</ele><time>2026-04-18T07:18:07Z</time></trkpt><trkpt lat="43.53419353382361" lon="10.661213454030605"><ele>163.0</ele><time>2026-04-18T07:18:09Z</time></trkpt><trkpt lat="43.53425763902762" lon="10.661277962910924"><ele>163.0</ele><time>2026-04-18T07:18:12Z</time></trkpt><trkpt lat="43.5342283057577" lon="10.661425278353562"><ele>163.0</ele><time>2026-04-18T07:18:15Z</time></trkpt><trkpt lat="43.53415997805095" lon="10.661583676946904"><ele>163.0</ele><time>2026-04-18T07:18:17Z</time></trkpt><trkpt lat="43.53411867481517" lon="10.661691348956753"><ele>163.0</ele><time>2026-04-18T07:18:18Z</time></trkpt><trkpt lat="43.53407712873493" lon="10.66182354897806"><ele>163.0</ele><time>2026-04-18T07:18:19Z</time></trkpt><trkpt lat="43.53402827934961" lon="10.661969789134398"><ele>161.8</ele><time>2026-04-18T07:18:20Z</time></trkpt><trkpt lat="43.53396561857567" lon="10.662105434771851"><ele>160.60000000000002</ele><time>2026-04-18T07:18:21Z</time></trkpt><trkpt lat="43.533915739378955" lon="10.662246094409694"><ele>159.39999999999998</ele><time>2026-04-18T07:18:22Z</time></trkpt><trkpt lat="43.53386853245942" lon="10.662383070514457"><ele>158.2</ele><time>2026-04-18T07:18:23Z</time></trkpt><trkpt lat="43.533820441353285" lon="10.662511760881163"><ele>157.0</ele><time>2026-04-18T07:18:24Z</time></trkpt><trkpt lat="43.533775965776876" lon="10.662648670781103"><ele>156.4</ele><time>2026-04-18T07:18:25Z</time></trkpt><trkpt lat="43.53372930283445" lon="10.66278868260714"><ele>155.79999999999998</ele><time>2026-04-18T07:18:26Z</time></trkpt><trkpt lat="43.53368679507574" lon="10.6629285798198"><ele>155.2</ele><time>2026-04-18T07:18:27Z</time></trkpt><trkpt lat="43.533651615391626" lon="10.663067448375166"><ele>154.6</ele><time>2026-04-18T07:18:28Z</time></trkpt><trkpt lat="43.5336208130442" lon="10.663204441170771"><ele>154.0</ele><time>2026-04-18T07:18:29Z</time></trkpt><trkpt lat="43.53359264294726" lon="10.663342923661709"><ele>156.2</ele><time>2026-04-18T07:18:30Z</time></trkpt><trkpt lat="43.53356462153337" lon="10.663486047883476"><ele>158.4</ele><time>2026-04-18T07:18:31Z</time></trkpt><trkpt lat="43.533537884963366" lon="10.663621834915087"><ele>160.6</ele><time>2026-04-18T07:18:32Z</time></trkpt><trkpt lat="43.5335130950701" lon="10.663754127286824"><ele>162.8</ele><time>2026-04-18T07:18:33Z</time></trkpt><trkpt lat="43.533492835036014" lon="10.663886895052233"><ele>165.0</ele><time>2026-04-18T07:18:34Z</time></trkpt><trkpt lat="43.533475660838015" lon="10.664024567207463"><ele>165.0</ele><time>2026-04-18T07:18:35Z</time></trkpt><trkpt lat="43.53346206122214" lon="10.664152287099338"><ele>165.0</ele><time>2026-04-18T07:18:36Z</time></trkpt><trkpt lat="43.533461183438604" lon="10.664302764300173"><ele>165.0</ele><time>2026-04-18T07:18:37Z</time></trkpt><trkpt lat="43.53342634045685" lon="10.664416426368678"><ele>165.0</ele><time>2026-04-18T07:18:38Z</time></trkpt><trkpt lat="43.53341258637361" lon="10.664537357209143"><ele>165.0</ele><time>2026-04-18T07:18:39Z</time></trkpt><trkpt lat="43.53334875340371" lon="10.664636896505339"><ele>163.0</ele><time>2026-04-18T07:18:40Z</time></trkpt><trkpt lat="43.53328173715492" lon="10.664735102022002"><ele>161.0</ele><time>2026-04-18T07:18:41Z</time></trkpt><trkpt lat="43.533203325428374" lon="10.664827055613587"><ele>159.0</ele><time>2026-04-18T07:18:42Z</time></trkpt><trkpt lat="43.53311532215017" lon="10.664914081830837"><ele>157.0</ele><time>2026-04-18T07:18:43Z</time></trkpt><trkpt lat="43.53302028770241" lon="10.664987344692468"><ele>155.0</ele><time>2026-04-18T07:18:44Z</time></trkpt><trkpt lat="43.53292288098493" lon="10.665057738811386"><ele>154.6</ele><time>2026-04-18T07:18:45Z</time></trkpt><trkpt lat="43.532815747591776" lon="10.66504471312565"><ele>154.2</ele><time>2026-04-18T07:18:46Z</time></trkpt><trkpt lat="43.53271869102679" lon="10.665024684628289"><ele>153.8</ele><time>2026-04-18T07:18:47Z</time></trkpt><trkpt lat="43.53261981665207" lon="10.664999889012112"><ele>153.4</ele><time>2026-04-18T07:18:48Z</time></trkpt><trkpt lat="43.53252483955924" lon="10.664994726826471"><ele>153.0</ele><time>2026-04-18T07:18:49Z</time></trkpt><trkpt lat="43.53243945420019" lon="10.664980075072053"><ele>153.0</ele><time>2026-04-18T07:18:50Z</time></trkpt><trkpt lat="43.53236849184842" lon="10.664980752910802"><ele>153.0</ele><time>2026-04-18T07:18:51Z</time></trkpt><trkpt lat="43.53227511057901" lon="10.665009440308298"><ele>153.0</ele><time>2026-04-18T07:18:53Z</time></trkpt><trkpt lat="43.532205232975315" lon="10.665034760642268"><ele>153.0</ele><time>2026-04-18T07:18:56Z</time></trkpt><trkpt lat="43.53215081551846" lon="10.66511490966531"><ele>153.0</ele><time>2026-04-18T07:19:00Z</time></trkpt><trkpt lat="43.53209950939063" lon="10.665178039405244"><ele>153.0</ele><time>2026-04-18T07:19:01Z</time></trkpt><trkpt lat="43.532047192948944" lon="10.665274597976767"><ele>150.5</ele><time>2026-04-18T07:19:02Z</time></trkpt><trkpt lat="43.53198960063844" lon="10.665393051362507"><ele>148.0</ele><time>2026-04-18T07:19:03Z</time></trkpt><trkpt lat="43.5319260405893" lon="10.665529996662405"><ele>145.5</ele><time>2026-04-18T07:19:04Z</time></trkpt><trkpt lat="43.53184798384049" lon="10.665672943587756"><ele>143.0</ele><time>2026-04-18T07:19:05Z</time></trkpt><trkpt lat="43.53177246410841" lon="10.665840388994592"><ele>143.0</ele><time>2026-04-18T07:19:06Z</time></trkpt><trkpt lat="43.53171274038898" lon="10.666018651698023"><ele>143.0</ele><time>2026-04-18T07:19:07Z</time></trkpt><trkpt lat="43.53162749467548" lon="10.666192275313232"><ele>143.0</ele><time>2026-04-18T07:19:08Z</time></trkpt><trkpt lat="43.531537696517425" lon="10.666359041005107"><ele>143.0</ele><time>2026-04-18T07:19:09Z</time></trkpt><trkpt lat="43.53143770862454" lon="10.666519148800203"><ele>144.33333333333331</ele><time>2026-04-18T07:19:10Z</time></trkpt><trkpt lat="43.53133396368264" lon="10.666673520497344"><ele>145.66666666666666</ele><time>2026-04-18T07:19:11Z</time></trkpt><trkpt lat="43.53123244183937" lon="10.666827775026317"><ele>147.0</ele><time>2026-04-18T07:19:12Z</time></trkpt><trkpt lat="43.53113265673064" lon="10.666976208412349"><ele>150.0</ele><time>2026-04-18T07:19:13Z</time></trkpt><trkpt lat="43.531037845403496" lon="10.667119194528036"><ele>153.0</ele><time>2026-04-18T07:19:14Z</time></trkpt><trkpt lat="43.53094966725943" lon="10.667257794494029"><ele>156.0</ele><time>2026-04-18T07:19:15Z</time></trkpt><trkpt lat="43.53086469845864" lon="10.667388176091219"><ele>159.0</ele><time>2026-04-18T07:19:16Z</time></trkpt><trkpt lat="43.530779493934816" lon="10.667501482968003"><ele>159.0</ele><time>2026-04-18T07:19:17Z</time></trkpt><trkpt lat="43.530687679380854" lon="10.667604428868344"><ele>159.0</ele><time>2026-04-18T07:19:18Z</time></trkpt><trkpt lat="43.53058211457961" lon="10.667667867394652"><ele>159.0</ele><time>2026-04-18T07:19:19Z</time></trkpt><trkpt lat="43.53048674138111" lon="10.667752456876006"><ele>159.0</ele><time>2026-04-18T07:19:20Z</time></trkpt><trkpt lat="43.530395888144696" lon="10.667835580816204"><ele>159.8</ele><time>2026-04-18T07:19:21Z</time></trkpt><trkpt lat="43.530320780541864" lon="10.667940505612393"><ele>160.60000000000002</ele><time>2026-04-18T07:19:22Z</time></trkpt><trkpt lat="43.53024654187486" lon="10.668041426483246"><ele>161.4</ele><time>2026-04-18T07:19:23Z</time></trkpt><trkpt lat="43.5301786988141" lon="10.668144547059326"><ele>162.20000000000002</ele><time>2026-04-18T07:19:24Z</time></trkpt><trkpt lat="43.53010091778922" lon="10.668260359781794"><ele>163.0</ele><time>2026-04-18T07:19:25Z</time></trkpt><trkpt lat="43.530019108136734" lon="10.668376399617562"><ele>163.0</ele><time>2026-04-18T07:19:26Z</time></trkpt><trkpt lat="43.52993635718655" lon="10.66849922194337"><ele>163.0</ele><time>2026-04-18T07:19:27Z</time></trkpt><trkpt lat="43.52985229967556" lon="10.668628256544668"><ele>163.0</ele><time>2026-04-18T07:19:28Z</time></trkpt><trkpt lat="43.529764806978335" lon="10.668760691245183"><ele>163.0</ele><time>2026-04-18T07:19:29Z</time></trkpt><trkpt lat="43.5296739051203" lon="10.668894856981266"><ele>162.5</ele><time>2026-04-18T07:19:30Z</time></trkpt><trkpt lat="43.52957974333971" lon="10.66902869931674"><ele>162.0</ele><time>2026-04-18T07:19:31Z</time></trkpt><trkpt lat="43.52948175445481" lon="10.669160273047252"><ele>161.5</ele><time>2026-04-18T07:19:32Z</time></trkpt><trkpt lat="43.529374858136386" lon="10.669288102099337"><ele>161.0</ele><time>2026-04-18T07:19:33Z</time></trkpt><trkpt lat="43.52926127743592" lon="10.669413072528918"><ele>161.5</ele><time>2026-04-18T07:19:34Z</time></trkpt><trkpt lat="43.529142437562676" lon="10.669527448975657"><ele>162.0</ele><time>2026-04-18T07:19:35Z</time></trkpt><trkpt lat="43.52902215614251" lon="10.669649622747334"><ele>162.5</ele><time>2026-04-18T07:19:36Z</time></trkpt><trkpt lat="43.528907758399654" lon="10.669775218352791"><ele>163.0</ele><time>2026-04-18T07:19:37Z</time></trkpt><trkpt lat="43.52879316147994" lon="10.669905340930734"><ele>162.5</ele><time>2026-04-18T07:19:38Z</time></trkpt><trkpt lat="43.52868249690925" lon="10.670034173719154"><ele>162.0</ele><time>2026-04-18T07:19:39Z</time></trkpt><trkpt lat="43.5285719138272" lon="10.670159190227261"><ele>161.5</ele><time>2026-04-18T07:19:40Z</time></trkpt><trkpt lat="43.52846496858297" lon="10.670287122984478"><ele>161.0</ele><time>2026-04-18T07:19:41Z</time></trkpt><trkpt lat="43.528360782580584" lon="10.67042234809638"><ele>161.0</ele><time>2026-04-18T07:19:42Z</time></trkpt><trkpt lat="43.52825579869078" lon="10.670561426247614"><ele>161.0</ele><time>2026-04-18T07:19:43Z</time></trkpt><trkpt lat="43.52814904866442" lon="10.670702379413905"><ele>161.0</ele><time>2026-04-18T07:19:44Z</time></trkpt><trkpt lat="43.528042063105275" lon="10.670836122462287"><ele>161.0</ele><time>2026-04-18T07:19:45Z</time></trkpt><trkpt lat="43.527938670535555" lon="10.67096391696123"><ele>162.25</ele><time>2026-04-18T07:19:46Z</time></trkpt><trkpt lat="43.52783581974145" lon="10.671090634454389"><ele>163.5</ele><time>2026-04-18T07:19:47Z</time></trkpt><trkpt lat="43.52773749742263" lon="10.671213918188993"><ele>164.75</ele><time>2026-04-18T07:19:48Z</time></trkpt><trkpt lat="43.527644733066396" lon="10.67133375267602"><ele>166.0</ele><time>2026-04-18T07:19:49Z</time></trkpt><trkpt lat="43.527561972750725" lon="10.67145804424709"><ele>166.0</ele><time>2026-04-18T07:19:50Z</time></trkpt><trkpt lat="43.52748994932022" lon="10.671592152237187"><ele>166.0</ele><time>2026-04-18T07:19:51Z</time></trkpt><trkpt lat="43.52742488152315" lon="10.671735411580249"><ele>166.0</ele><time>2026-04-18T07:19:52Z</time></trkpt><trkpt lat="43.52736290269366" lon="10.671882610877507"><ele>166.0</ele><time>2026-04-18T07:19:53Z</time></trkpt><trkpt lat="43.527298298390804" lon="10.672030028106795"><ele>167.25</ele><time>2026-04-18T07:19:54Z</time></trkpt><trkpt lat="43.52722883482996" lon="10.672170609535335"><ele>168.5</ele><time>2026-04-18T07:19:55Z</time></trkpt><trkpt lat="43.52714946781182" lon="10.67230166239874"><ele>169.75</ele><time>2026-04-18T07:19:56Z</time></trkpt><trkpt lat="43.527052618966984" lon="10.67240833568662"><ele>171.0</ele><time>2026-04-18T07:19:57Z</time></trkpt><trkpt lat="43.526933390896936" lon="10.67246472592902"><ele>171.0</ele><time>2026-04-18T07:19:58Z</time></trkpt><trkpt lat="43.526811619145434" lon="10.672480492404205"><ele>171.0</ele><time>2026-04-18T07:19:59Z</time></trkpt><trkpt lat="43.52667998866839" lon="10.672481728064923"><ele>171.0</ele><time>2026-04-18T07:20:00Z</time></trkpt><trkpt lat="43.52656102160281" lon="10.672460312517781"><ele>171.0</ele><time>2026-04-18T07:20:01Z</time></trkpt><trkpt lat="43.52644651847679" lon="10.67245654302641"><ele>171.0</ele><time>2026-04-18T07:20:02Z</time></trkpt><trkpt lat="43.52633851363237" lon="10.67247610791717"><ele>171.0</ele><time>2026-04-18T07:20:03Z</time></trkpt><trkpt lat="43.526242879942785" lon="10.672524176079973"><ele>171.0</ele><time>2026-04-18T07:20:04Z</time></trkpt><trkpt lat="43.52615441465114" lon="10.672593903515258"><ele>171.0</ele><time>2026-04-18T07:20:05Z</time></trkpt><trkpt lat="43.526074841740964" lon="10.672668255755418"><ele>171.0</ele><time>2026-04-18T07:20:06Z</time></trkpt><trkpt lat="43.526002970558984" lon="10.67274763502449"><ele>170.8</ele><time>2026-04-18T07:20:07Z</time></trkpt><trkpt lat="43.52594080317191" lon="10.67284204387376"><ele>170.60000000000002</ele><time>2026-04-18T07:20:08Z</time></trkpt><trkpt lat="43.52589059259183" lon="10.672947923551217"><ele>170.4</ele><time>2026-04-18T07:20:09Z</time></trkpt><trkpt lat="43.525855827126435" lon="10.673071551229576"><ele>170.2</ele><time>2026-04-18T07:20:10Z</time></trkpt><trkpt lat="43.5258356588991" lon="10.673213034383785"><ele>170.0</ele><time>2026-04-18T07:20:11Z</time></trkpt><trkpt lat="43.52582495775242" lon="10.673362146028348"><ele>170.0</ele><time>2026-04-18T07:20:12Z</time></trkpt><trkpt lat="43.525815162152774" lon="10.673518378794007"><ele>170.0</ele><time>2026-04-18T07:20:13Z</time></trkpt><trkpt lat="43.52580868270343" lon="10.673680387699251"><ele>170.0</ele><time>2026-04-18T07:20:14Z</time></trkpt><trkpt lat="43.52579426817979" lon="10.673845674350005"><ele>170.0</ele><time>2026-04-18T07:20:15Z</time></trkpt><trkpt lat="43.5257707215001" lon="10.674017838243309"><ele>172.0</ele><time>2026-04-18T07:20:16Z</time></trkpt><trkpt lat="43.52574450790702" lon="10.674191548098552"><ele>174.0</ele><time>2026-04-18T07:20:17Z</time></trkpt><trkpt lat="43.5257192149803" lon="10.67436961951917"><ele>176.0</ele><time>2026-04-18T07:20:18Z</time></trkpt><trkpt lat="43.52567704896326" lon="10.674539607261769"><ele>178.0</ele><time>2026-04-18T07:20:19Z</time></trkpt><trkpt lat="43.52565138474724" lon="10.674707288463798"><ele>179.0</ele><time>2026-04-18T07:20:20Z</time></trkpt><trkpt lat="43.52564264826804" lon="10.674874820150524"><ele>180.0</ele><time>2026-04-18T07:20:21Z</time></trkpt><trkpt lat="43.52561911820882" lon="10.675025637750343"><ele>181.0</ele><time>2026-04-18T07:20:22Z</time></trkpt><trkpt lat="43.52559973760576" lon="10.675157437702852"><ele>182.0</ele><time>2026-04-18T07:20:23Z</time></trkpt><trkpt lat="43.52558094902461" lon="10.675287198258495"><ele>183.0</ele><time>2026-04-18T07:20:24Z</time></trkpt><trkpt lat="43.525537283223734" lon="10.67539968000178"><ele>183.0</ele><time>2026-04-18T07:20:25Z</time></trkpt><trkpt lat="43.52550442144085" lon="10.675499991693663"><ele>183.0</ele><time>2026-04-18T07:20:26Z</time></trkpt><trkpt lat="43.525483190762984" lon="10.675598725932872"><ele>183.0</ele><time>2026-04-18T07:20:27Z</time></trkpt><trkpt lat="43.5254477908343" lon="10.675680837762725"><ele>183.0</ele><time>2026-04-18T07:20:28Z</time></trkpt><trkpt lat="43.52539852215661" lon="10.67574576953114"><ele>183.0</ele><time>2026-04-18T07:20:29Z</time></trkpt><trkpt lat="43.525314610444845" lon="10.675858205460559"><ele>183.0</ele><time>2026-04-18T07:20:31Z</time></trkpt><trkpt lat="43.52521571692077" lon="10.675963053892394"><ele>183.0</ele><time>2026-04-18T07:20:33Z</time></trkpt><trkpt lat="43.52512686554739" lon="10.676067259022865"><ele>183.0</ele><time>2026-04-18T07:20:35Z</time></trkpt><trkpt lat="43.52502024808333" lon="10.676141759496678"><ele>183.0</ele><time>2026-04-18T07:20:37Z</time></trkpt><trkpt lat="43.52491476462388" lon="10.676233601449022"><ele>183.0</ele><time>2026-04-18T07:20:39Z</time></trkpt><trkpt lat="43.52481876856222" lon="10.676326866314408"><ele>182.85714285714286</ele><time>2026-04-18T07:20:41Z</time></trkpt><trkpt lat="43.524769997578815" lon="10.676384745177328"><ele>182.71428571428572</ele><time>2026-04-18T07:20:43Z</time></trkpt><trkpt lat="43.52472289646508" lon="10.676445785951765"><ele>182.57142857142856</ele><time>2026-04-18T07:20:45Z</time></trkpt><trkpt lat="43.524664579219426" lon="10.676531786892815"><ele>182.42857142857144</ele><time>2026-04-18T07:20:47Z</time></trkpt><trkpt lat="43.5246188487639" lon="10.6766195238993"><ele>182.28571428571428</ele><time>2026-04-18T07:20:49Z</time></trkpt><trkpt lat="43.52458472692971" lon="10.676696483133224"><ele>182.14285714285714</ele><time>2026-04-18T07:20:51Z</time></trkpt><trkpt lat="43.524548963883376" lon="10.676782619381735"><ele>182.0</ele><time>2026-04-18T07:20:53Z</time></trkpt><trkpt lat="43.524526096319555" lon="10.6768930645901"><ele>181.57142857142858</ele><time>2026-04-18T07:20:55Z</time></trkpt><trkpt lat="43.524514802861965" lon="10.676991032546688"><ele>181.14285714285714</ele><time>2026-04-18T07:20:57Z</time></trkpt><trkpt lat="43.52453184640556" lon="10.677074718057783"><ele>180.71428571428572</ele><time>2026-04-18T07:21:00Z</time></trkpt><trkpt lat="43.52453324560414" lon="10.677185857977431"><ele>180.28571428571428</ele><time>2026-04-18T07:21:04Z</time></trkpt><trkpt lat="43.52458026758568" lon="10.67725165844059"><ele>179.85714285714286</ele><time>2026-04-18T07:21:07Z</time></trkpt><trkpt lat="43.524647904104995" lon="10.677326218061364"><ele>179.42857142857144</ele><time>2026-04-18T07:21:10Z</time></trkpt><trkpt lat="43.52469612542051" lon="10.677398101237566"><ele>179.0</ele><time>2026-04-18T07:21:12Z</time></trkpt><trkpt lat="43.52472610389267" lon="10.677520179094294"><ele>178.2</ele><time>2026-04-18T07:21:14Z</time></trkpt><trkpt lat="43.52474017798713" lon="10.677649707137286"><ele>177.39999999999998</ele><time>2026-04-18T07:21:16Z</time></trkpt><trkpt lat="43.524747521826384" lon="10.6777909854769"><ele>176.6</ele><time>2026-04-18T07:21:18Z</time></trkpt><trkpt lat="43.52474495828271" lon="10.677908024688131"><ele>175.8</ele><time>2026-04-18T07:21:20Z</time></trkpt><trkpt lat="43.52474085410344" lon="10.678031252296107"><ele>175.0</ele><time>2026-04-18T07:21:22Z</time></trkpt><trkpt lat="43.524737782794645" lon="10.678176627820244"><ele>174.4</ele><time>2026-04-18T07:21:24Z</time></trkpt><trkpt lat="43.524741534029005" lon="10.67833860007208"><ele>173.8</ele><time>2026-04-18T07:21:26Z</time></trkpt><trkpt lat="43.52475923230631" lon="10.678422872255588"><ele>173.2</ele><time>2026-04-18T07:21:27Z</time></trkpt><trkpt lat="43.524771204660745" lon="10.678509420609858"><ele>172.6</ele><time>2026-04-18T07:21:28Z</time></trkpt><trkpt lat="43.524789318610054" lon="10.67866420181614"><ele>172.0</ele><time>2026-04-18T07:21:30Z</time></trkpt><trkpt lat="43.524821942283594" lon="10.678798615729626"><ele>173.16666666666669</ele><time>2026-04-18T07:21:32Z</time></trkpt><trkpt lat="43.52485646965105" lon="10.678966894119478"><ele>174.33333333333334</ele><time>2026-04-18T07:21:34Z</time></trkpt><trkpt lat="43.52486749047486" lon="10.679064232487802"><ele>175.5</ele><time>2026-04-18T07:21:35Z</time></trkpt><trkpt lat="43.52487102770752" lon="10.67916628825114"><ele>176.66666666666666</ele><time>2026-04-18T07:21:36Z</time></trkpt><trkpt lat="43.524871211175096" lon="10.679266198513691"><ele>177.83333333333331</ele><time>2026-04-18T07:21:37Z</time></trkpt><trkpt lat="43.52486692554864" lon="10.679364821264643"><ele>179.0</ele><time>2026-04-18T07:21:38Z</time></trkpt><trkpt lat="43.52485780742977" lon="10.679467386382141"><ele>179.5</ele><time>2026-04-18T07:21:39Z</time></trkpt><trkpt lat="43.5248457094891" lon="10.679568408186382"><ele>180.0</ele><time>2026-04-18T07:21:40Z</time></trkpt><trkpt lat="43.524833497349455" lon="10.679664601368792"><ele>180.5</ele><time>2026-04-18T07:21:41Z</time></trkpt><trkpt lat="43.524823347869955" lon="10.679762021694396"><ele>181.0</ele><time>2026-04-18T07:21:42Z</time></trkpt><trkpt lat="43.524826451194535" lon="10.679867177024201"><ele>181.5</ele><time>2026-04-18T07:21:43Z</time></trkpt><trkpt lat="43.524840360014736" lon="10.679978905188998"><ele>182.0</ele><time>2026-04-18T07:21:44Z</time></trkpt><trkpt lat="43.52486454303604" lon="10.680094838432801"><ele>182.0</ele><time>2026-04-18T07:21:45Z</time></trkpt><trkpt lat="43.524891771657" lon="10.680215026574292"><ele>182.0</ele><time>2026-04-18T07:21:46Z</time></trkpt><trkpt lat="43.52491778380613" lon="10.680336292858074"><ele>182.0</ele><time>2026-04-18T07:21:47Z</time></trkpt><trkpt lat="43.52494199500038" lon="10.68045724954049"><ele>182.0</ele><time>2026-04-18T07:21:48Z</time></trkpt><trkpt lat="43.524959271800384" lon="10.680568719170621"><ele>182.0</ele><time>2026-04-18T07:21:49Z</time></trkpt><trkpt lat="43.52495319393981" lon="10.680674188285128"><ele>182.0</ele><time>2026-04-18T07:21:50Z</time></trkpt><trkpt lat="43.52495415613937" lon="10.680771471840995"><ele>180.83333333333331</ele><time>2026-04-18T07:21:51Z</time></trkpt><trkpt lat="43.52495365433158" lon="10.680866413659253"><ele>179.66666666666666</ele><time>2026-04-18T07:21:52Z</time></trkpt><trkpt lat="43.524952172515654" lon="10.680962226074456"><ele>178.5</ele><time>2026-04-18T07:21:53Z</time></trkpt><trkpt lat="43.524963121048344" lon="10.681062027937026"><ele>177.33333333333334</ele><time>2026-04-18T07:21:54Z</time></trkpt><trkpt lat="43.52495511639729" lon="10.68116748741887"><ele>176.16666666666669</ele><time>2026-04-18T07:21:55Z</time></trkpt><trkpt lat="43.524951457716696" lon="10.681281477210149"><ele>175.0</ele><time>2026-04-18T07:21:56Z</time></trkpt><trkpt lat="43.52494975104561" lon="10.68140214841478"><ele>174.5</ele><time>2026-04-18T07:21:57Z</time></trkpt><trkpt lat="43.5249478052812" lon="10.681529850090289"><ele>174.0</ele><time>2026-04-18T07:21:58Z</time></trkpt><trkpt lat="43.52494896781298" lon="10.681659834246691"><ele>173.5</ele><time>2026-04-18T07:21:59Z</time></trkpt><trkpt lat="43.52495001205217" lon="10.681784969888852"><ele>173.0</ele><time>2026-04-18T07:22:00Z</time></trkpt><trkpt lat="43.52495051000647" lon="10.681900583503538"><ele>172.5</ele><time>2026-04-18T07:22:01Z</time></trkpt><trkpt lat="43.52493435141364" lon="10.68200839961536"><ele>172.0</ele><time>2026-04-18T07:22:02Z</time></trkpt><trkpt lat="43.524932453312935" lon="10.682116588611825"><ele>171.71428571428572</ele><time>2026-04-18T07:22:03Z</time></trkpt><trkpt lat="43.52493273857871" lon="10.682226897820728"><ele>171.42857142857144</ele><time>2026-04-18T07:22:04Z</time></trkpt><trkpt lat="43.524950916131246" lon="10.682329498790581"><ele>171.14285714285717</ele><time>2026-04-18T07:22:05Z</time></trkpt><trkpt lat="43.524962999040575" lon="10.682425681769757"><ele>170.85714285714286</ele><time>2026-04-18T07:22:06Z</time></trkpt><trkpt lat="43.524998275924425" lon="10.68250513032522"><ele>170.57142857142856</ele><time>2026-04-18T07:22:07Z</time></trkpt><trkpt lat="43.525046998101416" lon="10.68256695828202"><ele>170.2857142857143</ele><time>2026-04-18T07:22:08Z</time></trkpt><trkpt lat="43.5251130804732" lon="10.682600549084881"><ele>170.0</ele><time>2026-04-18T07:22:09Z</time></trkpt><trkpt lat="43.52518473117781" lon="10.682640530214853"><ele>170.0</ele><time>2026-04-18T07:22:10Z</time></trkpt><trkpt lat="43.52525931104727" lon="10.68266381677308"><ele>170.0</ele><time>2026-04-18T07:22:11Z</time></trkpt><trkpt lat="43.525327483985194" lon="10.68269555137"><ele>170.0</ele><time>2026-04-18T07:22:12Z</time></trkpt><trkpt lat="43.52538428078605" lon="10.68273817330858"><ele>170.0</ele><time>2026-04-18T07:22:13Z</time></trkpt><trkpt lat="43.525439028206684" lon="10.68279871850226"><ele>170.0</ele><time>2026-04-18T07:22:14Z</time></trkpt><trkpt lat="43.52549073320776" lon="10.68287096390435"><ele>170.0</ele><time>2026-04-18T07:22:15Z</time></trkpt><trkpt lat="43.525524925286675" lon="10.6829530217294"><ele>170.0</ele><time>2026-04-18T07:22:16Z</time></trkpt><trkpt lat="43.525556195208985" lon="10.68303524701401"><ele>168.8</ele><time>2026-04-18T07:22:17Z</time></trkpt><trkpt lat="43.52560479640072" lon="10.683177967990554"><ele>167.6</ele><time>2026-04-18T07:22:19Z</time></trkpt><trkpt lat="43.52562962248841" lon="10.683301674965046"><ele>166.39999999999998</ele><time>2026-04-18T07:22:21Z</time></trkpt><trkpt lat="43.52561004794258" lon="10.68343017881829"><ele>165.2</ele><time>2026-04-18T07:22:23Z</time></trkpt><trkpt lat="43.525525126852436" lon="10.683478157424734"><ele>164.0</ele><time>2026-04-18T07:22:24Z</time></trkpt><trkpt lat="43.525460943129964" lon="10.683515591243678"><ele>164.0</ele><time>2026-04-18T07:22:25Z</time></trkpt><trkpt lat="43.52539409077868" lon="10.683563347052482"><ele>164.0</ele><time>2026-04-18T07:22:26Z</time></trkpt><trkpt lat="43.52532136929038" lon="10.683615131257728"><ele>164.0</ele><time>2026-04-18T07:22:27Z</time></trkpt><trkpt lat="43.5252454510802" lon="10.683673225513786"><ele>164.0</ele><time>2026-04-18T07:22:28Z</time></trkpt><trkpt lat="43.525175272514836" lon="10.683729708094605"><ele>164.0</ele><time>2026-04-18T07:22:29Z</time></trkpt><trkpt lat="43.525113945866096" lon="10.683771186776658"><ele>164.0</ele><time>2026-04-18T07:22:30Z</time></trkpt><trkpt lat="43.52505530120288" lon="10.683809196364326"><ele>162.42857142857142</ele><time>2026-04-18T07:22:31Z</time></trkpt><trkpt lat="43.524987621946444" lon="10.683835813148452"><ele>160.85714285714286</ele><time>2026-04-18T07:22:32Z</time></trkpt><trkpt lat="43.524921685446294" lon="10.683881267937396"><ele>159.28571428571428</ele><time>2026-04-18T07:22:33Z</time></trkpt><trkpt lat="43.52485826806838" lon="10.683931995427207"><ele>157.71428571428572</ele><time>2026-04-18T07:22:34Z</time></trkpt><trkpt lat="43.52479207306113" lon="10.68394466680258"><ele>156.14285714285714</ele><time>2026-04-18T07:22:35Z</time></trkpt><trkpt lat="43.52471107026845" lon="10.683925861211716"><ele>154.57142857142856</ele><time>2026-04-18T07:22:37Z</time></trkpt><trkpt lat="43.52465232573307" lon="10.683852828045934"><ele>153.0</ele><time>2026-04-18T07:22:40Z</time></trkpt><trkpt lat="43.52451513670592" lon="10.684018924833762"><ele>151.85714285714286</ele><time>2026-04-18T07:22:44Z</time></trkpt><trkpt lat="43.5245096458252" lon="10.684108836762169"><ele>150.71428571428572</ele><time>2026-04-18T07:22:45Z</time></trkpt><trkpt lat="43.52449995922598" lon="10.684201521712314"><ele>149.57142857142858</ele><time>2026-04-18T07:22:46Z</time></trkpt><trkpt lat="43.524493754919355" lon="10.684295415978768"><ele>148.42857142857144</ele><time>2026-04-18T07:22:47Z</time></trkpt><trkpt lat="43.52451577532603" lon="10.684377650242102"><ele>147.2857142857143</ele><time>2026-04-18T07:22:48Z</time></trkpt><trkpt lat="43.5245532189864" lon="10.684451516327172"><ele>146.14285714285714</ele><time>2026-04-18T07:22:49Z</time></trkpt><trkpt lat="43.52461275884586" lon="10.684510300005163"><ele>145.0</ele><time>2026-04-18T07:22:50Z</time></trkpt><trkpt lat="43.52469048707062" lon="10.684534004017022"><ele>145.0</ele><time>2026-04-18T07:22:51Z</time></trkpt><trkpt lat="43.52486365832176" lon="10.68455088796608"><ele>145.0</ele><time>2026-04-18T07:22:53Z</time></trkpt><trkpt lat="43.52494809915096" lon="10.684595476811701"><ele>145.0</ele><time>2026-04-18T07:22:54Z</time></trkpt><trkpt lat="43.5250308205679" lon="10.684635233738462"><ele>145.0</ele><time>2026-04-18T07:22:55Z</time></trkpt><trkpt lat="43.52511598818967" lon="10.68466046597357"><ele>145.0</ele><time>2026-04-18T07:22:56Z</time></trkpt><trkpt lat="43.52518372080413" lon="10.684729609641597"><ele>145.0</ele><time>2026-04-18T07:22:57Z</time></trkpt><trkpt lat="43.525232685900114" lon="10.684814780394882"><ele>145.0</ele><time>2026-04-18T07:22:58Z</time></trkpt><trkpt lat="43.52527206270691" lon="10.684907331412886"><ele>145.0</ele><time>2026-04-18T07:22:59Z</time></trkpt><trkpt lat="43.525290447421355" lon="10.685021200540069"><ele>145.0</ele><time>2026-04-18T07:23:00Z</time></trkpt><trkpt lat="43.52531625398717" lon="10.685138005933972"><ele>145.0</ele><time>2026-04-18T07:23:01Z</time></trkpt><trkpt lat="43.52533680279401" lon="10.685261279314002"><ele>145.0</ele><time>2026-04-18T07:23:02Z</time></trkpt><trkpt lat="43.5253596450673" lon="10.685388758367125"><ele>145.8</ele><time>2026-04-18T07:23:03Z</time></trkpt><trkpt lat="43.52538720970003" lon="10.68552812363632"><ele>146.6</ele><time>2026-04-18T07:23:04Z</time></trkpt><trkpt lat="43.52543780869753" lon="10.685661330708221"><ele>147.4</ele><time>2026-04-18T07:23:05Z</time></trkpt><trkpt lat="43.525471578234836" lon="10.685808860550736"><ele>148.2</ele><time>2026-04-18T07:23:06Z</time></trkpt><trkpt lat="43.52550348529816" lon="10.685962295828425"><ele>149.0</ele><time>2026-04-18T07:23:07Z</time></trkpt><trkpt lat="43.52553008336574" lon="10.686123771583281"><ele>146.0</ele><time>2026-04-18T07:23:08Z</time></trkpt><trkpt lat="43.525550540560275" lon="10.686289873419431"><ele>143.0</ele><time>2026-04-18T07:23:09Z</time></trkpt><trkpt lat="43.52556755401868" lon="10.686461177876906"><ele>140.0</ele><time>2026-04-18T07:23:10Z</time></trkpt><trkpt lat="43.52557729141827" lon="10.686629287248337"><ele>137.0</ele><time>2026-04-18T07:23:11Z</time></trkpt><trkpt lat="43.5255779943869" lon="10.686781909081175"><ele>135.6</ele><time>2026-04-18T07:23:12Z</time></trkpt><trkpt lat="43.52556355266432" lon="10.686932401541165"><ele>134.2</ele><time>2026-04-18T07:23:13Z</time></trkpt><trkpt lat="43.525536572149505" lon="10.68707874110553"><ele>132.8</ele><time>2026-04-18T07:23:14Z</time></trkpt><trkpt lat="43.52549941473739" lon="10.687220433997762"><ele>131.4</ele><time>2026-04-18T07:23:15Z</time></trkpt><trkpt lat="43.52545519326639" lon="10.687358400783486"><ele>130.0</ele><time>2026-04-18T07:23:16Z</time></trkpt><trkpt lat="43.525409950065644" lon="10.687498128242407"><ele>128.4</ele><time>2026-04-18T07:23:17Z</time></trkpt><trkpt lat="43.525367585851406" lon="10.68763821312712"><ele>126.8</ele><time>2026-04-18T07:23:18Z</time></trkpt><trkpt lat="43.525327122935245" lon="10.687780356833542"><ele>125.19999999999999</ele><time>2026-04-18T07:23:19Z</time></trkpt><trkpt lat="43.52528890788752" lon="10.687922942590818"><ele>123.6</ele><time>2026-04-18T07:23:20Z</time></trkpt><trkpt lat="43.52525387884904" lon="10.688070468076356"><ele>122.0</ele><time>2026-04-18T07:23:21Z</time></trkpt><trkpt lat="43.52521995635518" lon="10.688224138906827"><ele>121.75</ele><time>2026-04-18T07:23:22Z</time></trkpt><trkpt lat="43.525190786422414" lon="10.68838552861259"><ele>121.5</ele><time>2026-04-18T07:23:23Z</time></trkpt><trkpt lat="43.525167276412986" lon="10.688553644945378"><ele>121.25</ele><time>2026-04-18T07:23:24Z</time></trkpt><trkpt lat="43.52514892405866" lon="10.688724705439347"><ele>121.0</ele><time>2026-04-18T07:23:25Z</time></trkpt><trkpt lat="43.525129639673956" lon="10.688896269316782"><ele>120.75</ele><time>2026-04-18T07:23:26Z</time></trkpt><trkpt lat="43.525106319213435" lon="10.689066027358882"><ele>120.5</ele><time>2026-04-18T07:23:27Z</time></trkpt><trkpt lat="43.525083237988156" lon="10.689230356840225"><ele>120.25</ele><time>2026-04-18T07:23:28Z</time></trkpt><trkpt lat="43.5250597743722" lon="10.689386039536322"><ele>120.0</ele><time>2026-04-18T07:23:29Z</time></trkpt><trkpt lat="43.52503496711346" lon="10.68953175719903"><ele>120.0</ele><time>2026-04-18T07:23:30Z</time></trkpt><trkpt lat="43.525003824128774" lon="10.689674109618302"><ele>120.0</ele><time>2026-04-18T07:23:31Z</time></trkpt><trkpt lat="43.52498501875756" lon="10.689813528914499"><ele>120.0</ele><time>2026-04-18T07:23:32Z</time></trkpt><trkpt lat="43.52497769669778" lon="10.689958986052424"><ele>120.0</ele><time>2026-04-18T07:23:33Z</time></trkpt><trkpt lat="43.52498172709992" lon="10.690106337191011"><ele>120.0</ele><time>2026-04-18T07:23:34Z</time></trkpt><trkpt lat="43.52500221805848" lon="10.69025457551422"><ele>119.0</ele><time>2026-04-18T07:23:35Z</time></trkpt><trkpt lat="43.52502446090437" lon="10.690403823812202"><ele>118.0</ele><time>2026-04-18T07:23:36Z</time></trkpt><trkpt lat="43.525046210678404" lon="10.69055787941577"><ele>117.0</ele><time>2026-04-18T07:23:37Z</time></trkpt><trkpt lat="43.52506601702327" lon="10.690714726199515"><ele>116.0</ele><time>2026-04-18T07:23:38Z</time></trkpt><trkpt lat="43.525089783922745" lon="10.69087345258773"><ele>116.0</ele><time>2026-04-18T07:23:39Z</time></trkpt><trkpt lat="43.52510650768197" lon="10.691033919932261"><ele>116.0</ele><time>2026-04-18T07:23:40Z</time></trkpt><trkpt lat="43.52512787586475" lon="10.691197848091786"><ele>116.0</ele><time>2026-04-18T07:23:41Z</time></trkpt><trkpt lat="43.52515602789785" lon="10.6913588616647"><ele>116.0</ele><time>2026-04-18T07:23:42Z</time></trkpt><trkpt lat="43.52519511211545" lon="10.691518138487497"><ele>114.5</ele><time>2026-04-18T07:23:43Z</time></trkpt><trkpt lat="43.52523762942095" lon="10.691675022662569"><ele>113.0</ele><time>2026-04-18T07:23:44Z</time></trkpt><trkpt lat="43.525281177962" lon="10.691828544494562"><ele>111.5</ele><time>2026-04-18T07:23:45Z</time></trkpt><trkpt lat="43.52531744527489" lon="10.691983483807608"><ele>110.0</ele><time>2026-04-18T07:23:46Z</time></trkpt><trkpt lat="43.5253454620354" lon="10.692139064917345"><ele>109.75</ele><time>2026-04-18T07:23:47Z</time></trkpt><trkpt lat="43.52536373493172" lon="10.69229231946252"><ele>109.5</ele><time>2026-04-18T07:23:48Z</time></trkpt><trkpt lat="43.5253785112699" lon="10.692445319765111"><ele>109.25</ele><time>2026-04-18T07:23:49Z</time></trkpt><trkpt lat="43.52539265582727" lon="10.69274029723109"><ele>109.0</ele><time>2026-04-18T07:23:51Z</time></trkpt><trkpt lat="43.52539665748746" lon="10.692889120146644"><ele>109.0</ele><time>2026-04-18T07:23:52Z</time></trkpt><trkpt lat="43.52539909424096" lon="10.693036744816174"><ele>109.0</ele><time>2026-04-18T07:23:53Z</time></trkpt><trkpt lat="43.52540525996574" lon="10.693181892388623"><ele>109.0</ele><time>2026-04-18T07:23:54Z</time></trkpt><trkpt lat="43.52542247386802" lon="10.693325562663063"><ele>109.0</ele><time>2026-04-18T07:23:55Z</time></trkpt><trkpt lat="43.525459281157445" lon="10.693468043278273"><ele>109.0</ele><time>2026-04-18T07:23:56Z</time></trkpt><trkpt lat="43.52551499538186" lon="10.693606496146629"><ele>108.5</ele><time>2026-04-18T07:23:57Z</time></trkpt><trkpt lat="43.52557875376601" lon="10.693742690520056"><ele>108.0</ele><time>2026-04-18T07:23:58Z</time></trkpt><trkpt lat="43.52564212910557" lon="10.693878322392909"><ele>107.5</ele><time>2026-04-18T07:23:59Z</time></trkpt><trkpt lat="43.52570642599795" lon="10.694013593371718"><ele>107.0</ele><time>2026-04-18T07:24:00Z</time></trkpt><trkpt lat="43.52576199962971" lon="10.694146108938751"><ele>107.0</ele><time>2026-04-18T07:24:01Z</time></trkpt><trkpt lat="43.525805883947335" lon="10.694277221895142"><ele>106.99999999999999</ele><time>2026-04-18T07:24:02Z</time></trkpt><trkpt lat="43.525836127701545" lon="10.694410060010291"><ele>106.99999999999999</ele><time>2026-04-18T07:24:03Z</time></trkpt><trkpt lat="43.52585325981962" lon="10.694539362748916"><ele>107.0</ele><time>2026-04-18T07:24:04Z</time></trkpt><trkpt lat="43.52585735322802" lon="10.694658853401105"><ele>107.0</ele><time>2026-04-18T07:24:05Z</time></trkpt><trkpt lat="43.52585092818094" lon="10.694771436064881"><ele>106.71428571428572</ele><time>2026-04-18T07:24:06Z</time></trkpt><trkpt lat="43.5258369571825" lon="10.694879134296047"><ele>106.42857142857143</ele><time>2026-04-18T07:24:07Z</time></trkpt><trkpt lat="43.5258186898284" lon="10.694967942233454"><ele>106.14285714285714</ele><time>2026-04-18T07:24:08Z</time></trkpt><trkpt lat="43.525793481270235" lon="10.695049303405487"><ele>105.85714285714286</ele><time>2026-04-18T07:24:09Z</time></trkpt><trkpt lat="43.52575350921244" lon="10.695126911399026"><ele>105.57142857142857</ele><time>2026-04-18T07:24:10Z</time></trkpt><trkpt lat="43.52570623440265" lon="10.695197760005644"><ele>105.28571428571429</ele><time>2026-04-18T07:24:11Z</time></trkpt><trkpt lat="43.525661888147646" lon="10.695265681674968"><ele>105.0</ele><time>2026-04-18T07:24:12Z</time></trkpt><trkpt lat="43.52562539919514" lon="10.695352995409161"><ele>104.16666666666667</ele><time>2026-04-18T07:24:13Z</time></trkpt><trkpt lat="43.525605745937604" lon="10.695459006813783"><ele>103.33333333333334</ele><time>2026-04-18T07:24:14Z</time></trkpt><trkpt lat="43.52561335045822" lon="10.695576230521455"><ele>102.5</ele><time>2026-04-18T07:24:15Z</time></trkpt><trkpt lat="43.525641503657305" lon="10.695692445781367"><ele>101.66666666666667</ele><time>2026-04-18T07:24:16Z</time></trkpt><trkpt lat="43.52568387026695" lon="10.695809592163922"><ele>100.83333333333334</ele><time>2026-04-18T07:24:17Z</time></trkpt><trkpt lat="43.525716202580014" lon="10.695932879805644"><ele>100.0</ele><time>2026-04-18T07:24:18Z</time></trkpt><trkpt lat="43.52573963504186" lon="10.69606196382388"><ele>99.0</ele><time>2026-04-18T07:24:19Z</time></trkpt><trkpt lat="43.525750059668155" lon="10.696201263480965"><ele>98.0</ele><time>2026-04-18T07:24:20Z</time></trkpt><trkpt lat="43.52574678089207" lon="10.696342921320435"><ele>97.0</ele><time>2026-04-18T07:24:21Z</time></trkpt><trkpt lat="43.52573456690347" lon="10.696490820654752"><ele>96.0</ele><time>2026-04-18T07:24:22Z</time></trkpt><trkpt lat="43.525714663462104" lon="10.696641944977248"><ele>95.0</ele><time>2026-04-18T07:24:23Z</time></trkpt><trkpt lat="43.52569142603269" lon="10.696785403641114"><ele>95.0</ele><time>2026-04-18T07:24:24Z</time></trkpt><trkpt lat="43.52566407815139" lon="10.696918861457913"><ele>95.0</ele><time>2026-04-18T07:24:25Z</time></trkpt><trkpt lat="43.52562932491364" lon="10.69704952611856"><ele>95.0</ele><time>2026-04-18T07:24:26Z</time></trkpt><trkpt lat="43.525584160153734" lon="10.697174126601473"><ele>95.0</ele><time>2026-04-18T07:24:27Z</time></trkpt><trkpt lat="43.52553050682475" lon="10.697291260633532"><ele>95.0</ele><time>2026-04-18T07:24:28Z</time></trkpt><trkpt lat="43.52547891592952" lon="10.697399229194133"><ele>94.6</ele><time>2026-04-18T07:24:29Z</time></trkpt><trkpt lat="43.52543286989275" lon="10.697513722519412"><ele>94.2</ele><time>2026-04-18T07:24:30Z</time></trkpt><trkpt lat="43.52540185374697" lon="10.697636801661934"><ele>93.80000000000001</ele><time>2026-04-18T07:24:31Z</time></trkpt><trkpt lat="43.525387777490046" lon="10.697770168492006"><ele>93.4</ele><time>2026-04-18T07:24:32Z</time></trkpt><trkpt lat="43.52539126035457" lon="10.697910917974811"><ele>93.0</ele><time>2026-04-18T07:24:33Z</time></trkpt><trkpt lat="43.52540826894704" lon="10.698053047151468"><ele>92.2</ele><time>2026-04-18T07:24:34Z</time></trkpt><trkpt lat="43.525439184551686" lon="10.698194176861998"><ele>91.4</ele><time>2026-04-18T07:24:35Z</time></trkpt><trkpt lat="43.525472628792045" lon="10.69833723674697"><ele>90.60000000000001</ele><time>2026-04-18T07:24:36Z</time></trkpt><trkpt lat="43.52549830456723" lon="10.698475835310909"><ele>89.80000000000001</ele><time>2026-04-18T07:24:37Z</time></trkpt><trkpt lat="43.52550901245588" lon="10.698616116831573"><ele>89.0</ele><time>2026-04-18T07:24:38Z</time></trkpt><trkpt lat="43.525505145602196" lon="10.6987536378759"><ele>88.4</ele><time>2026-04-18T07:24:39Z</time></trkpt><trkpt lat="43.52548781584446" lon="10.698891081344453"><ele>87.80000000000001</ele><time>2026-04-18T07:24:40Z</time></trkpt><trkpt lat="43.52545945962013" lon="10.699028708102057"><ele>87.19999999999999</ele><time>2026-04-18T07:24:41Z</time></trkpt><trkpt lat="43.52542009573626" lon="10.6991491796435"><ele>86.6</ele><time>2026-04-18T07:24:42Z</time></trkpt><trkpt lat="43.525375127973746" lon="10.699256758866136"><ele>86.0</ele><time>2026-04-18T07:24:43Z</time></trkpt><trkpt lat="43.52533201267843" lon="10.699354887152987"><ele>82.0</ele><time>2026-04-18T07:24:44Z</time></trkpt><trkpt lat="43.525293039647856" lon="10.699449955634464"><ele>78.0</ele><time>2026-04-18T07:24:45Z</time></trkpt><trkpt lat="43.52526720302594" lon="10.699552990866394"><ele>74.0</ele><time>2026-04-18T07:24:46Z</time></trkpt><trkpt lat="43.52526596971118" lon="10.699663201297263"><ele>70.0</ele><time>2026-04-18T07:24:47Z</time></trkpt><trkpt lat="43.52528930837109" lon="10.699772428368837"><ele>66.0</ele><time>2026-04-18T07:24:48Z</time></trkpt><trkpt lat="43.52532878815089" lon="10.699885109530683"><ele>62.0</ele><time>2026-04-18T07:24:49Z</time></trkpt><trkpt lat="43.525374231552235" lon="10.70000426275808"><ele>62.8</ele><time>2026-04-18T07:24:50Z</time></trkpt><trkpt lat="43.525417518392096" lon="10.700124860966326"><ele>63.6</ele><time>2026-04-18T07:24:51Z</time></trkpt><trkpt lat="43.525465178267666" lon="10.700252193141983"><ele>64.39999999999999</ele><time>2026-04-18T07:24:52Z</time></trkpt><trkpt lat="43.52551073581468" lon="10.700381570940289"><ele>65.2</ele><time>2026-04-18T07:24:53Z</time></trkpt><trkpt lat="43.525557508053154" lon="10.700514994319795"><ele>66.0</ele><time>2026-04-18T07:24:54Z</time></trkpt><trkpt lat="43.52560460285896" lon="10.70064835603304"><ele>66.0</ele><time>2026-04-18T07:24:55Z</time></trkpt><trkpt lat="43.52564827415889" lon="10.700783912874012"><ele>66.0</ele><time>2026-04-18T07:24:56Z</time></trkpt><trkpt lat="43.525683595438885" lon="10.700927297132962"><ele>66.0</ele><time>2026-04-18T07:24:57Z</time></trkpt><trkpt lat="43.52570965075802" lon="10.701074561844578"><ele>66.0</ele><time>2026-04-18T07:24:58Z</time></trkpt><trkpt lat="43.52572310289272" lon="10.701221692403253"><ele>66.0</ele><time>2026-04-18T07:24:59Z</time></trkpt><trkpt lat="43.52572680070958" lon="10.701370114744783"><ele>64.8</ele><time>2026-04-18T07:25:00Z</time></trkpt><trkpt lat="43.52572786753598" lon="10.70151892432092"><ele>63.599999999999994</ele><time>2026-04-18T07:25:01Z</time></trkpt><trkpt lat="43.52572880993611" lon="10.701660656057241"><ele>62.4</ele><time>2026-04-18T07:25:02Z</time></trkpt><trkpt lat="43.525731543200195" lon="10.70179318070174"><ele>61.2</ele><time>2026-04-18T07:25:03Z</time></trkpt><trkpt lat="43.5257419318701" lon="10.70192354912009"><ele>60.0</ele><time>2026-04-18T07:25:04Z</time></trkpt><trkpt lat="43.52576828287119" lon="10.702052062754605"><ele>59.5</ele><time>2026-04-18T07:25:05Z</time></trkpt><trkpt lat="43.52580013034551" lon="10.702173177578066"><ele>59.0</ele><time>2026-04-18T07:25:06Z</time></trkpt><trkpt lat="43.525830720293534" lon="10.70228363790725"><ele>58.5</ele><time>2026-04-18T07:25:07Z</time></trkpt><trkpt lat="43.52586284008348" lon="10.702385516637575"><ele>58.0</ele><time>2026-04-18T07:25:08Z</time></trkpt><trkpt lat="43.52589013759671" lon="10.702473658455348"><ele>57.5</ele><time>2026-04-18T07:25:09Z</time></trkpt><trkpt lat="43.52592579703076" lon="10.702590084545264"><ele>57.0</ele><time>2026-04-18T07:25:11Z</time></trkpt><trkpt lat="43.52595201232086" lon="10.70266926897572"><ele>57.0</ele><time>2026-04-18T07:25:14Z</time></trkpt><trkpt lat="43.52604116068703" lon="10.702728914743467"><ele>57.0</ele><time>2026-04-18T07:25:17Z</time></trkpt><trkpt lat="43.52615123341674" lon="10.702655739651249"><ele>57.0</ele><time>2026-04-18T07:25:19Z</time></trkpt><trkpt lat="43.52621628203162" lon="10.702602850835579"><ele>57.0</ele><time>2026-04-18T07:25:20Z</time></trkpt><trkpt lat="43.52628878543084" lon="10.702545161903481"><ele>57.0</ele><time>2026-04-18T07:25:21Z</time></trkpt><trkpt lat="43.5263708951633" lon="10.702483378699794"><ele>56.8</ele><time>2026-04-18T07:25:22Z</time></trkpt><trkpt lat="43.52646218129056" lon="10.702426207184743"><ele>56.6</ele><time>2026-04-18T07:25:23Z</time></trkpt><trkpt lat="43.52656435971389" lon="10.702377570531288"><ele>56.39999999999999</ele><time>2026-04-18T07:25:24Z</time></trkpt><trkpt lat="43.526674844897535" lon="10.70233835065369"><ele>56.199999999999996</ele><time>2026-04-18T07:25:25Z</time></trkpt><trkpt lat="43.52679356208598" lon="10.702313566013467"><ele>56.0</ele><time>2026-04-18T07:25:26Z</time></trkpt><trkpt lat="43.526916790494596" lon="10.702300566219197"><ele>56.0</ele><time>2026-04-18T07:25:27Z</time></trkpt><trkpt lat="43.527043101154135" lon="10.702294131321368"><ele>56.0</ele><time>2026-04-18T07:25:28Z</time></trkpt><trkpt lat="43.5271731417857" lon="10.702289907706106"><ele>56.0</ele><time>2026-04-18T07:25:29Z</time></trkpt><trkpt lat="43.52730459057975" lon="10.702285771334493"><ele>56.0</ele><time>2026-04-18T07:25:30Z</time></trkpt><trkpt lat="43.527438557020936" lon="10.702282280205136"><ele>56.0</ele><time>2026-04-18T07:25:31Z</time></trkpt><trkpt lat="43.527574168652094" lon="10.702278347716513"><ele>56.0</ele><time>2026-04-18T07:25:32Z</time></trkpt><trkpt lat="43.52771134852472" lon="10.702275418093981"><ele>56.0</ele><time>2026-04-18T07:25:33Z</time></trkpt><trkpt lat="43.52784923234462" lon="10.702271012833481"><ele>56.0</ele><time>2026-04-18T07:25:34Z</time></trkpt><trkpt lat="43.52798835184856" lon="10.70226474765575"><ele>56.5</ele><time>2026-04-18T07:25:35Z</time></trkpt><trkpt lat="43.52812834628953" lon="10.702259781704633"><ele>57.0</ele><time>2026-04-18T07:25:36Z</time></trkpt><trkpt lat="43.528267347194976" lon="10.702255164382644"><ele>57.5</ele><time>2026-04-18T07:25:37Z</time></trkpt><trkpt lat="43.528407017610206" lon="10.702250396538332"><ele>58.0</ele><time>2026-04-18T07:25:38Z</time></trkpt><trkpt lat="43.528548622760546" lon="10.702246521368634"><ele>58.0</ele><time>2026-04-18T07:25:39Z</time></trkpt><trkpt lat="43.528691699491034" lon="10.702240306405558"><ele>58.0</ele><time>2026-04-18T07:25:40Z</time></trkpt><trkpt lat="43.528835856103946" lon="10.70223365018711"><ele>58.0</ele><time>2026-04-18T07:25:41Z</time></trkpt><trkpt lat="43.528982647124174" lon="10.702225983156117"><ele>58.0</ele><time>2026-04-18T07:25:42Z</time></trkpt><trkpt lat="43.529131097525976" lon="10.702218054896314"><ele>57.0</ele><time>2026-04-18T07:25:43Z</time></trkpt><trkpt lat="43.52928206026974" lon="10.702207067316955"><ele>56.0</ele><time>2026-04-18T07:25:44Z</time></trkpt><trkpt lat="43.5294388828235" lon="10.702190638070006"><ele>55.0</ele><time>2026-04-18T07:25:45Z</time></trkpt><trkpt lat="43.52960088934595" lon="10.702170369107183"><ele>54.666666666666664</ele><time>2026-04-18T07:25:46Z</time></trkpt><trkpt lat="43.529767866383935" lon="10.702149287850931"><ele>54.33333333333333</ele><time>2026-04-18T07:25:47Z</time></trkpt><trkpt lat="43.52993994087068" lon="10.702126154510639"><ele>54.0</ele><time>2026-04-18T07:25:48Z</time></trkpt><trkpt lat="43.530116624169544" lon="10.702102459657585"><ele>54.0</ele><time>2026-04-18T07:25:49Z</time></trkpt><trkpt lat="43.530297480808045" lon="10.702078867714368"><ele>54.0</ele><time>2026-04-18T07:25:50Z</time></trkpt><trkpt lat="43.53048265441594" lon="10.702052975244568"><ele>54.0</ele><time>2026-04-18T07:25:51Z</time></trkpt><trkpt lat="43.530670259729305" lon="10.702028026847161"><ele>54.33333333333333</ele><time>2026-04-18T07:25:52Z</time></trkpt><trkpt lat="43.5308597764762" lon="10.702001496417363"><ele>54.666666666666664</ele><time>2026-04-18T07:25:53Z</time></trkpt><trkpt lat="43.53105028948174" lon="10.701973269971456"><ele>55.0</ele><time>2026-04-18T07:25:54Z</time></trkpt><trkpt lat="43.53124084207135" lon="10.701942148961356"><ele>55.0</ele><time>2026-04-18T07:25:55Z</time></trkpt><trkpt lat="43.531430250372175" lon="10.701904639116384"><ele>55.0</ele><time>2026-04-18T07:25:56Z</time></trkpt><trkpt lat="43.53161889967236" lon="10.701863212971066"><ele>55.0</ele><time>2026-04-18T07:25:57Z</time></trkpt><trkpt lat="43.531805755566" lon="10.70182022492353"><ele>55.0</ele><time>2026-04-18T07:25:58Z</time></trkpt><trkpt lat="43.53199225644673" lon="10.701781780948917"><ele>55.0</ele><time>2026-04-18T07:25:59Z</time></trkpt><trkpt lat="43.532177641679" lon="10.70174549284124"><ele>55.0</ele><time>2026-04-18T07:26:00Z</time></trkpt><trkpt lat="43.53236137876333" lon="10.701708957945332"><ele>55.0</ele><time>2026-04-18T07:26:01Z</time></trkpt><trkpt lat="43.53254361711206" lon="10.70167175577377"><ele>55.0</ele><time>2026-04-18T07:26:02Z</time></trkpt><trkpt lat="43.532721713931004" lon="10.701635803213984"><ele>55.0</ele><time>2026-04-18T07:26:03Z</time></trkpt><trkpt lat="43.53289560537243" lon="10.701599606635085"><ele>55.33333333333333</ele><time>2026-04-18T07:26:04Z</time></trkpt><trkpt lat="43.533065808173305" lon="10.701565852896268"><ele>55.66666666666667</ele><time>2026-04-18T07:26:05Z</time></trkpt><trkpt lat="43.53323247263925" lon="10.701528863368289"><ele>56.0</ele><time>2026-04-18T07:26:06Z</time></trkpt><trkpt lat="43.53339578860991" lon="10.701495461469841"><ele>56.0</ele><time>2026-04-18T07:26:07Z</time></trkpt><trkpt lat="43.53355384402486" lon="10.701464894132089"><ele>56.0</ele><time>2026-04-18T07:26:08Z</time></trkpt><trkpt lat="43.533710746456485" lon="10.70143309116298"><ele>56.0</ele><time>2026-04-18T07:26:09Z</time></trkpt><trkpt lat="43.533867756587455" lon="10.701401724586812"><ele>56.66666666666667</ele><time>2026-04-18T07:26:10Z</time></trkpt><trkpt lat="43.53402582669092" lon="10.701370824298959"><ele>57.33333333333333</ele><time>2026-04-18T07:26:11Z</time></trkpt><trkpt lat="43.53418620922054" lon="10.701332915735609"><ele>58.0</ele><time>2026-04-18T07:26:12Z</time></trkpt><trkpt lat="43.534347682646946" lon="10.701300600376632"><ele>58.0</ele><time>2026-04-18T07:26:13Z</time></trkpt><trkpt lat="43.53451175716866" lon="10.701265437990942"><ele>58.0</ele><time>2026-04-18T07:26:14Z</time></trkpt><trkpt lat="43.534676819842076" lon="10.701229418274806"><ele>58.0</ele><time>2026-04-18T07:26:15Z</time></trkpt><trkpt lat="43.5348424910893" lon="10.701193402905222"><ele>57.33333333333333</ele><time>2026-04-18T07:26:16Z</time></trkpt><trkpt lat="43.53500626132022" lon="10.701160532766327"><ele>56.66666666666667</ele><time>2026-04-18T07:26:17Z</time></trkpt><trkpt lat="43.53516729700087" lon="10.701129629929989"><ele>56.0</ele><time>2026-04-18T07:26:18Z</time></trkpt><trkpt lat="43.53532532887737" lon="10.70109834354197"><ele>56.333333333333336</ele><time>2026-04-18T07:26:19Z</time></trkpt><trkpt lat="43.53548177706591" lon="10.701064781399117"><ele>56.66666666666667</ele><time>2026-04-18T07:26:20Z</time></trkpt><trkpt lat="43.53563944083572" lon="10.70103264729775"><ele>57.0</ele><time>2026-04-18T07:26:21Z</time></trkpt><trkpt lat="43.53579636720021" lon="10.700999061284438"><ele>57.0</ele><time>2026-04-18T07:26:22Z</time></trkpt><trkpt lat="43.53595007190743" lon="10.700965450021478"><ele>57.0</ele><time>2026-04-18T07:26:23Z</time></trkpt><trkpt lat="43.53610001556151" lon="10.700933850496758"><ele>57.0</ele><time>2026-04-18T07:26:24Z</time></trkpt><trkpt lat="43.53624699065646" lon="10.700901290691696"><ele>56.5</ele><time>2026-04-18T07:26:25Z</time></trkpt><trkpt lat="43.53639157068406" lon="10.700871506913083"><ele>56.0</ele><time>2026-04-18T07:26:26Z</time></trkpt><trkpt lat="43.53653399985146" lon="10.7008421074274"><ele>55.5</ele><time>2026-04-18T07:26:27Z</time></trkpt><trkpt lat="43.53667465306658" lon="10.700816052804532"><ele>55.0</ele><time>2026-04-18T07:26:28Z</time></trkpt><trkpt lat="43.53680862799515" lon="10.700789278169829"><ele>55.0</ele><time>2026-04-18T07:26:29Z</time></trkpt><trkpt lat="43.53693484157469" lon="10.700761093577032"><ele>55.0</ele><time>2026-04-18T07:26:30Z</time></trkpt><trkpt lat="43.537047562569185" lon="10.700735727394665"><ele>55.0</ele><time>2026-04-18T07:26:31Z</time></trkpt><trkpt lat="43.53714018962548" lon="10.700714395179878"><ele>55.0</ele><time>2026-04-18T07:26:32Z</time></trkpt><trkpt lat="43.537210448707505" lon="10.700700136613511"><ele>55.0</ele><time>2026-04-18T07:26:33Z</time></trkpt><trkpt lat="43.53729859486448" lon="10.70068528363394"><ele>55.4</ele><time>2026-04-18T07:26:35Z</time></trkpt><trkpt lat="43.53737639847287" lon="10.700671945925604"><ele>55.8</ele><time>2026-04-18T07:26:43Z</time></trkpt><trkpt lat="43.53747927477694" lon="10.700655559703453"><ele>56.2</ele><time>2026-04-18T07:26:45Z</time></trkpt><trkpt lat="43.53755482748411" lon="10.700644472651003"><ele>56.6</ele><time>2026-04-18T07:26:46Z</time></trkpt><trkpt lat="43.53764673611581" lon="10.700632368424467"><ele>57.0</ele><time>2026-04-18T07:26:47Z</time></trkpt><trkpt lat="43.53775469963002" lon="10.700615737606459"><ele>57.0</ele><time>2026-04-18T07:26:48Z</time></trkpt><trkpt lat="43.537876951798964" lon="10.70059595227199"><ele>57.0</ele><time>2026-04-18T07:26:49Z</time></trkpt><trkpt lat="43.53800934448693" lon="10.700575637528207"><ele>57.0</ele><time>2026-04-18T07:26:50Z</time></trkpt><trkpt lat="43.53815326943337" lon="10.700554570004334"><ele>57.0</ele><time>2026-04-18T07:26:51Z</time></trkpt><trkpt lat="43.5383052783236" lon="10.700533818746116"><ele>57.0</ele><time>2026-04-18T07:26:52Z</time></trkpt><trkpt lat="43.5384630691658" lon="10.700512549380294"><ele>57.0</ele><time>2026-04-18T07:26:53Z</time></trkpt><trkpt lat="43.5386228797261" lon="10.700492093121943"><ele>57.0</ele><time>2026-04-18T07:26:54Z</time></trkpt><trkpt lat="43.538779732397856" lon="10.700471241523177"><ele>56.66666666666667</ele><time>2026-04-18T07:26:55Z</time></trkpt><trkpt lat="43.538934497212246" lon="10.70045123156569"><ele>56.333333333333336</ele><time>2026-04-18T07:26:56Z</time></trkpt><trkpt lat="43.539086837393725" lon="10.700431011502292"><ele>56.0</ele><time>2026-04-18T07:26:57Z</time></trkpt><trkpt lat="43.53923609727232" lon="10.700411440970123"><ele>56.0</ele><time>2026-04-18T07:26:58Z</time></trkpt><trkpt lat="43.53938383074254" lon="10.700389626941966"><ele>56.0</ele><time>2026-04-18T07:26:59Z</time></trkpt><trkpt lat="43.53952929846915" lon="10.700370600857243"><ele>56.0</ele><time>2026-04-18T07:27:00Z</time></trkpt><trkpt lat="43.53967146347999" lon="10.700352359749942"><ele>56.0</ele><time>2026-04-18T07:27:01Z</time></trkpt><trkpt lat="43.53981096616164" lon="10.700333728654183"><ele>56.25</ele><time>2026-04-18T07:27:02Z</time></trkpt><trkpt lat="43.539948930473976" lon="10.700315218518583"><ele>56.5</ele><time>2026-04-18T07:27:03Z</time></trkpt><trkpt lat="43.54008065252175" lon="10.700297291344324"><ele>56.75</ele><time>2026-04-18T07:27:04Z</time></trkpt><trkpt lat="43.54020070585992" lon="10.700281632715125"><ele>57.0</ele><time>2026-04-18T07:27:05Z</time></trkpt><trkpt lat="43.540307821781695" lon="10.700266442251603"><ele>56.8</ele><time>2026-04-18T07:27:06Z</time></trkpt><trkpt lat="43.540403890223004" lon="10.700251122548869"><ele>56.6</ele><time>2026-04-18T07:27:07Z</time></trkpt><trkpt lat="43.54050107603536" lon="10.700234535789013"><ele>56.39999999999999</ele><time>2026-04-18T07:27:08Z</time></trkpt><trkpt lat="43.540601340804784" lon="10.700216291124006"><ele>56.199999999999996</ele><time>2026-04-18T07:27:09Z</time></trkpt><trkpt lat="43.54070677055586" lon="10.700203731705136"><ele>56.0</ele><time>2026-04-18T07:27:10Z</time></trkpt><trkpt lat="43.54081931636669" lon="10.700190120322459"><ele>56.0</ele><time>2026-04-18T07:27:11Z</time></trkpt><trkpt lat="43.54093568188827" lon="10.700173761798016"><ele>56.0</ele><time>2026-04-18T07:27:12Z</time></trkpt><trkpt lat="43.541052422956525" lon="10.70015769256518"><ele>56.0</ele><time>2026-04-18T07:27:13Z</time></trkpt><trkpt lat="43.5411695721359" lon="10.70013908036289"><ele>56.0</ele><time>2026-04-18T07:27:14Z</time></trkpt><trkpt lat="43.541280672166884" lon="10.700120867124099"><ele>56.00000000000001</ele><time>2026-04-18T07:27:15Z</time></trkpt><trkpt lat="43.54137989676139" lon="10.700105316378194"><ele>56.0</ele><time>2026-04-18T07:27:16Z</time></trkpt><trkpt lat="43.541462542610766" lon="10.700098632350707"><ele>56.0</ele><time>2026-04-18T07:27:17Z</time></trkpt><trkpt lat="43.54153039318633" lon="10.700098929310986"><ele>56.0</ele><time>2026-04-18T07:27:18Z</time></trkpt><trkpt lat="43.541595209558174" lon="10.700119608284096"><ele>56.00000000000001</ele><time>2026-04-18T07:27:19Z</time></trkpt><trkpt lat="43.54165443796446" lon="10.700167307872059"><ele>56.0</ele><time>2026-04-18T07:27:20Z</time></trkpt><trkpt lat="43.5417187315724" lon="10.700200981466262"><ele>56.0</ele><time>2026-04-18T07:27:21Z</time></trkpt><trkpt lat="43.541724767066675" lon="10.700339453137548"><ele>55.99999999999999</ele><time>2026-04-18T07:27:22Z</time></trkpt><trkpt lat="43.54176157607594" lon="10.700563271245747"><ele>55.99999999999999</ele><time>2026-04-18T07:27:24Z</time></trkpt><trkpt lat="43.54177620581103" lon="10.70068354661271"><ele>56.0</ele><time>2026-04-18T07:27:25Z</time></trkpt><trkpt lat="43.54179339199248" lon="10.700809707712857"><ele>56.0</ele><time>2026-04-18T07:27:26Z</time></trkpt><trkpt lat="43.54181314445007" lon="10.700940117511362"><ele>56.0</ele><time>2026-04-18T07:27:27Z</time></trkpt><trkpt lat="43.541833245797065" lon="10.701075797438902"><ele>55.99999999999999</ele><time>2026-04-18T07:27:28.001Z</time></trkpt><trkpt lat="43.54185418961853" lon="10.701219028565356"><ele>55.99999999999999</ele><time>2026-04-18T07:27:29.001Z</time></trkpt><trkpt lat="43.54187456892449" lon="10.701368274008058"><ele>56.0</ele><time>2026-04-18T07:27:30.001Z</time></trkpt><trkpt lat="43.54189495559656" lon="10.701520262730886"><ele>56.0</ele><time>2026-04-18T07:27:31.001Z</time></trkpt><trkpt lat="43.54191489145412" lon="10.701674638322826"><ele>55.5</ele><time>2026-04-18T07:27:32.001Z</time></trkpt><trkpt lat="43.54193627244867" lon="10.701834138242189"><ele>55.0</ele><time>2026-04-18T07:27:33.001Z</time></trkpt><trkpt lat="43.54195671149466" lon="10.701995117157463"><ele>54.5</ele><time>2026-04-18T07:27:34.001Z</time></trkpt><trkpt lat="43.541978160434674" lon="10.702154495701006"><ele>54.0</ele><time>2026-04-18T07:27:35.001Z</time></trkpt><trkpt lat="43.54199983750118" lon="10.702311566376991"><ele>54.0</ele><time>2026-04-18T07:27:36Z</time></trkpt><trkpt lat="43.542022152352615" lon="10.702462589792797"><ele>54.00000000000001</ele><time>2026-04-18T07:27:37Z</time></trkpt><trkpt lat="43.54203962971048" lon="10.70258982154031"><ele>54.00000000000001</ele><time>2026-04-18T07:27:38Z</time></trkpt><trkpt lat="43.542056010798454" lon="10.702722973102324"><ele>54.0</ele><time>2026-04-18T07:27:39Z</time></trkpt><trkpt lat="43.54207435650213" lon="10.702864587262841"><ele>54.0</ele><time>2026-04-18T07:27:40Z</time></trkpt><trkpt lat="43.542093553428835" lon="10.703014652026331"><ele>53.25</ele><time>2026-04-18T07:27:41Z</time></trkpt><trkpt lat="43.54211523279542" lon="10.703172144961234"><ele>52.5</ele><time>2026-04-18T07:27:42Z</time></trkpt><trkpt lat="43.54213794875838" lon="10.70333684529117"><ele>51.75</ele><time>2026-04-18T07:27:43Z</time></trkpt><trkpt lat="43.54216155988305" lon="10.70350912096262"><ele>51.0</ele><time>2026-04-18T07:27:44Z</time></trkpt><trkpt lat="43.542187245856866" lon="10.703686699951893"><ele>51.0</ele><time>2026-04-18T07:27:45Z</time></trkpt><trkpt lat="43.542212738391726" lon="10.70386955684323"><ele>51.0</ele><time>2026-04-18T07:27:46Z</time></trkpt><trkpt lat="43.54223777910639" lon="10.704056737353875"><ele>51.0</ele><time>2026-04-18T07:27:47Z</time></trkpt><trkpt lat="43.54226359236574" lon="10.704250144890027"><ele>51.0</ele><time>2026-04-18T07:27:48Z</time></trkpt><trkpt lat="43.54229008425197" lon="10.704447744178118"><ele>50.33333333333333</ele><time>2026-04-18T07:27:49Z</time></trkpt><trkpt lat="43.542318061938566" lon="10.704649566649744"><ele>49.666666666666664</ele><time>2026-04-18T07:27:50Z</time></trkpt><trkpt lat="43.54234598132314" lon="10.704854242489354"><ele>49.0</ele><time>2026-04-18T07:27:51Z</time></trkpt><trkpt lat="43.542373701526735" lon="10.705060953594232"><ele>49.33333333333333</ele><time>2026-04-18T07:27:52Z</time></trkpt><trkpt lat="43.54240146804526" lon="10.705270468618393"><ele>49.66666666666667</ele><time>2026-04-18T07:27:53Z</time></trkpt><trkpt lat="43.542428815505026" lon="10.70548060858922"><ele>50.0</ele><time>2026-04-18T07:27:54Z</time></trkpt><trkpt lat="43.54245465788397" lon="10.705692573936497"><ele>50.0</ele><time>2026-04-18T07:27:55Z</time></trkpt><trkpt lat="43.54248259862391" lon="10.705906764094589"><ele>50.0</ele><time>2026-04-18T07:27:56Z</time></trkpt><trkpt lat="43.54251137347333" lon="10.706121215520083"><ele>50.0</ele><time>2026-04-18T07:27:57Z</time></trkpt><trkpt lat="43.54254344405367" lon="10.70633781269509"><ele>50.333333333333336</ele><time>2026-04-18T07:27:58Z</time></trkpt><trkpt lat="43.542574909029" lon="10.70655543558012"><ele>50.66666666666667</ele><time>2026-04-18T07:27:59Z</time></trkpt><trkpt lat="43.54260770810602" lon="10.706774604756662"><ele>51.0</ele><time>2026-04-18T07:28:00Z</time></trkpt><trkpt lat="43.54264152692896" lon="10.706997130358927"><ele>50.33333333333333</ele><time>2026-04-18T07:28:01Z</time></trkpt><trkpt lat="43.54267367460385" lon="10.70722432649935"><ele>49.666666666666664</ele><time>2026-04-18T07:28:02Z</time></trkpt><trkpt lat="43.54270460580176" lon="10.707456006873635"><ele>49.0</ele><time>2026-04-18T07:28:03Z</time></trkpt><trkpt lat="43.542736224782345" lon="10.707693132806192"><ele>48.666666666666664</ele><time>2026-04-18T07:28:04Z</time></trkpt><trkpt lat="43.54276724364937" lon="10.707932220338622"><ele>48.33333333333333</ele><time>2026-04-18T07:28:05Z</time></trkpt><trkpt lat="43.54280000716859" lon="10.708174758114117"><ele>48.0</ele><time>2026-04-18T07:28:06Z</time></trkpt><trkpt lat="43.5428331145411" lon="10.708422163757787"><ele>48.33333333333333</ele><time>2026-04-18T07:28:07Z</time></trkpt><trkpt lat="43.54286486900193" lon="10.708672356029055"><ele>48.666666666666664</ele><time>2026-04-18T07:28:08Z</time></trkpt><trkpt lat="43.54289669239362" lon="10.708924561533257"><ele>49.0</ele><time>2026-04-18T07:28:09Z</time></trkpt><trkpt lat="43.5429301021933" lon="10.709177158701054"><ele>48.666666666666664</ele><time>2026-04-18T07:28:10Z</time></trkpt><trkpt lat="43.54296246142976" lon="10.709428421286928"><ele>48.33333333333333</ele><time>2026-04-18T07:28:11Z</time></trkpt><trkpt lat="43.54299534678657" lon="10.709675516037272"><ele>48.0</ele><time>2026-04-18T07:28:12Z</time></trkpt><trkpt lat="43.54302651359517" lon="10.709919440307091"><ele>48.0</ele><time>2026-04-18T07:28:13Z</time></trkpt><trkpt lat="43.54305768061641" lon="10.710159902205456"><ele>48.0</ele><time>2026-04-18T07:28:14Z</time></trkpt><trkpt lat="43.543089338350676" lon="10.710397761187423"><ele>48.0</ele><time>2026-04-18T07:28:15Z</time></trkpt><trkpt lat="43.543118502298384" lon="10.710630234849095"><ele>47.0</ele><time>2026-04-18T07:28:16Z</time></trkpt><trkpt lat="43.543154446341724" lon="10.710862207538923"><ele>46.0</ele><time>2026-04-18T07:28:17Z</time></trkpt><trkpt lat="43.543187246445925" lon="10.711090434566552"><ele>45.0</ele><time>2026-04-18T07:28:18Z</time></trkpt><trkpt lat="43.54321796625878" lon="10.711319266556483"><ele>44.333333333333336</ele><time>2026-04-18T07:28:19Z</time></trkpt><trkpt lat="43.54324881884159" lon="10.711545360193362"><ele>43.66666666666667</ele><time>2026-04-18T07:28:20Z</time></trkpt><trkpt lat="43.543279208006695" lon="10.711767116712801"><ele>43.0</ele><time>2026-04-18T07:28:21Z</time></trkpt><trkpt lat="43.54330868597119" lon="10.711983546505401"><ele>43.0</ele><time>2026-04-18T07:28:22Z</time></trkpt><trkpt lat="43.54333657352729" lon="10.712194670751781"><ele>43.0</ele><time>2026-04-18T07:28:23Z</time></trkpt><trkpt lat="43.54336271622581" lon="10.712399815587638"><ele>43.0</ele><time>2026-04-18T07:28:24Z</time></trkpt><trkpt lat="43.54338956008405" lon="10.712600071787161"><ele>42.75</ele><time>2026-04-18T07:28:25Z</time></trkpt><trkpt lat="43.543416580745394" lon="10.712793511438749"><ele>42.5</ele><time>2026-04-18T07:28:26Z</time></trkpt><trkpt lat="43.54344215954402" lon="10.71297958918862"><ele>42.25</ele><time>2026-04-18T07:28:27Z</time></trkpt><trkpt lat="43.54346735625068" lon="10.71316283603523"><ele>42.0</ele><time>2026-04-18T07:28:28Z</time></trkpt><trkpt lat="43.54348943520504" lon="10.713342155232965"><ele>42.0</ele><time>2026-04-18T07:28:29Z</time></trkpt><trkpt lat="43.54351537212675" lon="10.713521279678535"><ele>42.0</ele><time>2026-04-18T07:28:30Z</time></trkpt><trkpt lat="43.543538845734716" lon="10.713701987581802"><ele>42.0</ele><time>2026-04-18T07:28:31Z</time></trkpt><trkpt lat="43.5435617384561" lon="10.713885267768744"><ele>42.0</ele><time>2026-04-18T07:28:32Z</time></trkpt><trkpt lat="43.54358656997376" lon="10.714072868617855"><ele>41.75</ele><time>2026-04-18T07:28:33Z</time></trkpt><trkpt lat="43.543610767249945" lon="10.714260364894297"><ele>41.5</ele><time>2026-04-18T07:28:34Z</time></trkpt><trkpt lat="43.543636521071846" lon="10.714436854715814"><ele>41.25</ele><time>2026-04-18T07:28:35Z</time></trkpt><trkpt lat="43.54366616687884" lon="10.714584071938482"><ele>41.0</ele><time>2026-04-18T07:28:36Z</time></trkpt><trkpt lat="43.5437198200275" lon="10.71481930138397"><ele>41.83333333333333</ele><time>2026-04-18T07:28:38Z</time></trkpt><trkpt lat="43.54373943303434" lon="10.714910784995588"><ele>42.666666666666664</ele><time>2026-04-18T07:28:39Z</time></trkpt><trkpt lat="43.543764168400685" lon="10.715035273201977"><ele>43.5</ele><time>2026-04-18T07:28:41Z</time></trkpt><trkpt lat="43.543767600901184" lon="10.715128101206256"><ele>44.333333333333336</ele><time>2026-04-18T07:28:43Z</time></trkpt><trkpt lat="43.5436997406899" lon="10.7151705114448"><ele>45.16666666666667</ele><time>2026-04-18T07:28:46Z</time></trkpt><trkpt lat="43.54365321571683" lon="10.715094526443325"><ele>46.0</ele><time>2026-04-18T07:28:48Z</time></trkpt><trkpt lat="43.543630257857465" lon="10.714939300791105"><ele>46.0</ele><time>2026-04-18T07:28:50Z</time></trkpt><trkpt lat="43.54360086973971" lon="10.714846275706988"><ele>46.0</ele><time>2026-04-18T07:28:51Z</time></trkpt><trkpt lat="43.54358847649091" lon="10.714732370486612"><ele>46.0</ele><time>2026-04-18T07:28:52Z</time></trkpt><trkpt lat="43.543555284502126" lon="10.714617066869948"><ele>46.0</ele><time>2026-04-18T07:28:53Z</time></trkpt><trkpt lat="43.54351777582295" lon="10.71449711619478"><ele>46.0</ele><time>2026-04-18T07:28:54Z</time></trkpt><trkpt lat="43.54346666254107" lon="10.714392503091656"><ele>46.0</ele><time>2026-04-18T07:28:55Z</time></trkpt><trkpt lat="43.54342913442759" lon="10.714299238868584"><ele>45.16666666666667</ele><time>2026-04-18T07:28:56Z</time></trkpt><trkpt lat="43.54339262445601" lon="10.714196512176763"><ele>44.333333333333336</ele><time>2026-04-18T07:28:57Z</time></trkpt><trkpt lat="43.54332845297699" lon="10.714119693845175"><ele>43.5</ele><time>2026-04-18T07:28:58Z</time></trkpt><trkpt lat="43.54325231906573" lon="10.714063538941803"><ele>42.666666666666664</ele><time>2026-04-18T07:28:59Z</time></trkpt><trkpt lat="43.543163301748976" lon="10.714036165875957"><ele>41.83333333333333</ele><time>2026-04-18T07:29:00Z</time></trkpt><trkpt lat="43.54308044207771" lon="10.714022456082004"><ele>41.0</ele><time>2026-04-18T07:29:01Z</time></trkpt><trkpt lat="43.54300658560236" lon="10.71402110965154"><ele>41.0</ele><time>2026-04-18T07:29:02Z</time></trkpt><trkpt lat="43.54288454429619" lon="10.71402339373211"><ele>41.0</ele><time>2026-04-18T07:29:04Z</time></trkpt><trkpt lat="43.542820933397394" lon="10.714026153497748"><ele>41.0</ele><time>2026-04-18T07:29:05Z</time></trkpt><trkpt lat="43.54275112954712" lon="10.714029181945785"><ele>41.0</ele><time>2026-04-18T07:29:06Z</time></trkpt><trkpt lat="43.5426783871867" lon="10.714033574619997"><ele>41.0</ele><time>2026-04-18T07:29:07Z</time></trkpt><trkpt lat="43.5426019723988" lon="10.714039155736803"><ele>41.0</ele><time>2026-04-18T07:29:08Z</time></trkpt><trkpt lat="43.54251921838693" lon="10.714045963721997"><ele>41.0</ele><time>2026-04-18T07:29:09Z</time></trkpt><trkpt lat="43.54243221801881" lon="10.714074240524841"><ele>41.0</ele><time>2026-04-18T07:29:10Z</time></trkpt><trkpt lat="43.54234289883148" lon="10.71408127836193"><ele>41.0</ele><time>2026-04-18T07:29:11Z</time></trkpt><trkpt lat="43.5422535656145" lon="10.71409300439743"><ele>41.0</ele><time>2026-04-18T07:29:12Z</time></trkpt><trkpt lat="43.54216227976129" lon="10.714109406636025"><ele>41.0</ele><time>2026-04-18T07:29:13Z</time></trkpt><trkpt lat="43.542068288538886" lon="10.71412917020175"><ele>40.8</ele><time>2026-04-18T07:29:14Z</time></trkpt><trkpt lat="43.54197522773635" lon="10.714127583287121"><ele>40.599999999999994</ele><time>2026-04-18T07:29:15Z</time></trkpt><trkpt lat="43.54189357861367" lon="10.714166605004626"><ele>40.4</ele><time>2026-04-18T07:29:16Z</time></trkpt><trkpt lat="43.54180349524308" lon="10.714184978209026"><ele>40.2</ele><time>2026-04-18T07:29:17Z</time></trkpt><trkpt lat="43.54171613513779" lon="10.714209398430265"><ele>40.0</ele><time>2026-04-18T07:29:18Z</time></trkpt><trkpt lat="43.5416283034233" lon="10.71423833507479"><ele>40.0</ele><time>2026-04-18T07:29:19Z</time></trkpt><trkpt lat="43.54155684999701" lon="10.71431754030286"><ele>40.0</ele><time>2026-04-18T07:29:20Z</time></trkpt><trkpt lat="43.54145221901726" lon="10.714321657291707"><ele>40.0</ele><time>2026-04-18T07:29:21Z</time></trkpt><trkpt lat="43.541362175901554" lon="10.714355972165219"><ele>40.0</ele><time>2026-04-18T07:29:22Z</time></trkpt><trkpt lat="43.54127154396002" lon="10.714390812499929"><ele>40.0</ele><time>2026-04-18T07:29:23Z</time></trkpt><trkpt lat="43.54118362952288" lon="10.714423647497979"><ele>41.2</ele><time>2026-04-18T07:29:24Z</time></trkpt><trkpt lat="43.54109222019979" lon="10.714456046481802"><ele>42.4</ele><time>2026-04-18T07:29:25Z</time></trkpt><trkpt lat="43.54099723211962" lon="10.714483430976554"><ele>43.599999999999994</ele><time>2026-04-18T07:29:26Z</time></trkpt><trkpt lat="43.54090060942037" lon="10.714497216761435"><ele>44.8</ele><time>2026-04-18T07:29:27Z</time></trkpt><trkpt lat="43.54080675280826" lon="10.714503431672217"><ele>46.0</ele><time>2026-04-18T07:29:28Z</time></trkpt><trkpt lat="43.54071508796808" lon="10.714509062128627"><ele>46.0</ele><time>2026-04-18T07:29:29Z</time></trkpt><trkpt lat="43.540625957465004" lon="10.714509309193275"><ele>46.0</ele><time>2026-04-18T07:29:30Z</time></trkpt><trkpt lat="43.54054142309951" lon="10.71453504177056"><ele>46.0</ele><time>2026-04-18T07:29:31Z</time></trkpt><trkpt lat="43.540457410384526" lon="10.71451771491882"><ele>46.0</ele><time>2026-04-18T07:29:32Z</time></trkpt><trkpt lat="43.54037601052184" lon="10.714522731217421"><ele>46.0</ele><time>2026-04-18T07:29:33Z</time></trkpt><trkpt lat="43.54029901824193" lon="10.714522683134664"><ele>46.0</ele><time>2026-04-18T07:29:34Z</time></trkpt><trkpt lat="43.54022505339262" lon="10.71451707935718"><ele>47.0</ele><time>2026-04-18T07:29:35Z</time></trkpt><trkpt lat="43.54015501115678" lon="10.7145060602737"><ele>48.0</ele><time>2026-04-18T07:29:36Z</time></trkpt><trkpt lat="43.54008922587539" lon="10.714494811078687"><ele>49.0</ele><time>2026-04-18T07:29:37Z</time></trkpt><trkpt lat="43.53999086625172" lon="10.714477042500201"><ele>50.0</ele><time>2026-04-18T07:29:39Z</time></trkpt><trkpt lat="43.53992714890646" lon="10.714461839965349"><ele>50.99999999999999</ele><time>2026-04-18T07:29:41Z</time></trkpt><trkpt lat="43.5398532207946" lon="10.71446634892916"><ele>52.0</ele><time>2026-04-18T07:29:43Z</time></trkpt><trkpt lat="43.53977503035704" lon="10.714445409288775"><ele>52.0</ele><time>2026-04-18T07:29:45Z</time></trkpt><trkpt lat="43.53967442028108" lon="10.71442742261936"><ele>52.0</ele><time>2026-04-18T07:29:47Z</time></trkpt><trkpt lat="43.53956270399035" lon="10.714470187749352"><ele>52.0</ele><time>2026-04-18T07:29:49Z</time></trkpt><trkpt lat="43.539464929371235" lon="10.714561446372219"><ele>52.0</ele><time>2026-04-18T07:29:51Z</time></trkpt><trkpt lat="43.53942192678742" lon="10.71463122520153"><ele>52.0</ele><time>2026-04-18T07:29:52Z</time></trkpt><trkpt lat="43.53938178608963" lon="10.714699580902503"><ele>51.83333333333333</ele><time>2026-04-18T07:29:53Z</time></trkpt><trkpt lat="43.539342202925965" lon="10.714773755744657"><ele>51.666666666666664</ele><time>2026-04-18T07:29:54Z</time></trkpt><trkpt lat="43.539305694342325" lon="10.714845428883082"><ele>51.5</ele><time>2026-04-18T07:29:55Z</time></trkpt><trkpt lat="43.53922769587527" lon="10.714935983612833"><ele>51.33333333333333</ele><time>2026-04-18T07:29:57Z</time></trkpt><trkpt lat="43.53915003643072" lon="10.714928384781047"><ele>51.166666666666664</ele><time>2026-04-18T07:29:59Z</time></trkpt><trkpt lat="43.5391238486568" lon="10.714829323440348"><ele>51.0</ele><time>2026-04-18T07:30:01Z</time></trkpt><trkpt lat="43.53909971231177" lon="10.714730999254328"><ele>51.0</ele><time>2026-04-18T07:30:03Z</time></trkpt><trkpt lat="43.53906371657271" lon="10.714615642013852"><ele>51.0</ele><time>2026-04-18T07:30:05Z</time></trkpt><trkpt lat="43.53901672384059" lon="10.7144696331414"><ele>51.0</ele><time>2026-04-18T07:30:07Z</time></trkpt><trkpt lat="43.538974804058945" lon="10.714396419851873"><ele>51.0</ele><time>2026-04-18T07:30:08Z</time></trkpt><trkpt lat="43.53892407029889" lon="10.714328737199276"><ele>51.0</ele><time>2026-04-18T07:30:09Z</time></trkpt><trkpt lat="43.538883254959835" lon="10.714244183715426"><ele>51.0</ele><time>2026-04-18T07:30:10Z</time></trkpt><trkpt lat="43.538825745698695" lon="10.71418309381678"><ele>49.666666666666664</ele><time>2026-04-18T07:30:11Z</time></trkpt><trkpt lat="43.53875323990648" lon="10.714119163051617"><ele>48.333333333333336</ele><time>2026-04-18T07:30:13Z</time></trkpt><trkpt lat="43.5386742920076" lon="10.714050528142746"><ele>47.0</ele><time>2026-04-18T07:30:16Z</time></trkpt><trkpt lat="43.538611601843996" lon="10.713988157876484"><ele>45.66666666666667</ele><time>2026-04-18T07:30:18Z</time></trkpt><trkpt lat="43.53853998605661" lon="10.713906227019091"><ele>44.333333333333336</ele><time>2026-04-18T07:30:20Z</time></trkpt><trkpt lat="43.538471530595615" lon="10.713822477328911"><ele>43.0</ele><time>2026-04-18T07:30:22Z</time></trkpt><trkpt lat="43.538414742933725" lon="10.713751582131803"><ele>43.0</ele><time>2026-04-18T07:30:24Z</time></trkpt><trkpt lat="43.53835817328879" lon="10.713677481912196"><ele>43.0</ele><time>2026-04-18T07:30:27Z</time></trkpt><trkpt lat="43.53831235900415" lon="10.713597237032982"><ele>43.0</ele><time>2026-04-18T07:30:30Z</time></trkpt><trkpt lat="43.538292207186615" lon="10.713511119829848"><ele>43.0</ele><time>2026-04-18T07:30:33Z</time></trkpt><trkpt lat="43.53830937524315" lon="10.713386752083746"><ele>43.0</ele><time>2026-04-18T07:30:36Z</time></trkpt><trkpt lat="43.53833462922426" lon="10.713292622753475"><ele>43.0</ele><time>2026-04-18T07:30:38Z</time></trkpt><trkpt lat="43.538321978093755" lon="10.71317829088276"><ele>42.8</ele><time>2026-04-18T07:30:40Z</time></trkpt><trkpt lat="43.53822391583415" lon="10.713139811184847"><ele>42.599999999999994</ele><time>2026-04-18T07:30:42Z</time></trkpt><trkpt lat="43.53816204419162" lon="10.71306506447753"><ele>42.400000000000006</ele><time>2026-04-18T07:30:44Z</time></trkpt><trkpt lat="43.538089583301655" lon="10.713005214637027"><ele>42.2</ele><time>2026-04-18T07:30:46Z</time></trkpt><trkpt lat="43.53799277907125" lon="10.712938211380159"><ele>42.0</ele><time>2026-04-18T07:30:48Z</time></trkpt><trkpt lat="43.53791634340381" lon="10.712799641006612"><ele>42.0</ele><time>2026-04-18T07:30:50Z</time></trkpt><trkpt lat="43.537857490536226" lon="10.712758068964446"><ele>42.0</ele><time>2026-04-18T07:30:51Z</time></trkpt><trkpt lat="43.537805368307026" lon="10.71269869474505"><ele>42.0</ele><time>2026-04-18T07:30:52Z</time></trkpt><trkpt lat="43.537745458621195" lon="10.71264478018849"><ele>42.0</ele><time>2026-04-18T07:30:53Z</time></trkpt><trkpt lat="43.537683290051746" lon="10.71259575000895"><ele>42.0</ele><time>2026-04-18T07:30:54Z</time></trkpt><trkpt lat="43.53763139072821" lon="10.71252499136181"><ele>42.0</ele><time>2026-04-18T07:30:55Z</time></trkpt><trkpt lat="43.53757000264845" lon="10.712463205719091"><ele>42.0</ele><time>2026-04-18T07:30:56Z</time></trkpt><trkpt lat="43.53750910296813" lon="10.71240191164626"><ele>42.0</ele><time>2026-04-18T07:30:57Z</time></trkpt><trkpt lat="43.53743794831187" lon="10.712355686247118"><ele>42.0</ele><time>2026-04-18T07:30:58Z</time></trkpt><trkpt lat="43.537384284006166" lon="10.71227711324267"><ele>42.0</ele><time>2026-04-18T07:30:59Z</time></trkpt><trkpt lat="43.537320106741895" lon="10.712213689655178"><ele>42.0</ele><time>2026-04-18T07:31:00Z</time></trkpt><trkpt lat="43.53725214581056" lon="10.712146526852257"><ele>42.0</ele><time>2026-04-18T07:31:01Z</time></trkpt><trkpt lat="43.53718120535435" lon="10.712096276120722"><ele>42.0</ele><time>2026-04-18T07:31:02Z</time></trkpt><trkpt lat="43.53711695388295" lon="10.712038910544845"><ele>42.0</ele><time>2026-04-18T07:31:03Z</time></trkpt><trkpt lat="43.53705648400838" lon="10.711984143022137"><ele>42.0</ele><time>2026-04-18T07:31:04Z</time></trkpt><trkpt lat="43.536997579244016" lon="10.711930735363964"><ele>42.0</ele><time>2026-04-18T07:31:05Z</time></trkpt><trkpt lat="43.53694207818936" lon="10.71187708478755"><ele>42.0</ele><time>2026-04-18T07:31:06Z</time></trkpt><trkpt lat="43.536871632301775" lon="10.711849504768866"><ele>42.0</ele><time>2026-04-18T07:31:07Z</time></trkpt><trkpt lat="43.53680170134063" lon="10.711823393698086"><ele>42.0</ele><time>2026-04-18T07:31:08Z</time></trkpt><trkpt lat="43.53672901293193" lon="10.711801877633125"><ele>42.0</ele><time>2026-04-18T07:31:09Z</time></trkpt><trkpt lat="43.53665673661492" lon="10.711794680086433"><ele>42.0</ele><time>2026-04-18T07:31:10Z</time></trkpt><trkpt lat="43.536581993079984" lon="10.711778620544576"><ele>42.0</ele><time>2026-04-18T07:31:11Z</time></trkpt><trkpt lat="43.5365093802827" lon="10.711767840836782"><ele>42.0</ele><time>2026-04-18T07:31:12Z</time></trkpt><trkpt lat="43.5364410288923" lon="10.711758246305932"><ele>42.0</ele><time>2026-04-18T07:31:13Z</time></trkpt><trkpt lat="43.53637771996892" lon="10.711730377734076"><ele>42.0</ele><time>2026-04-18T07:31:14Z</time></trkpt><trkpt lat="43.536308767046144" lon="10.711740977772946"><ele>42.0</ele><time>2026-04-18T07:31:15Z</time></trkpt><trkpt lat="43.536243526227985" lon="10.711732043683599"><ele>42.0</ele><time>2026-04-18T07:31:16Z</time></trkpt><trkpt lat="43.536178828817306" lon="10.711718468937049"><ele>41.857142857142854</ele><time>2026-04-18T07:31:17Z</time></trkpt><trkpt lat="43.5361131333154" lon="10.711712427037622"><ele>41.714285714285715</ele><time>2026-04-18T07:31:18Z</time></trkpt><trkpt lat="43.53604635867862" lon="10.71170422515705"><ele>41.57142857142857</ele><time>2026-04-18T07:31:19Z</time></trkpt><trkpt lat="43.535978770984435" lon="10.711694400648412"><ele>41.42857142857143</ele><time>2026-04-18T07:31:20Z</time></trkpt><trkpt lat="43.53590981790654" lon="10.711685527125006"><ele>41.285714285714285</ele><time>2026-04-18T07:31:21Z</time></trkpt><trkpt lat="43.53584803776951" lon="10.71164884517037"><ele>41.14285714285714</ele><time>2026-04-18T07:31:22Z</time></trkpt><trkpt lat="43.535785622126525" lon="10.711629343916716"><ele>41.0</ele><time>2026-04-18T07:31:23Z</time></trkpt><trkpt lat="43.53572438318607" lon="10.711606986587407"><ele>41.0</ele><time>2026-04-18T07:31:24Z</time></trkpt><trkpt lat="43.53560953605691" lon="10.711554987719262"><ele>41.0</ele><time>2026-04-18T07:31:26Z</time></trkpt><trkpt lat="43.535491648018926" lon="10.711516894214405"><ele>41.0</ele><time>2026-04-18T07:31:28Z</time></trkpt><trkpt lat="43.53538028914762" lon="10.711465317759558"><ele>41.0</ele><time>2026-04-18T07:31:30Z</time></trkpt><trkpt lat="43.53526787837788" lon="10.711415813310136"><ele>41.199999999999996</ele><time>2026-04-18T07:31:32Z</time></trkpt><trkpt lat="43.535153794034535" lon="10.711360676831804"><ele>41.4</ele><time>2026-04-18T07:31:34Z</time></trkpt><trkpt lat="43.53504781156667" lon="10.711307659918695"><ele>41.6</ele><time>2026-04-18T07:31:36Z</time></trkpt><trkpt lat="43.53495491311404" lon="10.711235883865516"><ele>41.8</ele><time>2026-04-18T07:31:38Z</time></trkpt><trkpt lat="43.53485968769844" lon="10.711185589255853"><ele>42.0</ele><time>2026-04-18T07:31:39.999Z</time></trkpt><trkpt lat="43.53475517337765" lon="10.711127585841304"><ele>42.0</ele><time>2026-04-18T07:31:41.999Z</time></trkpt><trkpt lat="43.53464395938244" lon="10.711065475413669"><ele>42.0</ele><time>2026-04-18T07:31:43.999Z</time></trkpt><trkpt lat="43.5345532530919" lon="10.711014641247544"><ele>42.0</ele><time>2026-04-18T07:31:45.999Z</time></trkpt><trkpt lat="43.534492277083814" lon="10.71098046871187"><ele>42.0</ele><time>2026-04-18T07:31:47.999Z</time></trkpt><trkpt lat="43.53442103225133" lon="10.710935073516518"><ele>42.0</ele><time>2026-04-18T07:31:49.999Z</time></trkpt><trkpt lat="43.53433247475301" lon="10.7108912721883"><ele>42.0</ele><time>2026-04-18T07:31:51.999Z</time></trkpt><trkpt lat="43.53423584443613" lon="10.710929916600756"><ele>42.0</ele><time>2026-04-18T07:31:53.999Z</time></trkpt><trkpt lat="43.53419071316975" lon="10.711082281408743"><ele>42.0</ele><time>2026-04-18T07:31:55.999Z</time></trkpt><trkpt lat="43.534154213757624" lon="10.711241196721225"><ele>42.0</ele><time>2026-04-18T07:31:57.999Z</time></trkpt><trkpt lat="43.53411678624369" lon="10.711400823712685"><ele>41.833333333333336</ele><time>2026-04-18T07:31:59.999Z</time></trkpt><trkpt lat="43.534090228499274" lon="10.711485239627915"><ele>41.666666666666664</ele><time>2026-04-18T07:32:00.999Z</time></trkpt><trkpt lat="43.53406450619591" lon="10.711570937919687"><ele>41.5</ele><time>2026-04-18T07:32:01.999Z</time></trkpt><trkpt lat="43.534017289901016" lon="10.711637423178395"><ele>41.33333333333333</ele><time>2026-04-18T07:32:02.999Z</time></trkpt><trkpt lat="43.533971526563576" lon="10.711766224194056"><ele>41.166666666666664</ele><time>2026-04-18T07:32:04.999Z</time></trkpt><trkpt lat="43.53391640805756" lon="10.711849450673808"><ele>41.0</ele><time>2026-04-18T07:32:07.999Z</time></trkpt><trkpt lat="43.53386445499131" lon="10.711952692789923"><ele>41.0</ele><time>2026-04-18T07:32:09.999Z</time></trkpt><trkpt lat="43.533831300754194" lon="10.712103916379487"><ele>41.0</ele><time>2026-04-18T07:32:11.999Z</time></trkpt><trkpt lat="43.53376851900067" lon="10.71214883257546"><ele>41.0</ele><time>2026-04-18T07:32:12.999Z</time></trkpt><trkpt lat="43.533367832079264" lon="10.711949387328401"><ele>41.8</ele><time>2026-04-18T07:32:13.999Z</time></trkpt><trkpt lat="43.533280677254965" lon="10.711986863978096"><ele>42.599999999999994</ele><time>2026-04-18T07:32:14.999Z</time></trkpt><trkpt lat="43.53318804194174" lon="10.712022614858359"><ele>43.4</ele><time>2026-04-18T07:32:15.999Z</time></trkpt><trkpt lat="43.53309416340401" lon="10.712060189210106"><ele>44.2</ele><time>2026-04-18T07:32:16.999Z</time></trkpt><trkpt lat="43.533003032467896" lon="10.712092866647703"><ele>45.0</ele><time>2026-04-18T07:32:17.999Z</time></trkpt><trkpt lat="43.53291273322528" lon="10.712128721078013"><ele>44.8</ele><time>2026-04-18T07:32:18.999Z</time></trkpt><trkpt lat="43.532820821062415" lon="10.712163826348025"><ele>44.6</ele><time>2026-04-18T07:32:19.999Z</time></trkpt><trkpt lat="43.53272871683597" lon="10.712198981125105"><ele>44.400000000000006</ele><time>2026-04-18T07:32:20.999Z</time></trkpt><trkpt lat="43.53263447259805" lon="10.712232882151678"><ele>44.2</ele><time>2026-04-18T07:32:21.999Z</time></trkpt><trkpt lat="43.53253974517496" lon="10.712271706724454"><ele>44.0</ele><time>2026-04-18T07:32:22.999Z</time></trkpt><trkpt lat="43.532448622935625" lon="10.712305541395088"><ele>44.0</ele><time>2026-04-18T07:32:23.999Z</time></trkpt><trkpt lat="43.53235703863983" lon="10.7123428398621"><ele>44.0</ele><time>2026-04-18T07:32:24.999Z</time></trkpt><trkpt lat="43.532260595842104" lon="10.712382254469736"><ele>44.0</ele><time>2026-04-18T07:32:25.999Z</time></trkpt><trkpt lat="43.53216296725724" lon="10.712421883279058"><ele>44.0</ele><time>2026-04-18T07:32:26.999Z</time></trkpt><trkpt lat="43.53206316905793" lon="10.712463796086073"><ele>44.0</ele><time>2026-04-18T07:32:27.999Z</time></trkpt><trkpt lat="43.531961889836595" lon="10.712504911593609"><ele>43.6</ele><time>2026-04-18T07:32:28.999Z</time></trkpt><trkpt lat="43.53185788251815" lon="10.712546474644995"><ele>43.2</ele><time>2026-04-18T07:32:29.999Z</time></trkpt><trkpt lat="43.53175319337903" lon="10.712587459390361"><ele>42.800000000000004</ele><time>2026-04-18T07:32:30.999Z</time></trkpt><trkpt lat="43.53164797386969" lon="10.712632910431141"><ele>42.400000000000006</ele><time>2026-04-18T07:32:31.999Z</time></trkpt><trkpt lat="43.53154296073589" lon="10.712679404075756"><ele>42.0</ele><time>2026-04-18T07:32:32.999Z</time></trkpt><trkpt lat="43.53144237932948" lon="10.712722357444658"><ele>42.166666666666664</ele><time>2026-04-18T07:32:33.999Z</time></trkpt><trkpt lat="43.53134802678263" lon="10.71275633453113"><ele>42.333333333333336</ele><time>2026-04-18T07:32:34.999Z</time></trkpt><trkpt lat="43.53125901776364" lon="10.71278819399164"><ele>42.5</ele><time>2026-04-18T07:32:35.999Z</time></trkpt><trkpt lat="43.53119250107446" lon="10.712817340733398"><ele>42.66666666666667</ele><time>2026-04-18T07:32:36.999Z</time></trkpt><trkpt lat="43.5311290159876" lon="10.712837807635864"><ele>42.833333333333336</ele><time>2026-04-18T07:32:37.999Z</time></trkpt><trkpt lat="43.53105898715381" lon="10.712874223591433"><ele>43.0</ele><time>2026-04-18T07:32:38.999Z</time></trkpt><trkpt lat="43.530981812257075" lon="10.712907439143038"><ele>43.0</ele><time>2026-04-18T07:32:39.999Z</time></trkpt><trkpt lat="43.530897760457364" lon="10.712943648491185"><ele>43.0</ele><time>2026-04-18T07:32:40.999Z</time></trkpt><trkpt lat="43.530816104098406" lon="10.712977965570369"><ele>43.0</ele><time>2026-04-18T07:32:41.999Z</time></trkpt><trkpt lat="43.530737983211104" lon="10.713015572744018"><ele>43.0</ele><time>2026-04-18T07:32:42.999Z</time></trkpt><trkpt lat="43.53066055187179" lon="10.713046835847368"><ele>43.0</ele><time>2026-04-18T07:32:43.999Z</time></trkpt><trkpt lat="43.53058625556688" lon="10.713084431806761"><ele>43.0</ele><time>2026-04-18T07:32:44.999Z</time></trkpt><trkpt lat="43.5305120763294" lon="10.713108916516813"><ele>43.00000000000001</ele><time>2026-04-18T07:32:45.999Z</time></trkpt><trkpt lat="43.530442722661626" lon="10.713132957412007"><ele>43.0</ele><time>2026-04-18T07:32:46.999Z</time></trkpt><trkpt lat="43.53037597753549" lon="10.713160378218936"><ele>43.0</ele><time>2026-04-18T07:32:47.999Z</time></trkpt><trkpt lat="43.530308801960146" lon="10.71318729006811"><ele>43.0</ele><time>2026-04-18T07:32:48.999Z</time></trkpt><trkpt lat="43.53023716632923" lon="10.71321738362207"><ele>43.0</ele><time>2026-04-18T07:32:49.999Z</time></trkpt><trkpt lat="43.530164708832665" lon="10.713245912834767"><ele>43.00000000000001</ele><time>2026-04-18T07:32:50.999Z</time></trkpt><trkpt lat="43.53008888724402" lon="10.713277402399715"><ele>43.0</ele><time>2026-04-18T07:32:51.999Z</time></trkpt><trkpt lat="43.53000864375418" lon="10.713294757759538"><ele>43.16666666666667</ele><time>2026-04-18T07:32:52.999Z</time></trkpt><trkpt lat="43.52992741155786" lon="10.713326103113221"><ele>43.333333333333336</ele><time>2026-04-18T07:32:53.999Z</time></trkpt><trkpt lat="43.52984619077902" lon="10.713357885243331"><ele>43.5</ele><time>2026-04-18T07:32:54.999Z</time></trkpt><trkpt lat="43.529770828125365" lon="10.713388845321498"><ele>43.666666666666664</ele><time>2026-04-18T07:32:55.999Z</time></trkpt><trkpt lat="43.52970006610138" lon="10.713415078183978"><ele>43.83333333333333</ele><time>2026-04-18T07:32:56.999Z</time></trkpt><trkpt lat="43.52963377614652" lon="10.713438894114084"><ele>44.0</ele><time>2026-04-18T07:32:57.999Z</time></trkpt><trkpt lat="43.529534830062545" lon="10.713477603635114"><ele>44.166666666666664</ele><time>2026-04-18T07:32:59.999Z</time></trkpt><trkpt lat="43.52942915839412" lon="10.713519911983159"><ele>44.33333333333333</ele><time>2026-04-18T07:33:01.999Z</time></trkpt><trkpt lat="43.5293643464828" lon="10.713544577304319"><ele>44.5</ele><time>2026-04-18T07:33:02.999Z</time></trkpt><trkpt lat="43.52929989467101" lon="10.71357210370352"><ele>44.666666666666664</ele><time>2026-04-18T07:33:03.999Z</time></trkpt><trkpt lat="43.529232528520204" lon="10.713597000511726"><ele>44.833333333333336</ele><time>2026-04-18T07:33:04.999Z</time></trkpt><trkpt lat="43.5291695471158" lon="10.713621047723842"><ele>45.0</ele><time>2026-04-18T07:33:05.999Z</time></trkpt><trkpt lat="43.529051787973195" lon="10.71366905720604"><ele>45.0</ele><time>2026-04-18T07:33:07.999Z</time></trkpt><trkpt lat="43.52898646902898" lon="10.713695860403757"><ele>45.0</ele><time>2026-04-18T07:33:08.999Z</time></trkpt><trkpt lat="43.528916413904284" lon="10.713724384354377"><ele>45.0</ele><time>2026-04-18T07:33:09.999Z</time></trkpt><trkpt lat="43.52884290839619" lon="10.713755949627833"><ele>45.0</ele><time>2026-04-18T07:33:10.999Z</time></trkpt><trkpt lat="43.528765589055176" lon="10.713788942046724"><ele>45.0</ele><time>2026-04-18T07:33:11.999Z</time></trkpt><trkpt lat="43.528688117060504" lon="10.71382296616388"><ele>45.0</ele><time>2026-04-18T07:33:12.999Z</time></trkpt><trkpt lat="43.52860813282412" lon="10.713856278284569"><ele>45.0</ele><time>2026-04-18T07:33:13.999Z</time></trkpt><trkpt lat="43.528526067000776" lon="10.713887496801068"><ele>45.0</ele><time>2026-04-18T07:33:14.999Z</time></trkpt><trkpt lat="43.52844698185472" lon="10.713918011830593"><ele>45.0</ele><time>2026-04-18T07:33:15.999Z</time></trkpt><trkpt lat="43.52837620585404" lon="10.713944225376276"><ele>45.0</ele><time>2026-04-18T07:33:16.999Z</time></trkpt><trkpt lat="43.528268395243884" lon="10.713984516714342"><ele>45.0</ele><time>2026-04-18T07:33:18.999Z</time></trkpt><trkpt lat="43.52820542561116" lon="10.714010353142365"><ele>45.0</ele><time>2026-04-18T07:33:20.999Z</time></trkpt><trkpt lat="43.528142069846695" lon="10.714030543491518"><ele>45.0</ele><time>2026-04-18T07:33:35.999Z</time></trkpt><trkpt lat="43.52805946077586" lon="10.714068066636434"><ele>45.0</ele><time>2026-04-18T07:33:39.999Z</time></trkpt><trkpt lat="43.527995859737466" lon="10.714101454645126"><ele>45.0</ele><time>2026-04-18T07:33:40.999Z</time></trkpt><trkpt lat="43.52791018631351" lon="10.714142429428206"><ele>45.0</ele><time>2026-04-18T07:33:41.999Z</time></trkpt><trkpt lat="43.52782565159745" lon="10.714173332630553"><ele>45.0</ele><time>2026-04-18T07:33:42.999Z</time></trkpt><trkpt lat="43.52774836543233" lon="10.714193958009695"><ele>45.0</ele><time>2026-04-18T07:33:43.999Z</time></trkpt><trkpt lat="43.527682174795075" lon="10.71421836785974"><ele>45.0</ele><time>2026-04-18T07:33:44.999Z</time></trkpt><trkpt lat="43.52758345960213" lon="10.714259453196949"><ele>45.0</ele><time>2026-04-18T07:33:46.998Z</time></trkpt><trkpt lat="43.52751520462831" lon="10.714289208946449"><ele>45.0</ele><time>2026-04-18T07:33:48.998Z</time></trkpt><trkpt lat="43.527440885660695" lon="10.71431904743344"><ele>45.0</ele><time>2026-04-18T07:33:51.998Z</time></trkpt><trkpt lat="43.52737689566469" lon="10.714344886352272"><ele>45.0</ele><time>2026-04-18T07:33:53.998Z</time></trkpt><trkpt lat="43.527270759482036" lon="10.714398308868976"><ele>45.0</ele><time>2026-04-18T07:33:55.998Z</time></trkpt><trkpt lat="43.52719361141333" lon="10.714433487274038"><ele>46.75</ele><time>2026-04-18T07:33:56.998Z</time></trkpt><trkpt lat="43.52709631831824" lon="10.714472183853927"><ele>48.5</ele><time>2026-04-18T07:33:57.998Z</time></trkpt><trkpt lat="43.526984429660324" lon="10.714516606088242"><ele>50.25</ele><time>2026-04-18T07:33:58.998Z</time></trkpt><trkpt lat="43.52685968064069" lon="10.714565928129568"><ele>52.0</ele><time>2026-04-18T07:33:59.998Z</time></trkpt><trkpt lat="43.526732619716654" lon="10.714621103092085"><ele>52.0</ele><time>2026-04-18T07:34:00.998Z</time></trkpt><trkpt lat="43.52660883837398" lon="10.714667030476077"><ele>52.0</ele><time>2026-04-18T07:34:01.998Z</time></trkpt><trkpt lat="43.52648813374295" lon="10.714717041020391"><ele>52.0</ele><time>2026-04-18T07:34:02.998Z</time></trkpt><trkpt lat="43.52637314631946" lon="10.714766822597172"><ele>52.0</ele><time>2026-04-18T07:34:03.998Z</time></trkpt><trkpt lat="43.526259503659574" lon="10.714813700387966"><ele>50.5</ele><time>2026-04-18T07:34:04.998Z</time></trkpt><trkpt lat="43.52614987581218" lon="10.71486037911267"><ele>49.0</ele><time>2026-04-18T07:34:05.998Z</time></trkpt><trkpt lat="43.52603874758021" lon="10.714905383016626"><ele>47.5</ele><time>2026-04-18T07:34:06.998Z</time></trkpt><trkpt lat="43.52592568970053" lon="10.714944695834395"><ele>46.0</ele><time>2026-04-18T07:34:07.998Z</time></trkpt><trkpt lat="43.525819075895974" lon="10.714986875248867"><ele>46.0</ele><time>2026-04-18T07:34:08.998Z</time></trkpt><trkpt lat="43.52571564582149" lon="10.715030533300514"><ele>46.0</ele><time>2026-04-18T07:34:09.998Z</time></trkpt><trkpt lat="43.52561545424512" lon="10.715069560190441"><ele>46.0</ele><time>2026-04-18T07:34:10.999Z</time></trkpt><trkpt lat="43.52551977043676" lon="10.715105794482602"><ele>46.0</ele><time>2026-04-18T07:34:11.999Z</time></trkpt><trkpt lat="43.525424084245984" lon="10.715140711482533"><ele>46.0</ele><time>2026-04-18T07:34:12.999Z</time></trkpt><trkpt lat="43.525329389297504" lon="10.715179909201959"><ele>45.599999999999994</ele><time>2026-04-18T07:34:13.999Z</time></trkpt><trkpt lat="43.52523515993027" lon="10.715219880521593"><ele>45.2</ele><time>2026-04-18T07:34:14.999Z</time></trkpt><trkpt lat="43.52514414964991" lon="10.715258090280232"><ele>44.8</ele><time>2026-04-18T07:34:15.999Z</time></trkpt><trkpt lat="43.52505698032421" lon="10.715298242126586"><ele>44.400000000000006</ele><time>2026-04-18T07:34:16.999Z</time></trkpt><trkpt lat="43.524973944803435" lon="10.715339806005025"><ele>44.0</ele><time>2026-04-18T07:34:17.999Z</time></trkpt><trkpt lat="43.52489258092611" lon="10.715364180596447"><ele>44.666666666666664</ele><time>2026-04-18T07:34:18.999Z</time></trkpt><trkpt lat="43.5248128126227" lon="10.71537017846204"><ele>45.33333333333333</ele><time>2026-04-18T07:34:19.999Z</time></trkpt><trkpt lat="43.52474310382411" lon="10.715412902308344"><ele>46.0</ele><time>2026-04-18T07:34:20.999Z</time></trkpt><trkpt lat="43.524679241406304" lon="10.715476601002194"><ele>46.666666666666664</ele><time>2026-04-18T07:34:21.999Z</time></trkpt><trkpt lat="43.52463618341633" lon="10.715583044889138"><ele>47.333333333333336</ele><time>2026-04-18T07:34:22.999Z</time></trkpt><trkpt lat="43.52460425701324" lon="10.71571322000433"><ele>48.0</ele><time>2026-04-18T07:34:23.999Z</time></trkpt><trkpt lat="43.524590790796914" lon="10.715866354241603"><ele>48.0</ele><time>2026-04-18T07:34:24.999Z</time></trkpt><trkpt lat="43.524585592853605" lon="10.716008086897393"><ele>48.0</ele><time>2026-04-18T07:34:25.999Z</time></trkpt><trkpt lat="43.52458021889037" lon="10.71613437136987"><ele>48.0</ele><time>2026-04-18T07:34:26.999Z</time></trkpt><trkpt lat="43.524577942017046" lon="10.716246083596944"><ele>48.0</ele><time>2026-04-18T07:34:27.999Z</time></trkpt><trkpt lat="43.524577526328606" lon="10.716357820982575"><ele>48.0</ele><time>2026-04-18T07:34:28.999Z</time></trkpt><trkpt lat="43.524571087159515" lon="10.716464417482342"><ele>48.0</ele><time>2026-04-18T07:34:29.999Z</time></trkpt><trkpt lat="43.52456011476127" lon="10.716566708441652"><ele>47.42857142857142</ele><time>2026-04-18T07:34:30.999Z</time></trkpt><trkpt lat="43.52454242619345" lon="10.716662961464044"><ele>46.857142857142854</ele><time>2026-04-18T07:34:31.999Z</time></trkpt><trkpt lat="43.52451843434979" lon="10.71675947300488"><ele>46.285714285714285</ele><time>2026-04-18T07:34:32.999Z</time></trkpt><trkpt lat="43.524488431519416" lon="10.716851593218527"><ele>45.71428571428571</ele><time>2026-04-18T07:34:33.999Z</time></trkpt><trkpt lat="43.524459808324124" lon="10.716942395181302"><ele>45.14285714285714</ele><time>2026-04-18T07:34:34.999Z</time></trkpt><trkpt lat="43.524434048787796" lon="10.717034803077581"><ele>44.57142857142857</ele><time>2026-04-18T07:34:35.999Z</time></trkpt><trkpt lat="43.52440576688093" lon="10.717123370703025"><ele>44.0</ele><time>2026-04-18T07:34:36.999Z</time></trkpt><trkpt lat="43.524376087798245" lon="10.717213361307838"><ele>44.0</ele><time>2026-04-18T07:34:37.999Z</time></trkpt><trkpt lat="43.52434449166837" lon="10.717300920989086"><ele>44.0</ele><time>2026-04-18T07:34:38.999Z</time></trkpt><trkpt lat="43.52431168908645" lon="10.71739012109208"><ele>44.0</ele><time>2026-04-18T07:34:39.999Z</time></trkpt><trkpt lat="43.52427941321311" lon="10.717481355256748"><ele>44.0</ele><time>2026-04-18T07:34:40.999Z</time></trkpt><trkpt lat="43.52424858009961" lon="10.717573296496152"><ele>44.0</ele><time>2026-04-18T07:34:41.999Z</time></trkpt><trkpt lat="43.52422164027254" lon="10.717669139095818"><ele>44.0</ele><time>2026-04-18T07:34:42.999Z</time></trkpt><trkpt lat="43.524193452006564" lon="10.71776722222423"><ele>44.0</ele><time>2026-04-18T07:34:43.999Z</time></trkpt><trkpt lat="43.524167985472374" lon="10.717867285290243"><ele>44.5</ele><time>2026-04-18T07:34:44.999Z</time></trkpt><trkpt lat="43.52414072587902" lon="10.717970845572863"><ele>45.0</ele><time>2026-04-18T07:34:45.999Z</time></trkpt><trkpt lat="43.52411458812759" lon="10.718081594203701"><ele>45.5</ele><time>2026-04-18T07:34:46.999Z</time></trkpt><trkpt lat="43.52408721809606" lon="10.718195547453558"><ele>46.0</ele><time>2026-04-18T07:34:47.999Z</time></trkpt><trkpt lat="43.52406028965432" lon="10.71830591395037"><ele>46.5</ele><time>2026-04-18T07:34:48.999Z</time></trkpt><trkpt lat="43.52403621414508" lon="10.718415448111578"><ele>47.0</ele><time>2026-04-18T07:34:49.999Z</time></trkpt><trkpt lat="43.52400783070574" lon="10.718530608047462"><ele>47.2</ele><time>2026-04-18T07:34:50.999Z</time></trkpt><trkpt lat="43.523973173990065" lon="10.718652853766988"><ele>47.400000000000006</ele><time>2026-04-18T07:34:51.999Z</time></trkpt><trkpt lat="43.52393638312351" lon="10.718782789126458"><ele>47.599999999999994</ele><time>2026-04-18T07:34:52.999Z</time></trkpt><trkpt lat="43.52389556364511" lon="10.718910705604422"><ele>47.8</ele><time>2026-04-18T07:34:53.999Z</time></trkpt><trkpt lat="43.52385545171569" lon="10.719042750798069"><ele>48.0</ele><time>2026-04-18T07:34:54.999Z</time></trkpt><trkpt lat="43.523810523167654" lon="10.719171510142061"><ele>48.0</ele><time>2026-04-18T07:34:55.999Z</time></trkpt><trkpt lat="43.52377974182617" lon="10.719300752013904"><ele>48.0</ele><time>2026-04-18T07:34:56.999Z</time></trkpt><trkpt lat="43.52375045954352" lon="10.719425188586172"><ele>48.0</ele><time>2026-04-18T07:34:57.999Z</time></trkpt><trkpt lat="43.5237201295511" lon="10.719545246442678"><ele>48.0</ele><time>2026-04-18T07:34:58.999Z</time></trkpt><trkpt lat="43.52368363346549" lon="10.71965989568772"><ele>48.0</ele><time>2026-04-18T07:34:59.999Z</time></trkpt><trkpt lat="43.52364569593811" lon="10.719769778518453"><ele>47.599999999999994</ele><time>2026-04-18T07:35:00.999Z</time></trkpt><trkpt lat="43.52360671361585" lon="10.719878774847174"><ele>47.199999999999996</ele><time>2026-04-18T07:35:01.999Z</time></trkpt><trkpt lat="43.52356644763756" lon="10.719993078832509"><ele>46.8</ele><time>2026-04-18T07:35:02.999Z</time></trkpt><trkpt lat="43.523523427970666" lon="10.720102482774987"><ele>46.4</ele><time>2026-04-18T07:35:03.999Z</time></trkpt><trkpt lat="43.523473785709605" lon="10.720213348669876"><ele>46.0</ele><time>2026-04-18T07:35:04.999Z</time></trkpt><trkpt lat="43.52342477194358" lon="10.720329838581733"><ele>46.0</ele><time>2026-04-18T07:35:05.999Z</time></trkpt><trkpt lat="43.52338178102164" lon="10.72044466579171"><ele>46.0</ele><time>2026-04-18T07:35:06.999Z</time></trkpt><trkpt lat="43.52334980542916" lon="10.720558978052377"><ele>46.0</ele><time>2026-04-18T07:35:07.999Z</time></trkpt><trkpt lat="43.523326349541584" lon="10.720668926223338"><ele>46.0</ele><time>2026-04-18T07:35:08.999Z</time></trkpt><trkpt lat="43.523310632889725" lon="10.720773541549415"><ele>46.0</ele><time>2026-04-18T07:35:09.999Z</time></trkpt><trkpt lat="43.52329363062864" lon="10.720875665267986"><ele>46.0</ele><time>2026-04-18T07:35:10.999Z</time></trkpt><trkpt lat="43.52327313513861" lon="10.720979093776602"><ele>46.0</ele><time>2026-04-18T07:35:11.999Z</time></trkpt><trkpt lat="43.52324742830413" lon="10.721085565627153"><ele>46.0</ele><time>2026-04-18T07:35:12.999Z</time></trkpt><trkpt lat="43.52321918938238" lon="10.721195904067935"><ele>46.0</ele><time>2026-04-18T07:35:13.999Z</time></trkpt><trkpt lat="43.52318545639405" lon="10.721306352177294"><ele>46.0</ele><time>2026-04-18T07:35:14.999Z</time></trkpt><trkpt lat="43.52314406396341" lon="10.721409680476805"><ele>46.0</ele><time>2026-04-18T07:35:15.999Z</time></trkpt><trkpt lat="43.52310370825624" lon="10.721506879846707"><ele>46.0</ele><time>2026-04-18T07:35:16.999Z</time></trkpt><trkpt lat="43.523067660959356" lon="10.721589970185354"><ele>46.0</ele><time>2026-04-18T07:35:17.999Z</time></trkpt><trkpt lat="43.5229968458881" lon="10.721733597437098"><ele>46.0</ele><time>2026-04-18T07:35:19.999Z</time></trkpt><trkpt lat="43.52295760584096" lon="10.721802571230194"><ele>46.0</ele><time>2026-04-18T07:35:20.999Z</time></trkpt><trkpt lat="43.52291596049514" lon="10.721878287348707"><ele>46.0</ele><time>2026-04-18T07:35:21.999Z</time></trkpt><trkpt lat="43.52287172967983" lon="10.721957288935904"><ele>46.0</ele><time>2026-04-18T07:35:22.999Z</time></trkpt><trkpt lat="43.52283142835743" lon="10.722029335068672"><ele>46.0</ele><time>2026-04-18T07:35:23.999Z</time></trkpt><trkpt lat="43.522757235376694" lon="10.722163773181963"><ele>46.66666666666667</ele><time>2026-04-18T07:35:25.999Z</time></trkpt><trkpt lat="43.52271476774088" lon="10.722232434226601"><ele>47.333333333333336</ele><time>2026-04-18T07:35:26.999Z</time></trkpt><trkpt lat="43.522669060530994" lon="10.722297982454615"><ele>48.0</ele><time>2026-04-18T07:35:27.999Z</time></trkpt><trkpt lat="43.52261769922312" lon="10.722364372791214"><ele>48.66666666666667</ele><time>2026-04-18T07:35:28.999Z</time></trkpt><trkpt lat="43.522556186236464" lon="10.722433075152773"><ele>49.333333333333336</ele><time>2026-04-18T07:35:29.999Z</time></trkpt><trkpt lat="43.52248750640383" lon="10.72250240576819"><ele>50.0</ele><time>2026-04-18T07:35:30.999Z</time></trkpt><trkpt lat="43.52241962190753" lon="10.722573252754412"><ele>50.00000000000001</ele><time>2026-04-18T07:35:31.999Z</time></trkpt><trkpt lat="43.522350981799505" lon="10.722650709670027"><ele>50.0</ele><time>2026-04-18T07:35:32.999Z</time></trkpt><trkpt lat="43.522284642029824" lon="10.722723337692894"><ele>50.0</ele><time>2026-04-18T07:35:33.999Z</time></trkpt><trkpt lat="43.5222113511791" lon="10.7227811838169"><ele>50.0</ele><time>2026-04-18T07:35:34.999Z</time></trkpt><trkpt lat="43.52214391201054" lon="10.722843668958516"><ele>50.00000000000001</ele><time>2026-04-18T07:35:35.999Z</time></trkpt><trkpt lat="43.522077934658746" lon="10.722906971544342"><ele>50.0</ele><time>2026-04-18T07:35:36.999Z</time></trkpt><trkpt lat="43.52201240695618" lon="10.722964499394866"><ele>50.00000000000001</ele><time>2026-04-18T07:35:37.999Z</time></trkpt><trkpt lat="43.52194747979846" lon="10.72302111576473"><ele>50.0</ele><time>2026-04-18T07:35:38.999Z</time></trkpt><trkpt lat="43.52188169804754" lon="10.723075230097091"><ele>50.0</ele><time>2026-04-18T07:35:39.999Z</time></trkpt><trkpt lat="43.521813983716484" lon="10.723130729783518"><ele>50.0</ele><time>2026-04-18T07:35:40.999Z</time></trkpt><trkpt lat="43.521747235356564" lon="10.723189470442547"><ele>50.00000000000001</ele><time>2026-04-18T07:35:41.999Z</time></trkpt><trkpt lat="43.52167634025885" lon="10.723257569596438"><ele>50.0</ele><time>2026-04-18T07:35:42.999Z</time></trkpt><trkpt lat="43.52160243821381" lon="10.723338808917312"><ele>50.0</ele><time>2026-04-18T07:35:43.999Z</time></trkpt><trkpt lat="43.52152258859028" lon="10.723433962450553"><ele>50.0</ele><time>2026-04-18T07:35:44.999Z</time></trkpt><trkpt lat="43.52143909495844" lon="10.72354463567766"><ele>50.0</ele><time>2026-04-18T07:35:45.999Z</time></trkpt><trkpt lat="43.521360124482946" lon="10.723661270957784"><ele>50.0</ele><time>2026-04-18T07:35:46.999Z</time></trkpt><trkpt lat="43.52129496282972" lon="10.72378770362592"><ele>49.4</ele><time>2026-04-18T07:35:47.999Z</time></trkpt><trkpt lat="43.521229863969616" lon="10.723906429610933"><ele>48.8</ele><time>2026-04-18T07:35:48.999Z</time></trkpt><trkpt lat="43.52116466907008" lon="10.7240320801524"><ele>48.2</ele><time>2026-04-18T07:35:49.999Z</time></trkpt><trkpt lat="43.52110289621589" lon="10.724146908224673"><ele>47.6</ele><time>2026-04-18T07:35:50.999Z</time></trkpt><trkpt lat="43.52103590720482" lon="10.724250202785246"><ele>47.0</ele><time>2026-04-18T07:35:51.999Z</time></trkpt><trkpt lat="43.520970212950665" lon="10.724348956855403"><ele>47.166666666666664</ele><time>2026-04-18T07:35:52.999Z</time></trkpt><trkpt lat="43.52091020441987" lon="10.72444255743936"><ele>47.33333333333333</ele><time>2026-04-18T07:35:53.999Z</time></trkpt><trkpt lat="43.520851494085356" lon="10.72453591041354"><ele>47.5</ele><time>2026-04-18T07:35:54.999Z</time></trkpt><trkpt lat="43.52080119195673" lon="10.724631142142904"><ele>47.666666666666664</ele><time>2026-04-18T07:35:55.999Z</time></trkpt><trkpt lat="43.520762428222106" lon="10.724730465799574"><ele>47.833333333333336</ele><time>2026-04-18T07:35:56.999Z</time></trkpt><trkpt lat="43.52074945054679" lon="10.724836842530694"><ele>48.0</ele><time>2026-04-18T07:35:57.999Z</time></trkpt><trkpt lat="43.520759434561455" lon="10.724941146657844"><ele>48.0</ele><time>2026-04-18T07:35:58.999Z</time></trkpt><trkpt lat="43.52077462400289" lon="10.725032741379732"><ele>48.0</ele><time>2026-04-18T07:35:59.999Z</time></trkpt><trkpt lat="43.520781692559034" lon="10.725178648343935"><ele>48.0</ele><time>2026-04-18T07:36:01.999Z</time></trkpt><trkpt lat="43.52078824058801" lon="10.725290800490159"><ele>48.0</ele><time>2026-04-18T07:36:03.999Z</time></trkpt><trkpt lat="43.52079635247177" lon="10.725433469054767"><ele>48.0</ele><time>2026-04-18T07:36:05.999Z</time></trkpt><trkpt lat="43.520798563396944" lon="10.725525148216713"><ele>48.0</ele><time>2026-04-18T07:36:06.999Z</time></trkpt><trkpt lat="43.52081023950546" lon="10.725613490391881"><ele>48.166666666666664</ele><time>2026-04-18T07:36:07.999Z</time></trkpt><trkpt lat="43.52084456805297" lon="10.72577370772591"><ele>48.33333333333333</ele><time>2026-04-18T07:36:09.999Z</time></trkpt><trkpt lat="43.52087558104628" lon="10.725869673950458"><ele>48.5</ele><time>2026-04-18T07:36:11.999Z</time></trkpt><trkpt lat="43.52089984711243" lon="10.725970700006265"><ele>48.666666666666664</ele><time>2026-04-18T07:36:13.999Z</time></trkpt><trkpt lat="43.52092634835801" lon="10.726078543578405"><ele>48.83333333333333</ele><time>2026-04-18T07:36:15.999Z</time></trkpt><trkpt lat="43.52095326759861" lon="10.726176635852598"><ele>49.0</ele><time>2026-04-18T07:36:17.999Z</time></trkpt><trkpt lat="43.52096387087249" lon="10.72628526008048"><ele>49.33333333333333</ele><time>2026-04-18T07:36:21.999Z</time></trkpt><trkpt lat="43.5209229804747" lon="10.726361889397095"><ele>49.666666666666664</ele><time>2026-04-18T07:36:24.999Z</time></trkpt><trkpt lat="43.52086950689736" lon="10.726419070506893"><ele>50.0</ele><time>2026-04-18T07:36:26.999Z</time></trkpt><trkpt lat="43.520798326962236" lon="10.726485557396867"><ele>50.33333333333333</ele><time>2026-04-18T07:36:29Z</time></trkpt><trkpt lat="43.52073461779574" lon="10.726549234815156"><ele>50.666666666666664</ele><time>2026-04-18T07:36:31Z</time></trkpt><trkpt lat="43.52067737491457" lon="10.726585379363806"><ele>51.0</ele><time>2026-04-18T07:36:34Z</time></trkpt><trkpt lat="43.52059163150415" lon="10.726611396745238"><ele>51.0</ele><time>2026-04-18T07:36:37Z</time></trkpt><trkpt lat="43.52049042898592" lon="10.726673850457619"><ele>51.0</ele><time>2026-04-18T07:36:39Z</time></trkpt><trkpt lat="43.52043163461191" lon="10.726718921501393"><ele>51.0</ele><time>2026-04-18T07:36:40Z</time></trkpt><trkpt lat="43.52037504406298" lon="10.726771101170081"><ele>51.0</ele><time>2026-04-18T07:36:41Z</time></trkpt><trkpt lat="43.52031910393147" lon="10.72682501202351"><ele>51.0</ele><time>2026-04-18T07:36:42Z</time></trkpt><trkpt lat="43.520222956332304" lon="10.726912976884465"><ele>51.0</ele><time>2026-04-18T07:36:44Z</time></trkpt><trkpt lat="43.520143614809584" lon="10.72698555578202"><ele>51.0</ele><time>2026-04-18T07:36:46Z</time></trkpt><trkpt lat="43.520066102723646" lon="10.727073810031976"><ele>51.0</ele><time>2026-04-18T07:36:48Z</time></trkpt><trkpt lat="43.51998130291993" lon="10.72716736610457"><ele>51.0</ele><time>2026-04-18T07:36:50Z</time></trkpt><trkpt lat="43.51988825921083" lon="10.727254464256928"><ele>51.0</ele><time>2026-04-18T07:36:52Z</time></trkpt><trkpt lat="43.519787979127805" lon="10.727336242371473"><ele>51.0</ele><time>2026-04-18T07:36:54Z</time></trkpt><trkpt lat="43.51970171581602" lon="10.72743337503515"><ele>51.0</ele><time>2026-04-18T07:36:56Z</time></trkpt><trkpt lat="43.51968101661314" lon="10.72752920596655"><ele>51.0</ele><time>2026-04-18T07:36:58Z</time></trkpt><trkpt lat="43.51965123708129" lon="10.727635757086706"><ele>51.0</ele><time>2026-04-18T07:37:01Z</time></trkpt><trkpt lat="43.51964211345613" lon="10.727740568417632"><ele>51.0</ele><time>2026-04-18T07:37:03Z</time></trkpt><trkpt lat="43.51964843482706" lon="10.727828088892513"><ele>51.0</ele><time>2026-04-18T07:37:07Z</time></trkpt><trkpt lat="43.5196477961746" lon="10.727927731387611"><ele>51.0</ele><time>2026-04-18T07:37:15Z</time></trkpt><trkpt lat="43.5196354034199" lon="10.728035062204947"><ele>51.0</ele><time>2026-04-18T07:37:19Z</time></trkpt><trkpt lat="43.519622005865706" lon="10.72816322377352"><ele>51.833333333333336</ele><time>2026-04-18T07:37:22Z</time></trkpt><trkpt lat="43.519618511598814" lon="10.728260858845813"><ele>52.66666666666667</ele><time>2026-04-18T07:37:24Z</time></trkpt><trkpt lat="43.51961200244857" lon="10.728374827612601"><ele>53.5</ele><time>2026-04-18T07:37:26Z</time></trkpt><trkpt lat="43.51959834531355" lon="10.728498517817219"><ele>54.333333333333336</ele><time>2026-04-18T07:37:28Z</time></trkpt><trkpt lat="43.51958102284856" lon="10.72863517246141"><ele>55.16666666666667</ele><time>2026-04-18T07:37:30Z</time></trkpt><trkpt lat="43.51958295862533" lon="10.728777297861962"><ele>56.0</ele><time>2026-04-18T07:37:32Z</time></trkpt><trkpt lat="43.519605722734845" lon="10.728905984180804"><ele>56.66666666666667</ele><time>2026-04-18T07:37:34Z</time></trkpt><trkpt lat="43.51962423226199" lon="10.729040815457102"><ele>57.333333333333336</ele><time>2026-04-18T07:37:36Z</time></trkpt><trkpt lat="43.51964299662651" lon="10.729172430671131"><ele>58.0</ele><time>2026-04-18T07:37:38Z</time></trkpt><trkpt lat="43.51965148072397" lon="10.729263956205148"><ele>58.66666666666667</ele><time>2026-04-18T07:37:46Z</time></trkpt><trkpt lat="43.519664959936684" lon="10.72937740858688"><ele>59.333333333333336</ele><time>2026-04-18T07:37:50Z</time></trkpt><trkpt lat="43.519684763609824" lon="10.72946167025533"><ele>60.0</ele><time>2026-04-18T07:37:54Z</time></trkpt><trkpt lat="43.51969911089189" lon="10.729554192358771"><ele>60.28571428571429</ele><time>2026-04-18T07:37:58Z</time></trkpt><trkpt lat="43.51969838447576" lon="10.72964399278412"><ele>60.57142857142857</ele><time>2026-04-18T07:38:01Z</time></trkpt><trkpt lat="43.519678082042674" lon="10.729748516346536"><ele>60.85714285714286</ele><time>2026-04-18T07:38:04Z</time></trkpt><trkpt lat="43.51965856276162" lon="10.72983326716201"><ele>61.142857142857146</ele><time>2026-04-18T07:38:07Z</time></trkpt><trkpt lat="43.51963141333445" lon="10.729934392923882"><ele>61.42857142857143</ele><time>2026-04-18T07:38:10Z</time></trkpt><trkpt lat="43.51960112946285" lon="10.730037677859269"><ele>61.714285714285715</ele><time>2026-04-18T07:38:13Z</time></trkpt><trkpt lat="43.51958032834998" lon="10.730140223274192"><ele>62.0</ele><time>2026-04-18T07:38:16Z</time></trkpt><trkpt lat="43.51956644776443" lon="10.730236626069287"><ele>62.714285714285715</ele><time>2026-04-18T07:38:19Z</time></trkpt><trkpt lat="43.519587177670395" lon="10.730333377668288"><ele>63.42857142857143</ele><time>2026-04-18T07:38:22Z</time></trkpt><trkpt lat="43.51960325475301" lon="10.730431494838106"><ele>64.14285714285714</ele><time>2026-04-18T07:38:25Z</time></trkpt><trkpt lat="43.519603289414206" lon="10.730536793705925"><ele>64.85714285714286</ele><time>2026-04-18T07:38:28Z</time></trkpt><trkpt lat="43.51961109285884" lon="10.730638998813474"><ele>65.57142857142857</ele><time>2026-04-18T07:38:31Z</time></trkpt><trkpt lat="43.51962313125721" lon="10.73072918653893"><ele>66.28571428571429</ele><time>2026-04-18T07:38:34Z</time></trkpt><trkpt lat="43.519635673359296" lon="10.730846482109653"><ele>67.0</ele><time>2026-04-18T07:38:38Z</time></trkpt><trkpt lat="43.51965086654358" lon="10.730958367089537"><ele>69.0</ele><time>2026-04-18T07:38:41Z</time></trkpt><trkpt lat="43.51965593689325" lon="10.731077301295525"><ele>71.0</ele><time>2026-04-18T07:38:44Z</time></trkpt><trkpt lat="43.519652408448984" lon="10.731194864453316"><ele>73.0</ele><time>2026-04-18T07:38:47Z</time></trkpt><trkpt lat="43.51966201732336" lon="10.731293076950863"><ele>75.0</ele><time>2026-04-18T07:38:51Z</time></trkpt><trkpt lat="43.51967503004163" lon="10.731389110469138"><ele>77.0</ele><time>2026-04-18T07:38:55Z</time></trkpt><trkpt lat="43.519683503877374" lon="10.731481422092182"><ele>79.0</ele><time>2026-04-18T07:38:59Z</time></trkpt><trkpt lat="43.51969996049256" lon="10.731575113229672"><ele>79.0</ele><time>2026-04-18T07:39:03Z</time></trkpt><trkpt lat="43.51973145720491" lon="10.731670026277381"><ele>79.0</ele><time>2026-04-18T07:39:06Z</time></trkpt><trkpt lat="43.519761684073366" lon="10.731763116100277"><ele>79.0</ele><time>2026-04-18T07:39:09Z</time></trkpt><trkpt lat="43.51978636817261" lon="10.731866968634876"><ele>79.0</ele><time>2026-04-18T07:39:12Z</time></trkpt><trkpt lat="43.51981171887536" lon="10.731979633072728"><ele>79.0</ele><time>2026-04-18T07:39:15Z</time></trkpt><trkpt lat="43.519838611313574" lon="10.73208435153429"><ele>79.0</ele><time>2026-04-18T07:39:18Z</time></trkpt><trkpt lat="43.519861896200794" lon="10.732192132658797"><ele>80.16666666666666</ele><time>2026-04-18T07:39:21Z</time></trkpt><trkpt lat="43.51987912910744" lon="10.732309844117072"><ele>81.33333333333333</ele><time>2026-04-18T07:39:24Z</time></trkpt><trkpt lat="43.51988031609588" lon="10.732400558898247"><ele>82.5</ele><time>2026-04-18T07:39:26Z</time></trkpt><trkpt lat="43.519877213774905" lon="10.732525706327541"><ele>83.66666666666667</ele><time>2026-04-18T07:39:29Z</time></trkpt><trkpt lat="43.51986265163835" lon="10.732642810165373"><ele>84.83333333333334</ele><time>2026-04-18T07:39:32Z</time></trkpt><trkpt lat="43.5198469595928" lon="10.732727685531541"><ele>86.0</ele><time>2026-04-18T07:39:34Z</time></trkpt><trkpt lat="43.51984627207996" lon="10.732856995159628"><ele>87.42857142857143</ele><time>2026-04-18T07:39:37Z</time></trkpt><trkpt lat="43.519852915388554" lon="10.7329507454455"><ele>88.85714285714286</ele><time>2026-04-18T07:39:39Z</time></trkpt><trkpt lat="43.51985904395217" lon="10.733043785285968"><ele>90.28571428571428</ele><time>2026-04-18T07:39:41Z</time></trkpt><trkpt lat="43.51986532181044" lon="10.733130880216386"><ele>91.71428571428572</ele><time>2026-04-18T07:39:43Z</time></trkpt><trkpt lat="43.519868954049755" lon="10.73322093553906"><ele>93.14285714285714</ele><time>2026-04-18T07:39:45Z</time></trkpt><trkpt lat="43.519876375798916" lon="10.733345180816388"><ele>94.57142857142857</ele><time>2026-04-18T07:39:48Z</time></trkpt><trkpt lat="43.51988111127392" lon="10.733467214493043"><ele>96.0</ele><time>2026-04-18T07:39:51.001Z</time></trkpt><trkpt lat="43.51987784796581" lon="10.733593914325033"><ele>96.71428571428571</ele><time>2026-04-18T07:39:54.001Z</time></trkpt><trkpt lat="43.519857218962514" lon="10.733684855787333"><ele>97.42857142857143</ele><time>2026-04-18T07:39:56.001Z</time></trkpt><trkpt lat="43.519839072660076" lon="10.733779788563679"><ele>98.14285714285714</ele><time>2026-04-18T07:39:58.001Z</time></trkpt><trkpt lat="43.51982936596489" lon="10.733877736505818"><ele>98.85714285714286</ele><time>2026-04-18T07:40:00.001Z</time></trkpt><trkpt lat="43.519826001549625" lon="10.733977792546789"><ele>99.57142857142857</ele><time>2026-04-18T07:40:02.001Z</time></trkpt><trkpt lat="43.5198181934812" lon="10.734081512970347"><ele>100.28571428571428</ele><time>2026-04-18T07:40:04Z</time></trkpt><trkpt lat="43.519808778466924" lon="10.734184035305637"><ele>101.0</ele><time>2026-04-18T07:40:06Z</time></trkpt><trkpt lat="43.51981056924752" lon="10.734272309334962"><ele>100.99999999999999</ele><time>2026-04-18T07:40:08Z</time></trkpt><trkpt lat="43.519864457600086" lon="10.734366229920454"><ele>101.0</ele><time>2026-04-18T07:40:11Z</time></trkpt><trkpt lat="43.5199436595524" lon="10.734411002944551"><ele>101.0</ele><time>2026-04-18T07:40:14Z</time></trkpt><trkpt lat="43.5200253647485" lon="10.7344629368723"><ele>101.0</ele><time>2026-04-18T07:40:17Z</time></trkpt><trkpt lat="43.52008830559407" lon="10.734508397516734"><ele>100.99999999999999</ele><time>2026-04-18T07:40:19Z</time></trkpt><trkpt lat="43.52015381258993" lon="10.734561308118368"><ele>101.0</ele><time>2026-04-18T07:40:21Z</time></trkpt><trkpt lat="43.520223669207304" lon="10.734616002013302"><ele>100.49999999999999</ele><time>2026-04-18T07:40:23Z</time></trkpt><trkpt lat="43.52029709696831" lon="10.734679282749006"><ele>100.0</ele><time>2026-04-18T07:40:25Z</time></trkpt><trkpt lat="43.52037236399293" lon="10.734747065302946"><ele>99.5</ele><time>2026-04-18T07:40:27Z</time></trkpt><trkpt lat="43.52045008564706" lon="10.734809767859904"><ele>99.0</ele><time>2026-04-18T07:40:29Z</time></trkpt><trkpt lat="43.520525876477684" lon="10.734873130335416"><ele>98.49999999999999</ele><time>2026-04-18T07:40:31Z</time></trkpt><trkpt lat="43.520597152709115" lon="10.734943827419908"><ele>98.0</ele><time>2026-04-18T07:40:33Z</time></trkpt><trkpt lat="43.52066103293462" lon="10.735018976989247"><ele>100.0</ele><time>2026-04-18T07:40:35Z</time></trkpt><trkpt lat="43.5207101558786" lon="10.735103413090622"><ele>102.0</ele><time>2026-04-18T07:40:37Z</time></trkpt><trkpt lat="43.520732448014655" lon="10.735201502885037"><ele>104.0</ele><time>2026-04-18T07:40:39Z</time></trkpt><trkpt lat="43.520747490929836" lon="10.735286010715125"><ele>106.0</ele><time>2026-04-18T07:40:41Z</time></trkpt><trkpt lat="43.52076472504354" lon="10.735370229556114"><ele>108.0</ele><time>2026-04-18T07:40:43Z</time></trkpt><trkpt lat="43.52079047367304" lon="10.735451315845895"><ele>110.0</ele><time>2026-04-18T07:40:45Z</time></trkpt><trkpt lat="43.52083423563888" lon="10.735514861760846"><ele>112.0</ele><time>2026-04-18T07:40:47Z</time></trkpt><trkpt lat="43.520896543893386" lon="10.73559440795603"><ele>112.42857142857143</ele><time>2026-04-18T07:40:50Z</time></trkpt><trkpt lat="43.520946913464215" lon="10.735663788022828"><ele>112.85714285714286</ele><time>2026-04-18T07:40:53Z</time></trkpt><trkpt lat="43.52099810116582" lon="10.735739927849352"><ele>113.28571428571428</ele><time>2026-04-18T07:40:56Z</time></trkpt><trkpt lat="43.521049053826076" lon="10.735808589929258"><ele>113.71428571428571</ele><time>2026-04-18T07:40:59Z</time></trkpt><trkpt lat="43.52110975103667" lon="10.735868783050227"><ele>114.14285714285714</ele><time>2026-04-18T07:41:02Z</time></trkpt><trkpt lat="43.52117884566055" lon="10.735922315693585"><ele>114.57142857142856</ele><time>2026-04-18T07:41:06Z</time></trkpt><trkpt lat="43.521246692406315" lon="10.735973270057494"><ele>114.99999999999999</ele><time>2026-04-18T07:41:10Z</time></trkpt><trkpt lat="43.52130548133472" lon="10.73602122414456"><ele>118.8</ele><time>2026-04-18T07:41:14.001Z</time></trkpt><trkpt lat="43.52135709867839" lon="10.736070980172675"><ele>122.6</ele><time>2026-04-18T07:41:17.001Z</time></trkpt><trkpt lat="43.52141097235618" lon="10.736142970109592"><ele>126.4</ele><time>2026-04-18T07:41:20.001Z</time></trkpt><trkpt lat="43.52145987920962" lon="10.736199813064017"><ele>130.2</ele><time>2026-04-18T07:41:22.001Z</time></trkpt><trkpt lat="43.52150974162028" lon="10.736262138607637"><ele>134.0</ele><time>2026-04-18T07:41:24.001Z</time></trkpt><trkpt lat="43.521480461512056" lon="10.736518854427448"><ele>134.0</ele><time>2026-04-18T07:41:25.001Z</time></trkpt><trkpt lat="43.52155788036544" lon="10.736558849823018"><ele>134.0</ele><time>2026-04-18T07:41:28.001Z</time></trkpt><trkpt lat="43.521627218556596" lon="10.736603908507892"><ele>134.0</ele><time>2026-04-18T07:41:31.001Z</time></trkpt><trkpt lat="43.52168971102959" lon="10.736651436490058"><ele>134.0</ele><time>2026-04-18T07:41:34.001Z</time></trkpt><trkpt lat="43.52175891678248" lon="10.736712764475238"><ele>134.0</ele><time>2026-04-18T07:41:47.001Z</time></trkpt><trkpt lat="43.521826177473265" lon="10.73676323745401"><ele>134.0</ele><time>2026-04-18T07:41:50.001Z</time></trkpt><trkpt lat="43.52188467429451" lon="10.736817429505576"><ele>133.6</ele><time>2026-04-18T07:41:54.001Z</time></trkpt><trkpt lat="43.52196125723666" lon="10.736896579755879"><ele>133.2</ele><time>2026-04-18T07:41:57.001Z</time></trkpt><trkpt lat="43.52201585383853" lon="10.736962443762781"><ele>132.79999999999998</ele><time>2026-04-18T07:41:59.001Z</time></trkpt><trkpt lat="43.52207078475127" lon="10.737024042663894"><ele>132.4</ele><time>2026-04-18T07:42:02.001Z</time></trkpt><trkpt lat="43.52213499051842" lon="10.737117457527606"><ele>132.0</ele><time>2026-04-18T07:44:39Z</time></trkpt><trkpt lat="43.52211000593374" lon="10.737277789001404"><ele>132.0</ele><time>2026-04-18T07:44:42Z</time></trkpt><trkpt lat="43.52207032949754" lon="10.737453507941163"><ele>132.0</ele><time>2026-04-18T07:44:44Z</time></trkpt><trkpt lat="43.5220413011682" lon="10.737560547435201"><ele>132.0</ele><time>2026-04-18T07:44:45Z</time></trkpt><trkpt lat="43.52199735703335" lon="10.73767256362515"><ele>132.0</ele><time>2026-04-18T07:44:46Z</time></trkpt><trkpt lat="43.52194300500407" lon="10.7377804538614"><ele>132.0</ele><time>2026-04-18T07:44:47Z</time></trkpt><trkpt lat="43.521881060892035" lon="10.737865473675338"><ele>134.4</ele><time>2026-04-18T07:44:48Z</time></trkpt><trkpt lat="43.52182230728649" lon="10.737933109362102"><ele>136.79999999999998</ele><time>2026-04-18T07:44:49Z</time></trkpt><trkpt lat="43.52177063088664" lon="10.737983433160904"><ele>139.2</ele><time>2026-04-18T07:44:50Z</time></trkpt><trkpt lat="43.521705009336735" lon="10.7380479940922"><ele>141.6</ele><time>2026-04-18T07:44:52Z</time></trkpt><trkpt lat="43.52169899209431" lon="10.738219481912235"><ele>144.0</ele><time>2026-04-18T07:44:59Z</time></trkpt><trkpt lat="43.52173149532652" lon="10.738359725557912"><ele>144.0</ele><time>2026-04-18T07:45:01Z</time></trkpt><trkpt lat="43.52175127178138" lon="10.738443744634795"><ele>144.0</ele><time>2026-04-18T07:45:02Z</time></trkpt><trkpt lat="43.521771693136635" lon="10.738538590369016"><ele>144.0</ele><time>2026-04-18T07:45:03Z</time></trkpt><trkpt lat="43.521786592415125" lon="10.738645037603655"><ele>144.0</ele><time>2026-04-18T07:45:04Z</time></trkpt><trkpt lat="43.52180675497997" lon="10.738755908846043"><ele>144.0</ele><time>2026-04-18T07:45:05Z</time></trkpt><trkpt lat="43.521829751476965" lon="10.73887312268731"><ele>144.0</ele><time>2026-04-18T07:45:06Z</time></trkpt><trkpt lat="43.52186313279743" lon="10.738990703704753"><ele>144.0</ele><time>2026-04-18T07:45:07Z</time></trkpt><trkpt lat="43.52190541299104" lon="10.739109783385453"><ele>144.0</ele><time>2026-04-18T07:45:08.001Z</time></trkpt><trkpt lat="43.521949192823904" lon="10.73923450843213"><ele>144.0</ele><time>2026-04-18T07:45:09.001Z</time></trkpt><trkpt lat="43.52199480264282" lon="10.739362106035811"><ele>144.0</ele><time>2026-04-18T07:45:10.001Z</time></trkpt><trkpt lat="43.52204172523503" lon="10.739492561081716"><ele>144.0</ele><time>2026-04-18T07:45:11.001Z</time></trkpt><trkpt lat="43.52208804693903" lon="10.739622153831327"><ele>146.4</ele><time>2026-04-18T07:45:12.001Z</time></trkpt><trkpt lat="43.522136715740714" lon="10.739752545639389"><ele>148.8</ele><time>2026-04-18T07:45:13.001Z</time></trkpt><trkpt lat="43.52218537197883" lon="10.739881912859083"><ele>151.2</ele><time>2026-04-18T07:45:14.001Z</time></trkpt><trkpt lat="43.52223536499553" lon="10.74000836740957"><ele>153.6</ele><time>2026-04-18T07:45:15.001Z</time></trkpt><trkpt lat="43.52228538399684" lon="10.740133642316048"><ele>156.0</ele><time>2026-04-18T07:45:16.001Z</time></trkpt><trkpt lat="43.52233558170994" lon="10.74025649448901"><ele>156.8</ele><time>2026-04-18T07:45:17.001Z</time></trkpt><trkpt lat="43.52238496139314" lon="10.740377683284612"><ele>157.6</ele><time>2026-04-18T07:45:18.001Z</time></trkpt><trkpt lat="43.522435941520186" lon="10.740500109168295"><ele>158.4</ele><time>2026-04-18T07:45:19.001Z</time></trkpt><trkpt lat="43.52248558151496" lon="10.740618580603455"><ele>159.2</ele><time>2026-04-18T07:45:20.001Z</time></trkpt><trkpt lat="43.52253402539576" lon="10.74072467264887"><ele>160.0</ele><time>2026-04-18T07:45:21.001Z</time></trkpt><trkpt lat="43.52257952966046" lon="10.74082257118861"><ele>160.0</ele><time>2026-04-18T07:45:22.001Z</time></trkpt><trkpt lat="43.52262713886573" lon="10.740911515084973"><ele>160.0</ele><time>2026-04-18T07:45:23.001Z</time></trkpt><trkpt lat="43.522662731834856" lon="10.74102281721144"><ele>160.0</ele><time>2026-04-18T07:45:24.001Z</time></trkpt><trkpt lat="43.52271390783568" lon="10.741122408811133"><ele>160.0</ele><time>2026-04-18T07:45:25.001Z</time></trkpt><trkpt lat="43.522767414400576" lon="10.74121922574725"><ele>160.0</ele><time>2026-04-18T07:45:26.001Z</time></trkpt><trkpt lat="43.522826964915005" lon="10.74131279385783"><ele>160.0</ele><time>2026-04-18T07:45:27.001Z</time></trkpt><trkpt lat="43.52289980078573" lon="10.741395119112589"><ele>159.8</ele><time>2026-04-18T07:45:28.001Z</time></trkpt><trkpt lat="43.52297248704481" lon="10.741470318478363"><ele>159.6</ele><time>2026-04-18T07:45:29.001Z</time></trkpt><trkpt lat="43.523049282152996" lon="10.74154446245133"><ele>159.4</ele><time>2026-04-18T07:45:30.001Z</time></trkpt><trkpt lat="43.52312799671301" lon="10.741618962160468"><ele>159.2</ele><time>2026-04-18T07:45:31.001Z</time></trkpt><trkpt lat="43.52320724631122" lon="10.741693968270102"><ele>159.0</ele><time>2026-04-18T07:45:32.001Z</time></trkpt><trkpt lat="43.523292839418104" lon="10.741749033055983"><ele>159.0</ele><time>2026-04-18T07:45:33.001Z</time></trkpt><trkpt lat="43.52336707407373" lon="10.74181848314877"><ele>159.0</ele><time>2026-04-18T07:45:34.001Z</time></trkpt><trkpt lat="43.523437420039144" lon="10.741884397179136"><ele>159.0</ele><time>2026-04-18T07:45:35.001Z</time></trkpt><trkpt lat="43.523502014354314" lon="10.741939163241453"><ele>159.0</ele><time>2026-04-18T07:45:36.001Z</time></trkpt><trkpt lat="43.52355743983717" lon="10.742005749230545"><ele>159.0</ele><time>2026-04-18T07:45:37.001Z</time></trkpt><trkpt lat="43.523618125842376" lon="10.742040424891883"><ele>159.0</ele><time>2026-04-18T07:45:38.001Z</time></trkpt><trkpt lat="43.523734311975765" lon="10.742057008228468"><ele>159.75</ele><time>2026-04-18T07:45:40.001Z</time></trkpt><trkpt lat="43.523844681126775" lon="10.742024037150452"><ele>160.5</ele><time>2026-04-18T07:45:42.001Z</time></trkpt><trkpt lat="43.5239487926802" lon="10.741979225627645"><ele>161.25</ele><time>2026-04-18T07:45:44.001Z</time></trkpt><trkpt lat="43.52405448974218" lon="10.741933990139415"><ele>162.0</ele><time>2026-04-18T07:45:46.001Z</time></trkpt><trkpt lat="43.52416419466148" lon="10.741866977616812"><ele>162.6</ele><time>2026-04-18T07:45:48.001Z</time></trkpt><trkpt lat="43.524286177977025" lon="10.741823000726257"><ele>163.2</ele><time>2026-04-18T07:45:50.001Z</time></trkpt><trkpt lat="43.524347845620994" lon="10.741797913091027"><ele>163.8</ele><time>2026-04-18T07:45:51.001Z</time></trkpt><trkpt lat="43.52447091550643" lon="10.741775268714557"><ele>164.4</ele><time>2026-04-18T07:45:53.001Z</time></trkpt><trkpt lat="43.52453872316668" lon="10.74177000995805"><ele>165.0</ele><time>2026-04-18T07:45:54.001Z</time></trkpt><trkpt lat="43.524611274574546" lon="10.741776017489556"><ele>166.16666666666666</ele><time>2026-04-18T07:45:55.001Z</time></trkpt><trkpt lat="43.52469182876431" lon="10.741788531343847"><ele>167.33333333333334</ele><time>2026-04-18T07:45:56.001Z</time></trkpt><trkpt lat="43.52476745553802" lon="10.741808408872263"><ele>168.5</ele><time>2026-04-18T07:45:57.001Z</time></trkpt><trkpt lat="43.524848974464405" lon="10.741826871053105"><ele>169.66666666666669</ele><time>2026-04-18T07:45:58.001Z</time></trkpt><trkpt lat="43.52493705628058" lon="10.74182757022725"><ele>170.83333333333334</ele><time>2026-04-18T07:45:59.001Z</time></trkpt><trkpt lat="43.52502705976359" lon="10.74181884616963"><ele>172.0</ele><time>2026-04-18T07:46:00.001Z</time></trkpt><trkpt lat="43.52511815377098" lon="10.74180570063161"><ele>172.0</ele><time>2026-04-18T07:46:01.001Z</time></trkpt><trkpt lat="43.525209086374375" lon="10.741783471043721"><ele>172.0</ele><time>2026-04-18T07:46:02.001Z</time></trkpt><trkpt lat="43.525304929499654" lon="10.741753325276862"><ele>172.0</ele><time>2026-04-18T07:46:03.001Z</time></trkpt><trkpt lat="43.52540095269851" lon="10.741706091926053"><ele>172.0</ele><time>2026-04-18T07:46:04.001Z</time></trkpt><trkpt lat="43.52549239383153" lon="10.74164343987244"><ele>172.0</ele><time>2026-04-18T07:46:05.001Z</time></trkpt><trkpt lat="43.52557985401999" lon="10.74157258821528"><ele>171.5</ele><time>2026-04-18T07:46:06.001Z</time></trkpt><trkpt lat="43.52566148942421" lon="10.74150336209044"><ele>171.0</ele><time>2026-04-18T07:46:07.001Z</time></trkpt><trkpt lat="43.52573510837854" lon="10.74143714003846"><ele>170.5</ele><time>2026-04-18T07:46:08.001Z</time></trkpt><trkpt lat="43.52578916377485" lon="10.74136144879605"><ele>170.0</ele><time>2026-04-18T07:46:09.001Z</time></trkpt><trkpt lat="43.5258704277421" lon="10.74129513074542"><ele>169.5</ele><time>2026-04-18T07:46:11.001Z</time></trkpt><trkpt lat="43.52581747354409" lon="10.741356299754978"><ele>169.0</ele><time>2026-04-18T07:46:22Z</time></trkpt><trkpt lat="43.525883306795066" lon="10.741305333953157"><ele>169.0</ele><time>2026-04-18T07:46:30Z</time></trkpt><trkpt lat="43.52594302912201" lon="10.74125593037796"><ele>169.0</ele><time>2026-04-18T07:46:33Z</time></trkpt><trkpt lat="43.52598988623641" lon="10.74136790058054"><ele>169.0</ele><time>2026-04-18T07:46:36Z</time></trkpt><trkpt lat="43.52604694515976" lon="10.74148044636975"><ele>169.0</ele><time>2026-04-18T07:46:38Z</time></trkpt><trkpt lat="43.526136777325476" lon="10.741592263434455"><ele>169.0</ele><time>2026-04-18T07:46:40Z</time></trkpt><trkpt lat="43.52618619046189" lon="10.741648598417418"><ele>169.0</ele><time>2026-04-18T07:46:41Z</time></trkpt><trkpt lat="43.5262388441857" lon="10.741708622667943"><ele>169.39999999999998</ele><time>2026-04-18T07:46:42Z</time></trkpt><trkpt lat="43.52632915113293" lon="10.741817307238586"><ele>169.8</ele><time>2026-04-18T07:46:44Z</time></trkpt><trkpt lat="43.526432323400286" lon="10.741931301635896"><ele>170.2</ele><time>2026-04-18T07:46:46Z</time></trkpt><trkpt lat="43.52649156832176" lon="10.742017067185744"><ele>170.60000000000002</ele><time>2026-04-18T07:46:47Z</time></trkpt><trkpt lat="43.52655490960467" lon="10.7421080899224"><ele>171.0</ele><time>2026-04-18T07:46:48Z</time></trkpt><trkpt lat="43.52661993992879" lon="10.742201885667837"><ele>171.0</ele><time>2026-04-18T07:46:49Z</time></trkpt><trkpt lat="43.52668501900825" lon="10.742296463096222"><ele>171.0</ele><time>2026-04-18T07:46:50Z</time></trkpt><trkpt lat="43.52675287994844" lon="10.742394746885992"><ele>171.0</ele><time>2026-04-18T07:46:51Z</time></trkpt><trkpt lat="43.52682314950388" lon="10.742496510426394"><ele>171.0</ele><time>2026-04-18T07:46:52Z</time></trkpt><trkpt lat="43.52688870317184" lon="10.742606369658489"><ele>171.0</ele><time>2026-04-18T07:46:53Z</time></trkpt><trkpt lat="43.52694246286781" lon="10.7427229554956"><ele>171.33333333333334</ele><time>2026-04-18T07:46:54Z</time></trkpt><trkpt lat="43.5269824270354" lon="10.74283997751962"><ele>171.66666666666666</ele><time>2026-04-18T07:46:55Z</time></trkpt><trkpt lat="43.52701048212499" lon="10.742948671755471"><ele>172.0</ele><time>2026-04-18T07:46:56Z</time></trkpt><trkpt lat="43.527040513400955" lon="10.74305153232266"><ele>172.33333333333331</ele><time>2026-04-18T07:46:57Z</time></trkpt><trkpt lat="43.52707167167079" lon="10.743150649535426"><ele>172.66666666666666</ele><time>2026-04-18T07:46:58Z</time></trkpt><trkpt lat="43.52710227707859" lon="10.743243795157131"><ele>173.0</ele><time>2026-04-18T07:46:59Z</time></trkpt><trkpt lat="43.52713098791459" lon="10.743325785512246"><ele>172.66666666666666</ele><time>2026-04-18T07:47:00Z</time></trkpt><trkpt lat="43.52714299155013" lon="10.743413563470568"><ele>172.33333333333331</ele><time>2026-04-18T07:47:01Z</time></trkpt><trkpt lat="43.52718378623789" lon="10.743569440794365"><ele>172.0</ele><time>2026-04-18T07:47:03Z</time></trkpt><trkpt lat="43.52722875349181" lon="10.743721939298839"><ele>171.66666666666666</ele><time>2026-04-18T07:47:05Z</time></trkpt><trkpt lat="43.527246128906974" lon="10.743809256953508"><ele>171.33333333333334</ele><time>2026-04-18T07:47:06Z</time></trkpt><trkpt lat="43.52726670517538" lon="10.743896506862233"><ele>171.0</ele><time>2026-04-18T07:47:07Z</time></trkpt><trkpt lat="43.527290320258146" lon="10.743982232166712"><ele>171.0</ele><time>2026-04-18T07:47:08Z</time></trkpt><trkpt lat="43.5273288967338" lon="10.744058413277896"><ele>171.0</ele><time>2026-04-18T07:47:09Z</time></trkpt><trkpt lat="43.527373121410434" lon="10.744126738301196"><ele>171.0</ele><time>2026-04-18T07:47:10Z</time></trkpt><trkpt lat="43.527421360936735" lon="10.74419053777327"><ele>171.0</ele><time>2026-04-18T07:47:11Z</time></trkpt><trkpt lat="43.52752672126627" lon="10.744261815666606"><ele>171.0</ele><time>2026-04-18T07:47:13Z</time></trkpt><trkpt lat="43.527587760398156" lon="10.744310966165141"><ele>171.0</ele><time>2026-04-18T07:47:14Z</time></trkpt><trkpt lat="43.52765415594252" lon="10.744321621635779"><ele>170.99999999999997</ele><time>2026-04-18T07:47:15Z</time></trkpt><trkpt lat="43.52771685840906" lon="10.744355236205276"><ele>171.0</ele><time>2026-04-18T07:47:16Z</time></trkpt><trkpt lat="43.52776961959037" lon="10.74441389469573"><ele>171.0</ele><time>2026-04-18T07:47:17Z</time></trkpt><trkpt lat="43.527827711794124" lon="10.74445295761909"><ele>171.0</ele><time>2026-04-18T07:47:18Z</time></trkpt><trkpt lat="43.52788844724609" lon="10.744496897789029"><ele>171.0</ele><time>2026-04-18T07:47:19Z</time></trkpt><trkpt lat="43.527949991460844" lon="10.744541890099908"><ele>170.99999999999997</ele><time>2026-04-18T07:47:20Z</time></trkpt><trkpt lat="43.528022007327415" lon="10.744571555025797"><ele>171.0</ele><time>2026-04-18T07:47:21Z</time></trkpt><trkpt lat="43.52807239513524" lon="10.744625673568354"><ele>169.8</ele><time>2026-04-18T07:47:22Z</time></trkpt><trkpt lat="43.5281265535184" lon="10.744687749093107"><ele>168.60000000000002</ele><time>2026-04-18T07:47:23Z</time></trkpt><trkpt lat="43.52816691173152" lon="10.744754623647186"><ele>167.4</ele><time>2026-04-18T07:47:24Z</time></trkpt><trkpt lat="43.528230479525" lon="10.74489012846469"><ele>166.2</ele><time>2026-04-18T07:47:26Z</time></trkpt><trkpt lat="43.52828287834757" lon="10.745025716370291"><ele>165.0</ele><time>2026-04-18T07:47:28Z</time></trkpt><trkpt lat="43.52833852651369" lon="10.745151517456174"><ele>163.83333333333334</ele><time>2026-04-18T07:47:30Z</time></trkpt><trkpt lat="43.5283918467058" lon="10.745264281592483"><ele>162.66666666666666</ele><time>2026-04-18T07:47:32Z</time></trkpt><trkpt lat="43.528434381228074" lon="10.745355151172546"><ele>161.5</ele><time>2026-04-18T07:47:34Z</time></trkpt><trkpt lat="43.5284788453751" lon="10.745443382859358"><ele>160.33333333333331</ele><time>2026-04-18T07:47:59Z</time></trkpt><trkpt lat="43.52850859206738" lon="10.745534927738923"><ele>159.16666666666666</ele><time>2026-04-18T07:48:03Z</time></trkpt><trkpt lat="43.528518255850265" lon="10.745658718996081"><ele>158.0</ele><time>2026-04-18T07:48:06Z</time></trkpt><trkpt lat="43.52850825174998" lon="10.74576645861247"><ele>158.0</ele><time>2026-04-18T07:48:08Z</time></trkpt><trkpt lat="43.52848170847176" lon="10.745876790155158"><ele>158.0</ele><time>2026-04-18T07:48:10.001Z</time></trkpt><trkpt lat="43.52846758423839" lon="10.745993990534819"><ele>158.0</ele><time>2026-04-18T07:48:12.001Z</time></trkpt><trkpt lat="43.528472699793014" lon="10.746108837528293"><ele>158.0</ele><time>2026-04-18T07:48:14.001Z</time></trkpt><trkpt lat="43.528461646111055" lon="10.746229787323987"><ele>158.0</ele><time>2026-04-18T07:48:16.001Z</time></trkpt><trkpt lat="43.5284700402825" lon="10.746355408863565"><ele>158.0</ele><time>2026-04-18T07:48:18.001Z</time></trkpt><trkpt lat="43.52850043651126" lon="10.746493967569569"><ele>156.5</ele><time>2026-04-18T07:48:20.001Z</time></trkpt><trkpt lat="43.528493495650494" lon="10.746641525055074"><ele>155.0</ele><time>2026-04-18T07:48:22.001Z</time></trkpt><trkpt lat="43.52852227130419" lon="10.746795439099344"><ele>153.5</ele><time>2026-04-18T07:48:24.001Z</time></trkpt><trkpt lat="43.528533144422674" lon="10.746969795964697"><ele>152.0</ele><time>2026-04-18T07:48:26Z</time></trkpt><trkpt lat="43.52856279153905" lon="10.74713511034128"><ele>152.0</ele><time>2026-04-18T07:48:28Z</time></trkpt><trkpt lat="43.528598107136204" lon="10.747283837862652"><ele>152.0</ele><time>2026-04-18T07:48:30Z</time></trkpt><trkpt lat="43.52865278263307" lon="10.74741352918991"><ele>152.0</ele><time>2026-04-18T07:48:32Z</time></trkpt><trkpt lat="43.528713656992" lon="10.747512880287399"><ele>152.0</ele><time>2026-04-18T07:48:34Z</time></trkpt><trkpt lat="43.52878588938499" lon="10.74759952448394"><ele>152.0</ele><time>2026-04-18T07:48:36Z</time></trkpt><trkpt lat="43.52887052177786" lon="10.747641897799724"><ele>153.66666666666666</ele><time>2026-04-18T07:48:38Z</time></trkpt><trkpt lat="43.52894163689872" lon="10.747591833302337"><ele>155.33333333333331</ele><time>2026-04-18T07:48:41Z</time></trkpt><trkpt lat="43.528958008747104" lon="10.747502858298535"><ele>157.0</ele><time>2026-04-18T07:50:08Z</time></trkpt><trkpt lat="43.52900005096968" lon="10.747397857163378"><ele>158.66666666666666</ele><time>2026-04-18T07:50:12Z</time></trkpt><trkpt lat="43.52903224736903" lon="10.747296671127561"><ele>160.33333333333334</ele><time>2026-04-18T07:50:14Z</time></trkpt><trkpt lat="43.529058455919596" lon="10.747177944999848"><ele>162.0</ele><time>2026-04-18T07:50:16Z</time></trkpt><trkpt lat="43.5290873478424" lon="10.747042813604622"><ele>162.0</ele><time>2026-04-18T07:50:18Z</time></trkpt><trkpt lat="43.52911853077972" lon="10.746896969112061"><ele>162.0</ele><time>2026-04-18T07:50:20Z</time></trkpt><trkpt lat="43.529154434763626" lon="10.746729043998746"><ele>162.0</ele><time>2026-04-18T07:50:22Z</time></trkpt><trkpt lat="43.52933871820302" lon="10.74670760283986"><ele>162.0</ele><time>2026-04-18T07:50:23Z</time></trkpt><trkpt lat="43.52937702888665" lon="10.746636874386382"><ele>162.8</ele><time>2026-04-18T07:50:24Z</time></trkpt><trkpt lat="43.52941940102819" lon="10.746565835193499"><ele>163.6</ele><time>2026-04-18T07:50:25Z</time></trkpt><trkpt lat="43.52949829463603" lon="10.746435340406201"><ele>164.4</ele><time>2026-04-18T07:50:27Z</time></trkpt><trkpt lat="43.52957103848877" lon="10.74632484040758"><ele>165.20000000000002</ele><time>2026-04-18T07:50:29Z</time></trkpt><trkpt lat="43.52961254610053" lon="10.746221692063239"><ele>166.0</ele><time>2026-04-18T07:50:31.001Z</time></trkpt><trkpt lat="43.5296163682649" lon="10.746119804930897"><ele>164.20000000000002</ele><time>2026-04-18T07:50:33.001Z</time></trkpt><trkpt lat="43.52961564490883" lon="10.745996103157811"><ele>162.4</ele><time>2026-04-18T07:50:35.001Z</time></trkpt><trkpt lat="43.52964411052463" lon="10.745831424483145"><ele>160.6</ele><time>2026-04-18T07:50:37.001Z</time></trkpt><trkpt lat="43.529657354763785" lon="10.745742221941903"><ele>158.8</ele><time>2026-04-18T07:50:38.001Z</time></trkpt><trkpt lat="43.52967094966955" lon="10.74564876774356"><ele>157.0</ele><time>2026-04-18T07:50:39.001Z</time></trkpt><trkpt lat="43.52968568332773" lon="10.745497771599258"><ele>157.0</ele><time>2026-04-18T07:50:41Z</time></trkpt><trkpt lat="43.52970290734169" lon="10.745384568922884"><ele>157.0</ele><time>2026-04-18T07:50:43Z</time></trkpt><trkpt lat="43.5297609321292" lon="10.7453015668852"><ele>157.0</ele><time>2026-04-18T07:50:45Z</time></trkpt><trkpt lat="43.5298473757497" lon="10.745263488212373"><ele>157.0</ele><time>2026-04-18T07:50:47Z</time></trkpt><trkpt lat="43.529961212304514" lon="10.745270059726998"><ele>157.0</ele><time>2026-04-18T07:50:49Z</time></trkpt><trkpt lat="43.53007291175258" lon="10.74520331922944"><ele>156.85714285714283</ele><time>2026-04-18T07:50:51Z</time></trkpt><trkpt lat="43.53013501216988" lon="10.745159130547657"><ele>156.71428571428572</ele><time>2026-04-18T07:50:52Z</time></trkpt><trkpt lat="43.53020362198907" lon="10.745098637313337"><ele>156.57142857142856</ele><time>2026-04-18T07:50:53Z</time></trkpt><trkpt lat="43.53026706586412" lon="10.745034649326477"><ele>156.42857142857142</ele><time>2026-04-18T07:50:54Z</time></trkpt><trkpt lat="43.53032727683927" lon="10.7449649548856"><ele>156.28571428571428</ele><time>2026-04-18T07:50:55Z</time></trkpt><trkpt lat="43.530374722972084" lon="10.744892479712536"><ele>156.14285714285714</ele><time>2026-04-18T07:50:56Z</time></trkpt><trkpt lat="43.53042521653618" lon="10.744836336221958"><ele>156.0</ele><time>2026-04-18T07:50:57Z</time></trkpt><trkpt lat="43.530485074965696" lon="10.744800561296097"><ele>156.0</ele><time>2026-04-18T07:50:58Z</time></trkpt><trkpt lat="43.530551790291106" lon="10.744778438919088"><ele>156.0</ele><time>2026-04-18T07:50:59Z</time></trkpt><trkpt lat="43.53062732363544" lon="10.744761561038326"><ele>156.0</ele><time>2026-04-18T07:51:00Z</time></trkpt><trkpt lat="43.5307012013556" lon="10.744729912564365"><ele>156.0</ele><time>2026-04-18T07:51:01Z</time></trkpt><trkpt lat="43.53076709901945" lon="10.744687495786225"><ele>156.0</ele><time>2026-04-18T07:51:02Z</time></trkpt><trkpt lat="43.5308263475709" lon="10.744616222461362"><ele>156.0</ele><time>2026-04-18T07:51:03Z</time></trkpt><trkpt lat="43.53087502702265" lon="10.744540543809482"><ele>156.0</ele><time>2026-04-18T07:51:04Z</time></trkpt><trkpt lat="43.530919374686164" lon="10.744434176904145"><ele>156.0</ele><time>2026-04-18T07:51:05Z</time></trkpt><trkpt lat="43.530938517339195" lon="10.744314925036074"><ele>156.0</ele><time>2026-04-18T07:51:06Z</time></trkpt><trkpt lat="43.53095177393814" lon="10.744207649811438"><ele>156.0</ele><time>2026-04-18T07:51:07Z</time></trkpt><trkpt lat="43.530964946704245" lon="10.744105027611273"><ele>156.0</ele><time>2026-04-18T07:51:08Z</time></trkpt><trkpt lat="43.53097473654893" lon="10.744006516649922"><ele>156.0</ele><time>2026-04-18T07:51:09Z</time></trkpt><trkpt lat="43.53097975508759" lon="10.743905527664412"><ele>156.0</ele><time>2026-04-18T07:51:10Z</time></trkpt><trkpt lat="43.53097719889998" lon="10.743808125440731"><ele>156.0</ele><time>2026-04-18T07:51:11Z</time></trkpt><trkpt lat="43.53096425438387" lon="10.743714135193075"><ele>156.0</ele><time>2026-04-18T07:51:12Z</time></trkpt><trkpt lat="43.5309511824149" lon="10.743628903371803"><ele>156.0</ele><time>2026-04-18T07:51:13Z</time></trkpt><trkpt lat="43.53092202368554" lon="10.743468475092556"><ele>156.0</ele><time>2026-04-18T07:51:15Z</time></trkpt><trkpt lat="43.5308877527649" lon="10.743323423791539"><ele>156.0</ele><time>2026-04-18T07:51:17Z</time></trkpt><trkpt lat="43.53086176141266" lon="10.74317929425557"><ele>157.2</ele><time>2026-04-18T07:51:19Z</time></trkpt><trkpt lat="43.53084504055698" lon="10.743035915908184"><ele>158.39999999999998</ele><time>2026-04-18T07:51:21Z</time></trkpt><trkpt lat="43.53085024895634" lon="10.742889526835924"><ele>159.6</ele><time>2026-04-18T07:51:23Z</time></trkpt><trkpt lat="43.53088196383768" lon="10.742746135675745"><ele>160.79999999999998</ele><time>2026-04-18T07:51:25Z</time></trkpt><trkpt lat="43.53091601299068" lon="10.742632912268181"><ele>162.0</ele><time>2026-04-18T07:51:27Z</time></trkpt><trkpt lat="43.5309670722413" lon="10.742523344608708"><ele>162.66666666666666</ele><time>2026-04-18T07:51:29Z</time></trkpt><trkpt lat="43.53091943704684" lon="10.742410339537562"><ele>163.33333333333334</ele><time>2026-04-18T07:51:30Z</time></trkpt><trkpt lat="43.5309001115206" lon="10.742319990260077"><ele>164.0</ele><time>2026-04-18T07:51:31Z</time></trkpt><trkpt lat="43.53087496851374" lon="10.742224892943895"><ele>164.66666666666669</ele><time>2026-04-18T07:51:32Z</time></trkpt><trkpt lat="43.53084947672526" lon="10.742127676817987"><ele>165.33333333333334</ele><time>2026-04-18T07:51:33Z</time></trkpt><trkpt lat="43.53082478766594" lon="10.742033507960327"><ele>166.0</ele><time>2026-04-18T07:51:34Z</time></trkpt><trkpt lat="43.530802500783196" lon="10.741944049206191"><ele>166.60000000000002</ele><time>2026-04-18T07:51:35Z</time></trkpt><trkpt lat="43.53075630388949" lon="10.741796708876025"><ele>167.2</ele><time>2026-04-18T07:51:37Z</time></trkpt><trkpt lat="43.530742209283545" lon="10.741679834706716"><ele>167.8</ele><time>2026-04-18T07:51:39Z</time></trkpt><trkpt lat="43.53072255146558" lon="10.741570668062849"><ele>168.39999999999998</ele><time>2026-04-18T07:51:42Z</time></trkpt><trkpt lat="43.53070161857235" lon="10.74147142970222"><ele>169.0</ele><time>2026-04-18T07:51:45Z</time></trkpt><trkpt lat="43.530717115997646" lon="10.741345264442595"><ele>169.0</ele><time>2026-04-18T07:51:48Z</time></trkpt><trkpt lat="43.53079550091486" lon="10.741255604738175"><ele>169.0</ele><time>2026-04-18T07:51:51Z</time></trkpt><trkpt lat="43.530835164390325" lon="10.741173985940655"><ele>169.0</ele><time>2026-04-18T07:51:53Z</time></trkpt><trkpt lat="43.53088120689148" lon="10.74106282442758"><ele>169.0</ele><time>2026-04-18T07:51:56Z</time></trkpt><trkpt lat="43.530915289995754" lon="10.74097107301663"><ele>169.0</ele><time>2026-04-18T07:51:58Z</time></trkpt><trkpt lat="43.53095190122756" lon="10.740858550673048"><ele>169.0</ele><time>2026-04-18T07:52:00Z</time></trkpt><trkpt lat="43.530982002081316" lon="10.740727347319575"><ele>169.0</ele><time>2026-04-18T07:52:02Z</time></trkpt><trkpt lat="43.531005864761234" lon="10.740590758602693"><ele>169.0</ele><time>2026-04-18T07:52:04Z</time></trkpt><trkpt lat="43.53101805393555" lon="10.740449814453793"><ele>169.0</ele><time>2026-04-18T07:52:06Z</time></trkpt><trkpt lat="43.53105732066547" lon="10.74032767211957"><ele>169.0</ele><time>2026-04-18T07:52:08Z</time></trkpt><trkpt lat="43.53108856537655" lon="10.740224012538178"><ele>169.0</ele><time>2026-04-18T07:52:10Z</time></trkpt><trkpt lat="43.531116870593706" lon="10.740112948270335"><ele>169.0</ele><time>2026-04-18T07:52:12Z</time></trkpt><trkpt lat="43.53116138192945" lon="10.74002178065848"><ele>169.0</ele><time>2026-04-18T07:52:14Z</time></trkpt><trkpt lat="43.531191272979896" lon="10.739933991213489"><ele>169.0</ele><time>2026-04-18T07:52:16Z</time></trkpt><trkpt lat="43.53122223466517" lon="10.739847241379326"><ele>169.0</ele><time>2026-04-18T07:52:18Z</time></trkpt><trkpt lat="43.53125594833435" lon="10.739769930496616"><ele>169.0</ele><time>2026-04-18T07:52:20Z</time></trkpt><trkpt lat="43.531299337246956" lon="10.739695356846122"><ele>169.0</ele><time>2026-04-18T07:52:22Z</time></trkpt><trkpt lat="43.53134909119846" lon="10.739619663581042"><ele>169.0</ele><time>2026-04-18T07:52:24Z</time></trkpt><trkpt lat="43.53141514873338" lon="10.739534157873052"><ele>167.16666666666669</ele><time>2026-04-18T07:52:26Z</time></trkpt><trkpt lat="43.531486569052774" lon="10.739420164777313"><ele>165.33333333333334</ele><time>2026-04-18T07:52:28Z</time></trkpt><trkpt lat="43.531541175510206" lon="10.73937622080995"><ele>163.5</ele><time>2026-04-18T07:52:29Z</time></trkpt><trkpt lat="43.531590040049906" lon="10.739320806329696"><ele>161.66666666666666</ele><time>2026-04-18T07:52:30Z</time></trkpt><trkpt lat="43.53164049202911" lon="10.739260359697209"><ele>159.83333333333331</ele><time>2026-04-18T07:52:31Z</time></trkpt><trkpt lat="43.53169829528895" lon="10.739194827741954"><ele>158.0</ele><time>2026-04-18T07:52:32Z</time></trkpt><trkpt lat="43.531765877118744" lon="10.739130122904355"><ele>158.0</ele><time>2026-04-18T07:52:33Z</time></trkpt><trkpt lat="43.531838212891195" lon="10.73906196629124"><ele>158.0</ele><time>2026-04-18T07:52:34Z</time></trkpt><trkpt lat="43.53189928505513" lon="10.738994748904627"><ele>158.0</ele><time>2026-04-18T07:52:35Z</time></trkpt><trkpt lat="43.53196465745382" lon="10.738933650192463"><ele>158.0</ele><time>2026-04-18T07:52:36Z</time></trkpt><trkpt lat="43.5320293670128" lon="10.738884849357019"><ele>158.0</ele><time>2026-04-18T07:52:37Z</time></trkpt><trkpt lat="43.532089932536394" lon="10.738835472027368"><ele>158.0</ele><time>2026-04-18T07:52:38Z</time></trkpt><trkpt lat="43.53215245753113" lon="10.738789229221158"><ele>157.0</ele><time>2026-04-18T07:52:39Z</time></trkpt><trkpt lat="43.53221283266447" lon="10.73874304111317"><ele>156.0</ele><time>2026-04-18T07:52:40Z</time></trkpt><trkpt lat="43.532286030447835" lon="10.738718990753291"><ele>155.0</ele><time>2026-04-18T07:52:41Z</time></trkpt><trkpt lat="43.53234924525366" lon="10.73865946816503"><ele>154.0</ele><time>2026-04-18T07:52:42Z</time></trkpt><trkpt lat="43.532419175384824" lon="10.738617181658217"><ele>153.0</ele><time>2026-04-18T07:52:43Z</time></trkpt><trkpt lat="43.53248812922029" lon="10.738560246390744"><ele>152.0</ele><time>2026-04-18T07:52:44Z</time></trkpt><trkpt lat="43.53256310610553" lon="10.738501238746348"><ele>152.0</ele><time>2026-04-18T07:52:45Z</time></trkpt><trkpt lat="43.532638395662275" lon="10.73845755866144"><ele>152.0</ele><time>2026-04-18T07:52:46Z</time></trkpt><trkpt lat="43.53270762996073" lon="10.738406294628739"><ele>152.0</ele><time>2026-04-18T07:52:47Z</time></trkpt><trkpt lat="43.53277527596095" lon="10.738355915259788"><ele>152.0</ele><time>2026-04-18T07:52:48Z</time></trkpt><trkpt lat="43.53284012018397" lon="10.738308982396957"><ele>152.0</ele><time>2026-04-18T07:52:49Z</time></trkpt><trkpt lat="43.532897349760056" lon="10.738262796524008"><ele>152.0</ele><time>2026-04-18T07:52:50Z</time></trkpt><trkpt lat="43.532951897541736" lon="10.738211915122491"><ele>152.0</ele><time>2026-04-18T07:52:51Z</time></trkpt><trkpt lat="43.53300514850497" lon="10.738159851133586"><ele>151.33333333333331</ele><time>2026-04-18T07:52:52Z</time></trkpt><trkpt lat="43.5330565553917" lon="10.738104734096913"><ele>150.66666666666666</ele><time>2026-04-18T07:52:53Z</time></trkpt><trkpt lat="43.53310548256879" lon="10.73804881327009"><ele>150.0</ele><time>2026-04-18T07:52:54Z</time></trkpt><trkpt lat="43.53315681926594" lon="10.737993547928353"><ele>149.33333333333334</ele><time>2026-04-18T07:52:55Z</time></trkpt><trkpt lat="43.533206328690234" lon="10.73793711428624"><ele>148.66666666666669</ele><time>2026-04-18T07:52:56Z</time></trkpt><trkpt lat="43.53330563052807" lon="10.737839975384404"><ele>148.0</ele><time>2026-04-18T07:52:58Z</time></trkpt><trkpt lat="43.533407069261706" lon="10.737753579737035"><ele>147.8</ele><time>2026-04-18T07:53:00Z</time></trkpt><trkpt lat="43.533490823915436" lon="10.737705223897136"><ele>147.60000000000002</ele><time>2026-04-18T07:53:02Z</time></trkpt><trkpt lat="43.533553137629625" lon="10.737686384377064"><ele>147.39999999999998</ele><time>2026-04-18T07:53:04Z</time></trkpt><trkpt lat="43.53364745986146" lon="10.737655796034376"><ele>147.2</ele><time>2026-04-18T07:53:07Z</time></trkpt><trkpt lat="43.53373471940317" lon="10.73762248436599"><ele>147.0</ele><time>2026-04-18T07:53:09Z</time></trkpt><trkpt lat="43.53384152199541" lon="10.737574803211206"><ele>146.5</ele><time>2026-04-18T07:53:11Z</time></trkpt><trkpt lat="43.53395896496743" lon="10.737516604467425"><ele>146.0</ele><time>2026-04-18T07:53:13Z</time></trkpt><trkpt lat="43.534021292859165" lon="10.737486019611763"><ele>145.5</ele><time>2026-04-18T07:53:14Z</time></trkpt><trkpt lat="43.5340838642078" lon="10.737453051203484"><ele>145.0</ele><time>2026-04-18T07:53:15Z</time></trkpt><trkpt lat="43.53414396576362" lon="10.73742614491258"><ele>144.5</ele><time>2026-04-18T07:53:16Z</time></trkpt><trkpt lat="43.5342563218353" lon="10.737367930888674"><ele>144.0</ele><time>2026-04-18T07:53:18Z</time></trkpt><trkpt lat="43.53431403994702" lon="10.737332704291497"><ele>144.00000000000003</ele><time>2026-04-18T07:53:19Z</time></trkpt><trkpt lat="43.534373046241335" lon="10.737296458590036"><ele>144.0</ele><time>2026-04-18T07:53:20Z</time></trkpt><trkpt lat="43.53443620364112" lon="10.737255288773978"><ele>144.0</ele><time>2026-04-18T07:53:21Z</time></trkpt><trkpt lat="43.53450006142576" lon="10.737222906626377"><ele>144.0</ele><time>2026-04-18T07:53:22Z</time></trkpt><trkpt lat="43.53456589496039" lon="10.737190317361776"><ele>144.0</ele><time>2026-04-18T07:53:23Z</time></trkpt><trkpt lat="43.534634485847874" lon="10.737156287451482"><ele>144.00000000000003</ele><time>2026-04-18T07:53:24Z</time></trkpt><trkpt lat="43.53470373258575" lon="10.73712093310948"><ele>144.0</ele><time>2026-04-18T07:53:25Z</time></trkpt><trkpt lat="43.5347732611463" lon="10.737084250300773"><ele>143.16666666666666</ele><time>2026-04-18T07:53:26Z</time></trkpt><trkpt lat="43.534843017740876" lon="10.737046831471593"><ele>142.33333333333334</ele><time>2026-04-18T07:53:27Z</time></trkpt><trkpt lat="43.534912336139925" lon="10.73700235500098"><ele>141.5</ele><time>2026-04-18T07:53:28Z</time></trkpt><trkpt lat="43.53498016256123" lon="10.736953805401113"><ele>140.66666666666669</ele><time>2026-04-18T07:53:29Z</time></trkpt><trkpt lat="43.535046004183585" lon="10.73689979965236"><ele>139.83333333333334</ele><time>2026-04-18T07:53:30Z</time></trkpt><trkpt lat="43.53510894141785" lon="10.73684284624948"><ele>139.0</ele><time>2026-04-18T07:53:31Z</time></trkpt><trkpt lat="43.53517092457102" lon="10.736783248071509"><ele>138.83333333333334</ele><time>2026-04-18T07:53:32Z</time></trkpt><trkpt lat="43.5352328607839" lon="10.736724291783155"><ele>138.66666666666669</ele><time>2026-04-18T07:53:33Z</time></trkpt><trkpt lat="43.53529524265231" lon="10.73666700479356"><ele>138.5</ele><time>2026-04-18T07:53:34Z</time></trkpt><trkpt lat="43.535358197406666" lon="10.736608087987351"><ele>138.33333333333334</ele><time>2026-04-18T07:53:35Z</time></trkpt><trkpt lat="43.53542154235131" lon="10.736547500698105"><ele>138.16666666666666</ele><time>2026-04-18T07:53:36Z</time></trkpt><trkpt lat="43.535483559465824" lon="10.736485298016426"><ele>138.0</ele><time>2026-04-18T07:53:37Z</time></trkpt><trkpt lat="43.53554786021822" lon="10.73642261278493"><ele>137.71428571428572</ele><time>2026-04-18T07:53:38Z</time></trkpt><trkpt lat="43.53561270086542" lon="10.736360931899812"><ele>137.42857142857144</ele><time>2026-04-18T07:53:39Z</time></trkpt><trkpt lat="43.53568753309429" lon="10.73632004038841"><ele>137.14285714285714</ele><time>2026-04-18T07:53:40Z</time></trkpt><trkpt lat="43.53575387218359" lon="10.73626057678284"><ele>136.85714285714286</ele><time>2026-04-18T07:53:41Z</time></trkpt><trkpt lat="43.535814497242484" lon="10.73620610515047"><ele>136.57142857142856</ele><time>2026-04-18T07:53:42Z</time></trkpt><trkpt lat="43.53586914804349" lon="10.736155448891038"><ele>136.28571428571428</ele><time>2026-04-18T07:53:43Z</time></trkpt><trkpt lat="43.53591332187213" lon="10.736088825326341"><ele>136.0</ele><time>2026-04-18T07:53:44Z</time></trkpt><trkpt lat="43.53599824573224" lon="10.73601040159435"><ele>135.42857142857142</ele><time>2026-04-18T07:53:46Z</time></trkpt><trkpt lat="43.53606171947782" lon="10.735974072313871"><ele>134.85714285714286</ele><time>2026-04-18T07:53:48Z</time></trkpt><trkpt lat="43.536122953380854" lon="10.735892019397667"><ele>134.28571428571428</ele><time>2026-04-18T07:53:52Z</time></trkpt><trkpt lat="43.53617781995996" lon="10.735843702334398"><ele>133.71428571428572</ele><time>2026-04-18T07:53:56Z</time></trkpt><trkpt lat="43.53624166248077" lon="10.735785237782927"><ele>133.14285714285714</ele><time>2026-04-18T07:54:06Z</time></trkpt><trkpt lat="43.53629152939266" lon="10.735729121707507"><ele>132.57142857142856</ele><time>2026-04-18T07:54:09Z</time></trkpt><trkpt lat="43.536354118295044" lon="10.735697441759925"><ele>132.0</ele><time>2026-04-18T07:54:11Z</time></trkpt><trkpt lat="43.536419204896994" lon="10.735636957793767"><ele>131.0</ele><time>2026-04-18T07:54:13Z</time></trkpt><trkpt lat="43.536495006545685" lon="10.735567710788924"><ele>130.0</ele><time>2026-04-18T07:54:15Z</time></trkpt><trkpt lat="43.53655244487701" lon="10.735515829967543"><ele>129.0</ele><time>2026-04-18T07:54:17Z</time></trkpt><trkpt lat="43.53662050289901" lon="10.735454126092105"><ele>128.0</ele><time>2026-04-18T07:54:20Z</time></trkpt><trkpt lat="43.536686110071734" lon="10.735392988375008"><ele>127.0</ele><time>2026-04-18T07:54:23Z</time></trkpt><trkpt lat="43.53673805068443" lon="10.735341671824767"><ele>126.0</ele><time>2026-04-18T07:54:25Z</time></trkpt><trkpt lat="43.536796779604366" lon="10.735283341991154"><ele>126.0</ele><time>2026-04-18T07:54:27Z</time></trkpt><trkpt lat="43.5368594256066" lon="10.735221120170896"><ele>126.0</ele><time>2026-04-18T07:54:29Z</time></trkpt><trkpt lat="43.536924150408645" lon="10.735156672102619"><ele>126.0</ele><time>2026-04-18T07:54:31Z</time></trkpt><trkpt lat="43.53698390223086" lon="10.735100892832293"><ele>126.0</ele><time>2026-04-18T07:54:33Z</time></trkpt><trkpt lat="43.537045293428164" lon="10.735043583180042"><ele>126.0</ele><time>2026-04-18T07:54:35Z</time></trkpt><trkpt lat="43.53711390295939" lon="10.734979535099152"><ele>126.0</ele><time>2026-04-18T07:54:37Z</time></trkpt><trkpt lat="43.53718805635367" lon="10.734909963312605"><ele>125.33333333333333</ele><time>2026-04-18T07:54:39Z</time></trkpt><trkpt lat="43.537241820087836" lon="10.73485636103304"><ele>124.66666666666666</ele><time>2026-04-18T07:54:41Z</time></trkpt><trkpt lat="43.53730235021329" lon="10.734796012682004"><ele>124.0</ele><time>2026-04-18T07:54:44.999Z</time></trkpt><trkpt lat="43.5373785156506" lon="10.734718701809076"><ele>123.33333333333333</ele><time>2026-04-18T07:54:47.999Z</time></trkpt><trkpt lat="43.53745929685421" lon="10.734634960842834"><ele>122.66666666666666</ele><time>2026-04-18T07:54:49.999Z</time></trkpt><trkpt lat="43.53754373732661" lon="10.734543168153136"><ele>122.0</ele><time>2026-04-18T07:54:51.999Z</time></trkpt><trkpt lat="43.53763212847142" lon="10.734438613581995"><ele>120.19999999999999</ele><time>2026-04-18T07:54:53.999Z</time></trkpt><trkpt lat="43.53770901033645" lon="10.734316745155745"><ele>118.39999999999999</ele><time>2026-04-18T07:54:55.999Z</time></trkpt><trkpt lat="43.53775828919926" lon="10.734171400477885"><ele>116.60000000000001</ele><time>2026-04-18T07:54:57.999Z</time></trkpt><trkpt lat="43.53778348604984" lon="10.734038666479858"><ele>114.80000000000001</ele><time>2026-04-18T07:55:00Z</time></trkpt><trkpt lat="43.5378008804301" lon="10.733914986704928"><ele>113.0</ele><time>2026-04-18T07:55:02Z</time></trkpt><trkpt lat="43.53782370593818" lon="10.73376246697868"><ele>112.99999999999999</ele><time>2026-04-18T07:55:04Z</time></trkpt><trkpt lat="43.537833981802" lon="10.733674595302947"><ele>113.0</ele><time>2026-04-18T07:55:05Z</time></trkpt><trkpt lat="43.537840994693525" lon="10.733584730401592"><ele>113.0</ele><time>2026-04-18T07:55:06Z</time></trkpt><trkpt lat="43.537835820644574" lon="10.733444867561671"><ele>113.0</ele><time>2026-04-18T07:55:08Z</time></trkpt><trkpt lat="43.537803705823194" lon="10.73332316704379"><ele>112.99999999999999</ele><time>2026-04-18T07:55:10Z</time></trkpt><trkpt lat="43.537804858024764" lon="10.733213033629536"><ele>113.0</ele><time>2026-04-18T07:55:12Z</time></trkpt><trkpt lat="43.53777469698002" lon="10.733115130342194"><ele>111.66666666666666</ele><time>2026-04-18T07:55:14Z</time></trkpt><trkpt lat="43.53776457662877" lon="10.732986159120008"><ele>110.33333333333333</ele><time>2026-04-18T07:55:17Z</time></trkpt><trkpt lat="43.53774638590005" lon="10.732888705276768"><ele>109.0</ele><time>2026-04-18T07:55:19Z</time></trkpt><trkpt lat="43.53775805586063" lon="10.73277530222008"><ele>107.66666666666666</ele><time>2026-04-18T07:55:21Z</time></trkpt><trkpt lat="43.53775655089812" lon="10.73265462446617"><ele>106.33333333333333</ele><time>2026-04-18T07:55:23Z</time></trkpt><trkpt lat="43.53776251160929" lon="10.732532030630747"><ele>105.0</ele><time>2026-04-18T07:55:25Z</time></trkpt><trkpt lat="43.53777033187552" lon="10.732412076296221"><ele>104.6</ele><time>2026-04-18T07:55:27Z</time></trkpt><trkpt lat="43.537786506114806" lon="10.732286949814878"><ele>104.2</ele><time>2026-04-18T07:55:29Z</time></trkpt><trkpt lat="43.537815935565064" lon="10.73217209796182"><ele>103.80000000000001</ele><time>2026-04-18T07:55:31Z</time></trkpt><trkpt lat="43.53786111303292" lon="10.732063360327729"><ele>103.4</ele><time>2026-04-18T07:55:33Z</time></trkpt><trkpt lat="43.53791345465168" lon="10.731955326364444"><ele>103.0</ele><time>2026-04-18T07:55:35Z</time></trkpt><trkpt lat="43.53797440705146" lon="10.731843416004521"><ele>103.0</ele><time>2026-04-18T07:55:37Z</time></trkpt><trkpt lat="43.538041540987045" lon="10.73173784630458"><ele>103.0</ele><time>2026-04-18T07:55:39Z</time></trkpt><trkpt lat="43.53811550164018" lon="10.731652249199122"><ele>103.0</ele><time>2026-04-18T07:55:41Z</time></trkpt><trkpt lat="43.538192626482974" lon="10.731590426380762"><ele>103.0</ele><time>2026-04-18T07:55:43Z</time></trkpt><trkpt lat="43.53827505497855" lon="10.731543041346356"><ele>103.0</ele><time>2026-04-18T07:55:45Z</time></trkpt><trkpt lat="43.538353674429196" lon="10.731496430073706"><ele>103.0</ele><time>2026-04-18T07:55:47Z</time></trkpt><trkpt lat="43.53843468071113" lon="10.731439279027253"><ele>103.0</ele><time>2026-04-18T07:55:49Z</time></trkpt><trkpt lat="43.53852144913166" lon="10.731375145105376"><ele>103.0</ele><time>2026-04-18T07:55:51Z</time></trkpt><trkpt lat="43.53861770623348" lon="10.731302741928236"><ele>103.0</ele><time>2026-04-18T07:55:53Z</time></trkpt><trkpt lat="43.538716909641785" lon="10.731225596761448"><ele>103.0</ele><time>2026-04-18T07:55:55Z</time></trkpt><trkpt lat="43.53881966212092" lon="10.731144343547761"><ele>103.75</ele><time>2026-04-18T07:55:57Z</time></trkpt><trkpt lat="43.53892155152015" lon="10.731058060745882"><ele>104.5</ele><time>2026-04-18T07:55:59Z</time></trkpt><trkpt lat="43.539016999188895" lon="10.730964471646766"><ele>105.25</ele><time>2026-04-18T07:56:01Z</time></trkpt><trkpt lat="43.53910733425726" lon="10.730853734200196"><ele>106.0</ele><time>2026-04-18T07:56:03Z</time></trkpt><trkpt lat="43.53919128912364" lon="10.730723012364576"><ele>103.19999999999999</ele><time>2026-04-18T07:56:05Z</time></trkpt><trkpt lat="43.53926355294905" lon="10.730596771448878"><ele>100.39999999999999</ele><time>2026-04-18T07:56:07Z</time></trkpt><trkpt lat="43.53933070759968" lon="10.73047209831491"><ele>97.6</ele><time>2026-04-18T07:56:09Z</time></trkpt><trkpt lat="43.539402388989906" lon="10.730339059191058"><ele>94.8</ele><time>2026-04-18T07:56:11Z</time></trkpt><trkpt lat="43.539461082831366" lon="10.73023790751042"><ele>92.0</ele><time>2026-04-18T07:56:13Z</time></trkpt><trkpt lat="43.539521267756825" lon="10.730138527184712"><ele>89.19999999999999</ele><time>2026-04-18T07:56:15Z</time></trkpt><trkpt lat="43.539596850023" lon="10.730031683252744"><ele>86.39999999999999</ele><time>2026-04-18T07:56:17Z</time></trkpt><trkpt lat="43.539677671353786" lon="10.729941516857691"><ele>83.6</ele><time>2026-04-18T07:56:19Z</time></trkpt><trkpt lat="43.53975719180905" lon="10.729871042914255"><ele>80.8</ele><time>2026-04-18T07:56:21Z</time></trkpt><trkpt lat="43.539825789811594" lon="10.729825234166684"><ele>78.0</ele><time>2026-04-18T07:56:23Z</time></trkpt><trkpt lat="43.53989599674862" lon="10.729791041516576"><ele>78.0</ele><time>2026-04-18T07:56:25Z</time></trkpt><trkpt lat="43.539981274075764" lon="10.72974782523626"><ele>78.0</ele><time>2026-04-18T07:56:27Z</time></trkpt><trkpt lat="43.540072667159265" lon="10.729691714971258"><ele>78.0</ele><time>2026-04-18T07:56:29Z</time></trkpt><trkpt lat="43.54016798688292" lon="10.729631091630717"><ele>78.0</ele><time>2026-04-18T07:56:31Z</time></trkpt><trkpt lat="43.5402700208023" lon="10.729571601676543"><ele>78.0</ele><time>2026-04-18T07:56:33Z</time></trkpt><trkpt lat="43.54035902317541" lon="10.729540400113011"><ele>78.0</ele><time>2026-04-18T07:56:35Z</time></trkpt><trkpt lat="43.54043404519563" lon="10.729522959629294"><ele>78.0</ele><time>2026-04-18T07:56:37Z</time></trkpt><trkpt lat="43.54050452335509" lon="10.729510808225625"><ele>78.0</ele><time>2026-04-18T07:56:39Z</time></trkpt><trkpt lat="43.5405914670785" lon="10.729495569834986"><ele>78.0</ele><time>2026-04-18T07:56:42Z</time></trkpt><trkpt lat="43.54068211361491" lon="10.72947311357801"><ele>78.0</ele><time>2026-04-18T07:56:45Z</time></trkpt><trkpt lat="43.54077009444367" lon="10.729422105829503"><ele>78.0</ele><time>2026-04-18T07:56:47.999Z</time></trkpt><trkpt lat="43.54083040113708" lon="10.729337020207781"><ele>76.33333333333333</ele><time>2026-04-18T07:56:49.999Z</time></trkpt><trkpt lat="43.540867086554684" lon="10.729261139969271"><ele>74.66666666666667</ele><time>2026-04-18T07:56:51.999Z</time></trkpt><trkpt lat="43.54090772562136" lon="10.729164018292638"><ele>73.0</ele><time>2026-04-18T07:56:54.999Z</time></trkpt><trkpt lat="43.5409374479357" lon="10.729080591321098"><ele>71.33333333333334</ele><time>2026-04-18T07:56:57.999Z</time></trkpt><trkpt lat="43.540977626314806" lon="10.72896302303805"><ele>69.66666666666667</ele><time>2026-04-18T07:57:00.999Z</time></trkpt><trkpt lat="43.54100677295429" lon="10.728871775310957"><ele>68.0</ele><time>2026-04-18T07:57:02.999Z</time></trkpt><trkpt lat="43.541026724521544" lon="10.728757833397776"><ele>68.0</ele><time>2026-04-18T07:57:04.999Z</time></trkpt><trkpt lat="43.541067352613936" lon="10.728646785114025"><ele>68.0</ele><time>2026-04-18T07:57:07Z</time></trkpt><trkpt lat="43.54110212506425" lon="10.728528666746689"><ele>68.0</ele><time>2026-04-18T07:57:09Z</time></trkpt><trkpt lat="43.54114252331378" lon="10.728390704785685"><ele>68.0</ele><time>2026-04-18T07:57:11Z</time></trkpt><trkpt lat="43.54118399899279" lon="10.728315045127204"><ele>68.0</ele><time>2026-04-18T07:57:12Z</time></trkpt><trkpt lat="43.541212194747885" lon="10.728226285130726"><ele>68.0</ele><time>2026-04-18T07:57:13Z</time></trkpt><trkpt lat="43.541241514355534" lon="10.728136246593287"><ele>66.71428571428571</ele><time>2026-04-18T07:57:14Z</time></trkpt><trkpt lat="43.5412583053491" lon="10.728035512636419"><ele>65.42857142857143</ele><time>2026-04-18T07:57:15Z</time></trkpt><trkpt lat="43.54129009078938" lon="10.727956173368787"><ele>64.14285714285714</ele><time>2026-04-18T07:57:16Z</time></trkpt><trkpt lat="43.54131639171896" lon="10.727869535998963"><ele>62.857142857142854</ele><time>2026-04-18T07:57:17Z</time></trkpt><trkpt lat="43.54133239439843" lon="10.727778016707148"><ele>61.57142857142857</ele><time>2026-04-18T07:57:18Z</time></trkpt><trkpt lat="43.54134268845871" lon="10.727683833354662"><ele>60.285714285714285</ele><time>2026-04-18T07:57:19Z</time></trkpt><trkpt lat="43.54135304988954" lon="10.72759033899077"><ele>59.0</ele><time>2026-04-18T07:57:20Z</time></trkpt><trkpt lat="43.54136580625453" lon="10.727494872623938"><ele>58.71428571428571</ele><time>2026-04-18T07:57:21Z</time></trkpt><trkpt lat="43.54138380491886" lon="10.72740241945614"><ele>58.42857142857143</ele><time>2026-04-18T07:57:22Z</time></trkpt><trkpt lat="43.54140664303766" lon="10.727315925913961"><ele>58.14285714285714</ele><time>2026-04-18T07:57:23Z</time></trkpt><trkpt lat="43.5414370693305" lon="10.727235033863424"><ele>57.857142857142854</ele><time>2026-04-18T07:57:24Z</time></trkpt><trkpt lat="43.54147564383138" lon="10.727153569995725"><ele>57.57142857142857</ele><time>2026-04-18T07:57:25Z</time></trkpt><trkpt lat="43.54151995764535" lon="10.727079284138618"><ele>57.285714285714285</ele><time>2026-04-18T07:57:26Z</time></trkpt><trkpt lat="43.54157630518661" lon="10.727027153158396"><ele>57.0</ele><time>2026-04-18T07:57:27Z</time></trkpt><trkpt lat="43.54162098021012" lon="10.726960935033784"><ele>57.0</ele><time>2026-04-18T07:57:28Z</time></trkpt><trkpt lat="43.54166424424485" lon="10.726896808298319"><ele>56.99999999999999</ele><time>2026-04-18T07:57:29Z</time></trkpt><trkpt lat="43.541708501687374" lon="10.726831209125622"><ele>57.0</ele><time>2026-04-18T07:57:30Z</time></trkpt><trkpt lat="43.541740009680204" lon="10.726752866391076"><ele>57.0</ele><time>2026-04-18T07:57:31Z</time></trkpt><trkpt lat="43.5417850592373" lon="10.726685922890386"><ele>56.99999999999999</ele><time>2026-04-18T07:57:32Z</time></trkpt><trkpt lat="43.541829262424415" lon="10.726617180027302"><ele>57.0</ele><time>2026-04-18T07:57:33Z</time></trkpt><trkpt lat="43.54187409473534" lon="10.726550584158005"><ele>57.0</ele><time>2026-04-18T07:57:34Z</time></trkpt><trkpt lat="43.541924946977254" lon="10.726491672539714"><ele>57.285714285714285</ele><time>2026-04-18T07:57:35Z</time></trkpt><trkpt lat="43.54197079520272" lon="10.726419947333024"><ele>57.57142857142857</ele><time>2026-04-18T07:57:36Z</time></trkpt><trkpt lat="43.5420173898161" lon="10.726345139233425"><ele>57.857142857142854</ele><time>2026-04-18T07:57:37Z</time></trkpt><trkpt lat="43.54206302476877" lon="10.72627034285554"><ele>58.14285714285714</ele><time>2026-04-18T07:57:38Z</time></trkpt><trkpt lat="43.54211335137187" lon="10.726194006680254"><ele>58.42857142857143</ele><time>2026-04-18T07:57:39Z</time></trkpt><trkpt lat="43.54216189917999" lon="10.726118533914029"><ele>58.71428571428571</ele><time>2026-04-18T07:57:40Z</time></trkpt><trkpt lat="43.54221213905936" lon="10.726041113154176"><ele>59.0</ele><time>2026-04-18T07:57:41Z</time></trkpt><trkpt lat="43.54226165721715" lon="10.725964117754556"><ele>60.16666666666667</ele><time>2026-04-18T07:57:42Z</time></trkpt><trkpt lat="43.542313303839926" lon="10.725886535276585"><ele>61.333333333333336</ele><time>2026-04-18T07:57:43Z</time></trkpt><trkpt lat="43.54236289340273" lon="10.72581858226038"><ele>62.5</ele><time>2026-04-18T07:57:44Z</time></trkpt><trkpt lat="43.54241135560643" lon="10.725755120825644"><ele>63.66666666666667</ele><time>2026-04-18T07:57:45Z</time></trkpt><trkpt lat="43.5424909123232" lon="10.725669522023297"><ele>64.83333333333333</ele><time>2026-04-18T07:57:47Z</time></trkpt><trkpt lat="43.542567375561426" lon="10.725665008877383"><ele>66.0</ele><time>2026-04-18T07:57:49Z</time></trkpt><trkpt lat="43.54266763741262" lon="10.725681578246279"><ele>66.0</ele><time>2026-04-18T07:57:51Z</time></trkpt><trkpt lat="43.54273511537636" lon="10.72569327151272"><ele>66.0</ele><time>2026-04-18T07:57:52Z</time></trkpt><trkpt lat="43.54279349033865" lon="10.725649858209183"><ele>66.0</ele><time>2026-04-18T07:57:53Z</time></trkpt><trkpt lat="43.54285934193539" lon="10.725549567922025"><ele>66.0</ele><time>2026-04-18T07:57:55Z</time></trkpt><trkpt lat="43.54290078236752" lon="10.725445823278617"><ele>66.0</ele><time>2026-04-18T07:57:57Z</time></trkpt><trkpt lat="43.542919873027046" lon="10.72532132260807"><ele>66.0</ele><time>2026-04-18T07:57:59Z</time></trkpt><trkpt lat="43.542928804103504" lon="10.725198693190112"><ele>71.8</ele><time>2026-04-18T07:58:01Z</time></trkpt><trkpt lat="43.54294897500603" lon="10.72506740821393"><ele>77.6</ele><time>2026-04-18T07:58:03Z</time></trkpt><trkpt lat="43.542968160809195" lon="10.724923760779149"><ele>83.4</ele><time>2026-04-18T07:58:05Z</time></trkpt><trkpt lat="43.54298570513883" lon="10.724763791891672"><ele>89.2</ele><time>2026-04-18T07:58:07Z</time></trkpt><trkpt lat="43.54304182284373" lon="10.724626231605788"><ele>95.0</ele><time>2026-04-18T07:58:09Z</time></trkpt><trkpt lat="43.543122423313484" lon="10.724518129787514"><ele>95.0</ele><time>2026-04-18T07:58:11Z</time></trkpt><trkpt lat="43.54318333862033" lon="10.724485568516211"><ele>95.0</ele><time>2026-04-18T07:58:12Z</time></trkpt><trkpt lat="43.54324970351374" lon="10.724456547365794"><ele>95.0</ele><time>2026-04-18T07:58:13Z</time></trkpt><trkpt lat="43.543316550342254" lon="10.724417661497068"><ele>95.0</ele><time>2026-04-18T07:58:14Z</time></trkpt><trkpt lat="43.543379072499555" lon="10.724372997415852"><ele>95.0</ele><time>2026-04-18T07:58:15Z</time></trkpt><trkpt lat="43.54343351272386" lon="10.724309645296442"><ele>95.0</ele><time>2026-04-18T07:58:16Z</time></trkpt><trkpt lat="43.54347401959818" lon="10.724224890347296"><ele>95.0</ele><time>2026-04-18T07:58:17Z</time></trkpt><trkpt lat="43.54350122479757" lon="10.724131128521648"><ele>95.42857142857143</ele><time>2026-04-18T07:58:18Z</time></trkpt><trkpt lat="43.54352337088457" lon="10.724041052422105"><ele>95.85714285714286</ele><time>2026-04-18T07:58:19Z</time></trkpt><trkpt lat="43.54355423681858" lon="10.72395945609477"><ele>96.28571428571428</ele><time>2026-04-18T07:58:20Z</time></trkpt><trkpt lat="43.54359192638467" lon="10.723882632506664"><ele>96.71428571428572</ele><time>2026-04-18T07:58:21Z</time></trkpt><trkpt lat="43.543651215763006" lon="10.723822282745404"><ele>97.14285714285714</ele><time>2026-04-18T07:58:22Z</time></trkpt><trkpt lat="43.54369650340524" lon="10.723740111556392"><ele>97.57142857142857</ele><time>2026-04-18T07:58:23Z</time></trkpt><trkpt lat="43.54375521018641" lon="10.7236707918014"><ele>98.0</ele><time>2026-04-18T07:58:24Z</time></trkpt><trkpt lat="43.54380653311941" lon="10.723602655837919"><ele>101.16666666666666</ele><time>2026-04-18T07:58:25Z</time></trkpt><trkpt lat="43.543855161273264" lon="10.723542156060736"><ele>104.33333333333333</ele><time>2026-04-18T07:58:26Z</time></trkpt><trkpt lat="43.543929154648986" lon="10.72342932546008"><ele>107.5</ele><time>2026-04-18T07:58:28Z</time></trkpt><trkpt lat="43.54399400507957" lon="10.723310288834398"><ele>110.66666666666666</ele><time>2026-04-18T07:58:30Z</time></trkpt><trkpt lat="43.544032497718405" lon="10.723201811250174"><ele>113.83333333333333</ele><time>2026-04-18T07:58:32Z</time></trkpt><trkpt lat="43.54405866632413" lon="10.723100709665996"><ele>117.0</ele><time>2026-04-18T07:58:35Z</time></trkpt><trkpt lat="43.54407927404556" lon="10.72300324049771"><ele>117.0</ele><time>2026-04-18T07:58:37Z</time></trkpt><trkpt lat="43.54409376429541" lon="10.72290575474022"><ele>116.99999999999999</ele><time>2026-04-18T07:58:39Z</time></trkpt><trkpt lat="43.544127929904334" lon="10.722799758862424"><ele>116.99999999999999</ele><time>2026-04-18T07:58:41Z</time></trkpt><trkpt lat="43.54418146720964" lon="10.722670879790298"><ele>117.0</ele><time>2026-04-18T07:58:43Z</time></trkpt><trkpt lat="43.54424343310394" lon="10.722521811723075"><ele>117.0</ele><time>2026-04-18T07:58:45Z</time></trkpt><trkpt lat="43.54427953253988" lon="10.722442839733384"><ele>116.57142857142858</ele><time>2026-04-18T07:58:46Z</time></trkpt><trkpt lat="43.54431402699674" lon="10.722361067335225"><ele>116.14285714285715</ele><time>2026-04-18T07:58:47Z</time></trkpt><trkpt lat="43.544350927172104" lon="10.722282459661349"><ele>115.71428571428572</ele><time>2026-04-18T07:58:48Z</time></trkpt><trkpt lat="43.54439124447223" lon="10.722203991886687"><ele>115.28571428571428</ele><time>2026-04-18T07:58:49Z</time></trkpt><trkpt lat="43.54442953900548" lon="10.722127762797713"><ele>114.85714285714285</ele><time>2026-04-18T07:58:50Z</time></trkpt><trkpt lat="43.5444753736336" lon="10.722061176741875"><ele>114.42857142857142</ele><time>2026-04-18T07:58:51Z</time></trkpt><trkpt lat="43.544524403922836" lon="10.721992417934471"><ele>114.0</ele><time>2026-04-18T07:58:52Z</time></trkpt><trkpt lat="43.54457621001292" lon="10.721924111164572"><ele>115.0</ele><time>2026-04-18T07:58:53Z</time></trkpt><trkpt lat="43.544633773679756" lon="10.721856076809022"><ele>116.0</ele><time>2026-04-18T07:58:53.999Z</time></trkpt><trkpt lat="43.544691324431575" lon="10.721788579499966"><ele>117.0</ele><time>2026-04-18T07:58:54.999Z</time></trkpt><trkpt lat="43.54475452381169" lon="10.721724594753216"><ele>118.0</ele><time>2026-04-18T07:58:55.999Z</time></trkpt><trkpt lat="43.54482091548259" lon="10.721668080860573"><ele>119.0</ele><time>2026-04-18T07:58:56.999Z</time></trkpt><trkpt lat="43.5448973026165" lon="10.721616367000907"><ele>120.0</ele><time>2026-04-18T07:58:57.999Z</time></trkpt><trkpt lat="43.544979697106335" lon="10.721576549523629"><ele>120.0</ele><time>2026-04-18T07:58:58.999Z</time></trkpt><trkpt lat="43.5450652800922" lon="10.721543142505425"><ele>120.0</ele><time>2026-04-18T07:58:59.999Z</time></trkpt><trkpt lat="43.54514805285342" lon="10.721508338350345"><ele>120.0</ele><time>2026-04-18T07:59:00.999Z</time></trkpt><trkpt lat="43.54522909223329" lon="10.72146690416905"><ele>120.0</ele><time>2026-04-18T07:59:01.999Z</time></trkpt><trkpt lat="43.545308005510634" lon="10.721424342408712"><ele>120.0</ele><time>2026-04-18T07:59:02.999Z</time></trkpt><trkpt lat="43.54538546892793" lon="10.721380174334396"><ele>120.0</ele><time>2026-04-18T07:59:03.999Z</time></trkpt><trkpt lat="43.54546937974452" lon="10.721366249065614"><ele>119.5</ele><time>2026-04-18T07:59:04.999Z</time></trkpt><trkpt lat="43.54554602868181" lon="10.721325989382763"><ele>119.0</ele><time>2026-04-18T07:59:05.999Z</time></trkpt><trkpt lat="43.54561849460785" lon="10.721287682010988"><ele>118.5</ele><time>2026-04-18T07:59:06.999Z</time></trkpt><trkpt lat="43.54568281225659" lon="10.721237150892925"><ele>118.0</ele><time>2026-04-18T07:59:07.999Z</time></trkpt><trkpt lat="43.54576751676941" lon="10.721180383779474"><ele>117.5</ele><time>2026-04-18T07:59:09.999Z</time></trkpt><trkpt lat="43.545811026840354" lon="10.721095953628959"><ele>117.0</ele><time>2026-04-18T07:59:12.999Z</time></trkpt><trkpt lat="43.54576512990525" lon="10.721033540840882"><ele>117.66666666666667</ele><time>2026-04-18T07:59:13.999Z</time></trkpt><trkpt lat="43.54571970343964" lon="10.720972166540015"><ele>118.33333333333334</ele><time>2026-04-18T07:59:14.999Z</time></trkpt><trkpt lat="43.5456677745992" lon="10.72092101331861"><ele>119.0</ele><time>2026-04-18T07:59:15.999Z</time></trkpt><trkpt lat="43.54560896573397" lon="10.720863614319347"><ele>119.66666666666667</ele><time>2026-04-18T07:59:16.999Z</time></trkpt><trkpt lat="43.545539381916505" lon="10.720808693864326"><ele>120.33333333333334</ele><time>2026-04-18T07:59:17.999Z</time></trkpt><trkpt lat="43.54545902435955" lon="10.720767979705714"><ele>121.0</ele><time>2026-04-18T07:59:18.999Z</time></trkpt><trkpt lat="43.54537205305575" lon="10.720735439345848"><ele>121.00000000000001</ele><time>2026-04-18T07:59:19.999Z</time></trkpt><trkpt lat="43.54528630261298" lon="10.72071003104362"><ele>121.0</ele><time>2026-04-18T07:59:20.999Z</time></trkpt><trkpt lat="43.54519953968837" lon="10.720683888275559"><ele>121.0</ele><time>2026-04-18T07:59:21.999Z</time></trkpt><trkpt lat="43.545124848155176" lon="10.720654341068593"><ele>121.0</ele><time>2026-04-18T07:59:22.999Z</time></trkpt><trkpt lat="43.54506899411972" lon="10.72060585373813"><ele>121.00000000000001</ele><time>2026-04-18T07:59:23.999Z</time></trkpt><trkpt lat="43.545021125218014" lon="10.720476429846974"><ele>121.0</ele><time>2026-04-18T07:59:25.999Z</time></trkpt><trkpt lat="43.54506388634874" lon="10.720303470335407"><ele>120.6</ele><time>2026-04-18T07:59:27.999Z</time></trkpt><trkpt lat="43.545118730990005" lon="10.720215736802663"><ele>120.19999999999999</ele><time>2026-04-18T07:59:28.999Z</time></trkpt><trkpt lat="43.545177500126165" lon="10.720118198426636"><ele>119.80000000000001</ele><time>2026-04-18T07:59:29.999Z</time></trkpt><trkpt lat="43.545247053975764" lon="10.720025025351335"><ele>119.4</ele><time>2026-04-18T07:59:30.999Z</time></trkpt><trkpt lat="43.54532187434708" lon="10.719935122342038"><ele>119.0</ele><time>2026-04-18T07:59:31.999Z</time></trkpt><trkpt lat="43.54539775927541" lon="10.71985803158369"><ele>118.99999999999999</ele><time>2026-04-18T07:59:32.999Z</time></trkpt><trkpt lat="43.5454730758267" lon="10.719798201557525"><ele>119.0</ele><time>2026-04-18T07:59:33.999Z</time></trkpt><trkpt lat="43.54555453605848" lon="10.719755980368372"><ele>119.0</ele><time>2026-04-18T07:59:34.999Z</time></trkpt><trkpt lat="43.54563469493072" lon="10.719718407176666"><ele>119.0</ele><time>2026-04-18T07:59:35.999Z</time></trkpt><trkpt lat="43.54571372357001" lon="10.719681501524613"><ele>118.99999999999999</ele><time>2026-04-18T07:59:36.999Z</time></trkpt><trkpt lat="43.54579612027244" lon="10.719646002887508"><ele>119.0</ele><time>2026-04-18T07:59:37.999Z</time></trkpt><trkpt lat="43.545880261021324" lon="10.71960737337556"><ele>118.99999999999999</ele><time>2026-04-18T07:59:39Z</time></trkpt><trkpt lat="43.54596470858517" lon="10.719570167071133"><ele>119.0</ele><time>2026-04-18T07:59:40Z</time></trkpt><trkpt lat="43.54604935791154" lon="10.719533573288796"><ele>119.0</ele><time>2026-04-18T07:59:41Z</time></trkpt><trkpt lat="43.54613401420514" lon="10.719493161545666"><ele>119.0</ele><time>2026-04-18T07:59:42Z</time></trkpt><trkpt lat="43.54621798064566" lon="10.719455194678204"><ele>118.99999999999999</ele><time>2026-04-18T07:59:43Z</time></trkpt><trkpt lat="43.54629967500558" lon="10.719417786611533"><ele>119.0</ele><time>2026-04-18T07:59:44Z</time></trkpt><trkpt lat="43.54637428891904" lon="10.719388398621593"><ele>117.49999999999999</ele><time>2026-04-18T07:59:45Z</time></trkpt><trkpt lat="43.54643610535239" lon="10.719367928582642"><ele>116.0</ele><time>2026-04-18T07:59:46Z</time></trkpt><trkpt lat="43.54652048473608" lon="10.719351717103267"><ele>114.5</ele><time>2026-04-18T07:59:48Z</time></trkpt><trkpt lat="43.54660728008807" lon="10.71935020624469"><ele>113.0</ele><time>2026-04-18T07:59:50Z</time></trkpt><trkpt lat="43.54671876999887" lon="10.719354989126192"><ele>111.49999999999999</ele><time>2026-04-18T07:59:52Z</time></trkpt><trkpt lat="43.546782576254415" lon="10.719382339195214"><ele>110.0</ele><time>2026-04-18T07:59:53Z</time></trkpt><trkpt lat="43.54685391387762" lon="10.719393647349918"><ele>109.99999999999999</ele><time>2026-04-18T07:59:54Z</time></trkpt><trkpt lat="43.54693506004027" lon="10.719393936023849"><ele>110.0</ele><time>2026-04-18T07:59:55Z</time></trkpt><trkpt lat="43.54701792927359" lon="10.71938949991112"><ele>110.0</ele><time>2026-04-18T07:59:56Z</time></trkpt><trkpt lat="43.54710043221503" lon="10.719381550407718"><ele>110.0</ele><time>2026-04-18T07:59:57Z</time></trkpt><trkpt lat="43.54718316703821" lon="10.71937444213581"><ele>109.99999999999999</ele><time>2026-04-18T07:59:58Z</time></trkpt><trkpt lat="43.54727151572794" lon="10.71936709997008"><ele>110.0</ele><time>2026-04-18T07:59:59Z</time></trkpt><trkpt lat="43.54736093748725" lon="10.719344099729284"><ele>109.6</ele><time>2026-04-18T08:00:00Z</time></trkpt><trkpt lat="43.547454071809376" lon="10.719343149321288"><ele>109.2</ele><time>2026-04-18T08:00:01Z</time></trkpt><trkpt lat="43.547550314967346" lon="10.71934009449705"><ele>108.80000000000001</ele><time>2026-04-18T08:00:02Z</time></trkpt><trkpt lat="43.54764863412936" lon="10.719334325345159"><ele>108.4</ele><time>2026-04-18T08:00:03Z</time></trkpt><trkpt lat="43.547750118924874" lon="10.71932870250121"><ele>108.0</ele><time>2026-04-18T08:00:04Z</time></trkpt><trkpt lat="43.54785495683343" lon="10.719324546369231"><ele>109.2</ele><time>2026-04-18T08:00:05Z</time></trkpt><trkpt lat="43.54796225991373" lon="10.719319799344277"><ele>110.4</ele><time>2026-04-18T08:00:06Z</time></trkpt><trkpt lat="43.54807243476225" lon="10.719316015352982"><ele>111.60000000000001</ele><time>2026-04-18T08:00:07Z</time></trkpt><trkpt lat="43.54818596643702" lon="10.719312714063687"><ele>112.80000000000001</ele><time>2026-04-18T08:00:08Z</time></trkpt><trkpt lat="43.548299386789964" lon="10.719308877734779"><ele>114.0</ele><time>2026-04-18T08:00:09Z</time></trkpt><trkpt lat="43.5484127245096" lon="10.719306902045773"><ele>114.0</ele><time>2026-04-18T08:00:10Z</time></trkpt><trkpt lat="43.5485254800029" lon="10.71930254088508"><ele>114.0</ele><time>2026-04-18T08:00:11Z</time></trkpt><trkpt lat="43.54863830825465" lon="10.719299512503005"><ele>114.0</ele><time>2026-04-18T08:00:12Z</time></trkpt><trkpt lat="43.5487496070234" lon="10.71931209314494"><ele>114.0</ele><time>2026-04-18T08:00:13Z</time></trkpt><trkpt lat="43.548859324886976" lon="10.719333050786341"><ele>114.0</ele><time>2026-04-18T08:00:14Z</time></trkpt><trkpt lat="43.548966975119846" lon="10.719363408522781"><ele>118.0</ele><time>2026-04-18T08:00:15Z</time></trkpt><trkpt lat="43.54906665550436" lon="10.719401859555235"><ele>122.0</ele><time>2026-04-18T08:00:16Z</time></trkpt><trkpt lat="43.54915478593202" lon="10.719442526302222"><ele>126.0</ele><time>2026-04-18T08:00:17Z</time></trkpt><trkpt lat="43.54922815322181" lon="10.719497622633758"><ele>130.0</ele><time>2026-04-18T08:00:18Z</time></trkpt><trkpt lat="43.54929119337091" lon="10.719565548067203"><ele>134.0</ele><time>2026-04-18T08:00:19Z</time></trkpt><trkpt lat="43.549345687396034" lon="10.719641273709328"><ele>138.0</ele><time>2026-04-18T08:00:20Z</time></trkpt><trkpt lat="43.54939906667267" lon="10.719720065054112"><ele>138.0</ele><time>2026-04-18T08:00:21Z</time></trkpt><trkpt lat="43.54945131500559" lon="10.719801362624603"><ele>138.0</ele><time>2026-04-18T08:00:22Z</time></trkpt><trkpt lat="43.54949891246245" lon="10.719881387921319"><ele>138.0</ele><time>2026-04-18T08:00:23Z</time></trkpt><trkpt lat="43.54954242347512" lon="10.719959240152265"><ele>138.0</ele><time>2026-04-18T08:00:24Z</time></trkpt><trkpt lat="43.54958689428375" lon="10.720036140002899"><ele>138.0</ele><time>2026-04-18T08:00:25Z</time></trkpt><trkpt lat="43.54962911460239" lon="10.720119673509496"><ele>138.0</ele><time>2026-04-18T08:00:26Z</time></trkpt><trkpt lat="43.54966483642843" lon="10.720212127821489"><ele>138.0</ele><time>2026-04-18T08:00:27Z</time></trkpt><trkpt lat="43.54968799563973" lon="10.720316512479"><ele>136.33333333333334</ele><time>2026-04-18T08:00:28Z</time></trkpt><trkpt lat="43.549675610883845" lon="10.720433093270895"><ele>134.66666666666666</ele><time>2026-04-18T08:00:29Z</time></trkpt><trkpt lat="43.549686202411074" lon="10.720553097123526"><ele>133.0</ele><time>2026-04-18T08:00:30Z</time></trkpt><trkpt lat="43.54968115039326" lon="10.720671432987833"><ele>131.33333333333331</ele><time>2026-04-18T08:00:31Z</time></trkpt><trkpt lat="43.549667114697264" lon="10.720784674545977"><ele>129.66666666666666</ele><time>2026-04-18T08:00:32Z</time></trkpt><trkpt lat="43.549660231573334" lon="10.720896595649712"><ele>128.0</ele><time>2026-04-18T08:00:33Z</time></trkpt><trkpt lat="43.54965428019131" lon="10.721005608897396"><ele>129.0</ele><time>2026-04-18T08:00:34Z</time></trkpt><trkpt lat="43.549642813626825" lon="10.721107886986452"><ele>130.0</ele><time>2026-04-18T08:00:35Z</time></trkpt><trkpt lat="43.54962792605116" lon="10.72119384276723"><ele>131.0</ele><time>2026-04-18T08:00:36Z</time></trkpt><trkpt lat="43.549586810955866" lon="10.721315118666054"><ele>132.0</ele><time>2026-04-18T08:00:38Z</time></trkpt><trkpt lat="43.549564190365224" lon="10.721439351627941"><ele>133.0</ele><time>2026-04-18T08:00:40Z</time></trkpt><trkpt lat="43.54958877896784" lon="10.721598593808414"><ele>134.0</ele><time>2026-04-18T08:00:42Z</time></trkpt><trkpt lat="43.5496148906783" lon="10.721689013090089"><ele>134.0</ele><time>2026-04-18T08:00:43Z</time></trkpt><trkpt lat="43.54964842631259" lon="10.721785556127225"><ele>134.0</ele><time>2026-04-18T08:00:44Z</time></trkpt><trkpt lat="43.54968291563978" lon="10.721889808071058"><ele>134.0</ele><time>2026-04-18T08:00:45Z</time></trkpt><trkpt lat="43.549716734308134" lon="10.721995982536695"><ele>134.0</ele><time>2026-04-18T08:00:46Z</time></trkpt><trkpt lat="43.5497553685321" lon="10.722100528292389"><ele>134.0</ele><time>2026-04-18T08:00:47Z</time></trkpt><trkpt lat="43.54979102497312" lon="10.722212809048955"><ele>134.0</ele><time>2026-04-18T08:00:48Z</time></trkpt><trkpt lat="43.549821548381715" lon="10.722322149652708"><ele>133.83333333333331</ele><time>2026-04-18T08:00:49Z</time></trkpt><trkpt lat="43.54984121529464" lon="10.72242865897801"><ele>133.66666666666666</ele><time>2026-04-18T08:00:50Z</time></trkpt><trkpt lat="43.549848187122215" lon="10.722537209908728"><ele>133.5</ele><time>2026-04-18T08:00:51Z</time></trkpt><trkpt lat="43.54984371948389" lon="10.722644956503657"><ele>133.33333333333334</ele><time>2026-04-18T08:00:52Z</time></trkpt><trkpt lat="43.54983506188767" lon="10.722747082690786"><ele>133.16666666666669</ele><time>2026-04-18T08:00:53Z</time></trkpt><trkpt lat="43.5498335965594" lon="10.722841575058382"><ele>133.0</ele><time>2026-04-18T08:00:54Z</time></trkpt><trkpt lat="43.54984899413494" lon="10.722941377118822"><ele>133.0</ele><time>2026-04-18T08:00:55Z</time></trkpt><trkpt lat="43.54988401783012" lon="10.723043243062609"><ele>133.0</ele><time>2026-04-18T08:00:56Z</time></trkpt><trkpt lat="43.5499268169356" lon="10.723146781179882"><ele>133.0</ele><time>2026-04-18T08:00:57Z</time></trkpt><trkpt lat="43.54996803084344" lon="10.723255510056223"><ele>133.0</ele><time>2026-04-18T08:00:58Z</time></trkpt><trkpt lat="43.54999364683312" lon="10.723363880284557"><ele>133.0</ele><time>2026-04-18T08:00:59Z</time></trkpt><trkpt lat="43.550004343724034" lon="10.723477124902953"><ele>133.0</ele><time>2026-04-18T08:00:59.999Z</time></trkpt><trkpt lat="43.55001235857814" lon="10.72359186571811"><ele>131.16666666666669</ele><time>2026-04-18T08:01:00.999Z</time></trkpt><trkpt lat="43.55003189178035" lon="10.723703150089069"><ele>129.33333333333334</ele><time>2026-04-18T08:01:01.999Z</time></trkpt><trkpt lat="43.55006804267008" lon="10.723814647174548"><ele>127.5</ele><time>2026-04-18T08:01:02.999Z</time></trkpt><trkpt lat="43.550118040481124" lon="10.72391947854987"><ele>125.66666666666666</ele><time>2026-04-18T08:01:03.999Z</time></trkpt><trkpt lat="43.550172105221314" lon="10.72401798292052"><ele>123.83333333333333</ele><time>2026-04-18T08:01:04.999Z</time></trkpt><trkpt lat="43.550235046596306" lon="10.724107847889561"><ele>122.0</ele><time>2026-04-18T08:01:05.999Z</time></trkpt><trkpt lat="43.55030228776186" lon="10.72418372688831"><ele>122.8</ele><time>2026-04-18T08:01:06.999Z</time></trkpt><trkpt lat="43.550380299740524" lon="10.724236311691918"><ele>123.6</ele><time>2026-04-18T08:01:07.999Z</time></trkpt><trkpt lat="43.5504684916886" lon="10.724265391884446"><ele>124.39999999999999</ele><time>2026-04-18T08:01:08.999Z</time></trkpt><trkpt lat="43.55056248632085" lon="10.724281917554718"><ele>125.19999999999999</ele><time>2026-04-18T08:01:09.999Z</time></trkpt><trkpt lat="43.55066173491278" lon="10.724296460789958"><ele>126.0</ele><time>2026-04-18T08:01:10.999Z</time></trkpt><trkpt lat="43.55076852867543" lon="10.724314053685417"><ele>126.0</ele><time>2026-04-18T08:01:11.999Z</time></trkpt><trkpt lat="43.55088058809251" lon="10.724336502416877"><ele>126.0</ele><time>2026-04-18T08:01:12.999Z</time></trkpt><trkpt lat="43.5509957644341" lon="10.724365559717205"><ele>126.0</ele><time>2026-04-18T08:01:13.999Z</time></trkpt><trkpt lat="43.55111410923829" lon="10.724404858419987"><ele>126.0</ele><time>2026-04-18T08:01:14.999Z</time></trkpt><trkpt lat="43.551230303323955" lon="10.72444252814993"><ele>119.75</ele><time>2026-04-18T08:01:15.999Z</time></trkpt><trkpt lat="43.55134288707154" lon="10.724481069610388"><ele>113.5</ele><time>2026-04-18T08:01:16.999Z</time></trkpt><trkpt lat="43.551452908293996" lon="10.72452081320405"><ele>107.25</ele><time>2026-04-18T08:01:17.999Z</time></trkpt><trkpt lat="43.551561059878566" lon="10.724562851790669"><ele>101.0</ele><time>2026-04-18T08:01:18.999Z</time></trkpt><trkpt lat="43.551668829895156" lon="10.724598936474278"><ele>101.0</ele><time>2026-04-18T08:01:19.999Z</time></trkpt><trkpt lat="43.551780656586004" lon="10.724622731402935"><ele>101.0</ele><time>2026-04-18T08:01:20.999Z</time></trkpt><trkpt lat="43.551897752371424" lon="10.724633040578324"><ele>101.0</ele><time>2026-04-18T08:01:21.999Z</time></trkpt><trkpt lat="43.552019910090394" lon="10.724627837905201"><ele>101.0</ele><time>2026-04-18T08:01:22.999Z</time></trkpt><trkpt lat="43.55214450969001" lon="10.724612724957085"><ele>99.5</ele><time>2026-04-18T08:01:23.999Z</time></trkpt><trkpt lat="43.55227085430815" lon="10.724594517424967"><ele>98.0</ele><time>2026-04-18T08:01:24.999Z</time></trkpt><trkpt lat="43.552395238586996" lon="10.724584131642704"><ele>96.5</ele><time>2026-04-18T08:01:25.999Z</time></trkpt><trkpt lat="43.552521888370045" lon="10.724584659580879"><ele>95.0</ele><time>2026-04-18T08:01:26.999Z</time></trkpt><trkpt lat="43.55265163957314" lon="10.724603047183448"><ele>95.0</ele><time>2026-04-18T08:01:27.999Z</time></trkpt><trkpt lat="43.552787053055425" lon="10.724632603926445"><ele>95.0</ele><time>2026-04-18T08:01:28.999Z</time></trkpt><trkpt lat="43.55292864835805" lon="10.724663177631195"><ele>95.0</ele><time>2026-04-18T08:01:29.999Z</time></trkpt><trkpt lat="43.55307498142986" lon="10.724698656348059"><ele>95.0</ele><time>2026-04-18T08:01:30.999Z</time></trkpt><trkpt lat="43.553228752172195" lon="10.724735374413632"><ele>92.0</ele><time>2026-04-18T08:01:31.999Z</time></trkpt><trkpt lat="43.55339002682709" lon="10.724773292804487"><ele>89.0</ele><time>2026-04-18T08:01:32.999Z</time></trkpt><trkpt lat="43.55355478856713" lon="10.72481165546329"><ele>86.0</ele><time>2026-04-18T08:01:33.999Z</time></trkpt><trkpt lat="43.553726062772526" lon="10.72484827789303"><ele>84.33333333333334</ele><time>2026-04-18T08:01:34.999Z</time></trkpt><trkpt lat="43.55390381442801" lon="10.724884815352274"><ele>82.66666666666667</ele><time>2026-04-18T08:01:35.999Z</time></trkpt><trkpt lat="43.55408612876228" lon="10.724916128289282"><ele>81.0</ele><time>2026-04-18T08:01:36.999Z</time></trkpt><trkpt lat="43.55427061921141" lon="10.724937167714168"><ele>81.0</ele><time>2026-04-18T08:01:37.999Z</time></trkpt><trkpt lat="43.554458462683264" lon="10.72493554419186"><ele>81.0</ele><time>2026-04-18T08:01:39Z</time></trkpt><trkpt lat="43.55464603372976" lon="10.724927745087596"><ele>81.0</ele><time>2026-04-18T08:01:40Z</time></trkpt><trkpt lat="43.55483234860671" lon="10.724917487973158"><ele>78.0</ele><time>2026-04-18T08:01:41Z</time></trkpt><trkpt lat="43.55501781018929" lon="10.724909260691623"><ele>75.0</ele><time>2026-04-18T08:01:42Z</time></trkpt><trkpt lat="43.55520255565871" lon="10.724902404038401"><ele>72.0</ele><time>2026-04-18T08:01:43Z</time></trkpt><trkpt lat="43.555379450008715" lon="10.724900033480813"><ele>70.33333333333333</ele><time>2026-04-18T08:01:44Z</time></trkpt><trkpt lat="43.55555080114381" lon="10.724899729769907"><ele>68.66666666666666</ele><time>2026-04-18T08:01:45Z</time></trkpt><trkpt lat="43.5557235002455" lon="10.724902642229226"><ele>67.0</ele><time>2026-04-18T08:01:46Z</time></trkpt><trkpt lat="43.55589785433922" lon="10.72492366204548"><ele>67.0</ele><time>2026-04-18T08:01:47Z</time></trkpt><trkpt lat="43.55607153317663" lon="10.724971531026236"><ele>67.0</ele><time>2026-04-18T08:01:48Z</time></trkpt><trkpt lat="43.55624440562133" lon="10.72503492307358"><ele>67.0</ele><time>2026-04-18T08:01:49Z</time></trkpt><trkpt lat="43.556419617425945" lon="10.725100419555512"><ele>66.33333333333333</ele><time>2026-04-18T08:01:50Z</time></trkpt><trkpt lat="43.556595059771325" lon="10.725164091307509"><ele>65.66666666666667</ele><time>2026-04-18T08:01:51Z</time></trkpt><trkpt lat="43.55677120195805" lon="10.725226589419368"><ele>65.0</ele><time>2026-04-18T08:01:52Z</time></trkpt><trkpt lat="43.55694349500442" lon="10.72529416776988"><ele>60.0</ele><time>2026-04-18T08:01:53Z</time></trkpt><trkpt lat="43.557105463670666" lon="10.725390771214146"><ele>55.0</ele><time>2026-04-18T08:01:54Z</time></trkpt><trkpt lat="43.55725680308586" lon="10.725513285473106"><ele>50.0</ele><time>2026-04-18T08:01:55Z</time></trkpt><trkpt lat="43.55739238595157" lon="10.725657889986008"><ele>50.0</ele><time>2026-04-18T08:01:56Z</time></trkpt><trkpt lat="43.557512844491455" lon="10.725819843408287"><ele>50.0</ele><time>2026-04-18T08:01:57Z</time></trkpt><trkpt lat="43.55762082628413" lon="10.725993058359496"><ele>50.0</ele><time>2026-04-18T08:01:58Z</time></trkpt><trkpt lat="43.55772592456468" lon="10.726166372711068"><ele>49.333333333333336</ele><time>2026-04-18T08:01:59Z</time></trkpt><trkpt lat="43.557833373447956" lon="10.726340970240202"><ele>48.66666666666667</ele><time>2026-04-18T08:02:00Z</time></trkpt><trkpt lat="43.55794310829189" lon="10.726516674567318"><ele>48.0</ele><time>2026-04-18T08:02:01Z</time></trkpt><trkpt lat="43.558053656335744" lon="10.726695220865386"><ele>47.666666666666664</ele><time>2026-04-18T08:02:02Z</time></trkpt><trkpt lat="43.558168113308355" lon="10.72687536398212"><ele>47.33333333333333</ele><time>2026-04-18T08:02:03Z</time></trkpt><trkpt lat="43.55828333925148" lon="10.727057361150203"><ele>47.0</ele><time>2026-04-18T08:02:04Z</time></trkpt><trkpt lat="43.55839863821889" lon="10.727242897291754"><ele>47.0</ele><time>2026-04-18T08:02:05Z</time></trkpt><trkpt lat="43.55851586701368" lon="10.727425745719462"><ele>47.0</ele><time>2026-04-18T08:02:06Z</time></trkpt><trkpt lat="43.558633237299496" lon="10.727608940976378"><ele>47.0</ele><time>2026-04-18T08:02:07Z</time></trkpt><trkpt lat="43.558749132306986" lon="10.727790713666685"><ele>47.0</ele><time>2026-04-18T08:02:08Z</time></trkpt><trkpt lat="43.55886048126917" lon="10.727971528507723"><ele>47.0</ele><time>2026-04-18T08:02:09Z</time></trkpt><trkpt lat="43.558969964776956" lon="10.728149066935686"><ele>47.0</ele><time>2026-04-18T08:02:10Z</time></trkpt><trkpt lat="43.5590774533513" lon="10.728320373195874"><ele>47.0</ele><time>2026-04-18T08:02:11.001Z</time></trkpt><trkpt lat="43.559182821917986" lon="10.728489638812176"><ele>47.0</ele><time>2026-04-18T08:02:12.001Z</time></trkpt><trkpt lat="43.559289277247416" lon="10.728656884925526"><ele>47.0</ele><time>2026-04-18T08:02:13.001Z</time></trkpt><trkpt lat="43.55939590902587" lon="10.72882647895843"><ele>47.666666666666664</ele><time>2026-04-18T08:02:14.001Z</time></trkpt><trkpt lat="43.55950414110146" lon="10.728997189885394"><ele>48.33333333333333</ele><time>2026-04-18T08:02:15.001Z</time></trkpt><trkpt lat="43.55961136299384" lon="10.729171890966708"><ele>49.0</ele><time>2026-04-18T08:02:16.001Z</time></trkpt><trkpt lat="43.55972010657653" lon="10.72934548669197"><ele>47.666666666666664</ele><time>2026-04-18T08:02:17.001Z</time></trkpt><trkpt lat="43.55982915344684" lon="10.729517128271638"><ele>46.33333333333333</ele><time>2026-04-18T08:02:18.001Z</time></trkpt><trkpt lat="43.559939085487414" lon="10.729686361577093"><ele>45.0</ele><time>2026-04-18T08:02:19.001Z</time></trkpt><trkpt lat="43.56005547708297" lon="10.729850898626738"><ele>45.0</ele><time>2026-04-18T08:02:20.001Z</time></trkpt><trkpt lat="43.56015655614201" lon="10.73004571726562"><ele>45.0</ele><time>2026-04-18T08:02:21.001Z</time></trkpt><trkpt lat="43.56027673062171" lon="10.73023676796741"><ele>45.0</ele><time>2026-04-18T08:02:22.001Z</time></trkpt><trkpt lat="43.56040095114027" lon="10.730434189865441"><ele>45.0</ele><time>2026-04-18T08:02:23.001Z</time></trkpt><trkpt lat="43.56054028219052" lon="10.730627279222315"><ele>45.0</ele><time>2026-04-18T08:02:24.001Z</time></trkpt><trkpt lat="43.560668300954696" lon="10.730840454656157"><ele>45.0</ele><time>2026-04-18T08:02:25.001Z</time></trkpt><trkpt lat="43.56079674969891" lon="10.73105134694936"><ele>45.666666666666664</ele><time>2026-04-18T08:02:26.001Z</time></trkpt><trkpt lat="43.5609236346542" lon="10.731259756545107"><ele>46.33333333333333</ele><time>2026-04-18T08:02:27.001Z</time></trkpt><trkpt lat="43.56105018906973" lon="10.73146077202423"><ele>47.0</ele><time>2026-04-18T08:02:28.001Z</time></trkpt><trkpt lat="43.561174255015146" lon="10.731660944123478"><ele>46.33333333333333</ele><time>2026-04-18T08:02:29.001Z</time></trkpt><trkpt lat="43.5612971023545" lon="10.731858679627766"><ele>45.666666666666664</ele><time>2026-04-18T08:02:30.001Z</time></trkpt><trkpt lat="43.5614198540993" lon="10.732055249606114"><ele>45.0</ele><time>2026-04-18T08:02:31.001Z</time></trkpt><trkpt lat="43.561541814127935" lon="10.732251695636675"><ele>45.0</ele><time>2026-04-18T08:02:32.001Z</time></trkpt><trkpt lat="43.561661830647054" lon="10.732448022965045"><ele>45.0</ele><time>2026-04-18T08:02:33.001Z</time></trkpt><trkpt lat="43.561783343099826" lon="10.732639602508208"><ele>45.0</ele><time>2026-04-18T08:02:34.001Z</time></trkpt><trkpt lat="43.561904508523966" lon="10.732830721796395"><ele>45.333333333333336</ele><time>2026-04-18T08:02:35.001Z</time></trkpt><trkpt lat="43.56202398603944" lon="10.733020979178873"><ele>45.66666666666667</ele><time>2026-04-18T08:02:36.001Z</time></trkpt><trkpt lat="43.562144287204774" lon="10.733212572618642"><ele>46.0</ele><time>2026-04-18T08:02:37.001Z</time></trkpt><trkpt lat="43.56226407581266" lon="10.733406276551175"><ele>46.333333333333336</ele><time>2026-04-18T08:02:38.001Z</time></trkpt><trkpt lat="43.56238297636427" lon="10.733601245412775"><ele>46.666666666666664</ele><time>2026-04-18T08:02:39.001Z</time></trkpt><trkpt lat="43.56250449974496" lon="10.733792459838538"><ele>47.0</ele><time>2026-04-18T08:02:40.001Z</time></trkpt><trkpt lat="43.56262558610076" lon="10.73398519785886"><ele>47.0</ele><time>2026-04-18T08:02:41.001Z</time></trkpt><trkpt lat="43.56274814838059" lon="10.734175564842968"><ele>47.0</ele><time>2026-04-18T08:02:42.001Z</time></trkpt><trkpt lat="43.562868326030994" lon="10.7343695723353"><ele>47.0</ele><time>2026-04-18T08:02:43.001Z</time></trkpt><trkpt lat="43.56298036982931" lon="10.734572533623473"><ele>47.33333333333333</ele><time>2026-04-18T08:02:44.001Z</time></trkpt><trkpt lat="43.563085516434754" lon="10.73478282968056"><ele>47.666666666666664</ele><time>2026-04-18T08:02:45.001Z</time></trkpt><trkpt lat="43.56318540323167" lon="10.73499841958251"><ele>48.0</ele><time>2026-04-18T08:02:46.001Z</time></trkpt><trkpt lat="43.56327975083363" lon="10.73521992660866"><ele>47.666666666666664</ele><time>2026-04-18T08:02:47.001Z</time></trkpt><trkpt lat="43.56337324952533" lon="10.73544146085615"><ele>47.33333333333333</ele><time>2026-04-18T08:02:48.001Z</time></trkpt><trkpt lat="43.56346722424789" lon="10.735663827507487"><ele>47.0</ele><time>2026-04-18T08:02:49.001Z</time></trkpt><trkpt lat="43.56355988006322" lon="10.73588652241106"><ele>47.33333333333333</ele><time>2026-04-18T08:02:50.001Z</time></trkpt><trkpt lat="43.56365458339831" lon="10.736109058444068"><ele>47.666666666666664</ele><time>2026-04-18T08:02:51.001Z</time></trkpt><trkpt lat="43.563748623576046" lon="10.73633196857392"><ele>48.0</ele><time>2026-04-18T08:02:52.001Z</time></trkpt><trkpt lat="43.56384380171691" lon="10.736554242752485"><ele>48.0</ele><time>2026-04-18T08:02:53.001Z</time></trkpt><trkpt lat="43.563937914940055" lon="10.73677365412734"><ele>48.0</ele><time>2026-04-18T08:02:54.001Z</time></trkpt><trkpt lat="43.56402954974571" lon="10.736988414635912"><ele>48.0</ele><time>2026-04-18T08:02:55.001Z</time></trkpt><trkpt lat="43.56411888878403" lon="10.737198104677686"><ele>48.0</ele><time>2026-04-18T08:02:56.001Z</time></trkpt><trkpt lat="43.56420519479471" lon="10.737403113959232"><ele>48.0</ele><time>2026-04-18T08:02:57.001Z</time></trkpt><trkpt lat="43.564288867977915" lon="10.737603599506489"><ele>48.0</ele><time>2026-04-18T08:02:58.001Z</time></trkpt><trkpt lat="43.56437020237263" lon="10.737799214879837"><ele>48.0</ele><time>2026-04-18T08:02:59.001Z</time></trkpt><trkpt lat="43.56444809913928" lon="10.737989628721074"><ele>48.0</ele><time>2026-04-18T08:03:00.001Z</time></trkpt><trkpt lat="43.56452618696772" lon="10.738174460716596"><ele>48.0</ele><time>2026-04-18T08:03:01.001Z</time></trkpt><trkpt lat="43.564606097947824" lon="10.738352210317675"><ele>48.25</ele><time>2026-04-18T08:03:02.001Z</time></trkpt><trkpt lat="43.56468860634289" lon="10.738519040929688"><ele>48.5</ele><time>2026-04-18T08:03:03.001Z</time></trkpt><trkpt lat="43.564771902651614" lon="10.738671613206177"><ele>48.75</ele><time>2026-04-18T08:03:04.001Z</time></trkpt><trkpt lat="43.56485340564375" lon="10.738810891933388"><ele>49.0</ele><time>2026-04-18T08:03:05.001Z</time></trkpt><trkpt lat="43.56492921515209" lon="10.738935991695461"><ele>49.400000000000006</ele><time>2026-04-18T08:03:06Z</time></trkpt><trkpt lat="43.56499426839921" lon="10.739045177999891"><ele>49.8</ele><time>2026-04-18T08:03:07Z</time></trkpt><trkpt lat="43.56503465421541" lon="10.739133738644563"><ele>50.2</ele><time>2026-04-18T08:03:08Z</time></trkpt><trkpt lat="43.56505628843909" lon="10.73927310696077"><ele>50.599999999999994</ele><time>2026-04-18T08:03:10Z</time></trkpt><trkpt lat="43.5650347685858" lon="10.739414206916509"><ele>51.0</ele><time>2026-04-18T08:03:12Z</time></trkpt><trkpt lat="43.565008887074946" lon="10.739496872917297"><ele>51.4</ele><time>2026-04-18T08:03:13Z</time></trkpt><trkpt lat="43.56496613324032" lon="10.739587047135233"><ele>51.8</ele><time>2026-04-18T08:03:14Z</time></trkpt><trkpt lat="43.56491362931087" lon="10.73968605096613"><ele>52.199999999999996</ele><time>2026-04-18T08:03:15Z</time></trkpt><trkpt lat="43.56485285104657" lon="10.739799791884366"><ele>52.599999999999994</ele><time>2026-04-18T08:03:16Z</time></trkpt><trkpt lat="43.56478310794562" lon="10.739931614013326"><ele>53.0</ele><time>2026-04-18T08:03:17Z</time></trkpt><trkpt lat="43.564706844829594" lon="10.740074696230257"><ele>53.0</ele><time>2026-04-18T08:03:18Z</time></trkpt><trkpt lat="43.564621207013815" lon="10.74022711784106"><ele>53.0</ele><time>2026-04-18T08:03:19Z</time></trkpt><trkpt lat="43.564528328034974" lon="10.740387613538088"><ele>53.0</ele><time>2026-04-18T08:03:20Z</time></trkpt><trkpt lat="43.564431147085806" lon="10.740557067871197"><ele>53.0</ele><time>2026-04-18T08:03:21Z</time></trkpt><trkpt lat="43.56432963240189" lon="10.74073320527832"><ele>52.333333333333336</ele><time>2026-04-18T08:03:22Z</time></trkpt><trkpt lat="43.56422511630515" lon="10.740915728575883"><ele>51.66666666666667</ele><time>2026-04-18T08:03:23Z</time></trkpt><trkpt lat="43.56411707875461" lon="10.741104005959784"><ele>51.0</ele><time>2026-04-18T08:03:24Z</time></trkpt><trkpt lat="43.564007840664054" lon="10.741295581227565"><ele>52.33333333333333</ele><time>2026-04-18T08:03:25Z</time></trkpt><trkpt lat="43.56389824352537" lon="10.741489986324305"><ele>53.666666666666664</ele><time>2026-04-18T08:03:26Z</time></trkpt><trkpt lat="43.56378823118486" lon="10.741685759628108"><ele>55.0</ele><time>2026-04-18T08:03:27Z</time></trkpt><trkpt lat="43.56368058931158" lon="10.741883742689422"><ele>55.0</ele><time>2026-04-18T08:03:28Z</time></trkpt><trkpt lat="43.563571441655185" lon="10.7420815550846"><ele>55.0</ele><time>2026-04-18T08:03:29Z</time></trkpt><trkpt lat="43.56346137930678" lon="10.742278052379596"><ele>55.0</ele><time>2026-04-18T08:03:30Z</time></trkpt><trkpt lat="43.56335054855998" lon="10.74247508087463"><ele>55.0</ele><time>2026-04-18T08:03:31Z</time></trkpt><trkpt lat="43.56324150354031" lon="10.74266798955392"><ele>55.0</ele><time>2026-04-18T08:03:32Z</time></trkpt><trkpt lat="43.56313417634469" lon="10.742856915137555"><ele>55.0</ele><time>2026-04-18T08:03:33Z</time></trkpt><trkpt lat="43.56302784305787" lon="10.743041622089534"><ele>55.0</ele><time>2026-04-18T08:03:34Z</time></trkpt><trkpt lat="43.56292515719119" lon="10.743223901969941"><ele>55.0</ele><time>2026-04-18T08:03:35Z</time></trkpt><trkpt lat="43.56282389745703" lon="10.743402188422259"><ele>55.0</ele><time>2026-04-18T08:03:36Z</time></trkpt><trkpt lat="43.56272530784356" lon="10.743578265251648"><ele>55.0</ele><time>2026-04-18T08:03:37.001Z</time></trkpt><trkpt lat="43.56263225590376" lon="10.743753521590556"><ele>55.0</ele><time>2026-04-18T08:03:38.001Z</time></trkpt><trkpt lat="43.562542822677194" lon="10.743928562182957"><ele>55.0</ele><time>2026-04-18T08:03:39.001Z</time></trkpt><trkpt lat="43.5624609174258" lon="10.744110880229657"><ele>55.0</ele><time>2026-04-18T08:03:40.001Z</time></trkpt><trkpt lat="43.5623875774288" lon="10.744300954714607"><ele>55.0</ele><time>2026-04-18T08:03:41.001Z</time></trkpt><trkpt lat="43.56232427164337" lon="10.744497209241377"><ele>55.0</ele><time>2026-04-18T08:03:42.001Z</time></trkpt><trkpt lat="43.56227299004518" lon="10.744696183248665"><ele>56.0</ele><time>2026-04-18T08:03:43.001Z</time></trkpt><trkpt lat="43.56223179008888" lon="10.744896042639118"><ele>57.0</ele><time>2026-04-18T08:03:44.001Z</time></trkpt><trkpt lat="43.56219871856213" lon="10.745101023987749"><ele>58.0</ele><time>2026-04-18T08:03:45.001Z</time></trkpt><trkpt lat="43.5621746206443" lon="10.745308620780225"><ele>58.0</ele><time>2026-04-18T08:03:46.001Z</time></trkpt><trkpt lat="43.56215548930302" lon="10.745517809121894"><ele>58.0</ele><time>2026-04-18T08:03:47.001Z</time></trkpt><trkpt lat="43.56214448064608" lon="10.745729426676078"><ele>58.0</ele><time>2026-04-18T08:03:48.001Z</time></trkpt><trkpt lat="43.562139808845146" lon="10.745939158415737"><ele>57.0</ele><time>2026-04-18T08:03:49.001Z</time></trkpt><trkpt lat="43.562140131587675" lon="10.746144749703065"><ele>56.0</ele><time>2026-04-18T08:03:50.001Z</time></trkpt><trkpt lat="43.56214720471619" lon="10.746346549364421"><ele>55.0</ele><time>2026-04-18T08:03:51.001Z</time></trkpt><trkpt lat="43.56216237274962" lon="10.746543373765983"><ele>54.0</ele><time>2026-04-18T08:03:52.001Z</time></trkpt><trkpt lat="43.56218688253253" lon="10.746727394592227"><ele>53.5</ele><time>2026-04-18T08:03:53.001Z</time></trkpt><trkpt lat="43.562220554372246" lon="10.746896322158072"><ele>53.0</ele><time>2026-04-18T08:03:54.001Z</time></trkpt><trkpt lat="43.562259954065965" lon="10.74705767373364"><ele>52.5</ele><time>2026-04-18T08:03:55.001Z</time></trkpt><trkpt lat="43.562303298753996" lon="10.74721111636387"><ele>52.0</ele><time>2026-04-18T08:03:56.001Z</time></trkpt><trkpt lat="43.56234999499522" lon="10.747366504476998"><ele>52.0</ele><time>2026-04-18T08:03:57.001Z</time></trkpt><trkpt lat="43.562400568555944" lon="10.747525008866115"><ele>52.0</ele><time>2026-04-18T08:03:58.001Z</time></trkpt><trkpt lat="43.56245381431574" lon="10.74768686960203"><ele>52.0</ele><time>2026-04-18T08:03:59.001Z</time></trkpt><trkpt lat="43.56251031587937" lon="10.747851100436533"><ele>52.0</ele><time>2026-04-18T08:04:00.001Z</time></trkpt><trkpt lat="43.56256530867234" lon="10.748015523520774"><ele>52.0</ele><time>2026-04-18T08:04:01.001Z</time></trkpt><trkpt lat="43.562618125061896" lon="10.748171079403903"><ele>52.0</ele><time>2026-04-18T08:04:02.001Z</time></trkpt><trkpt lat="43.56266511332312" lon="10.748309535319624"><ele>52.0</ele><time>2026-04-18T08:04:03.001Z</time></trkpt><trkpt lat="43.562704453584395" lon="10.748427620296521"><ele>52.0</ele><time>2026-04-18T08:04:04.001Z</time></trkpt><trkpt lat="43.56273082329975" lon="10.748524095339215"><ele>52.0</ele><time>2026-04-18T08:04:05.001Z</time></trkpt><trkpt lat="43.56272851933869" lon="10.748687148288278"><ele>52.0</ele><time>2026-04-18T08:04:07.001Z</time></trkpt><trkpt lat="43.56265448956663" lon="10.74883322172456"><ele>52.0</ele><time>2026-04-18T08:04:09.001Z</time></trkpt><trkpt lat="43.56259274125701" lon="10.748889062626963"><ele>52.0</ele><time>2026-04-18T08:04:10.001Z</time></trkpt><trkpt lat="43.56252698861789" lon="10.748951756708069"><ele>52.0</ele><time>2026-04-18T08:04:11.001Z</time></trkpt><trkpt lat="43.56243069562756" lon="10.748928882761398"><ele>52.0</ele><time>2026-04-18T08:04:12.001Z</time></trkpt><trkpt lat="43.56233563901718" lon="10.748925190390713"><ele>52.0</ele><time>2026-04-18T08:04:13.001Z</time></trkpt><trkpt lat="43.56223506295783" lon="10.748912076759128"><ele>52.0</ele><time>2026-04-18T08:04:14.001Z</time></trkpt><trkpt lat="43.56212998386086" lon="10.748894586265315"><ele>52.0</ele><time>2026-04-18T08:04:15.001Z</time></trkpt><trkpt lat="43.562021808765934" lon="10.748872407161377"><ele>52.0</ele><time>2026-04-18T08:04:16.001Z</time></trkpt><trkpt lat="43.56191059851319" lon="10.748850107362806"><ele>52.0</ele><time>2026-04-18T08:04:17.001Z</time></trkpt><trkpt lat="43.561797875581334" lon="10.748827487615275"><ele>51.5</ele><time>2026-04-18T08:04:18.001Z</time></trkpt><trkpt lat="43.56168357581863" lon="10.748809016769131"><ele>51.0</ele><time>2026-04-18T08:04:19.001Z</time></trkpt><trkpt lat="43.5615699800155" lon="10.748793992826613"><ele>50.5</ele><time>2026-04-18T08:04:20.001Z</time></trkpt><trkpt lat="43.56145869983423" lon="10.748782205290766"><ele>50.0</ele><time>2026-04-18T08:04:21.001Z</time></trkpt><trkpt lat="43.56134453782211" lon="10.74877989517848"><ele>50.0</ele><time>2026-04-18T08:04:22.001Z</time></trkpt><trkpt lat="43.56122914198919" lon="10.748797534765588"><ele>50.0</ele><time>2026-04-18T08:04:23.001Z</time></trkpt><trkpt lat="43.561113853226466" lon="10.748827385514165"><ele>50.0</ele><time>2026-04-18T08:04:24.001Z</time></trkpt><trkpt lat="43.560997755144456" lon="10.748861548053432"><ele>50.0</ele><time>2026-04-18T08:04:25.001Z</time></trkpt><trkpt lat="43.560874564002944" lon="10.748898449631632"><ele>50.25</ele><time>2026-04-18T08:04:26.001Z</time></trkpt><trkpt lat="43.56074952060398" lon="10.748933582599445"><ele>50.5</ele><time>2026-04-18T08:04:27.001Z</time></trkpt><trkpt lat="43.56062203120641" lon="10.748966471481673"><ele>50.75</ele><time>2026-04-18T08:04:28.001Z</time></trkpt><trkpt lat="43.56049172252176" lon="10.74899485430475"><ele>51.0</ele><time>2026-04-18T08:04:29.001Z</time></trkpt><trkpt lat="43.560361845920376" lon="10.749024498161953"><ele>51.0</ele><time>2026-04-18T08:04:30.001Z</time></trkpt><trkpt lat="43.56023150257279" lon="10.749058945555655"><ele>51.0</ele><time>2026-04-18T08:04:31.001Z</time></trkpt><trkpt lat="43.56010130999071" lon="10.74909746588741"><ele>51.0</ele><time>2026-04-18T08:04:32.001Z</time></trkpt><trkpt lat="43.55997304757565" lon="10.749139727155951"><ele>51.0</ele><time>2026-04-18T08:04:33.001Z</time></trkpt><trkpt lat="43.559849977097414" lon="10.749188120689636"><ele>51.0</ele><time>2026-04-18T08:04:34.001Z</time></trkpt><trkpt lat="43.559734237568414" lon="10.749252168604935"><ele>51.0</ele><time>2026-04-18T08:04:35.001Z</time></trkpt><trkpt lat="43.55962340747412" lon="10.749339827786175"><ele>51.0</ele><time>2026-04-18T08:04:36.001Z</time></trkpt><trkpt lat="43.55952242235201" lon="10.749452297110816"><ele>51.0</ele><time>2026-04-18T08:04:37.001Z</time></trkpt><trkpt lat="43.559435441902004" lon="10.749588834976896"><ele>51.0</ele><time>2026-04-18T08:04:38.001Z</time></trkpt><trkpt lat="43.55935228946091" lon="10.749722906739937"><ele>51.0</ele><time>2026-04-18T08:04:39.001Z</time></trkpt><trkpt lat="43.559269506515676" lon="10.74985011831279"><ele>51.0</ele><time>2026-04-18T08:04:40.001Z</time></trkpt><trkpt lat="43.55919802394902" lon="10.749956610624745"><ele>51.0</ele><time>2026-04-18T08:04:41.001Z</time></trkpt><trkpt lat="43.559129324868955" lon="10.750051681056492"><ele>51.0</ele><time>2026-04-18T08:04:42.001Z</time></trkpt><trkpt lat="43.55906454132213" lon="10.750138948682928"><ele>51.0</ele><time>2026-04-18T08:04:43.001Z</time></trkpt><trkpt lat="43.55900264429164" lon="10.750219241521789"><ele>51.0</ele><time>2026-04-18T08:04:44.001Z</time></trkpt><trkpt lat="43.558943791742806" lon="10.750289621527765"><ele>51.0</ele><time>2026-04-18T08:04:45.001Z</time></trkpt><trkpt lat="43.55889724518752" lon="10.750354605302306"><ele>51.0</ele><time>2026-04-18T08:04:46.001Z</time></trkpt><trkpt lat="43.55887357413353" lon="10.750521047117614"><ele>51.0</ele><time>2026-04-18T08:04:48.001Z</time></trkpt><trkpt lat="43.55890098196181" lon="10.750599380599676"><ele>51.833333333333336</ele><time>2026-04-18T08:04:49.001Z</time></trkpt><trkpt lat="43.55894311431905" lon="10.750677408248334"><ele>52.66666666666667</ele><time>2026-04-18T08:04:50.001Z</time></trkpt><trkpt lat="43.55898759947258" lon="10.750759879951113"><ele>53.5</ele><time>2026-04-18T08:04:51.001Z</time></trkpt><trkpt lat="43.55903902769662" lon="10.750858570951838"><ele>54.333333333333336</ele><time>2026-04-18T08:04:52.001Z</time></trkpt><trkpt lat="43.559092572452855" lon="10.750969839478019"><ele>55.16666666666667</ele><time>2026-04-18T08:04:53.001Z</time></trkpt><trkpt lat="43.559128734902046" lon="10.751093295286484"><ele>56.0</ele><time>2026-04-18T08:04:54.001Z</time></trkpt><trkpt lat="43.559148048525984" lon="10.751227736929792"><ele>57.0</ele><time>2026-04-18T08:04:55.001Z</time></trkpt><trkpt lat="43.55915160173618" lon="10.751370894010215"><ele>57.99999999999999</ele><time>2026-04-18T08:04:56.001Z</time></trkpt><trkpt lat="43.55916288330396" lon="10.751512154847703"><ele>58.99999999999999</ele><time>2026-04-18T08:04:57.001Z</time></trkpt><trkpt lat="43.559172713765356" lon="10.751655145094709"><ele>60.0</ele><time>2026-04-18T08:04:58.001Z</time></trkpt><trkpt lat="43.559188088198496" lon="10.751788438307514"><ele>61.0</ele><time>2026-04-18T08:04:59.001Z</time></trkpt><trkpt lat="43.55919673864641" lon="10.75190107396186"><ele>61.71428571428571</ele><time>2026-04-18T08:05:00.001Z</time></trkpt><trkpt lat="43.5591915865491" lon="10.752004438890049"><ele>62.42857142857143</ele><time>2026-04-18T08:05:01.001Z</time></trkpt><trkpt lat="43.559163925405386" lon="10.752095701871676"><ele>63.14285714285714</ele><time>2026-04-18T08:05:02.001Z</time></trkpt><trkpt lat="43.559098359835126" lon="10.752163431497221"><ele>63.857142857142854</ele><time>2026-04-18T08:05:03.001Z</time></trkpt><trkpt lat="43.55903902557311" lon="10.752219448266422"><ele>64.57142857142857</ele><time>2026-04-18T08:05:04.001Z</time></trkpt><trkpt lat="43.55897183642384" lon="10.752252920979206"><ele>65.28571428571428</ele><time>2026-04-18T08:05:05.001Z</time></trkpt><trkpt lat="43.55890210611544" lon="10.752288103609072"><ele>66.0</ele><time>2026-04-18T08:05:06.001Z</time></trkpt><trkpt lat="43.558829391402206" lon="10.752319517306486"><ele>66.0</ele><time>2026-04-18T08:05:07.001Z</time></trkpt><trkpt lat="43.5587591550712" lon="10.752357940933525"><ele>66.0</ele><time>2026-04-18T08:05:08.001Z</time></trkpt><trkpt lat="43.558695442209014" lon="10.75241210270924"><ele>66.0</ele><time>2026-04-18T08:05:09.001Z</time></trkpt><trkpt lat="43.55864787729746" lon="10.752484484151145"><ele>66.0</ele><time>2026-04-18T08:05:10.001Z</time></trkpt><trkpt lat="43.5586134656866" lon="10.752576980154398"><ele>66.0</ele><time>2026-04-18T08:05:11.001Z</time></trkpt><trkpt lat="43.55858516673252" lon="10.752676028882407"><ele>66.0</ele><time>2026-04-18T08:05:12Z</time></trkpt><trkpt lat="43.55856207374926" lon="10.75277088272059"><ele>66.0</ele><time>2026-04-18T08:05:13Z</time></trkpt><trkpt lat="43.558542922559894" lon="10.752868365832033"><ele>67.16666666666667</ele><time>2026-04-18T08:05:14Z</time></trkpt><trkpt lat="43.55852812410714" lon="10.752969230700884"><ele>68.33333333333333</ele><time>2026-04-18T08:05:15Z</time></trkpt><trkpt lat="43.55851987279399" lon="10.753069084176119"><ele>69.5</ele><time>2026-04-18T08:05:16Z</time></trkpt><trkpt lat="43.55851069593472" lon="10.753186260701826"><ele>70.66666666666666</ele><time>2026-04-18T08:05:17Z</time></trkpt><trkpt lat="43.55849921496227" lon="10.753308902317485"><ele>71.83333333333333</ele><time>2026-04-18T08:05:18Z</time></trkpt><trkpt lat="43.55848570417367" lon="10.753434931715756"><ele>73.0</ele><time>2026-04-18T08:05:19Z</time></trkpt><trkpt lat="43.55847226382792" lon="10.753572683513797"><ele>75.0</ele><time>2026-04-18T08:05:20Z</time></trkpt><trkpt lat="43.558454247540666" lon="10.753714708606473"><ele>77.0</ele><time>2026-04-18T08:05:21Z</time></trkpt><trkpt lat="43.55841578849651" lon="10.753849900102049"><ele>79.0</ele><time>2026-04-18T08:05:22Z</time></trkpt><trkpt lat="43.558404080292966" lon="10.753991656060958"><ele>81.0</ele><time>2026-04-18T08:05:23Z</time></trkpt><trkpt lat="43.558369705509556" lon="10.75412745686891"><ele>83.0</ele><time>2026-04-18T08:05:24Z</time></trkpt><trkpt lat="43.55833757969673" lon="10.754263265899606"><ele>84.4</ele><time>2026-04-18T08:05:25Z</time></trkpt><trkpt lat="43.55831400491967" lon="10.754403963617351"><ele>85.80000000000001</ele><time>2026-04-18T08:05:26Z</time></trkpt><trkpt lat="43.55828738357835" lon="10.754543883757611"><ele>87.2</ele><time>2026-04-18T08:05:27Z</time></trkpt><trkpt lat="43.55826472872792" lon="10.754678455796423"><ele>88.6</ele><time>2026-04-18T08:05:28Z</time></trkpt><trkpt lat="43.55823830873376" lon="10.754808178364076"><ele>90.0</ele><time>2026-04-18T08:05:29Z</time></trkpt><trkpt lat="43.558210409130425" lon="10.754929973472736"><ele>90.0</ele><time>2026-04-18T08:05:30Z</time></trkpt><trkpt lat="43.558184768603695" lon="10.755052182852914"><ele>90.0</ele><time>2026-04-18T08:05:31Z</time></trkpt><trkpt lat="43.558154246703" lon="10.755174794269998"><ele>90.0</ele><time>2026-04-18T08:05:32Z</time></trkpt><trkpt lat="43.5581017081779" lon="10.755284077285804"><ele>90.0</ele><time>2026-04-18T08:05:33Z</time></trkpt><trkpt lat="43.558049014795486" lon="10.75538933477683"><ele>90.0</ele><time>2026-04-18T08:05:34Z</time></trkpt><trkpt lat="43.55799500405172" lon="10.755494887143387"><ele>90.0</ele><time>2026-04-18T08:05:35Z</time></trkpt><trkpt lat="43.55794061546518" lon="10.755601177769124"><ele>90.0</ele><time>2026-04-18T08:05:36Z</time></trkpt><trkpt lat="43.557902645004255" lon="10.755727139875171"><ele>90.0</ele><time>2026-04-18T08:05:37Z</time></trkpt><trkpt lat="43.55785345457393" lon="10.755835933905924"><ele>90.0</ele><time>2026-04-18T08:05:38Z</time></trkpt><trkpt lat="43.55781057269461" lon="10.755940186573579"><ele>90.0</ele><time>2026-04-18T08:05:39Z</time></trkpt><trkpt lat="43.557769552072955" lon="10.756044062522243"><ele>90.33333333333333</ele><time>2026-04-18T08:05:40Z</time></trkpt><trkpt lat="43.557766049147865" lon="10.756157054692187"><ele>90.66666666666667</ele><time>2026-04-18T08:05:41Z</time></trkpt><trkpt lat="43.55779452670056" lon="10.756271375147556"><ele>91.0</ele><time>2026-04-18T08:05:42Z</time></trkpt><trkpt lat="43.55784140838394" lon="10.756376742024733"><ele>91.33333333333334</ele><time>2026-04-18T08:05:43Z</time></trkpt><trkpt lat="43.5578827243369" lon="10.75648042328278"><ele>91.66666666666667</ele><time>2026-04-18T08:05:44Z</time></trkpt><trkpt lat="43.55791919860117" lon="10.756591811902691"><ele>92.0</ele><time>2026-04-18T08:05:45Z</time></trkpt><trkpt lat="43.55794147790448" lon="10.756708131634577"><ele>93.19999999999999</ele><time>2026-04-18T08:05:46Z</time></trkpt><trkpt lat="43.55795569241853" lon="10.756825851867069"><ele>94.4</ele><time>2026-04-18T08:05:47Z</time></trkpt><trkpt lat="43.557960792103536" lon="10.756942487131786"><ele>95.6</ele><time>2026-04-18T08:05:48Z</time></trkpt><trkpt lat="43.55795705082801" lon="10.757064392471797"><ele>96.80000000000001</ele><time>2026-04-18T08:05:49Z</time></trkpt><trkpt lat="43.557947294730845" lon="10.757195612192245"><ele>98.0</ele><time>2026-04-18T08:05:50Z</time></trkpt><trkpt lat="43.55792664297322" lon="10.757341642169663"><ele>98.0</ele><time>2026-04-18T08:05:51Z</time></trkpt><trkpt lat="43.557899688655155" lon="10.757490010430507"><ele>98.0</ele><time>2026-04-18T08:05:52Z</time></trkpt><trkpt lat="43.55787330453904" lon="10.75764962756712"><ele>98.0</ele><time>2026-04-18T08:05:53Z</time></trkpt><trkpt lat="43.55784882698074" lon="10.757797710328845"><ele>98.0</ele><time>2026-04-18T08:05:54Z</time></trkpt><trkpt lat="43.55782840307631" lon="10.757990005939705"><ele>98.5</ele><time>2026-04-18T08:05:55Z</time></trkpt><trkpt lat="43.55778675013996" lon="10.758144736978775"><ele>99.0</ele><time>2026-04-18T08:05:56Z</time></trkpt><trkpt lat="43.557752786386736" lon="10.758303762259558"><ele>99.5</ele><time>2026-04-18T08:05:57Z</time></trkpt><trkpt lat="43.55770606743646" lon="10.7584548692941"><ele>100.0</ele><time>2026-04-18T08:05:58Z</time></trkpt><trkpt lat="43.55764609028166" lon="10.758601851564649"><ele>101.8</ele><time>2026-04-18T08:05:59.001Z</time></trkpt><trkpt lat="43.55758905910615" lon="10.758733868636126"><ele>103.6</ele><time>2026-04-18T08:06:00.001Z</time></trkpt><trkpt lat="43.55753748348143" lon="10.75886387711874"><ele>105.4</ele><time>2026-04-18T08:06:01.001Z</time></trkpt><trkpt lat="43.55746468081656" lon="10.758963396518652"><ele>107.2</ele><time>2026-04-18T08:06:02.001Z</time></trkpt><trkpt lat="43.55739291486043" lon="10.75906256881002"><ele>109.0</ele><time>2026-04-18T08:06:03.001Z</time></trkpt><trkpt lat="43.55732035708932" lon="10.759153606538662"><ele>109.00000000000001</ele><time>2026-04-18T08:06:04.001Z</time></trkpt><trkpt lat="43.557247949089614" lon="10.759241762201574"><ele>109.0</ele><time>2026-04-18T08:06:05.001Z</time></trkpt><trkpt lat="43.55717732031679" lon="10.759329365553043"><ele>109.0</ele><time>2026-04-18T08:06:06.001Z</time></trkpt><trkpt lat="43.557108339835736" lon="10.759402309201292"><ele>109.0</ele><time>2026-04-18T08:06:07.001Z</time></trkpt><trkpt lat="43.557078024809016" lon="10.759512180728132"><ele>109.00000000000001</ele><time>2026-04-18T08:06:08.001Z</time></trkpt><trkpt lat="43.55705826139985" lon="10.759611721361535"><ele>109.0</ele><time>2026-04-18T08:06:09.001Z</time></trkpt><trkpt lat="43.55705961843442" lon="10.759710634815178"><ele>110.2</ele><time>2026-04-18T08:06:10.001Z</time></trkpt><trkpt lat="43.55707563709908" lon="10.759816651751663"><ele>111.4</ele><time>2026-04-18T08:06:11.001Z</time></trkpt><trkpt lat="43.55708825998663" lon="10.7599275911155"><ele>112.6</ele><time>2026-04-18T08:06:12.001Z</time></trkpt><trkpt lat="43.557116641841226" lon="10.760053835588185"><ele>113.8</ele><time>2026-04-18T08:06:13.001Z</time></trkpt><trkpt lat="43.55715146644729" lon="10.760186010684484"><ele>115.0</ele><time>2026-04-18T08:06:14.001Z</time></trkpt><trkpt lat="43.55717966605988" lon="10.760316774917486"><ele>116.0</ele><time>2026-04-18T08:06:15.001Z</time></trkpt><trkpt lat="43.557200362483655" lon="10.760451653449046"><ele>117.0</ele><time>2026-04-18T08:06:16.001Z</time></trkpt><trkpt lat="43.55722026812153" lon="10.76058602542404"><ele>118.0</ele><time>2026-04-18T08:06:17.001Z</time></trkpt><trkpt lat="43.557254367336675" lon="10.760746875502702"><ele>119.0</ele><time>2026-04-18T08:06:18.001Z</time></trkpt><trkpt lat="43.55728159378162" lon="10.76089025616169"><ele>120.0</ele><time>2026-04-18T08:06:19.001Z</time></trkpt><trkpt lat="43.55730956897763" lon="10.761055924899185"><ele>121.0</ele><time>2026-04-18T08:06:20.001Z</time></trkpt><trkpt lat="43.55734262627857" lon="10.761224606165243"><ele>122.0</ele><time>2026-04-18T08:06:21.001Z</time></trkpt><trkpt lat="43.557379862392075" lon="10.761394204972905"><ele>123.0</ele><time>2026-04-18T08:06:22.001Z</time></trkpt><trkpt lat="43.557416174765876" lon="10.761561415737544"><ele>124.0</ele><time>2026-04-18T08:06:23.001Z</time></trkpt><trkpt lat="43.55745094947763" lon="10.761729165531225"><ele>124.75</ele><time>2026-04-18T08:06:24.001Z</time></trkpt><trkpt lat="43.55749076166725" lon="10.761895275294167"><ele>125.5</ele><time>2026-04-18T08:06:25.001Z</time></trkpt><trkpt lat="43.55752692748672" lon="10.762058368908477"><ele>126.25</ele><time>2026-04-18T08:06:26.001Z</time></trkpt><trkpt lat="43.55755561201269" lon="10.762219202019091"><ele>127.0</ele><time>2026-04-18T08:06:27.001Z</time></trkpt><trkpt lat="43.55758300225649" lon="10.762371784936853"><ele>127.0</ele><time>2026-04-18T08:06:28.001Z</time></trkpt><trkpt lat="43.55760073784289" lon="10.762513974437347"><ele>126.99999999999999</ele><time>2026-04-18T08:06:29.001Z</time></trkpt><trkpt lat="43.55760501003317" lon="10.762652476809567"><ele>126.99999999999999</ele><time>2026-04-18T08:06:30.001Z</time></trkpt><trkpt lat="43.55760105643418" lon="10.762791639909842"><ele>127.0</ele><time>2026-04-18T08:06:31.001Z</time></trkpt><trkpt lat="43.55759638612454" lon="10.762931689524285"><ele>127.0</ele><time>2026-04-18T08:06:32.001Z</time></trkpt><trkpt lat="43.55758844434334" lon="10.763065445837622"><ele>128.0</ele><time>2026-04-18T08:06:33.001Z</time></trkpt><trkpt lat="43.55757136862974" lon="10.763203097895119"><ele>129.0</ele><time>2026-04-18T08:06:34.001Z</time></trkpt><trkpt lat="43.55756216722929" lon="10.763325888705298"><ele>130.0</ele><time>2026-04-18T08:06:35.001Z</time></trkpt><trkpt lat="43.557561698304575" lon="10.763446503504783"><ele>131.0</ele><time>2026-04-18T08:06:36.001Z</time></trkpt><trkpt lat="43.557573648917895" lon="10.763565311599887"><ele>132.0</ele><time>2026-04-18T08:06:37.001Z</time></trkpt><trkpt lat="43.557598845221335" lon="10.763698345980405"><ele>133.4</ele><time>2026-04-18T08:06:38.001Z</time></trkpt><trkpt lat="43.557629684275504" lon="10.763833914826066"><ele>134.79999999999998</ele><time>2026-04-18T08:06:39.001Z</time></trkpt><trkpt lat="43.55765826961681" lon="10.76397029847747"><ele>136.2</ele><time>2026-04-18T08:06:40.001Z</time></trkpt><trkpt lat="43.55766424543501" lon="10.764118651695776"><ele>137.6</ele><time>2026-04-18T08:06:41.001Z</time></trkpt><trkpt lat="43.55764768244456" lon="10.764237086217932"><ele>139.0</ele><time>2026-04-18T08:06:42.001Z</time></trkpt><trkpt lat="43.557607629521044" lon="10.764324443893537"><ele>140.6</ele><time>2026-04-18T08:06:43.001Z</time></trkpt><trkpt lat="43.55753016088308" lon="10.764364158574534"><ele>142.2</ele><time>2026-04-18T08:06:44.001Z</time></trkpt><trkpt lat="43.55745240164452" lon="10.76441326155824"><ele>143.79999999999998</ele><time>2026-04-18T08:06:45.001Z</time></trkpt><trkpt lat="43.55736741516762" lon="10.764453559848665"><ele>145.4</ele><time>2026-04-18T08:06:46.001Z</time></trkpt><trkpt lat="43.557290200883024" lon="10.76452768401769"><ele>147.0</ele><time>2026-04-18T08:06:47.001Z</time></trkpt><trkpt lat="43.55723301708456" lon="10.764637536591882"><ele>147.0</ele><time>2026-04-18T08:06:48.001Z</time></trkpt><trkpt lat="43.557194785579114" lon="10.764776851607937"><ele>147.0</ele><time>2026-04-18T08:06:49.001Z</time></trkpt><trkpt lat="43.557137408319385" lon="10.764907430932126"><ele>147.0</ele><time>2026-04-18T08:06:50.001Z</time></trkpt><trkpt lat="43.55709411881855" lon="10.765054026777689"><ele>147.0</ele><time>2026-04-18T08:06:51.001Z</time></trkpt><trkpt lat="43.557050374071906" lon="10.765205660723913"><ele>146.79999999999998</ele><time>2026-04-18T08:06:52.001Z</time></trkpt><trkpt lat="43.557007233139274" lon="10.765355313086195"><ele>146.6</ele><time>2026-04-18T08:06:53.001Z</time></trkpt><trkpt lat="43.55696579600778" lon="10.765499054799525"><ele>146.39999999999998</ele><time>2026-04-18T08:06:54.001Z</time></trkpt><trkpt lat="43.55692479951699" lon="10.765624264133178"><ele>146.2</ele><time>2026-04-18T08:06:55.001Z</time></trkpt><trkpt lat="43.55688239444502" lon="10.76573832367214"><ele>146.0</ele><time>2026-04-18T08:06:56.001Z</time></trkpt><trkpt lat="43.55683492819885" lon="10.76584903572511"><ele>146.0</ele><time>2026-04-18T08:06:57.001Z</time></trkpt><trkpt lat="43.55676457133565" lon="10.765941143342149"><ele>146.0</ele><time>2026-04-18T08:06:58.001Z</time></trkpt><trkpt lat="43.55667898299004" lon="10.76600936756446"><ele>146.0</ele><time>2026-04-18T08:06:59.001Z</time></trkpt><trkpt lat="43.55660105586624" lon="10.766093653429762"><ele>146.0</ele><time>2026-04-18T08:07:00.001Z</time></trkpt><trkpt lat="43.55652117442655" lon="10.766180006856818"><ele>146.0</ele><time>2026-04-18T08:07:01.001Z</time></trkpt><trkpt lat="43.55644146736024" lon="10.766266461779427"><ele>146.83333333333331</ele><time>2026-04-18T08:07:02.001Z</time></trkpt><trkpt lat="43.55636943107749" lon="10.76634491117741"><ele>147.66666666666666</ele><time>2026-04-18T08:07:03.001Z</time></trkpt><trkpt lat="43.55630300191842" lon="10.766417253887084"><ele>148.5</ele><time>2026-04-18T08:07:04.001Z</time></trkpt><trkpt lat="43.556250047092476" lon="10.766501985044513"><ele>149.33333333333334</ele><time>2026-04-18T08:07:05.001Z</time></trkpt><trkpt lat="43.556177375088375" lon="10.766545189542065"><ele>150.16666666666669</ele><time>2026-04-18T08:07:06.001Z</time></trkpt><trkpt lat="43.55610325292936" lon="10.766576724078421"><ele>151.0</ele><time>2026-04-18T08:07:07.001Z</time></trkpt><trkpt lat="43.55601897455928" lon="10.766569352658635"><ele>151.0</ele><time>2026-04-18T08:07:08.001Z</time></trkpt><trkpt lat="43.5559392253181" lon="10.766583942700413"><ele>151.0</ele><time>2026-04-18T08:07:09.001Z</time></trkpt><trkpt lat="43.55585928232193" lon="10.766611131380595"><ele>151.0</ele><time>2026-04-18T08:07:10.001Z</time></trkpt><trkpt lat="43.555779709853056" lon="10.766654667966115"><ele>151.0</ele><time>2026-04-18T08:07:11.001Z</time></trkpt><trkpt lat="43.55573054189368" lon="10.766746261673875"><ele>151.0</ele><time>2026-04-18T08:07:12.001Z</time></trkpt><trkpt lat="43.55569403909385" lon="10.766847940064151"><ele>151.0</ele><time>2026-04-18T08:07:13.001Z</time></trkpt><trkpt lat="43.55568304927591" lon="10.76693434857008"><ele>150.83333333333334</ele><time>2026-04-18T08:07:14.001Z</time></trkpt><trkpt lat="43.555702942875286" lon="10.767029405598812"><ele>150.66666666666669</ele><time>2026-04-18T08:07:15.001Z</time></trkpt><trkpt lat="43.5557334568589" lon="10.767125824583445"><ele>150.5</ele><time>2026-04-18T08:07:16.001Z</time></trkpt><trkpt lat="43.55576555703628" lon="10.767227503255466"><ele>150.33333333333334</ele><time>2026-04-18T08:07:17Z</time></trkpt><trkpt lat="43.555797492360796" lon="10.767321711096685"><ele>150.16666666666666</ele><time>2026-04-18T08:07:18Z</time></trkpt><trkpt lat="43.55583432423913" lon="10.767419694254295"><ele>150.0</ele><time>2026-04-18T08:07:19Z</time></trkpt><trkpt lat="43.55588564096115" lon="10.767507731413541"><ele>150.0</ele><time>2026-04-18T08:07:20Z</time></trkpt><trkpt lat="43.55592561491386" lon="10.767606589062398"><ele>150.0</ele><time>2026-04-18T08:07:21Z</time></trkpt><trkpt lat="43.55596987545751" lon="10.767696911085947"><ele>150.0</ele><time>2026-04-18T08:07:22Z</time></trkpt><trkpt lat="43.55599561945694" lon="10.767782912249857"><ele>150.0</ele><time>2026-04-18T08:07:23Z</time></trkpt><trkpt lat="43.55604501435393" lon="10.767905318137823"><ele>150.0</ele><time>2026-04-18T08:07:25Z</time></trkpt><trkpt lat="43.55601173030967" lon="10.768039945762174"><ele>150.0</ele><time>2026-04-18T08:07:27Z</time></trkpt><trkpt lat="43.55595409515363" lon="10.768100925143028"><ele>149.16666666666666</ele><time>2026-04-18T08:07:28Z</time></trkpt><trkpt lat="43.55589731107274" lon="10.768170865369354"><ele>148.33333333333334</ele><time>2026-04-18T08:07:29Z</time></trkpt><trkpt lat="43.555824380051774" lon="10.768230633064858"><ele>147.5</ele><time>2026-04-18T08:07:30Z</time></trkpt><trkpt lat="43.55576724512345" lon="10.76832822355564"><ele>146.66666666666669</ele><time>2026-04-18T08:07:31Z</time></trkpt><trkpt lat="43.55569389113608" lon="10.768414764421875"><ele>145.83333333333334</ele><time>2026-04-18T08:07:32Z</time></trkpt><trkpt lat="43.55562056526003" lon="10.768508011844236"><ele>145.0</ele><time>2026-04-18T08:07:33Z</time></trkpt><trkpt lat="43.55554349076314" lon="10.768605991025384"><ele>144.0</ele><time>2026-04-18T08:07:34Z</time></trkpt><trkpt lat="43.55546510866913" lon="10.768706882739782"><ele>143.0</ele><time>2026-04-18T08:07:35Z</time></trkpt><trkpt lat="43.55539003524537" lon="10.76880523464943"><ele>142.0</ele><time>2026-04-18T08:07:36Z</time></trkpt><trkpt lat="43.55530393763959" lon="10.768887462187838"><ele>141.0</ele><time>2026-04-18T08:07:37Z</time></trkpt><trkpt lat="43.55522831137426" lon="10.768983073059225"><ele>140.0</ele><time>2026-04-18T08:07:38Z</time></trkpt><trkpt lat="43.5551624033936" lon="10.769094151870293"><ele>139.6</ele><time>2026-04-18T08:07:39Z</time></trkpt><trkpt lat="43.555088474765384" lon="10.769186257138816"><ele>139.2</ele><time>2026-04-18T08:07:40Z</time></trkpt><trkpt lat="43.55501352732794" lon="10.769281980169474"><ele>138.8</ele><time>2026-04-18T08:07:41Z</time></trkpt><trkpt lat="43.55494089283102" lon="10.769375396525964"><ele>138.4</ele><time>2026-04-18T08:07:42Z</time></trkpt><trkpt lat="43.554874763453384" lon="10.769437386"><ele>138.0</ele><time>2026-04-18T08:07:43Z</time></trkpt><trkpt lat="43.55482856533263" lon="10.769518630515467"><ele>137.57142857142858</ele><time>2026-04-18T08:07:44Z</time></trkpt><trkpt lat="43.55477555820583" lon="10.769581479004128"><ele>137.14285714285717</ele><time>2026-04-18T08:07:45Z</time></trkpt><trkpt lat="43.554725073339426" lon="10.769644276322389"><ele>136.71428571428572</ele><time>2026-04-18T08:07:46Z</time></trkpt><trkpt lat="43.554678811048944" lon="10.769710192513342"><ele>136.28571428571428</ele><time>2026-04-18T08:07:47Z</time></trkpt><trkpt lat="43.55463816917533" lon="10.769787221961426"><ele>135.85714285714283</ele><time>2026-04-18T08:07:48Z</time></trkpt><trkpt lat="43.55460299349948" lon="10.769873297648738"><ele>135.42857142857142</ele><time>2026-04-18T08:07:49Z</time></trkpt><trkpt lat="43.554565791242545" lon="10.769969423398779"><ele>135.0</ele><time>2026-04-18T08:07:50Z</time></trkpt><trkpt lat="43.5545246460705" lon="10.770080229662296"><ele>136.4</ele><time>2026-04-18T08:07:51Z</time></trkpt><trkpt lat="43.554482182271066" lon="10.77019703524895"><ele>137.8</ele><time>2026-04-18T08:07:52Z</time></trkpt><trkpt lat="43.55443980757076" lon="10.770324643475853"><ele>139.2</ele><time>2026-04-18T08:07:53Z</time></trkpt><trkpt lat="43.55439644061814" lon="10.770458558288531"><ele>140.6</ele><time>2026-04-18T08:07:54Z</time></trkpt><trkpt lat="43.55435099163212" lon="10.77059700197555"><ele>142.0</ele><time>2026-04-18T08:07:55Z</time></trkpt><trkpt lat="43.5543064576791" lon="10.77073787377458"><ele>142.0</ele><time>2026-04-18T08:07:56Z</time></trkpt><trkpt lat="43.5542625544385" lon="10.77087262222823"><ele>142.0</ele><time>2026-04-18T08:07:57Z</time></trkpt><trkpt lat="43.55421796809094" lon="10.770996291891631"><ele>142.0</ele><time>2026-04-18T08:07:58Z</time></trkpt><trkpt lat="43.55417760556467" lon="10.771116325076033"><ele>142.0</ele><time>2026-04-18T08:07:59Z</time></trkpt><trkpt lat="43.554141885029765" lon="10.771241765974935"><ele>142.0</ele><time>2026-04-18T08:08:00Z</time></trkpt><trkpt lat="43.5541176852729" lon="10.771376227838958"><ele>142.0</ele><time>2026-04-18T08:08:01Z</time></trkpt><trkpt lat="43.55411110274666" lon="10.771516953712704"><ele>142.0</ele><time>2026-04-18T08:08:02Z</time></trkpt><trkpt lat="43.55411656455541" lon="10.771664387260024"><ele>142.0</ele><time>2026-04-18T08:08:03Z</time></trkpt><trkpt lat="43.55411842567092" lon="10.771816259348148"><ele>142.0</ele><time>2026-04-18T08:08:04Z</time></trkpt><trkpt lat="43.5541222881522" lon="10.771977165701497"><ele>142.0</ele><time>2026-04-18T08:08:05Z</time></trkpt><trkpt lat="43.554126240409616" lon="10.772142091310164"><ele>142.0</ele><time>2026-04-18T08:08:06Z</time></trkpt><trkpt lat="43.55413047356696" lon="10.772316781157969"><ele>142.0</ele><time>2026-04-18T08:08:07Z</time></trkpt><trkpt lat="43.55413884320925" lon="10.772495416071235"><ele>142.0</ele><time>2026-04-18T08:08:08Z</time></trkpt><trkpt lat="43.55414246258194" lon="10.772680521630521"><ele>142.0</ele><time>2026-04-18T08:08:09Z</time></trkpt><trkpt lat="43.55414707015319" lon="10.772859105611653"><ele>142.75</ele><time>2026-04-18T08:08:10Z</time></trkpt><trkpt lat="43.554153707981904" lon="10.773034964619898"><ele>143.5</ele><time>2026-04-18T08:08:11Z</time></trkpt><trkpt lat="43.55416006864438" lon="10.77321099119496"><ele>144.25</ele><time>2026-04-18T08:08:12Z</time></trkpt><trkpt lat="43.55416594218407" lon="10.773386648634471"><ele>145.0</ele><time>2026-04-18T08:08:13Z</time></trkpt><trkpt lat="43.554170556103685" lon="10.773559495981468"><ele>146.75</ele><time>2026-04-18T08:08:14Z</time></trkpt><trkpt lat="43.55417654972621" lon="10.773732625117653"><ele>148.5</ele><time>2026-04-18T08:08:15Z</time></trkpt><trkpt lat="43.55417661776023" lon="10.773907436915032"><ele>150.25</ele><time>2026-04-18T08:08:16Z</time></trkpt><trkpt lat="43.55417471702171" lon="10.774080821901066"><ele>152.0</ele><time>2026-04-18T08:08:17Z</time></trkpt><trkpt lat="43.554168854127674" lon="10.774250364306834"><ele>153.6</ele><time>2026-04-18T08:08:18Z</time></trkpt><trkpt lat="43.55415365876253" lon="10.774413787140782"><ele>155.2</ele><time>2026-04-18T08:08:19Z</time></trkpt><trkpt lat="43.5541360193221" lon="10.774572866229237"><ele>156.8</ele><time>2026-04-18T08:08:20Z</time></trkpt><trkpt lat="43.554106824367004" lon="10.77472384616064"><ele>158.4</ele><time>2026-04-18T08:08:21Z</time></trkpt><trkpt lat="43.554090288160594" lon="10.774856525143873"><ele>160.0</ele><time>2026-04-18T08:08:22Z</time></trkpt><trkpt lat="43.554077216677655" lon="10.774973613431857"><ele>160.0</ele><time>2026-04-18T08:08:23Z</time></trkpt><trkpt lat="43.554075092412546" lon="10.775077278889414"><ele>160.0</ele><time>2026-04-18T08:08:24Z</time></trkpt><trkpt lat="43.55408353577405" lon="10.775177238089167"><ele>160.0</ele><time>2026-04-18T08:08:25Z</time></trkpt><trkpt lat="43.554141142818644" lon="10.775331165900543"><ele>160.0</ele><time>2026-04-18T08:08:27Z</time></trkpt><trkpt lat="43.5542362416134" lon="10.77544766217252"><ele>160.0</ele><time>2026-04-18T08:08:29Z</time></trkpt><trkpt lat="43.55429258690154" lon="10.775497876809842"><ele>160.0</ele><time>2026-04-18T08:08:30Z</time></trkpt><trkpt lat="43.55439642091981" lon="10.77559344130054"><ele>160.0</ele><time>2026-04-18T08:08:32Z</time></trkpt><trkpt lat="43.554450701689156" lon="10.77565128845646"><ele>160.0</ele><time>2026-04-18T08:08:33Z</time></trkpt><trkpt lat="43.554510066877675" lon="10.77571927167961"><ele>160.0</ele><time>2026-04-18T08:08:34Z</time></trkpt><trkpt lat="43.55456906122228" lon="10.775800718692892"><ele>160.0</ele><time>2026-04-18T08:08:35Z</time></trkpt><trkpt lat="43.55462608426129" lon="10.775887649968748"><ele>160.0</ele><time>2026-04-18T08:08:36Z</time></trkpt><trkpt lat="43.5546666654992" lon="10.775990490652363"><ele>163.5</ele><time>2026-04-18T08:08:37Z</time></trkpt><trkpt lat="43.55471726664779" lon="10.776076561387004"><ele>167.0</ele><time>2026-04-18T08:08:38Z</time></trkpt><trkpt lat="43.554767837985636" lon="10.776162637265061"><ele>170.5</ele><time>2026-04-18T08:08:39Z</time></trkpt><trkpt lat="43.55481884970843" lon="10.776249463253876"><ele>174.0</ele><time>2026-04-18T08:08:40Z</time></trkpt><trkpt lat="43.55486716369822" lon="10.776341392639859"><ele>177.5</ele><time>2026-04-18T08:08:41Z</time></trkpt><trkpt lat="43.55490660381337" lon="10.776438022576091"><ele>181.0</ele><time>2026-04-18T08:08:42Z</time></trkpt><trkpt lat="43.55493468367165" lon="10.776535891874133"><ele>181.0</ele><time>2026-04-18T08:08:43.001Z</time></trkpt><trkpt lat="43.55494952180216" lon="10.776629976418995"><ele>181.0</ele><time>2026-04-18T08:08:44.001Z</time></trkpt><trkpt lat="43.55494236546046" lon="10.776795669767893"><ele>181.0</ele><time>2026-04-18T08:08:46.001Z</time></trkpt><trkpt lat="43.55493000477457" lon="10.776950247950145"><ele>181.0</ele><time>2026-04-18T08:08:48.001Z</time></trkpt><trkpt lat="43.55490796327923" lon="10.777096594209034"><ele>181.0</ele><time>2026-04-18T08:08:50.001Z</time></trkpt><trkpt lat="43.554896633271" lon="10.777257860561786"><ele>181.28571428571428</ele><time>2026-04-18T08:08:52.001Z</time></trkpt><trkpt lat="43.55489674615261" lon="10.777347824083312"><ele>181.57142857142856</ele><time>2026-04-18T08:08:53.001Z</time></trkpt><trkpt lat="43.55490134756638" lon="10.777444469471028"><ele>181.85714285714286</ele><time>2026-04-18T08:08:54.001Z</time></trkpt><trkpt lat="43.554909315775646" lon="10.777546733450556"><ele>182.14285714285714</ele><time>2026-04-18T08:08:55.001Z</time></trkpt><trkpt lat="43.55494655086817" lon="10.777626237829159"><ele>182.42857142857144</ele><time>2026-04-18T08:08:56.001Z</time></trkpt><trkpt lat="43.55500280705254" lon="10.777685917506904"><ele>182.71428571428572</ele><time>2026-04-18T08:08:57.001Z</time></trkpt><trkpt lat="43.55506544589107" lon="10.777739724250305"><ele>183.0</ele><time>2026-04-18T08:08:58.001Z</time></trkpt><trkpt lat="43.55512251490041" lon="10.777787955699361"><ele>183.0</ele><time>2026-04-18T08:08:59.001Z</time></trkpt><trkpt lat="43.55522147640289" lon="10.77788675070921"><ele>183.0</ele><time>2026-04-18T08:09:01.001Z</time></trkpt><trkpt lat="43.5553106380702" lon="10.777963979287524"><ele>183.0</ele><time>2026-04-18T08:09:03.001Z</time></trkpt><trkpt lat="43.555356492178454" lon="10.77805929612078"><ele>183.0</ele><time>2026-04-18T08:09:05.001Z</time></trkpt><trkpt lat="43.55537375021823" lon="10.778204673342694"><ele>183.0</ele><time>2026-04-18T08:09:07.001Z</time></trkpt><trkpt lat="43.555381428790625" lon="10.778302478600322"><ele>183.0</ele><time>2026-04-18T08:09:08.001Z</time></trkpt><trkpt lat="43.55539305671229" lon="10.778414822522945"><ele>183.0</ele><time>2026-04-18T08:09:09.001Z</time></trkpt><trkpt lat="43.55538814253182" lon="10.778531002046906"><ele>183.0</ele><time>2026-04-18T08:09:10.001Z</time></trkpt><trkpt lat="43.555396103918746" lon="10.77864829822109"><ele>183.0</ele><time>2026-04-18T08:09:11.001Z</time></trkpt><trkpt lat="43.5554023911217" lon="10.778760323476556"><ele>183.0</ele><time>2026-04-18T08:09:12.001Z</time></trkpt><trkpt lat="43.55540404935583" lon="10.778869717646204"><ele>183.0</ele><time>2026-04-18T08:09:13.001Z</time></trkpt><trkpt lat="43.55541898081795" lon="10.778981494223299"><ele>182.5</ele><time>2026-04-18T08:09:14.001Z</time></trkpt><trkpt lat="43.55540642030581" lon="10.779095993211529"><ele>182.0</ele><time>2026-04-18T08:09:15.001Z</time></trkpt><trkpt lat="43.555403880115094" lon="10.779212372256454"><ele>181.5</ele><time>2026-04-18T08:09:16.001Z</time></trkpt><trkpt lat="43.55540190284998" lon="10.779332548179296"><ele>181.0</ele><time>2026-04-18T08:09:17.001Z</time></trkpt><trkpt lat="43.55540023875581" lon="10.779454694174683"><ele>180.5</ele><time>2026-04-18T08:09:18.001Z</time></trkpt><trkpt lat="43.55540124176002" lon="10.779574838867902"><ele>180.0</ele><time>2026-04-18T08:09:19.001Z</time></trkpt><trkpt lat="43.555410832219216" lon="10.779698469903574"><ele>180.2</ele><time>2026-04-18T08:09:20.001Z</time></trkpt><trkpt lat="43.55543149457633" lon="10.779824635055624"><ele>180.4</ele><time>2026-04-18T08:09:21.001Z</time></trkpt><trkpt lat="43.55546351117462" lon="10.779950823346336"><ele>180.60000000000002</ele><time>2026-04-18T08:09:22.001Z</time></trkpt><trkpt lat="43.555503074280786" lon="10.78007895358463"><ele>180.8</ele><time>2026-04-18T08:09:23Z</time></trkpt><trkpt lat="43.55554719768995" lon="10.780203771384482"><ele>181.0</ele><time>2026-04-18T08:09:24Z</time></trkpt><trkpt lat="43.555589519585354" lon="10.78032065859876"><ele>181.0</ele><time>2026-04-18T08:09:25Z</time></trkpt><trkpt lat="43.5556283051211" lon="10.780437776407677"><ele>181.0</ele><time>2026-04-18T08:09:26Z</time></trkpt><trkpt lat="43.55566553910239" lon="10.780556072693011"><ele>181.0</ele><time>2026-04-18T08:09:27Z</time></trkpt><trkpt lat="43.55570085503536" lon="10.780671277647567"><ele>181.0</ele><time>2026-04-18T08:09:28Z</time></trkpt><trkpt lat="43.555736052658226" lon="10.780783689810592"><ele>181.0</ele><time>2026-04-18T08:09:29Z</time></trkpt><trkpt lat="43.55576232307462" lon="10.780895918194839"><ele>181.0</ele><time>2026-04-18T08:09:30Z</time></trkpt><trkpt lat="43.55577912110681" lon="10.781003611474121"><ele>181.0</ele><time>2026-04-18T08:09:31Z</time></trkpt><trkpt lat="43.555788554483094" lon="10.78112263681643"><ele>181.0</ele><time>2026-04-18T08:09:32Z</time></trkpt><trkpt lat="43.55578707056281" lon="10.781240600888117"><ele>181.0</ele><time>2026-04-18T08:09:33Z</time></trkpt><trkpt lat="43.555781989915154" lon="10.7813805753754"><ele>181.0</ele><time>2026-04-18T08:09:34Z</time></trkpt><trkpt lat="43.55577409442162" lon="10.781504667429994"><ele>181.0</ele><time>2026-04-18T08:09:35Z</time></trkpt><trkpt lat="43.55577207818369" lon="10.781613830489167"><ele>181.0</ele><time>2026-04-18T08:09:36Z</time></trkpt><trkpt lat="43.55574127309758" lon="10.781707957594282"><ele>181.0</ele><time>2026-04-18T08:09:37Z</time></trkpt><trkpt lat="43.55573082372221" lon="10.781810643050301"><ele>181.0</ele><time>2026-04-18T08:09:38Z</time></trkpt><trkpt lat="43.555693388508715" lon="10.78190634268857"><ele>181.0</ele><time>2026-04-18T08:09:39Z</time></trkpt><trkpt lat="43.555662938719095" lon="10.78200266924255"><ele>181.0</ele><time>2026-04-18T08:09:40Z</time></trkpt><trkpt lat="43.55564317881696" lon="10.782090413428845"><ele>181.0</ele><time>2026-04-18T08:09:41Z</time></trkpt><trkpt lat="43.55562032834896" lon="10.782270756267039"><ele>179.66666666666669</ele><time>2026-04-18T08:09:43Z</time></trkpt><trkpt lat="43.5555810905857" lon="10.782437756879576"><ele>178.33333333333334</ele><time>2026-04-18T08:09:45Z</time></trkpt><trkpt lat="43.55558230518918" lon="10.782528942932467"><ele>177.0</ele><time>2026-04-18T08:09:46Z</time></trkpt><trkpt lat="43.555569025382496" lon="10.782629756431906"><ele>175.66666666666666</ele><time>2026-04-18T08:09:47Z</time></trkpt><trkpt lat="43.55554847358798" lon="10.7827303243255"><ele>174.33333333333331</ele><time>2026-04-18T08:09:48Z</time></trkpt><trkpt lat="43.5555361286662" lon="10.782853505994286"><ele>173.0</ele><time>2026-04-18T08:09:49Z</time></trkpt><trkpt lat="43.55552499431426" lon="10.782980269591976"><ele>171.33333333333331</ele><time>2026-04-18T08:09:50Z</time></trkpt><trkpt lat="43.55552125575175" lon="10.783097676561015"><ele>169.66666666666666</ele><time>2026-04-18T08:09:51Z</time></trkpt><trkpt lat="43.55551722156116" lon="10.783210804040882"><ele>168.0</ele><time>2026-04-18T08:09:52Z</time></trkpt><trkpt lat="43.55550989942228" lon="10.783316050571946"><ele>166.33333333333334</ele><time>2026-04-18T08:09:53Z</time></trkpt><trkpt lat="43.55550153914173" lon="10.783423544378698"><ele>164.66666666666669</ele><time>2026-04-18T08:09:54Z</time></trkpt><trkpt lat="43.55549028882912" lon="10.783528100885222"><ele>163.0</ele><time>2026-04-18T08:09:55Z</time></trkpt><trkpt lat="43.555479360319815" lon="10.783632237397065"><ele>162.0</ele><time>2026-04-18T08:09:56Z</time></trkpt><trkpt lat="43.55546875651442" lon="10.783732518279415"><ele>161.0</ele><time>2026-04-18T08:09:57Z</time></trkpt><trkpt lat="43.55546145159064" lon="10.783833148989114"><ele>160.0</ele><time>2026-04-18T08:09:58Z</time></trkpt><trkpt lat="43.5554575597995" lon="10.783930973112147"><ele>159.0</ele><time>2026-04-18T08:09:59Z</time></trkpt><trkpt lat="43.55545246137688" lon="10.784024209737888"><ele>158.0</ele><time>2026-04-18T08:10:00Z</time></trkpt><trkpt lat="43.55545258448489" lon="10.784118342136054"><ele>157.0</ele><time>2026-04-18T08:10:01Z</time></trkpt><trkpt lat="43.555465170340746" lon="10.784220875490018"><ele>156.0</ele><time>2026-04-18T08:10:02Z</time></trkpt><trkpt lat="43.555491449058096" lon="10.784324036917877"><ele>155.66666666666666</ele><time>2026-04-18T08:10:03Z</time></trkpt><trkpt lat="43.55552442260962" lon="10.784425653428551"><ele>155.33333333333334</ele><time>2026-04-18T08:10:04Z</time></trkpt><trkpt lat="43.55555953816715" lon="10.784523417355892"><ele>155.0</ele><time>2026-04-18T08:10:05Z</time></trkpt><trkpt lat="43.555599504668855" lon="10.784626242217774"><ele>154.66666666666669</ele><time>2026-04-18T08:10:06Z</time></trkpt><trkpt lat="43.55563935423855" lon="10.784731875196664"><ele>154.33333333333334</ele><time>2026-04-18T08:10:07Z</time></trkpt><trkpt lat="43.55567673457208" lon="10.784844301959067"><ele>154.0</ele><time>2026-04-18T08:10:08Z</time></trkpt><trkpt lat="43.55570622064686" lon="10.784964198593965"><ele>154.0</ele><time>2026-04-18T08:10:09.001Z</time></trkpt><trkpt lat="43.55571899683036" lon="10.785086174716541"><ele>154.0</ele><time>2026-04-18T08:10:10.001Z</time></trkpt><trkpt lat="43.555708509977045" lon="10.785191513578608"><ele>154.0</ele><time>2026-04-18T08:10:11.001Z</time></trkpt><trkpt lat="43.555681676874286" lon="10.785328884568958"><ele>154.0</ele><time>2026-04-18T08:10:12.001Z</time></trkpt><trkpt lat="43.55565536974374" lon="10.785446839992064"><ele>154.0</ele><time>2026-04-18T08:10:13.001Z</time></trkpt><trkpt lat="43.555631187982755" lon="10.785558318745782"><ele>154.0</ele><time>2026-04-18T08:10:14.001Z</time></trkpt><trkpt lat="43.55562604786163" lon="10.785679680715392"><ele>154.4</ele><time>2026-04-18T08:10:15.001Z</time></trkpt><trkpt lat="43.55562888161453" lon="10.785794906050535"><ele>154.8</ele><time>2026-04-18T08:10:16.001Z</time></trkpt><trkpt lat="43.555649908437736" lon="10.785913349640905"><ele>155.2</ele><time>2026-04-18T08:10:17.001Z</time></trkpt><trkpt lat="43.555728679580106" lon="10.786008308460161"><ele>155.6</ele><time>2026-04-18T08:10:18.001Z</time></trkpt><trkpt lat="43.555825581080946" lon="10.786090723403486"><ele>156.0</ele><time>2026-04-18T08:10:19.001Z</time></trkpt><trkpt lat="43.55590473978578" lon="10.786157467076157"><ele>156.0</ele><time>2026-04-18T08:10:20.001Z</time></trkpt><trkpt lat="43.55597533122277" lon="10.786227519164624"><ele>156.0</ele><time>2026-04-18T08:10:21.001Z</time></trkpt><trkpt lat="43.55604151496992" lon="10.78630188619962"><ele>156.0</ele><time>2026-04-18T08:10:22.001Z</time></trkpt><trkpt lat="43.55610440930139" lon="10.786380280692706"><ele>156.0</ele><time>2026-04-18T08:10:23.001Z</time></trkpt><trkpt lat="43.556164427806294" lon="10.786463538856788"><ele>156.0</ele><time>2026-04-18T08:10:24.001Z</time></trkpt><trkpt lat="43.55622058390686" lon="10.78655317694962"><ele>156.0</ele><time>2026-04-18T08:10:25.001Z</time></trkpt><trkpt lat="43.55627938285899" lon="10.786647424516504"><ele>155.4</ele><time>2026-04-18T08:10:26.001Z</time></trkpt><trkpt lat="43.55633849146215" lon="10.78674115713309"><ele>154.8</ele><time>2026-04-18T08:10:27.001Z</time></trkpt><trkpt lat="43.55639923752116" lon="10.786837213272111"><ele>154.20000000000002</ele><time>2026-04-18T08:10:28.001Z</time></trkpt><trkpt lat="43.55645990012957" lon="10.786933137276135"><ele>153.6</ele><time>2026-04-18T08:10:29.001Z</time></trkpt><trkpt lat="43.55652022375482" lon="10.787030671667178"><ele>153.0</ele><time>2026-04-18T08:10:30.001Z</time></trkpt><trkpt lat="43.55658135313848" lon="10.787132270885387"><ele>152.83333333333334</ele><time>2026-04-18T08:10:31.001Z</time></trkpt><trkpt lat="43.55663738902862" lon="10.787225398106495"><ele>152.66666666666666</ele><time>2026-04-18T08:10:32.001Z</time></trkpt><trkpt lat="43.5566871180576" lon="10.787312021898837"><ele>152.5</ele><time>2026-04-18T08:10:33.001Z</time></trkpt><trkpt lat="43.55673133023439" lon="10.787392830863707"><ele>152.33333333333331</ele><time>2026-04-18T08:10:34.001Z</time></trkpt><trkpt lat="43.55677058748508" lon="10.78748308946461"><ele>152.16666666666666</ele><time>2026-04-18T08:10:35.001Z</time></trkpt><trkpt lat="43.55680452854815" lon="10.787582623394078"><ele>152.0</ele><time>2026-04-18T08:10:36.001Z</time></trkpt><trkpt lat="43.556836942494435" lon="10.787689911687076"><ele>150.33333333333331</ele><time>2026-04-18T08:10:37.001Z</time></trkpt><trkpt lat="43.556869232965106" lon="10.787796791260497"><ele>148.66666666666666</ele><time>2026-04-18T08:10:38.001Z</time></trkpt><trkpt lat="43.5569114485544" lon="10.787898261973492"><ele>147.0</ele><time>2026-04-18T08:10:39.001Z</time></trkpt><trkpt lat="43.55694124478428" lon="10.788005064932822"><ele>145.33333333333334</ele><time>2026-04-18T08:10:40.001Z</time></trkpt><trkpt lat="43.55697351174678" lon="10.788107739754567"><ele>143.66666666666669</ele><time>2026-04-18T08:10:41.001Z</time></trkpt><trkpt lat="43.55700894625759" lon="10.788205567332165"><ele>142.0</ele><time>2026-04-18T08:10:42.001Z</time></trkpt><trkpt lat="43.5570283596031" lon="10.78830936405009"><ele>142.71428571428572</ele><time>2026-04-18T08:10:43.001Z</time></trkpt><trkpt lat="43.557077653369745" lon="10.788391233177459"><ele>143.42857142857142</ele><time>2026-04-18T08:10:44.001Z</time></trkpt><trkpt lat="43.55711207533923" lon="10.788474570641808"><ele>144.14285714285714</ele><time>2026-04-18T08:10:45.001Z</time></trkpt><trkpt lat="43.557147386206125" lon="10.788551997423708"><ele>144.85714285714286</ele><time>2026-04-18T08:10:46.001Z</time></trkpt><trkpt lat="43.5571683667121" lon="10.788638949598468"><ele>145.57142857142856</ele><time>2026-04-18T08:10:47.001Z</time></trkpt><trkpt lat="43.55720244269048" lon="10.788716923353837"><ele>146.28571428571428</ele><time>2026-04-18T08:10:48.001Z</time></trkpt><trkpt lat="43.557236151818564" lon="10.788799187146198"><ele>147.0</ele><time>2026-04-18T08:10:49.001Z</time></trkpt><trkpt lat="43.55726849142633" lon="10.788878108815918"><ele>148.0</ele><time>2026-04-18T08:10:50.001Z</time></trkpt><trkpt lat="43.55729705572528" lon="10.788957497690388"><ele>149.0</ele><time>2026-04-18T08:10:51.001Z</time></trkpt><trkpt lat="43.55734807838518" lon="10.789099505371897"><ele>150.0</ele><time>2026-04-18T08:10:53.001Z</time></trkpt><trkpt lat="43.55734893367201" lon="10.789249695460024"><ele>151.0</ele><time>2026-04-18T08:10:55.001Z</time></trkpt><trkpt lat="43.55737831624492" lon="10.78940360047325"><ele>152.0</ele><time>2026-04-18T08:10:57.001Z</time></trkpt><trkpt lat="43.55739194347824" lon="10.789575555958333"><ele>152.0</ele><time>2026-04-18T08:10:59.001Z</time></trkpt><trkpt lat="43.55740953994837" lon="10.789664913611748"><ele>152.0</ele><time>2026-04-18T08:11:00.001Z</time></trkpt><trkpt lat="43.55743339576183" lon="10.789749685165706"><ele>152.0</ele><time>2026-04-18T08:11:01.001Z</time></trkpt><trkpt lat="43.55748721927242" lon="10.78989441214149"><ele>152.0</ele><time>2026-04-18T08:11:03.001Z</time></trkpt><trkpt lat="43.557556766547506" lon="10.79002449095179"><ele>152.0</ele><time>2026-04-18T08:11:05.001Z</time></trkpt><trkpt lat="43.55761060037956" lon="10.790158693238954"><ele>150.2</ele><time>2026-04-18T08:11:07.001Z</time></trkpt><trkpt lat="43.557679160096605" lon="10.790281322546944"><ele>148.39999999999998</ele><time>2026-04-18T08:11:09.001Z</time></trkpt><trkpt lat="43.557759290931266" lon="10.790402362226374"><ele>146.60000000000002</ele><time>2026-04-18T08:11:11.001Z</time></trkpt><trkpt lat="43.55779751839382" lon="10.790471889606012"><ele>144.8</ele><time>2026-04-18T08:11:12.001Z</time></trkpt><trkpt lat="43.55783714031657" lon="10.790544940772664"><ele>143.0</ele><time>2026-04-18T08:11:13.001Z</time></trkpt><trkpt lat="43.55791080037587" lon="10.790686973915363"><ele>143.0</ele><time>2026-04-18T08:11:15.001Z</time></trkpt><trkpt lat="43.55797947063652" lon="10.79082523102558"><ele>143.0</ele><time>2026-04-18T08:11:17.001Z</time></trkpt><trkpt lat="43.55803401561308" lon="10.790961269352552"><ele>143.0</ele><time>2026-04-18T08:11:19.001Z</time></trkpt><trkpt lat="43.558056185918396" lon="10.791055315801046"><ele>143.0</ele><time>2026-04-18T08:11:21.001Z</time></trkpt><trkpt lat="43.55807354920637" lon="10.791158774104924"><ele>143.0</ele><time>2026-04-18T08:11:24.001Z</time></trkpt><trkpt lat="43.55808236082813" lon="10.791245287828069"><ele>143.0</ele><time>2026-04-18T08:11:26.001Z</time></trkpt><trkpt lat="43.55806393408837" lon="10.791367531435384"><ele>143.0</ele><time>2026-04-18T08:11:28.001Z</time></trkpt><trkpt lat="43.55806079379571" lon="10.791524190366715"><ele>143.0</ele><time>2026-04-18T08:11:30Z</time></trkpt><trkpt lat="43.55804580554988" lon="10.79160949411287"><ele>143.0</ele><time>2026-04-18T08:11:31Z</time></trkpt><trkpt lat="43.55801276494626" lon="10.791689878442465"><ele>143.0</ele><time>2026-04-18T08:11:32Z</time></trkpt><trkpt lat="43.55798650823976" lon="10.79177639069954"><ele>143.0</ele><time>2026-04-18T08:11:33Z</time></trkpt><trkpt lat="43.557949296178755" lon="10.791855329256087"><ele>143.0</ele><time>2026-04-18T08:11:34Z</time></trkpt><trkpt lat="43.55790690120982" lon="10.791936239885725"><ele>142.99999999999997</ele><time>2026-04-18T08:11:35Z</time></trkpt><trkpt lat="43.55787729969895" lon="10.792027939624827"><ele>143.0</ele><time>2026-04-18T08:11:36Z</time></trkpt><trkpt lat="43.557838643254605" lon="10.79210405482716"><ele>143.0</ele><time>2026-04-18T08:11:37Z</time></trkpt><trkpt lat="43.55782244592069" lon="10.792196818757672"><ele>143.0</ele><time>2026-04-18T08:11:38Z</time></trkpt><trkpt lat="43.557818396329026" lon="10.792291225333203"><ele>143.0</ele><time>2026-04-18T08:11:39Z</time></trkpt><trkpt lat="43.557814583750165" lon="10.792391168672236"><ele>142.99999999999997</ele><time>2026-04-18T08:11:40Z</time></trkpt><trkpt lat="43.55783323057001" lon="10.792482862289722"><ele>143.0</ele><time>2026-04-18T08:11:41Z</time></trkpt><trkpt lat="43.5578639194434" lon="10.792577315346824"><ele>143.0</ele><time>2026-04-18T08:11:42Z</time></trkpt><trkpt lat="43.55790528401996" lon="10.792662695594768"><ele>143.0</ele><time>2026-04-18T08:11:43Z</time></trkpt><trkpt lat="43.5579325140815" lon="10.792763387423435"><ele>143.0</ele><time>2026-04-18T08:11:44Z</time></trkpt><trkpt lat="43.55795555300263" lon="10.792866065378606"><ele>143.0</ele><time>2026-04-18T08:11:45Z</time></trkpt><trkpt lat="43.55798269860103" lon="10.792970320115023"><ele>143.0</ele><time>2026-04-18T08:11:46Z</time></trkpt><trkpt lat="43.55800919937276" lon="10.793074267606162"><ele>143.0</ele><time>2026-04-18T08:11:47Z</time></trkpt><trkpt lat="43.558032136700504" lon="10.793177188121025"><ele>143.99999999999997</ele><time>2026-04-18T08:11:48Z</time></trkpt><trkpt lat="43.558060465395805" lon="10.793273940886603"><ele>145.0</ele><time>2026-04-18T08:11:49Z</time></trkpt><trkpt lat="43.55808613904802" lon="10.7933651760577"><ele>146.0</ele><time>2026-04-18T08:11:50Z</time></trkpt><trkpt lat="43.558111968912584" lon="10.793453333241793"><ele>147.0</ele><time>2026-04-18T08:11:51Z</time></trkpt><trkpt lat="43.5581363841681" lon="10.793539485786894"><ele>148.0</ele><time>2026-04-18T08:11:52Z</time></trkpt><trkpt lat="43.55814226503781" lon="10.793633498730996"><ele>148.99999999999997</ele><time>2026-04-18T08:11:53Z</time></trkpt><trkpt lat="43.55816141127165" lon="10.793722189249118"><ele>150.0</ele><time>2026-04-18T08:11:54Z</time></trkpt><trkpt lat="43.55817580521368" lon="10.79381308416767"><ele>150.0</ele><time>2026-04-18T08:11:55Z</time></trkpt><trkpt lat="43.55819531949593" lon="10.793902027021248"><ele>150.0</ele><time>2026-04-18T08:11:56Z</time></trkpt><trkpt lat="43.55820216474814" lon="10.793992855244626"><ele>150.0</ele><time>2026-04-18T08:11:57Z</time></trkpt><trkpt lat="43.558213635175164" lon="10.794157581691948"><ele>150.0</ele><time>2026-04-18T08:11:59Z</time></trkpt><trkpt lat="43.558260428116476" lon="10.794314396260972"><ele>150.0</ele><time>2026-04-18T08:12:01Z</time></trkpt><trkpt lat="43.558295476379705" lon="10.794396411407977"><ele>150.0</ele><time>2026-04-18T08:12:02Z</time></trkpt><trkpt lat="43.55833903553624" lon="10.794475988695465"><ele>148.83333333333334</ele><time>2026-04-18T08:12:03Z</time></trkpt><trkpt lat="43.55839048010096" lon="10.794553428965012"><ele>147.66666666666666</ele><time>2026-04-18T08:12:04Z</time></trkpt><trkpt lat="43.55843807391034" lon="10.794636064996217"><ele>146.5</ele><time>2026-04-18T08:12:05Z</time></trkpt><trkpt lat="43.55846530930847" lon="10.794738765992818"><ele>145.33333333333331</ele><time>2026-04-18T08:12:06Z</time></trkpt><trkpt lat="43.55850263307417" lon="10.794833923056979"><ele>144.16666666666666</ele><time>2026-04-18T08:12:07Z</time></trkpt><trkpt lat="43.558557624307866" lon="10.794917797528164"><ele>143.0</ele><time>2026-04-18T08:12:08Z</time></trkpt><trkpt lat="43.55860045343875" lon="10.79500909867297"><ele>143.0</ele><time>2026-04-18T08:12:09Z</time></trkpt><trkpt lat="43.558647849867526" lon="10.795096585904554"><ele>143.0</ele><time>2026-04-18T08:12:10Z</time></trkpt><trkpt lat="43.55869789321343" lon="10.795184420036458"><ele>143.0</ele><time>2026-04-18T08:12:11Z</time></trkpt><trkpt lat="43.55875195382122" lon="10.795268151158147"><ele>143.0</ele><time>2026-04-18T08:12:12Z</time></trkpt><trkpt lat="43.558813500252334" lon="10.795339768927661"><ele>143.0</ele><time>2026-04-18T08:12:13Z</time></trkpt><trkpt lat="43.55887587066544" lon="10.795405647253862"><ele>143.0</ele><time>2026-04-18T08:12:14Z</time></trkpt><trkpt lat="43.55893911785333" lon="10.795467235159249"><ele>144.33333333333331</ele><time>2026-04-18T08:12:15Z</time></trkpt><trkpt lat="43.55900168685564" lon="10.795526596054415"><ele>145.66666666666666</ele><time>2026-04-18T08:12:16Z</time></trkpt><trkpt lat="43.55906329920307" lon="10.795582240933099"><ele>147.0</ele><time>2026-04-18T08:12:17Z</time></trkpt><trkpt lat="43.559125178671266" lon="10.79562597306495"><ele>148.33333333333334</ele><time>2026-04-18T08:12:18Z</time></trkpt><trkpt lat="43.559180536224304" lon="10.795673872350417"><ele>149.66666666666669</ele><time>2026-04-18T08:12:19Z</time></trkpt><trkpt lat="43.55927907680667" lon="10.795760108109603"><ele>151.0</ele><time>2026-04-18T08:12:21Z</time></trkpt><trkpt lat="43.559367527361864" lon="10.795869846099544"><ele>151.00000000000003</ele><time>2026-04-18T08:12:23Z</time></trkpt><trkpt lat="43.55941924880106" lon="10.795922933244542"><ele>151.0</ele><time>2026-04-18T08:12:24Z</time></trkpt><trkpt lat="43.5594620615988" lon="10.795987978936324"><ele>151.0</ele><time>2026-04-18T08:12:25Z</time></trkpt><trkpt lat="43.55951687665379" lon="10.79605518719742"><ele>151.0</ele><time>2026-04-18T08:12:26Z</time></trkpt><trkpt lat="43.55955979528512" lon="10.796138993316514"><ele>151.0</ele><time>2026-04-18T08:12:27Z</time></trkpt><trkpt lat="43.55960345291205" lon="10.796225413182103"><ele>151.00000000000003</ele><time>2026-04-18T08:12:28Z</time></trkpt><trkpt lat="43.559649026868435" lon="10.796314223609201"><ele>151.0</ele><time>2026-04-18T08:12:29Z</time></trkpt><trkpt lat="43.55969337253384" lon="10.796404962427511"><ele>151.85714285714286</ele><time>2026-04-18T08:12:30Z</time></trkpt><trkpt lat="43.55974658471041" lon="10.796484988658516"><ele>152.71428571428572</ele><time>2026-04-18T08:12:31Z</time></trkpt><trkpt lat="43.55979694359544" lon="10.796562344472488"><ele>153.57142857142856</ele><time>2026-04-18T08:12:32Z</time></trkpt><trkpt lat="43.55984229231514" lon="10.796642369829607"><ele>154.42857142857144</ele><time>2026-04-18T08:12:33Z</time></trkpt><trkpt lat="43.55989076570389" lon="10.796715706896975"><ele>155.28571428571428</ele><time>2026-04-18T08:12:34Z</time></trkpt><trkpt lat="43.55993441977094" lon="10.796787987599268"><ele>156.14285714285714</ele><time>2026-04-18T08:12:35Z</time></trkpt><trkpt lat="43.559976649580186" lon="10.796859202757311"><ele>157.0</ele><time>2026-04-18T08:12:36Z</time></trkpt><trkpt lat="43.560017316236646" lon="10.796926861887426"><ele>156.99999999999997</ele><time>2026-04-18T08:12:37Z</time></trkpt><trkpt lat="43.56005723896663" lon="10.79699589460601"><ele>157.0</ele><time>2026-04-18T08:12:38Z</time></trkpt><trkpt lat="43.560097079206535" lon="10.797064091663497"><ele>157.0</ele><time>2026-04-18T08:12:39Z</time></trkpt><trkpt lat="43.56013652961241" lon="10.797133447958782"><ele>157.0</ele><time>2026-04-18T08:12:40Z</time></trkpt><trkpt lat="43.560178516153776" lon="10.79719901519377"><ele>157.0</ele><time>2026-04-18T08:12:41Z</time></trkpt><trkpt lat="43.56022725998398" lon="10.797260579771036"><ele>156.99999999999997</ele><time>2026-04-18T08:12:42Z</time></trkpt><trkpt lat="43.56028588857305" lon="10.797315579607748"><ele>157.0</ele><time>2026-04-18T08:12:43Z</time></trkpt><trkpt lat="43.56034800217733" lon="10.797366183429853"><ele>158.83333333333334</ele><time>2026-04-18T08:12:44Z</time></trkpt><trkpt lat="43.560408861297596" lon="10.79742510580523"><ele>160.66666666666669</ele><time>2026-04-18T08:12:45Z</time></trkpt><trkpt lat="43.56048253857618" lon="10.797455920951718"><ele>162.5</ele><time>2026-04-18T08:12:46Z</time></trkpt><trkpt lat="43.56055809392415" lon="10.797477920759794"><ele>164.33333333333334</ele><time>2026-04-18T08:12:47Z</time></trkpt><trkpt lat="43.56063718326005" lon="10.7974924682849"><ele>166.16666666666666</ele><time>2026-04-18T08:12:48Z</time></trkpt><trkpt lat="43.56071928793333" lon="10.797498865304137"><ele>168.0</ele><time>2026-04-18T08:12:49Z</time></trkpt><trkpt lat="43.560802876064564" lon="10.797496160252619"><ele>168.0</ele><time>2026-04-18T08:12:50.001Z</time></trkpt><trkpt lat="43.56088507332568" lon="10.797491198102774"><ele>168.0</ele><time>2026-04-18T08:12:51.001Z</time></trkpt><trkpt lat="43.56096816708908" lon="10.797484970917942"><ele>168.0</ele><time>2026-04-18T08:12:52.001Z</time></trkpt><trkpt lat="43.56104905626411" lon="10.797479787253744"><ele>168.0</ele><time>2026-04-18T08:12:53.001Z</time></trkpt><trkpt lat="43.56112922564968" lon="10.797483396257004"><ele>168.0</ele><time>2026-04-18T08:12:54.001Z</time></trkpt><trkpt lat="43.561210389414676" lon="10.797498632683348"><ele>168.0</ele><time>2026-04-18T08:12:55.001Z</time></trkpt><trkpt lat="43.561292835411905" lon="10.797518242446351"><ele>168.0</ele><time>2026-04-18T08:12:56.001Z</time></trkpt><trkpt lat="43.561372998761264" lon="10.797537861848985"><ele>168.0</ele><time>2026-04-18T08:12:57.001Z</time></trkpt><trkpt lat="43.56145271585392" lon="10.797559656641935"><ele>168.0</ele><time>2026-04-18T08:12:58.001Z</time></trkpt><trkpt lat="43.56153138218045" lon="10.797582224423126"><ele>168.0</ele><time>2026-04-18T08:12:59.001Z</time></trkpt><trkpt lat="43.561610206076466" lon="10.797605035220483"><ele>168.0</ele><time>2026-04-18T08:13:00.001Z</time></trkpt><trkpt lat="43.56168774340098" lon="10.797627671782699"><ele>168.0</ele><time>2026-04-18T08:13:01.001Z</time></trkpt><trkpt lat="43.561764091703296" lon="10.79765262851903"><ele>167.5</ele><time>2026-04-18T08:13:02.001Z</time></trkpt><trkpt lat="43.56183847349703" lon="10.797676942464085"><ele>167.0</ele><time>2026-04-18T08:13:03.001Z</time></trkpt><trkpt lat="43.56190941004719" lon="10.79770148576556"><ele>166.5</ele><time>2026-04-18T08:13:04.001Z</time></trkpt><trkpt lat="43.56197886640524" lon="10.797726213360137"><ele>166.0</ele><time>2026-04-18T08:13:05.001Z</time></trkpt><trkpt lat="43.56204462854986" lon="10.797749625774244"><ele>165.5</ele><time>2026-04-18T08:13:06.001Z</time></trkpt><trkpt lat="43.56210681372256" lon="10.797771764677913"><ele>165.0</ele><time>2026-04-18T08:13:07.001Z</time></trkpt><trkpt lat="43.56221224456448" lon="10.797825275906547"><ele>167.16666666666666</ele><time>2026-04-18T08:13:09.001Z</time></trkpt><trkpt lat="43.56231785280372" lon="10.797909920003477"><ele>169.33333333333334</ele><time>2026-04-18T08:13:11.001Z</time></trkpt><trkpt lat="43.56237390211138" lon="10.797963582339566"><ele>171.5</ele><time>2026-04-18T08:13:12.001Z</time></trkpt><trkpt lat="43.56243580165439" lon="10.798023306291963"><ele>173.66666666666669</ele><time>2026-04-18T08:13:13.001Z</time></trkpt><trkpt lat="43.56249759544357" lon="10.798089162123052"><ele>175.83333333333334</ele><time>2026-04-18T08:13:14.001Z</time></trkpt><trkpt lat="43.56256166481212" lon="10.79816044547834"><ele>178.0</ele><time>2026-04-18T08:13:15.001Z</time></trkpt><trkpt lat="43.562628167897614" lon="10.798234612647697"><ele>178.0</ele><time>2026-04-18T08:13:16.001Z</time></trkpt><trkpt lat="43.56269960792256" lon="10.798307682487073"><ele>178.0</ele><time>2026-04-18T08:13:17.001Z</time></trkpt><trkpt lat="43.56277325921948" lon="10.798379901450751"><ele>178.0</ele><time>2026-04-18T08:13:18.001Z</time></trkpt><trkpt lat="43.56285053268501" lon="10.798448784050624"><ele>178.0</ele><time>2026-04-18T08:13:19.001Z</time></trkpt><trkpt lat="43.562927975972734" lon="10.79851405454354"><ele>178.0</ele><time>2026-04-18T08:13:20.001Z</time></trkpt><trkpt lat="43.5630030477046" lon="10.798574346155435"><ele>178.0</ele><time>2026-04-18T08:13:21.001Z</time></trkpt><trkpt lat="43.56307716745161" lon="10.798633873165247"><ele>180.2</ele><time>2026-04-18T08:13:22.001Z</time></trkpt><trkpt lat="43.56314593762322" lon="10.79869052604784"><ele>182.4</ele><time>2026-04-18T08:13:23.001Z</time></trkpt><trkpt lat="43.56321130063332" lon="10.798749386088964"><ele>184.6</ele><time>2026-04-18T08:13:24.001Z</time></trkpt><trkpt lat="43.5632760724902" lon="10.798807713044674"><ele>186.79999999999998</ele><time>2026-04-18T08:13:25.001Z</time></trkpt><trkpt lat="43.56333774704757" lon="10.798865043169396"><ele>189.0</ele><time>2026-04-18T08:13:26.001Z</time></trkpt><trkpt lat="43.563470719851914" lon="10.798935955778054"><ele>189.0</ele><time>2026-04-18T08:13:28.001Z</time></trkpt><trkpt lat="43.56352667314985" lon="10.798986241541535"><ele>189.0</ele><time>2026-04-18T08:13:29.001Z</time></trkpt><trkpt lat="43.56361120724442" lon="10.79911728285323"><ele>189.0</ele><time>2026-04-18T08:13:31.001Z</time></trkpt><trkpt lat="43.56366133178717" lon="10.799173835255512"><ele>189.0</ele><time>2026-04-18T08:13:32.001Z</time></trkpt><trkpt lat="43.563704859630306" lon="10.799239892073112"><ele>189.0</ele><time>2026-04-18T08:13:33.001Z</time></trkpt><trkpt lat="43.56373839297432" lon="10.799318374627601"><ele>189.0</ele><time>2026-04-18T08:13:34.001Z</time></trkpt><trkpt lat="43.563766647459666" lon="10.799407197616876"><ele>188.33333333333334</ele><time>2026-04-18T08:13:34.999Z</time></trkpt><trkpt lat="43.563794993520716" lon="10.799501683713432"><ele>187.66666666666666</ele><time>2026-04-18T08:13:35.999Z</time></trkpt><trkpt lat="43.5638122204001" lon="10.799599861932688"><ele>187.0</ele><time>2026-04-18T08:13:36.999Z</time></trkpt><trkpt lat="43.56384136758784" lon="10.799704781148074"><ele>186.33333333333331</ele><time>2026-04-18T08:13:37.999Z</time></trkpt><trkpt lat="43.563899066524144" lon="10.799799590615132"><ele>185.66666666666666</ele><time>2026-04-18T08:13:38.999Z</time></trkpt><trkpt lat="43.56397024716592" lon="10.799873018478795"><ele>185.0</ele><time>2026-04-18T08:13:39.999Z</time></trkpt><trkpt lat="43.56404595980202" lon="10.799931748743218"><ele>185.0</ele><time>2026-04-18T08:13:40.999Z</time></trkpt><trkpt lat="43.564120563233196" lon="10.799984373801303"><ele>185.0</ele><time>2026-04-18T08:13:41.999Z</time></trkpt><trkpt lat="43.56419547083662" lon="10.800036740418674"><ele>185.0</ele><time>2026-04-18T08:13:42.999Z</time></trkpt><trkpt lat="43.56427155921295" lon="10.800087894969385"><ele>185.0</ele><time>2026-04-18T08:13:43.999Z</time></trkpt><trkpt lat="43.564347819731886" lon="10.800133035518126"><ele>185.0</ele><time>2026-04-18T08:13:44.999Z</time></trkpt><trkpt lat="43.56442161858671" lon="10.800173767486939"><ele>185.0</ele><time>2026-04-18T08:13:45.999Z</time></trkpt><trkpt lat="43.56449011297691" lon="10.800206251462098"><ele>184.28571428571428</ele><time>2026-04-18T08:13:46.999Z</time></trkpt><trkpt lat="43.564553716419425" lon="10.800235754442875"><ele>183.57142857142856</ele><time>2026-04-18T08:13:47.999Z</time></trkpt><trkpt lat="43.5646144277489" lon="10.800263915861839"><ele>182.85714285714283</ele><time>2026-04-18T08:13:48.999Z</time></trkpt><trkpt lat="43.56467975012591" lon="10.800294216174157"><ele>182.14285714285714</ele><time>2026-04-18T08:13:49.999Z</time></trkpt><trkpt lat="43.564751203544276" lon="10.800329707181252"><ele>181.42857142857144</ele><time>2026-04-18T08:13:50.999Z</time></trkpt><trkpt lat="43.56482828432918" lon="10.800368495402106"><ele>180.7142857142857</ele><time>2026-04-18T08:13:51.999Z</time></trkpt><trkpt lat="43.56490962135379" lon="10.800409424935825"><ele>180.0</ele><time>2026-04-18T08:13:52.999Z</time></trkpt><trkpt lat="43.56499861251606" lon="10.800444281970451"><ele>180.0</ele><time>2026-04-18T08:13:54Z</time></trkpt><trkpt lat="43.56509293202355" lon="10.800459213143364"><ele>180.0</ele><time>2026-04-18T08:13:55Z</time></trkpt><trkpt lat="43.565181481347345" lon="10.800454549322552"><ele>180.0</ele><time>2026-04-18T08:13:56Z</time></trkpt><trkpt lat="43.56525754129581" lon="10.800444007177372"><ele>180.0</ele><time>2026-04-18T08:13:57Z</time></trkpt><trkpt lat="43.565326952725286" lon="10.800437430712188"><ele>180.0</ele><time>2026-04-18T08:13:58Z</time></trkpt><trkpt lat="43.56539594985307" lon="10.80044501189838"><ele>180.0</ele><time>2026-04-18T08:13:59Z</time></trkpt><trkpt lat="43.56546530686242" lon="10.800461440861392"><ele>180.28571428571428</ele><time>2026-04-18T08:14:00Z</time></trkpt><trkpt lat="43.56552733152085" lon="10.800494456932366"><ele>180.57142857142858</ele><time>2026-04-18T08:14:01Z</time></trkpt><trkpt lat="43.56558489745566" lon="10.800546847644531"><ele>180.85714285714286</ele><time>2026-04-18T08:14:02Z</time></trkpt><trkpt lat="43.56563674519741" lon="10.80061255018755"><ele>181.14285714285714</ele><time>2026-04-18T08:14:03Z</time></trkpt><trkpt lat="43.5656858091272" lon="10.800682825347142"><ele>181.42857142857144</ele><time>2026-04-18T08:14:04Z</time></trkpt><trkpt lat="43.56573651045555" lon="10.800762829458307"><ele>181.71428571428572</ele><time>2026-04-18T08:14:05Z</time></trkpt><trkpt lat="43.565794959451765" lon="10.800838919404665"><ele>182.0</ele><time>2026-04-18T08:14:06Z</time></trkpt><trkpt lat="43.56585922082977" lon="10.800906871538558"><ele>182.0</ele><time>2026-04-18T08:14:07Z</time></trkpt><trkpt lat="43.565929653673756" lon="10.800968977689408"><ele>182.0</ele><time>2026-04-18T08:14:08Z</time></trkpt><trkpt lat="43.56601452181792" lon="10.80102553402611"><ele>182.0</ele><time>2026-04-18T08:14:09Z</time></trkpt><trkpt lat="43.566106553689345" lon="10.801084836308103"><ele>182.0</ele><time>2026-04-18T08:14:10Z</time></trkpt><trkpt lat="43.566205052453306" lon="10.80114968586951"><ele>182.0</ele><time>2026-04-18T08:14:11Z</time></trkpt><trkpt lat="43.566309300902084" lon="10.801219089546297"><ele>182.25</ele><time>2026-04-18T08:14:12Z</time></trkpt><trkpt lat="43.5664146757371" lon="10.801289090979472"><ele>182.5</ele><time>2026-04-18T08:14:13Z</time></trkpt><trkpt lat="43.566519828507026" lon="10.801356751062896"><ele>182.75</ele><time>2026-04-18T08:14:14Z</time></trkpt><trkpt lat="43.56662550330279" lon="10.801421689640934"><ele>183.0</ele><time>2026-04-18T08:14:15Z</time></trkpt><trkpt lat="43.566739448088164" lon="10.80146687569701"><ele>183.0</ele><time>2026-04-18T08:14:16Z</time></trkpt><trkpt lat="43.56684981611505" lon="10.80153783909577"><ele>183.0</ele><time>2026-04-18T08:14:17Z</time></trkpt><trkpt lat="43.56696342787642" lon="10.801614309947793"><ele>183.0</ele><time>2026-04-18T08:14:18Z</time></trkpt><trkpt lat="43.56708321374096" lon="10.801680686018331"><ele>183.0</ele><time>2026-04-18T08:14:19Z</time></trkpt><trkpt lat="43.56720135825756" lon="10.80174326514864"><ele>183.0</ele><time>2026-04-18T08:14:20Z</time></trkpt><trkpt lat="43.56731935628981" lon="10.801795348904657"><ele>183.0</ele><time>2026-04-18T08:14:21Z</time></trkpt><trkpt lat="43.567550474973224" lon="10.80186218152572"><ele>183.0</ele><time>2026-04-18T08:14:23Z</time></trkpt><trkpt lat="43.56766144260414" lon="10.801881907968621"><ele>183.0</ele><time>2026-04-18T08:14:24Z</time></trkpt><trkpt lat="43.567771247785906" lon="10.801894147837807"><ele>183.0</ele><time>2026-04-18T08:14:25Z</time></trkpt><trkpt lat="43.567883467533974" lon="10.80190252023927"><ele>183.0</ele><time>2026-04-18T08:14:26Z</time></trkpt><trkpt lat="43.56799910055677" lon="10.801908701654515"><ele>183.0</ele><time>2026-04-18T08:14:27Z</time></trkpt><trkpt lat="43.56811969343089" lon="10.801913086825452"><ele>182.5</ele><time>2026-04-18T08:14:28Z</time></trkpt><trkpt lat="43.56824320807801" lon="10.801916143265405"><ele>182.0</ele><time>2026-04-18T08:14:29Z</time></trkpt><trkpt lat="43.56837063495114" lon="10.801918494594215"><ele>181.5</ele><time>2026-04-18T08:14:30Z</time></trkpt><trkpt lat="43.56849862601748" lon="10.801925776446891"><ele>181.0</ele><time>2026-04-18T08:14:31Z</time></trkpt><trkpt lat="43.568624375404" lon="10.801934893418863"><ele>183.60000000000002</ele><time>2026-04-18T08:14:32Z</time></trkpt><trkpt lat="43.568744753870355" lon="10.80194553154388"><ele>186.2</ele><time>2026-04-18T08:14:33Z</time></trkpt><trkpt lat="43.56885672041579" lon="10.801946419927043"><ele>188.8</ele><time>2026-04-18T08:14:34Z</time></trkpt><trkpt lat="43.56896540239912" lon="10.801927080824312"><ele>191.39999999999998</ele><time>2026-04-18T08:14:35Z</time></trkpt><trkpt lat="43.56906814118739" lon="10.801887892977275"><ele>194.0</ele><time>2026-04-18T08:14:36Z</time></trkpt><trkpt lat="43.569162881814464" lon="10.80184375068151"><ele>194.0</ele><time>2026-04-18T08:14:37Z</time></trkpt><trkpt lat="43.56925452550731" lon="10.801815729722842"><ele>194.0</ele><time>2026-04-18T08:14:38Z</time></trkpt><trkpt lat="43.56934039521849" lon="10.801815909598677"><ele>194.0</ele><time>2026-04-18T08:14:39Z</time></trkpt><trkpt lat="43.569409967318364" lon="10.801838642576723"><ele>194.0</ele><time>2026-04-18T08:14:40Z</time></trkpt><trkpt lat="43.56952260559044" lon="10.8019482528147"><ele>194.0</ele><time>2026-04-18T08:14:42Z</time></trkpt><trkpt lat="43.56956884008698" lon="10.80202881402664"><ele>198.16666666666669</ele><time>2026-04-18T08:14:43Z</time></trkpt><trkpt lat="43.56961643876082" lon="10.802115706257007"><ele>202.33333333333334</ele><time>2026-04-18T08:14:44Z</time></trkpt><trkpt lat="43.56966368324092" lon="10.802209907771532"><ele>206.5</ele><time>2026-04-18T08:14:45Z</time></trkpt><trkpt lat="43.56971099060003" lon="10.802310279449069"><ele>210.66666666666669</ele><time>2026-04-18T08:14:46Z</time></trkpt><trkpt lat="43.56975613672664" lon="10.802407119948642"><ele>214.83333333333334</ele><time>2026-04-18T08:14:47Z</time></trkpt><trkpt lat="43.56978041071955" lon="10.80250325229098"><ele>219.0</ele><time>2026-04-18T08:14:48Z</time></trkpt><trkpt lat="43.569827508369634" lon="10.802577927379671"><ele>216.66666666666666</ele><time>2026-04-18T08:14:49Z</time></trkpt><trkpt lat="43.569863493557975" lon="10.80266549555094"><ele>214.33333333333331</ele><time>2026-04-18T08:14:50Z</time></trkpt><trkpt lat="43.5698998363496" lon="10.802758676337488"><ele>212.0</ele><time>2026-04-18T08:14:51Z</time></trkpt><trkpt lat="43.56994200664858" lon="10.802859831621202"><ele>209.66666666666666</ele><time>2026-04-18T08:14:52Z</time></trkpt><trkpt lat="43.569985898973165" lon="10.802963087435788"><ele>207.33333333333331</ele><time>2026-04-18T08:14:53Z</time></trkpt><trkpt lat="43.57003582291511" lon="10.803068031464408"><ele>205.0</ele><time>2026-04-18T08:14:54Z</time></trkpt><trkpt lat="43.57009238191056" lon="10.803169515257958"><ele>205.0</ele><time>2026-04-18T08:14:55Z</time></trkpt><trkpt lat="43.570164307068815" lon="10.803259712941193"><ele>205.0</ele><time>2026-04-18T08:14:56Z</time></trkpt><trkpt lat="43.57025488776651" lon="10.80333594235398"><ele>205.0</ele><time>2026-04-18T08:14:57Z</time></trkpt><trkpt lat="43.57036343753318" lon="10.80339627829377"><ele>205.0</ele><time>2026-04-18T08:14:58Z</time></trkpt><trkpt lat="43.57047660447865" lon="10.803455701437022"><ele>205.0</ele><time>2026-04-18T08:14:59Z</time></trkpt><trkpt lat="43.570589938229524" lon="10.803520000890897"><ele>204.4</ele><time>2026-04-18T08:15:00Z</time></trkpt><trkpt lat="43.570692746025834" lon="10.803581773658136"><ele>203.8</ele><time>2026-04-18T08:15:01Z</time></trkpt><trkpt lat="43.57078572288237" lon="10.803645232425074"><ele>203.2</ele><time>2026-04-18T08:15:02Z</time></trkpt><trkpt lat="43.57086840737942" lon="10.803720929756663"><ele>202.6</ele><time>2026-04-18T08:15:03Z</time></trkpt><trkpt lat="43.570936427292516" lon="10.803813637802556"><ele>202.0</ele><time>2026-04-18T08:15:04Z</time></trkpt><trkpt lat="43.57099075014751" lon="10.803925129278664"><ele>202.0</ele><time>2026-04-18T08:15:05Z</time></trkpt><trkpt lat="43.57102840824434" lon="10.804044061486675"><ele>202.0</ele><time>2026-04-18T08:15:06Z</time></trkpt><trkpt lat="43.57105464560285" lon="10.804170218974328"><ele>202.0</ele><time>2026-04-18T08:15:07Z</time></trkpt><trkpt lat="43.57107050244374" lon="10.804301138688567"><ele>202.0</ele><time>2026-04-18T08:15:08Z</time></trkpt><trkpt lat="43.5710799970312" lon="10.804440938074189"><ele>202.0</ele><time>2026-04-18T08:15:09Z</time></trkpt><trkpt lat="43.57108202540795" lon="10.80459026426625"><ele>199.5</ele><time>2026-04-18T08:15:10Z</time></trkpt><trkpt lat="43.57106863045326" lon="10.804749591636906"><ele>197.0</ele><time>2026-04-18T08:15:11Z</time></trkpt><trkpt lat="43.57104946489653" lon="10.804921016267471"><ele>194.5</ele><time>2026-04-18T08:15:12Z</time></trkpt><trkpt lat="43.57102880707433" lon="10.805102585023898"><ele>192.0</ele><time>2026-04-18T08:15:13Z</time></trkpt><trkpt lat="43.57101133543332" lon="10.805283253847943"><ele>189.25</ele><time>2026-04-18T08:15:14Z</time></trkpt><trkpt lat="43.570993835063625" lon="10.805458776677135"><ele>186.5</ele><time>2026-04-18T08:15:15Z</time></trkpt><trkpt lat="43.570976508679934" lon="10.805624380009078"><ele>183.75</ele><time>2026-04-18T08:15:16Z</time></trkpt><trkpt lat="43.570967893573346" lon="10.805788023915722"><ele>181.0</ele><time>2026-04-18T08:15:17Z</time></trkpt><trkpt lat="43.57097760726666" lon="10.805958648766332"><ele>179.75</ele><time>2026-04-18T08:15:18Z</time></trkpt><trkpt lat="43.57100091843053" lon="10.806132701022047"><ele>178.5</ele><time>2026-04-18T08:15:19Z</time></trkpt><trkpt lat="43.571025873582165" lon="10.806309649378761"><ele>177.25</ele><time>2026-04-18T08:15:20.001Z</time></trkpt><trkpt lat="43.5710528391854" lon="10.806487025836317"><ele>176.0</ele><time>2026-04-18T08:15:21.001Z</time></trkpt><trkpt lat="43.57108065216813" lon="10.806660660183082"><ele>176.0</ele><time>2026-04-18T08:15:22.001Z</time></trkpt><trkpt lat="43.571108443053646" lon="10.806825343023192"><ele>176.0</ele><time>2026-04-18T08:15:23.001Z</time></trkpt><trkpt lat="43.57113617941231" lon="10.806980530445776"><ele>176.0</ele><time>2026-04-18T08:15:24.001Z</time></trkpt><trkpt lat="43.57115944284987" lon="10.807130103738924"><ele>176.0</ele><time>2026-04-18T08:15:25.001Z</time></trkpt><trkpt lat="43.571169920295794" lon="10.807272890978972"><ele>176.0</ele><time>2026-04-18T08:15:26.001Z</time></trkpt><trkpt lat="43.571156384720936" lon="10.807415616248669"><ele>176.0</ele><time>2026-04-18T08:15:27.001Z</time></trkpt><trkpt lat="43.57112833829697" lon="10.807557603690885"><ele>176.0</ele><time>2026-04-18T08:15:28.001Z</time></trkpt><trkpt lat="43.571083244062386" lon="10.807691070332496"><ele>176.0</ele><time>2026-04-18T08:15:29.001Z</time></trkpt><trkpt lat="43.571023997142056" lon="10.807811924154956"><ele>176.0</ele><time>2026-04-18T08:15:30.001Z</time></trkpt><trkpt lat="43.57095409281844" lon="10.807926305040947"><ele>176.0</ele><time>2026-04-18T08:15:31.001Z</time></trkpt><trkpt lat="43.5708793610251" lon="10.80804569269291"><ele>176.0</ele><time>2026-04-18T08:15:32.001Z</time></trkpt><trkpt lat="43.570802508114454" lon="10.808170536517766"><ele>176.0</ele><time>2026-04-18T08:15:33.001Z</time></trkpt><trkpt lat="43.57072403077757" lon="10.80829739839034"><ele>176.0</ele><time>2026-04-18T08:15:34.001Z</time></trkpt><trkpt lat="43.57064742166645" lon="10.80842833779255"><ele>174.8</ele><time>2026-04-18T08:15:35.001Z</time></trkpt><trkpt lat="43.570567500093304" lon="10.80855421082062"><ele>173.60000000000002</ele><time>2026-04-18T08:15:36.001Z</time></trkpt><trkpt lat="43.57048398116532" lon="10.808662803418956"><ele>172.4</ele><time>2026-04-18T08:15:37.001Z</time></trkpt><trkpt lat="43.57039842879082" lon="10.808748723336981"><ele>171.2</ele><time>2026-04-18T08:15:38.001Z</time></trkpt><trkpt lat="43.57030648648575" lon="10.808809691646259"><ele>170.0</ele><time>2026-04-18T08:15:39.001Z</time></trkpt><trkpt lat="43.57020476518432" lon="10.808839963094035"><ele>170.0</ele><time>2026-04-18T08:15:40.001Z</time></trkpt><trkpt lat="43.57010253624326" lon="10.808860316364546"><ele>170.0</ele><time>2026-04-18T08:15:41Z</time></trkpt><trkpt lat="43.569981668906664" lon="10.808824737889537"><ele>170.0</ele><time>2026-04-18T08:15:42Z</time></trkpt><trkpt lat="43.569877392610685" lon="10.808758415748278"><ele>170.0</ele><time>2026-04-18T08:15:43Z</time></trkpt><trkpt lat="43.56977687355859" lon="10.808692940151444"><ele>170.0</ele><time>2026-04-18T08:15:44Z</time></trkpt><trkpt lat="43.56968379909199" lon="10.808645270808611"><ele>170.0</ele><time>2026-04-18T08:15:45Z</time></trkpt><trkpt lat="43.5695958373479" lon="10.808624980675875"><ele>170.0</ele><time>2026-04-18T08:15:46Z</time></trkpt><trkpt lat="43.56949685839951" lon="10.808636645750353"><ele>170.0</ele><time>2026-04-18T08:15:47Z</time></trkpt><trkpt lat="43.569396299993876" lon="10.808684203455329"><ele>170.0</ele><time>2026-04-18T08:15:48Z</time></trkpt><trkpt lat="43.569299942000164" lon="10.80875579531734"><ele>169.5</ele><time>2026-04-18T08:15:49Z</time></trkpt><trkpt lat="43.5692058236353" lon="10.808842278440821"><ele>169.0</ele><time>2026-04-18T08:15:50Z</time></trkpt><trkpt lat="43.56911691148692" lon="10.808946746077119"><ele>168.5</ele><time>2026-04-18T08:15:51Z</time></trkpt><trkpt lat="43.56903246798501" lon="10.80906030658326"><ele>168.0</ele><time>2026-04-18T08:15:52Z</time></trkpt><trkpt lat="43.568955218071395" lon="10.80918888577156"><ele>168.0</ele><time>2026-04-18T08:15:53Z</time></trkpt><trkpt lat="43.56887427970057" lon="10.809320313516373"><ele>168.0</ele><time>2026-04-18T08:15:54Z</time></trkpt><trkpt lat="43.56879173781267" lon="10.80944866955846"><ele>168.0</ele><time>2026-04-18T08:15:55Z</time></trkpt><trkpt lat="43.56871639373581" lon="10.809573853063506"><ele>168.0</ele><time>2026-04-18T08:15:56Z</time></trkpt><trkpt lat="43.568646885921886" lon="10.809691808161109"><ele>168.2</ele><time>2026-04-18T08:15:57Z</time></trkpt><trkpt lat="43.56857167129233" lon="10.809790117804239"><ele>168.4</ele><time>2026-04-18T08:15:58Z</time></trkpt><trkpt lat="43.568487787718624" lon="10.8098614320999"><ele>168.6</ele><time>2026-04-18T08:15:59Z</time></trkpt><trkpt lat="43.56839403581812" lon="10.809900685560669"><ele>168.79999999999998</ele><time>2026-04-18T08:16:00Z</time></trkpt><trkpt lat="43.56829571973761" lon="10.809915199307085"><ele>169.0</ele><time>2026-04-18T08:16:01Z</time></trkpt><trkpt lat="43.568196060117" lon="10.809931995656603"><ele>169.0</ele><time>2026-04-18T08:16:02Z</time></trkpt><trkpt lat="43.56810024808226" lon="10.809980528797922"><ele>169.0</ele><time>2026-04-18T08:16:03Z</time></trkpt><trkpt lat="43.568015230442526" lon="10.810072085939897"><ele>169.0</ele><time>2026-04-18T08:16:04Z</time></trkpt><trkpt lat="43.56794689172275" lon="10.81019858890052"><ele>169.0</ele><time>2026-04-18T08:16:05Z</time></trkpt><trkpt lat="43.567885652716726" lon="10.810333320157419"><ele>169.0</ele><time>2026-04-18T08:16:06Z</time></trkpt><trkpt lat="43.56782317657977" lon="10.81046042330884"><ele>170.0</ele><time>2026-04-18T08:16:07Z</time></trkpt><trkpt lat="43.56776816282018" lon="10.810585321406908"><ele>171.0</ele><time>2026-04-18T08:16:08Z</time></trkpt><trkpt lat="43.567740096820884" lon="10.810721154271079"><ele>172.0</ele><time>2026-04-18T08:16:09Z</time></trkpt><trkpt lat="43.56774079072763" lon="10.81085577660457"><ele>173.0</ele><time>2026-04-18T08:16:10Z</time></trkpt><trkpt lat="43.56776353206068" lon="10.81098191567229"><ele>174.0</ele><time>2026-04-18T08:16:11Z</time></trkpt><trkpt lat="43.56780243233694" lon="10.811095819525036"><ele>172.6</ele><time>2026-04-18T08:16:12Z</time></trkpt><trkpt lat="43.56783907750287" lon="10.811207852995228"><ele>171.2</ele><time>2026-04-18T08:16:13Z</time></trkpt><trkpt lat="43.56787339082428" lon="10.811320847134862"><ele>169.79999999999998</ele><time>2026-04-18T08:16:14Z</time></trkpt><trkpt lat="43.56790869114478" lon="10.811437203085108"><ele>168.39999999999998</ele><time>2026-04-18T08:16:15Z</time></trkpt><trkpt lat="43.56794248074546" lon="10.811559465278703"><ele>167.0</ele><time>2026-04-18T08:16:16Z</time></trkpt><trkpt lat="43.56797471054398" lon="10.811685868808446"><ele>167.0</ele><time>2026-04-18T08:16:17Z</time></trkpt><trkpt lat="43.56800845852336" lon="10.811817088454214"><ele>167.0</ele><time>2026-04-18T08:16:18Z</time></trkpt><trkpt lat="43.56804406767358" lon="10.811954297460248"><ele>167.0</ele><time>2026-04-18T08:16:19Z</time></trkpt><trkpt lat="43.568081424653315" lon="10.812096105923782"><ele>167.0</ele><time>2026-04-18T08:16:20Z</time></trkpt><trkpt lat="43.56811815772043" lon="10.812242799452198"><ele>167.0</ele><time>2026-04-18T08:16:21Z</time></trkpt><trkpt lat="43.56815571217463" lon="10.812388804844117"><ele>168.0</ele><time>2026-04-18T08:16:22Z</time></trkpt><trkpt lat="43.568191185856044" lon="10.81252829808613"><ele>169.0</ele><time>2026-04-18T08:16:23Z</time></trkpt><trkpt lat="43.568203401582636" lon="10.812663319649758"><ele>170.0</ele><time>2026-04-18T08:16:24Z</time></trkpt><trkpt lat="43.56823156763606" lon="10.812781440590376"><ele>171.0</ele><time>2026-04-18T08:16:25Z</time></trkpt><trkpt lat="43.568219471752364" lon="10.812901574957449"><ele>172.0</ele><time>2026-04-18T08:16:26Z</time></trkpt><trkpt lat="43.5681907841292" lon="10.813020675513924"><ele>172.0</ele><time>2026-04-18T08:16:27Z</time></trkpt><trkpt lat="43.56814980741372" lon="10.81313736776197"><ele>172.0</ele><time>2026-04-18T08:16:28Z</time></trkpt><trkpt lat="43.56809834086769" lon="10.813252953068496"><ele>172.0</ele><time>2026-04-18T08:16:29Z</time></trkpt><trkpt lat="43.56805052457438" lon="10.8133712040653"><ele>172.0</ele><time>2026-04-18T08:16:30Z</time></trkpt><trkpt lat="43.568018250593944" lon="10.813495539282286"><ele>172.0</ele><time>2026-04-18T08:16:31Z</time></trkpt><trkpt lat="43.56800445931551" lon="10.813623624269798"><ele>172.2</ele><time>2026-04-18T08:16:32Z</time></trkpt><trkpt lat="43.56800792439797" lon="10.813760719306567"><ele>172.39999999999998</ele><time>2026-04-18T08:16:33Z</time></trkpt><trkpt lat="43.56802126441138" lon="10.813906939229762"><ele>172.60000000000002</ele><time>2026-04-18T08:16:34Z</time></trkpt><trkpt lat="43.56803690932421" lon="10.814056985367369"><ele>172.8</ele><time>2026-04-18T08:16:35Z</time></trkpt><trkpt lat="43.56805362024484" lon="10.814207705265414"><ele>173.0</ele><time>2026-04-18T08:16:36Z</time></trkpt><trkpt lat="43.56807176572669" lon="10.81436250710175"><ele>174.25</ele><time>2026-04-18T08:16:37Z</time></trkpt><trkpt lat="43.56808778198431" lon="10.814525682852127"><ele>175.5</ele><time>2026-04-18T08:16:38Z</time></trkpt><trkpt lat="43.568102022873205" lon="10.814698611755803"><ele>176.75</ele><time>2026-04-18T08:16:39Z</time></trkpt><trkpt lat="43.56811743601247" lon="10.814878247622502"><ele>178.0</ele><time>2026-04-18T08:16:40Z</time></trkpt><trkpt lat="43.56813520036276" lon="10.815057945372338"><ele>178.75</ele><time>2026-04-18T08:16:41Z</time></trkpt><trkpt lat="43.56815753565472" lon="10.815238774612602"><ele>179.5</ele><time>2026-04-18T08:16:42Z</time></trkpt><trkpt lat="43.56818940786589" lon="10.815418138485379"><ele>180.25</ele><time>2026-04-18T08:16:43.001Z</time></trkpt><trkpt lat="43.56823022868505" lon="10.815595003236922"><ele>181.0</ele><time>2026-04-18T08:16:44.001Z</time></trkpt><trkpt lat="43.56828190280605" lon="10.81577001353771"><ele>181.0</ele><time>2026-04-18T08:16:45.001Z</time></trkpt><trkpt lat="43.568348219509744" lon="10.81594006271936"><ele>181.0</ele><time>2026-04-18T08:16:46.001Z</time></trkpt><trkpt lat="43.56842541609167" lon="10.816104796304813"><ele>181.0</ele><time>2026-04-18T08:16:47.001Z</time></trkpt><trkpt lat="43.56850145385592" lon="10.816267422699175"><ele>181.0</ele><time>2026-04-18T08:16:48.001Z</time></trkpt><trkpt lat="43.56857612291418" lon="10.816423204979696"><ele>181.25</ele><time>2026-04-18T08:16:49.001Z</time></trkpt><trkpt lat="43.56865091470257" lon="10.816579366084408"><ele>181.5</ele><time>2026-04-18T08:16:50.001Z</time></trkpt><trkpt lat="43.56872781033562" lon="10.8167393058566"><ele>181.75</ele><time>2026-04-18T08:16:51.001Z</time></trkpt><trkpt lat="43.56880773972269" lon="10.816902513252138"><ele>182.0</ele><time>2026-04-18T08:16:52.001Z</time></trkpt><trkpt lat="43.56888914645766" lon="10.817069323238394"><ele>182.0</ele><time>2026-04-18T08:16:53.001Z</time></trkpt><trkpt lat="43.56896947371465" lon="10.817240253950354"><ele>182.0</ele><time>2026-04-18T08:16:54.001Z</time></trkpt><trkpt lat="43.569043058755135" lon="10.817413745598117"><ele>182.0</ele><time>2026-04-18T08:16:55.001Z</time></trkpt><trkpt lat="43.56911461077934" lon="10.817589847827218"><ele>182.0</ele><time>2026-04-18T08:16:56.001Z</time></trkpt><trkpt lat="43.569183450272746" lon="10.817762022100302"><ele>179.5</ele><time>2026-04-18T08:16:57.001Z</time></trkpt><trkpt lat="43.56924855292374" lon="10.81791850100281"><ele>177.0</ele><time>2026-04-18T08:16:58.001Z</time></trkpt><trkpt lat="43.569308604518426" lon="10.81805996290511"><ele>174.5</ele><time>2026-04-18T08:16:59.001Z</time></trkpt><trkpt lat="43.56936444476133" lon="10.818190787719187"><ele>172.0</ele><time>2026-04-18T08:17:00.001Z</time></trkpt><trkpt lat="43.56940827390455" lon="10.818335520384606"><ele>172.0</ele><time>2026-04-18T08:17:01.001Z</time></trkpt><trkpt lat="43.5694507196594" lon="10.818463626401662"><ele>172.0</ele><time>2026-04-18T08:17:02.001Z</time></trkpt><trkpt lat="43.569476763909584" lon="10.818588682090036"><ele>172.0</ele><time>2026-04-18T08:17:03.001Z</time></trkpt><trkpt lat="43.56949115113182" lon="10.818690974177528"><ele>172.0</ele><time>2026-04-18T08:17:04.001Z</time></trkpt><trkpt lat="43.56949370025397" lon="10.818792610197702"><ele>172.0</ele><time>2026-04-18T08:17:05.001Z</time></trkpt><trkpt lat="43.5694894067086" lon="10.81890409426238"><ele>172.0</ele><time>2026-04-18T08:17:06.001Z</time></trkpt><trkpt lat="43.56947739932343" lon="10.819015657085481"><ele>171.6</ele><time>2026-04-18T08:17:07.001Z</time></trkpt><trkpt lat="43.56945156243546" lon="10.819127930585804"><ele>171.2</ele><time>2026-04-18T08:17:08.001Z</time></trkpt><trkpt lat="43.56941155351179" lon="10.819235680405288"><ele>170.8</ele><time>2026-04-18T08:17:09.001Z</time></trkpt><trkpt lat="43.5693596631498" lon="10.819339825333117"><ele>170.4</ele><time>2026-04-18T08:17:10.001Z</time></trkpt><trkpt lat="43.56930332264109" lon="10.819447095930157"><ele>170.0</ele><time>2026-04-18T08:17:11.001Z</time></trkpt><trkpt lat="43.569248211634296" lon="10.819558658362116"><ele>169.8</ele><time>2026-04-18T08:17:12.001Z</time></trkpt><trkpt lat="43.56919331205094" lon="10.819675942641101"><ele>169.6</ele><time>2026-04-18T08:17:13.001Z</time></trkpt><trkpt lat="43.56913588284073" lon="10.819794575420284"><ele>169.39999999999998</ele><time>2026-04-18T08:17:14.001Z</time></trkpt><trkpt lat="43.569078104383564" lon="10.81991695980735"><ele>169.2</ele><time>2026-04-18T08:17:15.001Z</time></trkpt><trkpt lat="43.5690225974778" lon="10.820046304065325"><ele>169.0</ele><time>2026-04-18T08:17:16.001Z</time></trkpt><trkpt lat="43.56896884051684" lon="10.820175174481708"><ele>167.6</ele><time>2026-04-18T08:17:17.001Z</time></trkpt><trkpt lat="43.56892543349259" lon="10.820290359915191"><ele>166.2</ele><time>2026-04-18T08:17:18.001Z</time></trkpt><trkpt lat="43.56889085852098" lon="10.820406038976842"><ele>164.79999999999998</ele><time>2026-04-18T08:17:19.001Z</time></trkpt><trkpt lat="43.56887213004676" lon="10.820528981420704"><ele>163.39999999999998</ele><time>2026-04-18T08:17:20.001Z</time></trkpt><trkpt lat="43.5688742992061" lon="10.820660419805598"><ele>162.0</ele><time>2026-04-18T08:17:21.001Z</time></trkpt><trkpt lat="43.56889181025313" lon="10.820798253719781"><ele>162.0</ele><time>2026-04-18T08:17:22.001Z</time></trkpt><trkpt lat="43.56891505046753" lon="10.820941541528315"><ele>162.0</ele><time>2026-04-18T08:17:23.001Z</time></trkpt><trkpt lat="43.56894222441907" lon="10.821094234604386"><ele>162.0</ele><time>2026-04-18T08:17:24.001Z</time></trkpt><trkpt lat="43.56896844360682" lon="10.821254071234646"><ele>162.0</ele><time>2026-04-18T08:17:25.001Z</time></trkpt><trkpt lat="43.568996717093015" lon="10.82141810894943"><ele>159.75</ele><time>2026-04-18T08:17:26.001Z</time></trkpt><trkpt lat="43.56902464765693" lon="10.821577641979655"><ele>157.5</ele><time>2026-04-18T08:17:27.001Z</time></trkpt><trkpt lat="43.569051863176256" lon="10.821730691858765"><ele>155.25</ele><time>2026-04-18T08:17:28.001Z</time></trkpt><trkpt lat="43.56907641727126" lon="10.821889892589697"><ele>153.0</ele><time>2026-04-18T08:17:29.001Z</time></trkpt><trkpt lat="43.5690916889885" lon="10.822211331538108"><ele>151.75</ele><time>2026-04-18T08:17:31.001Z</time></trkpt><trkpt lat="43.569085256626174" lon="10.82237364238529"><ele>150.5</ele><time>2026-04-18T08:17:32.001Z</time></trkpt><trkpt lat="43.56907428169056" lon="10.822544168177432"><ele>149.25</ele><time>2026-04-18T08:17:33.001Z</time></trkpt><trkpt lat="43.56906132487282" lon="10.822717685502996"><ele>148.0</ele><time>2026-04-18T08:17:34.001Z</time></trkpt><trkpt lat="43.56904568990156" lon="10.822894432052422"><ele>147.5</ele><time>2026-04-18T08:17:35.001Z</time></trkpt><trkpt lat="43.56902981342327" lon="10.82307909468806"><ele>147.0</ele><time>2026-04-18T08:17:36.001Z</time></trkpt><trkpt lat="43.569011382908435" lon="10.823264530558797"><ele>146.5</ele><time>2026-04-18T08:17:37.001Z</time></trkpt><trkpt lat="43.56898906405182" lon="10.823453489965468"><ele>146.0</ele><time>2026-04-18T08:17:38.001Z</time></trkpt><trkpt lat="43.56896260396774" lon="10.823635630504926"><ele>144.75</ele><time>2026-04-18T08:17:39.001Z</time></trkpt><trkpt lat="43.568932213191935" lon="10.823819801121275"><ele>143.5</ele><time>2026-04-18T08:17:40.001Z</time></trkpt><trkpt lat="43.56890347094975" lon="10.823998809532602"><ele>142.25</ele><time>2026-04-18T08:17:41.001Z</time></trkpt><trkpt lat="43.568876393491195" lon="10.8241702601773"><ele>141.0</ele><time>2026-04-18T08:17:42.001Z</time></trkpt><trkpt lat="43.56884741039119" lon="10.824333787960574"><ele>140.2</ele><time>2026-04-18T08:17:43.001Z</time></trkpt><trkpt lat="43.568819804390024" lon="10.824478211782473"><ele>139.39999999999998</ele><time>2026-04-18T08:17:44.001Z</time></trkpt><trkpt lat="43.56878093365294" lon="10.824607099454637"><ele>138.6</ele><time>2026-04-18T08:17:45.001Z</time></trkpt><trkpt lat="43.56876599100646" lon="10.824833901922501"><ele>137.79999999999998</ele><time>2026-04-18T08:17:47Z</time></trkpt><trkpt lat="43.568751335866395" lon="10.824931467773903"><ele>137.0</ele><time>2026-04-18T08:17:48Z</time></trkpt><trkpt lat="43.56869114904371" lon="10.825028186528936"><ele>136.83333333333331</ele><time>2026-04-18T08:17:50.001Z</time></trkpt><trkpt lat="43.56861436600489" lon="10.824996091194617"><ele>136.66666666666666</ele><time>2026-04-18T08:17:52.001Z</time></trkpt><trkpt lat="43.568573833675266" lon="10.824844136158017"><ele>136.5</ele><time>2026-04-18T08:17:54Z</time></trkpt><trkpt lat="43.56856171714604" lon="10.824745479765962"><ele>136.33333333333334</ele><time>2026-04-18T08:17:55.001Z</time></trkpt><trkpt lat="43.56855051396036" lon="10.824636595627522"><ele>136.16666666666669</ele><time>2026-04-18T08:17:56Z</time></trkpt><trkpt lat="43.56853695280981" lon="10.824513056819693"><ele>136.0</ele><time>2026-04-18T08:17:57Z</time></trkpt><trkpt lat="43.56850443989905" lon="10.824384276019549"><ele>135.0</ele><time>2026-04-18T08:17:58Z</time></trkpt><trkpt lat="43.568490752639136" lon="10.824246477552052"><ele>134.0</ele><time>2026-04-18T08:17:59Z</time></trkpt><trkpt lat="43.568473428097505" lon="10.824106194084255"><ele>133.0</ele><time>2026-04-18T08:18:00Z</time></trkpt><trkpt lat="43.56845585691945" lon="10.823961424241158"><ele>132.0</ele><time>2026-04-18T08:18:01Z</time></trkpt><trkpt lat="43.56844041679571" lon="10.823812923515002"><ele>131.0</ele><time>2026-04-18T08:18:02Z</time></trkpt><trkpt lat="43.56842557841007" lon="10.823660003210586"><ele>131.0</ele><time>2026-04-18T08:18:03Z</time></trkpt><trkpt lat="43.56841253255409" lon="10.823499705943252"><ele>131.0</ele><time>2026-04-18T08:18:04Z</time></trkpt><trkpt lat="43.56840284412362" lon="10.823334689457976"><ele>131.0</ele><time>2026-04-18T08:18:05Z</time></trkpt><trkpt lat="43.56839227313521" lon="10.823166935488477"><ele>131.0</ele><time>2026-04-18T08:18:06Z</time></trkpt><trkpt lat="43.568383257277674" lon="10.822995035464118"><ele>130.75</ele><time>2026-04-18T08:18:07.001Z</time></trkpt><trkpt lat="43.56837393913093" lon="10.822823256995814"><ele>130.5</ele><time>2026-04-18T08:18:08.001Z</time></trkpt><trkpt lat="43.568364462515014" lon="10.82265651064033"><ele>130.25</ele><time>2026-04-18T08:18:09.001Z</time></trkpt><trkpt lat="43.5683518510127" lon="10.822495890348424"><ele>130.0</ele><time>2026-04-18T08:18:10.001Z</time></trkpt><trkpt lat="43.568336337736454" lon="10.822351770332693"><ele>130.0</ele><time>2026-04-18T08:18:11.001Z</time></trkpt><trkpt lat="43.56830841814003" lon="10.822217793024965"><ele>130.0</ele><time>2026-04-18T08:18:12.001Z</time></trkpt><trkpt lat="43.56826521535687" lon="10.82209344348676"><ele>130.0</ele><time>2026-04-18T08:18:13.001Z</time></trkpt><trkpt lat="43.56820186461471" lon="10.821988062455807"><ele>130.0</ele><time>2026-04-18T08:18:14.001Z</time></trkpt><trkpt lat="43.568118964478195" lon="10.82190938255725"><ele>130.0</ele><time>2026-04-18T08:18:15.001Z</time></trkpt><trkpt lat="43.568024993127146" lon="10.821859150623295"><ele>130.0</ele><time>2026-04-18T08:18:16.001Z</time></trkpt><trkpt lat="43.56792225443872" lon="10.821835762441694"><ele>130.0</ele><time>2026-04-18T08:18:17.001Z</time></trkpt><trkpt lat="43.56781785859175" lon="10.821815333114982"><ele>130.0</ele><time>2026-04-18T08:18:18.001Z</time></trkpt><trkpt lat="43.56771295680329" lon="10.821786333407676"><ele>130.0</ele><time>2026-04-18T08:18:19.001Z</time></trkpt><trkpt lat="43.567604788700066" lon="10.821751711982362"><ele>130.0</ele><time>2026-04-18T08:18:20.001Z</time></trkpt><trkpt lat="43.56749346968272" lon="10.82172197520699"><ele>129.2</ele><time>2026-04-18T08:18:21.001Z</time></trkpt><trkpt lat="43.56737911417587" lon="10.821694825889297"><ele>128.4</ele><time>2026-04-18T08:18:22.001Z</time></trkpt><trkpt lat="43.56726649807843" lon="10.82166283068027"><ele>127.6</ele><time>2026-04-18T08:18:23.001Z</time></trkpt><trkpt lat="43.567158815594034" lon="10.821632636838162"><ele>126.8</ele><time>2026-04-18T08:18:24.001Z</time></trkpt><trkpt lat="43.56705308609001" lon="10.821600702769253"><ele>126.0</ele><time>2026-04-18T08:18:25.001Z</time></trkpt><trkpt lat="43.566946911688596" lon="10.821566555308706"><ele>122.8</ele><time>2026-04-18T08:18:26.001Z</time></trkpt><trkpt lat="43.56684104600782" lon="10.821540893195232"><ele>119.6</ele><time>2026-04-18T08:18:27.001Z</time></trkpt><trkpt lat="43.56673984477539" lon="10.82150560422157"><ele>116.4</ele><time>2026-04-18T08:18:28.001Z</time></trkpt><trkpt lat="43.566643880056624" lon="10.821470707220021"><ele>113.2</ele><time>2026-04-18T08:18:29.001Z</time></trkpt><trkpt lat="43.56654799744586" lon="10.821435142430913"><ele>110.0</ele><time>2026-04-18T08:18:30.001Z</time></trkpt><trkpt lat="43.566460567414026" lon="10.821401837111628"><ele>110.0</ele><time>2026-04-18T08:18:31.001Z</time></trkpt><trkpt lat="43.56637765400317" lon="10.821374450898256"><ele>110.0</ele><time>2026-04-18T08:18:32.001Z</time></trkpt><trkpt lat="43.566289140557245" lon="10.821358536121298"><ele>110.0</ele><time>2026-04-18T08:18:33.001Z</time></trkpt><trkpt lat="43.56620120638786" lon="10.821333126943667"><ele>110.0</ele><time>2026-04-18T08:18:34.001Z</time></trkpt><trkpt lat="43.566107716165774" lon="10.82131099679232"><ele>110.0</ele><time>2026-04-18T08:18:35.001Z</time></trkpt><trkpt lat="43.56601475018826" lon="10.82128518967594"><ele>107.8</ele><time>2026-04-18T08:18:36.001Z</time></trkpt><trkpt lat="43.565917236171416" lon="10.821267093873649"><ele>105.6</ele><time>2026-04-18T08:18:37.001Z</time></trkpt><trkpt lat="43.56581843406841" lon="10.82124388001733"><ele>103.4</ele><time>2026-04-18T08:18:38.001Z</time></trkpt><trkpt lat="43.56571899289759" lon="10.821211965318124"><ele>101.2</ele><time>2026-04-18T08:18:39.001Z</time></trkpt><trkpt lat="43.5656189857019" lon="10.821163401262867"><ele>99.0</ele><time>2026-04-18T08:18:40.001Z</time></trkpt><trkpt lat="43.56552059999058" lon="10.82109527606765"><ele>99.0</ele><time>2026-04-18T08:18:41.001Z</time></trkpt><trkpt lat="43.565426665145516" lon="10.821010820636605"><ele>99.0</ele><time>2026-04-18T08:18:42.001Z</time></trkpt><trkpt lat="43.565335016044784" lon="10.82091328325237"><ele>99.0</ele><time>2026-04-18T08:18:43.001Z</time></trkpt><trkpt lat="43.56524191897972" lon="10.820812739323184"><ele>99.0</ele><time>2026-04-18T08:18:44.001Z</time></trkpt><trkpt lat="43.5651477063048" lon="10.820706144627392"><ele>99.0</ele><time>2026-04-18T08:18:45.001Z</time></trkpt><trkpt lat="43.56505265534527" lon="10.820595541077527"><ele>99.0</ele><time>2026-04-18T08:18:46.001Z</time></trkpt><trkpt lat="43.56495342318719" lon="10.820484479755594"><ele>99.0</ele><time>2026-04-18T08:18:47.001Z</time></trkpt><trkpt lat="43.564851327739625" lon="10.82037281288557"><ele>99.0</ele><time>2026-04-18T08:18:48.001Z</time></trkpt><trkpt lat="43.56474643441728" lon="10.820259386682705"><ele>99.5</ele><time>2026-04-18T08:18:49.001Z</time></trkpt><trkpt lat="43.56463932251998" lon="10.820144146583658"><ele>100.0</ele><time>2026-04-18T08:18:50.001Z</time></trkpt><trkpt lat="43.564537254665495" lon="10.820022369932675"><ele>100.5</ele><time>2026-04-18T08:18:51.001Z</time></trkpt><trkpt lat="43.56444843135627" lon="10.819894256305103"><ele>101.0</ele><time>2026-04-18T08:18:52.001Z</time></trkpt><trkpt lat="43.56437175788206" lon="10.819758960029182"><ele>97.5</ele><time>2026-04-18T08:18:53.001Z</time></trkpt><trkpt lat="43.56430099798723" lon="10.819616730385496"><ele>94.0</ele><time>2026-04-18T08:18:54.001Z</time></trkpt><trkpt lat="43.564234221950166" lon="10.81946890694548"><ele>90.5</ele><time>2026-04-18T08:18:55.001Z</time></trkpt><trkpt lat="43.56416935124068" lon="10.819320939245763"><ele>87.0</ele><time>2026-04-18T08:18:56.001Z</time></trkpt><trkpt lat="43.56410502494066" lon="10.819180668398179"><ele>87.0</ele><time>2026-04-18T08:18:57.001Z</time></trkpt><trkpt lat="43.564047533574275" lon="10.819043833782949"><ele>87.0</ele><time>2026-04-18T08:18:58.001Z</time></trkpt><trkpt lat="43.563993411125466" lon="10.818914248099917"><ele>87.0</ele><time>2026-04-18T08:18:59.001Z</time></trkpt><trkpt lat="43.5639390311472" lon="10.81879739467435"><ele>87.0</ele><time>2026-04-18T08:19:00.001Z</time></trkpt><trkpt lat="43.56388403170107" lon="10.818695325717817"><ele>87.0</ele><time>2026-04-18T08:19:01.001Z</time></trkpt><trkpt lat="43.563834899125766" lon="10.818600796333678"><ele>87.0</ele><time>2026-04-18T08:19:02.001Z</time></trkpt><trkpt lat="43.56374049347729" lon="10.818562467422677"><ele>87.0</ele><time>2026-04-18T08:19:03.001Z</time></trkpt><trkpt lat="43.56365753126591" lon="10.818530233732822"><ele>87.0</ele><time>2026-04-18T08:19:04.001Z</time></trkpt><trkpt lat="43.563567994329155" lon="10.818518979292259"><ele>87.0</ele><time>2026-04-18T08:19:05.001Z</time></trkpt><trkpt lat="43.563477332549425" lon="10.818538789788649"><ele>87.0</ele><time>2026-04-18T08:19:06.001Z</time></trkpt><trkpt lat="43.56338612041422" lon="10.818586254789848"><ele>85.39999999999999</ele><time>2026-04-18T08:19:07.001Z</time></trkpt><trkpt lat="43.563291481271634" lon="10.818650420055537"><ele>83.8</ele><time>2026-04-18T08:19:08.001Z</time></trkpt><trkpt lat="43.56319298434787" lon="10.818715120174657"><ele>82.2</ele><time>2026-04-18T08:19:09.001Z</time></trkpt><trkpt lat="43.56309622323045" lon="10.818779939287815"><ele>80.6</ele><time>2026-04-18T08:19:10.001Z</time></trkpt><trkpt lat="43.5630022324452" lon="10.818845955258654"><ele>79.0</ele><time>2026-04-18T08:19:11.001Z</time></trkpt><trkpt lat="43.562912308270455" lon="10.818913292888277"><ele>79.83333333333333</ele><time>2026-04-18T08:19:12.001Z</time></trkpt><trkpt lat="43.56282546549369" lon="10.818978667955564"><ele>80.66666666666666</ele><time>2026-04-18T08:19:13.001Z</time></trkpt><trkpt lat="43.562738655536364" lon="10.819023035220985"><ele>81.5</ele><time>2026-04-18T08:19:14.001Z</time></trkpt><trkpt lat="43.562663657136746" lon="10.819094139683688"><ele>82.33333333333333</ele><time>2026-04-18T08:19:15.001Z</time></trkpt><trkpt lat="43.562588212510505" lon="10.819140111383614"><ele>83.16666666666667</ele><time>2026-04-18T08:19:16.001Z</time></trkpt><trkpt lat="43.562515716015355" lon="10.819185507974824"><ele>84.0</ele><time>2026-04-18T08:19:17.001Z</time></trkpt><trkpt lat="43.562444695236415" lon="10.819217513728786"><ele>84.0</ele><time>2026-04-18T08:19:18.001Z</time></trkpt><trkpt lat="43.5623653002261" lon="10.819231360575674"><ele>84.0</ele><time>2026-04-18T08:19:19.001Z</time></trkpt><trkpt lat="43.562285140895796" lon="10.819229941563199"><ele>84.0</ele><time>2026-04-18T08:19:20.001Z</time></trkpt><trkpt lat="43.56220805785404" lon="10.81917902877826"><ele>84.0</ele><time>2026-04-18T08:19:21.001Z</time></trkpt><trkpt lat="43.56213128202667" lon="10.819125587697032"><ele>84.0</ele><time>2026-04-18T08:19:22.001Z</time></trkpt><trkpt lat="43.56206077205693" lon="10.819045620438242"><ele>84.0</ele><time>2026-04-18T08:19:23.001Z</time></trkpt><trkpt lat="43.561998044638145" lon="10.818945986570963"><ele>83.6</ele><time>2026-04-18T08:19:24.001Z</time></trkpt><trkpt lat="43.56192177465283" lon="10.818856747339265"><ele>83.2</ele><time>2026-04-18T08:19:25.001Z</time></trkpt><trkpt lat="43.56186890612677" lon="10.818732200472326"><ele>82.8</ele><time>2026-04-18T08:19:26.001Z</time></trkpt><trkpt lat="43.56179612304229" lon="10.818634134424398"><ele>82.39999999999999</ele><time>2026-04-18T08:19:27.001Z</time></trkpt><trkpt lat="43.56172722575922" lon="10.818521074640612"><ele>82.0</ele><time>2026-04-18T08:19:28.001Z</time></trkpt><trkpt lat="43.56165673892588" lon="10.818400739722854"><ele>82.0</ele><time>2026-04-18T08:19:29.001Z</time></trkpt><trkpt lat="43.56158390802252" lon="10.818281498622872"><ele>82.0</ele><time>2026-04-18T08:19:30.001Z</time></trkpt><trkpt lat="43.561510246697544" lon="10.818157938589058"><ele>82.0</ele><time>2026-04-18T08:19:31.001Z</time></trkpt><trkpt lat="43.56143746495874" lon="10.818025776604753"><ele>82.0</ele><time>2026-04-18T08:19:32.001Z</time></trkpt><trkpt lat="43.5613611101406" lon="10.817892579584543"><ele>82.0</ele><time>2026-04-18T08:19:33.001Z</time></trkpt><trkpt lat="43.561289185985814" lon="10.81775920862646"><ele>82.0</ele><time>2026-04-18T08:19:34.001Z</time></trkpt><trkpt lat="43.561211423739216" lon="10.817632658321877"><ele>82.0</ele><time>2026-04-18T08:19:35.001Z</time></trkpt><trkpt lat="43.56114232013629" lon="10.817506078341815"><ele>82.0</ele><time>2026-04-18T08:19:36.001Z</time></trkpt><trkpt lat="43.56106551243792" lon="10.817394464644995"><ele>82.6</ele><time>2026-04-18T08:19:37.001Z</time></trkpt><trkpt lat="43.561003792155695" lon="10.817270584446696"><ele>83.19999999999999</ele><time>2026-04-18T08:19:38.001Z</time></trkpt><trkpt lat="43.56093810227623" lon="10.817155190669528"><ele>83.8</ele><time>2026-04-18T08:19:39.001Z</time></trkpt><trkpt lat="43.56087041401076" lon="10.817040531206576"><ele>84.4</ele><time>2026-04-18T08:19:40.001Z</time></trkpt><trkpt lat="43.56080183550662" lon="10.816942709827805"><ele>85.0</ele><time>2026-04-18T08:19:41.001Z</time></trkpt><trkpt lat="43.56073000752086" lon="10.816852603490325"><ele>85.6</ele><time>2026-04-18T08:19:42.001Z</time></trkpt><trkpt lat="43.560656830045595" lon="10.816766544166628"><ele>86.2</ele><time>2026-04-18T08:19:43.001Z</time></trkpt><trkpt lat="43.56057624912729" lon="10.81669118369745"><ele>86.80000000000001</ele><time>2026-04-18T08:19:44.001Z</time></trkpt><trkpt lat="43.56049285354122" lon="10.816623091460924"><ele>87.4</ele><time>2026-04-18T08:19:45.001Z</time></trkpt><trkpt lat="43.56041471374462" lon="10.816553590504046"><ele>88.0</ele><time>2026-04-18T08:19:46.001Z</time></trkpt><trkpt lat="43.560339048027465" lon="10.816483973597173"><ele>88.0</ele><time>2026-04-18T08:19:47.001Z</time></trkpt><trkpt lat="43.560262398744676" lon="10.816412075244115"><ele>88.0</ele><time>2026-04-18T08:19:48.001Z</time></trkpt><trkpt lat="43.56018402921429" lon="10.816337173151375"><ele>88.0</ele><time>2026-04-18T08:19:49.001Z</time></trkpt><trkpt lat="43.56010464521463" lon="10.816255335730734"><ele>88.0</ele><time>2026-04-18T08:19:50.001Z</time></trkpt><trkpt lat="43.56002540108348" lon="10.816171514633222"><ele>88.0</ele><time>2026-04-18T08:19:51.001Z</time></trkpt><trkpt lat="43.559946934904225" lon="10.816092181891948"><ele>88.0</ele><time>2026-04-18T08:19:52.001Z</time></trkpt><trkpt lat="43.55986688631288" lon="10.816013881618934"><ele>88.0</ele><time>2026-04-18T08:19:53Z</time></trkpt><trkpt lat="43.559786639466495" lon="10.815939823832602"><ele>88.0</ele><time>2026-04-18T08:19:54Z</time></trkpt><trkpt lat="43.55970580513597" lon="10.815865057909205"><ele>88.0</ele><time>2026-04-18T08:19:55Z</time></trkpt><trkpt lat="43.559620161681515" lon="10.81580032215835"><ele>88.0</ele><time>2026-04-18T08:19:56Z</time></trkpt><trkpt lat="43.559529926917754" lon="10.81574842450607"><ele>86.60000000000001</ele><time>2026-04-18T08:19:57Z</time></trkpt><trkpt lat="43.559436942699804" lon="10.815706931890611"><ele>85.2</ele><time>2026-04-18T08:19:58Z</time></trkpt><trkpt lat="43.559334026234566" lon="10.815679323051228"><ele>83.8</ele><time>2026-04-18T08:19:59Z</time></trkpt><trkpt lat="43.559229276333255" lon="10.815656386335089"><ele>82.4</ele><time>2026-04-18T08:20:00Z</time></trkpt><trkpt lat="43.55911724235233" lon="10.815636415832731"><ele>81.0</ele><time>2026-04-18T08:20:01Z</time></trkpt><trkpt lat="43.559003851774975" lon="10.815609953431462"><ele>81.0</ele><time>2026-04-18T08:20:02Z</time></trkpt><trkpt lat="43.558888565041016" lon="10.815582398944455"><ele>81.0</ele><time>2026-04-18T08:20:03Z</time></trkpt><trkpt lat="43.558771217569294" lon="10.815556241292843"><ele>81.0</ele><time>2026-04-18T08:20:04Z</time></trkpt><trkpt lat="43.55865210263262" lon="10.815532154362113"><ele>81.0</ele><time>2026-04-18T08:20:05Z</time></trkpt><trkpt lat="43.55853471479005" lon="10.815506204137703"><ele>80.75</ele><time>2026-04-18T08:20:06Z</time></trkpt><trkpt lat="43.55841869414315" lon="10.815479913943525"><ele>80.5</ele><time>2026-04-18T08:20:07Z</time></trkpt><trkpt lat="43.55830367421348" lon="10.815451851331549"><ele>80.25</ele><time>2026-04-18T08:20:08Z</time></trkpt><trkpt lat="43.558186857079754" lon="10.81542538064292"><ele>80.0</ele><time>2026-04-18T08:20:09Z</time></trkpt><trkpt lat="43.5580649277798" lon="10.815400193678867"><ele>80.0</ele><time>2026-04-18T08:20:10Z</time></trkpt><trkpt lat="43.557941648138446" lon="10.815373242705606"><ele>80.0</ele><time>2026-04-18T08:20:11Z</time></trkpt><trkpt lat="43.55781567913264" lon="10.815339019755733"><ele>80.0</ele><time>2026-04-18T08:20:12Z</time></trkpt><trkpt lat="43.5576885834806" lon="10.815308228952954"><ele>80.0</ele><time>2026-04-18T08:20:13Z</time></trkpt><trkpt lat="43.55756152592533" lon="10.815276610869901"><ele>79.25</ele><time>2026-04-18T08:20:14Z</time></trkpt><trkpt lat="43.55743859033983" lon="10.815244745013556"><ele>78.5</ele><time>2026-04-18T08:20:15Z</time></trkpt><trkpt lat="43.55731864752304" lon="10.815212774695274"><ele>77.75</ele><time>2026-04-18T08:20:16Z</time></trkpt><trkpt lat="43.557199885976594" lon="10.81518531079046"><ele>77.0</ele><time>2026-04-18T08:20:17Z</time></trkpt><trkpt lat="43.55708346861991" lon="10.815170420458436"><ele>77.8</ele><time>2026-04-18T08:20:18Z</time></trkpt><trkpt lat="43.55696995712231" lon="10.815172218168273"><ele>78.6</ele><time>2026-04-18T08:20:19Z</time></trkpt><trkpt lat="43.55686232475901" lon="10.815189095495786"><ele>79.39999999999999</ele><time>2026-04-18T08:20:20Z</time></trkpt><trkpt lat="43.55675627673877" lon="10.81521566079137"><ele>80.2</ele><time>2026-04-18T08:20:21Z</time></trkpt><trkpt lat="43.55665275161104" lon="10.8152409257488"><ele>81.0</ele><time>2026-04-18T08:20:22Z</time></trkpt><trkpt lat="43.55655050013925" lon="10.815268971136572"><ele>81.0</ele><time>2026-04-18T08:20:23Z</time></trkpt><trkpt lat="43.5564518910508" lon="10.815305337257628"><ele>81.0</ele><time>2026-04-18T08:20:24Z</time></trkpt><trkpt lat="43.556354151817125" lon="10.815346069199553"><ele>81.0</ele><time>2026-04-18T08:20:25Z</time></trkpt><trkpt lat="43.55625576008541" lon="10.81538461245152"><ele>81.0</ele><time>2026-04-18T08:20:26Z</time></trkpt><trkpt lat="43.556157632638474" lon="10.815421949957683"><ele>81.0</ele><time>2026-04-18T08:20:27Z</time></trkpt><trkpt lat="43.55605986033541" lon="10.8154559924179"><ele>82.6</ele><time>2026-04-18T08:20:28Z</time></trkpt><trkpt lat="43.55596320577338" lon="10.815487316839931"><ele>84.19999999999999</ele><time>2026-04-18T08:20:29Z</time></trkpt><trkpt lat="43.555866034453295" lon="10.81551955956673"><ele>85.80000000000001</ele><time>2026-04-18T08:20:30Z</time></trkpt><trkpt lat="43.55576954767626" lon="10.815555925769022"><ele>87.4</ele><time>2026-04-18T08:20:31Z</time></trkpt><trkpt lat="43.555674349206626" lon="10.815591956523987"><ele>89.0</ele><time>2026-04-18T08:20:32Z</time></trkpt><trkpt lat="43.55558435052316" lon="10.815640750439655"><ele>89.0</ele><time>2026-04-18T08:20:33Z</time></trkpt><trkpt lat="43.55549952486816" lon="10.815707526488312"><ele>89.0</ele><time>2026-04-18T08:20:34Z</time></trkpt><trkpt lat="43.55542119525585" lon="10.815791716725338"><ele>89.0</ele><time>2026-04-18T08:20:35Z</time></trkpt><trkpt lat="43.555353044690904" lon="10.815888063600404"><ele>89.0</ele><time>2026-04-18T08:20:36Z</time></trkpt><trkpt lat="43.55528765599173" lon="10.815983476988288"><ele>89.0</ele><time>2026-04-18T08:20:37Z</time></trkpt><trkpt lat="43.55522596113199" lon="10.816083491200546"><ele>90.6</ele><time>2026-04-18T08:20:38Z</time></trkpt><trkpt lat="43.55516986541977" lon="10.816196787070682"><ele>92.2</ele><time>2026-04-18T08:20:39Z</time></trkpt><trkpt lat="43.5551122392046" lon="10.81631616430657"><ele>93.8</ele><time>2026-04-18T08:20:40Z</time></trkpt><trkpt lat="43.555050477962354" lon="10.816433571732244"><ele>95.39999999999999</ele><time>2026-04-18T08:20:41Z</time></trkpt><trkpt lat="43.55498542381704" lon="10.816549070709351"><ele>97.0</ele><time>2026-04-18T08:20:42Z</time></trkpt><trkpt lat="43.55492139587076" lon="10.816666222976083"><ele>97.0</ele><time>2026-04-18T08:20:43Z</time></trkpt><trkpt lat="43.55485898317624" lon="10.816782653474649"><ele>97.0</ele><time>2026-04-18T08:20:44Z</time></trkpt><trkpt lat="43.554798084477675" lon="10.816902839334237"><ele>97.0</ele><time>2026-04-18T08:20:45Z</time></trkpt><trkpt lat="43.55473520950781" lon="10.81702094348512"><ele>97.0</ele><time>2026-04-18T08:20:46Z</time></trkpt><trkpt lat="43.554672417951956" lon="10.817136747207853"><ele>97.0</ele><time>2026-04-18T08:20:47.001Z</time></trkpt><trkpt lat="43.55460839551178" lon="10.817248673121119"><ele>97.8</ele><time>2026-04-18T08:20:48.001Z</time></trkpt><trkpt lat="43.55454724685524" lon="10.817357165303168"><ele>98.6</ele><time>2026-04-18T08:20:49.001Z</time></trkpt><trkpt lat="43.55448818370834" lon="10.817466756756605"><ele>99.39999999999999</ele><time>2026-04-18T08:20:50.001Z</time></trkpt><trkpt lat="43.554427158125556" lon="10.817573887748821"><ele>100.19999999999999</ele><time>2026-04-18T08:20:51.001Z</time></trkpt><trkpt lat="43.55436667672751" lon="10.817680354270445"><ele>101.0</ele><time>2026-04-18T08:20:52.001Z</time></trkpt><trkpt lat="43.55430695432275" lon="10.817787839402204"><ele>102.6</ele><time>2026-04-18T08:20:53.001Z</time></trkpt><trkpt lat="43.55424735868031" lon="10.817896689528126"><ele>104.19999999999999</ele><time>2026-04-18T08:20:54.001Z</time></trkpt><trkpt lat="43.554187533522295" lon="10.818007452737982"><ele>105.80000000000001</ele><time>2026-04-18T08:20:55.001Z</time></trkpt><trkpt lat="43.55412863290002" lon="10.818121529586593"><ele>107.4</ele><time>2026-04-18T08:20:56.001Z</time></trkpt><trkpt lat="43.55407094917881" lon="10.818234011558381"><ele>109.0</ele><time>2026-04-18T08:20:57.001Z</time></trkpt><trkpt lat="43.55401356876047" lon="10.818342006562508"><ele>109.0</ele><time>2026-04-18T08:20:58.001Z</time></trkpt><trkpt lat="43.553955802415125" lon="10.81844959990539"><ele>109.0</ele><time>2026-04-18T08:20:59.001Z</time></trkpt><trkpt lat="43.55389803814519" lon="10.81855560384999"><ele>109.0</ele><time>2026-04-18T08:21:00.001Z</time></trkpt><trkpt lat="43.55383816210304" lon="10.81866097745413"><ele>109.0</ele><time>2026-04-18T08:21:01.001Z</time></trkpt><trkpt lat="43.553777006619924" lon="10.818766424260994"><ele>109.0</ele><time>2026-04-18T08:21:02.001Z</time></trkpt><trkpt lat="43.55371565191562" lon="10.818873253473093"><ele>110.4</ele><time>2026-04-18T08:21:03.001Z</time></trkpt><trkpt lat="43.55365547708627" lon="10.818982624359691"><ele>111.80000000000001</ele><time>2026-04-18T08:21:04.001Z</time></trkpt><trkpt lat="43.553594526843064" lon="10.819093063455998"><ele>113.19999999999999</ele><time>2026-04-18T08:21:05.001Z</time></trkpt><trkpt lat="43.553532718154706" lon="10.819203811356402"><ele>114.6</ele><time>2026-04-18T08:21:06.001Z</time></trkpt><trkpt lat="43.553471366751204" lon="10.819315502542782"><ele>116.0</ele><time>2026-04-18T08:21:07.001Z</time></trkpt><trkpt lat="43.553408359" lon="10.819428588345252"><ele>117.19999999999999</ele><time>2026-04-18T08:21:08.001Z</time></trkpt><trkpt lat="43.553344734120294" lon="10.81954207287316"><ele>118.39999999999999</ele><time>2026-04-18T08:21:09.001Z</time></trkpt><trkpt lat="43.553281043470264" lon="10.819656651187952"><ele>119.6</ele><time>2026-04-18T08:21:10.001Z</time></trkpt><trkpt lat="43.55321722254323" lon="10.819772671883563"><ele>120.8</ele><time>2026-04-18T08:21:11.001Z</time></trkpt><trkpt lat="43.55315151473455" lon="10.819890936306422"><ele>122.0</ele><time>2026-04-18T08:21:12.001Z</time></trkpt><trkpt lat="43.55308496523193" lon="10.820007883575373"><ele>122.0</ele><time>2026-04-18T08:21:13.001Z</time></trkpt><trkpt lat="43.55301777464904" lon="10.820125486026006"><ele>121.99999999999999</ele><time>2026-04-18T08:21:14.001Z</time></trkpt><trkpt lat="43.552950918369696" lon="10.820243617375882"><ele>121.99999999999999</ele><time>2026-04-18T08:21:15.001Z</time></trkpt><trkpt lat="43.55288475345885" lon="10.820363592949317"><ele>122.0</ele><time>2026-04-18T08:21:16.001Z</time></trkpt><trkpt lat="43.552818008834535" lon="10.820482809139383"><ele>122.0</ele><time>2026-04-18T08:21:17.001Z</time></trkpt><trkpt lat="43.55275125195902" lon="10.820602739289921"><ele>122.8</ele><time>2026-04-18T08:21:18.001Z</time></trkpt><trkpt lat="43.55268622218609" lon="10.820724202844405"><ele>123.6</ele><time>2026-04-18T08:21:19.001Z</time></trkpt><trkpt lat="43.55262016105355" lon="10.820844799043462"><ele>124.39999999999999</ele><time>2026-04-18T08:21:20.001Z</time></trkpt><trkpt lat="43.55255595117687" lon="10.820967404834349"><ele>125.19999999999999</ele><time>2026-04-18T08:21:21.001Z</time></trkpt><trkpt lat="43.55249154720909" lon="10.82109079781597"><ele>126.0</ele><time>2026-04-18T08:21:22.001Z</time></trkpt><trkpt lat="43.55242541745057" lon="10.821210602404108"><ele>127.0</ele><time>2026-04-18T08:21:23.001Z</time></trkpt><trkpt lat="43.552359281849284" lon="10.821331129902227"><ele>128.0</ele><time>2026-04-18T08:21:24.001Z</time></trkpt><trkpt lat="43.55229405367053" lon="10.821443854492012"><ele>129.0</ele><time>2026-04-18T08:21:25.001Z</time></trkpt><trkpt lat="43.552234207263176" lon="10.821546120085998"><ele>130.0</ele><time>2026-04-18T08:21:26.001Z</time></trkpt><trkpt lat="43.55218105363533" lon="10.821643279788216"><ele>131.0</ele><time>2026-04-18T08:21:27.001Z</time></trkpt><trkpt lat="43.5521325481912" lon="10.821736289983123"><ele>132.2</ele><time>2026-04-18T08:21:28.001Z</time></trkpt><trkpt lat="43.55208615649197" lon="10.821829778233997"><ele>133.39999999999998</ele><time>2026-04-18T08:21:29.001Z</time></trkpt><trkpt lat="43.55203490969417" lon="10.821931242094703"><ele>134.6</ele><time>2026-04-18T08:21:30.001Z</time></trkpt><trkpt lat="43.5519810026547" lon="10.822035323059628"><ele>135.79999999999998</ele><time>2026-04-18T08:21:31.001Z</time></trkpt><trkpt lat="43.55192408229538" lon="10.822139599060634"><ele>137.0</ele><time>2026-04-18T08:21:32.001Z</time></trkpt><trkpt lat="43.55186412993277" lon="10.822242413032503"><ele>137.0</ele><time>2026-04-18T08:21:33.001Z</time></trkpt><trkpt lat="43.55180642378242" lon="10.822347186456076"><ele>137.0</ele><time>2026-04-18T08:21:34.001Z</time></trkpt><trkpt lat="43.551750101387796" lon="10.822460451715783"><ele>137.0</ele><time>2026-04-18T08:21:35.001Z</time></trkpt><trkpt lat="43.55169062426414" lon="10.82257587550142"><ele>137.0</ele><time>2026-04-18T08:21:36.001Z</time></trkpt><trkpt lat="43.55162748013366" lon="10.822686242629068"><ele>137.0</ele><time>2026-04-18T08:21:37.001Z</time></trkpt><trkpt lat="43.551561534408464" lon="10.822788672117884"><ele>139.0</ele><time>2026-04-18T08:21:38.001Z</time></trkpt><trkpt lat="43.5514872213436" lon="10.822871248292767"><ele>141.0</ele><time>2026-04-18T08:21:39.001Z</time></trkpt><trkpt lat="43.55140107524934" lon="10.822924485842789"><ele>143.0</ele><time>2026-04-18T08:21:40.001Z</time></trkpt><trkpt lat="43.55130331866408" lon="10.822956415872786"><ele>145.0</ele><time>2026-04-18T08:21:41.001Z</time></trkpt><trkpt lat="43.55120481618747" lon="10.822968930924524"><ele>147.0</ele><time>2026-04-18T08:21:42.001Z</time></trkpt><trkpt lat="43.55110437814987" lon="10.822977321894601"><ele>147.0</ele><time>2026-04-18T08:21:43.001Z</time></trkpt><trkpt lat="43.5510051544661" lon="10.822980730595322"><ele>147.0</ele><time>2026-04-18T08:21:44.001Z</time></trkpt><trkpt lat="43.550903958041076" lon="10.822977882487915"><ele>147.0</ele><time>2026-04-18T08:21:45.001Z</time></trkpt><trkpt lat="43.55080168281545" lon="10.822955403020778"><ele>147.0</ele><time>2026-04-18T08:21:46.001Z</time></trkpt><trkpt lat="43.550694330718535" lon="10.822918909222146"><ele>147.0</ele><time>2026-04-18T08:21:47.001Z</time></trkpt><trkpt lat="43.55058051392741" lon="10.822880922217267"><ele>147.0</ele><time>2026-04-18T08:21:48.001Z</time></trkpt><trkpt lat="43.55046414452409" lon="10.822839296680764"><ele>147.0</ele><time>2026-04-18T08:21:49.001Z</time></trkpt><trkpt lat="43.55034632207856" lon="10.822798303834128"><ele>147.0</ele><time>2026-04-18T08:21:50.001Z</time></trkpt><trkpt lat="43.55022513405132" lon="10.822760929656326"><ele>147.0</ele><time>2026-04-18T08:21:51.001Z</time></trkpt><trkpt lat="43.55010125492997" lon="10.822737469957358"><ele>147.75</ele><time>2026-04-18T08:21:52.001Z</time></trkpt><trkpt lat="43.549976897841795" lon="10.82270506504177"><ele>148.5</ele><time>2026-04-18T08:21:53.001Z</time></trkpt><trkpt lat="43.54985159839678" lon="10.82267347542478"><ele>149.25</ele><time>2026-04-18T08:21:54.001Z</time></trkpt><trkpt lat="43.549724109723066" lon="10.822643623681357"><ele>150.0</ele><time>2026-04-18T08:21:55.001Z</time></trkpt><trkpt lat="43.54959498894418" lon="10.822614920105979"><ele>148.75</ele><time>2026-04-18T08:21:56.001Z</time></trkpt><trkpt lat="43.54946596360255" lon="10.822584622315786"><ele>147.5</ele><time>2026-04-18T08:21:57.001Z</time></trkpt><trkpt lat="43.54933780371411" lon="10.822553349975971"><ele>146.25</ele><time>2026-04-18T08:21:58.001Z</time></trkpt><trkpt lat="43.54921156430666" lon="10.82252262587134"><ele>145.0</ele><time>2026-04-18T08:21:58.999Z</time></trkpt><trkpt lat="43.549094398020436" lon="10.822492685021704"><ele>145.0</ele><time>2026-04-18T08:21:59.999Z</time></trkpt><trkpt lat="43.54898327449494" lon="10.82246318161622"><ele>145.0</ele><time>2026-04-18T08:22:00.999Z</time></trkpt><trkpt lat="43.54887347915792" lon="10.822427822119629"><ele>145.0</ele><time>2026-04-18T08:22:01.999Z</time></trkpt><trkpt lat="43.5487668816055" lon="10.822383630700468"><ele>145.0</ele><time>2026-04-18T08:22:02.999Z</time></trkpt><trkpt lat="43.54866494685669" lon="10.82232863061634"><ele>145.0</ele><time>2026-04-18T08:22:03.999Z</time></trkpt><trkpt lat="43.54856839353634" lon="10.82226465186441"><ele>146.8</ele><time>2026-04-18T08:22:04.999Z</time></trkpt><trkpt lat="43.54847864540633" lon="10.822189399788122"><ele>148.6</ele><time>2026-04-18T08:22:05.999Z</time></trkpt><trkpt lat="43.5483941980687" lon="10.822106758457874"><ele>150.4</ele><time>2026-04-18T08:22:06.999Z</time></trkpt><trkpt lat="43.5483154150044" lon="10.822015996131979"><ele>152.2</ele><time>2026-04-18T08:22:07.999Z</time></trkpt><trkpt lat="43.54824067668324" lon="10.821920568524192"><ele>154.0</ele><time>2026-04-18T08:22:08.999Z</time></trkpt><trkpt lat="43.54816932154075" lon="10.821819755806699"><ele>152.6</ele><time>2026-04-18T08:22:09.999Z</time></trkpt><trkpt lat="43.548097963334676" lon="10.8217164117514"><ele>151.2</ele><time>2026-04-18T08:22:10.999Z</time></trkpt><trkpt lat="43.548029757656444" lon="10.821608087902897"><ele>149.79999999999998</ele><time>2026-04-18T08:22:11.999Z</time></trkpt><trkpt lat="43.547960634279484" lon="10.821503655892284"><ele>148.4</ele><time>2026-04-18T08:22:12.999Z</time></trkpt><trkpt lat="43.54788825070953" lon="10.821404159997453"><ele>147.0</ele><time>2026-04-18T08:22:13.999Z</time></trkpt><trkpt lat="43.54781203978221" lon="10.821304446789986"><ele>146.4</ele><time>2026-04-18T08:22:14.999Z</time></trkpt><trkpt lat="43.54773990349825" lon="10.821194396365236"><ele>145.79999999999998</ele><time>2026-04-18T08:22:15.999Z</time></trkpt><trkpt lat="43.54765086667792" lon="10.821099122431523"><ele>145.2</ele><time>2026-04-18T08:22:17Z</time></trkpt><trkpt lat="43.54756812815366" lon="10.820992239468483"><ele>144.6</ele><time>2026-04-18T08:22:18Z</time></trkpt><trkpt lat="43.54749175485494" lon="10.820874924276621"><ele>144.0</ele><time>2026-04-18T08:22:19Z</time></trkpt><trkpt lat="43.547418085520384" lon="10.82076425027682"><ele>144.0</ele><time>2026-04-18T08:22:20Z</time></trkpt><trkpt lat="43.54734790981691" lon="10.820659669193757"><ele>144.0</ele><time>2026-04-18T08:22:21Z</time></trkpt><trkpt lat="43.54728204466837" lon="10.82056257512439"><ele>144.0</ele><time>2026-04-18T08:22:22Z</time></trkpt><trkpt lat="43.547221397190896" lon="10.820472700170912"><ele>144.0</ele><time>2026-04-18T08:22:23Z</time></trkpt><trkpt lat="43.54716223483203" lon="10.820398777911173"><ele>144.0</ele><time>2026-04-18T08:22:24Z</time></trkpt><trkpt lat="43.54709245651327" lon="10.820357729131898"><ele>144.0</ele><time>2026-04-18T08:22:25Z</time></trkpt><trkpt lat="43.54702031507217" lon="10.820354031039196"><ele>141.5</ele><time>2026-04-18T08:22:26Z</time></trkpt><trkpt lat="43.54695272919498" lon="10.820382143201696"><ele>139.0</ele><time>2026-04-18T08:22:27Z</time></trkpt><trkpt lat="43.54689419001954" lon="10.820457395811077"><ele>136.5</ele><time>2026-04-18T08:22:28Z</time></trkpt><trkpt lat="43.54685372819467" lon="10.820564467522946"><ele>134.0</ele><time>2026-04-18T08:22:29Z</time></trkpt><trkpt lat="43.54682272593512" lon="10.820688424414483"><ele>131.5</ele><time>2026-04-18T08:22:30Z</time></trkpt><trkpt lat="43.546795055645696" lon="10.820814246259983"><ele>129.0</ele><time>2026-04-18T08:22:31Z</time></trkpt><trkpt lat="43.54676959433935" lon="10.82094492945014"><ele>128.6</ele><time>2026-04-18T08:22:32Z</time></trkpt><trkpt lat="43.546738167374386" lon="10.821079643213567"><ele>128.2</ele><time>2026-04-18T08:22:33Z</time></trkpt><trkpt lat="43.546705509811524" lon="10.821222435430121"><ele>127.79999999999998</ele><time>2026-04-18T08:22:34Z</time></trkpt><trkpt lat="43.54667448376184" lon="10.821372595511065"><ele>127.39999999999999</ele><time>2026-04-18T08:22:35Z</time></trkpt><trkpt lat="43.54664300081744" lon="10.821528079577522"><ele>127.0</ele><time>2026-04-18T08:22:36Z</time></trkpt><trkpt lat="43.54660922282064" lon="10.821676279256335"><ele>126.39999999999999</ele><time>2026-04-18T08:22:37Z</time></trkpt><trkpt lat="43.54657628469702" lon="10.821817715229676"><ele>125.79999999999998</ele><time>2026-04-18T08:22:38Z</time></trkpt><trkpt lat="43.54654636551592" lon="10.821957115085064"><ele>125.2</ele><time>2026-04-18T08:22:39Z</time></trkpt><trkpt lat="43.5465178155808" lon="10.822086586917527"><ele>124.6</ele><time>2026-04-18T08:22:40Z</time></trkpt><trkpt lat="43.546490216474496" lon="10.82220876712249"><ele>124.0</ele><time>2026-04-18T08:22:41Z</time></trkpt><trkpt lat="43.54646476123684" lon="10.822324366847452"><ele>124.00000000000001</ele><time>2026-04-18T08:22:42Z</time></trkpt><trkpt lat="43.54644004082105" lon="10.822434071558964"><ele>124.0</ele><time>2026-04-18T08:22:43Z</time></trkpt><trkpt lat="43.54641853655155" lon="10.822541059295995"><ele>124.0</ele><time>2026-04-18T08:22:44Z</time></trkpt><trkpt lat="43.54640093040556" lon="10.822640981212075"><ele>124.0</ele><time>2026-04-18T08:22:45Z</time></trkpt><trkpt lat="43.54638161624647" lon="10.822729707046427"><ele>124.00000000000001</ele><time>2026-04-18T08:22:46Z</time></trkpt><trkpt lat="43.54631949021912" lon="10.822854624165892"><ele>124.0</ele><time>2026-04-18T08:22:48Z</time></trkpt><trkpt lat="43.54621614027966" lon="10.822916435908054"><ele>121.66666666666667</ele><time>2026-04-18T08:22:50Z</time></trkpt><trkpt lat="43.54610143865246" lon="10.822870326488902"><ele>119.33333333333334</ele><time>2026-04-18T08:22:52Z</time></trkpt><trkpt lat="43.54604538330653" lon="10.822822476232998"><ele>117.0</ele><time>2026-04-18T08:22:53Z</time></trkpt><trkpt lat="43.54599584854743" lon="10.822746270964478"><ele>114.66666666666666</ele><time>2026-04-18T08:22:54Z</time></trkpt><trkpt lat="43.54595105909439" lon="10.822654134605447"><ele>112.33333333333333</ele><time>2026-04-18T08:22:55Z</time></trkpt><trkpt lat="43.54590692748845" lon="10.822558946338603"><ele>110.0</ele><time>2026-04-18T08:22:56Z</time></trkpt><trkpt lat="43.54586000152366" lon="10.822460459566932"><ele>110.0</ele><time>2026-04-18T08:22:57Z</time></trkpt><trkpt lat="43.545814648255316" lon="10.822358945659854"><ele>110.0</ele><time>2026-04-18T08:22:58Z</time></trkpt><trkpt lat="43.54576882824274" lon="10.822256209556441"><ele>110.0</ele><time>2026-04-18T08:22:59Z</time></trkpt><trkpt lat="43.5457271086147" lon="10.822145497957436"><ele>110.0</ele><time>2026-04-18T08:23:00Z</time></trkpt><trkpt lat="43.54568779338498" lon="10.822028126299841"><ele>110.0</ele><time>2026-04-18T08:23:01Z</time></trkpt><trkpt lat="43.54565114616006" lon="10.821904961724936"><ele>110.0</ele><time>2026-04-18T08:23:02Z</time></trkpt><trkpt lat="43.54562106256833" lon="10.821773686749872"><ele>110.0</ele><time>2026-04-18T08:23:03Z</time></trkpt><trkpt lat="43.54560011186967" lon="10.821632626130567"><ele>110.0</ele><time>2026-04-18T08:23:04Z</time></trkpt><trkpt lat="43.54557453869208" lon="10.821487253834466"><ele>110.0</ele><time>2026-04-18T08:23:05Z</time></trkpt><trkpt lat="43.54554145940416" lon="10.821337660624415"><ele>110.0</ele><time>2026-04-18T08:23:06Z</time></trkpt><trkpt lat="43.54551257223914" lon="10.821186764600203"><ele>110.0</ele><time>2026-04-18T08:23:07Z</time></trkpt><trkpt lat="43.54548523793667" lon="10.821039923914542"><ele>110.0</ele><time>2026-04-18T08:23:08Z</time></trkpt><trkpt lat="43.545459092660394" lon="10.820901670210558"><ele>110.0</ele><time>2026-04-18T08:23:09Z</time></trkpt><trkpt lat="43.54543401205598" lon="10.820771618941176"><ele>110.0</ele><time>2026-04-18T08:23:10Z</time></trkpt><trkpt lat="43.54540826490718" lon="10.820641618233326"><ele>110.0</ele><time>2026-04-18T08:23:11Z</time></trkpt><trkpt lat="43.54537551258738" lon="10.820520574369281"><ele>107.4</ele><time>2026-04-18T08:23:12Z</time></trkpt><trkpt lat="43.54532908555684" lon="10.820408215657572"><ele>104.8</ele><time>2026-04-18T08:23:13Z</time></trkpt><trkpt lat="43.5452703414132" lon="10.82030997807386"><ele>102.19999999999999</ele><time>2026-04-18T08:23:14Z</time></trkpt><trkpt lat="43.545202673465425" lon="10.820225689944234"><ele>99.6</ele><time>2026-04-18T08:23:15Z</time></trkpt><trkpt lat="43.54512978462717" lon="10.820148114770495"><ele>97.0</ele><time>2026-04-18T08:23:16Z</time></trkpt><trkpt lat="43.54505466989794" lon="10.82007324273981"><ele>97.0</ele><time>2026-04-18T08:23:17Z</time></trkpt><trkpt lat="43.54497997205369" lon="10.819994057220127"><ele>97.0</ele><time>2026-04-18T08:23:18Z</time></trkpt><trkpt lat="43.544909487484595" lon="10.819904565783144"><ele>97.0</ele><time>2026-04-18T08:23:19Z</time></trkpt><trkpt lat="43.54484729381621" lon="10.819800344603577"><ele>97.0</ele><time>2026-04-18T08:23:20Z</time></trkpt><trkpt lat="43.54478896127854" lon="10.819688569980705"><ele>97.0</ele><time>2026-04-18T08:23:21Z</time></trkpt><trkpt lat="43.54474203090528" lon="10.81956579116268"><ele>97.0</ele><time>2026-04-18T08:23:22Z</time></trkpt><trkpt lat="43.54470562673265" lon="10.819440572217285"><ele>97.0</ele><time>2026-04-18T08:23:23Z</time></trkpt><trkpt lat="43.54467947070243" lon="10.819311633479105"><ele>97.0</ele><time>2026-04-18T08:23:24Z</time></trkpt><trkpt lat="43.544659609429274" lon="10.819181033754454"><ele>97.0</ele><time>2026-04-18T08:23:25Z</time></trkpt><trkpt lat="43.544640926339774" lon="10.819050943537745"><ele>97.0</ele><time>2026-04-18T08:23:26Z</time></trkpt><trkpt lat="43.544621635883445" lon="10.818913216411563"><ele>96.8</ele><time>2026-04-18T08:23:27Z</time></trkpt><trkpt lat="43.54460022899402" lon="10.818769869120578"><ele>96.6</ele><time>2026-04-18T08:23:28Z</time></trkpt><trkpt lat="43.544578206407245" lon="10.818626270008094"><ele>96.39999999999999</ele><time>2026-04-18T08:23:29Z</time></trkpt><trkpt lat="43.54456004382548" lon="10.818480029448333"><ele>96.19999999999999</ele><time>2026-04-18T08:23:30Z</time></trkpt><trkpt lat="43.544541819631796" lon="10.818332171563421"><ele>96.0</ele><time>2026-04-18T08:23:31Z</time></trkpt><trkpt lat="43.544523419681916" lon="10.818183665765703"><ele>93.4</ele><time>2026-04-18T08:23:32Z</time></trkpt><trkpt lat="43.54450384418809" lon="10.818033741435853"><ele>90.8</ele><time>2026-04-18T08:23:33Z</time></trkpt><trkpt lat="43.544486313413806" lon="10.81788296663528"><ele>88.2</ele><time>2026-04-18T08:23:34Z</time></trkpt><trkpt lat="43.544467757897266" lon="10.817732687034239"><ele>85.60000000000001</ele><time>2026-04-18T08:23:35.001Z</time></trkpt><trkpt lat="43.54444733336948" lon="10.81758490079494"><ele>83.0</ele><time>2026-04-18T08:23:36.001Z</time></trkpt><trkpt lat="43.54442459657791" lon="10.817438950709978"><ele>83.0</ele><time>2026-04-18T08:23:37.001Z</time></trkpt><trkpt lat="43.544403286436065" lon="10.817297893680728"><ele>83.0</ele><time>2026-04-18T08:23:38.001Z</time></trkpt><trkpt lat="43.544380329558564" lon="10.817167196937305"><ele>83.0</ele><time>2026-04-18T08:23:39.001Z</time></trkpt><trkpt lat="43.544350425170094" lon="10.81704976643331"><ele>83.0</ele><time>2026-04-18T08:23:40.001Z</time></trkpt><trkpt lat="43.544310504525725" lon="10.816949217862616"><ele>83.0</ele><time>2026-04-18T08:23:41.001Z</time></trkpt><trkpt lat="43.5442581918008" lon="10.816871313655062"><ele>83.33333333333334</ele><time>2026-04-18T08:23:42.001Z</time></trkpt><trkpt lat="43.544196118078744" lon="10.816807149979635"><ele>83.66666666666667</ele><time>2026-04-18T08:23:43.001Z</time></trkpt><trkpt lat="43.54412459863544" lon="10.816768998973998"><ele>84.0</ele><time>2026-04-18T08:23:44.001Z</time></trkpt><trkpt lat="43.54404898181265" lon="10.81675612245895"><ele>84.33333333333333</ele><time>2026-04-18T08:23:45.001Z</time></trkpt><trkpt lat="43.543969987683916" lon="10.81676047421607"><ele>84.66666666666666</ele><time>2026-04-18T08:23:46.001Z</time></trkpt><trkpt lat="43.54388919428151" lon="10.81678014027275"><ele>85.0</ele><time>2026-04-18T08:23:47.001Z</time></trkpt><trkpt lat="43.54380469747386" lon="10.816813348448644"><ele>84.6</ele><time>2026-04-18T08:23:48.001Z</time></trkpt><trkpt lat="43.54371646339827" lon="10.816855606097576"><ele>84.2</ele><time>2026-04-18T08:23:49.001Z</time></trkpt><trkpt lat="43.543623987960146" lon="10.816897607642646"><ele>83.80000000000001</ele><time>2026-04-18T08:23:50.001Z</time></trkpt><trkpt lat="43.54352683674943" lon="10.816945398503531"><ele>83.4</ele><time>2026-04-18T08:23:51.001Z</time></trkpt><trkpt lat="43.54342509418346" lon="10.816993814540657"><ele>83.0</ele><time>2026-04-18T08:23:52.001Z</time></trkpt><trkpt lat="43.54332228891229" lon="10.8170406558607"><ele>82.4</ele><time>2026-04-18T08:23:53.001Z</time></trkpt><trkpt lat="43.54322288988109" lon="10.817085047009698"><ele>81.80000000000001</ele><time>2026-04-18T08:23:54.001Z</time></trkpt><trkpt lat="43.543129029923016" lon="10.817126487750143"><ele>81.2</ele><time>2026-04-18T08:23:55.001Z</time></trkpt><trkpt lat="43.54303661711453" lon="10.817172485522306"><ele>80.6</ele><time>2026-04-18T08:23:56.001Z</time></trkpt><trkpt lat="43.54294852907001" lon="10.81722182812917"><ele>80.0</ele><time>2026-04-18T08:23:57.001Z</time></trkpt><trkpt lat="43.54286970102965" lon="10.817285533322258"><ele>81.2</ele><time>2026-04-18T08:23:58.001Z</time></trkpt><trkpt lat="43.54280140029196" lon="10.81736501339707"><ele>82.4</ele><time>2026-04-18T08:23:59.001Z</time></trkpt><trkpt lat="43.5427479084485" lon="10.817470457871831"><ele>83.6</ele><time>2026-04-18T08:24:00.001Z</time></trkpt><trkpt lat="43.54270733989873" lon="10.817586543432482"><ele>84.8</ele><time>2026-04-18T08:24:01.001Z</time></trkpt><trkpt lat="43.54267473690261" lon="10.81771678037325"><ele>86.0</ele><time>2026-04-18T08:24:02.001Z</time></trkpt><trkpt lat="43.54265602884031" lon="10.817859496152426"><ele>87.19999999999999</ele><time>2026-04-18T08:24:03.001Z</time></trkpt><trkpt lat="43.54264886902993" lon="10.818009764042952"><ele>88.39999999999999</ele><time>2026-04-18T08:24:04.001Z</time></trkpt><trkpt lat="43.54263967831739" lon="10.818159551041573"><ele>89.6</ele><time>2026-04-18T08:24:04.999Z</time></trkpt><trkpt lat="43.54263129221318" lon="10.818310014684108"><ele>90.8</ele><time>2026-04-18T08:24:05.999Z</time></trkpt><trkpt lat="43.54262124097638" lon="10.818460174133753"><ele>92.0</ele><time>2026-04-18T08:24:06.999Z</time></trkpt><trkpt lat="43.54261348104193" lon="10.818607644556357"><ele>93.0</ele><time>2026-04-18T08:24:07.999Z</time></trkpt><trkpt lat="43.54260706476667" lon="10.818757682109593"><ele>94.0</ele><time>2026-04-18T08:24:08.999Z</time></trkpt><trkpt lat="43.54259940334711" lon="10.818902803897556"><ele>95.0</ele><time>2026-04-18T08:24:09.999Z</time></trkpt><trkpt lat="43.5425900633032" lon="10.819045312120316"><ele>96.0</ele><time>2026-04-18T08:24:10.999Z</time></trkpt><trkpt lat="43.542581752680604" lon="10.819186338724164"><ele>97.0</ele><time>2026-04-18T08:24:11.999Z</time></trkpt><trkpt lat="43.5425737792164" lon="10.819325164006038"><ele>97.8</ele><time>2026-04-18T08:24:12.999Z</time></trkpt><trkpt lat="43.542564792066415" lon="10.81946327267205"><ele>98.6</ele><time>2026-04-18T08:24:13.999Z</time></trkpt><trkpt lat="43.54255189094229" lon="10.819601702475447"><ele>99.39999999999999</ele><time>2026-04-18T08:24:14.999Z</time></trkpt><trkpt lat="43.54253680578137" lon="10.819741061598032"><ele>100.19999999999999</ele><time>2026-04-18T08:24:15.999Z</time></trkpt><trkpt lat="43.54251998113506" lon="10.819878652395767"><ele>101.0</ele><time>2026-04-18T08:24:16.999Z</time></trkpt><trkpt lat="43.54249755205114" lon="10.820016743622823"><ele>101.6</ele><time>2026-04-18T08:24:17.999Z</time></trkpt><trkpt lat="43.542468043321" lon="10.820152705842085"><ele>102.19999999999999</ele><time>2026-04-18T08:24:18.999Z</time></trkpt><trkpt lat="43.542436355195115" lon="10.820284164828346"><ele>102.80000000000001</ele><time>2026-04-18T08:24:19.999Z</time></trkpt><trkpt lat="43.542405737476486" lon="10.820414453345952"><ele>103.4</ele><time>2026-04-18T08:24:20.999Z</time></trkpt><trkpt lat="43.5423765293169" lon="10.820544157381969"><ele>104.0</ele><time>2026-04-18T08:24:21.999Z</time></trkpt><trkpt lat="43.542346475301926" lon="10.820673266241835"><ele>104.0</ele><time>2026-04-18T08:24:22.999Z</time></trkpt><trkpt lat="43.54231218636252" lon="10.820800171428578"><ele>104.0</ele><time>2026-04-18T08:24:23.999Z</time></trkpt><trkpt lat="43.54227689773274" lon="10.82092515729026"><ele>104.0</ele><time>2026-04-18T08:24:24.999Z</time></trkpt><trkpt lat="43.54223224797192" lon="10.821042235908495"><ele>104.0</ele><time>2026-04-18T08:24:25.999Z</time></trkpt><trkpt lat="43.54218562191371" lon="10.821153494246639"><ele>104.0</ele><time>2026-04-18T08:24:26.999Z</time></trkpt><trkpt lat="43.54212935451352" lon="10.82125577765734"><ele>104.0</ele><time>2026-04-18T08:24:27.999Z</time></trkpt><trkpt lat="43.54207240944426" lon="10.821357834258148"><ele>104.0</ele><time>2026-04-18T08:24:28.999Z</time></trkpt><trkpt lat="43.542009131006104" lon="10.821458298170386"><ele>104.0</ele><time>2026-04-18T08:24:30Z</time></trkpt><trkpt lat="43.541948538929596" lon="10.821559777273315"><ele>104.0</ele><time>2026-04-18T08:24:31Z</time></trkpt><trkpt lat="43.54189091298403" lon="10.821663403757272"><ele>104.0</ele><time>2026-04-18T08:24:32Z</time></trkpt><trkpt lat="43.54184740382687" lon="10.821779500208551"><ele>107.6</ele><time>2026-04-18T08:24:33Z</time></trkpt><trkpt lat="43.541826278036" lon="10.821904920217586"><ele>111.2</ele><time>2026-04-18T08:24:34Z</time></trkpt><trkpt lat="43.54181142976442" lon="10.822036139160671"><ele>114.79999999999998</ele><time>2026-04-18T08:24:35Z</time></trkpt><trkpt lat="43.54179877786585" lon="10.82216339113247"><ele>118.39999999999999</ele><time>2026-04-18T08:24:36Z</time></trkpt><trkpt lat="43.54180111533232" lon="10.822290470256032"><ele>122.0</ele><time>2026-04-18T08:24:37Z</time></trkpt><trkpt lat="43.541799005505716" lon="10.822412310236547"><ele>121.99999999999999</ele><time>2026-04-18T08:24:38Z</time></trkpt><trkpt lat="43.54179857041816" lon="10.822532388303554"><ele>122.0</ele><time>2026-04-18T08:24:39Z</time></trkpt><trkpt lat="43.54179447180741" lon="10.822653821348027"><ele>122.0</ele><time>2026-04-18T08:24:40Z</time></trkpt><trkpt lat="43.541782209998175" lon="10.82277306122487"><ele>122.0</ele><time>2026-04-18T08:24:41Z</time></trkpt><trkpt lat="43.5417638224248" lon="10.822894363239264"><ele>121.99999999999999</ele><time>2026-04-18T08:24:42Z</time></trkpt><trkpt lat="43.541737018638074" lon="10.823014919027276"><ele>122.0</ele><time>2026-04-18T08:24:43Z</time></trkpt><trkpt lat="43.54170344911746" lon="10.82313296854222"><ele>122.6</ele><time>2026-04-18T08:24:44Z</time></trkpt><trkpt lat="43.54167108712205" lon="10.82325027255918"><ele>123.19999999999999</ele><time>2026-04-18T08:24:45Z</time></trkpt><trkpt lat="43.54163579713787" lon="10.823369497953303"><ele>123.8</ele><time>2026-04-18T08:24:46Z</time></trkpt><trkpt lat="43.541599390245345" lon="10.823490303834696"><ele>124.4</ele><time>2026-04-18T08:24:47Z</time></trkpt><trkpt lat="43.541562573403716" lon="10.823614579084094"><ele>125.0</ele><time>2026-04-18T08:24:48Z</time></trkpt><trkpt lat="43.54152395075481" lon="10.823738510637885"><ele>125.0</ele><time>2026-04-18T08:24:49Z</time></trkpt><trkpt lat="43.54148503188658" lon="10.823861660731849"><ele>125.0</ele><time>2026-04-18T08:24:50Z</time></trkpt><trkpt lat="43.54144698204813" lon="10.823983733208625"><ele>125.0</ele><time>2026-04-18T08:24:51Z</time></trkpt><trkpt lat="43.54140716195662" lon="10.82410342704714"><ele>125.0</ele><time>2026-04-18T08:24:52Z</time></trkpt><trkpt lat="43.54136693495056" lon="10.82422113963854"><ele>125.0</ele><time>2026-04-18T08:24:53Z</time></trkpt><trkpt lat="43.54132732643741" lon="10.824339800141642"><ele>124.4</ele><time>2026-04-18T08:24:54Z</time></trkpt><trkpt lat="43.541285451075524" lon="10.824465679143033"><ele>123.8</ele><time>2026-04-18T08:24:55Z</time></trkpt><trkpt lat="43.54124361887544" lon="10.824590403103112"><ele>123.19999999999999</ele><time>2026-04-18T08:24:56Z</time></trkpt><trkpt lat="43.541201601014365" lon="10.824719972789945"><ele>122.6</ele><time>2026-04-18T08:24:57Z</time></trkpt><trkpt lat="43.54116037340113" lon="10.824857383195564"><ele>122.0</ele><time>2026-04-18T08:24:58Z</time></trkpt><trkpt lat="43.541124530969036" lon="10.824994930316496"><ele>125.8</ele><time>2026-04-18T08:24:59Z</time></trkpt><trkpt lat="43.54108942488133" lon="10.825127758743033"><ele>129.6</ele><time>2026-04-18T08:25:00Z</time></trkpt><trkpt lat="43.54105110017349" lon="10.825259314964137"><ele>133.39999999999998</ele><time>2026-04-18T08:25:01Z</time></trkpt><trkpt lat="43.541012680761064" lon="10.82539210859564"><ele>137.2</ele><time>2026-04-18T08:25:02Z</time></trkpt><trkpt lat="43.54097397952199" lon="10.825527538643763"><ele>141.0</ele><time>2026-04-18T08:25:03Z</time></trkpt><trkpt lat="43.54093549545797" lon="10.825667276590595"><ele>141.0</ele><time>2026-04-18T08:25:04Z</time></trkpt><trkpt lat="43.54089954130721" lon="10.825810122906836"><ele>141.0</ele><time>2026-04-18T08:25:05Z</time></trkpt><trkpt lat="43.54086494531113" lon="10.825954096336842"><ele>141.0</ele><time>2026-04-18T08:25:06Z</time></trkpt><trkpt lat="43.54082801069154" lon="10.826099677041736"><ele>141.0</ele><time>2026-04-18T08:25:07Z</time></trkpt><trkpt lat="43.540791944768195" lon="10.826245028329181"><ele>141.0</ele><time>2026-04-18T08:25:08Z</time></trkpt><trkpt lat="43.54075366716911" lon="10.82638985738767"><ele>141.0</ele><time>2026-04-18T08:25:09Z</time></trkpt><trkpt lat="43.54071596064933" lon="10.82653406481139"><ele>141.0</ele><time>2026-04-18T08:25:10Z</time></trkpt><trkpt lat="43.540677673724964" lon="10.826678771476391"><ele>141.0</ele><time>2026-04-18T08:25:11Z</time></trkpt><trkpt lat="43.54063983609725" lon="10.826822956561443"><ele>141.0</ele><time>2026-04-18T08:25:12Z</time></trkpt><trkpt lat="43.54060123421992" lon="10.826966736769776"><ele>141.0</ele><time>2026-04-18T08:25:13Z</time></trkpt><trkpt lat="43.54055886977983" lon="10.827109594310118"><ele>141.0</ele><time>2026-04-18T08:25:14Z</time></trkpt><trkpt lat="43.54051149576775" lon="10.82724875912865"><ele>141.0</ele><time>2026-04-18T08:25:15Z</time></trkpt><trkpt lat="43.54045661085151" lon="10.82738948564256"><ele>141.0</ele><time>2026-04-18T08:25:16Z</time></trkpt><trkpt lat="43.54039500247081" lon="10.827528658367706"><ele>141.0</ele><time>2026-04-18T08:25:17Z</time></trkpt><trkpt lat="43.5403253971688" lon="10.827662604825127"><ele>143.0</ele><time>2026-04-18T08:25:18Z</time></trkpt><trkpt lat="43.54025933398213" lon="10.827782392289604"><ele>145.0</ele><time>2026-04-18T08:25:19Z</time></trkpt><trkpt lat="43.54020127914823" lon="10.827889452413046"><ele>147.0</ele><time>2026-04-18T08:25:20Z</time></trkpt><trkpt lat="43.54014775252807" lon="10.827983968366713"><ele>149.0</ele><time>2026-04-18T08:25:21Z</time></trkpt><trkpt lat="43.54010013937467" lon="10.828065245801175"><ele>151.0</ele><time>2026-04-18T08:25:22Z</time></trkpt><trkpt lat="43.540050593343054" lon="10.828209775644957"><ele>151.0</ele><time>2026-04-18T08:25:24Z</time></trkpt><trkpt lat="43.54004032550821" lon="10.828309874356984"><ele>151.0</ele><time>2026-04-18T08:25:26Z</time></trkpt><trkpt lat="43.54004340498619" lon="10.828399050218962"><ele>151.0</ele><time>2026-04-18T08:25:29Z</time></trkpt><trkpt lat="43.5400517896925" lon="10.828492751203695"><ele>151.0</ele><time>2026-04-18T08:25:33.001Z</time></trkpt><trkpt lat="43.540072251403444" lon="10.828625031722732"><ele>151.0</ele><time>2026-04-18T08:25:35.001Z</time></trkpt><trkpt lat="43.540082638199586" lon="10.828717802325635"><ele>151.0</ele><time>2026-04-18T08:25:36.001Z</time></trkpt><trkpt lat="43.54009686266041" lon="10.828831382693904"><ele>151.2</ele><time>2026-04-18T08:25:37.001Z</time></trkpt><trkpt lat="43.540117125679686" lon="10.828967735988769"><ele>151.39999999999998</ele><time>2026-04-18T08:25:38.001Z</time></trkpt><trkpt lat="43.54013964888787" lon="10.82911811884552"><ele>151.6</ele><time>2026-04-18T08:25:39.001Z</time></trkpt><trkpt lat="43.54016090574264" lon="10.829275924802333"><ele>151.79999999999998</ele><time>2026-04-18T08:25:40.001Z</time></trkpt><trkpt lat="43.540181292701334" lon="10.82943223290849"><ele>152.0</ele><time>2026-04-18T08:25:41.001Z</time></trkpt><trkpt lat="43.54020325299789" lon="10.829588666765433"><ele>152.2</ele><time>2026-04-18T08:25:42.001Z</time></trkpt><trkpt lat="43.540219205707494" lon="10.829743097536447"><ele>152.39999999999998</ele><time>2026-04-18T08:25:43.001Z</time></trkpt><trkpt lat="43.54023557164634" lon="10.829895360438876"><ele>152.60000000000002</ele><time>2026-04-18T08:25:44.001Z</time></trkpt><trkpt lat="43.540259356470585" lon="10.830044724572609"><ele>152.8</ele><time>2026-04-18T08:25:45.001Z</time></trkpt><trkpt lat="43.54027492518735" lon="10.830192772239073"><ele>153.0</ele><time>2026-04-18T08:25:46.001Z</time></trkpt><trkpt lat="43.54028252189971" lon="10.830333584090546"><ele>153.8</ele><time>2026-04-18T08:25:47.001Z</time></trkpt><trkpt lat="43.540284549248014" lon="10.830467926549172"><ele>154.60000000000002</ele><time>2026-04-18T08:25:48.001Z</time></trkpt><trkpt lat="43.5402832114927" lon="10.830602452311075"><ele>155.39999999999998</ele><time>2026-04-18T08:25:49.001Z</time></trkpt><trkpt lat="43.54027797443555" lon="10.830735852899446"><ele>156.2</ele><time>2026-04-18T08:25:50.001Z</time></trkpt><trkpt lat="43.5402707731431" lon="10.830866598604374"><ele>157.0</ele><time>2026-04-18T08:25:51.001Z</time></trkpt><trkpt lat="43.54026352577729" lon="10.83099750775262"><ele>157.83333333333334</ele><time>2026-04-18T08:25:52.001Z</time></trkpt><trkpt lat="43.54025581162279" lon="10.831122257061926"><ele>158.66666666666669</ele><time>2026-04-18T08:25:53.001Z</time></trkpt><trkpt lat="43.54024889446381" lon="10.83124749449056"><ele>159.5</ele><time>2026-04-18T08:25:54.001Z</time></trkpt><trkpt lat="43.54024257898684" lon="10.83137139832251"><ele>160.33333333333334</ele><time>2026-04-18T08:25:55.001Z</time></trkpt><trkpt lat="43.54023762209102" lon="10.831495005197077"><ele>161.16666666666666</ele><time>2026-04-18T08:25:56.001Z</time></trkpt><trkpt lat="43.54023272092842" lon="10.831615573298627"><ele>162.0</ele><time>2026-04-18T08:25:57.001Z</time></trkpt><trkpt lat="43.5402272286572" lon="10.831733416198482"><ele>162.66666666666666</ele><time>2026-04-18T08:25:58.001Z</time></trkpt><trkpt lat="43.54022252213915" lon="10.831849440156569"><ele>163.33333333333334</ele><time>2026-04-18T08:25:59.001Z</time></trkpt><trkpt lat="43.54021923211842" lon="10.831965652790768"><ele>164.0</ele><time>2026-04-18T08:26:00.001Z</time></trkpt><trkpt lat="43.54021948534628" lon="10.832079732044724"><ele>164.66666666666669</ele><time>2026-04-18T08:26:01.001Z</time></trkpt><trkpt lat="43.54022841729679" lon="10.832193019759096"><ele>165.33333333333334</ele><time>2026-04-18T08:26:02.001Z</time></trkpt><trkpt lat="43.54024772298247" lon="10.832308510235615"><ele>166.0</ele><time>2026-04-18T08:26:03.001Z</time></trkpt><trkpt lat="43.540270760554165" lon="10.832432292716497"><ele>166.0</ele><time>2026-04-18T08:26:04.001Z</time></trkpt><trkpt lat="43.54029636812266" lon="10.832557336264324"><ele>166.0</ele><time>2026-04-18T08:26:05.001Z</time></trkpt><trkpt lat="43.54032091536504" lon="10.832686181441048"><ele>166.0</ele><time>2026-04-18T08:26:06.001Z</time></trkpt><trkpt lat="43.540342090619355" lon="10.83280945999803"><ele>166.0</ele><time>2026-04-18T08:26:07.001Z</time></trkpt><trkpt lat="43.54035766982084" lon="10.832923927864359"><ele>166.0</ele><time>2026-04-18T08:26:08.001Z</time></trkpt><trkpt lat="43.54036997387051" lon="10.833036529213059"><ele>165.5</ele><time>2026-04-18T08:26:09.001Z</time></trkpt><trkpt lat="43.5403783825341" lon="10.833147661380643"><ele>165.0</ele><time>2026-04-18T08:26:10.001Z</time></trkpt><trkpt lat="43.540382327972075" lon="10.83326288555399"><ele>164.5</ele><time>2026-04-18T08:26:11Z</time></trkpt><trkpt lat="43.54038184051991" lon="10.833382383273529"><ele>164.0</ele><time>2026-04-18T08:26:12Z</time></trkpt><trkpt lat="43.540376526534374" lon="10.83351269389687"><ele>163.5</ele><time>2026-04-18T08:26:13Z</time></trkpt><trkpt lat="43.54037109256884" lon="10.833642636643898"><ele>163.0</ele><time>2026-04-18T08:26:14Z</time></trkpt><trkpt lat="43.540366663481606" lon="10.833784631789783"><ele>162.60000000000002</ele><time>2026-04-18T08:26:15Z</time></trkpt><trkpt lat="43.54036022855414" lon="10.833929047245043"><ele>162.20000000000002</ele><time>2026-04-18T08:26:16Z</time></trkpt><trkpt lat="43.540353286932636" lon="10.834071867103649"><ele>161.8</ele><time>2026-04-18T08:26:17Z</time></trkpt><trkpt lat="43.540350411116854" lon="10.834213193730854"><ele>161.4</ele><time>2026-04-18T08:26:18Z</time></trkpt><trkpt lat="43.54034537011239" lon="10.834357205308443"><ele>161.0</ele><time>2026-04-18T08:26:19Z</time></trkpt><trkpt lat="43.54033983444486" lon="10.83449946940163"><ele>161.0</ele><time>2026-04-18T08:26:20Z</time></trkpt><trkpt lat="43.54033401673341" lon="10.834633909198033"><ele>161.0</ele><time>2026-04-18T08:26:21Z</time></trkpt><trkpt lat="43.54032920601208" lon="10.834769759506528"><ele>161.0</ele><time>2026-04-18T08:26:22Z</time></trkpt><trkpt lat="43.540321247683416" lon="10.834902340782092"><ele>161.0</ele><time>2026-04-18T08:26:23Z</time></trkpt><trkpt lat="43.5403128752412" lon="10.835036908848284"><ele>161.0</ele><time>2026-04-18T08:26:24Z</time></trkpt><trkpt lat="43.5403060484476" lon="10.835164075114497"><ele>160.8</ele><time>2026-04-18T08:26:25Z</time></trkpt><trkpt lat="43.54029884549353" lon="10.835292028897387"><ele>160.60000000000002</ele><time>2026-04-18T08:26:26Z</time></trkpt><trkpt lat="43.54026549310496" lon="10.83541714882517"><ele>160.4</ele><time>2026-04-18T08:26:27Z</time></trkpt><trkpt lat="43.54025894203834" lon="10.835544768890331"><ele>160.2</ele><time>2026-04-18T08:26:28Z</time></trkpt><trkpt lat="43.540253644079705" lon="10.835665018966816"><ele>160.0</ele><time>2026-04-18T08:26:29Z</time></trkpt><trkpt lat="43.54024840929517" lon="10.835783835152597"><ele>160.0</ele><time>2026-04-18T08:26:30Z</time></trkpt><trkpt lat="43.540243116478386" lon="10.835903968519773"><ele>160.0</ele><time>2026-04-18T08:26:31Z</time></trkpt><trkpt lat="43.54023762781306" lon="10.83601805003272"><ele>160.0</ele><time>2026-04-18T08:26:32Z</time></trkpt><trkpt lat="43.54023155043564" lon="10.836133667526614"><ele>160.0</ele><time>2026-04-18T08:26:33Z</time></trkpt><trkpt lat="43.54022553917618" lon="10.83624802716464"><ele>160.0</ele><time>2026-04-18T08:26:34Z</time></trkpt><trkpt lat="43.540220570879555" lon="10.836368483871322"><ele>160.0</ele><time>2026-04-18T08:26:35Z</time></trkpt><trkpt lat="43.54021661915119" lon="10.836483181035685"><ele>159.4</ele><time>2026-04-18T08:26:36Z</time></trkpt><trkpt lat="43.540213940930116" lon="10.836601091350824"><ele>158.8</ele><time>2026-04-18T08:26:37Z</time></trkpt><trkpt lat="43.54021368424801" lon="10.836728234957695"><ele>158.2</ele><time>2026-04-18T08:26:38Z</time></trkpt><trkpt lat="43.54021424988428" lon="10.836853503793824"><ele>157.6</ele><time>2026-04-18T08:26:39Z</time></trkpt><trkpt lat="43.54021798201946" lon="10.83698245808196"><ele>157.0</ele><time>2026-04-18T08:26:40Z</time></trkpt><trkpt lat="43.540227199535046" lon="10.837108641012334"><ele>157.0</ele><time>2026-04-18T08:26:41Z</time></trkpt><trkpt lat="43.54023853060489" lon="10.837240008326878"><ele>157.0</ele><time>2026-04-18T08:26:42Z</time></trkpt><trkpt lat="43.54025502386751" lon="10.837372494250403"><ele>157.0</ele><time>2026-04-18T08:26:43Z</time></trkpt><trkpt lat="43.54027357497042" lon="10.837500035985439"><ele>157.0</ele><time>2026-04-18T08:26:44Z</time></trkpt><trkpt lat="43.540295214993066" lon="10.837626272215719"><ele>157.0</ele><time>2026-04-18T08:26:45Z</time></trkpt><trkpt lat="43.54031900023159" lon="10.837755957065806"><ele>157.4</ele><time>2026-04-18T08:26:46Z</time></trkpt><trkpt lat="43.540344314370365" lon="10.837891646052132"><ele>157.79999999999998</ele><time>2026-04-18T08:26:47Z</time></trkpt><trkpt lat="43.54036880827164" lon="10.83802684381993"><ele>158.2</ele><time>2026-04-18T08:26:48Z</time></trkpt><trkpt lat="43.540392874488596" lon="10.838167198363399"><ele>158.6</ele><time>2026-04-18T08:26:49Z</time></trkpt><trkpt lat="43.54041757696668" lon="10.838308412831928"><ele>159.0</ele><time>2026-04-18T08:26:50Z</time></trkpt><trkpt lat="43.54044291728175" lon="10.838444995908905"><ele>160.8</ele><time>2026-04-18T08:26:51Z</time></trkpt><trkpt lat="43.540483081471145" lon="10.838574816114779"><ele>162.60000000000002</ele><time>2026-04-18T08:26:52.001Z</time></trkpt><trkpt lat="43.54050791059071" lon="10.838709205405458"><ele>164.4</ele><time>2026-04-18T08:26:53.001Z</time></trkpt><trkpt lat="43.54052879283158" lon="10.838841822683333"><ele>166.20000000000002</ele><time>2026-04-18T08:26:54.001Z</time></trkpt><trkpt lat="43.54055047677442" lon="10.838973465827813"><ele>168.0</ele><time>2026-04-18T08:26:55.001Z</time></trkpt><trkpt lat="43.540574610573536" lon="10.839105556147006"><ele>168.0</ele><time>2026-04-18T08:26:56.001Z</time></trkpt><trkpt lat="43.5405968525687" lon="10.839233323236902"><ele>168.0</ele><time>2026-04-18T08:26:57.001Z</time></trkpt><trkpt lat="43.54060559626384" lon="10.839351782542812"><ele>168.0</ele><time>2026-04-18T08:26:58.001Z</time></trkpt><trkpt lat="43.54062551143423" lon="10.839454394953542"><ele>168.0</ele><time>2026-04-18T08:26:59.001Z</time></trkpt><trkpt lat="43.5406424614804" lon="10.839542700311812"><ele>168.0</ele><time>2026-04-18T08:27:00.001Z</time></trkpt><trkpt lat="43.540667716734745" lon="10.839659481649685"><ele>168.0</ele><time>2026-04-18T08:27:02.001Z</time></trkpt><trkpt lat="43.54058046175656" lon="10.839654527201647"><ele>169.16666666666666</ele><time>2026-04-18T08:27:06.001Z</time></trkpt><trkpt lat="43.54049224333117" lon="10.839599518530289"><ele>170.33333333333334</ele><time>2026-04-18T08:27:08.001Z</time></trkpt><trkpt lat="43.54042624434425" lon="10.83957515567484"><ele>171.5</ele><time>2026-04-18T08:27:09.001Z</time></trkpt><trkpt lat="43.540351733470274" lon="10.839561976720322"><ele>172.66666666666669</ele><time>2026-04-18T08:27:10.001Z</time></trkpt><trkpt lat="43.54028182145695" lon="10.839561706830413"><ele>173.83333333333334</ele><time>2026-04-18T08:27:11.001Z</time></trkpt><trkpt lat="43.54021297027928" lon="10.839556440800267"><ele>175.0</ele><time>2026-04-18T08:27:14.001Z</time></trkpt><trkpt lat="43.54014314399135" lon="10.839523422151403"><ele>175.2</ele><time>2026-04-18T08:27:19.001Z</time></trkpt><trkpt lat="43.540078671588645" lon="10.839442706693584"><ele>175.4</ele><time>2026-04-18T08:27:21.001Z</time></trkpt><trkpt lat="43.53999992102749" lon="10.839377811486013"><ele>175.60000000000002</ele><time>2026-04-18T08:27:23.001Z</time></trkpt><trkpt lat="43.53990873280359" lon="10.839299788652289"><ele>175.8</ele><time>2026-04-18T08:27:25.001Z</time></trkpt><trkpt lat="43.53980704436536" lon="10.839212438496894"><ele>176.0</ele><time>2026-04-18T08:27:27.001Z</time></trkpt><trkpt lat="43.539759148715" lon="10.839144803992387"><ele>175.0</ele><time>2026-04-18T08:27:28.001Z</time></trkpt><trkpt lat="43.53969148003976" lon="10.839113419537858"><ele>174.0</ele><time>2026-04-18T08:27:29.001Z</time></trkpt><trkpt lat="43.539633513581876" lon="10.839062625802802"><ele>173.0</ele><time>2026-04-18T08:27:30.001Z</time></trkpt><trkpt lat="43.53952977120483" lon="10.83898232033693"><ele>172.0</ele><time>2026-04-18T08:27:32.001Z</time></trkpt><trkpt lat="43.53945503251498" lon="10.838922455806019"><ele>171.0</ele><time>2026-04-18T08:27:34.001Z</time></trkpt><trkpt lat="43.53939588432359" lon="10.838862805287858"><ele>170.0</ele><time>2026-04-18T08:27:40.001Z</time></trkpt><trkpt lat="43.539332374922324" lon="10.838812859001424"><ele>169.8</ele><time>2026-04-18T08:27:43.001Z</time></trkpt><trkpt lat="43.53927456143497" lon="10.838771224322429"><ele>169.6</ele><time>2026-04-18T08:27:45.001Z</time></trkpt><trkpt lat="43.53920953778358" lon="10.838713532525562"><ele>169.39999999999998</ele><time>2026-04-18T08:27:47.001Z</time></trkpt><trkpt lat="43.53911765777672" lon="10.838627577590207"><ele>169.2</ele><time>2026-04-18T08:27:49.001Z</time></trkpt><trkpt lat="43.53901391165155" lon="10.838536795010429"><ele>169.0</ele><time>2026-04-18T08:27:51.001Z</time></trkpt><trkpt lat="43.538920168390206" lon="10.838439220734966"><ele>168.2</ele><time>2026-04-18T08:27:53.001Z</time></trkpt><trkpt lat="43.53881500474426" lon="10.83835904221017"><ele>167.39999999999998</ele><time>2026-04-18T08:27:55.001Z</time></trkpt><trkpt lat="43.53874669662768" lon="10.838335602876747"><ele>166.6</ele><time>2026-04-18T08:27:56.001Z</time></trkpt><trkpt lat="43.53864893069093" lon="10.838234895485522"><ele>165.8</ele><time>2026-04-18T08:27:58.001Z</time></trkpt><trkpt lat="43.538547831832034" lon="10.838148404654603"><ele>165.0</ele><time>2026-04-18T08:28:00.001Z</time></trkpt><trkpt lat="43.53844523532178" lon="10.838059874820264"><ele>165.0</ele><time>2026-04-18T08:28:02.001Z</time></trkpt><trkpt lat="43.53836747885856" lon="10.838017285332665"><ele>165.0</ele><time>2026-04-18T08:28:04.001Z</time></trkpt><trkpt lat="43.53829515001088" lon="10.837953679499973"><ele>165.0</ele><time>2026-04-18T08:28:11.001Z</time></trkpt><trkpt lat="43.53824287476378" lon="10.837884792087468"><ele>165.0</ele><time>2026-04-18T08:28:13.001Z</time></trkpt><trkpt lat="43.53817149263312" lon="10.837823032137539"><ele>165.0</ele><time>2026-04-18T08:28:15.001Z</time></trkpt><trkpt lat="43.53809427290889" lon="10.837756221490878"><ele>165.0</ele><time>2026-04-18T08:28:17.001Z</time></trkpt><trkpt lat="43.53800294025996" lon="10.837699919302128"><ele>163.6</ele><time>2026-04-18T08:28:19.001Z</time></trkpt><trkpt lat="43.53792006672549" lon="10.837628041090197"><ele>162.2</ele><time>2026-04-18T08:28:21.001Z</time></trkpt><trkpt lat="43.537849388816156" lon="10.837568498137234"><ele>160.8</ele><time>2026-04-18T08:28:24.001Z</time></trkpt><trkpt lat="43.537782172593005" lon="10.837504785465851"><ele>159.4</ele><time>2026-04-18T08:28:28.001Z</time></trkpt><trkpt lat="43.537699860092765" lon="10.83742084987261"><ele>158.0</ele><time>2026-04-18T08:28:31.001Z</time></trkpt><trkpt lat="43.53760589161833" lon="10.837357182718977"><ele>158.00000000000003</ele><time>2026-04-18T08:28:33.001Z</time></trkpt><trkpt lat="43.537544904427754" lon="10.837326886153722"><ele>158.0</ele><time>2026-04-18T08:28:34.001Z</time></trkpt><trkpt lat="43.53747646036753" lon="10.837297580722216"><ele>158.0</ele><time>2026-04-18T08:28:35.001Z</time></trkpt><trkpt lat="43.53740567014732" lon="10.837274203561183"><ele>158.0</ele><time>2026-04-18T08:28:36.001Z</time></trkpt><trkpt lat="43.5373309176649" lon="10.837253482238818"><ele>158.0</ele><time>2026-04-18T08:28:37.001Z</time></trkpt><trkpt lat="43.537254051116506" lon="10.837234374355988"><ele>158.00000000000003</ele><time>2026-04-18T08:28:38.001Z</time></trkpt><trkpt lat="43.537178166582045" lon="10.837211345461384"><ele>158.0</ele><time>2026-04-18T08:28:39.001Z</time></trkpt><trkpt lat="43.53708427082109" lon="10.837175514017682"><ele>158.66666666666666</ele><time>2026-04-18T08:28:41.001Z</time></trkpt><trkpt lat="43.537015576462494" lon="10.837142217942603"><ele>159.33333333333331</ele><time>2026-04-18T08:28:43.001Z</time></trkpt><trkpt lat="43.53695051357422" lon="10.837089176476127"><ele>160.0</ele><time>2026-04-18T08:28:45.001Z</time></trkpt><trkpt lat="43.53687892062324" lon="10.837016592204138"><ele>160.66666666666666</ele><time>2026-04-18T08:28:47.001Z</time></trkpt><trkpt lat="43.53679673802393" lon="10.836937748703994"><ele>161.33333333333334</ele><time>2026-04-18T08:28:49.001Z</time></trkpt><trkpt lat="43.53669906212851" lon="10.83686762398056"><ele>162.0</ele><time>2026-04-18T08:28:51.001Z</time></trkpt><trkpt lat="43.536601493310954" lon="10.836803463620608"><ele>161.0</ele><time>2026-04-18T08:28:53.001Z</time></trkpt><trkpt lat="43.53654434058114" lon="10.836766328061861"><ele>160.0</ele><time>2026-04-18T08:28:56.001Z</time></trkpt><trkpt lat="43.53647419628342" lon="10.83671872379477"><ele>159.0</ele><time>2026-04-18T08:28:59.001Z</time></trkpt><trkpt lat="43.53640119667718" lon="10.836645509577068"><ele>158.0</ele><time>2026-04-18T08:29:01.001Z</time></trkpt><trkpt lat="43.536314551081546" lon="10.83654616544374"><ele>157.0</ele><time>2026-04-18T08:29:03.001Z</time></trkpt><trkpt lat="43.53622002784506" lon="10.836435223669223"><ele>158.85714285714283</ele><time>2026-04-18T08:29:05.001Z</time></trkpt><trkpt lat="43.53616635305948" lon="10.836386106747405"><ele>160.71428571428572</ele><time>2026-04-18T08:29:06.001Z</time></trkpt><trkpt lat="43.53610463883996" lon="10.836346259167593"><ele>162.57142857142856</ele><time>2026-04-18T08:29:07.001Z</time></trkpt><trkpt lat="43.53603750403106" lon="10.836317999354126"><ele>164.42857142857142</ele><time>2026-04-18T08:29:08.001Z</time></trkpt><trkpt lat="43.53597354921736" lon="10.83628170642568"><ele>166.28571428571428</ele><time>2026-04-18T08:29:09.001Z</time></trkpt><trkpt lat="43.53590925195159" lon="10.836237523608203"><ele>168.14285714285714</ele><time>2026-04-18T08:29:10.001Z</time></trkpt><trkpt lat="43.535866806632335" lon="10.836163398679814"><ele>170.0</ele><time>2026-04-18T08:29:11.001Z</time></trkpt><trkpt lat="43.53580866473924" lon="10.836107571253066"><ele>170.0</ele><time>2026-04-18T08:29:12.001Z</time></trkpt><trkpt lat="43.535756900505596" lon="10.836027303552353"><ele>170.0</ele><time>2026-04-18T08:29:13.001Z</time></trkpt><trkpt lat="43.53570049148459" lon="10.835943506693603"><ele>170.0</ele><time>2026-04-18T08:29:14.001Z</time></trkpt><trkpt lat="43.53564472680704" lon="10.83585617763427"><ele>170.0</ele><time>2026-04-18T08:29:15.001Z</time></trkpt><trkpt lat="43.53558478436468" lon="10.835765712085383"><ele>170.0</ele><time>2026-04-18T08:29:16.001Z</time></trkpt><trkpt lat="43.535517631985826" lon="10.835668109711163"><ele>170.0</ele><time>2026-04-18T08:29:17.001Z</time></trkpt><trkpt lat="43.53544001097069" lon="10.835574952409713"><ele>171.5</ele><time>2026-04-18T08:29:18.001Z</time></trkpt><trkpt lat="43.53536646528605" lon="10.835489580415192"><ele>173.0</ele><time>2026-04-18T08:29:19.001Z</time></trkpt><trkpt lat="43.535294486397746" lon="10.835414154695048"><ele>174.5</ele><time>2026-04-18T08:29:20.001Z</time></trkpt><trkpt lat="43.535225462286704" lon="10.835347570903018"><ele>176.0</ele><time>2026-04-18T08:29:21.001Z</time></trkpt><trkpt lat="43.53515623021049" lon="10.835305874508714"><ele>177.5</ele><time>2026-04-18T08:29:22.001Z</time></trkpt><trkpt lat="43.53509257072435" lon="10.835268580560593"><ele>179.0</ele><time>2026-04-18T08:29:23.001Z</time></trkpt><trkpt lat="43.535020458522105" lon="10.835266324506813"><ele>179.0</ele><time>2026-04-18T08:29:24.001Z</time></trkpt><trkpt lat="43.534947391397374" lon="10.835177040786567"><ele>179.0</ele><time>2026-04-18T08:29:26.001Z</time></trkpt><trkpt lat="43.53496344288382" lon="10.835080857095775"><ele>179.0</ele><time>2026-04-18T08:29:27.001Z</time></trkpt><trkpt lat="43.53492052669339" lon="10.834955536238624"><ele>179.0</ele><time>2026-04-18T08:29:29.001Z</time></trkpt><trkpt lat="43.534869606073634" lon="10.834811335519243"><ele>179.0</ele><time>2026-04-18T08:29:31.001Z</time></trkpt><trkpt lat="43.53480246926009" lon="10.834659960332555"><ele>177.83333333333331</ele><time>2026-04-18T08:29:33.001Z</time></trkpt><trkpt lat="43.534762652209174" lon="10.834583664563729"><ele>176.66666666666666</ele><time>2026-04-18T08:29:34.001Z</time></trkpt><trkpt lat="43.53472143229243" lon="10.834512209441325"><ele>175.5</ele><time>2026-04-18T08:29:35.001Z</time></trkpt><trkpt lat="43.534679803211645" lon="10.834445602865141"><ele>174.33333333333334</ele><time>2026-04-18T08:29:36.001Z</time></trkpt><trkpt lat="43.534588777778545" lon="10.834320028852797"><ele>173.16666666666669</ele><time>2026-04-18T08:29:38.001Z</time></trkpt><trkpt lat="43.53454069187692" lon="10.834260090725094"><ele>172.0</ele><time>2026-04-18T08:29:39.001Z</time></trkpt><trkpt lat="43.53448430847849" lon="10.834219245858556"><ele>172.0</ele><time>2026-04-18T08:29:40.001Z</time></trkpt><trkpt lat="43.53443278271666" lon="10.834163413892933"><ele>172.0</ele><time>2026-04-18T08:29:41.001Z</time></trkpt><trkpt lat="43.534343905141796" lon="10.834059177983406"><ele>172.0</ele><time>2026-04-18T08:29:43.001Z</time></trkpt><trkpt lat="43.534279474666626" lon="10.833991443928976"><ele>172.0</ele><time>2026-04-18T08:29:45.001Z</time></trkpt><trkpt lat="43.53419833330526" lon="10.833918268080442"><ele>172.0</ele><time>2026-04-18T08:29:47.001Z</time></trkpt><trkpt lat="43.53409078167581" lon="10.833825748437633"><ele>172.0</ele><time>2026-04-18T08:29:49.001Z</time></trkpt><trkpt lat="43.534031096515186" lon="10.83378816998271"><ele>172.0</ele><time>2026-04-18T08:29:50.001Z</time></trkpt><trkpt lat="43.533932806508226" lon="10.833714132133046"><ele>172.0</ele><time>2026-04-18T08:29:52.001Z</time></trkpt><trkpt lat="43.533882166319906" lon="10.833630367204359"><ele>172.0</ele><time>2026-04-18T08:29:54.001Z</time></trkpt><trkpt lat="43.533828333509646" lon="10.833537350300846"><ele>172.0</ele><time>2026-04-18T08:29:56.001Z</time></trkpt><trkpt lat="43.53375997304372" lon="10.833420788763119"><ele>171.5</ele><time>2026-04-18T08:29:58.001Z</time></trkpt><trkpt lat="43.533682223164135" lon="10.833289638606626"><ele>171.0</ele><time>2026-04-18T08:30:00.001Z</time></trkpt><trkpt lat="43.53363684717654" lon="10.833219514590802"><ele>170.5</ele><time>2026-04-18T08:30:01.001Z</time></trkpt><trkpt lat="43.53358981307474" lon="10.833147084099798"><ele>170.0</ele><time>2026-04-18T08:30:02.001Z</time></trkpt><trkpt lat="43.53354371779251" lon="10.833064559446385"><ele>169.5</ele><time>2026-04-18T08:30:03.001Z</time></trkpt><trkpt lat="43.53350012422348" lon="10.832979550147904"><ele>169.0</ele><time>2026-04-18T08:30:04.001Z</time></trkpt><trkpt lat="43.53345934556544" lon="10.832889563480308"><ele>169.0</ele><time>2026-04-18T08:30:05.001Z</time></trkpt><trkpt lat="43.53342143969591" lon="10.832796396154405"><ele>169.0</ele><time>2026-04-18T08:30:06.001Z</time></trkpt><trkpt lat="43.53338552657169" lon="10.832701396637031"><ele>169.0</ele><time>2026-04-18T08:30:07.001Z</time></trkpt><trkpt lat="43.53335003580342" lon="10.832608757020383"><ele>169.0</ele><time>2026-04-18T08:30:08.001Z</time></trkpt><trkpt lat="43.53331528778668" lon="10.832522031072944"><ele>169.0</ele><time>2026-04-18T08:30:09.001Z</time></trkpt><trkpt lat="43.53327849284402" lon="10.83244091367982"><ele>169.0</ele><time>2026-04-18T08:30:10.001Z</time></trkpt><trkpt lat="43.533239596627546" lon="10.832368296236991"><ele>169.0</ele><time>2026-04-18T08:30:11.001Z</time></trkpt><trkpt lat="43.53315561856994" lon="10.8322472584591"><ele>169.14285714285714</ele><time>2026-04-18T08:30:13.002Z</time></trkpt><trkpt lat="43.53310702992358" lon="10.832184307578839"><ele>169.28571428571428</ele><time>2026-04-18T08:30:14.002Z</time></trkpt><trkpt lat="43.53305442546186" lon="10.832119168858338"><ele>169.42857142857144</ele><time>2026-04-18T08:30:15.002Z</time></trkpt><trkpt lat="43.53300380465098" lon="10.832049463699756"><ele>169.57142857142856</ele><time>2026-04-18T08:30:16.002Z</time></trkpt><trkpt lat="43.53295607732432" lon="10.831971453142183"><ele>169.7142857142857</ele><time>2026-04-18T08:30:17.002Z</time></trkpt><trkpt lat="43.532910586382" lon="10.831887435812842"><ele>169.85714285714286</ele><time>2026-04-18T08:30:18.002Z</time></trkpt><trkpt lat="43.532867918592984" lon="10.831796939059505"><ele>170.0</ele><time>2026-04-18T08:30:19.002Z</time></trkpt><trkpt lat="43.53282672010656" lon="10.831703580049151"><ele>170.0</ele><time>2026-04-18T08:30:20.002Z</time></trkpt><trkpt lat="43.532784770222364" lon="10.831606658053198"><ele>170.0</ele><time>2026-04-18T08:30:21.002Z</time></trkpt><trkpt lat="43.53274146837252" lon="10.831506265218197"><ele>170.0</ele><time>2026-04-18T08:30:22.002Z</time></trkpt><trkpt lat="43.5326977702147" lon="10.831414353955285"><ele>170.0</ele><time>2026-04-18T08:30:23.001Z</time></trkpt><trkpt lat="43.532652248067436" lon="10.831333423431083"><ele>170.0</ele><time>2026-04-18T08:30:24.001Z</time></trkpt><trkpt lat="43.5326059606756" lon="10.831260277040904"><ele>170.0</ele><time>2026-04-18T08:30:25.001Z</time></trkpt><trkpt lat="43.53255401115469" lon="10.831191250833696"><ele>170.0</ele><time>2026-04-18T08:30:26.001Z</time></trkpt><trkpt lat="43.53249608511728" lon="10.83112879912602"><ele>170.0</ele><time>2026-04-18T08:30:27.001Z</time></trkpt><trkpt lat="43.532432952895995" lon="10.83107398847072"><ele>170.0</ele><time>2026-04-18T08:30:28.001Z</time></trkpt><trkpt lat="43.53237104379416" lon="10.831019119394007"><ele>170.0</ele><time>2026-04-18T08:30:29.001Z</time></trkpt><trkpt lat="43.5323065229325" lon="10.830968000871815"><ele>170.0</ele><time>2026-04-18T08:30:30.001Z</time></trkpt><trkpt lat="43.532237915100175" lon="10.830925303308813"><ele>170.0</ele><time>2026-04-18T08:30:31.001Z</time></trkpt><trkpt lat="43.53217899761786" lon="10.830891097018332"><ele>170.0</ele><time>2026-04-18T08:30:32.001Z</time></trkpt><trkpt lat="43.532124866897625" lon="10.830843126544028"><ele>171.16666666666666</ele><time>2026-04-18T08:30:33.001Z</time></trkpt><trkpt lat="43.53206339595975" lon="10.830812845573595"><ele>172.33333333333331</ele><time>2026-04-18T08:30:34.001Z</time></trkpt><trkpt lat="43.53199666087365" lon="10.830806872137183"><ele>173.5</ele><time>2026-04-18T08:30:35.001Z</time></trkpt><trkpt lat="43.53193578072914" lon="10.830777627667223"><ele>174.66666666666666</ele><time>2026-04-18T08:30:36.001Z</time></trkpt><trkpt lat="43.531819682684805" lon="10.830722415885921"><ele>175.83333333333334</ele><time>2026-04-18T08:30:38.001Z</time></trkpt><trkpt lat="43.53175209138384" lon="10.830694411487562"><ele>177.0</ele><time>2026-04-18T08:30:39.001Z</time></trkpt><trkpt lat="43.531688998459316" lon="10.830665487266257"><ele>177.57142857142858</ele><time>2026-04-18T08:30:40.001Z</time></trkpt><trkpt lat="43.531629572746" lon="10.830633606574215"><ele>178.14285714285714</ele><time>2026-04-18T08:30:41.001Z</time></trkpt><trkpt lat="43.53156862367627" lon="10.830601564009626"><ele>178.71428571428572</ele><time>2026-04-18T08:30:42.001Z</time></trkpt><trkpt lat="43.53150830496415" lon="10.830566609476229"><ele>179.28571428571428</ele><time>2026-04-18T08:30:43.001Z</time></trkpt><trkpt lat="43.53144282955488" lon="10.830531965779908"><ele>179.85714285714283</ele><time>2026-04-18T08:30:44.001Z</time></trkpt><trkpt lat="43.531373643822064" lon="10.830496681709665"><ele>180.42857142857142</ele><time>2026-04-18T08:30:45.001Z</time></trkpt><trkpt lat="43.53131188395237" lon="10.830467788115858"><ele>181.0</ele><time>2026-04-18T08:30:46.001Z</time></trkpt><trkpt lat="43.53125329662077" lon="10.830434958208524"><ele>180.5</ele><time>2026-04-18T08:30:47.001Z</time></trkpt><trkpt lat="43.53114416966418" lon="10.83034532066755"><ele>180.0</ele><time>2026-04-18T08:30:49.001Z</time></trkpt><trkpt lat="43.531094297249425" lon="10.83028443710714"><ele>179.5</ele><time>2026-04-18T08:30:50.001Z</time></trkpt><trkpt lat="43.531076654192105" lon="10.830199031195871"><ele>179.0</ele><time>2026-04-18T08:30:51.001Z</time></trkpt><trkpt lat="43.53103327744404" lon="10.830049389665009"><ele>178.5</ele><time>2026-04-18T08:30:53.001Z</time></trkpt><trkpt lat="43.531013860670235" lon="10.829963271552476"><ele>178.0</ele><time>2026-04-18T08:30:54.001Z</time></trkpt><trkpt lat="43.53100070717148" lon="10.829870359077592"><ele>178.0</ele><time>2026-04-18T08:30:55.001Z</time></trkpt><trkpt lat="43.530989877171656" lon="10.829775649654403"><ele>178.0</ele><time>2026-04-18T08:30:56.001Z</time></trkpt><trkpt lat="43.53097520001508" lon="10.829632549772434"><ele>178.0</ele><time>2026-04-18T08:30:58.001Z</time></trkpt><trkpt lat="43.53096049851425" lon="10.82946442487475"><ele>178.0</ele><time>2026-04-18T08:31:00.001Z</time></trkpt><trkpt lat="43.530937883029985" lon="10.829383023028054"><ele>178.0</ele><time>2026-04-18T08:31:01.001Z</time></trkpt><trkpt lat="43.53092452460581" lon="10.829246458334778"><ele>177.66666666666669</ele><time>2026-04-18T08:31:03.001Z</time></trkpt><trkpt lat="43.530898704873" lon="10.829137008944018"><ele>177.33333333333334</ele><time>2026-04-18T08:31:05.001Z</time></trkpt><trkpt lat="43.53086862003944" lon="10.829030610015952"><ele>177.0</ele><time>2026-04-18T08:31:07.001Z</time></trkpt><trkpt lat="43.53083100640953" lon="10.828928224615456"><ele>176.66666666666666</ele><time>2026-04-18T08:31:09.001Z</time></trkpt><trkpt lat="43.53078588296761" lon="10.828831922228371"><ele>176.33333333333331</ele><time>2026-04-18T08:31:11.001Z</time></trkpt><trkpt lat="43.530731957459544" lon="10.828736388968062"><ele>176.0</ele><time>2026-04-18T08:31:13.001Z</time></trkpt><trkpt lat="43.53066551621242" lon="10.828639346224664"><ele>176.0</ele><time>2026-04-18T08:31:15.001Z</time></trkpt><trkpt lat="43.53059661512815" lon="10.82853454510649"><ele>176.0</ele><time>2026-04-18T08:31:17.001Z</time></trkpt><trkpt lat="43.53052475324587" lon="10.828432887442116"><ele>176.0</ele><time>2026-04-18T08:31:19.001Z</time></trkpt><trkpt lat="43.53045454958228" lon="10.828330890189617"><ele>176.0</ele><time>2026-04-18T08:31:21.001Z</time></trkpt><trkpt lat="43.530403525050446" lon="10.828257185613804"><ele>176.0</ele><time>2026-04-18T08:31:23.001Z</time></trkpt><trkpt lat="43.53032789366849" lon="10.828169793869492"><ele>174.66666666666666</ele><time>2026-04-18T08:31:26.001Z</time></trkpt><trkpt lat="43.53026194954491" lon="10.828093302206291"><ele>173.33333333333331</ele><time>2026-04-18T08:31:28.001Z</time></trkpt><trkpt lat="43.53019552552697" lon="10.828016685348393"><ele>172.0</ele><time>2026-04-18T08:31:30.001Z</time></trkpt><trkpt lat="43.53014454921058" lon="10.827951607811157"><ele>170.66666666666666</ele><time>2026-04-18T08:31:32.001Z</time></trkpt><trkpt lat="43.53009612083589" lon="10.827851012756028"><ele>169.33333333333334</ele><time>2026-04-18T08:31:35.001Z</time></trkpt><trkpt lat="43.5300445710445" lon="10.827784530714986"><ele>168.0</ele><time>2026-04-18T08:31:39.001Z</time></trkpt><trkpt lat="43.53000747903952" lon="10.82770743297655"><ele>168.0</ele><time>2026-04-18T08:31:44.001Z</time></trkpt><trkpt lat="43.52996612836588" lon="10.827635328642886"><ele>168.0</ele><time>2026-04-18T08:31:47.001Z</time></trkpt><trkpt lat="43.52991517241271" lon="10.827542744829262"><ele>168.0</ele><time>2026-04-18T08:31:51.001Z</time></trkpt><trkpt lat="43.529875596548834" lon="10.82746352671572"><ele>168.0</ele><time>2026-04-18T08:31:54.001Z</time></trkpt><trkpt lat="43.52982644905474" lon="10.827360082482501"><ele>168.0</ele><time>2026-04-18T08:31:58.001Z</time></trkpt><trkpt lat="43.52979274061604" lon="10.827283565347685"><ele>168.0</ele><time>2026-04-18T08:32:00.001Z</time></trkpt><trkpt lat="43.52974932620498" lon="10.827200241194125"><ele>168.0</ele><time>2026-04-18T08:32:03.001Z</time></trkpt><trkpt lat="43.529711751599706" lon="10.827128125454754"><ele>168.0</ele><time>2026-04-18T08:32:06.001Z</time></trkpt><trkpt lat="43.52965487770141" lon="10.827067612280775"><ele>168.0</ele><time>2026-04-18T08:32:09.001Z</time></trkpt><trkpt lat="43.52960255432386" lon="10.826983729230438"><ele>168.0</ele><time>2026-04-18T08:32:12.001Z</time></trkpt><trkpt lat="43.529549434041314" lon="10.826905994502733"><ele>168.0</ele><time>2026-04-18T08:32:15.001Z</time></trkpt><trkpt lat="43.52950184465528" lon="10.826829224772306"><ele>168.0</ele><time>2026-04-18T08:32:19.001Z</time></trkpt><trkpt lat="43.529473545127544" lon="10.826743567541087"><ele>168.0</ele><time>2026-04-18T08:32:22.001Z</time></trkpt><trkpt lat="43.52943017849363" lon="10.826663018748993"><ele>165.83333333333334</ele><time>2026-04-18T08:32:25.001Z</time></trkpt><trkpt lat="43.529385452775365" lon="10.826576173428181"><ele>163.66666666666666</ele><time>2026-04-18T08:32:28.001Z</time></trkpt><trkpt lat="43.529328466424325" lon="10.826494355271068"><ele>161.5</ele><time>2026-04-18T08:32:31Z</time></trkpt><trkpt lat="43.52928664127951" lon="10.82641242999389"><ele>159.33333333333331</ele><time>2026-04-18T08:32:34Z</time></trkpt><trkpt lat="43.52923711956007" lon="10.826322742757315"><ele>157.16666666666666</ele><time>2026-04-18T08:32:37Z</time></trkpt><trkpt lat="43.529197437209945" lon="10.826244128840909"><ele>155.0</ele><time>2026-04-18T08:32:39Z</time></trkpt><trkpt lat="43.52915770293065" lon="10.826161016720253"><ele>155.0</ele><time>2026-04-18T08:32:41Z</time></trkpt><trkpt lat="43.52910887477018" lon="10.826070637028248"><ele>155.0</ele><time>2026-04-18T08:32:43Z</time></trkpt><trkpt lat="43.529051182820076" lon="10.82596104388142"><ele>155.0</ele><time>2026-04-18T08:32:45Z</time></trkpt><trkpt lat="43.529005536746695" lon="10.825819689033555"><ele>155.0</ele><time>2026-04-18T08:32:47Z</time></trkpt><trkpt lat="43.52895488805222" lon="10.825677598417458"><ele>155.0</ele><time>2026-04-18T08:32:49Z</time></trkpt><trkpt lat="43.52889542208827" lon="10.82554005018995"><ele>152.6</ele><time>2026-04-18T08:32:51Z</time></trkpt><trkpt lat="43.52887017752181" lon="10.825383627629575"><ele>150.2</ele><time>2026-04-18T08:32:53Z</time></trkpt><trkpt lat="43.52883701214178" lon="10.825238352653937"><ele>147.8</ele><time>2026-04-18T08:32:55Z</time></trkpt><trkpt lat="43.52879494793989" lon="10.825120761398498"><ele>145.4</ele><time>2026-04-18T08:32:57Z</time></trkpt><trkpt lat="43.52877265162661" lon="10.825001323862134"><ele>143.0</ele><time>2026-04-18T08:32:59Z</time></trkpt><trkpt lat="43.52874837239616" lon="10.824887032461875"><ele>142.0</ele><time>2026-04-18T08:33:02Z</time></trkpt><trkpt lat="43.52872258632294" lon="10.82476322320639"><ele>141.0</ele><time>2026-04-18T08:33:05Z</time></trkpt><trkpt lat="43.528720058370446" lon="10.82467150335234"><ele>140.0</ele><time>2026-04-18T08:33:07Z</time></trkpt><trkpt lat="43.52869881514971" lon="10.824573320370051"><ele>139.0</ele><time>2026-04-18T08:33:09Z</time></trkpt><trkpt lat="43.52867147225671" lon="10.824452764980952"><ele>138.0</ele><time>2026-04-18T08:33:12Z</time></trkpt><trkpt lat="43.528637358959635" lon="10.824378310948504"><ele>137.0</ele><time>2026-04-18T08:33:15Z</time></trkpt><trkpt lat="43.528616137194234" lon="10.824288040622115"><ele>136.83333333333331</ele><time>2026-04-18T08:33:20Z</time></trkpt><trkpt lat="43.52859284665361" lon="10.824199654522854"><ele>136.66666666666666</ele><time>2026-04-18T08:33:24.001Z</time></trkpt><trkpt lat="43.52856260963579" lon="10.824106695900877"><ele>136.5</ele><time>2026-04-18T08:33:27.001Z</time></trkpt><trkpt lat="43.52853220699694" lon="10.823980939330859"><ele>136.33333333333334</ele><time>2026-04-18T08:33:30.001Z</time></trkpt><trkpt lat="43.52848391461432" lon="10.823894536091037"><ele>136.16666666666669</ele><time>2026-04-18T08:33:33.001Z</time></trkpt><trkpt lat="43.52845512777588" lon="10.823812402394177"><ele>136.0</ele><time>2026-04-18T08:33:36.001Z</time></trkpt><trkpt lat="43.52842411536837" lon="10.823724921281924"><ele>136.0</ele><time>2026-04-18T08:33:39.001Z</time></trkpt><trkpt lat="43.52839099812956" lon="10.823633857384023"><ele>136.0</ele><time>2026-04-18T08:33:42.001Z</time></trkpt><trkpt lat="43.52835701769249" lon="10.823550740251727"><ele>136.0</ele><time>2026-04-18T08:33:45.001Z</time></trkpt><trkpt lat="43.52830417985013" lon="10.823440378464802"><ele>136.0</ele><time>2026-04-18T08:33:48.001Z</time></trkpt><trkpt lat="43.528267589711014" lon="10.823359845048882"><ele>136.0</ele><time>2026-04-18T08:33:50.001Z</time></trkpt><trkpt lat="43.528228772719594" lon="10.823272090059005"><ele>136.0</ele><time>2026-04-18T08:33:52.001Z</time></trkpt><trkpt lat="43.52818994542243" lon="10.823177062127682"><ele>134.83333333333334</ele><time>2026-04-18T08:33:54.001Z</time></trkpt><trkpt lat="43.52814592815981" lon="10.823070553075558"><ele>133.66666666666669</ele><time>2026-04-18T08:33:56.001Z</time></trkpt><trkpt lat="43.5281015163245" lon="10.822975488380548"><ele>132.5</ele><time>2026-04-18T08:33:58.001Z</time></trkpt><trkpt lat="43.52806074097915" lon="10.822888067084381"><ele>131.33333333333334</ele><time>2026-04-18T08:34:00.001Z</time></trkpt><trkpt lat="43.52802158950968" lon="10.822801378164622"><ele>130.16666666666666</ele><time>2026-04-18T08:34:03.001Z</time></trkpt><trkpt lat="43.527989210155226" lon="10.82268448864138"><ele>129.0</ele><time>2026-04-18T08:34:14.001Z</time></trkpt><trkpt lat="43.527918016459964" lon="10.8225758732163"><ele>127.2</ele><time>2026-04-18T08:34:16.001Z</time></trkpt><trkpt lat="43.5278766799534" lon="10.822436141312254"><ele>125.4</ele><time>2026-04-18T08:34:18.001Z</time></trkpt><trkpt lat="43.52786811838855" lon="10.822309775226064"><ele>123.6</ele><time>2026-04-18T08:34:20.001Z</time></trkpt><trkpt lat="43.527903494759784" lon="10.822184998302534"><ele>121.8</ele><time>2026-04-18T08:34:22.001Z</time></trkpt><trkpt lat="43.52798448290897" lon="10.822058211873838"><ele>120.0</ele><time>2026-04-18T08:34:24.001Z</time></trkpt><trkpt lat="43.528013651325345" lon="10.821957475946821"><ele>120.0</ele><time>2026-04-18T08:34:25.001Z</time></trkpt><trkpt lat="43.5280334438432" lon="10.821823800910012"><ele>120.0</ele><time>2026-04-18T08:34:26.001Z</time></trkpt><trkpt lat="43.528031703084984" lon="10.821674655680662"><ele>120.0</ele><time>2026-04-18T08:34:27.001Z</time></trkpt><trkpt lat="43.52801836389654" lon="10.821525278873475"><ele>120.0</ele><time>2026-04-18T08:34:28.001Z</time></trkpt><trkpt lat="43.528000072408524" lon="10.821372348782305"><ele>120.0</ele><time>2026-04-18T08:34:29.001Z</time></trkpt><trkpt lat="43.52796362229491" lon="10.821220933535901"><ele>118.4</ele><time>2026-04-18T08:34:30.001Z</time></trkpt><trkpt lat="43.52794260221664" lon="10.821069209422735"><ele>116.8</ele><time>2026-04-18T08:34:31.001Z</time></trkpt><trkpt lat="43.527924233702464" lon="10.820928743684249"><ele>115.19999999999999</ele><time>2026-04-18T08:34:32.001Z</time></trkpt><trkpt lat="43.52790590782527" lon="10.820802112984861"><ele>113.6</ele><time>2026-04-18T08:34:33.001Z</time></trkpt><trkpt lat="43.527885019568956" lon="10.820689400146202"><ele>112.0</ele><time>2026-04-18T08:34:34.001Z</time></trkpt><trkpt lat="43.527869279539985" lon="10.820583458895824"><ele>111.66666666666667</ele><time>2026-04-18T08:34:35Z</time></trkpt><trkpt lat="43.5278229987954" lon="10.820500304786208"><ele>111.33333333333334</ele><time>2026-04-18T08:34:36Z</time></trkpt><trkpt lat="43.527743340952505" lon="10.820460648776576"><ele>111.0</ele><time>2026-04-18T08:34:37Z</time></trkpt><trkpt lat="43.527669799364446" lon="10.820419646343442"><ele>110.66666666666666</ele><time>2026-04-18T08:34:38Z</time></trkpt><trkpt lat="43.52759461268955" lon="10.820390663592155"><ele>110.33333333333333</ele><time>2026-04-18T08:34:39Z</time></trkpt><trkpt lat="43.52751711319329" lon="10.820369271104887"><ele>110.0</ele><time>2026-04-18T08:34:40Z</time></trkpt><trkpt lat="43.52743807865656" lon="10.820353482597556"><ele>109.99999999999999</ele><time>2026-04-18T08:34:41Z</time></trkpt><trkpt lat="43.527354687240916" lon="10.820363960538801"><ele>110.0</ele><time>2026-04-18T08:34:42Z</time></trkpt><trkpt lat="43.52727974715361" lon="10.820320016615907"><ele>110.0</ele><time>2026-04-18T08:34:43Z</time></trkpt><trkpt lat="43.52719809490065" lon="10.820312762756327"><ele>110.0</ele><time>2026-04-18T08:34:44Z</time></trkpt><trkpt lat="43.527125425523515" lon="10.820269166395935"><ele>109.99999999999999</ele><time>2026-04-18T08:34:45Z</time></trkpt><trkpt lat="43.52706268469631" lon="10.820207725159309"><ele>110.0</ele><time>2026-04-18T08:34:46Z</time></trkpt><trkpt lat="43.52701742796911" lon="10.82012699816047"><ele>107.57142857142857</ele><time>2026-04-18T08:34:47Z</time></trkpt><trkpt lat="43.52702467163612" lon="10.820025641113023"><ele>105.14285714285714</ele><time>2026-04-18T08:34:48Z</time></trkpt><trkpt lat="43.5270288271038" lon="10.819938982086912"><ele>102.71428571428572</ele><time>2026-04-18T08:34:49Z</time></trkpt><trkpt lat="43.527033211596816" lon="10.819834934692503"><ele>100.28571428571428</ele><time>2026-04-18T08:34:50Z</time></trkpt><trkpt lat="43.527024152104545" lon="10.819737849697004"><ele>97.85714285714286</ele><time>2026-04-18T08:34:51Z</time></trkpt><trkpt lat="43.52703387935666" lon="10.819638859772695"><ele>95.42857142857143</ele><time>2026-04-18T08:34:52Z</time></trkpt><trkpt lat="43.52704127770977" lon="10.819534765270483"><ele>93.0</ele><time>2026-04-18T08:34:53Z</time></trkpt><trkpt lat="43.52704481286145" lon="10.819420610836099"><ele>92.33333333333333</ele><time>2026-04-18T08:34:54Z</time></trkpt><trkpt lat="43.52705038420691" lon="10.819306617677569"><ele>91.66666666666667</ele><time>2026-04-18T08:34:55Z</time></trkpt><trkpt lat="43.527049339629194" lon="10.81919276544125"><ele>91.0</ele><time>2026-04-18T08:34:56Z</time></trkpt><trkpt lat="43.52703726615674" lon="10.819082089678503"><ele>90.33333333333334</ele><time>2026-04-18T08:34:57Z</time></trkpt><trkpt lat="43.52702578093107" lon="10.81897159135603"><ele>89.66666666666667</ele><time>2026-04-18T08:34:58Z</time></trkpt><trkpt lat="43.526976276582054" lon="10.818894123640236"><ele>89.0</ele><time>2026-04-18T08:34:59Z</time></trkpt><trkpt lat="43.52692164546988" lon="10.818781069244121"><ele>89.0</ele><time>2026-04-18T08:35:01Z</time></trkpt><trkpt lat="43.526872146340445" lon="10.818687992513151"><ele>89.0</ele><time>2026-04-18T08:35:03Z</time></trkpt><trkpt lat="43.52683016471371" lon="10.8186123899262"><ele>89.0</ele><time>2026-04-18T08:35:05Z</time></trkpt><trkpt lat="43.526794909032596" lon="10.818525707222062"><ele>89.0</ele><time>2026-04-18T08:35:26Z</time></trkpt><trkpt lat="43.52685916825575" lon="10.81844558917692"><ele>89.0</ele><time>2026-04-18T08:35:30.001Z</time></trkpt><trkpt lat="43.52691745846999" lon="10.818351740081491"><ele>89.0</ele><time>2026-04-18T08:35:32.001Z</time></trkpt><trkpt lat="43.52698349094066" lon="10.818233441288218"><ele>89.0</ele><time>2026-04-18T08:35:34.001Z</time></trkpt><trkpt lat="43.52705805981027" lon="10.818098781425654"><ele>89.0</ele><time>2026-04-18T08:35:36.001Z</time></trkpt><trkpt lat="43.52709820161355" lon="10.81802629158234"><ele>89.0</ele><time>2026-04-18T08:35:37.001Z</time></trkpt><trkpt lat="43.52714036454795" lon="10.817947943695824"><ele>89.0</ele><time>2026-04-18T08:35:38.001Z</time></trkpt><trkpt lat="43.52717171261748" lon="10.817851140360185"><ele>89.0</ele><time>2026-04-18T08:35:39.001Z</time></trkpt><trkpt lat="43.52721332365255" lon="10.817772276490492"><ele>89.0</ele><time>2026-04-18T08:35:40.001Z</time></trkpt><trkpt lat="43.527277931923706" lon="10.81765141529654"><ele>88.0</ele><time>2026-04-18T08:35:42.001Z</time></trkpt><trkpt lat="43.52735603645486" lon="10.817545615822265"><ele>87.0</ele><time>2026-04-18T08:35:44.001Z</time></trkpt><trkpt lat="43.52744418394911" lon="10.817444475728204"><ele>86.0</ele><time>2026-04-18T08:35:46.001Z</time></trkpt><trkpt lat="43.527537175259425" lon="10.817363192522565"><ele>85.0</ele><time>2026-04-18T08:35:48.001Z</time></trkpt><trkpt lat="43.52761647477414" lon="10.817306012668158"><ele>84.0</ele><time>2026-04-18T08:35:50.001Z</time></trkpt><trkpt lat="43.52769008876816" lon="10.81724556958125"><ele>84.0</ele><time>2026-04-18T08:35:53.001Z</time></trkpt><trkpt lat="43.52774453988957" lon="10.817146901604916"><ele>84.0</ele><time>2026-04-18T08:38:53.001Z</time></trkpt><trkpt lat="43.52777255207014" lon="10.817058796569313"><ele>84.0</ele><time>2026-04-18T08:38:56.001Z</time></trkpt><trkpt lat="43.52780401393362" lon="10.816956168826607"><ele>84.0</ele><time>2026-04-18T08:38:58.001Z</time></trkpt><trkpt lat="43.52783666492422" lon="10.816823420722505"><ele>84.0</ele><time>2026-04-18T08:39:00.001Z</time></trkpt><trkpt lat="43.52788049495358" lon="10.816679726917565"><ele>85.0</ele><time>2026-04-18T08:39:02.001Z</time></trkpt><trkpt lat="43.527932038950645" lon="10.816526951312003"><ele>86.0</ele><time>2026-04-18T08:39:04.001Z</time></trkpt><trkpt lat="43.52795981440499" lon="10.816446508448776"><ele>87.0</ele><time>2026-04-18T08:39:05.001Z</time></trkpt><trkpt lat="43.527988344307026" lon="10.816363635624684"><ele>88.0</ele><time>2026-04-18T08:39:06.001Z</time></trkpt><trkpt lat="43.52801488614088" lon="10.816282576445188"><ele>89.0</ele><time>2026-04-18T08:39:07.001Z</time></trkpt><trkpt lat="43.528087667975484" lon="10.816158602642354"><ele>90.0</ele><time>2026-04-18T08:39:09.001Z</time></trkpt><trkpt lat="43.52814738441885" lon="10.816068315123237"><ele>90.0</ele><time>2026-04-18T08:39:11.001Z</time></trkpt><trkpt lat="43.52822617680753" lon="10.816005585219251"><ele>90.0</ele><time>2026-04-18T08:39:13.001Z</time></trkpt><trkpt lat="43.5283043895914" lon="10.816010585394698"><ele>90.0</ele><time>2026-04-18T08:39:15.001Z</time></trkpt><trkpt lat="43.52840745580879" lon="10.816032399501768"><ele>90.0</ele><time>2026-04-18T08:39:17.001Z</time></trkpt><trkpt lat="43.528536947814025" lon="10.816067794853769"><ele>90.0</ele><time>2026-04-18T08:39:19.001Z</time></trkpt><trkpt lat="43.528667231808704" lon="10.816103021424702"><ele>91.5</ele><time>2026-04-18T08:39:21.001Z</time></trkpt><trkpt lat="43.52874378596968" lon="10.816122024246342"><ele>93.0</ele><time>2026-04-18T08:39:22.001Z</time></trkpt><trkpt lat="43.52882067832483" lon="10.81613427426483"><ele>94.5</ele><time>2026-04-18T08:39:23.001Z</time></trkpt><trkpt lat="43.52889916080881" lon="10.816133221615603"><ele>96.0</ele><time>2026-04-18T08:39:24.001Z</time></trkpt><trkpt lat="43.52897449522943" lon="10.816119983410898"><ele>97.5</ele><time>2026-04-18T08:39:25.001Z</time></trkpt><trkpt lat="43.529051337968454" lon="10.816083595295712"><ele>99.0</ele><time>2026-04-18T08:39:26.001Z</time></trkpt><trkpt lat="43.529124012670934" lon="10.816048276711209"><ele>99.0</ele><time>2026-04-18T08:39:27.001Z</time></trkpt><trkpt lat="43.52919701602295" lon="10.816012798475704"><ele>99.0</ele><time>2026-04-18T08:39:28.001Z</time></trkpt><trkpt lat="43.529271174999806" lon="10.815971290636904"><ele>99.0</ele><time>2026-04-18T08:39:29.001Z</time></trkpt><trkpt lat="43.52934176364219" lon="10.815911181774428"><ele>99.0</ele><time>2026-04-18T08:39:30.001Z</time></trkpt><trkpt lat="43.52941103715625" lon="10.815881100440448"><ele>99.0</ele><time>2026-04-18T08:39:31.001Z</time></trkpt><trkpt lat="43.52948186432375" lon="10.815855545770297"><ele>99.0</ele><time>2026-04-18T08:39:32.001Z</time></trkpt><trkpt lat="43.52955052179812" lon="10.815825363857572"><ele>102.57142857142858</ele><time>2026-04-18T08:39:33.001Z</time></trkpt><trkpt lat="43.52961926150796" lon="10.815800247060633"><ele>106.14285714285714</ele><time>2026-04-18T08:39:34.001Z</time></trkpt><trkpt lat="43.52969974693938" lon="10.815795385760737"><ele>109.71428571428572</ele><time>2026-04-18T08:39:35.001Z</time></trkpt><trkpt lat="43.52976444677544" lon="10.815781254933423"><ele>113.28571428571429</ele><time>2026-04-18T08:39:36.001Z</time></trkpt><trkpt lat="43.529827359707774" lon="10.815766890036002"><ele>116.85714285714286</ele><time>2026-04-18T08:39:37.001Z</time></trkpt><trkpt lat="43.52989184189176" lon="10.815753589242705"><ele>120.42857142857143</ele><time>2026-04-18T08:39:38.001Z</time></trkpt><trkpt lat="43.52995829617828" lon="10.815739881651504"><ele>124.0</ele><time>2026-04-18T08:39:39.001Z</time></trkpt><trkpt lat="43.53002421454525" lon="10.815728345901594"><ele>124.0</ele><time>2026-04-18T08:39:40.001Z</time></trkpt><trkpt lat="43.53009345071208" lon="10.815718143204764"><ele>124.00000000000001</ele><time>2026-04-18T08:39:41.001Z</time></trkpt><trkpt lat="43.53016580015852" lon="10.815707770697525"><ele>124.0</ele><time>2026-04-18T08:39:42.001Z</time></trkpt><trkpt lat="43.53024132057316" lon="10.8156973442429"><ele>124.0</ele><time>2026-04-18T08:39:43.001Z</time></trkpt><trkpt lat="43.53031559344105" lon="10.815687089969025"><ele>124.00000000000001</ele><time>2026-04-18T08:39:44.001Z</time></trkpt><trkpt lat="43.530385765503155" lon="10.815652464961186"><ele>124.0</ele><time>2026-04-18T08:39:45.001Z</time></trkpt><trkpt lat="43.5304533333957" lon="10.815641779302254"><ele>124.0</ele><time>2026-04-18T08:39:46.001Z</time></trkpt><trkpt lat="43.53051847627473" lon="10.815620373040643"><ele>124.42857142857143</ele><time>2026-04-18T08:39:47.001Z</time></trkpt><trkpt lat="43.53058355353191" lon="10.815605691018765"><ele>124.85714285714286</ele><time>2026-04-18T08:39:48.001Z</time></trkpt><trkpt lat="43.53064864281525" lon="10.815590114208835"><ele>125.28571428571429</ele><time>2026-04-18T08:39:49.001Z</time></trkpt><trkpt lat="43.530717377352765" lon="10.81557982851159"><ele>125.71428571428572</ele><time>2026-04-18T08:39:50.001Z</time></trkpt><trkpt lat="43.530788478177996" lon="10.815607054741298"><ele>126.14285714285714</ele><time>2026-04-18T08:39:51.001Z</time></trkpt><trkpt lat="43.53085954876597" lon="10.815626811063208"><ele>126.57142857142858</ele><time>2026-04-18T08:39:52.001Z</time></trkpt><trkpt lat="43.53092571362141" lon="10.81565218332104"><ele>127.0</ele><time>2026-04-18T08:39:53.001Z</time></trkpt><trkpt lat="43.530993623490495" lon="10.81568177072541"><ele>127.0</ele><time>2026-04-18T08:39:54.001Z</time></trkpt><trkpt lat="43.531065409766406" lon="10.815688747219209"><ele>127.0</ele><time>2026-04-18T08:39:55.001Z</time></trkpt><trkpt lat="43.53113595931977" lon="10.815722471753954"><ele>127.0</ele><time>2026-04-18T08:39:56.001Z</time></trkpt><trkpt lat="43.53120446422551" lon="10.815769988026673"><ele>127.0</ele><time>2026-04-18T08:39:57.001Z</time></trkpt><trkpt lat="43.531279381619974" lon="10.815778808993741"><ele>127.0</ele><time>2026-04-18T08:39:58.001Z</time></trkpt><trkpt lat="43.531349538238594" lon="10.815808675402725"><ele>127.0</ele><time>2026-04-18T08:39:59.001Z</time></trkpt><trkpt lat="43.531418982438446" lon="10.815838090508283"><ele>127.0</ele><time>2026-04-18T08:40:00.001Z</time></trkpt><trkpt lat="43.53148934811863" lon="10.815854786716256"><ele>127.83333333333334</ele><time>2026-04-18T08:40:01.001Z</time></trkpt><trkpt lat="43.53156355647759" lon="10.815840177853065"><ele>128.66666666666669</ele><time>2026-04-18T08:40:02.001Z</time></trkpt><trkpt lat="43.53163504354124" lon="10.815835837728558"><ele>129.5</ele><time>2026-04-18T08:40:03.001Z</time></trkpt><trkpt lat="43.5317040574608" lon="10.815834569520266"><ele>130.33333333333334</ele><time>2026-04-18T08:40:04.001Z</time></trkpt><trkpt lat="43.53176958109646" lon="10.815836962705992"><ele>131.16666666666666</ele><time>2026-04-18T08:40:05.001Z</time></trkpt><trkpt lat="43.53183023624034" lon="10.815869398232937"><ele>132.0</ele><time>2026-04-18T08:40:06.001Z</time></trkpt><trkpt lat="43.531945035624915" lon="10.815912435503616"><ele>132.0</ele><time>2026-04-18T08:40:08.001Z</time></trkpt><trkpt lat="43.532052050454766" lon="10.815971841328277"><ele>132.0</ele><time>2026-04-18T08:40:10.001Z</time></trkpt><trkpt lat="43.532157345563455" lon="10.816057996671093"><ele>132.0</ele><time>2026-04-18T08:40:12.001Z</time></trkpt><trkpt lat="43.532223232753935" lon="10.816087078123322"><ele>132.0</ele><time>2026-04-18T08:40:13.001Z</time></trkpt><trkpt lat="43.53228193880251" lon="10.816145781754436"><ele>132.0</ele><time>2026-04-18T08:40:14.001Z</time></trkpt><trkpt lat="43.53234550440095" lon="10.816200548653164"><ele>132.85714285714286</ele><time>2026-04-18T08:40:15.001Z</time></trkpt><trkpt lat="43.532411670761164" lon="10.816250094423763"><ele>133.71428571428572</ele><time>2026-04-18T08:40:16.001Z</time></trkpt><trkpt lat="43.53247767453569" lon="10.816300597984862"><ele>134.57142857142858</ele><time>2026-04-18T08:40:17.001Z</time></trkpt><trkpt lat="43.53254712999475" lon="10.816342276434689"><ele>135.42857142857144</ele><time>2026-04-18T08:40:18.001Z</time></trkpt><trkpt lat="43.53261609551138" lon="10.816375725977311"><ele>136.2857142857143</ele><time>2026-04-18T08:40:19.001Z</time></trkpt><trkpt lat="43.532679513338145" lon="10.816419964319875"><ele>137.14285714285714</ele><time>2026-04-18T08:40:20.001Z</time></trkpt><trkpt lat="43.532743950546106" lon="10.816450244037307"><ele>138.0</ele><time>2026-04-18T08:40:21.001Z</time></trkpt><trkpt lat="43.5328111802508" lon="10.816481835978246"><ele>138.0</ele><time>2026-04-18T08:40:22.001Z</time></trkpt><trkpt lat="43.532887163170344" lon="10.816490003523976"><ele>138.0</ele><time>2026-04-18T08:40:23.001Z</time></trkpt><trkpt lat="43.53295909892124" lon="10.816524821397275"><ele>138.0</ele><time>2026-04-18T08:40:24.001Z</time></trkpt><trkpt lat="43.53303185877596" lon="10.816560722692833"><ele>138.0</ele><time>2026-04-18T08:40:25.001Z</time></trkpt><trkpt lat="43.53310567538835" lon="10.816595766894071"><ele>138.0</ele><time>2026-04-18T08:40:26.001Z</time></trkpt><trkpt lat="43.53317964767537" lon="10.816627695521413"><ele>138.0</ele><time>2026-04-18T08:40:27.001Z</time></trkpt><trkpt lat="43.53325200807529" lon="10.816658230648235"><ele>137.83333333333334</ele><time>2026-04-18T08:40:28.001Z</time></trkpt><trkpt lat="43.53332332131124" lon="10.8166852545958"><ele>137.66666666666666</ele><time>2026-04-18T08:40:29.001Z</time></trkpt><trkpt lat="43.533390884496676" lon="10.816710148231824"><ele>137.5</ele><time>2026-04-18T08:40:30.001Z</time></trkpt><trkpt lat="43.53344995632582" lon="10.816740305874731"><ele>137.33333333333331</ele><time>2026-04-18T08:40:31.001Z</time></trkpt><trkpt lat="43.53356636327168" lon="10.816794204489293"><ele>137.16666666666666</ele><time>2026-04-18T08:40:33.001Z</time></trkpt><trkpt lat="43.53363184347297" lon="10.816787531187941"><ele>137.0</ele><time>2026-04-18T08:40:34.001Z</time></trkpt><trkpt lat="43.53369637600924" lon="10.816774659702496"><ele>138.0</ele><time>2026-04-18T08:40:35.001Z</time></trkpt><trkpt lat="43.53378258483378" lon="10.816740037008925"><ele>139.0</ele><time>2026-04-18T08:40:37.001Z</time></trkpt><trkpt lat="43.53386736670039" lon="10.816700419934365"><ele>140.0</ele><time>2026-04-18T08:40:40.001Z</time></trkpt><trkpt lat="43.533933868146356" lon="10.81667586033389"><ele>141.0</ele><time>2026-04-18T08:40:42.001Z</time></trkpt><trkpt lat="43.53401038536561" lon="10.81665278504421"><ele>142.0</ele><time>2026-04-18T08:40:44.001Z</time></trkpt><trkpt lat="43.534109203422915" lon="10.816667185751292"><ele>143.0</ele><time>2026-04-18T08:40:46.001Z</time></trkpt><trkpt lat="43.53422921618302" lon="10.816646607675592"><ele>143.0</ele><time>2026-04-18T08:40:48.001Z</time></trkpt><trkpt lat="43.53435596139028" lon="10.816653843277415"><ele>143.0</ele><time>2026-04-18T08:40:50.001Z</time></trkpt><trkpt lat="43.53441759947986" lon="10.816680392541384"><ele>143.0</ele><time>2026-04-18T08:40:51.001Z</time></trkpt><trkpt lat="43.534539490658965" lon="10.816692091766381"><ele>143.0</ele><time>2026-04-18T08:40:53.001Z</time></trkpt><trkpt lat="43.53465862232835" lon="10.816709356684953"><ele>143.0</ele><time>2026-04-18T08:40:55.001Z</time></trkpt><trkpt lat="43.53477857103961" lon="10.816703602941763"><ele>145.25</ele><time>2026-04-18T08:40:57.001Z</time></trkpt><trkpt lat="43.534897445429515" lon="10.816723211758882"><ele>147.5</ele><time>2026-04-18T08:40:59.001Z</time></trkpt><trkpt lat="43.53501961093498" lon="10.816727923938117"><ele>149.75</ele><time>2026-04-18T08:41:01Z</time></trkpt><trkpt lat="43.535125156811155" lon="10.816637498253765"><ele>152.0</ele><time>2026-04-18T08:41:03Z</time></trkpt><trkpt lat="43.53522975290218" lon="10.816551865850126"><ele>152.0</ele><time>2026-04-18T08:41:05Z</time></trkpt><trkpt lat="43.535331966794246" lon="10.816464612878523"><ele>152.0</ele><time>2026-04-18T08:41:07Z</time></trkpt><trkpt lat="43.53543113417303" lon="10.816375063696261"><ele>152.0</ele><time>2026-04-18T08:41:09Z</time></trkpt><trkpt lat="43.53548358924836" lon="10.816326738637878"><ele>152.0</ele><time>2026-04-18T08:41:10Z</time></trkpt><trkpt lat="43.53553703209384" lon="10.8162744625125"><ele>152.0</ele><time>2026-04-18T08:41:11Z</time></trkpt><trkpt lat="43.53559089408032" lon="10.816223234913323"><ele>152.0</ele><time>2026-04-18T08:41:12Z</time></trkpt><trkpt lat="43.53564261585319" lon="10.816172147084743"><ele>153.7142857142857</ele><time>2026-04-18T08:41:13Z</time></trkpt><trkpt lat="43.5357042884392" lon="10.816139325316021"><ele>155.42857142857144</ele><time>2026-04-18T08:41:14Z</time></trkpt><trkpt lat="43.53575839981656" lon="10.816087057011307"><ele>157.14285714285714</ele><time>2026-04-18T08:41:15Z</time></trkpt><trkpt lat="43.5358134597735" lon="10.816033872454671"><ele>158.85714285714283</ele><time>2026-04-18T08:41:16Z</time></trkpt><trkpt lat="43.5358700662683" lon="10.815981126685184"><ele>160.57142857142856</ele><time>2026-04-18T08:41:17Z</time></trkpt><trkpt lat="43.535919919677724" lon="10.815912807784214"><ele>162.28571428571428</ele><time>2026-04-18T08:41:18Z</time></trkpt><trkpt lat="43.53598960833111" lon="10.815886414891319"><ele>164.0</ele><time>2026-04-18T08:41:19Z</time></trkpt><trkpt lat="43.536053470215926" lon="10.815842444562158"><ele>164.0</ele><time>2026-04-18T08:41:20Z</time></trkpt><trkpt lat="43.536115445113225" lon="10.81580304993894"><ele>164.0</ele><time>2026-04-18T08:41:21Z</time></trkpt><trkpt lat="43.53617427857609" lon="10.815769827677103"><ele>164.0</ele><time>2026-04-18T08:41:22Z</time></trkpt><trkpt lat="43.53628586632976" lon="10.815723686916408"><ele>164.0</ele><time>2026-04-18T08:41:24Z</time></trkpt><trkpt lat="43.53635471876563" lon="10.815699819150334"><ele>164.0</ele><time>2026-04-18T08:41:25Z</time></trkpt><trkpt lat="43.5364313185985" lon="10.815673265712096"><ele>164.0</ele><time>2026-04-18T08:41:26Z</time></trkpt><trkpt lat="43.53650432650411" lon="10.815653223763617"><ele>165.6</ele><time>2026-04-18T08:41:27Z</time></trkpt><trkpt lat="43.536575886503485" lon="10.81564512544788"><ele>167.2</ele><time>2026-04-18T08:41:28Z</time></trkpt><trkpt lat="43.53664319677472" lon="10.81564593997526"><ele>168.79999999999998</ele><time>2026-04-18T08:41:29Z</time></trkpt><trkpt lat="43.53676314584741" lon="10.815653248872433"><ele>170.39999999999998</ele><time>2026-04-18T08:41:31Z</time></trkpt><trkpt lat="43.53686820289943" lon="10.815653921992192"><ele>172.0</ele><time>2026-04-18T08:41:33Z</time></trkpt><trkpt lat="43.53696799073359" lon="10.81557952534517"><ele>172.0</ele><time>2026-04-18T08:41:35Z</time></trkpt><trkpt lat="43.53702473371358" lon="10.815540525688348"><ele>172.0</ele><time>2026-04-18T08:41:36Z</time></trkpt><trkpt lat="43.53705423006212" lon="10.81544999592425"><ele>172.0</ele><time>2026-04-18T08:41:37Z</time></trkpt><trkpt lat="43.53709694122792" lon="10.8153718694169"><ele>172.0</ele><time>2026-04-18T08:41:38Z</time></trkpt><trkpt lat="43.53713431837684" lon="10.815294693988834"><ele>172.0</ele><time>2026-04-18T08:41:39Z</time></trkpt><trkpt lat="43.537196624595445" lon="10.81515186993993"><ele>172.0</ele><time>2026-04-18T08:41:41Z</time></trkpt><trkpt lat="43.53723191159296" lon="10.815061418715265"><ele>170.0</ele><time>2026-04-18T08:41:43Z</time></trkpt><trkpt lat="43.53727593088312" lon="10.81499137433324"><ele>168.0</ele><time>2026-04-18T08:41:50Z</time></trkpt><trkpt lat="43.537243897351225" lon="10.81486040248569"><ele>166.0</ele><time>2026-04-18T08:41:52Z</time></trkpt><trkpt lat="43.53720281096746" lon="10.814703124026414"><ele>164.0</ele><time>2026-04-18T08:41:54Z</time></trkpt><trkpt lat="43.537178125770076" lon="10.81461115438652"><ele>162.0</ele><time>2026-04-18T08:41:55Z</time></trkpt><trkpt lat="43.53715889600176" lon="10.814510515361432"><ele>160.0</ele><time>2026-04-18T08:41:56Z</time></trkpt><trkpt lat="43.537151989693264" lon="10.814399151381537"><ele>161.4</ele><time>2026-04-18T08:41:57Z</time></trkpt><trkpt lat="43.53715557903057" lon="10.814280234443586"><ele>162.8</ele><time>2026-04-18T08:41:58Z</time></trkpt><trkpt lat="43.53717777600478" lon="10.814161289708657"><ele>164.2</ele><time>2026-04-18T08:41:59Z</time></trkpt><trkpt lat="43.537209524096106" lon="10.814041498062178"><ele>165.6</ele><time>2026-04-18T08:42:00Z</time></trkpt><trkpt lat="43.537267502809314" lon="10.81393831465589"><ele>167.0</ele><time>2026-04-18T08:42:01Z</time></trkpt><trkpt lat="43.537323090502746" lon="10.813829088525832"><ele>167.0</ele><time>2026-04-18T08:42:02Z</time></trkpt><trkpt lat="43.5373821431077" lon="10.813717293824986"><ele>167.0</ele><time>2026-04-18T08:42:03Z</time></trkpt><trkpt lat="43.53742847907769" lon="10.813588669153871"><ele>167.0</ele><time>2026-04-18T08:42:04Z</time></trkpt><trkpt lat="43.53748541544046" lon="10.813471194772264"><ele>167.0</ele><time>2026-04-18T08:42:05Z</time></trkpt><trkpt lat="43.53752698322498" lon="10.813350394761212"><ele>167.0</ele><time>2026-04-18T08:42:06Z</time></trkpt><trkpt lat="43.53755021081754" lon="10.813231960515008"><ele>168.66666666666666</ele><time>2026-04-18T08:42:07Z</time></trkpt><trkpt lat="43.53755060820373" lon="10.813111669380797"><ele>170.33333333333331</ele><time>2026-04-18T08:42:08Z</time></trkpt><trkpt lat="43.53752558367752" lon="10.812999196449379"><ele>172.0</ele><time>2026-04-18T08:42:09Z</time></trkpt><trkpt lat="43.53747895278846" lon="10.812891926410964"><ele>173.66666666666666</ele><time>2026-04-18T08:42:10Z</time></trkpt><trkpt lat="43.53741740456306" lon="10.812805284451157"><ele>175.33333333333334</ele><time>2026-04-18T08:42:11Z</time></trkpt><trkpt lat="43.53734210610837" lon="10.812743227880329"><ele>177.0</ele><time>2026-04-18T08:42:12Z</time></trkpt><trkpt lat="43.53726384294228" lon="10.812682152960615"><ele>176.6</ele><time>2026-04-18T08:42:13Z</time></trkpt><trkpt lat="43.53718417329241" lon="10.812613433067071"><ele>176.2</ele><time>2026-04-18T08:42:14Z</time></trkpt><trkpt lat="43.53710601491046" lon="10.812529767915738"><ele>175.8</ele><time>2026-04-18T08:42:15Z</time></trkpt><trkpt lat="43.53702785819621" lon="10.81243235442047"><ele>175.4</ele><time>2026-04-18T08:42:16Z</time></trkpt><trkpt lat="43.53695029623857" lon="10.812323942728845"><ele>175.0</ele><time>2026-04-18T08:42:17Z</time></trkpt><trkpt lat="43.53687132683175" lon="10.812204291659508"><ele>175.0</ele><time>2026-04-18T08:42:18Z</time></trkpt><trkpt lat="43.53679552848873" lon="10.812081952314553"><ele>175.0</ele><time>2026-04-18T08:42:19Z</time></trkpt><trkpt lat="43.53672226176106" lon="10.811960299586639"><ele>175.0</ele><time>2026-04-18T08:42:20Z</time></trkpt><trkpt lat="43.53665004997592" lon="10.811834398201432"><ele>175.0</ele><time>2026-04-18T08:42:21Z</time></trkpt><trkpt lat="43.53658249568736" lon="10.811706043623667"><ele>173.5</ele><time>2026-04-18T08:42:22Z</time></trkpt><trkpt lat="43.53652601918737" lon="10.811568824710864"><ele>172.0</ele><time>2026-04-18T08:42:23Z</time></trkpt><trkpt lat="43.536485311896364" lon="10.811422017010516"><ele>170.5</ele><time>2026-04-18T08:42:24Z</time></trkpt><trkpt lat="43.536455727024354" lon="10.811268956028128"><ele>169.0</ele><time>2026-04-18T08:42:25Z</time></trkpt><trkpt lat="43.53643778324603" lon="10.811109534812271"><ele>168.5</ele><time>2026-04-18T08:42:26Z</time></trkpt><trkpt lat="43.536430885788675" lon="10.81094356481159"><ele>168.0</ele><time>2026-04-18T08:42:27Z</time></trkpt><trkpt lat="43.5364328508158" lon="10.810774051788622"><ele>167.5</ele><time>2026-04-18T08:42:28Z</time></trkpt><trkpt lat="43.53643811403748" lon="10.810605141479222"><ele>167.0</ele><time>2026-04-18T08:42:29Z</time></trkpt><trkpt lat="43.536440917839485" lon="10.810448862354873"><ele>167.0</ele><time>2026-04-18T08:42:30Z</time></trkpt><trkpt lat="43.53643373777031" lon="10.810304686760771"><ele>167.0</ele><time>2026-04-18T08:42:31Z</time></trkpt><trkpt lat="43.53640252240345" lon="10.810166505558785"><ele>167.0</ele><time>2026-04-18T08:42:32Z</time></trkpt><trkpt lat="43.536350508790385" lon="10.810039617756948"><ele>167.0</ele><time>2026-04-18T08:42:33Z</time></trkpt><trkpt lat="43.536282556833086" lon="10.80992767701243"><ele>167.0</ele><time>2026-04-18T08:42:34Z</time></trkpt><trkpt lat="43.53621262256236" lon="10.809818121893562"><ele>167.6</ele><time>2026-04-18T08:42:35Z</time></trkpt><trkpt lat="43.53614702764625" lon="10.809700376414586"><ele>168.2</ele><time>2026-04-18T08:42:36Z</time></trkpt><trkpt lat="43.536096389494254" lon="10.809571494065832"><ele>168.8</ele><time>2026-04-18T08:42:37Z</time></trkpt><trkpt lat="43.53605928782536" lon="10.809431868149789"><ele>169.4</ele><time>2026-04-18T08:42:38Z</time></trkpt><trkpt lat="43.536027771438434" lon="10.809293599632072"><ele>170.0</ele><time>2026-04-18T08:42:39Z</time></trkpt><trkpt lat="43.536002464996805" lon="10.80916172062302"><ele>168.8</ele><time>2026-04-18T08:42:40Z</time></trkpt><trkpt lat="43.53598316669697" lon="10.809032300064054"><ele>167.6</ele><time>2026-04-18T08:42:41Z</time></trkpt><trkpt lat="43.53597725461505" lon="10.808897691238856"><ele>166.39999999999998</ele><time>2026-04-18T08:42:42Z</time></trkpt><trkpt lat="43.53598370584632" lon="10.808761364554835"><ele>165.2</ele><time>2026-04-18T08:42:43Z</time></trkpt><trkpt lat="43.536019472724945" lon="10.808631084449907"><ele>164.0</ele><time>2026-04-18T08:42:44Z</time></trkpt><trkpt lat="43.5360475598778" lon="10.808492932788818"><ele>163.39999999999998</ele><time>2026-04-18T08:42:45Z</time></trkpt><trkpt lat="43.536057772204465" lon="10.808345359142093"><ele>162.8</ele><time>2026-04-18T08:42:46Z</time></trkpt><trkpt lat="43.53608572521455" lon="10.808202036499768"><ele>162.2</ele><time>2026-04-18T08:42:47Z</time></trkpt><trkpt lat="43.53610849310086" lon="10.80805658100303"><ele>161.60000000000002</ele><time>2026-04-18T08:42:48Z</time></trkpt><trkpt lat="43.53613763994992" lon="10.807909315674857"><ele>161.0</ele><time>2026-04-18T08:42:49Z</time></trkpt><trkpt lat="43.536122556752055" lon="10.80775382571153"><ele>161.4</ele><time>2026-04-18T08:42:50Z</time></trkpt><trkpt lat="43.53612075828581" lon="10.807599983467954"><ele>161.8</ele><time>2026-04-18T08:42:51Z</time></trkpt><trkpt lat="43.53611543877208" lon="10.807445595748185"><ele>162.20000000000002</ele><time>2026-04-18T08:42:52Z</time></trkpt><trkpt lat="43.53610816078977" lon="10.807292034232002"><ele>162.60000000000002</ele><time>2026-04-18T08:42:53Z</time></trkpt><trkpt lat="43.53609871758359" lon="10.8071390384605"><ele>163.0</ele><time>2026-04-18T08:42:54Z</time></trkpt><trkpt lat="43.536085020357866" lon="10.80699120643464"><ele>163.0</ele><time>2026-04-18T08:42:55Z</time></trkpt><trkpt lat="43.53607166357902" lon="10.806846979856651"><ele>163.0</ele><time>2026-04-18T08:42:56.001Z</time></trkpt><trkpt lat="43.5360492248209" lon="10.806711636067522"><ele>163.0</ele><time>2026-04-18T08:42:57.001Z</time></trkpt><trkpt lat="43.53602355134964" lon="10.806580740855454"><ele>163.0</ele><time>2026-04-18T08:42:58.001Z</time></trkpt><trkpt lat="43.53600369703007" lon="10.8064526243385"><ele>163.0</ele><time>2026-04-18T08:42:59Z</time></trkpt><trkpt lat="43.53599061820143" lon="10.806323952834537"><ele>163.2</ele><time>2026-04-18T08:43:00Z</time></trkpt><trkpt lat="43.53599198645232" lon="10.806193288554615"><ele>163.4</ele><time>2026-04-18T08:43:01Z</time></trkpt><trkpt lat="43.53600509016795" lon="10.806064086302028"><ele>163.6</ele><time>2026-04-18T08:43:02Z</time></trkpt><trkpt lat="43.53602303299904" lon="10.80593250128035"><ele>163.79999999999998</ele><time>2026-04-18T08:43:03Z</time></trkpt><trkpt lat="43.53604554515889" lon="10.805794837078366"><ele>164.0</ele><time>2026-04-18T08:43:04Z</time></trkpt><trkpt lat="43.53607314014582" lon="10.8056549659627"><ele>164.0</ele><time>2026-04-18T08:43:05Z</time></trkpt><trkpt lat="43.53611101231978" lon="10.805515718181926"><ele>164.0</ele><time>2026-04-18T08:43:06Z</time></trkpt><trkpt lat="43.536174474054434" lon="10.805392056786143"><ele>164.0</ele><time>2026-04-18T08:43:07Z</time></trkpt><trkpt lat="43.53622687865046" lon="10.805259509225921"><ele>164.0</ele><time>2026-04-18T08:43:08Z</time></trkpt><trkpt lat="43.53627984346096" lon="10.805125543909886"><ele>164.0</ele><time>2026-04-18T08:43:09Z</time></trkpt><trkpt lat="43.536331019582754" lon="10.804990641043604"><ele>164.0</ele><time>2026-04-18T08:43:10Z</time></trkpt><trkpt lat="43.536381080313234" lon="10.80485470656255"><ele>164.0</ele><time>2026-04-18T08:43:11Z</time></trkpt><trkpt lat="43.53642998981219" lon="10.804717517149705"><ele>164.0</ele><time>2026-04-18T08:43:12Z</time></trkpt><trkpt lat="43.536476154115135" lon="10.804575502134128"><ele>164.0</ele><time>2026-04-18T08:43:13Z</time></trkpt><trkpt lat="43.53650698095107" lon="10.80442422448456"><ele>164.0</ele><time>2026-04-18T08:43:14Z</time></trkpt><trkpt lat="43.53654749215571" lon="10.804275620023835"><ele>162.5</ele><time>2026-04-18T08:43:15Z</time></trkpt><trkpt lat="43.53658301161065" lon="10.80412120196094"><ele>161.0</ele><time>2026-04-18T08:43:16Z</time></trkpt><trkpt lat="43.53661487366162" lon="10.803963331113074"><ele>159.5</ele><time>2026-04-18T08:43:17Z</time></trkpt><trkpt lat="43.53664250312049" lon="10.803802231616094"><ele>158.0</ele><time>2026-04-18T08:43:18Z</time></trkpt><trkpt lat="43.53666316684749" lon="10.803639477592279"><ele>157.5</ele><time>2026-04-18T08:43:19Z</time></trkpt><trkpt lat="43.53667994887257" lon="10.803474023282547"><ele>157.0</ele><time>2026-04-18T08:43:20Z</time></trkpt><trkpt lat="43.536694169553506" lon="10.803310873916812"><ele>156.5</ele><time>2026-04-18T08:43:21Z</time></trkpt><trkpt lat="43.53670582963551" lon="10.803148114638535"><ele>156.0</ele><time>2026-04-18T08:43:22Z</time></trkpt><trkpt lat="43.53671377085045" lon="10.802985315828455"><ele>156.0</ele><time>2026-04-18T08:43:23Z</time></trkpt><trkpt lat="43.536718206946496" lon="10.802821563538478"><ele>156.0</ele><time>2026-04-18T08:43:24Z</time></trkpt><trkpt lat="43.53672225349765" lon="10.802660823147177"><ele>156.0</ele><time>2026-04-18T08:43:25Z</time></trkpt><trkpt lat="43.53672863404664" lon="10.802503598237825"><ele>156.0</ele><time>2026-04-18T08:43:26Z</time></trkpt><trkpt lat="43.53673822110007" lon="10.802349726819292"><ele>156.8</ele><time>2026-04-18T08:43:27Z</time></trkpt><trkpt lat="43.53675350281156" lon="10.802200610991791"><ele>157.6</ele><time>2026-04-18T08:43:28Z</time></trkpt><trkpt lat="43.53677922022755" lon="10.802060226166276"><ele>158.4</ele><time>2026-04-18T08:43:29Z</time></trkpt><trkpt lat="43.53681539483577" lon="10.80192941745714"><ele>159.2</ele><time>2026-04-18T08:43:30Z</time></trkpt><trkpt lat="43.53685807904892" lon="10.801800420184138"><ele>160.0</ele><time>2026-04-18T08:43:31Z</time></trkpt><trkpt lat="43.53692476112403" lon="10.801689148679069"><ele>160.8</ele><time>2026-04-18T08:43:32Z</time></trkpt><trkpt lat="43.536981957537506" lon="10.801571645745703"><ele>161.6</ele><time>2026-04-18T08:43:33Z</time></trkpt><trkpt lat="43.53704877873561" lon="10.801472594444585"><ele>162.39999999999998</ele><time>2026-04-18T08:43:34Z</time></trkpt><trkpt lat="43.53712414194763" lon="10.801383535511693"><ele>163.2</ele><time>2026-04-18T08:43:35Z</time></trkpt><trkpt lat="43.53720352902516" lon="10.801309879906881"><ele>164.0</ele><time>2026-04-18T08:43:36Z</time></trkpt><trkpt lat="43.53728719547343" lon="10.801240111867505"><ele>164.0</ele><time>2026-04-18T08:43:37Z</time></trkpt><trkpt lat="43.53736861432193" lon="10.801172217988125"><ele>164.0</ele><time>2026-04-18T08:43:38Z</time></trkpt><trkpt lat="43.537447506440614" lon="10.80110069491306"><ele>164.0</ele><time>2026-04-18T08:43:39Z</time></trkpt><trkpt lat="43.537522571418876" lon="10.80102746745097"><ele>164.0</ele><time>2026-04-18T08:43:40Z</time></trkpt><trkpt lat="43.537595835402364" lon="10.80095042653965"><ele>164.0</ele><time>2026-04-18T08:43:41Z</time></trkpt><trkpt lat="43.53766586102266" lon="10.800869859959914"><ele>163.2</ele><time>2026-04-18T08:43:42Z</time></trkpt><trkpt lat="43.537733507292465" lon="10.800787869577661"><ele>162.39999999999998</ele><time>2026-04-18T08:43:43Z</time></trkpt><trkpt lat="43.53780098143353" lon="10.800704352290088"><ele>161.6</ele><time>2026-04-18T08:43:44Z</time></trkpt><trkpt lat="43.537868732642906" lon="10.800613615228066"><ele>160.8</ele><time>2026-04-18T08:43:45Z</time></trkpt><trkpt lat="43.537936703878366" lon="10.800522961029582"><ele>160.0</ele><time>2026-04-18T08:43:46Z</time></trkpt><trkpt lat="43.53800558390517" lon="10.800421904011072"><ele>160.0</ele><time>2026-04-18T08:43:47Z</time></trkpt><trkpt lat="43.538051586630615" lon="10.800290456446522"><ele>160.0</ele><time>2026-04-18T08:43:48Z</time></trkpt><trkpt lat="43.538106341973744" lon="10.800161378090104"><ele>160.0</ele><time>2026-04-18T08:43:49Z</time></trkpt><trkpt lat="43.53815994152399" lon="10.800020821572105"><ele>160.0</ele><time>2026-04-18T08:43:50Z</time></trkpt><trkpt lat="43.538214868387065" lon="10.799874347456555"><ele>160.0</ele><time>2026-04-18T08:43:51Z</time></trkpt><trkpt lat="43.538271364475044" lon="10.799725567517914"><ele>160.5</ele><time>2026-04-18T08:43:52Z</time></trkpt><trkpt lat="43.5383289785057" lon="10.799572974576304"><ele>161.0</ele><time>2026-04-18T08:43:53Z</time></trkpt><trkpt lat="43.53838695212807" lon="10.799420926449027"><ele>161.5</ele><time>2026-04-18T08:43:54Z</time></trkpt><trkpt lat="43.53844336330489" lon="10.799281844278333"><ele>162.0</ele><time>2026-04-18T08:43:55Z</time></trkpt><trkpt lat="43.53848613103464" lon="10.799135450875967"><ele>162.0</ele><time>2026-04-18T08:43:56Z</time></trkpt><trkpt lat="43.53852010731335" lon="10.79899351009447"><ele>162.0</ele><time>2026-04-18T08:43:57Z</time></trkpt><trkpt lat="43.53854314429236" lon="10.798850167237239"><ele>162.0</ele><time>2026-04-18T08:43:58Z</time></trkpt><trkpt lat="43.53855287948853" lon="10.798708362856972"><ele>162.0</ele><time>2026-04-18T08:43:59Z</time></trkpt><trkpt lat="43.53854720413842" lon="10.798566906908412"><ele>162.0</ele><time>2026-04-18T08:44:00Z</time></trkpt><trkpt lat="43.53853376471305" lon="10.798426857399472"><ele>161.0</ele><time>2026-04-18T08:44:01Z</time></trkpt><trkpt lat="43.538516908463826" lon="10.798284955823894"><ele>160.0</ele><time>2026-04-18T08:44:02Z</time></trkpt><trkpt lat="43.53849865680849" lon="10.798141325712892"><ele>159.0</ele><time>2026-04-18T08:44:03Z</time></trkpt><trkpt lat="43.53847937613038" lon="10.797995327859583"><ele>158.0</ele><time>2026-04-18T08:44:04Z</time></trkpt><trkpt lat="43.53845766415448" lon="10.797844919922559"><ele>157.0</ele><time>2026-04-18T08:44:05Z</time></trkpt><trkpt lat="43.53843472637131" lon="10.797693279958505"><ele>157.75</ele><time>2026-04-18T08:44:06Z</time></trkpt><trkpt lat="43.53841140769993" lon="10.79753892627088"><ele>158.5</ele><time>2026-04-18T08:44:07Z</time></trkpt><trkpt lat="43.53838807606698" lon="10.79738397165014"><ele>159.25</ele><time>2026-04-18T08:44:08Z</time></trkpt><trkpt lat="43.538364252801216" lon="10.797227765007037"><ele>160.0</ele><time>2026-04-18T08:44:09Z</time></trkpt><trkpt lat="43.538336633233364" lon="10.797074635508041"><ele>160.0</ele><time>2026-04-18T08:44:10Z</time></trkpt><trkpt lat="43.53829723238891" lon="10.796928735181508"><ele>160.0</ele><time>2026-04-18T08:44:11Z</time></trkpt><trkpt lat="43.53825340319926" lon="10.79678803923622"><ele>160.0</ele><time>2026-04-18T08:44:12Z</time></trkpt><trkpt lat="43.53821060297881" lon="10.796659001198325"><ele>160.0</ele><time>2026-04-18T08:44:13Z</time></trkpt><trkpt lat="43.53817487696268" lon="10.796535927940932"><ele>160.0</ele><time>2026-04-18T08:44:14Z</time></trkpt><trkpt lat="43.5381447505753" lon="10.796415096397494"><ele>161.33333333333334</ele><time>2026-04-18T08:44:15Z</time></trkpt><trkpt lat="43.53812282702176" lon="10.79629705678507"><ele>162.66666666666669</ele><time>2026-04-18T08:44:16Z</time></trkpt><trkpt lat="43.538116156433546" lon="10.796180906732259"><ele>164.0</ele><time>2026-04-18T08:44:17Z</time></trkpt><trkpt lat="43.53812758018758" lon="10.796071802557488"><ele>165.33333333333334</ele><time>2026-04-18T08:44:18Z</time></trkpt><trkpt lat="43.53815216880375" lon="10.795968993153442"><ele>166.66666666666666</ele><time>2026-04-18T08:44:19Z</time></trkpt><trkpt lat="43.53818254704706" lon="10.795872729846675"><ele>168.0</ele><time>2026-04-18T08:44:20Z</time></trkpt><trkpt lat="43.538229260734994" lon="10.795786079442061"><ele>169.0</ele><time>2026-04-18T08:44:21Z</time></trkpt><trkpt lat="43.538262166978065" lon="10.795698431785688"><ele>170.0</ele><time>2026-04-18T08:44:22Z</time></trkpt><trkpt lat="43.53828818507725" lon="10.795608514000396"><ele>171.0</ele><time>2026-04-18T08:44:23Z</time></trkpt><trkpt lat="43.538338022046744" lon="10.795546163908297"><ele>172.0</ele><time>2026-04-18T08:44:24Z</time></trkpt><trkpt lat="43.538400839385034" lon="10.795522526108037"><ele>173.0</ele><time>2026-04-18T08:44:25Z</time></trkpt><trkpt lat="43.5384580577525" lon="10.795484794556835"><ele>174.0</ele><time>2026-04-18T08:44:26Z</time></trkpt><trkpt lat="43.53850933259905" lon="10.7954272633027"><ele>175.0</ele><time>2026-04-18T08:44:27Z</time></trkpt><trkpt lat="43.53857084871396" lon="10.795389565233549"><ele>175.0</ele><time>2026-04-18T08:44:28Z</time></trkpt><trkpt lat="43.538633776102955" lon="10.795351938576543"><ele>175.0</ele><time>2026-04-18T08:44:29Z</time></trkpt><trkpt lat="43.53869589419896" lon="10.795310903176158"><ele>175.0</ele><time>2026-04-18T08:44:30Z</time></trkpt><trkpt lat="43.53875515409629" lon="10.795258198235153"><ele>175.0</ele><time>2026-04-18T08:44:31Z</time></trkpt><trkpt lat="43.53880991585375" lon="10.795194450730278"><ele>175.0</ele><time>2026-04-18T08:44:32Z</time></trkpt><trkpt lat="43.53885673588018" lon="10.79511961669011"><ele>175.0</ele><time>2026-04-18T08:44:33Z</time></trkpt><trkpt lat="43.538895221612364" lon="10.795035457799868"><ele>175.0</ele><time>2026-04-18T08:44:34Z</time></trkpt><trkpt lat="43.5389242738787" lon="10.794947224009192"><ele>175.57142857142858</ele><time>2026-04-18T08:44:35Z</time></trkpt><trkpt lat="43.53894665652074" lon="10.794854001019262"><ele>176.14285714285714</ele><time>2026-04-18T08:44:36Z</time></trkpt><trkpt lat="43.53896163254174" lon="10.794760326689373"><ele>176.71428571428572</ele><time>2026-04-18T08:44:37Z</time></trkpt><trkpt lat="43.53897374951647" lon="10.79467055576092"><ele>177.28571428571428</ele><time>2026-04-18T08:44:38Z</time></trkpt><trkpt lat="43.5389857487492" lon="10.794580569576375"><ele>177.85714285714286</ele><time>2026-04-18T08:44:39Z</time></trkpt><trkpt lat="43.5389979717803" lon="10.79448970349981"><ele>178.42857142857144</ele><time>2026-04-18T08:44:40Z</time></trkpt><trkpt lat="43.539010784321015" lon="10.794393152403169"><ele>179.0</ele><time>2026-04-18T08:44:41Z</time></trkpt><trkpt lat="43.5390256973191" lon="10.794294205042423"><ele>179.16666666666666</ele><time>2026-04-18T08:44:42Z</time></trkpt><trkpt lat="43.5390513405675" lon="10.794197290228233"><ele>179.33333333333331</ele><time>2026-04-18T08:44:43Z</time></trkpt><trkpt lat="43.53908756118126" lon="10.794114982089237"><ele>179.5</ele><time>2026-04-18T08:44:44Z</time></trkpt><trkpt lat="43.53913419897747" lon="10.794042314953876"><ele>179.66666666666666</ele><time>2026-04-18T08:44:45Z</time></trkpt><trkpt lat="43.53918553416207" lon="10.793984963653187"><ele>179.83333333333334</ele><time>2026-04-18T08:44:46Z</time></trkpt><trkpt lat="43.539279407765825" lon="10.793890697475568"><ele>180.0</ele><time>2026-04-18T08:44:48Z</time></trkpt><trkpt lat="43.53936495729198" lon="10.793801196942715"><ele>180.0</ele><time>2026-04-18T08:44:50Z</time></trkpt><trkpt lat="43.539437315244534" lon="10.793711531703403"><ele>180.0</ele><time>2026-04-18T08:44:52Z</time></trkpt><trkpt lat="43.53949728244459" lon="10.7936353577204"><ele>180.0</ele><time>2026-04-18T08:44:54Z</time></trkpt><trkpt lat="43.53954483149218" lon="10.793553845503661"><ele>180.0</ele><time>2026-04-18T08:44:56Z</time></trkpt><trkpt lat="43.5395771623418" lon="10.79345003215239"><ele>180.0</ele><time>2026-04-18T08:44:58Z</time></trkpt><trkpt lat="43.53959052783165" lon="10.793316638971081"><ele>180.0</ele><time>2026-04-18T08:45:00Z</time></trkpt><trkpt lat="43.53959788953614" lon="10.79320045546878"><ele>180.16666666666666</ele><time>2026-04-18T08:45:02Z</time></trkpt><trkpt lat="43.539601717223015" lon="10.793091840437619"><ele>180.33333333333334</ele><time>2026-04-18T08:45:04Z</time></trkpt><trkpt lat="43.53959754290741" lon="10.79298631147964"><ele>180.5</ele><time>2026-04-18T08:45:06Z</time></trkpt><trkpt lat="43.53956863383929" lon="10.792893797363664"><ele>180.66666666666669</ele><time>2026-04-18T08:45:09Z</time></trkpt><trkpt lat="43.5395365817147" lon="10.792805660063385"><ele>180.83333333333334</ele><time>2026-04-18T08:45:13Z</time></trkpt><trkpt lat="43.53949538963847" lon="10.792705586862306"><ele>181.0</ele><time>2026-04-18T08:45:17Z</time></trkpt><trkpt lat="43.539460875577774" lon="10.79262451020949"><ele>181.0</ele><time>2026-04-18T08:45:19Z</time></trkpt><trkpt lat="43.539418574300285" lon="10.792509544465059"><ele>181.0</ele><time>2026-04-18T08:45:21Z</time></trkpt><trkpt lat="43.53936267730757" lon="10.792375087113173"><ele>181.0</ele><time>2026-04-18T08:45:23Z</time></trkpt><trkpt lat="43.53929727528862" lon="10.792229083150659"><ele>181.0</ele><time>2026-04-18T08:45:25Z</time></trkpt><trkpt lat="43.539235855906206" lon="10.792083684480748"><ele>181.0</ele><time>2026-04-18T08:45:27Z</time></trkpt><trkpt lat="43.5391772240148" lon="10.791938313795988"><ele>181.0</ele><time>2026-04-18T08:45:29Z</time></trkpt><trkpt lat="43.53911980778671" lon="10.791794442463004"><ele>181.0</ele><time>2026-04-18T08:45:31Z</time></trkpt><trkpt lat="43.539064150927125" lon="10.791660248901543"><ele>181.0</ele><time>2026-04-18T08:45:33Z</time></trkpt><trkpt lat="43.53898957306479" lon="10.791520979182009"><ele>182.16666666666669</ele><time>2026-04-18T08:45:35Z</time></trkpt><trkpt lat="43.538938102808224" lon="10.791439463670038"><ele>183.33333333333334</ele><time>2026-04-18T08:45:36Z</time></trkpt><trkpt lat="43.53887984586537" lon="10.791356021300832"><ele>184.5</ele><time>2026-04-18T08:45:37Z</time></trkpt><trkpt lat="43.53881978551171" lon="10.79127006152569"><ele>185.66666666666666</ele><time>2026-04-18T08:45:38Z</time></trkpt><trkpt lat="43.538757048725486" lon="10.791181153383999"><ele>186.83333333333331</ele><time>2026-04-18T08:45:39Z</time></trkpt><trkpt lat="43.53869694922731" lon="10.791095703730356"><ele>188.0</ele><time>2026-04-18T08:45:40Z</time></trkpt><trkpt lat="43.5386431505178" lon="10.791018885242824"><ele>186.5</ele><time>2026-04-18T08:45:41Z</time></trkpt><trkpt lat="43.53859838839833" lon="10.790953560462"><ele>185.0</ele><time>2026-04-18T08:45:42Z</time></trkpt><trkpt lat="43.53854155263075" lon="10.79086902955533"><ele>183.5</ele><time>2026-04-18T08:45:44Z</time></trkpt><trkpt lat="43.538472575281354" lon="10.79080657402129"><ele>182.0</ele><time>2026-04-18T08:45:48Z</time></trkpt><trkpt lat="43.53839034350045" lon="10.790786241065225"><ele>180.5</ele><time>2026-04-18T08:45:50Z</time></trkpt><trkpt lat="43.538295356183646" lon="10.790721226226468"><ele>179.0</ele><time>2026-04-18T08:45:52Z</time></trkpt><trkpt lat="43.53817534371978" lon="10.790655473204302"><ele>179.00000000000003</ele><time>2026-04-18T08:45:54Z</time></trkpt><trkpt lat="43.53810643855353" lon="10.790629889172617"><ele>179.0</ele><time>2026-04-18T08:45:55Z</time></trkpt><trkpt lat="43.53803218742835" lon="10.790607363792203"><ele>179.0</ele><time>2026-04-18T08:45:56Z</time></trkpt><trkpt lat="43.53795606842815" lon="10.79059065597113"><ele>179.0</ele><time>2026-04-18T08:45:57Z</time></trkpt><trkpt lat="43.53788020414837" lon="10.790580078303492"><ele>179.0</ele><time>2026-04-18T08:45:58Z</time></trkpt><trkpt lat="43.5378050014437" lon="10.790575067130264"><ele>179.00000000000003</ele><time>2026-04-18T08:45:59Z</time></trkpt><trkpt lat="43.5377331981191" lon="10.79057510154851"><ele>179.0</ele><time>2026-04-18T08:46:00Z</time></trkpt><trkpt lat="43.53766041850894" lon="10.79058251521508"><ele>178.66666666666666</ele><time>2026-04-18T08:46:01Z</time></trkpt><trkpt lat="43.53758450798921" lon="10.79059824680455"><ele>178.33333333333331</ele><time>2026-04-18T08:46:02Z</time></trkpt><trkpt lat="43.537509198185106" lon="10.790623577686752"><ele>178.0</ele><time>2026-04-18T08:46:03Z</time></trkpt><trkpt lat="43.53743482597131" lon="10.79065387490586"><ele>177.66666666666666</ele><time>2026-04-18T08:46:04Z</time></trkpt><trkpt lat="43.537358399887054" lon="10.790686302871332"><ele>177.33333333333334</ele><time>2026-04-18T08:46:05Z</time></trkpt><trkpt lat="43.537282961282486" lon="10.790716502590099"><ele>177.0</ele><time>2026-04-18T08:46:06Z</time></trkpt><trkpt lat="43.5372089387495" lon="10.790747588422846"><ele>177.0</ele><time>2026-04-18T08:46:07Z</time></trkpt><trkpt lat="43.53713382489459" lon="10.790777748958602"><ele>177.0</ele><time>2026-04-18T08:46:08Z</time></trkpt><trkpt lat="43.53705967819869" lon="10.790794847367263"><ele>177.0</ele><time>2026-04-18T08:46:09Z</time></trkpt><trkpt lat="43.53698283756061" lon="10.79080463171521"><ele>177.0</ele><time>2026-04-18T08:46:10Z</time></trkpt><trkpt lat="43.536907739651596" lon="10.790808161022737"><ele>177.0</ele><time>2026-04-18T08:46:11Z</time></trkpt><trkpt lat="43.53683297608633" lon="10.79080384355734"><ele>177.0</ele><time>2026-04-18T08:46:12Z</time></trkpt><trkpt lat="43.536757851880395" lon="10.790791766993628"><ele>177.14285714285714</ele><time>2026-04-18T08:46:13Z</time></trkpt><trkpt lat="43.53668224381003" lon="10.790780188147457"><ele>177.28571428571428</ele><time>2026-04-18T08:46:14Z</time></trkpt><trkpt lat="43.53660447706111" lon="10.790777252315069"><ele>177.42857142857142</ele><time>2026-04-18T08:46:15Z</time></trkpt><trkpt lat="43.536527853582584" lon="10.790778945495315"><ele>177.57142857142856</ele><time>2026-04-18T08:46:16Z</time></trkpt><trkpt lat="43.536453662399076" lon="10.79078674073126"><ele>177.71428571428572</ele><time>2026-04-18T08:46:17Z</time></trkpt><trkpt lat="43.53638533207976" lon="10.790794914744508"><ele>177.85714285714283</ele><time>2026-04-18T08:46:18Z</time></trkpt><trkpt lat="43.53632173610662" lon="10.790807091510437"><ele>178.0</ele><time>2026-04-18T08:46:19Z</time></trkpt><trkpt lat="43.53620870256377" lon="10.790835889911166"><ele>178.0</ele><time>2026-04-18T08:46:21Z</time></trkpt><trkpt lat="43.53610246661561" lon="10.790840225354053"><ele>178.0</ele><time>2026-04-18T08:46:23Z</time></trkpt><trkpt lat="43.53599589194807" lon="10.790811607628724"><ele>178.0</ele><time>2026-04-18T08:46:25Z</time></trkpt><trkpt lat="43.5358945483534" lon="10.790745436848901"><ele>178.0</ele><time>2026-04-18T08:46:27Z</time></trkpt><trkpt lat="43.53578719281248" lon="10.790657321273919"><ele>178.0</ele><time>2026-04-18T08:46:29Z</time></trkpt><trkpt lat="43.53571905058653" lon="10.790600729156656"><ele>178.0</ele><time>2026-04-18T08:46:30Z</time></trkpt><trkpt lat="43.53564089565002" lon="10.79053526674242"><ele>178.0</ele><time>2026-04-18T08:46:31Z</time></trkpt><trkpt lat="43.53555446165042" lon="10.790463604599237"><ele>178.0</ele><time>2026-04-18T08:46:32Z</time></trkpt><trkpt lat="43.53546659922096" lon="10.790384729406023"><ele>178.0</ele><time>2026-04-18T08:46:33Z</time></trkpt><trkpt lat="43.53537485341003" lon="10.790308761141501"><ele>176.60000000000002</ele><time>2026-04-18T08:46:34Z</time></trkpt><trkpt lat="43.53528272378507" lon="10.790234670619975"><ele>175.20000000000002</ele><time>2026-04-18T08:46:35Z</time></trkpt><trkpt lat="43.53518978922555" lon="10.790163577762407"><ele>173.8</ele><time>2026-04-18T08:46:36Z</time></trkpt><trkpt lat="43.535101781483505" lon="10.790091735095231"><ele>172.4</ele><time>2026-04-18T08:46:37Z</time></trkpt><trkpt lat="43.535015606621585" lon="10.790021194248279"><ele>171.0</ele><time>2026-04-18T08:46:38Z</time></trkpt><trkpt lat="43.534934078914944" lon="10.789957191704929"><ele>171.0</ele><time>2026-04-18T08:46:39Z</time></trkpt><trkpt lat="43.53485613078447" lon="10.789898298897482"><ele>171.0</ele><time>2026-04-18T08:46:40Z</time></trkpt><trkpt lat="43.53477491869098" lon="10.789836865835117"><ele>171.0</ele><time>2026-04-18T08:46:41Z</time></trkpt><trkpt lat="43.53469420281121" lon="10.789776329761022"><ele>171.0</ele><time>2026-04-18T08:46:42Z</time></trkpt><trkpt lat="43.53461349821168" lon="10.789721409653758"><ele>171.0</ele><time>2026-04-18T08:46:43Z</time></trkpt><trkpt lat="43.5345384370297" lon="10.789666359525194"><ele>171.0</ele><time>2026-04-18T08:46:44Z</time></trkpt><trkpt lat="43.53446321577118" lon="10.789616932713368"><ele>170.83333333333334</ele><time>2026-04-18T08:46:45Z</time></trkpt><trkpt lat="43.534386903706796" lon="10.789571489505478"><ele>170.66666666666666</ele><time>2026-04-18T08:46:46Z</time></trkpt><trkpt lat="43.534310026219146" lon="10.789528320943942"><ele>170.5</ele><time>2026-04-18T08:46:47Z</time></trkpt><trkpt lat="43.534230914681686" lon="10.789481957270626"><ele>170.33333333333331</ele><time>2026-04-18T08:46:48Z</time></trkpt><trkpt lat="43.53414810942892" lon="10.789432470070588"><ele>170.16666666666666</ele><time>2026-04-18T08:46:49Z</time></trkpt><trkpt lat="43.53405704834201" lon="10.789381694231867"><ele>170.0</ele><time>2026-04-18T08:46:50Z</time></trkpt><trkpt lat="43.533965074472576" lon="10.789327181386803"><ele>170.0</ele><time>2026-04-18T08:46:51Z</time></trkpt><trkpt lat="43.53387819097585" lon="10.78924750812019"><ele>170.0</ele><time>2026-04-18T08:46:52Z</time></trkpt><trkpt lat="43.53377931760719" lon="10.789183733924604"><ele>170.0</ele><time>2026-04-18T08:46:53Z</time></trkpt><trkpt lat="43.53366495947835" lon="10.789144385427509"><ele>170.0</ele><time>2026-04-18T08:46:54Z</time></trkpt><trkpt lat="43.533555187522985" lon="10.789082651558319"><ele>168.0</ele><time>2026-04-18T08:46:55Z</time></trkpt><trkpt lat="43.533443749413465" lon="10.789020447912169"><ele>166.0</ele><time>2026-04-18T08:46:56Z</time></trkpt><trkpt lat="43.533329601932174" lon="10.788956705100697"><ele>164.0</ele><time>2026-04-18T08:46:57Z</time></trkpt><trkpt lat="43.53321496315827" lon="10.788888767271304"><ele>162.0</ele><time>2026-04-18T08:46:58Z</time></trkpt><trkpt lat="43.53309986145652" lon="10.78881846682787"><ele>162.0</ele><time>2026-04-18T08:46:59Z</time></trkpt><trkpt lat="43.532982673154414" lon="10.788749695994005"><ele>162.0</ele><time>2026-04-18T08:47:00Z</time></trkpt><trkpt lat="43.53286398688457" lon="10.78868125915129"><ele>162.0</ele><time>2026-04-18T08:47:01Z</time></trkpt><trkpt lat="43.532742976267215" lon="10.78861468783325"><ele>162.0</ele><time>2026-04-18T08:47:02Z</time></trkpt><trkpt lat="43.53262228068655" lon="10.78854985604007"><ele>160.75</ele><time>2026-04-18T08:47:03Z</time></trkpt><trkpt lat="43.53250006529443" lon="10.788483755026133"><ele>159.5</ele><time>2026-04-18T08:47:04Z</time></trkpt><trkpt lat="43.53238103187217" lon="10.788417205673184"><ele>158.25</ele><time>2026-04-18T08:47:05Z</time></trkpt><trkpt lat="43.532266863524555" lon="10.788354716863154"><ele>157.0</ele><time>2026-04-18T08:47:06Z</time></trkpt><trkpt lat="43.53216285174362" lon="10.788295102782847"><ele>157.0</ele><time>2026-04-18T08:47:07Z</time></trkpt><trkpt lat="43.532071181318315" lon="10.788236936844491"><ele>157.0</ele><time>2026-04-18T08:47:08Z</time></trkpt><trkpt lat="43.5319900222603" lon="10.788180566150006"><ele>157.0</ele><time>2026-04-18T08:47:09Z</time></trkpt><trkpt lat="43.53191326062747" lon="10.788121353938042"><ele>157.0</ele><time>2026-04-18T08:47:10Z</time></trkpt><trkpt lat="43.531845992125575" lon="10.788047343846914"><ele>157.0</ele><time>2026-04-18T08:47:11Z</time></trkpt><trkpt lat="43.53179064905139" lon="10.787962071614267"><ele>157.0</ele><time>2026-04-18T08:47:12Z</time></trkpt><trkpt lat="43.531738931936644" lon="10.787871323201017"><ele>156.2</ele><time>2026-04-18T08:47:13Z</time></trkpt><trkpt lat="43.53168497001806" lon="10.787778870468214"><ele>155.39999999999998</ele><time>2026-04-18T08:47:14Z</time></trkpt><trkpt lat="43.53162863847841" lon="10.787683509417079"><ele>154.60000000000002</ele><time>2026-04-18T08:47:15Z</time></trkpt><trkpt lat="43.53157023989502" lon="10.787585250873835"><ele>153.8</ele><time>2026-04-18T08:47:16Z</time></trkpt><trkpt lat="43.53150987681805" lon="10.787482118067562"><ele>153.0</ele><time>2026-04-18T08:47:17Z</time></trkpt><trkpt lat="43.531451796783145" lon="10.787379375841997"><ele>153.0</ele><time>2026-04-18T08:47:18Z</time></trkpt><trkpt lat="43.53139601514091" lon="10.787280338863416"><ele>153.0</ele><time>2026-04-18T08:47:19Z</time></trkpt><trkpt lat="43.53133519989764" lon="10.787178905622124"><ele>153.0</ele><time>2026-04-18T08:47:19.999Z</time></trkpt><trkpt lat="43.531275505643116" lon="10.78707823359704"><ele>153.0</ele><time>2026-04-18T08:47:20.999Z</time></trkpt><trkpt lat="43.53121642804625" lon="10.786977680528617"><ele>153.0</ele><time>2026-04-18T08:47:21.999Z</time></trkpt><trkpt lat="43.53115986858547" lon="10.786884832816119"><ele>151.0</ele><time>2026-04-18T08:47:22.999Z</time></trkpt><trkpt lat="43.53110516020713" lon="10.786797446485327"><ele>149.0</ele><time>2026-04-18T08:47:23.999Z</time></trkpt><trkpt lat="43.53105309233734" lon="10.786718255634126"><ele>147.0</ele><time>2026-04-18T08:47:24.999Z</time></trkpt><trkpt lat="43.53099663056525" lon="10.78664030624668"><ele>145.0</ele><time>2026-04-18T08:47:25.999Z</time></trkpt><trkpt lat="43.53093978749941" lon="10.786562407537263"><ele>143.0</ele><time>2026-04-18T08:47:26.999Z</time></trkpt><trkpt lat="43.53088119912145" lon="10.78648491925526"><ele>141.0</ele><time>2026-04-18T08:47:27.999Z</time></trkpt><trkpt lat="43.530823315370675" lon="10.786406268135863"><ele>141.0</ele><time>2026-04-18T08:47:28.999Z</time></trkpt><trkpt lat="43.53076795848193" lon="10.786329689056167"><ele>141.0</ele><time>2026-04-18T08:47:29.999Z</time></trkpt><trkpt lat="43.53071704228039" lon="10.786255802281884"><ele>141.0</ele><time>2026-04-18T08:47:30.999Z</time></trkpt><trkpt lat="43.530675444218126" lon="10.78618780236676"><ele>141.0</ele><time>2026-04-18T08:47:32Z</time></trkpt><trkpt lat="43.53064031683904" lon="10.786058978383757"><ele>141.0</ele><time>2026-04-18T08:47:34Z</time></trkpt><trkpt lat="43.530670595834835" lon="10.785908506672653"><ele>141.0</ele><time>2026-04-18T08:47:36Z</time></trkpt><trkpt lat="43.53070336778171" lon="10.78583040926873"><ele>141.5</ele><time>2026-04-18T08:47:37Z</time></trkpt><trkpt lat="43.53073843757356" lon="10.785744858661603"><ele>142.0</ele><time>2026-04-18T08:47:38Z</time></trkpt><trkpt lat="43.53077571950028" lon="10.785643884396421"><ele>142.5</ele><time>2026-04-18T08:47:39Z</time></trkpt><trkpt lat="43.53081310192736" lon="10.78554646531694"><ele>143.0</ele><time>2026-04-18T08:47:40Z</time></trkpt><trkpt lat="43.53084615011723" lon="10.785449646549129"><ele>143.5</ele><time>2026-04-18T08:47:41Z</time></trkpt><trkpt lat="43.53087333287268" lon="10.785353730758114"><ele>144.0</ele><time>2026-04-18T08:47:42Z</time></trkpt><trkpt lat="43.530891247602916" lon="10.785266284280283"><ele>143.2857142857143</ele><time>2026-04-18T08:47:43Z</time></trkpt><trkpt lat="43.530897782703796" lon="10.785175095755731"><ele>142.57142857142858</ele><time>2026-04-18T08:47:44Z</time></trkpt><trkpt lat="43.530890328088645" lon="10.785077721731062"><ele>141.85714285714286</ele><time>2026-04-18T08:47:45Z</time></trkpt><trkpt lat="43.53087309573523" lon="10.784978607243817"><ele>141.14285714285717</ele><time>2026-04-18T08:47:46Z</time></trkpt><trkpt lat="43.53084978605699" lon="10.78487841391753"><ele>140.42857142857144</ele><time>2026-04-18T08:47:47Z</time></trkpt><trkpt lat="43.53082344988492" lon="10.784778748514409"><ele>139.71428571428572</ele><time>2026-04-18T08:47:48Z</time></trkpt><trkpt lat="43.53079705014891" lon="10.784679378999636"><ele>139.0</ele><time>2026-04-18T08:47:49Z</time></trkpt><trkpt lat="43.530768540394156" lon="10.784578721767907"><ele>139.0</ele><time>2026-04-18T08:47:50Z</time></trkpt><trkpt lat="43.53074045981559" lon="10.784478197427282"><ele>139.0</ele><time>2026-04-18T08:47:51Z</time></trkpt><trkpt lat="43.53071150927861" lon="10.78438293585036"><ele>139.0</ele><time>2026-04-18T08:47:52Z</time></trkpt><trkpt lat="43.53067964042923" lon="10.784294495809547"><ele>139.0</ele><time>2026-04-18T08:47:53Z</time></trkpt><trkpt lat="43.53062594127679" lon="10.78415900426133"><ele>139.0</ele><time>2026-04-18T08:47:55Z</time></trkpt><trkpt lat="43.53053553109512" lon="10.784080099450902"><ele>139.0</ele><time>2026-04-18T08:47:57Z</time></trkpt><trkpt lat="43.53041980970096" lon="10.784154880381575"><ele>138.42857142857142</ele><time>2026-04-18T08:47:59Z</time></trkpt><trkpt lat="43.53036438787496" lon="10.78422212764427"><ele>137.85714285714286</ele><time>2026-04-18T08:48:00Z</time></trkpt><trkpt lat="43.53030946552859" lon="10.784286948322206"><ele>137.28571428571428</ele><time>2026-04-18T08:48:01Z</time></trkpt><trkpt lat="43.530247853280585" lon="10.784330828117147"><ele>136.71428571428572</ele><time>2026-04-18T08:48:02Z</time></trkpt><trkpt lat="43.530187808337956" lon="10.784406474580083"><ele>136.14285714285714</ele><time>2026-04-18T08:48:03Z</time></trkpt><trkpt lat="43.5301338601571" lon="10.784483881697856"><ele>135.57142857142856</ele><time>2026-04-18T08:48:04Z</time></trkpt><trkpt lat="43.530082054734926" lon="10.784553255559217"><ele>135.0</ele><time>2026-04-18T08:48:05Z</time></trkpt><trkpt lat="43.53000183416816" lon="10.784671942032128"><ele>135.0</ele><time>2026-04-18T08:48:07Z</time></trkpt><trkpt lat="43.529941314212834" lon="10.784701445289427"><ele>135.0</ele><time>2026-04-18T08:48:08Z</time></trkpt><trkpt lat="43.529871375613666" lon="10.784726167351787"><ele>135.0</ele><time>2026-04-18T08:48:09Z</time></trkpt><trkpt lat="43.52979624073204" lon="10.784741526701145"><ele>135.0</ele><time>2026-04-18T08:48:10Z</time></trkpt><trkpt lat="43.52971192480965" lon="10.784753203300694"><ele>135.0</ele><time>2026-04-18T08:48:11Z</time></trkpt><trkpt lat="43.52962434881152" lon="10.784757243442526"><ele>135.0</ele><time>2026-04-18T08:48:12Z</time></trkpt><trkpt lat="43.5295330495423" lon="10.784757126338828"><ele>130.6</ele><time>2026-04-18T08:48:13Z</time></trkpt><trkpt lat="43.529439236302366" lon="10.784727013385352"><ele>126.2</ele><time>2026-04-18T08:48:14Z</time></trkpt><trkpt lat="43.529338585153646" lon="10.78471419352354"><ele>121.80000000000001</ele><time>2026-04-18T08:48:15Z</time></trkpt><trkpt lat="43.529235123635786" lon="10.784697095367765"><ele>117.4</ele><time>2026-04-18T08:48:16Z</time></trkpt><trkpt lat="43.529127880266145" lon="10.784675002695913"><ele>113.0</ele><time>2026-04-18T08:48:17Z</time></trkpt><trkpt lat="43.529017864262364" lon="10.784651652567604"><ele>112.99999999999999</ele><time>2026-04-18T08:48:18Z</time></trkpt><trkpt lat="43.528909154571245" lon="10.784626838737276"><ele>113.0</ele><time>2026-04-18T08:48:19Z</time></trkpt><trkpt lat="43.52881158284104" lon="10.784603643043848"><ele>113.0</ele><time>2026-04-18T08:48:20Z</time></trkpt><trkpt lat="43.52872382239206" lon="10.784612344839232"><ele>113.0</ele><time>2026-04-18T08:48:21Z</time></trkpt><trkpt lat="43.52864730391368" lon="10.784583914522377"><ele>112.99999999999999</ele><time>2026-04-18T08:48:22Z</time></trkpt><trkpt lat="43.52857466485161" lon="10.784587852100694"><ele>113.0</ele><time>2026-04-18T08:48:23Z</time></trkpt><trkpt lat="43.52850523056881" lon="10.784628877362136"><ele>110.99999999999999</ele><time>2026-04-18T08:48:24Z</time></trkpt><trkpt lat="43.52842815541185" lon="10.784630987282636"><ele>109.0</ele><time>2026-04-18T08:48:25Z</time></trkpt><trkpt lat="43.52834531598001" lon="10.78465458662753"><ele>107.0</ele><time>2026-04-18T08:48:26Z</time></trkpt><trkpt lat="43.52826197513268" lon="10.784672161956909"><ele>105.0</ele><time>2026-04-18T08:48:27Z</time></trkpt><trkpt lat="43.52818117909876" lon="10.784683930096696"><ele>102.99999999999999</ele><time>2026-04-18T08:48:28Z</time></trkpt><trkpt lat="43.52809856380199" lon="10.784684328264417"><ele>101.0</ele><time>2026-04-18T08:48:29Z</time></trkpt><trkpt lat="43.528013052756215" lon="10.784674249708557"><ele>101.0</ele><time>2026-04-18T08:48:30Z</time></trkpt><trkpt lat="43.52792093552732" lon="10.784662055673635"><ele>101.0</ele><time>2026-04-18T08:48:31Z</time></trkpt><trkpt lat="43.52782799422267" lon="10.784647299335822"><ele>101.0</ele><time>2026-04-18T08:48:32Z</time></trkpt><trkpt lat="43.527731590288994" lon="10.784633361058223"><ele>101.0</ele><time>2026-04-18T08:48:33Z</time></trkpt><trkpt lat="43.527643890059274" lon="10.784621051157675"><ele>101.0</ele><time>2026-04-18T08:48:34Z</time></trkpt><trkpt lat="43.5275565085789" lon="10.784594722776411"><ele>99.66666666666666</ele><time>2026-04-18T08:48:35Z</time></trkpt><trkpt lat="43.52747772202462" lon="10.784552887280427"><ele>98.33333333333333</ele><time>2026-04-18T08:48:36Z</time></trkpt><trkpt lat="43.527407041636714" lon="10.784502083776012"><ele>97.0</ele><time>2026-04-18T08:48:37Z</time></trkpt><trkpt lat="43.527330126320756" lon="10.78445794949641"><ele>95.66666666666666</ele><time>2026-04-18T08:48:38Z</time></trkpt><trkpt lat="43.52726994097372" lon="10.784373377046444"><ele>94.33333333333333</ele><time>2026-04-18T08:48:39Z</time></trkpt><trkpt lat="43.527219931897484" lon="10.784279533385096"><ele>93.0</ele><time>2026-04-18T08:48:40Z</time></trkpt><trkpt lat="43.52719084067761" lon="10.78417617703515"><ele>93.0</ele><time>2026-04-18T08:48:41Z</time></trkpt><trkpt lat="43.5271442432128" lon="10.7840836724251"><ele>93.0</ele><time>2026-04-18T08:48:42Z</time></trkpt><trkpt lat="43.527082367221496" lon="10.784004603940993"><ele>93.0</ele><time>2026-04-18T08:48:43Z</time></trkpt><trkpt lat="43.52703086000658" lon="10.783906958042076"><ele>93.0</ele><time>2026-04-18T08:48:44Z</time></trkpt><trkpt lat="43.52697379564838" lon="10.78381095757916"><ele>93.0</ele><time>2026-04-18T08:48:45Z</time></trkpt><trkpt lat="43.52691526223647" lon="10.783712552090629"><ele>93.0</ele><time>2026-04-18T08:48:46Z</time></trkpt><trkpt lat="43.52685438960752" lon="10.783613585239445"><ele>92.66666666666667</ele><time>2026-04-18T08:48:47Z</time></trkpt><trkpt lat="43.52679485998203" lon="10.783514680888507"><ele>92.33333333333333</ele><time>2026-04-18T08:48:48Z</time></trkpt><trkpt lat="43.52674051326776" lon="10.78342176222277"><ele>92.0</ele><time>2026-04-18T08:48:49Z</time></trkpt><trkpt lat="43.526692826291075" lon="10.783328679010898"><ele>91.66666666666666</ele><time>2026-04-18T08:48:50Z</time></trkpt><trkpt lat="43.52664612897548" lon="10.783235877612773"><ele>91.33333333333333</ele><time>2026-04-18T08:48:51Z</time></trkpt><trkpt lat="43.52660388873302" lon="10.783137102567139"><ele>91.0</ele><time>2026-04-18T08:48:52Z</time></trkpt><trkpt lat="43.52656473551834" lon="10.783032100574477"><ele>90.19999999999999</ele><time>2026-04-18T08:48:53Z</time></trkpt><trkpt lat="43.526529144371594" lon="10.78292358868127"><ele>89.39999999999999</ele><time>2026-04-18T08:48:54Z</time></trkpt><trkpt lat="43.52649479385617" lon="10.782811314895577"><ele>88.6</ele><time>2026-04-18T08:48:55Z</time></trkpt><trkpt lat="43.526459248642475" lon="10.782697734840104"><ele>87.8</ele><time>2026-04-18T08:48:56Z</time></trkpt><trkpt lat="43.52642276688405" lon="10.782581568439031"><ele>87.0</ele><time>2026-04-18T08:48:57Z</time></trkpt><trkpt lat="43.52638469878002" lon="10.782459560930656"><ele>84.75</ele><time>2026-04-18T08:48:58Z</time></trkpt><trkpt lat="43.526341770225486" lon="10.782325053938921"><ele>82.5</ele><time>2026-04-18T08:48:59Z</time></trkpt><trkpt lat="43.52629723929522" lon="10.78218136821818"><ele>80.25</ele><time>2026-04-18T08:49:00Z</time></trkpt><trkpt lat="43.526250754483314" lon="10.782032323866735"><ele>78.0</ele><time>2026-04-18T08:49:01Z</time></trkpt><trkpt lat="43.52620679497725" lon="10.781882299944623"><ele>76.2</ele><time>2026-04-18T08:49:02Z</time></trkpt><trkpt lat="43.526162433982336" lon="10.781728830705097"><ele>74.4</ele><time>2026-04-18T08:49:03Z</time></trkpt><trkpt lat="43.52612276223257" lon="10.781585335357944"><ele>72.60000000000001</ele><time>2026-04-18T08:49:04Z</time></trkpt><trkpt lat="43.52608824324946" lon="10.781460708228476"><ele>70.8</ele><time>2026-04-18T08:49:05Z</time></trkpt><trkpt lat="43.52605883541065" lon="10.781355656289618"><ele>69.0</ele><time>2026-04-18T08:49:06Z</time></trkpt><trkpt lat="43.526034413057275" lon="10.781274153351646"><ele>69.0</ele><time>2026-04-18T08:49:07Z</time></trkpt><trkpt lat="43.52599893480523" lon="10.781198403174375"><ele>69.0</ele><time>2026-04-18T08:49:09Z</time></trkpt><trkpt lat="43.52585047527081" lon="10.781280885421712"><ele>69.0</ele><time>2026-04-18T08:49:14Z</time></trkpt><trkpt lat="43.5257980538138" lon="10.781339255230215"><ele>69.0</ele><time>2026-04-18T08:49:15Z</time></trkpt><trkpt lat="43.52573943992239" lon="10.781400312743877"><ele>69.0</ele><time>2026-04-18T08:49:16Z</time></trkpt><trkpt lat="43.52567461437919" lon="10.781466049110945"><ele>69.0</ele><time>2026-04-18T08:49:17Z</time></trkpt><trkpt lat="43.525604368599105" lon="10.781538836454656"><ele>69.0</ele><time>2026-04-18T08:49:18Z</time></trkpt><trkpt lat="43.525529785276234" lon="10.781613221407069"><ele>69.0</ele><time>2026-04-18T08:49:19Z</time></trkpt><trkpt lat="43.525450644099415" lon="10.781690758046302"><ele>69.0</ele><time>2026-04-18T08:49:20Z</time></trkpt><trkpt lat="43.525369072152436" lon="10.78177213997982"><ele>69.0</ele><time>2026-04-18T08:49:21Z</time></trkpt><trkpt lat="43.525283928651305" lon="10.781856242826853"><ele>69.0</ele><time>2026-04-18T08:49:22Z</time></trkpt><trkpt lat="43.52519571600154" lon="10.781942962846008"><ele>69.4</ele><time>2026-04-18T08:49:23Z</time></trkpt><trkpt lat="43.5251052201039" lon="10.782028658553132"><ele>69.80000000000001</ele><time>2026-04-18T08:49:24Z</time></trkpt><trkpt lat="43.52501517108214" lon="10.78212196691757"><ele>70.19999999999999</ele><time>2026-04-18T08:49:25Z</time></trkpt><trkpt lat="43.52492628819189" lon="10.782216832538621"><ele>70.6</ele><time>2026-04-18T08:49:26Z</time></trkpt><trkpt lat="43.52483599899909" lon="10.78230891889112"><ele>71.0</ele><time>2026-04-18T08:49:27Z</time></trkpt><trkpt lat="43.52475500606232" lon="10.782416459710316"><ele>71.0</ele><time>2026-04-18T08:49:28Z</time></trkpt><trkpt lat="43.524682265902534" lon="10.782535289474895"><ele>71.0</ele><time>2026-04-18T08:49:29Z</time></trkpt><trkpt lat="43.52461464589756" lon="10.782659587211237"><ele>71.0</ele><time>2026-04-18T08:49:30Z</time></trkpt><trkpt lat="43.524554999918564" lon="10.782793303026862"><ele>71.0</ele><time>2026-04-18T08:49:31Z</time></trkpt><trkpt lat="43.52449220530993" lon="10.782928044938693"><ele>69.5</ele><time>2026-04-18T08:49:32Z</time></trkpt><trkpt lat="43.524431347350045" lon="10.783067010927136"><ele>68.0</ele><time>2026-04-18T08:49:33Z</time></trkpt><trkpt lat="43.52436957538324" lon="10.7832066642942"><ele>66.5</ele><time>2026-04-18T08:49:34Z</time></trkpt><trkpt lat="43.52430522063547" lon="10.783344971871957"><ele>65.0</ele><time>2026-04-18T08:49:35Z</time></trkpt><trkpt lat="43.52424447950916" lon="10.783480606061193"><ele>65.0</ele><time>2026-04-18T08:49:36Z</time></trkpt><trkpt lat="43.52418490046074" lon="10.783614170516593"><ele>65.0</ele><time>2026-04-18T08:49:37Z</time></trkpt><trkpt lat="43.52412428633872" lon="10.783745543554565"><ele>65.0</ele><time>2026-04-18T08:49:38Z</time></trkpt><trkpt lat="43.52406552356558" lon="10.783878744157647"><ele>65.0</ele><time>2026-04-18T08:49:39Z</time></trkpt><trkpt lat="43.52400163149658" lon="10.784007600544474"><ele>65.0</ele><time>2026-04-18T08:49:40Z</time></trkpt><trkpt lat="43.523934595464766" lon="10.784130786397125"><ele>65.0</ele><time>2026-04-18T08:49:41Z</time></trkpt><trkpt lat="43.52386465822025" lon="10.784246453849095"><ele>65.0</ele><time>2026-04-18T08:49:42Z</time></trkpt><trkpt lat="43.52377875896188" lon="10.784342851091802"><ele>65.0</ele><time>2026-04-18T08:49:43Z</time></trkpt><trkpt lat="43.523685580840684" lon="10.784431951580935"><ele>65.0</ele><time>2026-04-18T08:49:44Z</time></trkpt><trkpt lat="43.523585922006305" lon="10.784505236790016"><ele>66.0</ele><time>2026-04-18T08:49:45Z</time></trkpt><trkpt lat="43.523482705286916" lon="10.784575746116557"><ele>67.0</ele><time>2026-04-18T08:49:46Z</time></trkpt><trkpt lat="43.523373507535744" lon="10.784641541073404"><ele>68.0</ele><time>2026-04-18T08:49:47Z</time></trkpt><trkpt lat="43.52326428113098" lon="10.784707098887122"><ele>69.0</ele><time>2026-04-18T08:49:48Z</time></trkpt><trkpt lat="43.523154868476794" lon="10.784773045084384"><ele>69.0</ele><time>2026-04-18T08:49:49Z</time></trkpt><trkpt lat="43.52304467341003" lon="10.784837699916118"><ele>69.0</ele><time>2026-04-18T08:49:50Z</time></trkpt><trkpt lat="43.522936731885906" lon="10.784903503049524"><ele>69.0</ele><time>2026-04-18T08:49:51Z</time></trkpt><trkpt lat="43.52283373053699" lon="10.784964427319908"><ele>69.0</ele><time>2026-04-18T08:49:52Z</time></trkpt><trkpt lat="43.52273630941873" lon="10.78502235646543"><ele>69.0</ele><time>2026-04-18T08:49:53Z</time></trkpt><trkpt lat="43.52255968146152" lon="10.785126268543282"><ele>69.0</ele><time>2026-04-18T08:49:55Z</time></trkpt><trkpt lat="43.52248224458944" lon="10.7851733901991"><ele>69.0</ele><time>2026-04-18T08:49:56Z</time></trkpt><trkpt lat="43.52242042750989" lon="10.785210247927674"><ele>69.0</ele><time>2026-04-18T08:49:57Z</time></trkpt><trkpt lat="43.52235374739365" lon="10.785249629771357"><ele>69.0</ele><time>2026-04-18T08:49:59Z</time></trkpt><trkpt lat="43.52243759281182" lon="10.785446230249523"><ele>69.0</ele><time>2026-04-18T08:50:01Z</time></trkpt><trkpt lat="43.52251039483939" lon="10.785584878333273"><ele>69.0</ele><time>2026-04-18T08:50:03Z</time></trkpt><trkpt lat="43.522533776868706" lon="10.78566689589416"><ele>69.0</ele><time>2026-04-18T08:50:04Z</time></trkpt><trkpt lat="43.522543787390156" lon="10.785763069484625"><ele>69.0</ele><time>2026-04-18T08:50:05Z</time></trkpt><trkpt lat="43.52254846358922" lon="10.785866599807584"><ele>69.0</ele><time>2026-04-18T08:50:06Z</time></trkpt><trkpt lat="43.522551807894345" lon="10.785979214212615"><ele>69.0</ele><time>2026-04-18T08:50:07Z</time></trkpt><trkpt lat="43.52255398378178" lon="10.786086970825718"><ele>69.14285714285714</ele><time>2026-04-18T08:50:08Z</time></trkpt><trkpt lat="43.52255599881286" lon="10.786195083185534"><ele>69.28571428571429</ele><time>2026-04-18T08:50:09Z</time></trkpt><trkpt lat="43.522558744471546" lon="10.786299895112775"><ele>69.42857142857143</ele><time>2026-04-18T08:50:10Z</time></trkpt><trkpt lat="43.52256235210117" lon="10.786396691733477"><ele>69.57142857142857</ele><time>2026-04-18T08:50:11Z</time></trkpt><trkpt lat="43.52256666003735" lon="10.7864900416716"><ele>69.71428571428572</ele><time>2026-04-18T08:50:12Z</time></trkpt><trkpt lat="43.522572998474594" lon="10.786580486134502"><ele>69.85714285714286</ele><time>2026-04-18T08:50:13Z</time></trkpt><trkpt lat="43.52258245073577" lon="10.786672880322968"><ele>70.0</ele><time>2026-04-18T08:50:14Z</time></trkpt><trkpt lat="43.52260866690813" lon="10.786771260657186"><ele>70.33333333333333</ele><time>2026-04-18T08:50:15Z</time></trkpt><trkpt lat="43.52260570110944" lon="10.786881562643316"><ele>70.66666666666666</ele><time>2026-04-18T08:50:16Z</time></trkpt><trkpt lat="43.522621092255164" lon="10.786993301755677"><ele>71.0</ele><time>2026-04-18T08:50:17Z</time></trkpt><trkpt lat="43.52264077115236" lon="10.787107781111978"><ele>71.33333333333333</ele><time>2026-04-18T08:50:18Z</time></trkpt><trkpt lat="43.522661966159426" lon="10.787222933884635"><ele>71.66666666666667</ele><time>2026-04-18T08:50:19Z</time></trkpt><trkpt lat="43.5226938225278" lon="10.787336699702463"><ele>72.0</ele><time>2026-04-18T08:50:20Z</time></trkpt><trkpt lat="43.522699506894384" lon="10.787462615539761"><ele>72.0</ele><time>2026-04-18T08:50:21Z</time></trkpt><trkpt lat="43.52271593278079" lon="10.78758536781515"><ele>72.0</ele><time>2026-04-18T08:50:22Z</time></trkpt><trkpt lat="43.522731174500386" lon="10.787700531535167"><ele>72.0</ele><time>2026-04-18T08:50:23Z</time></trkpt><trkpt lat="43.52276074725634" lon="10.787802516203078"><ele>72.0</ele><time>2026-04-18T08:50:24Z</time></trkpt><trkpt lat="43.5227788872571" lon="10.787959295478284"><ele>72.0</ele><time>2026-04-18T08:50:26Z</time></trkpt><trkpt lat="43.52279693176916" lon="10.78808856514883"><ele>72.33333333333333</ele><time>2026-04-18T08:50:28Z</time></trkpt><trkpt lat="43.52281527274116" lon="10.788217547352303"><ele>72.66666666666667</ele><time>2026-04-18T08:50:30Z</time></trkpt><trkpt lat="43.52283336433397" lon="10.788355139413207"><ele>73.0</ele><time>2026-04-18T08:50:32Z</time></trkpt><trkpt lat="43.52285702959209" lon="10.788508410967827"><ele>73.33333333333334</ele><time>2026-04-18T08:50:34Z</time></trkpt><trkpt lat="43.522870038674924" lon="10.788595400604391"><ele>73.66666666666667</ele><time>2026-04-18T08:50:35Z</time></trkpt><trkpt lat="43.522880540631476" lon="10.788691615826668"><ele>74.0</ele><time>2026-04-18T08:50:36Z</time></trkpt><trkpt lat="43.52290021621973" lon="10.788791868920173"><ele>75.66666666666667</ele><time>2026-04-18T08:50:37Z</time></trkpt><trkpt lat="43.522900616635205" lon="10.788905104699516"><ele>77.33333333333334</ele><time>2026-04-18T08:50:38Z</time></trkpt><trkpt lat="43.522928221286385" lon="10.789012495917248"><ele>79.0</ele><time>2026-04-18T08:50:39Z</time></trkpt><trkpt lat="43.522943451155655" lon="10.789121157374575"><ele>80.66666666666667</ele><time>2026-04-18T08:50:40Z</time></trkpt><trkpt lat="43.52296087174764" lon="10.78922976947582"><ele>82.33333333333333</ele><time>2026-04-18T08:50:41Z</time></trkpt><trkpt lat="43.52297822638546" lon="10.78933702604393"><ele>84.0</ele><time>2026-04-18T08:50:42Z</time></trkpt><trkpt lat="43.52299348062166" lon="10.789445483172985"><ele>85.0</ele><time>2026-04-18T08:50:43Z</time></trkpt><trkpt lat="43.52299325543238" lon="10.789556490726754"><ele>86.0</ele><time>2026-04-18T08:50:44Z</time></trkpt><trkpt lat="43.52301267921121" lon="10.789657014785671"><ele>87.0</ele><time>2026-04-18T08:50:45Z</time></trkpt><trkpt lat="43.52303562423988" lon="10.789749817846321"><ele>88.0</ele><time>2026-04-18T08:50:46Z</time></trkpt><trkpt lat="43.52307151022757" lon="10.789895964078962"><ele>89.0</ele><time>2026-04-18T08:50:48Z</time></trkpt><trkpt lat="43.52309330234448" lon="10.790002028803405"><ele>90.0</ele><time>2026-04-18T08:50:51Z</time></trkpt><trkpt lat="43.52311286077735" lon="10.790120510194486"><ele>91.4</ele><time>2026-04-18T08:50:54Z</time></trkpt><trkpt lat="43.52314196163472" lon="10.790216089596589"><ele>92.8</ele><time>2026-04-18T08:50:56Z</time></trkpt><trkpt lat="43.52313580028067" lon="10.790346931812389"><ele>94.19999999999999</ele><time>2026-04-18T08:50:58Z</time></trkpt><trkpt lat="43.52317190364132" lon="10.790482323661813"><ele>95.6</ele><time>2026-04-18T08:51:00Z</time></trkpt><trkpt lat="43.523192724346885" lon="10.790650688217095"><ele>97.0</ele><time>2026-04-18T08:51:02Z</time></trkpt><trkpt lat="43.52318158226573" lon="10.79074970222674"><ele>97.00000000000001</ele><time>2026-04-18T08:51:03Z</time></trkpt><trkpt lat="43.52319769440296" lon="10.790845845651177"><ele>97.0</ele><time>2026-04-18T08:51:04Z</time></trkpt><trkpt lat="43.5232320375954" lon="10.790932718440803"><ele>97.0</ele><time>2026-04-18T08:51:05Z</time></trkpt><trkpt lat="43.52324186249681" lon="10.791027978701514"><ele>97.0</ele><time>2026-04-18T08:51:06Z</time></trkpt><trkpt lat="43.52328221854817" lon="10.791110243027601"><ele>97.00000000000001</ele><time>2026-04-18T08:51:07Z</time></trkpt><trkpt lat="43.52333380367737" lon="10.791178417227957"><ele>97.0</ele><time>2026-04-18T08:51:08Z</time></trkpt><trkpt lat="43.523412992983815" lon="10.791295029952888"><ele>96.19999999999999</ele><time>2026-04-18T08:51:10Z</time></trkpt><trkpt lat="43.52348289629446" lon="10.79140952916146"><ele>95.4</ele><time>2026-04-18T08:51:12Z</time></trkpt><trkpt lat="43.523550315058145" lon="10.791528794003684"><ele>94.6</ele><time>2026-04-18T08:51:14Z</time></trkpt><trkpt lat="43.52362409424604" lon="10.791665381296452"><ele>93.80000000000001</ele><time>2026-04-18T08:51:16Z</time></trkpt><trkpt lat="43.523657295899916" lon="10.791739569552846"><ele>93.0</ele><time>2026-04-18T08:51:17Z</time></trkpt><trkpt lat="43.523684957173465" lon="10.79182141678056"><ele>93.0</ele><time>2026-04-18T08:51:18Z</time></trkpt><trkpt lat="43.523691609709175" lon="10.791915563557195"><ele>93.0</ele><time>2026-04-18T08:51:19Z</time></trkpt><trkpt lat="43.52368252966721" lon="10.792072706478411"><ele>93.0</ele><time>2026-04-18T08:51:21Z</time></trkpt><trkpt lat="43.52367224887238" lon="10.792161007111666"><ele>93.0</ele><time>2026-04-18T08:51:23Z</time></trkpt><trkpt lat="43.52365583112634" lon="10.79227424292527"><ele>93.0</ele><time>2026-04-18T08:51:26Z</time></trkpt><trkpt lat="43.523639007324306" lon="10.792359665273707"><ele>93.0</ele><time>2026-04-18T08:51:28Z</time></trkpt><trkpt lat="43.52360675400786" lon="10.792484251526572"><ele>93.0</ele><time>2026-04-18T08:51:30Z</time></trkpt><trkpt lat="43.52357088931698" lon="10.792648163815299"><ele>93.0</ele><time>2026-04-18T08:51:32Z</time></trkpt><trkpt lat="43.52353252861553" lon="10.792728740757635"><ele>93.0</ele><time>2026-04-18T08:51:33Z</time></trkpt><trkpt lat="43.52351248074406" lon="10.79282562622035"><ele>93.0</ele><time>2026-04-18T08:51:34Z</time></trkpt><trkpt lat="43.52350253924142" lon="10.792930416367772"><ele>93.0</ele><time>2026-04-18T08:51:35Z</time></trkpt><trkpt lat="43.52351008224149" lon="10.793037916609835"><ele>93.0</ele><time>2026-04-18T08:51:36Z</time></trkpt><trkpt lat="43.523502509712365" lon="10.79314820694604"><ele>93.5</ele><time>2026-04-18T08:51:37Z</time></trkpt><trkpt lat="43.523498141848236" lon="10.793261837599385"><ele>94.0</ele><time>2026-04-18T08:51:38Z</time></trkpt><trkpt lat="43.52349875444665" lon="10.793375964449949"><ele>94.5</ele><time>2026-04-18T08:51:39Z</time></trkpt><trkpt lat="43.52350067740184" lon="10.793493304535023"><ele>95.0</ele><time>2026-04-18T08:51:40Z</time></trkpt><trkpt lat="43.52351023475001" lon="10.793610758987395"><ele>95.5</ele><time>2026-04-18T08:51:41Z</time></trkpt><trkpt lat="43.52350007298376" lon="10.793729410386696"><ele>96.0</ele><time>2026-04-18T08:51:42Z</time></trkpt><trkpt lat="43.52349917668064" lon="10.793845492515967"><ele>96.0</ele><time>2026-04-18T08:51:43Z</time></trkpt><trkpt lat="43.523496398578146" lon="10.79396657156654"><ele>96.0</ele><time>2026-04-18T08:51:44Z</time></trkpt><trkpt lat="43.5234911050557" lon="10.794091176942162"><ele>96.0</ele><time>2026-04-18T08:51:45Z</time></trkpt><trkpt lat="43.52348430851149" lon="10.794216455755159"><ele>96.0</ele><time>2026-04-18T08:51:46Z</time></trkpt><trkpt lat="43.52347630267283" lon="10.794345164297305"><ele>96.0</ele><time>2026-04-18T08:51:47Z</time></trkpt><trkpt lat="43.523465093119825" lon="10.794474861467105"><ele>96.0</ele><time>2026-04-18T08:51:48Z</time></trkpt><trkpt lat="43.52345305701209" lon="10.794606021682124"><ele>96.0</ele><time>2026-04-18T08:51:49Z</time></trkpt><trkpt lat="43.523445508082204" lon="10.79473295783722"><ele>96.0</ele><time>2026-04-18T08:51:50Z</time></trkpt><trkpt lat="43.523456718149255" lon="10.794851907830436"><ele>96.0</ele><time>2026-04-18T08:51:51Z</time></trkpt><trkpt lat="43.52345587260591" lon="10.79495901776765"><ele>96.0</ele><time>2026-04-18T08:51:52Z</time></trkpt><trkpt lat="43.5234607362029" lon="10.795057389552879"><ele>96.0</ele><time>2026-04-18T08:51:53Z</time></trkpt><trkpt lat="43.52347173624125" lon="10.795155874269753"><ele>95.33333333333333</ele><time>2026-04-18T08:51:54Z</time></trkpt><trkpt lat="43.52349209572855" lon="10.795260296017116"><ele>94.66666666666667</ele><time>2026-04-18T08:51:55Z</time></trkpt><trkpt lat="43.523500752426536" lon="10.7953777396125"><ele>94.0</ele><time>2026-04-18T08:51:56Z</time></trkpt><trkpt lat="43.5235391824348" lon="10.795487535096111"><ele>93.33333333333334</ele><time>2026-04-18T08:51:57Z</time></trkpt><trkpt lat="43.52356513346525" lon="10.79560647544568"><ele>92.66666666666667</ele><time>2026-04-18T08:51:58Z</time></trkpt><trkpt lat="43.52359930564087" lon="10.795725088157743"><ele>92.0</ele><time>2026-04-18T08:51:59Z</time></trkpt><trkpt lat="43.52363409722181" lon="10.795847898757925"><ele>92.0</ele><time>2026-04-18T08:52:00Z</time></trkpt><trkpt lat="43.523678077557776" lon="10.795970712830778"><ele>92.0</ele><time>2026-04-18T08:52:01Z</time></trkpt><trkpt lat="43.5237204567972" lon="10.796094618512322"><ele>92.0</ele><time>2026-04-18T08:52:02Z</time></trkpt><trkpt lat="43.52376467129876" lon="10.79621931551728"><ele>92.0</ele><time>2026-04-18T08:52:03Z</time></trkpt><trkpt lat="43.52380912598043" lon="10.796343888664088"><ele>92.0</ele><time>2026-04-18T08:52:04Z</time></trkpt><trkpt lat="43.523853375339755" lon="10.796469280175"><ele>92.39999999999999</ele><time>2026-04-18T08:52:05Z</time></trkpt><trkpt lat="43.52389044382827" lon="10.796599636197879"><ele>92.8</ele><time>2026-04-18T08:52:06Z</time></trkpt><trkpt lat="43.52391828502038" lon="10.796733067731827"><ele>93.2</ele><time>2026-04-18T08:52:07Z</time></trkpt><trkpt lat="43.523944185350466" lon="10.79687038749463"><ele>93.6</ele><time>2026-04-18T08:52:08Z</time></trkpt><trkpt lat="43.52396878866861" lon="10.797008053287882"><ele>94.0</ele><time>2026-04-18T08:52:09Z</time></trkpt><trkpt lat="43.523986792369705" lon="10.797149199344158"><ele>94.0</ele><time>2026-04-18T08:52:10Z</time></trkpt><trkpt lat="43.523998197235116" lon="10.797296000101388"><ele>94.0</ele><time>2026-04-18T08:52:11Z</time></trkpt><trkpt lat="43.52400686012857" lon="10.7974433300118"><ele>94.0</ele><time>2026-04-18T08:52:12Z</time></trkpt><trkpt lat="43.5240062884341" lon="10.797590536016205"><ele>94.0</ele><time>2026-04-18T08:52:13Z</time></trkpt><trkpt lat="43.52401726453456" lon="10.797735438082569"><ele>94.0</ele><time>2026-04-18T08:52:14Z</time></trkpt><trkpt lat="43.52402732463153" lon="10.797881727860428"><ele>94.80000000000001</ele><time>2026-04-18T08:52:15Z</time></trkpt><trkpt lat="43.52403660828048" lon="10.798027835918669"><ele>95.60000000000001</ele><time>2026-04-18T08:52:16Z</time></trkpt><trkpt lat="43.52404735317038" lon="10.798177567715928"><ele>96.4</ele><time>2026-04-18T08:52:17Z</time></trkpt><trkpt lat="43.52407011191945" lon="10.798323058860493"><ele>97.2</ele><time>2026-04-18T08:52:18Z</time></trkpt><trkpt lat="43.52408818558651" lon="10.79846649711901"><ele>98.0</ele><time>2026-04-18T08:52:19Z</time></trkpt><trkpt lat="43.524113377936686" lon="10.798604743567555"><ele>98.60000000000001</ele><time>2026-04-18T08:52:20Z</time></trkpt><trkpt lat="43.524137494197184" lon="10.798740249919124"><ele>99.2</ele><time>2026-04-18T08:52:21Z</time></trkpt><trkpt lat="43.52416129314713" lon="10.798872128476523"><ele>99.8</ele><time>2026-04-18T08:52:22Z</time></trkpt><trkpt lat="43.52418211201731" lon="10.799005129698596"><ele>100.4</ele><time>2026-04-18T08:52:23Z</time></trkpt><trkpt lat="43.52420093033357" lon="10.799138398312001"><ele>101.0</ele><time>2026-04-18T08:52:24Z</time></trkpt><trkpt lat="43.524221544566544" lon="10.799270988427972"><ele>101.33333333333333</ele><time>2026-04-18T08:52:25Z</time></trkpt><trkpt lat="43.52423622715349" lon="10.799401444653995"><ele>101.66666666666666</ele><time>2026-04-18T08:52:26Z</time></trkpt><trkpt lat="43.52424042427979" lon="10.799529877905282"><ele>102.0</ele><time>2026-04-18T08:52:27Z</time></trkpt><trkpt lat="43.52423681833685" lon="10.799651215488472"><ele>102.33333333333334</ele><time>2026-04-18T08:52:28Z</time></trkpt><trkpt lat="43.524227567915084" lon="10.79976789552609"><ele>102.66666666666667</ele><time>2026-04-18T08:52:29Z</time></trkpt><trkpt lat="43.5242151883141" lon="10.799881440607056"><ele>103.0</ele><time>2026-04-18T08:52:30Z</time></trkpt><trkpt lat="43.524200489587024" lon="10.799990006839945"><ele>103.00000000000001</ele><time>2026-04-18T08:52:31Z</time></trkpt><trkpt lat="43.524188212663475" lon="10.800091797433298"><ele>103.0</ele><time>2026-04-18T08:52:32Z</time></trkpt><trkpt lat="43.52417840922768" lon="10.800193075300081"><ele>103.0</ele><time>2026-04-18T08:52:33Z</time></trkpt><trkpt lat="43.524169060802194" lon="10.800295944778252"><ele>103.0</ele><time>2026-04-18T08:52:34Z</time></trkpt><trkpt lat="43.52416208205576" lon="10.800400584486205"><ele>103.00000000000001</ele><time>2026-04-18T08:52:35Z</time></trkpt><trkpt lat="43.52415665929688" lon="10.800507541974916"><ele>103.0</ele><time>2026-04-18T08:52:36Z</time></trkpt><trkpt lat="43.524154410082375" lon="10.800615498296082"><ele>102.50000000000001</ele><time>2026-04-18T08:52:37Z</time></trkpt><trkpt lat="43.52415206471652" lon="10.800724277387756"><ele>102.0</ele><time>2026-04-18T08:52:38Z</time></trkpt><trkpt lat="43.524144844601445" lon="10.800835861576777"><ele>101.5</ele><time>2026-04-18T08:52:39Z</time></trkpt><trkpt lat="43.52413111674842" lon="10.800949433522835"><ele>101.0</ele><time>2026-04-18T08:52:40Z</time></trkpt><trkpt lat="43.52410711409737" lon="10.801061479749062"><ele>100.50000000000001</ele><time>2026-04-18T08:52:41Z</time></trkpt><trkpt lat="43.52407750554169" lon="10.801171079612255"><ele>100.0</ele><time>2026-04-18T08:52:42Z</time></trkpt><trkpt lat="43.52404400103283" lon="10.801267888170965"><ele>99.14285714285715</ele><time>2026-04-18T08:52:43Z</time></trkpt><trkpt lat="43.52400721961268" lon="10.801359499617684"><ele>98.28571428571429</ele><time>2026-04-18T08:52:44Z</time></trkpt><trkpt lat="43.52397151848376" lon="10.801448263051263"><ele>97.42857142857143</ele><time>2026-04-18T08:52:45Z</time></trkpt><trkpt lat="43.5239362587385" lon="10.801532121748293"><ele>96.57142857142858</ele><time>2026-04-18T08:52:46Z</time></trkpt><trkpt lat="43.523900481585514" lon="10.801614209754609"><ele>95.71428571428571</ele><time>2026-04-18T08:52:47Z</time></trkpt><trkpt lat="43.52386737380741" lon="10.801695140859307"><ele>94.85714285714286</ele><time>2026-04-18T08:52:48Z</time></trkpt><trkpt lat="43.52383265850676" lon="10.801771069541225"><ele>94.0</ele><time>2026-04-18T08:52:49Z</time></trkpt><trkpt lat="43.52376887442123" lon="10.801879288808266"><ele>95.5</ele><time>2026-04-18T08:52:51Z</time></trkpt><trkpt lat="43.523708791083926" lon="10.801952867161384"><ele>97.0</ele><time>2026-04-18T08:52:59Z</time></trkpt><trkpt lat="43.52364830271448" lon="10.80199142162166"><ele>98.5</ele><time>2026-04-18T08:53:01Z</time></trkpt><trkpt lat="43.52356630081587" lon="10.802046881847463"><ele>100.0</ele><time>2026-04-18T08:53:03Z</time></trkpt><trkpt lat="43.523482316851094" lon="10.802117741393833"><ele>101.50000000000001</ele><time>2026-04-18T08:53:05Z</time></trkpt><trkpt lat="43.52338171458525" lon="10.802186529715527"><ele>103.0</ele><time>2026-04-18T08:53:07Z</time></trkpt><trkpt lat="43.52326909561502" lon="10.802269185937456"><ele>102.99999999999999</ele><time>2026-04-18T08:53:09Z</time></trkpt><trkpt lat="43.52321341314967" lon="10.80231627086643"><ele>103.0</ele><time>2026-04-18T08:53:10Z</time></trkpt><trkpt lat="43.52316121925255" lon="10.802371254984989"><ele>103.0</ele><time>2026-04-18T08:53:11Z</time></trkpt><trkpt lat="43.523111852300566" lon="10.80243828409524"><ele>103.0</ele><time>2026-04-18T08:53:12Z</time></trkpt><trkpt lat="43.52306792645914" lon="10.802515621411873"><ele>103.0</ele><time>2026-04-18T08:53:13Z</time></trkpt><trkpt lat="43.52303279877955" lon="10.802602073957667"><ele>102.99999999999999</ele><time>2026-04-18T08:53:14Z</time></trkpt><trkpt lat="43.52300643129457" lon="10.802692611274841"><ele>103.0</ele><time>2026-04-18T08:53:15Z</time></trkpt><trkpt lat="43.52298772015518" lon="10.802785278929473"><ele>103.66666666666667</ele><time>2026-04-18T08:53:16Z</time></trkpt><trkpt lat="43.52297403065851" lon="10.80287176220656"><ele>104.33333333333334</ele><time>2026-04-18T08:53:17Z</time></trkpt><trkpt lat="43.522952507928316" lon="10.803017109363433"><ele>105.0</ele><time>2026-04-18T08:53:19Z</time></trkpt><trkpt lat="43.52293303898863" lon="10.803127722772299"><ele>105.66666666666666</ele><time>2026-04-18T08:53:21Z</time></trkpt><trkpt lat="43.52291947710108" lon="10.803278832538782"><ele>106.33333333333333</ele><time>2026-04-18T08:53:23Z</time></trkpt><trkpt lat="43.522917599080095" lon="10.803371845188519"><ele>107.0</ele><time>2026-04-18T08:53:24Z</time></trkpt><trkpt lat="43.5229201981933" lon="10.80346328878013"><ele>106.85714285714286</ele><time>2026-04-18T08:53:25Z</time></trkpt><trkpt lat="43.52292521270674" lon="10.803555871270909"><ele>106.71428571428572</ele><time>2026-04-18T08:53:26Z</time></trkpt><trkpt lat="43.522934287148225" lon="10.803643700502379"><ele>106.57142857142858</ele><time>2026-04-18T08:53:27Z</time></trkpt><trkpt lat="43.52295186943175" lon="10.803727152828527"><ele>106.42857142857143</ele><time>2026-04-18T08:53:28Z</time></trkpt><trkpt lat="43.52297973512476" lon="10.803813293199592"><ele>106.28571428571428</ele><time>2026-04-18T08:53:29Z</time></trkpt><trkpt lat="43.52301149327364" lon="10.803891222652448"><ele>106.14285714285715</ele><time>2026-04-18T08:53:30Z</time></trkpt><trkpt lat="43.523049066728" lon="10.803969469837394"><ele>106.0</ele><time>2026-04-18T08:53:30.999Z</time></trkpt><trkpt lat="43.5230885359919" lon="10.804047286078822"><ele>106.0</ele><time>2026-04-18T08:53:31.999Z</time></trkpt><trkpt lat="43.52313169197784" lon="10.804124026289156"><ele>106.0</ele><time>2026-04-18T08:53:33Z</time></trkpt><trkpt lat="43.52317324434186" lon="10.804204501444175"><ele>106.0</ele><time>2026-04-18T08:53:34Z</time></trkpt><trkpt lat="43.523212671262776" lon="10.80428834988014"><ele>106.0</ele><time>2026-04-18T08:53:35Z</time></trkpt><trkpt lat="43.52325105279246" lon="10.804378472206343"><ele>106.0</ele><time>2026-04-18T08:53:36Z</time></trkpt><trkpt lat="43.523288992048066" lon="10.804472904949266"><ele>106.0</ele><time>2026-04-18T08:53:37Z</time></trkpt><trkpt lat="43.523325801997004" lon="10.804570836581654"><ele>106.0</ele><time>2026-04-18T08:53:38Z</time></trkpt><trkpt lat="43.523359254864765" lon="10.804668505671989"><ele>105.00000000000001</ele><time>2026-04-18T08:53:39Z</time></trkpt><trkpt lat="43.523401709261925" lon="10.80476658924823"><ele>104.0</ele><time>2026-04-18T08:53:40Z</time></trkpt><trkpt lat="43.523446258600366" lon="10.80486828334567"><ele>103.0</ele><time>2026-04-18T08:53:41Z</time></trkpt><trkpt lat="43.523493029209654" lon="10.80497138958468"><ele>102.0</ele><time>2026-04-18T08:53:42Z</time></trkpt><trkpt lat="43.52353920463599" lon="10.805071949028504"><ele>101.00000000000001</ele><time>2026-04-18T08:53:43Z</time></trkpt><trkpt lat="43.523584385435925" lon="10.805173462550375"><ele>100.0</ele><time>2026-04-18T08:53:44Z</time></trkpt><trkpt lat="43.52362021043574" lon="10.805281106155379"><ele>99.83333333333334</ele><time>2026-04-18T08:53:45Z</time></trkpt><trkpt lat="43.52364696722557" lon="10.805395432448721"><ele>99.66666666666667</ele><time>2026-04-18T08:53:46Z</time></trkpt><trkpt lat="43.52366462510841" lon="10.80550990054139"><ele>99.5</ele><time>2026-04-18T08:53:47Z</time></trkpt><trkpt lat="43.52368311097866" lon="10.80562080839726"><ele>99.33333333333334</ele><time>2026-04-18T08:53:48Z</time></trkpt><trkpt lat="43.523702276833426" lon="10.80572835148406"><ele>99.16666666666667</ele><time>2026-04-18T08:53:49Z</time></trkpt><trkpt lat="43.52372749897204" lon="10.805825154858805"><ele>99.0</ele><time>2026-04-18T08:53:50Z</time></trkpt><trkpt lat="43.52375453093063" lon="10.805915021466518"><ele>98.4</ele><time>2026-04-18T08:53:51Z</time></trkpt><trkpt lat="43.52377728647179" lon="10.806000642008998"><ele>97.80000000000001</ele><time>2026-04-18T08:53:52Z</time></trkpt><trkpt lat="43.523809370524255" lon="10.806164594324613"><ele>97.19999999999999</ele><time>2026-04-18T08:53:54Z</time></trkpt><trkpt lat="43.52381452342834" lon="10.806334435672474"><ele>96.6</ele><time>2026-04-18T08:53:56Z</time></trkpt><trkpt lat="43.52380009920533" lon="10.80650862932754"><ele>96.0</ele><time>2026-04-18T08:53:58Z</time></trkpt><trkpt lat="43.5237836785502" lon="10.80660484471286"><ele>96.0</ele><time>2026-04-18T08:53:59Z</time></trkpt><trkpt lat="43.52376450168729" lon="10.806702866904988"><ele>96.0</ele><time>2026-04-18T08:54:00Z</time></trkpt><trkpt lat="43.52374699829206" lon="10.806801857937621"><ele>96.0</ele><time>2026-04-18T08:54:01Z</time></trkpt><trkpt lat="43.523733888841676" lon="10.806913232242934"><ele>96.0</ele><time>2026-04-18T08:54:02Z</time></trkpt><trkpt lat="43.52371068327297" lon="10.807027066570315"><ele>96.0</ele><time>2026-04-18T08:54:03Z</time></trkpt><trkpt lat="43.523712504260615" lon="10.807146152882874"><ele>96.0</ele><time>2026-04-18T08:54:04Z</time></trkpt><trkpt lat="43.52373911347263" lon="10.807260738704736"><ele>96.0</ele><time>2026-04-18T08:54:05Z</time></trkpt><trkpt lat="43.52375464637825" lon="10.80737681480649"><ele>96.0</ele><time>2026-04-18T08:54:06Z</time></trkpt><trkpt lat="43.52377739223755" lon="10.807493042931684"><ele>96.0</ele><time>2026-04-18T08:54:07Z</time></trkpt><trkpt lat="43.523810549576645" lon="10.807602944227046"><ele>96.0</ele><time>2026-04-18T08:54:08Z</time></trkpt><trkpt lat="43.523849063242864" lon="10.807710218368234"><ele>96.0</ele><time>2026-04-18T08:54:09Z</time></trkpt><trkpt lat="43.52388932924601" lon="10.807814750492959"><ele>96.0</ele><time>2026-04-18T08:54:10Z</time></trkpt><trkpt lat="43.523930497058195" lon="10.807916868839966"><ele>96.0</ele><time>2026-04-18T08:54:11Z</time></trkpt><trkpt lat="43.523973888048815" lon="10.808017535437399"><ele>96.0</ele><time>2026-04-18T08:54:12Z</time></trkpt><trkpt lat="43.52401663532178" lon="10.808120143389926"><ele>96.0</ele><time>2026-04-18T08:54:13Z</time></trkpt><trkpt lat="43.52405390143741" lon="10.80822222153463"><ele>96.0</ele><time>2026-04-18T08:54:14Z</time></trkpt><trkpt lat="43.524082175088246" lon="10.808309620151144"><ele>96.0</ele><time>2026-04-18T08:54:15Z</time></trkpt><trkpt lat="43.52408282951262" lon="10.80840388939498"><ele>96.0</ele><time>2026-04-18T08:54:16Z</time></trkpt><trkpt lat="43.524093571598975" lon="10.808577118672321"><ele>96.66666666666667</ele><time>2026-04-18T08:54:18Z</time></trkpt><trkpt lat="43.52407115565599" lon="10.808666080717492"><ele>97.33333333333334</ele><time>2026-04-18T08:54:19Z</time></trkpt><trkpt lat="43.5240619903129" lon="10.808761760776987"><ele>98.0</ele><time>2026-04-18T08:54:20Z</time></trkpt><trkpt lat="43.52405494345506" lon="10.808852530908649"><ele>98.66666666666667</ele><time>2026-04-18T08:54:21Z</time></trkpt><trkpt lat="43.524063161773185" lon="10.808940745830785"><ele>99.33333333333334</ele><time>2026-04-18T08:54:22Z</time></trkpt><trkpt lat="43.52405005865613" lon="10.80909066592379"><ele>100.0</ele><time>2026-04-18T08:54:24Z</time></trkpt><trkpt lat="43.52404440231318" lon="10.809227732228932"><ele>100.75</ele><time>2026-04-18T08:54:26Z</time></trkpt><trkpt lat="43.52405182267749" lon="10.809367575930175"><ele>101.5</ele><time>2026-04-18T08:54:28Z</time></trkpt><trkpt lat="43.52406652485204" lon="10.809521436165364"><ele>102.25</ele><time>2026-04-18T08:54:30Z</time></trkpt><trkpt lat="43.52409049659709" lon="10.809688758926038"><ele>103.0</ele><time>2026-04-18T08:54:32Z</time></trkpt><trkpt lat="43.52411337442259" lon="10.809860643036556"><ele>102.99999999999999</ele><time>2026-04-18T08:54:34Z</time></trkpt><trkpt lat="43.524122689632605" lon="10.80995053478446"><ele>103.0</ele><time>2026-04-18T08:54:35Z</time></trkpt><trkpt lat="43.52412847116124" lon="10.810039769046998"><ele>103.0</ele><time>2026-04-18T08:54:36Z</time></trkpt><trkpt lat="43.52411027108501" lon="10.810127966743927"><ele>103.0</ele><time>2026-04-18T08:54:37Z</time></trkpt><trkpt lat="43.524104920281566" lon="10.810215042070915"><ele>103.0</ele><time>2026-04-18T08:54:38Z</time></trkpt><trkpt lat="43.524094235095994" lon="10.810302844761601"><ele>102.99999999999999</ele><time>2026-04-18T08:54:39Z</time></trkpt><trkpt lat="43.52408087296041" lon="10.810392276251612"><ele>103.0</ele><time>2026-04-18T08:54:40Z</time></trkpt><trkpt lat="43.52406272283632" lon="10.810481770391362"><ele>103.14285714285714</ele><time>2026-04-18T08:54:41Z</time></trkpt><trkpt lat="43.52404134174233" lon="10.810573133674882"><ele>103.28571428571428</ele><time>2026-04-18T08:54:42Z</time></trkpt><trkpt lat="43.52403247475854" lon="10.8106730120341"><ele>103.42857142857142</ele><time>2026-04-18T08:54:43Z</time></trkpt><trkpt lat="43.52401311982024" lon="10.810767817988621"><ele>103.57142857142857</ele><time>2026-04-18T08:54:44Z</time></trkpt><trkpt lat="43.52399947717254" lon="10.81086509611436"><ele>103.71428571428572</ele><time>2026-04-18T08:54:45Z</time></trkpt><trkpt lat="43.52397161098272" lon="10.810963641258892"><ele>103.85714285714285</ele><time>2026-04-18T08:54:46Z</time></trkpt><trkpt lat="43.523962497176775" lon="10.81106125680497"><ele>104.0</ele><time>2026-04-18T08:54:47Z</time></trkpt><trkpt lat="43.523948530663816" lon="10.811153754341985"><ele>103.71428571428571</ele><time>2026-04-18T08:54:48Z</time></trkpt><trkpt lat="43.52393099114423" lon="10.811247298608615"><ele>103.42857142857143</ele><time>2026-04-18T08:54:49Z</time></trkpt><trkpt lat="43.52390929848939" lon="10.811339241545038"><ele>103.14285714285714</ele><time>2026-04-18T08:54:50Z</time></trkpt><trkpt lat="43.52387895226603" lon="10.811430751436088"><ele>102.85714285714286</ele><time>2026-04-18T08:54:51Z</time></trkpt><trkpt lat="43.52384115804342" lon="10.811515538638803"><ele>102.57142857142858</ele><time>2026-04-18T08:54:52Z</time></trkpt><trkpt lat="43.52380985737883" lon="10.811608585324587"><ele>102.28571428571429</ele><time>2026-04-18T08:54:53Z</time></trkpt><trkpt lat="43.52374564889656" lon="10.811665634181725"><ele>102.0</ele><time>2026-04-18T08:54:54Z</time></trkpt><trkpt lat="43.52369215917076" lon="10.811732872320121"><ele>103.14285714285714</ele><time>2026-04-18T08:54:55Z</time></trkpt><trkpt lat="43.523637181439426" lon="10.811798239025352"><ele>104.28571428571429</ele><time>2026-04-18T08:54:56Z</time></trkpt><trkpt lat="43.52358035534266" lon="10.811862085977388"><ele>105.42857142857142</ele><time>2026-04-18T08:54:57Z</time></trkpt><trkpt lat="43.523525291783685" lon="10.811922430659438"><ele>106.57142857142857</ele><time>2026-04-18T08:54:58Z</time></trkpt><trkpt lat="43.52346718421276" lon="10.811973430738528"><ele>107.71428571428571</ele><time>2026-04-18T08:54:59Z</time></trkpt><trkpt lat="43.5234067441724" lon="10.812009475088937"><ele>108.85714285714285</ele><time>2026-04-18T08:55:00Z</time></trkpt><trkpt lat="43.523343635249546" lon="10.812035522323274"><ele>110.0</ele><time>2026-04-18T08:55:01Z</time></trkpt><trkpt lat="43.52328989060707" lon="10.812082099141028"><ele>111.2</ele><time>2026-04-18T08:55:02Z</time></trkpt><trkpt lat="43.52317770841374" lon="10.812136966542425"><ele>112.4</ele><time>2026-04-18T08:55:04Z</time></trkpt><trkpt lat="43.52307231809415" lon="10.812197822133951"><ele>113.6</ele><time>2026-04-18T08:55:06Z</time></trkpt><trkpt lat="43.52299429541411" lon="10.81229951894301"><ele>114.8</ele><time>2026-04-18T08:55:08Z</time></trkpt><trkpt lat="43.52293953300513" lon="10.812413340197386"><ele>116.0</ele><time>2026-04-18T08:55:10Z</time></trkpt><trkpt lat="43.522897186300476" lon="10.812537210775902"><ele>117.19999999999999</ele><time>2026-04-18T08:55:12Z</time></trkpt><trkpt lat="43.52285574681251" lon="10.81267353451893"><ele>118.39999999999999</ele><time>2026-04-18T08:55:14Z</time></trkpt><trkpt lat="43.52281053688015" lon="10.812817277449655"><ele>119.6</ele><time>2026-04-18T08:55:16Z</time></trkpt><trkpt lat="43.52277777295615" lon="10.812963233713175"><ele>120.8</ele><time>2026-04-18T08:55:18Z</time></trkpt><trkpt lat="43.522703570659424" lon="10.813057266131086"><ele>122.0</ele><time>2026-04-18T08:55:20Z</time></trkpt><trkpt lat="43.52263932782221" lon="10.81313475932535"><ele>121.99999999999999</ele><time>2026-04-18T08:55:22Z</time></trkpt><trkpt lat="43.5225719576785" lon="10.813217349660745"><ele>122.0</ele><time>2026-04-18T08:55:24Z</time></trkpt><trkpt lat="43.52247897271878" lon="10.813314599536"><ele>122.0</ele><time>2026-04-18T08:55:26Z</time></trkpt><trkpt lat="43.52241222897732" lon="10.813348042071814"><ele>122.0</ele><time>2026-04-18T08:55:27Z</time></trkpt><trkpt lat="43.52235291350496" lon="10.813399461682486"><ele>121.99999999999999</ele><time>2026-04-18T08:55:28Z</time></trkpt><trkpt lat="43.52229238580567" lon="10.813451020027475"><ele>122.0</ele><time>2026-04-18T08:55:29Z</time></trkpt><trkpt lat="43.52223479311615" lon="10.813503292048969"><ele>122.42857142857142</ele><time>2026-04-18T08:55:30Z</time></trkpt><trkpt lat="43.52217975136049" lon="10.813557523484766"><ele>122.85714285714286</ele><time>2026-04-18T08:55:31Z</time></trkpt><trkpt lat="43.522127802509196" lon="10.813616437244203"><ele>123.28571428571428</ele><time>2026-04-18T08:55:32Z</time></trkpt><trkpt lat="43.52207730495639" lon="10.813676717865613"><ele>123.71428571428571</ele><time>2026-04-18T08:55:33Z</time></trkpt><trkpt lat="43.52202715977319" lon="10.813736578619508"><ele>124.14285714285714</ele><time>2026-04-18T08:55:34Z</time></trkpt><trkpt lat="43.52201050585498" lon="10.813873238543875"><ele>124.57142857142857</ele><time>2026-04-18T08:55:35Z</time></trkpt><trkpt lat="43.52198242767775" lon="10.813976255273081"><ele>125.0</ele><time>2026-04-18T08:55:36Z</time></trkpt><trkpt lat="43.521961441184764" lon="10.81407811560862"><ele>125.49999999999999</ele><time>2026-04-18T08:55:37Z</time></trkpt><trkpt lat="43.52195445365955" lon="10.814184450495853"><ele>126.0</ele><time>2026-04-18T08:55:38Z</time></trkpt><trkpt lat="43.52193170744193" lon="10.814283345490418"><ele>126.5</ele><time>2026-04-18T08:55:39Z</time></trkpt><trkpt lat="43.52190496315968" lon="10.814374032611132"><ele>127.0</ele><time>2026-04-18T08:55:40Z</time></trkpt><trkpt lat="43.521877241508705" lon="10.814458041453321"><ele>127.49999999999999</ele><time>2026-04-18T08:55:41Z</time></trkpt><trkpt lat="43.521849178342094" lon="10.814539340424298"><ele>128.0</ele><time>2026-04-18T08:55:42Z</time></trkpt><trkpt lat="43.52177638795184" lon="10.814670631718938"><ele>127.99999999999999</ele><time>2026-04-18T08:55:44Z</time></trkpt><trkpt lat="43.521726854148895" lon="10.814792315373243"><ele>128.0</ele><time>2026-04-18T08:55:46Z</time></trkpt><trkpt lat="43.521693769949394" lon="10.814954688810738"><ele>128.0</ele><time>2026-04-18T08:55:48Z</time></trkpt><trkpt lat="43.52169231614775" lon="10.815045258400081"><ele>128.0</ele><time>2026-04-18T08:55:49Z</time></trkpt><trkpt lat="43.52169404771927" lon="10.815134092860605"><ele>127.99999999999999</ele><time>2026-04-18T08:55:50Z</time></trkpt><trkpt lat="43.52170777482826" lon="10.815224943171474"><ele>128.0</ele><time>2026-04-18T08:55:51Z</time></trkpt><trkpt lat="43.52169139136321" lon="10.815317414854121"><ele>127.80000000000001</ele><time>2026-04-18T08:55:52Z</time></trkpt><trkpt lat="43.5216846787791" lon="10.815403925835769"><ele>127.60000000000001</ele><time>2026-04-18T08:55:53Z</time></trkpt><trkpt lat="43.5216717203688" lon="10.815489156811338"><ele>127.39999999999999</ele><time>2026-04-18T08:55:54Z</time></trkpt><trkpt lat="43.52166720463205" lon="10.815658528445041"><ele>127.19999999999999</ele><time>2026-04-18T08:55:56Z</time></trkpt><trkpt lat="43.52172190995775" lon="10.81589833547789"><ele>127.0</ele><time>2026-04-18T08:55:59Z</time></trkpt><trkpt lat="43.52175673170016" lon="10.815978528818123"><ele>126.0</ele><time>2026-04-18T08:56:00Z</time></trkpt><trkpt lat="43.52179263787609" lon="10.816061254942761"><ele>125.0</ele><time>2026-04-18T08:56:01Z</time></trkpt><trkpt lat="43.521837840733085" lon="10.816143687205821"><ele>124.0</ele><time>2026-04-18T08:56:02Z</time></trkpt><trkpt lat="43.52188259184565" lon="10.81621911348714"><ele>123.0</ele><time>2026-04-18T08:56:03Z</time></trkpt><trkpt lat="43.521926539625646" lon="10.816293185930592"><ele>122.0</ele><time>2026-04-18T08:56:04Z</time></trkpt><trkpt lat="43.52196339883376" lon="10.81636379528966"><ele>121.0</ele><time>2026-04-18T08:56:05Z</time></trkpt><trkpt lat="43.5219995723585" lon="10.816438609407447"><ele>120.0</ele><time>2026-04-18T08:56:06Z</time></trkpt><trkpt lat="43.522057255064915" lon="10.816589469739927"><ele>120.33333333333333</ele><time>2026-04-18T08:56:08Z</time></trkpt><trkpt lat="43.52209954156318" lon="10.816753009268712"><ele>120.66666666666666</ele><time>2026-04-18T08:56:10Z</time></trkpt><trkpt lat="43.522101802702295" lon="10.816843129279256"><ele>121.0</ele><time>2026-04-18T08:56:11Z</time></trkpt><trkpt lat="43.522093428862746" lon="10.81693665782583"><ele>121.33333333333333</ele><time>2026-04-18T08:56:12Z</time></trkpt><trkpt lat="43.52207269378967" lon="10.81703106483768"><ele>121.66666666666666</ele><time>2026-04-18T08:56:13Z</time></trkpt><trkpt lat="43.52204662537711" lon="10.81712164547117"><ele>122.0</ele><time>2026-04-18T08:56:14Z</time></trkpt><trkpt lat="43.52202271771928" lon="10.817219170559998"><ele>122.16666666666666</ele><time>2026-04-18T08:56:15Z</time></trkpt><trkpt lat="43.521996920002294" lon="10.81731405201031"><ele>122.33333333333333</ele><time>2026-04-18T08:56:16Z</time></trkpt><trkpt lat="43.52195377176537" lon="10.817396841750298"><ele>122.5</ele><time>2026-04-18T08:56:17Z</time></trkpt><trkpt lat="43.52194055153238" lon="10.817495266358877"><ele>122.66666666666666</ele><time>2026-04-18T08:56:18Z</time></trkpt><trkpt lat="43.52191137309119" lon="10.81757825621188"><ele>122.83333333333333</ele><time>2026-04-18T08:56:19Z</time></trkpt><trkpt lat="43.521861106853144" lon="10.81773557445441"><ele>123.0</ele><time>2026-04-18T08:56:21Z</time></trkpt><trkpt lat="43.521787024349706" lon="10.817863647487638"><ele>124.60000000000001</ele><time>2026-04-18T08:56:23Z</time></trkpt><trkpt lat="43.521730274766135" lon="10.817991951989251"><ele>126.20000000000002</ele><time>2026-04-18T08:56:25Z</time></trkpt><trkpt lat="43.521640228351096" lon="10.81809941145939"><ele>127.8</ele><time>2026-04-18T08:56:27Z</time></trkpt><trkpt lat="43.52153943949287" lon="10.81817396100141"><ele>129.4</ele><time>2026-04-18T08:56:29Z</time></trkpt><trkpt lat="43.52148314282533" lon="10.818215803758008"><ele>131.0</ele><time>2026-04-18T08:56:30Z</time></trkpt><trkpt lat="43.52139314228796" lon="10.818339676971808"><ele>131.0</ele><time>2026-04-18T08:56:32Z</time></trkpt><trkpt lat="43.52134470130763" lon="10.818436918194045"><ele>131.0</ele><time>2026-04-18T08:56:34Z</time></trkpt><trkpt lat="43.521299082694014" lon="10.818545765139977"><ele>131.0</ele><time>2026-04-18T08:56:36Z</time></trkpt><trkpt lat="43.521277841332356" lon="10.818668975340676"><ele>131.0</ele><time>2026-04-18T08:56:39Z</time></trkpt><trkpt lat="43.52127192597669" lon="10.818760041438553"><ele>131.0</ele><time>2026-04-18T08:56:41Z</time></trkpt><trkpt lat="43.52128261293981" lon="10.818882479111972"><ele>131.0</ele><time>2026-04-18T08:56:43Z</time></trkpt><trkpt lat="43.52127858583407" lon="10.819029354632082"><ele>130.0</ele><time>2026-04-18T08:56:45Z</time></trkpt><trkpt lat="43.52133536027663" lon="10.819184615131894"><ele>129.0</ele><time>2026-04-18T08:56:47Z</time></trkpt><trkpt lat="43.52139015750835" lon="10.819321291123675"><ele>128.0</ele><time>2026-04-18T08:56:49Z</time></trkpt><trkpt lat="43.52142750025135" lon="10.819415946447537"><ele>127.0</ele><time>2026-04-18T08:56:51Z</time></trkpt><trkpt lat="43.521429676822784" lon="10.819526418771488"><ele>126.0</ele><time>2026-04-18T08:56:54Z</time></trkpt><trkpt lat="43.52145611895978" lon="10.819662662410657"><ele>123.8</ele><time>2026-04-18T08:56:57Z</time></trkpt><trkpt lat="43.521443829616196" lon="10.819780869515132"><ele>121.6</ele><time>2026-04-18T08:56:59Z</time></trkpt><trkpt lat="43.52139203803899" lon="10.819901812171663"><ele>119.4</ele><time>2026-04-18T08:57:01Z</time></trkpt><trkpt lat="43.52134895865941" lon="10.820026396289459"><ele>117.2</ele><time>2026-04-18T08:57:03Z</time></trkpt><trkpt lat="43.52129626085808" lon="10.820154493193302"><ele>115.0</ele><time>2026-04-18T08:57:05Z</time></trkpt><trkpt lat="43.52127445307141" lon="10.820303802620769"><ele>113.0</ele><time>2026-04-18T08:57:07Z</time></trkpt><trkpt lat="43.521271657040735" lon="10.820470898626064"><ele>111.0</ele><time>2026-04-18T08:57:09Z</time></trkpt><trkpt lat="43.52128729449331" lon="10.820633337519972"><ele>109.0</ele><time>2026-04-18T08:57:11Z</time></trkpt><trkpt lat="43.52129193646486" lon="10.820797433292649"><ele>107.0</ele><time>2026-04-18T08:57:13Z</time></trkpt><trkpt lat="43.52129792966956" lon="10.82097420012867"><ele>106.71428571428572</ele><time>2026-04-18T08:57:15Z</time></trkpt><trkpt lat="43.52130268234118" lon="10.82106438234636"><ele>106.42857142857143</ele><time>2026-04-18T08:57:16Z</time></trkpt><trkpt lat="43.52130902830363" lon="10.821158764289036"><ele>106.14285714285714</ele><time>2026-04-18T08:57:17Z</time></trkpt><trkpt lat="43.52131532002538" lon="10.821252339506055"><ele>105.85714285714286</ele><time>2026-04-18T08:57:18Z</time></trkpt><trkpt lat="43.52132311273023" lon="10.82135090291578"><ele>105.57142857142857</ele><time>2026-04-18T08:57:19Z</time></trkpt><trkpt lat="43.52133107874603" lon="10.821446271851224"><ele>105.28571428571429</ele><time>2026-04-18T08:57:20Z</time></trkpt><trkpt lat="43.521338934762674" lon="10.82154172775531"><ele>105.0</ele><time>2026-04-18T08:57:21Z</time></trkpt><trkpt lat="43.52134878713613" lon="10.821694138227857"><ele>104.8</ele><time>2026-04-18T08:57:23Z</time></trkpt><trkpt lat="43.52135402581602" lon="10.82182583899784"><ele>104.6</ele><time>2026-04-18T08:57:25Z</time></trkpt><trkpt lat="43.52135983293891" lon="10.821966969660236"><ele>104.4</ele><time>2026-04-18T08:57:27Z</time></trkpt><trkpt lat="43.52136635936021" lon="10.822110389301603"><ele>104.2</ele><time>2026-04-18T08:57:29Z</time></trkpt><trkpt lat="43.52137976065177" lon="10.822255979833718"><ele>104.0</ele><time>2026-04-18T08:57:31Z</time></trkpt><trkpt lat="43.521411534540896" lon="10.82240816846246"><ele>104.0</ele><time>2026-04-18T08:57:33Z</time></trkpt><trkpt lat="43.52142550901583" lon="10.822556309166467"><ele>104.0</ele><time>2026-04-18T08:57:35Z</time></trkpt><trkpt lat="43.52151138545397" lon="10.822648748480962"><ele>104.0</ele><time>2026-04-18T08:57:37Z</time></trkpt><trkpt lat="43.52160964601628" lon="10.822686538792448"><ele>104.0</ele><time>2026-04-18T08:57:38.999Z</time></trkpt><trkpt lat="43.52168693305866" lon="10.822726886850552"><ele>104.0</ele><time>2026-04-18T08:57:40.999Z</time></trkpt><trkpt lat="43.52175783402237" lon="10.82280560981436"><ele>103.83333333333333</ele><time>2026-04-18T08:57:42.999Z</time></trkpt><trkpt lat="43.521817104754604" lon="10.822944443612155"><ele>103.66666666666666</ele><time>2026-04-18T08:57:44.999Z</time></trkpt><trkpt lat="43.52184273836836" lon="10.82302573749607"><ele>103.5</ele><time>2026-04-18T08:57:45.999Z</time></trkpt><trkpt lat="43.5218652661551" lon="10.823119500108314"><ele>103.33333333333334</ele><time>2026-04-18T08:57:46.999Z</time></trkpt><trkpt lat="43.52190091703378" lon="10.823212592191343"><ele>103.16666666666667</ele><time>2026-04-18T08:57:47.999Z</time></trkpt><trkpt lat="43.521922678207204" lon="10.823318110511586"><ele>103.0</ele><time>2026-04-18T08:57:48.999Z</time></trkpt><trkpt lat="43.52194841543488" lon="10.823423143157383"><ele>103.00000000000001</ele><time>2026-04-18T08:57:49.999Z</time></trkpt><trkpt lat="43.52197417735921" lon="10.823516897454393"><ele>103.0</ele><time>2026-04-18T08:57:50.999Z</time></trkpt><trkpt lat="43.52197889641294" lon="10.823610965814606"><ele>103.0</ele><time>2026-04-18T08:57:51.999Z</time></trkpt><trkpt lat="43.52199428637671" lon="10.823698900298304"><ele>103.0</ele><time>2026-04-18T08:57:52.999Z</time></trkpt><trkpt lat="43.52199332425791" lon="10.823845332585543"><ele>103.00000000000001</ele><time>2026-04-18T08:57:54.999Z</time></trkpt><trkpt lat="43.52196195009044" lon="10.823993144592556"><ele>103.0</ele><time>2026-04-18T08:57:56.999Z</time></trkpt><trkpt lat="43.521917652172895" lon="10.824133928112182"><ele>103.00000000000001</ele><time>2026-04-18T08:57:58.999Z</time></trkpt><trkpt lat="43.52187427799844" lon="10.824287614554082"><ele>103.0</ele><time>2026-04-18T08:58:00.999Z</time></trkpt><trkpt lat="43.52186323538738" lon="10.824376046810169"><ele>103.0</ele><time>2026-04-18T08:58:01.999Z</time></trkpt><trkpt lat="43.521864890680654" lon="10.824467132666483"><ele>103.0</ele><time>2026-04-18T08:58:02.999Z</time></trkpt><trkpt lat="43.52187843034643" lon="10.824643096267994"><ele>103.00000000000001</ele><time>2026-04-18T08:58:04.999Z</time></trkpt><trkpt lat="43.52190554842294" lon="10.824731170302472"><ele>103.0</ele><time>2026-04-18T08:58:05.999Z</time></trkpt><trkpt lat="43.52190953183991" lon="10.824825190008028"><ele>102.2</ele><time>2026-04-18T08:58:06.999Z</time></trkpt><trkpt lat="43.521919080928235" lon="10.82491749879531"><ele>101.4</ele><time>2026-04-18T08:58:07.999Z</time></trkpt><trkpt lat="43.521941451842075" lon="10.825082102891242"><ele>100.60000000000001</ele><time>2026-04-18T08:58:09.999Z</time></trkpt><trkpt lat="43.52196521388116" lon="10.82524118176092"><ele>99.80000000000001</ele><time>2026-04-18T08:58:11.999Z</time></trkpt><trkpt lat="43.521989070448164" lon="10.825397747026102"><ele>99.0</ele><time>2026-04-18T08:58:13.999Z</time></trkpt><trkpt lat="43.52200182960731" lon="10.825565765592236"><ele>98.66666666666667</ele><time>2026-04-18T08:58:15.999Z</time></trkpt><trkpt lat="43.52199596958456" lon="10.825735044935918"><ele>98.33333333333334</ele><time>2026-04-18T08:58:17.999Z</time></trkpt><trkpt lat="43.521966670014365" lon="10.825821265793234"><ele>98.0</ele><time>2026-04-18T08:58:18.999Z</time></trkpt><trkpt lat="43.52197136421513" lon="10.825919381055366"><ele>97.66666666666667</ele><time>2026-04-18T08:58:19.999Z</time></trkpt><trkpt lat="43.521963123543486" lon="10.826015370908681"><ele>97.33333333333334</ele><time>2026-04-18T08:58:20.999Z</time></trkpt><trkpt lat="43.521954317137165" lon="10.82611245713582"><ele>97.0</ele><time>2026-04-18T08:58:21.999Z</time></trkpt><trkpt lat="43.52194820031893" lon="10.826210998247475"><ele>97.00000000000001</ele><time>2026-04-18T08:58:22.999Z</time></trkpt><trkpt lat="43.52194955564637" lon="10.826313141643478"><ele>97.0</ele><time>2026-04-18T08:58:23.999Z</time></trkpt><trkpt lat="43.52195301712006" lon="10.826416142751645"><ele>97.0</ele><time>2026-04-18T08:58:24.999Z</time></trkpt><trkpt lat="43.521971247923695" lon="10.826521351534444"><ele>97.0</ele><time>2026-04-18T08:58:25.999Z</time></trkpt><trkpt lat="43.522000515475405" lon="10.826632132398673"><ele>97.00000000000001</ele><time>2026-04-18T08:58:26.999Z</time></trkpt><trkpt lat="43.52202359949672" lon="10.82674309981526"><ele>97.0</ele><time>2026-04-18T08:58:27.999Z</time></trkpt><trkpt lat="43.522045648553146" lon="10.826856076285534"><ele>97.28571428571428</ele><time>2026-04-18T08:58:28.999Z</time></trkpt><trkpt lat="43.52206753020456" lon="10.826965526905255"><ele>97.57142857142858</ele><time>2026-04-18T08:58:29.999Z</time></trkpt><trkpt lat="43.52208584938441" lon="10.827071194750332"><ele>97.85714285714286</ele><time>2026-04-18T08:58:30.999Z</time></trkpt><trkpt lat="43.5221077043853" lon="10.827175114004397"><ele>98.14285714285714</ele><time>2026-04-18T08:58:31.999Z</time></trkpt><trkpt lat="43.52212767480238" lon="10.827273370018798"><ele>98.42857142857142</ele><time>2026-04-18T08:58:32.999Z</time></trkpt><trkpt lat="43.52214685799436" lon="10.82736299667647"><ele>98.71428571428572</ele><time>2026-04-18T08:58:33.999Z</time></trkpt><trkpt lat="43.522165826839874" lon="10.827446341357588"><ele>99.0</ele><time>2026-04-18T08:58:34.999Z</time></trkpt><trkpt lat="43.522203381454446" lon="10.82757605643001"><ele>98.6</ele><time>2026-04-18T08:58:36.999Z</time></trkpt><trkpt lat="43.522226702364975" lon="10.827684592051721"><ele>98.2</ele><time>2026-04-18T08:58:38.999Z</time></trkpt><trkpt lat="43.52223164511807" lon="10.827803597659301"><ele>97.8</ele><time>2026-04-18T08:58:40.999Z</time></trkpt><trkpt lat="43.522186597101076" lon="10.827889750487854"><ele>97.39999999999999</ele><time>2026-04-18T08:58:42.999Z</time></trkpt><trkpt lat="43.52214215969912" lon="10.8280006107603"><ele>97.0</ele><time>2026-04-18T08:58:44.999Z</time></trkpt><trkpt lat="43.52204161215282" lon="10.828091631591947"><ele>100.25</ele><time>2026-04-18T08:58:46.999Z</time></trkpt><trkpt lat="43.52191764486053" lon="10.828118669094348"><ele>103.5</ele><time>2026-04-18T08:58:48.999Z</time></trkpt><trkpt lat="43.52179655295325" lon="10.828131447761889"><ele>106.75</ele><time>2026-04-18T08:58:50.999Z</time></trkpt><trkpt lat="43.52168614076709" lon="10.82814801273873"><ele>110.0</ele><time>2026-04-18T08:58:52.999Z</time></trkpt><trkpt lat="43.5215824756579" lon="10.828147302136376"><ele>110.0</ele><time>2026-04-18T08:58:54.999Z</time></trkpt><trkpt lat="43.52148591369001" lon="10.828157686661628"><ele>110.0</ele><time>2026-04-18T08:58:56.999Z</time></trkpt><trkpt lat="43.52138213321083" lon="10.828166937275544"><ele>110.0</ele><time>2026-04-18T08:58:58.999Z</time></trkpt><trkpt lat="43.52126760031275" lon="10.828178814700314"><ele>110.0</ele><time>2026-04-18T08:59:00.999Z</time></trkpt><trkpt lat="43.5211584412725" lon="10.82818547740384"><ele>110.0</ele><time>2026-04-18T08:59:02.999Z</time></trkpt><trkpt lat="43.52105683933477" lon="10.828191327484616"><ele>112.6</ele><time>2026-04-18T08:59:04.999Z</time></trkpt><trkpt lat="43.52094915209743" lon="10.828199181073789"><ele>115.2</ele><time>2026-04-18T08:59:06.999Z</time></trkpt><trkpt lat="43.52084517517934" lon="10.828238374986954"><ele>117.80000000000001</ele><time>2026-04-18T08:59:08.999Z</time></trkpt><trkpt lat="43.52074205690922" lon="10.82831106040788"><ele>120.4</ele><time>2026-04-18T08:59:10.999Z</time></trkpt><trkpt lat="43.52064243822636" lon="10.828392373897753"><ele>123.0</ele><time>2026-04-18T08:59:12.999Z</time></trkpt><trkpt lat="43.520555719123585" lon="10.82846137711219"><ele>122.0</ele><time>2026-04-18T08:59:14.999Z</time></trkpt><trkpt lat="43.52049751485747" lon="10.828513621273753"><ele>121.0</ele><time>2026-04-18T08:59:16.999Z</time></trkpt><trkpt lat="43.52042609771017" lon="10.828563935570035"><ele>120.0</ele><time>2026-04-18T08:59:19.999Z</time></trkpt><trkpt lat="43.52034560739071" lon="10.82861950270718"><ele>119.0</ele><time>2026-04-18T08:59:21.999Z</time></trkpt><trkpt lat="43.52024712992722" lon="10.828689633560225"><ele>118.0</ele><time>2026-04-18T08:59:23.999Z</time></trkpt><trkpt lat="43.52016429854169" lon="10.828747141640084"><ele>117.0</ele><time>2026-04-18T08:59:25.999Z</time></trkpt><trkpt lat="43.52007928513544" lon="10.828795573090138"><ele>119.8</ele><time>2026-04-18T08:59:28Z</time></trkpt><trkpt lat="43.519978027410765" lon="10.828826260730054"><ele>122.6</ele><time>2026-04-18T08:59:30Z</time></trkpt><trkpt lat="43.51985292884853" lon="10.828874901669378"><ele>125.39999999999999</ele><time>2026-04-18T08:59:32Z</time></trkpt><trkpt lat="43.51977252091469" lon="10.828903247339317"><ele>128.2</ele><time>2026-04-18T08:59:33Z</time></trkpt><trkpt lat="43.51968722986491" lon="10.828931677683977"><ele>131.0</ele><time>2026-04-18T08:59:34Z</time></trkpt><trkpt lat="43.51959862502993" lon="10.82896121262865"><ele>131.8</ele><time>2026-04-18T08:59:35Z</time></trkpt><trkpt lat="43.51951058915391" lon="10.828990659237881"><ele>132.6</ele><time>2026-04-18T08:59:36Z</time></trkpt><trkpt lat="43.5194237268846" lon="10.829020482087433"><ele>133.4</ele><time>2026-04-18T08:59:37Z</time></trkpt><trkpt lat="43.51933502993402" lon="10.829050934857518"><ele>134.2</ele><time>2026-04-18T08:59:38Z</time></trkpt><trkpt lat="43.51924638476502" lon="10.82908254684846"><ele>135.0</ele><time>2026-04-18T08:59:39Z</time></trkpt><trkpt lat="43.51916308430056" lon="10.829137013073408"><ele>135.0</ele><time>2026-04-18T08:59:40Z</time></trkpt><trkpt lat="43.51907347176799" lon="10.829172639649187"><ele>135.0</ele><time>2026-04-18T08:59:41Z</time></trkpt><trkpt lat="43.51898589616047" lon="10.829208118007228"><ele>135.0</ele><time>2026-04-18T08:59:42Z</time></trkpt><trkpt lat="43.51890439351218" lon="10.829244630324524"><ele>135.0</ele><time>2026-04-18T08:59:42.999Z</time></trkpt><trkpt lat="43.51882972644044" lon="10.829279669933976"><ele>135.0</ele><time>2026-04-18T08:59:43.999Z</time></trkpt><trkpt lat="43.51875855139187" lon="10.82931901856133"><ele>135.0</ele><time>2026-04-18T08:59:44.999Z</time></trkpt><trkpt lat="43.51869028569774" lon="10.829346460753946"><ele>136.6</ele><time>2026-04-18T08:59:45.999Z</time></trkpt><trkpt lat="43.51862311551348" lon="10.829376015354699"><ele>138.2</ele><time>2026-04-18T08:59:46.999Z</time></trkpt><trkpt lat="43.51856084924231" lon="10.829405321006334"><ele>139.8</ele><time>2026-04-18T08:59:47.999Z</time></trkpt><trkpt lat="43.518461236455316" lon="10.829422087361495"><ele>141.4</ele><time>2026-04-18T08:59:49.999Z</time></trkpt><trkpt lat="43.5183579402511" lon="10.829462777372653"><ele>143.0</ele><time>2026-04-18T08:59:51.999Z</time></trkpt><trkpt lat="43.518253894527504" lon="10.829503762596328"><ele>143.0</ele><time>2026-04-18T08:59:53.999Z</time></trkpt><trkpt lat="43.51815237299051" lon="10.829543753516505"><ele>143.0</ele><time>2026-04-18T08:59:55.999Z</time></trkpt><trkpt lat="43.5180535374016" lon="10.829581355137192"><ele>143.0</ele><time>2026-04-18T08:59:57.999Z</time></trkpt><trkpt lat="43.517956224238546" lon="10.829615718661172"><ele>143.0</ele><time>2026-04-18T08:59:59.999Z</time></trkpt><trkpt lat="43.51785649345327" lon="10.829649905479078"><ele>143.0</ele><time>2026-04-18T09:00:01.999Z</time></trkpt><trkpt lat="43.51776335424156" lon="10.829682818434318"><ele>147.25</ele><time>2026-04-18T09:00:03.999Z</time></trkpt><trkpt lat="43.51766723752231" lon="10.829718499942587"><ele>151.5</ele><time>2026-04-18T09:00:05.999Z</time></trkpt><trkpt lat="43.51757693953978" lon="10.82975273443221"><ele>155.75</ele><time>2026-04-18T09:00:07.999Z</time></trkpt><trkpt lat="43.51743904634782" lon="10.8298292937718"><ele>160.0</ele><time>2026-04-18T09:00:10.999Z</time></trkpt><trkpt lat="43.51735544413571" lon="10.829925195789617"><ele>160.0</ele><time>2026-04-18T09:00:12.999Z</time></trkpt><trkpt lat="43.51729564048047" lon="10.830029821244128"><ele>160.0</ele><time>2026-04-18T09:00:14.999Z</time></trkpt><trkpt lat="43.51725334542762" lon="10.830139161704944"><ele>160.0</ele><time>2026-04-18T09:00:16.999Z</time></trkpt><trkpt lat="43.5172198949602" lon="10.830231484980704"><ele>160.0</ele><time>2026-04-18T09:00:18.999Z</time></trkpt><trkpt lat="43.51718159571969" lon="10.830318971469481"><ele>160.0</ele><time>2026-04-18T09:00:21.999Z</time></trkpt><trkpt lat="43.517147023696396" lon="10.83039718565679"><ele>160.0</ele><time>2026-04-18T09:00:32.999Z</time></trkpt><trkpt lat="43.517103526343355" lon="10.830490458577346"><ele>162.42857142857142</ele><time>2026-04-18T09:00:36.999Z</time></trkpt><trkpt lat="43.51706457651024" lon="10.830566370191937"><ele>164.85714285714286</ele><time>2026-04-18T09:00:39Z</time></trkpt><trkpt lat="43.517026035806865" lon="10.830635087137459"><ele>167.28571428571428</ele><time>2026-04-18T09:00:41Z</time></trkpt><trkpt lat="43.516969841279796" lon="10.83073786697857"><ele>169.71428571428572</ele><time>2026-04-18T09:00:44Z</time></trkpt><trkpt lat="43.516931022710914" lon="10.830815043419461"><ele>172.14285714285714</ele><time>2026-04-18T09:00:46Z</time></trkpt><trkpt lat="43.51689195174706" lon="10.830898139468585"><ele>174.57142857142858</ele><time>2026-04-18T09:00:48Z</time></trkpt><trkpt lat="43.51684546615988" lon="10.83099693374345"><ele>177.0</ele><time>2026-04-18T09:00:51Z</time></trkpt><trkpt lat="43.51679659896269" lon="10.831100724859011"><ele>177.0</ele><time>2026-04-18T09:00:54Z</time></trkpt><trkpt lat="43.51675986277223" lon="10.83118028828738"><ele>177.0</ele><time>2026-04-18T09:00:56Z</time></trkpt><trkpt lat="43.51671971868311" lon="10.831258017617687"><ele>177.0</ele><time>2026-04-18T09:00:58Z</time></trkpt><trkpt lat="43.51668105026696" lon="10.831332890521836"><ele>177.0</ele><time>2026-04-18T09:01:00Z</time></trkpt><trkpt lat="43.516643651704634" lon="10.831403251273702"><ele>177.0</ele><time>2026-04-18T09:01:02Z</time></trkpt><trkpt lat="43.51660448508116" lon="10.831476164307004"><ele>177.0</ele><time>2026-04-18T09:01:04Z</time></trkpt><trkpt lat="43.516564381178036" lon="10.83154580137744"><ele>177.0</ele><time>2026-04-18T09:01:06Z</time></trkpt><trkpt lat="43.51652374115929" lon="10.831616369155716"><ele>177.0</ele><time>2026-04-18T09:01:08Z</time></trkpt><trkpt lat="43.51648473160988" lon="10.83169046773664"><ele>177.0</ele><time>2026-04-18T09:01:10Z</time></trkpt><trkpt lat="43.51643000392067" lon="10.831785476037805"><ele>177.0</ele><time>2026-04-18T09:01:13Z</time></trkpt><trkpt lat="43.51635701272261" lon="10.831848806122261"><ele>177.0</ele><time>2026-04-18T09:01:16Z</time></trkpt><trkpt lat="43.51629609623797" lon="10.831871702072775"><ele>177.0</ele><time>2026-04-18T09:01:18Z</time></trkpt><trkpt lat="43.516223696356306" lon="10.831884754964356"><ele>177.0</ele><time>2026-04-18T09:01:20.001Z</time></trkpt><trkpt lat="43.516144415594134" lon="10.831886509807548"><ele>176.16666666666666</ele><time>2026-04-18T09:01:22.001Z</time></trkpt><trkpt lat="43.516073040111934" lon="10.831876879591803"><ele>175.33333333333334</ele><time>2026-04-18T09:01:24.001Z</time></trkpt><trkpt lat="43.516001587869596" lon="10.831835184583136"><ele>174.5</ele><time>2026-04-18T09:01:28.001Z</time></trkpt><trkpt lat="43.515925572952185" lon="10.831767699495577"><ele>173.66666666666669</ele><time>2026-04-18T09:01:31.001Z</time></trkpt><trkpt lat="43.51586701797459" lon="10.83170781029497"><ele>172.83333333333334</ele><time>2026-04-18T09:01:33.001Z</time></trkpt><trkpt lat="43.51580944526677" lon="10.831631204725488"><ele>172.0</ele><time>2026-04-18T09:01:35.001Z</time></trkpt><trkpt lat="43.51575613645908" lon="10.831560273207389"><ele>174.6</ele><time>2026-04-18T09:01:37.001Z</time></trkpt><trkpt lat="43.51569857352482" lon="10.831487969305517"><ele>177.2</ele><time>2026-04-18T09:01:39.001Z</time></trkpt><trkpt lat="43.515634652930096" lon="10.831417795885317"><ele>179.8</ele><time>2026-04-18T09:01:41.001Z</time></trkpt><trkpt lat="43.51556069044078" lon="10.831348342668626"><ele>182.4</ele><time>2026-04-18T09:01:43.001Z</time></trkpt><trkpt lat="43.51547556660605" lon="10.83128206368569"><ele>185.0</ele><time>2026-04-18T09:01:45.001Z</time></trkpt><trkpt lat="43.51537995193554" lon="10.831221476358259"><ele>185.0</ele><time>2026-04-18T09:01:47.001Z</time></trkpt><trkpt lat="43.51527552276212" lon="10.83117416259319"><ele>185.0</ele><time>2026-04-18T09:01:48.998Z</time></trkpt><trkpt lat="43.51518011901901" lon="10.83110097489374"><ele>185.0</ele><time>2026-04-18T09:01:50.998Z</time></trkpt><trkpt lat="43.51508493639348" lon="10.83104290001959"><ele>185.0</ele><time>2026-04-18T09:01:52.998Z</time></trkpt><trkpt lat="43.51497868885248" lon="10.830983600779575"><ele>185.0</ele><time>2026-04-18T09:01:54.998Z</time></trkpt><trkpt lat="43.51491353278518" lon="10.830970414835194"><ele>186.8</ele><time>2026-04-18T09:01:55.998Z</time></trkpt><trkpt lat="43.51478111397605" lon="10.830946706740548"><ele>188.6</ele><time>2026-04-18T09:01:57.999Z</time></trkpt><trkpt lat="43.514710457782584" lon="10.830938746374768"><ele>190.39999999999998</ele><time>2026-04-18T09:01:58.999Z</time></trkpt><trkpt lat="43.51462826408235" lon="10.830936531178583"><ele>192.2</ele><time>2026-04-18T09:01:59.999Z</time></trkpt><trkpt lat="43.51453462544424" lon="10.830944287073928"><ele>194.0</ele><time>2026-04-18T09:02:00.999Z</time></trkpt><trkpt lat="43.514442697357225" lon="10.830958647008474"><ele>193.16666666666669</ele><time>2026-04-18T09:02:01.999Z</time></trkpt><trkpt lat="43.51435865545357" lon="10.830972696588265"><ele>192.33333333333334</ele><time>2026-04-18T09:02:02.999Z</time></trkpt><trkpt lat="43.51428769047293" lon="10.830989836619908"><ele>191.5</ele><time>2026-04-18T09:02:03.999Z</time></trkpt><trkpt lat="43.51422352235474" lon="10.8310051545164"><ele>190.66666666666669</ele><time>2026-04-18T09:02:04.999Z</time></trkpt><trkpt lat="43.514110873698236" lon="10.831023609339024"><ele>189.83333333333334</ele><time>2026-04-18T09:02:06.999Z</time></trkpt><trkpt lat="43.51400428517442" lon="10.831031957897867"><ele>189.0</ele><time>2026-04-18T09:02:08.999Z</time></trkpt><trkpt lat="43.51391292455362" lon="10.831034228496232"><ele>189.0</ele><time>2026-04-18T09:02:10.999Z</time></trkpt><trkpt lat="43.51383067612783" lon="10.831033574323445"><ele>189.0</ele><time>2026-04-18T09:02:12.999Z</time></trkpt><trkpt lat="43.51372974194865" lon="10.831026264188392"><ele>189.0</ele><time>2026-04-18T09:02:14.999Z</time></trkpt><trkpt lat="43.51364163926603" lon="10.831104464523603"><ele>189.0</ele><time>2026-04-18T09:02:16.999Z</time></trkpt><trkpt lat="43.51355350022332" lon="10.831165274521782"><ele>189.0</ele><time>2026-04-18T09:02:18.999Z</time></trkpt><trkpt lat="43.51346627377528" lon="10.831187990201995"><ele>191.5</ele><time>2026-04-18T09:02:20.999Z</time></trkpt><trkpt lat="43.51337928655379" lon="10.83121623792186"><ele>194.0</ele><time>2026-04-18T09:02:22.999Z</time></trkpt><trkpt lat="43.51327123998079" lon="10.831241902793218"><ele>196.5</ele><time>2026-04-18T09:02:24.999Z</time></trkpt><trkpt lat="43.51321210713461" lon="10.831287290263328"><ele>199.0</ele><time>2026-04-18T09:02:25.999Z</time></trkpt><trkpt lat="43.513158468551055" lon="10.831360258277362"><ele>201.5</ele><time>2026-04-18T09:02:26.999Z</time></trkpt><trkpt lat="43.51310504954784" lon="10.831425882187816"><ele>204.0</ele><time>2026-04-18T09:02:27.999Z</time></trkpt><trkpt lat="43.51306708682646" lon="10.831516755204204"><ele>204.0</ele><time>2026-04-18T09:02:28.999Z</time></trkpt><trkpt lat="43.513020858580944" lon="10.831585217313581"><ele>204.0</ele><time>2026-04-18T09:02:29.999Z</time></trkpt><trkpt lat="43.51297516118116" lon="10.831653092735287"><ele>204.0</ele><time>2026-04-18T09:02:30.999Z</time></trkpt><trkpt lat="43.512934337545936" lon="10.831728704350535"><ele>204.0</ele><time>2026-04-18T09:02:32Z</time></trkpt><trkpt lat="43.512892082983306" lon="10.831799373220436"><ele>204.0</ele><time>2026-04-18T09:02:33Z</time></trkpt><trkpt lat="43.51284029075544" lon="10.831860305053947"><ele>204.0</ele><time>2026-04-18T09:02:34Z</time></trkpt><trkpt lat="43.51277509907223" lon="10.83189351055738"><ele>204.0</ele><time>2026-04-18T09:02:35Z</time></trkpt><trkpt lat="43.51271530140861" lon="10.831938616829245"><ele>205.33333333333334</ele><time>2026-04-18T09:02:36Z</time></trkpt><trkpt lat="43.512655768098035" lon="10.831977851101438"><ele>206.66666666666669</ele><time>2026-04-18T09:02:37Z</time></trkpt><trkpt lat="43.51259237560782" lon="10.832014235363879"><ele>208.0</ele><time>2026-04-18T09:02:38Z</time></trkpt><trkpt lat="43.512528377271124" lon="10.83205096751681"><ele>209.33333333333334</ele><time>2026-04-18T09:02:39Z</time></trkpt><trkpt lat="43.51246739651973" lon="10.832085606890287"><ele>210.66666666666669</ele><time>2026-04-18T09:02:40Z</time></trkpt><trkpt lat="43.51236632571559" lon="10.832138479743652"><ele>212.0</ele><time>2026-04-18T09:02:42Z</time></trkpt><trkpt lat="43.512262872156676" lon="10.832197596859768"><ele>212.0</ele><time>2026-04-18T09:02:44Z</time></trkpt><trkpt lat="43.512174501938446" lon="10.83229451788556"><ele>212.0</ele><time>2026-04-18T09:02:46Z</time></trkpt><trkpt lat="43.51211940045194" lon="10.832376541072081"><ele>212.0</ele><time>2026-04-18T09:02:48Z</time></trkpt><trkpt lat="43.51206529621384" lon="10.832464840915616"><ele>212.0</ele><time>2026-04-18T09:02:50Z</time></trkpt><trkpt lat="43.51200155753061" lon="10.832606097038951"><ele>212.0</ele><time>2026-04-18T09:02:52Z</time></trkpt><trkpt lat="43.511985903502" lon="10.832703561573162"><ele>209.83333333333334</ele><time>2026-04-18T09:02:53Z</time></trkpt><trkpt lat="43.51195295159402" lon="10.832796127085274"><ele>207.66666666666669</ele><time>2026-04-18T09:02:54Z</time></trkpt><trkpt lat="43.51191827731696" lon="10.832896775045553"><ele>205.5</ele><time>2026-04-18T09:02:55Z</time></trkpt><trkpt lat="43.51187931722258" lon="10.833000118851976"><ele>203.33333333333331</ele><time>2026-04-18T09:02:56Z</time></trkpt><trkpt lat="43.51183471509427" lon="10.833104385279318"><ele>201.16666666666666</ele><time>2026-04-18T09:02:57Z</time></trkpt><trkpt lat="43.511788219515246" lon="10.83319810033375"><ele>199.0</ele><time>2026-04-18T09:02:58Z</time></trkpt><trkpt lat="43.511728740297386" lon="10.833262077151208"><ele>199.0</ele><time>2026-04-18T09:02:59Z</time></trkpt><trkpt lat="43.5116825935771" lon="10.833327895939084"><ele>199.0</ele><time>2026-04-18T09:03:00Z</time></trkpt><trkpt lat="43.51160818950041" lon="10.833437018231798"><ele>199.0</ele><time>2026-04-18T09:03:02Z</time></trkpt><trkpt lat="43.51151433322821" lon="10.833513208880982"><ele>199.0</ele><time>2026-04-18T09:03:04Z</time></trkpt><trkpt lat="43.51140991948139" lon="10.833609685519427"><ele>199.0</ele><time>2026-04-18T09:03:06Z</time></trkpt><trkpt lat="43.51135388841141" lon="10.83365311644945"><ele>199.33333333333331</ele><time>2026-04-18T09:03:07Z</time></trkpt><trkpt lat="43.51129669179083" lon="10.833703158000594"><ele>199.66666666666666</ele><time>2026-04-18T09:03:08Z</time></trkpt><trkpt lat="43.511227549468764" lon="10.833737069401177"><ele>200.0</ele><time>2026-04-18T09:03:09Z</time></trkpt><trkpt lat="43.51116955640235" lon="10.833783139400822"><ele>200.33333333333331</ele><time>2026-04-18T09:03:10Z</time></trkpt><trkpt lat="43.51112378365296" lon="10.833847238399361"><ele>200.66666666666666</ele><time>2026-04-18T09:03:11Z</time></trkpt><trkpt lat="43.51104728637111" lon="10.833950508447527"><ele>201.0</ele><time>2026-04-18T09:03:13Z</time></trkpt><trkpt lat="43.511043733038335" lon="10.834095765809534"><ele>201.0</ele><time>2026-04-18T09:03:15Z</time></trkpt><trkpt lat="43.51106733662434" lon="10.834247759181917"><ele>201.0</ele><time>2026-04-18T09:03:17Z</time></trkpt><trkpt lat="43.51108817803416" lon="10.834363916268142"><ele>201.0</ele><time>2026-04-18T09:03:19Z</time></trkpt><trkpt lat="43.511092489848416" lon="10.83447807091863"><ele>201.0</ele><time>2026-04-18T09:03:21Z</time></trkpt><trkpt lat="43.51109311158509" lon="10.834612339089222"><ele>201.0</ele><time>2026-04-18T09:03:23Z</time></trkpt><trkpt lat="43.51107133296848" lon="10.834743570099429"><ele>200.66666666666666</ele><time>2026-04-18T09:03:25Z</time></trkpt><trkpt lat="43.51104096090082" lon="10.834871907420151"><ele>200.33333333333331</ele><time>2026-04-18T09:03:27Z</time></trkpt><trkpt lat="43.5110113677223" lon="10.834971197230619"><ele>200.0</ele><time>2026-04-18T09:03:29Z</time></trkpt><trkpt lat="43.510974970221724" lon="10.835063555273983"><ele>199.66666666666666</ele><time>2026-04-18T09:03:31Z</time></trkpt><trkpt lat="43.510933420604324" lon="10.83517420045308"><ele>199.33333333333331</ele><time>2026-04-18T09:03:33Z</time></trkpt><trkpt lat="43.51090746916298" lon="10.835275622350458"><ele>199.0</ele><time>2026-04-18T09:03:35Z</time></trkpt><trkpt lat="43.510883050349925" lon="10.835395803028513"><ele>197.0</ele><time>2026-04-18T09:03:37Z</time></trkpt><trkpt lat="43.510857378732226" lon="10.835532945817432"><ele>195.0</ele><time>2026-04-18T09:03:39Z</time></trkpt><trkpt lat="43.5108313031216" lon="10.835683614520924"><ele>193.0</ele><time>2026-04-18T09:03:41Z</time></trkpt><trkpt lat="43.510808029410946" lon="10.835933094859296"><ele>191.0</ele><time>2026-04-18T09:03:44Z</time></trkpt><trkpt lat="43.51082335764168" lon="10.836093801183317"><ele>190.4</ele><time>2026-04-18T09:03:46Z</time></trkpt><trkpt lat="43.51083120610009" lon="10.836263357375344"><ele>189.8</ele><time>2026-04-18T09:03:48Z</time></trkpt><trkpt lat="43.51083563054652" lon="10.836355943331183"><ele>189.20000000000002</ele><time>2026-04-18T09:03:49Z</time></trkpt><trkpt lat="43.510836963184744" lon="10.836456062706036"><ele>188.60000000000002</ele><time>2026-04-18T09:03:50Z</time></trkpt><trkpt lat="43.51083708967945" lon="10.836663902761122"><ele>188.0</ele><time>2026-04-18T09:03:52Z</time></trkpt><trkpt lat="43.51082125805136" lon="10.836770463395881"><ele>188.33333333333331</ele><time>2026-04-18T09:03:53Z</time></trkpt><trkpt lat="43.51082034218921" lon="10.836876356025261"><ele>188.66666666666666</ele><time>2026-04-18T09:03:54Z</time></trkpt><trkpt lat="43.51081818129351" lon="10.836982347234473"><ele>189.0</ele><time>2026-04-18T09:03:54.997Z</time></trkpt><trkpt lat="43.51081488754694" lon="10.837094632154205"><ele>189.33333333333334</ele><time>2026-04-18T09:03:55.997Z</time></trkpt><trkpt lat="43.51080393517981" lon="10.837201210346603"><ele>189.66666666666669</ele><time>2026-04-18T09:03:56.997Z</time></trkpt><trkpt lat="43.51078187491047" lon="10.837309240448526"><ele>190.0</ele><time>2026-04-18T09:03:57.997Z</time></trkpt><trkpt lat="43.51075208199536" lon="10.83741957581246"><ele>190.0</ele><time>2026-04-18T09:03:58.997Z</time></trkpt><trkpt lat="43.510734016466344" lon="10.837540214338713"><ele>190.0</ele><time>2026-04-18T09:03:59.997Z</time></trkpt><trkpt lat="43.510705149734996" lon="10.837648510017685"><ele>190.0</ele><time>2026-04-18T09:04:00.998Z</time></trkpt><trkpt lat="43.51068401594527" lon="10.837757661728315"><ele>190.0</ele><time>2026-04-18T09:04:01.998Z</time></trkpt><trkpt lat="43.510656970323474" lon="10.837863496737247"><ele>190.0</ele><time>2026-04-18T09:04:02.998Z</time></trkpt><trkpt lat="43.510640763310555" lon="10.837972703778668"><ele>190.0</ele><time>2026-04-18T09:04:03.998Z</time></trkpt><trkpt lat="43.510641518021906" lon="10.83808286811616"><ele>190.16666666666669</ele><time>2026-04-18T09:04:04.998Z</time></trkpt><trkpt lat="43.51065552495209" lon="10.838193156695446"><ele>190.33333333333334</ele><time>2026-04-18T09:04:05.998Z</time></trkpt><trkpt lat="43.51067083489165" lon="10.838302857138896"><ele>190.5</ele><time>2026-04-18T09:04:06.998Z</time></trkpt><trkpt lat="43.510692420554314" lon="10.838408377907005"><ele>190.66666666666666</ele><time>2026-04-18T09:04:07.998Z</time></trkpt><trkpt lat="43.51072108103314" lon="10.8385081657589"><ele>190.83333333333331</ele><time>2026-04-18T09:04:08.998Z</time></trkpt><trkpt lat="43.51074570279465" lon="10.838602183507609"><ele>191.0</ele><time>2026-04-18T09:04:09.998Z</time></trkpt><trkpt lat="43.510784594854506" lon="10.838734845579905"><ele>190.33333333333331</ele><time>2026-04-18T09:04:11.998Z</time></trkpt><trkpt lat="43.51079418736922" lon="10.838834555581679"><ele>189.66666666666666</ele><time>2026-04-18T09:04:13.998Z</time></trkpt><trkpt lat="43.51078637946027" lon="10.838981494456284"><ele>189.0</ele><time>2026-04-18T09:04:15.998Z</time></trkpt><trkpt lat="43.51075976661115" lon="10.839064902520901"><ele>188.33333333333334</ele><time>2026-04-18T09:04:16.998Z</time></trkpt><trkpt lat="43.51074153400449" lon="10.839155181580976"><ele>187.66666666666669</ele><time>2026-04-18T09:04:17.999Z</time></trkpt><trkpt lat="43.51070952270125" lon="10.839240857984626"><ele>187.0</ele><time>2026-04-18T09:04:18.999Z</time></trkpt><trkpt lat="43.51067718171594" lon="10.839340293590716"><ele>186.5</ele><time>2026-04-18T09:04:19.999Z</time></trkpt><trkpt lat="43.51066390924509" lon="10.83943986996139"><ele>186.0</ele><time>2026-04-18T09:04:20.999Z</time></trkpt><trkpt lat="43.5106271054757" lon="10.839528854633514"><ele>185.5</ele><time>2026-04-18T09:04:21.999Z</time></trkpt><trkpt lat="43.51064201273395" lon="10.839626231137185"><ele>185.0</ele><time>2026-04-18T09:04:22.999Z</time></trkpt><trkpt lat="43.51059826898207" lon="10.839766385310604"><ele>184.5</ele><time>2026-04-18T09:04:24.999Z</time></trkpt><trkpt lat="43.510618504944425" lon="10.839891552759191"><ele>184.0</ele><time>2026-04-18T09:04:25.999Z</time></trkpt><trkpt lat="43.510637775890885" lon="10.839985435502255"><ele>184.0</ele><time>2026-04-18T09:04:26.999Z</time></trkpt><trkpt lat="43.51066801516755" lon="10.840087658901542"><ele>184.0</ele><time>2026-04-18T09:04:27.999Z</time></trkpt><trkpt lat="43.51068410047897" lon="10.840210148821408"><ele>184.0</ele><time>2026-04-18T09:04:28.999Z</time></trkpt><trkpt lat="43.5107053524655" lon="10.840348580061345"><ele>184.0</ele><time>2026-04-18T09:04:29.999Z</time></trkpt><trkpt lat="43.51073230409669" lon="10.840492640075995"><ele>184.0</ele><time>2026-04-18T09:04:30.999Z</time></trkpt><trkpt lat="43.51074079058596" lon="10.840644941895537"><ele>183.75</ele><time>2026-04-18T09:04:31.999Z</time></trkpt><trkpt lat="43.51075825175944" lon="10.840800418401713"><ele>183.5</ele><time>2026-04-18T09:04:32.999Z</time></trkpt><trkpt lat="43.51077362679328" lon="10.84096320001906"><ele>183.25</ele><time>2026-04-18T09:04:33.999Z</time></trkpt><trkpt lat="43.510786996332584" lon="10.841127110758329"><ele>183.0</ele><time>2026-04-18T09:04:34.999Z</time></trkpt><trkpt lat="43.51079943026202" lon="10.841283377206963"><ele>183.0</ele><time>2026-04-18T09:04:35.999Z</time></trkpt><trkpt lat="43.510811825169185" lon="10.841439153497586"><ele>183.0</ele><time>2026-04-18T09:04:36.999Z</time></trkpt><trkpt lat="43.51082373579441" lon="10.841588842760403"><ele>183.0</ele><time>2026-04-18T09:04:37.999Z</time></trkpt><trkpt lat="43.51085649692149" lon="10.841731604934376"><ele>183.0</ele><time>2026-04-18T09:04:38.999Z</time></trkpt><trkpt lat="43.51087853080431" lon="10.841860709301347"><ele>183.0</ele><time>2026-04-18T09:04:39.999Z</time></trkpt><trkpt lat="43.51091422152521" lon="10.84198406295584"><ele>183.4</ele><time>2026-04-18T09:04:40.999Z</time></trkpt><trkpt lat="43.51096208814453" lon="10.842108013348629"><ele>183.8</ele><time>2026-04-18T09:04:41.999Z</time></trkpt><trkpt lat="43.51100980546361" lon="10.842227489970305"><ele>184.2</ele><time>2026-04-18T09:04:42.999Z</time></trkpt><trkpt lat="43.51104942075214" lon="10.84234477920244"><ele>184.6</ele><time>2026-04-18T09:04:43.999Z</time></trkpt><trkpt lat="43.51107512291027" lon="10.84245962810952"><ele>185.0</ele><time>2026-04-18T09:04:44.999Z</time></trkpt><trkpt lat="43.51109108999026" lon="10.842575146806702"><ele>184.66666666666666</ele><time>2026-04-18T09:04:45.999Z</time></trkpt><trkpt lat="43.511099045066146" lon="10.842690868094282"><ele>184.33333333333331</ele><time>2026-04-18T09:04:46.999Z</time></trkpt><trkpt lat="43.51108722760099" lon="10.8428044915254"><ele>184.0</ele><time>2026-04-18T09:04:47.999Z</time></trkpt><trkpt lat="43.511085791895056" lon="10.842916433990126"><ele>183.66666666666666</ele><time>2026-04-18T09:04:48.999Z</time></trkpt><trkpt lat="43.51108052392417" lon="10.843026681133853"><ele>183.33333333333334</ele><time>2026-04-18T09:04:49.999Z</time></trkpt><trkpt lat="43.51107147779062" lon="10.84313802932829"><ele>183.0</ele><time>2026-04-18T09:04:51Z</time></trkpt><trkpt lat="43.51105820067142" lon="10.843247703537903"><ele>183.0</ele><time>2026-04-18T09:04:52Z</time></trkpt><trkpt lat="43.5110419087171" lon="10.843359508829197"><ele>183.0</ele><time>2026-04-18T09:04:53Z</time></trkpt><trkpt lat="43.5110413987735" lon="10.843477556300689"><ele>183.0</ele><time>2026-04-18T09:04:54Z</time></trkpt><trkpt lat="43.511006697841495" lon="10.843588690046884"><ele>183.0</ele><time>2026-04-18T09:04:55Z</time></trkpt><trkpt lat="43.51098845175995" lon="10.843702985439549"><ele>183.0</ele><time>2026-04-18T09:04:56Z</time></trkpt><trkpt lat="43.510971417493074" lon="10.843815732361378"><ele>183.0</ele><time>2026-04-18T09:04:57Z</time></trkpt><trkpt lat="43.51096099699944" lon="10.843931700602282"><ele>182.33333333333334</ele><time>2026-04-18T09:04:58Z</time></trkpt><trkpt lat="43.51098455421522" lon="10.844057250265001"><ele>181.66666666666666</ele><time>2026-04-18T09:04:59Z</time></trkpt><trkpt lat="43.51099793243576" lon="10.844189990392827"><ele>181.0</ele><time>2026-04-18T09:05:00Z</time></trkpt><trkpt lat="43.511015128026486" lon="10.844317836653376"><ele>180.33333333333331</ele><time>2026-04-18T09:05:01Z</time></trkpt><trkpt lat="43.511027979327785" lon="10.844434274799392"><ele>179.66666666666666</ele><time>2026-04-18T09:05:02Z</time></trkpt><trkpt lat="43.51104069509022" lon="10.84453859697296"><ele>179.0</ele><time>2026-04-18T09:05:03Z</time></trkpt><trkpt lat="43.51105627571487" lon="10.844632526994054"><ele>178.6</ele><time>2026-04-18T09:05:04Z</time></trkpt><trkpt lat="43.511103226605556" lon="10.844775400487377"><ele>178.2</ele><time>2026-04-18T09:05:06Z</time></trkpt><trkpt lat="43.51113779851714" lon="10.844862737581412"><ele>177.79999999999998</ele><time>2026-04-18T09:05:08Z</time></trkpt><trkpt lat="43.51118822231992" lon="10.844974083012822"><ele>177.39999999999998</ele><time>2026-04-18T09:05:11Z</time></trkpt><trkpt lat="43.5112453315144" lon="10.845085361027888"><ele>177.0</ele><time>2026-04-18T09:05:13Z</time></trkpt><trkpt lat="43.51130960142392" lon="10.845221595380384"><ele>177.0</ele><time>2026-04-18T09:05:15Z</time></trkpt><trkpt lat="43.51134755972388" lon="10.845294602935201"><ele>177.0</ele><time>2026-04-18T09:05:16Z</time></trkpt><trkpt lat="43.51138570129231" lon="10.84537164225652"><ele>177.0</ele><time>2026-04-18T09:05:17Z</time></trkpt><trkpt lat="43.51142719898718" lon="10.845447256065592"><ele>177.0</ele><time>2026-04-18T09:05:18Z</time></trkpt><trkpt lat="43.511470682347905" lon="10.845522665458384"><ele>177.0</ele><time>2026-04-18T09:05:19Z</time></trkpt><trkpt lat="43.51151540123103" lon="10.845594312240317"><ele>177.0</ele><time>2026-04-18T09:05:20Z</time></trkpt><trkpt lat="43.51155736841216" lon="10.845665410186621"><ele>177.0</ele><time>2026-04-18T09:05:21Z</time></trkpt><trkpt lat="43.51159591391609" lon="10.84573952545749"><ele>177.0</ele><time>2026-04-18T09:05:22Z</time></trkpt><trkpt lat="43.511634482003274" lon="10.845817350330343"><ele>177.0</ele><time>2026-04-18T09:05:23Z</time></trkpt><trkpt lat="43.51166754570622" lon="10.845900791271506"><ele>177.0</ele><time>2026-04-18T09:05:24Z</time></trkpt><trkpt lat="43.51169697324149" lon="10.845989369522364"><ele>177.0</ele><time>2026-04-18T09:05:25Z</time></trkpt><trkpt lat="43.51171634565157" lon="10.84608445396752"><ele>177.0</ele><time>2026-04-18T09:05:26Z</time></trkpt><trkpt lat="43.511723857190084" lon="10.846183339081989"><ele>177.0</ele><time>2026-04-18T09:05:27Z</time></trkpt><trkpt lat="43.51172464457631" lon="10.846286374306489"><ele>177.0</ele><time>2026-04-18T09:05:28Z</time></trkpt><trkpt lat="43.5117177515146" lon="10.846392281764588"><ele>177.33333333333334</ele><time>2026-04-18T09:05:29Z</time></trkpt><trkpt lat="43.51170577953555" lon="10.846499245397707"><ele>177.66666666666666</ele><time>2026-04-18T09:05:30Z</time></trkpt><trkpt lat="43.511693798258335" lon="10.846610851468387"><ele>178.0</ele><time>2026-04-18T09:05:31Z</time></trkpt><trkpt lat="43.511681310230344" lon="10.84672291605618"><ele>178.33333333333331</ele><time>2026-04-18T09:05:32Z</time></trkpt><trkpt lat="43.51166199175833" lon="10.84683207295028"><ele>178.66666666666666</ele><time>2026-04-18T09:05:33Z</time></trkpt><trkpt lat="43.51164262446694" lon="10.846939911239346"><ele>179.0</ele><time>2026-04-18T09:05:34Z</time></trkpt><trkpt lat="43.511623521146994" lon="10.847038888376428"><ele>179.00000000000003</ele><time>2026-04-18T09:05:35Z</time></trkpt><trkpt lat="43.51161404340526" lon="10.847126559560799"><ele>179.0</ele><time>2026-04-18T09:05:36Z</time></trkpt><trkpt lat="43.511611178572714" lon="10.847239569515315"><ele>179.0</ele><time>2026-04-18T09:05:38Z</time></trkpt><trkpt lat="43.511604915147" lon="10.847334220997904"><ele>179.0</ele><time>2026-04-18T09:05:40Z</time></trkpt><trkpt lat="43.511617546923326" lon="10.847420371095941"><ele>179.0</ele><time>2026-04-18T09:05:42Z</time></trkpt><trkpt lat="43.511636065186586" lon="10.84753397602682"><ele>179.00000000000003</ele><time>2026-04-18T09:05:45Z</time></trkpt><trkpt lat="43.51164953579362" lon="10.847625361202503"><ele>179.0</ele><time>2026-04-18T09:05:47Z</time></trkpt><trkpt lat="43.51166437223464" lon="10.847737520787183"><ele>179.0</ele><time>2026-04-18T09:05:49Z</time></trkpt><trkpt lat="43.51168011263375" lon="10.84786452979889"><ele>179.0</ele><time>2026-04-18T09:05:51Z</time></trkpt><trkpt lat="43.51169397573279" lon="10.847989654463376"><ele>179.0</ele><time>2026-04-18T09:05:53Z</time></trkpt><trkpt lat="43.511709388194845" lon="10.848114192476967"><ele>179.0</ele><time>2026-04-18T09:05:56Z</time></trkpt><trkpt lat="43.511740582930834" lon="10.84821637317519"><ele>179.0</ele><time>2026-04-18T09:05:59Z</time></trkpt><trkpt lat="43.51176244269304" lon="10.848328705970715"><ele>179.0</ele><time>2026-04-18T09:06:01.998Z</time></trkpt><trkpt lat="43.51179325038214" lon="10.848434671229656"><ele>177.83333333333331</ele><time>2026-04-18T09:06:04.998Z</time></trkpt><trkpt lat="43.511819243367356" lon="10.848525505958015"><ele>176.66666666666666</ele><time>2026-04-18T09:06:07.998Z</time></trkpt><trkpt lat="43.51185257934469" lon="10.848642756836124"><ele>175.5</ele><time>2026-04-18T09:06:10.999Z</time></trkpt><trkpt lat="43.51187675375523" lon="10.84874254290032"><ele>174.33333333333334</ele><time>2026-04-18T09:06:12.999Z</time></trkpt><trkpt lat="43.511905162108036" lon="10.848854529673714"><ele>173.16666666666669</ele><time>2026-04-18T09:06:14.999Z</time></trkpt><trkpt lat="43.511943331705666" lon="10.848970377790712"><ele>172.0</ele><time>2026-04-18T09:06:16.999Z</time></trkpt><trkpt lat="43.51199347486483" lon="10.849083940053374"><ele>172.0</ele><time>2026-04-18T09:06:18.999Z</time></trkpt><trkpt lat="43.51205461094631" lon="10.849193651625663"><ele>172.0</ele><time>2026-04-18T09:06:20.999Z</time></trkpt><trkpt lat="43.512128784748946" lon="10.84931288584957"><ele>172.0</ele><time>2026-04-18T09:06:22.999Z</time></trkpt><trkpt lat="43.51221247929756" lon="10.8494426841456"><ele>172.0</ele><time>2026-04-18T09:06:24.999Z</time></trkpt><trkpt lat="43.51225448746193" lon="10.84950793024294"><ele>172.0</ele><time>2026-04-18T09:06:25.999Z</time></trkpt><trkpt lat="43.512335510895305" lon="10.849626077294419"><ele>172.25</ele><time>2026-04-18T09:06:27.999Z</time></trkpt><trkpt lat="43.512410974930845" lon="10.84973371664675"><ele>172.5</ele><time>2026-04-18T09:06:29.999Z</time></trkpt><trkpt lat="43.51248526423457" lon="10.849846612552822"><ele>172.75</ele><time>2026-04-18T09:06:31.999Z</time></trkpt><trkpt lat="43.51256623227027" lon="10.849961629229416"><ele>173.0</ele><time>2026-04-18T09:06:34Z</time></trkpt><trkpt lat="43.51265550398721" lon="10.850078461853643"><ele>172.57142857142856</ele><time>2026-04-18T09:06:36Z</time></trkpt><trkpt lat="43.51270249058446" lon="10.850136376545763"><ele>172.14285714285717</ele><time>2026-04-18T09:06:37Z</time></trkpt><trkpt lat="43.51275297018853" lon="10.850191184550546"><ele>171.71428571428572</ele><time>2026-04-18T09:06:38Z</time></trkpt><trkpt lat="43.51280531383849" lon="10.850246692112979"><ele>171.28571428571428</ele><time>2026-04-18T09:06:39Z</time></trkpt><trkpt lat="43.51285692074928" lon="10.850304686471295"><ele>170.85714285714283</ele><time>2026-04-18T09:06:40Z</time></trkpt><trkpt lat="43.51290758769133" lon="10.850363968873637"><ele>170.42857142857144</ele><time>2026-04-18T09:06:41Z</time></trkpt><trkpt lat="43.5129579325811" lon="10.850425016837589"><ele>170.0</ele><time>2026-04-18T09:06:42Z</time></trkpt><trkpt lat="43.51300597734954" lon="10.850486538926614"><ele>170.0</ele><time>2026-04-18T09:06:43Z</time></trkpt><trkpt lat="43.51308766584639" lon="10.8505948054542"><ele>170.0</ele><time>2026-04-18T09:06:45Z</time></trkpt><trkpt lat="43.51315527643728" lon="10.850725305216814"><ele>170.0</ele><time>2026-04-18T09:06:47Z</time></trkpt><trkpt lat="43.51319696378777" lon="10.850867448037006"><ele>170.0</ele><time>2026-04-18T09:06:49Z</time></trkpt><trkpt lat="43.51316370735447" lon="10.851004982885033"><ele>170.0</ele><time>2026-04-18T09:06:51Z</time></trkpt><trkpt lat="43.5131104611673" lon="10.851127830270823"><ele>170.4</ele><time>2026-04-18T09:06:53Z</time></trkpt><trkpt lat="43.51306346743898" lon="10.851253019792019"><ele>170.8</ele><time>2026-04-18T09:06:55Z</time></trkpt><trkpt lat="43.5130285253473" lon="10.851402801359507"><ele>171.2</ele><time>2026-04-18T09:06:57Z</time></trkpt><trkpt lat="43.513004466073575" lon="10.851572762519513"><ele>171.6</ele><time>2026-04-18T09:06:59Z</time></trkpt><trkpt lat="43.512989516756704" lon="10.851719316985616"><ele>172.0</ele><time>2026-04-18T09:07:01Z</time></trkpt><trkpt lat="43.51297507696089" lon="10.851850687799864"><ele>172.0</ele><time>2026-04-18T09:07:03Z</time></trkpt><trkpt lat="43.5129432672338" lon="10.851994969640451"><ele>172.0</ele><time>2026-04-18T09:07:05Z</time></trkpt><trkpt lat="43.51289651794248" lon="10.852148923090006"><ele>172.0</ele><time>2026-04-18T09:07:07Z</time></trkpt><trkpt lat="43.512860692452385" lon="10.85226253553639"><ele>172.0</ele><time>2026-04-18T09:07:09Z</time></trkpt><trkpt lat="43.5128223205097" lon="10.852384402398478"><ele>172.0</ele><time>2026-04-18T09:07:11Z</time></trkpt><trkpt lat="43.512764101450905" lon="10.852521134735529"><ele>172.6</ele><time>2026-04-18T09:07:13Z</time></trkpt><trkpt lat="43.51267670936579" lon="10.852628629703617"><ele>173.2</ele><time>2026-04-18T09:07:15Z</time></trkpt><trkpt lat="43.51258612408823" lon="10.8527053881639"><ele>173.8</ele><time>2026-04-18T09:07:17Z</time></trkpt><trkpt lat="43.51247764104269" lon="10.852772748297392"><ele>174.4</ele><time>2026-04-18T09:07:19.001Z</time></trkpt><trkpt lat="43.512420705483464" lon="10.852823799624245"><ele>175.0</ele><time>2026-04-18T09:07:20.001Z</time></trkpt><trkpt lat="43.51238757800311" lon="10.852910851809114"><ele>175.0</ele><time>2026-04-18T09:07:21.001Z</time></trkpt><trkpt lat="43.51235770464224" lon="10.852990742863144"><ele>175.0</ele><time>2026-04-18T09:07:22.001Z</time></trkpt><trkpt lat="43.512341690254644" lon="10.853084010351154"><ele>175.0</ele><time>2026-04-18T09:07:23.001Z</time></trkpt><trkpt lat="43.51232454849525" lon="10.853179264555063"><ele>175.0</ele><time>2026-04-18T09:07:24.001Z</time></trkpt><trkpt lat="43.51231884265443" lon="10.853281308364464"><ele>175.0</ele><time>2026-04-18T09:07:25.001Z</time></trkpt><trkpt lat="43.512320241135846" lon="10.853390992751304"><ele>175.0</ele><time>2026-04-18T09:07:26.001Z</time></trkpt><trkpt lat="43.51230455019628" lon="10.853496438042386"><ele>175.0</ele><time>2026-04-18T09:07:27.001Z</time></trkpt><trkpt lat="43.51230132508714" lon="10.85363486774053"><ele>175.0</ele><time>2026-04-18T09:07:29.001Z</time></trkpt><trkpt lat="43.51229743524228" lon="10.853731667177206"><ele>175.0</ele><time>2026-04-18T09:07:31.001Z</time></trkpt><trkpt lat="43.51229043542344" lon="10.853852612684628"><ele>175.0</ele><time>2026-04-18T09:07:33.001Z</time></trkpt><trkpt lat="43.51228000204821" lon="10.854004269419203"><ele>175.0</ele><time>2026-04-18T09:07:35.001Z</time></trkpt><trkpt lat="43.51227377212299" lon="10.854092129806846"><ele>175.0</ele><time>2026-04-18T09:07:36.001Z</time></trkpt><trkpt lat="43.51226739267799" lon="10.854182098730004"><ele>175.0</ele><time>2026-04-18T09:07:37.001Z</time></trkpt><trkpt lat="43.51226069063925" lon="10.854278434291716"><ele>175.16666666666669</ele><time>2026-04-18T09:07:38.001Z</time></trkpt><trkpt lat="43.51225422968032" lon="10.854379951050479"><ele>175.33333333333334</ele><time>2026-04-18T09:07:39.001Z</time></trkpt><trkpt lat="43.5122473130331" lon="10.854488627633417"><ele>175.5</ele><time>2026-04-18T09:07:40.001Z</time></trkpt><trkpt lat="43.512240865082696" lon="10.854599659485423"><ele>175.66666666666666</ele><time>2026-04-18T09:07:41.001Z</time></trkpt><trkpt lat="43.51223558295935" lon="10.854710462206182"><ele>175.83333333333331</ele><time>2026-04-18T09:07:42.001Z</time></trkpt><trkpt lat="43.512231622136866" lon="10.854822180544158"><ele>176.0</ele><time>2026-04-18T09:07:43.001Z</time></trkpt><trkpt lat="43.512226924596696" lon="10.854935870894295"><ele>176.0</ele><time>2026-04-18T09:07:44.001Z</time></trkpt><trkpt lat="43.512219986942895" lon="10.855045697082897"><ele>176.0</ele><time>2026-04-18T09:07:45.001Z</time></trkpt><trkpt lat="43.51221249192113" lon="10.85515945028479"><ele>176.0</ele><time>2026-04-18T09:07:46.001Z</time></trkpt><trkpt lat="43.51220186235087" lon="10.855272965639058"><ele>176.0</ele><time>2026-04-18T09:07:47.001Z</time></trkpt><trkpt lat="43.51218941411453" lon="10.855389622060008"><ele>176.0</ele><time>2026-04-18T09:07:48.001Z</time></trkpt><trkpt lat="43.512176707098654" lon="10.85550870358052"><ele>176.0</ele><time>2026-04-18T09:07:49.001Z</time></trkpt><trkpt lat="43.512167287321454" lon="10.85563415623662"><ele>176.20000000000002</ele><time>2026-04-18T09:07:50.001Z</time></trkpt><trkpt lat="43.512157975029034" lon="10.855759957724235"><ele>176.4</ele><time>2026-04-18T09:07:51.001Z</time></trkpt><trkpt lat="43.51214845326231" lon="10.85588801761822"><ele>176.6</ele><time>2026-04-18T09:07:52.001Z</time></trkpt><trkpt lat="43.512137937644894" lon="10.856017810558718"><ele>176.8</ele><time>2026-04-18T09:07:53.001Z</time></trkpt><trkpt lat="43.51212586273869" lon="10.856148145257212"><ele>177.0</ele><time>2026-04-18T09:07:54.001Z</time></trkpt><trkpt lat="43.51211106987256" lon="10.856274720722016"><ele>177.33333333333334</ele><time>2026-04-18T09:07:55.001Z</time></trkpt><trkpt lat="43.51209465048026" lon="10.856394848997803"><ele>177.66666666666666</ele><time>2026-04-18T09:07:56.001Z</time></trkpt><trkpt lat="43.51208168494852" lon="10.856502837069549"><ele>178.0</ele><time>2026-04-18T09:07:57.001Z</time></trkpt><trkpt lat="43.512070696429625" lon="10.856607749938956"><ele>178.33333333333331</ele><time>2026-04-18T09:07:58.001Z</time></trkpt><trkpt lat="43.51204455991867" lon="10.856718738695436"><ele>178.66666666666666</ele><time>2026-04-18T09:07:59.001Z</time></trkpt><trkpt lat="43.512029375781296" lon="10.856824903299746"><ele>179.0</ele><time>2026-04-18T09:08:00.001Z</time></trkpt><trkpt lat="43.51203725050858" lon="10.856933954761313"><ele>179.2857142857143</ele><time>2026-04-18T09:08:01.001Z</time></trkpt><trkpt lat="43.51203277259583" lon="10.857030357921602"><ele>179.57142857142858</ele><time>2026-04-18T09:08:02.001Z</time></trkpt><trkpt lat="43.51202874462279" lon="10.857124208999483"><ele>179.85714285714286</ele><time>2026-04-18T09:08:03.001Z</time></trkpt><trkpt lat="43.5120314614509" lon="10.85721589884434"><ele>180.14285714285717</ele><time>2026-04-18T09:08:04.001Z</time></trkpt><trkpt lat="43.512040625203106" lon="10.857310655859514"><ele>180.42857142857142</ele><time>2026-04-18T09:08:05.001Z</time></trkpt><trkpt lat="43.512054369950995" lon="10.857405309187879"><ele>180.71428571428572</ele><time>2026-04-18T09:08:06.001Z</time></trkpt><trkpt lat="43.51207726806308" lon="10.857496152818722"><ele>181.0</ele><time>2026-04-18T09:08:06.999Z</time></trkpt><trkpt lat="43.51210344653281" lon="10.857588857195038"><ele>181.33333333333334</ele><time>2026-04-18T09:08:07.999Z</time></trkpt><trkpt lat="43.512113413911486" lon="10.857687795949682"><ele>181.66666666666669</ele><time>2026-04-18T09:08:08.999Z</time></trkpt><trkpt lat="43.512139268159295" lon="10.857784543723385"><ele>182.0</ele><time>2026-04-18T09:08:09.999Z</time></trkpt><trkpt lat="43.51216622515931" lon="10.857879586754121"><ele>182.33333333333334</ele><time>2026-04-18T09:08:10.999Z</time></trkpt><trkpt lat="43.51219021244208" lon="10.857964158655793"><ele>182.66666666666666</ele><time>2026-04-18T09:08:11.999Z</time></trkpt><trkpt lat="43.51224991266501" lon="10.858108159786452"><ele>183.0</ele><time>2026-04-18T09:08:13.999Z</time></trkpt><trkpt lat="43.51227647721137" lon="10.858254694655798"><ele>183.0</ele><time>2026-04-18T09:08:15.999Z</time></trkpt><trkpt lat="43.51231602430512" lon="10.858372374104391"><ele>183.0</ele><time>2026-04-18T09:08:18Z</time></trkpt><trkpt lat="43.51234851921655" lon="10.858469607028141"><ele>183.0</ele><time>2026-04-18T09:08:20Z</time></trkpt><trkpt lat="43.51238542972449" lon="10.858580678648513"><ele>183.0</ele><time>2026-04-18T09:08:22Z</time></trkpt><trkpt lat="43.51243299397045" lon="10.858694949975996"><ele>183.0</ele><time>2026-04-18T09:08:24Z</time></trkpt><trkpt lat="43.51250791588416" lon="10.858817963663743"><ele>182.5</ele><time>2026-04-18T09:08:26Z</time></trkpt><trkpt lat="43.51259619280165" lon="10.858947728535233"><ele>182.0</ele><time>2026-04-18T09:08:28Z</time></trkpt><trkpt lat="43.512644595459214" lon="10.859013784290761"><ele>181.5</ele><time>2026-04-18T09:08:29Z</time></trkpt><trkpt lat="43.512694080522834" lon="10.859084368795122"><ele>181.0</ele><time>2026-04-18T09:08:30Z</time></trkpt><trkpt lat="43.51274203641021" lon="10.859160746691451"><ele>180.5</ele><time>2026-04-18T09:08:31Z</time></trkpt><trkpt lat="43.5127878901907" lon="10.85924270009001"><ele>180.0</ele><time>2026-04-18T09:08:32Z</time></trkpt><trkpt lat="43.512835075817435" lon="10.859323753784448"><ele>180.83333333333334</ele><time>2026-04-18T09:08:33Z</time></trkpt><trkpt lat="43.512885100877234" lon="10.859400018857695"><ele>181.66666666666666</ele><time>2026-04-18T09:08:34Z</time></trkpt><trkpt lat="43.51293436352794" lon="10.859471652193644"><ele>182.5</ele><time>2026-04-18T09:08:35Z</time></trkpt><trkpt lat="43.51299097856457" lon="10.859534811610034"><ele>183.33333333333331</ele><time>2026-04-18T09:08:36Z</time></trkpt><trkpt lat="43.51304986285551" lon="10.859593008230586"><ele>184.16666666666666</ele><time>2026-04-18T09:08:37Z</time></trkpt><trkpt lat="43.51316721061949" lon="10.85970507837961"><ele>185.0</ele><time>2026-04-18T09:08:39Z</time></trkpt><trkpt lat="43.513223255368914" lon="10.859761616305256"><ele>185.0</ele><time>2026-04-18T09:08:40Z</time></trkpt><trkpt lat="43.51327225061339" lon="10.85982688488943"><ele>185.0</ele><time>2026-04-18T09:08:41Z</time></trkpt><trkpt lat="43.51331529233438" lon="10.859897002926356"><ele>185.0</ele><time>2026-04-18T09:08:42Z</time></trkpt><trkpt lat="43.51335797437087" lon="10.859963609706154"><ele>185.0</ele><time>2026-04-18T09:08:43Z</time></trkpt><trkpt lat="43.5134399091412" lon="10.860092422308991"><ele>185.0</ele><time>2026-04-18T09:08:45Z</time></trkpt><trkpt lat="43.513483098648" lon="10.860156141408266"><ele>185.0</ele><time>2026-04-18T09:08:46Z</time></trkpt><trkpt lat="43.513530678802255" lon="10.8602167797539"><ele>184.6</ele><time>2026-04-18T09:08:47Z</time></trkpt><trkpt lat="43.51360613813112" lon="10.860350047475686"><ele>184.2</ele><time>2026-04-18T09:08:49Z</time></trkpt><trkpt lat="43.51369970940486" lon="10.860433991509005"><ele>183.8</ele><time>2026-04-18T09:08:51Z</time></trkpt><trkpt lat="43.513784980959755" lon="10.860505530466837"><ele>183.4</ele><time>2026-04-18T09:08:53.001Z</time></trkpt><trkpt lat="43.51384932432608" lon="10.860536491648036"><ele>183.0</ele><time>2026-04-18T09:08:56.001Z</time></trkpt><trkpt lat="43.51392510813182" lon="10.860575215182955"><ele>184.83333333333334</ele><time>2026-04-18T09:08:59.001Z</time></trkpt><trkpt lat="43.51400269753038" lon="10.860599621865415"><ele>186.66666666666669</ele><time>2026-04-18T09:09:01.001Z</time></trkpt><trkpt lat="43.51407701375786" lon="10.860660494547256"><ele>188.5</ele><time>2026-04-18T09:09:03.001Z</time></trkpt><trkpt lat="43.514148101470475" lon="10.860713000380471"><ele>190.33333333333334</ele><time>2026-04-18T09:09:05.001Z</time></trkpt><trkpt lat="43.5142124186357" lon="10.86080496223131"><ele>192.16666666666669</ele><time>2026-04-18T09:09:07.001Z</time></trkpt><trkpt lat="43.514270583414756" lon="10.860927322213673"><ele>194.0</ele><time>2026-04-18T09:09:09.001Z</time></trkpt><trkpt lat="43.51433222096667" lon="10.861059158256483"><ele>195.6</ele><time>2026-04-18T09:09:11.001Z</time></trkpt><trkpt lat="43.514348878628645" lon="10.861208323186831"><ele>197.2</ele><time>2026-04-18T09:09:13.001Z</time></trkpt><trkpt lat="43.51439482797864" lon="10.861351171378038"><ele>198.79999999999998</ele><time>2026-04-18T09:09:15.001Z</time></trkpt><trkpt lat="43.51441967986908" lon="10.861500913203521"><ele>200.39999999999998</ele><time>2026-04-18T09:09:17.001Z</time></trkpt><trkpt lat="43.51439932331965" lon="10.861651823735533"><ele>202.0</ele><time>2026-04-18T09:09:19.001Z</time></trkpt><trkpt lat="43.51432324256623" lon="10.861757191372067"><ele>202.49999999999997</ele><time>2026-04-18T09:09:21.001Z</time></trkpt><trkpt lat="43.51425080239587" lon="10.861842522220726"><ele>203.0</ele><time>2026-04-18T09:09:23.001Z</time></trkpt><trkpt lat="43.51417138894078" lon="10.861870536491978"><ele>203.5</ele><time>2026-04-18T09:09:25.001Z</time></trkpt><trkpt lat="43.51410707122317" lon="10.861909230623539"><ele>204.0</ele><time>2026-04-18T09:09:27.001Z</time></trkpt><trkpt lat="43.51403810699978" lon="10.861990777191584"><ele>204.49999999999997</ele><time>2026-04-18T09:09:29.001Z</time></trkpt><trkpt lat="43.513966354127" lon="10.86210603859792"><ele>205.0</ele><time>2026-04-18T09:09:31.001Z</time></trkpt><trkpt lat="43.51390132761903" lon="10.86224510934575"><ele>204.99999999999997</ele><time>2026-04-18T09:09:33.001Z</time></trkpt><trkpt lat="43.513877719639936" lon="10.862327294730978"><ele>205.0</ele><time>2026-04-18T09:09:34.001Z</time></trkpt><trkpt lat="43.51386891291123" lon="10.86249919328466"><ele>205.0</ele><time>2026-04-18T09:09:36.001Z</time></trkpt><trkpt lat="43.513850093018426" lon="10.86258510809694"><ele>205.0</ele><time>2026-04-18T09:09:37.001Z</time></trkpt><trkpt lat="43.513865914589175" lon="10.862679517615911"><ele>204.99999999999997</ele><time>2026-04-18T09:09:38.001Z</time></trkpt><trkpt lat="43.51385686040783" lon="10.862770628098641"><ele>205.0</ele><time>2026-04-18T09:09:39.001Z</time></trkpt><trkpt lat="43.51386253711105" lon="10.862864980376516"><ele>205.71428571428572</ele><time>2026-04-18T09:09:40.001Z</time></trkpt><trkpt lat="43.513881256171345" lon="10.862960324556605"><ele>206.42857142857142</ele><time>2026-04-18T09:09:41.001Z</time></trkpt><trkpt lat="43.513921517880256" lon="10.863046500224582"><ele>207.14285714285714</ele><time>2026-04-18T09:09:42.001Z</time></trkpt><trkpt lat="43.5139567701019" lon="10.86313484664538"><ele>207.85714285714286</ele><time>2026-04-18T09:09:43.001Z</time></trkpt><trkpt lat="43.513995223136" lon="10.863220078806615"><ele>208.57142857142856</ele><time>2026-04-18T09:09:44.002Z</time></trkpt><trkpt lat="43.514041239831734" lon="10.86329873225015"><ele>209.28571428571428</ele><time>2026-04-18T09:09:45.002Z</time></trkpt><trkpt lat="43.51408875117435" lon="10.863378610367878"><ele>210.0</ele><time>2026-04-18T09:09:46.002Z</time></trkpt><trkpt lat="43.51413537773368" lon="10.86345634280823"><ele>210.85714285714286</ele><time>2026-04-18T09:09:47.002Z</time></trkpt><trkpt lat="43.514178453336974" lon="10.863533214669737"><ele>211.71428571428572</ele><time>2026-04-18T09:09:48.002Z</time></trkpt><trkpt lat="43.5141941839088" lon="10.86363114309129"><ele>212.57142857142856</ele><time>2026-04-18T09:09:49.002Z</time></trkpt><trkpt lat="43.51421220224879" lon="10.863724645132177"><ele>213.42857142857144</ele><time>2026-04-18T09:09:50.002Z</time></trkpt><trkpt lat="43.51421221860117" lon="10.863821415292646"><ele>214.28571428571428</ele><time>2026-04-18T09:09:51.002Z</time></trkpt><trkpt lat="43.51422397813736" lon="10.863924211917388"><ele>215.14285714285714</ele><time>2026-04-18T09:09:52.002Z</time></trkpt><trkpt lat="43.514236293009866" lon="10.864031861443623"><ele>216.0</ele><time>2026-04-18T09:09:53.002Z</time></trkpt><trkpt lat="43.514264401188534" lon="10.864140503519941"><ele>216.0</ele><time>2026-04-18T09:09:54.002Z</time></trkpt><trkpt lat="43.51427336252069" lon="10.864252164294555"><ele>216.0</ele><time>2026-04-18T09:09:55.002Z</time></trkpt><trkpt lat="43.514270279002076" lon="10.864365145492512"><ele>216.0</ele><time>2026-04-18T09:09:56.002Z</time></trkpt><trkpt lat="43.51427830806103" lon="10.86447975134403"><ele>216.0</ele><time>2026-04-18T09:09:57.002Z</time></trkpt><trkpt lat="43.5142859418359" lon="10.86459219997588"><ele>216.0</ele><time>2026-04-18T09:09:58.002Z</time></trkpt><trkpt lat="43.51430590901649" lon="10.864699739391337"><ele>216.0</ele><time>2026-04-18T09:09:59.002Z</time></trkpt><trkpt lat="43.514314152086456" lon="10.864808037849985"><ele>217.28571428571428</ele><time>2026-04-18T09:10:00.002Z</time></trkpt><trkpt lat="43.51432221291993" lon="10.864911941229694"><ele>218.57142857142856</ele><time>2026-04-18T09:10:01.002Z</time></trkpt><trkpt lat="43.51432577433916" lon="10.865014195153863"><ele>219.8571428571429</ele><time>2026-04-18T09:10:02.002Z</time></trkpt><trkpt lat="43.514337570875384" lon="10.865109999023137"><ele>221.14285714285717</ele><time>2026-04-18T09:10:03.002Z</time></trkpt><trkpt lat="43.514350658057076" lon="10.865209547296956"><ele>222.42857142857144</ele><time>2026-04-18T09:10:04.002Z</time></trkpt><trkpt lat="43.51436419696207" lon="10.865307685096944"><ele>223.71428571428575</ele><time>2026-04-18T09:10:05.002Z</time></trkpt><trkpt lat="43.514374994742305" lon="10.865399143860198"><ele>225.00000000000003</ele><time>2026-04-18T09:10:06.002Z</time></trkpt><trkpt lat="43.514382624434724" lon="10.865488118093102"><ele>227.5</ele><time>2026-04-18T09:10:07.002Z</time></trkpt><trkpt lat="43.514397040606774" lon="10.86564847266083"><ele>230.0</ele><time>2026-04-18T09:10:09.002Z</time></trkpt><trkpt lat="43.51441017718174" lon="10.865803770543817"><ele>232.5</ele><time>2026-04-18T09:10:11.002Z</time></trkpt><trkpt lat="43.51442663570741" lon="10.86596156411956"><ele>235.0</ele><time>2026-04-18T09:10:13Z</time></trkpt><trkpt lat="43.514457435806385" lon="10.866128927896924"><ele>234.85714285714283</ele><time>2026-04-18T09:10:15Z</time></trkpt><trkpt lat="43.51447577920852" lon="10.86621627172977"><ele>234.7142857142857</ele><time>2026-04-18T09:10:16Z</time></trkpt><trkpt lat="43.51449422267393" lon="10.866307467213865"><ele>234.57142857142856</ele><time>2026-04-18T09:10:17Z</time></trkpt><trkpt lat="43.514515196726464" lon="10.866404507133314"><ele>234.42857142857144</ele><time>2026-04-18T09:10:18Z</time></trkpt><trkpt lat="43.514538347704786" lon="10.866507139403582"><ele>234.2857142857143</ele><time>2026-04-18T09:10:19Z</time></trkpt><trkpt lat="43.51455699671479" lon="10.866614515803166"><ele>234.14285714285717</ele><time>2026-04-18T09:10:20Z</time></trkpt><trkpt lat="43.5145685410409" lon="10.866721626002732"><ele>234.0</ele><time>2026-04-18T09:10:21Z</time></trkpt><trkpt lat="43.51457204616181" lon="10.8668256170319"><ele>234.0</ele><time>2026-04-18T09:10:22Z</time></trkpt><trkpt lat="43.51456801674962" lon="10.866933829851485"><ele>234.0</ele><time>2026-04-18T09:10:23Z</time></trkpt><trkpt lat="43.514559553260916" lon="10.867046606566996"><ele>234.0</ele><time>2026-04-18T09:10:24Z</time></trkpt><trkpt lat="43.5145666141204" lon="10.867165674592133"><ele>234.0</ele><time>2026-04-18T09:10:25Z</time></trkpt><trkpt lat="43.514577666304604" lon="10.86729672940002"><ele>234.0</ele><time>2026-04-18T09:10:26Z</time></trkpt><trkpt lat="43.51461274911695" lon="10.867425846648835"><ele>234.0</ele><time>2026-04-18T09:10:27Z</time></trkpt><trkpt lat="43.51466412334505" lon="10.867554505817404"><ele>235.39999999999998</ele><time>2026-04-18T09:10:28Z</time></trkpt><trkpt lat="43.514720198592315" lon="10.867674826656541"><ele>236.79999999999998</ele><time>2026-04-18T09:10:29Z</time></trkpt><trkpt lat="43.51478400165887" lon="10.867783725470456"><ele>238.20000000000002</ele><time>2026-04-18T09:10:30Z</time></trkpt><trkpt lat="43.51483034825569" lon="10.867900103743013"><ele>239.60000000000002</ele><time>2026-04-18T09:10:31Z</time></trkpt><trkpt lat="43.51488293155404" lon="10.868005961960304"><ele>241.0</ele><time>2026-04-18T09:10:32Z</time></trkpt><trkpt lat="43.51493734998477" lon="10.868095326706358"><ele>241.0</ele><time>2026-04-18T09:10:33Z</time></trkpt><trkpt lat="43.51498693765947" lon="10.86817941683973"><ele>241.00000000000003</ele><time>2026-04-18T09:10:34.001Z</time></trkpt><trkpt lat="43.51503788327826" lon="10.868269720306015"><ele>241.00000000000003</ele><time>2026-04-18T09:10:35.001Z</time></trkpt><trkpt lat="43.51509597436437" lon="10.868373677965964"><ele>241.0</ele><time>2026-04-18T09:10:36.001Z</time></trkpt><trkpt lat="43.51515898783832" lon="10.868484596143508"><ele>241.0</ele><time>2026-04-18T09:10:37.001Z</time></trkpt><trkpt lat="43.51522729163774" lon="10.868603253440874"><ele>240.0</ele><time>2026-04-18T09:10:38.001Z</time></trkpt><trkpt lat="43.515300661265904" lon="10.868728547635541"><ele>239.0</ele><time>2026-04-18T09:10:39.001Z</time></trkpt><trkpt lat="43.51538053626852" lon="10.868852933916115"><ele>238.0</ele><time>2026-04-18T09:10:40.001Z</time></trkpt><trkpt lat="43.515465866543565" lon="10.868974812040477"><ele>237.0</ele><time>2026-04-18T09:10:41.001Z</time></trkpt><trkpt lat="43.51555599955076" lon="10.869092271440016"><ele>240.33333333333331</ele><time>2026-04-18T09:10:42.001Z</time></trkpt><trkpt lat="43.51563389954371" lon="10.869226875370988"><ele>243.66666666666666</ele><time>2026-04-18T09:10:43.001Z</time></trkpt><trkpt lat="43.515824683350395" lon="10.869453603957993"><ele>247.0</ele><time>2026-04-18T09:10:45.001Z</time></trkpt><trkpt lat="43.5159029589066" lon="10.869584978783742"><ele>248.39999999999998</ele><time>2026-04-18T09:10:46.001Z</time></trkpt><trkpt lat="43.51598275075297" lon="10.869696757550825"><ele>249.79999999999998</ele><time>2026-04-18T09:10:47.001Z</time></trkpt><trkpt lat="43.51605496823166" lon="10.869799001281994"><ele>251.2</ele><time>2026-04-18T09:10:48.001Z</time></trkpt><trkpt lat="43.516119155032676" lon="10.869889083088012"><ele>252.6</ele><time>2026-04-18T09:10:49.001Z</time></trkpt><trkpt lat="43.51617446569804" lon="10.869973230666222"><ele>254.0</ele><time>2026-04-18T09:10:50.001Z</time></trkpt><trkpt lat="43.5162231771504" lon="10.870053356228718"><ele>258.5</ele><time>2026-04-18T09:10:51.001Z</time></trkpt><trkpt lat="43.51626156073005" lon="10.870131645680996"><ele>263.0</ele><time>2026-04-18T09:10:52.001Z</time></trkpt><trkpt lat="43.516298343500026" lon="10.87029218178247"><ele>267.5</ele><time>2026-04-18T09:10:54.001Z</time></trkpt><trkpt lat="43.5162923804309" lon="10.87038088345908"><ele>272.0</ele><time>2026-04-18T09:10:55.001Z</time></trkpt><trkpt lat="43.516278305077854" lon="10.870473433548836"><ele>276.5</ele><time>2026-04-18T09:10:56.001Z</time></trkpt><trkpt lat="43.516269230263475" lon="10.870573428590713"><ele>281.0</ele><time>2026-04-18T09:10:57.001Z</time></trkpt><trkpt lat="43.516262457969106" lon="10.870674682292496"><ele>281.0</ele><time>2026-04-18T09:10:58.001Z</time></trkpt><trkpt lat="43.51626310938983" lon="10.870774503231438"><ele>281.0</ele><time>2026-04-18T09:10:59.001Z</time></trkpt><trkpt lat="43.51625222303898" lon="10.870860904043928"><ele>281.0</ele><time>2026-04-18T09:11:00.001Z</time></trkpt><trkpt lat="43.51619660480143" lon="10.870947985073647"><ele>281.0</ele><time>2026-04-18T09:11:02.001Z</time></trkpt><trkpt lat="43.516109480875635" lon="10.87096045441071"><ele>281.0</ele><time>2026-04-18T09:11:04.001Z</time></trkpt><trkpt lat="43.51599531794548" lon="10.870953749263862"><ele>281.0</ele><time>2026-04-18T09:11:06.001Z</time></trkpt><trkpt lat="43.515932710148405" lon="10.870964615470541"><ele>281.83333333333337</ele><time>2026-04-18T09:11:07.001Z</time></trkpt><trkpt lat="43.51585751343492" lon="10.870959579606025"><ele>282.6666666666667</ele><time>2026-04-18T09:11:08.001Z</time></trkpt><trkpt lat="43.51579059662013" lon="10.871007373378065"><ele>283.5</ele><time>2026-04-18T09:11:09.001Z</time></trkpt><trkpt lat="43.515742351290555" lon="10.871095659190743"><ele>284.3333333333333</ele><time>2026-04-18T09:11:10.001Z</time></trkpt><trkpt lat="43.51569202847391" lon="10.871178665444607"><ele>285.16666666666663</ele><time>2026-04-18T09:11:11.001Z</time></trkpt><trkpt lat="43.5156535649827" lon="10.871273533414707"><ele>286.0</ele><time>2026-04-18T09:11:12.001Z</time></trkpt><trkpt lat="43.515606176260285" lon="10.871368722887931"><ele>286.0</ele><time>2026-04-18T09:11:13.001Z</time></trkpt><trkpt lat="43.515598795920354" lon="10.871492771654719"><ele>286.0</ele><time>2026-04-18T09:11:14.001Z</time></trkpt><trkpt lat="43.51558115865301" lon="10.871609833806668"><ele>286.0</ele><time>2026-04-18T09:11:15.001Z</time></trkpt><trkpt lat="43.51556466701266" lon="10.871720631355482"><ele>286.0</ele><time>2026-04-18T09:11:16.001Z</time></trkpt><trkpt lat="43.515549473792696" lon="10.871823090952946"><ele>286.0</ele><time>2026-04-18T09:11:17.001Z</time></trkpt><trkpt lat="43.515541258739425" lon="10.871982722943363"><ele>287.66666666666663</ele><time>2026-04-18T09:11:19.001Z</time></trkpt><trkpt lat="43.51558605878275" lon="10.872082374995538"><ele>289.3333333333333</ele><time>2026-04-18T09:11:21.001Z</time></trkpt><trkpt lat="43.51567778535559" lon="10.87209849564249"><ele>291.0</ele><time>2026-04-18T09:11:23.001Z</time></trkpt><trkpt lat="43.515742068420465" lon="10.872103364451446"><ele>292.6666666666667</ele><time>2026-04-18T09:11:24.001Z</time></trkpt><trkpt lat="43.515810699484135" lon="10.872138909605692"><ele>294.33333333333337</ele><time>2026-04-18T09:11:25.001Z</time></trkpt><trkpt lat="43.5158878070264" lon="10.872151921901331"><ele>296.0</ele><time>2026-04-18T09:11:26.001Z</time></trkpt><trkpt lat="43.51596679055916" lon="10.872154299432214"><ele>296.0</ele><time>2026-04-18T09:11:27.001Z</time></trkpt><trkpt lat="43.51603394970934" lon="10.87215077533212"><ele>296.0</ele><time>2026-04-18T09:11:28.002Z</time></trkpt><trkpt lat="43.516108290767676" lon="10.872256009992393"><ele>296.0</ele><time>2026-04-18T09:11:30.002Z</time></trkpt><trkpt lat="43.51615071449719" lon="10.872380766200694"><ele>296.0</ele><time>2026-04-18T09:11:32.002Z</time></trkpt><trkpt lat="43.51614541150267" lon="10.872530863991734"><ele>296.0</ele><time>2026-04-18T09:11:34.002Z</time></trkpt><trkpt lat="43.51614507609713" lon="10.872631494574984"><ele>296.83333333333337</ele><time>2026-04-18T09:11:35.002Z</time></trkpt><trkpt lat="43.51617715985737" lon="10.87272002593126"><ele>297.6666666666667</ele><time>2026-04-18T09:11:36.002Z</time></trkpt><trkpt lat="43.516224214814756" lon="10.872794447977517"><ele>298.5</ele><time>2026-04-18T09:11:37.002Z</time></trkpt><trkpt lat="43.51627649739268" lon="10.872849929303504"><ele>299.3333333333333</ele><time>2026-04-18T09:11:38.002Z</time></trkpt><trkpt lat="43.51637239654229" lon="10.872917466458288"><ele>300.16666666666663</ele><time>2026-04-18T09:11:40.002Z</time></trkpt><trkpt lat="43.51637908664138" lon="10.873024591303265"><ele>301.0</ele><time>2026-04-18T09:11:44.002Z</time></trkpt><trkpt lat="43.51637460027111" lon="10.873142896832046"><ele>303.5</ele><time>2026-04-18T09:11:46.002Z</time></trkpt><trkpt lat="43.51635466946351" lon="10.87323086070552"><ele>306.0</ele><time>2026-04-18T09:11:47.002Z</time></trkpt><trkpt lat="43.516324727628756" lon="10.873326348273597"><ele>308.5</ele><time>2026-04-18T09:11:48.002Z</time></trkpt><trkpt lat="43.516316595291364" lon="10.873441427189084"><ele>311.0</ele><time>2026-04-18T09:11:49.002Z</time></trkpt><trkpt lat="43.516315433935425" lon="10.873545582536073"><ele>313.5</ele><time>2026-04-18T09:11:50.002Z</time></trkpt><trkpt lat="43.51631285748277" lon="10.87364080035199"><ele>316.0</ele><time>2026-04-18T09:11:51.002Z</time></trkpt><trkpt lat="43.51629339109819" lon="10.87381243464718"><ele>315.8571428571429</ele><time>2026-04-18T09:11:53.002Z</time></trkpt><trkpt lat="43.516280332212" lon="10.873898398259412"><ele>315.7142857142857</ele><time>2026-04-18T09:11:54.002Z</time></trkpt><trkpt lat="43.51626430462465" lon="10.873993814320556"><ele>315.57142857142856</ele><time>2026-04-18T09:11:55.002Z</time></trkpt><trkpt lat="43.51624455602998" lon="10.874077737335462"><ele>315.42857142857144</ele><time>2026-04-18T09:11:56.002Z</time></trkpt><trkpt lat="43.51621433495" lon="10.874167665502183"><ele>315.2857142857143</ele><time>2026-04-18T09:11:57.002Z</time></trkpt><trkpt lat="43.51617720185176" lon="10.874248285487669"><ele>315.14285714285717</ele><time>2026-04-18T09:11:58.002Z</time></trkpt><trkpt lat="43.516131727585496" lon="10.874324414149742"><ele>315.0</ele><time>2026-04-18T09:11:59.002Z</time></trkpt><trkpt lat="43.51608966073813" lon="10.87439125110514"><ele>315.0</ele><time>2026-04-18T09:12:00.002Z</time></trkpt><trkpt lat="43.51601077677032" lon="10.874498337226505"><ele>315.0</ele><time>2026-04-18T09:12:02.002Z</time></trkpt><trkpt lat="43.515947442801554" lon="10.874552011187307"><ele>315.0</ele><time>2026-04-18T09:12:04.002Z</time></trkpt><trkpt lat="43.51583876570478" lon="10.874580360075049"><ele>315.0</ele><time>2026-04-18T09:12:06.002Z</time></trkpt><trkpt lat="43.515735747860965" lon="10.874628217602467"><ele>315.0</ele><time>2026-04-18T09:12:08.002Z</time></trkpt><trkpt lat="43.51568142853964" lon="10.874672730381274"><ele>315.0</ele><time>2026-04-18T09:12:09.002Z</time></trkpt><trkpt lat="43.515591622785884" lon="10.874753816688797"><ele>315.0</ele><time>2026-04-18T09:12:11.002Z</time></trkpt><trkpt lat="43.51550193286486" lon="10.874826326756551"><ele>315.0</ele><time>2026-04-18T09:12:13.002Z</time></trkpt><trkpt lat="43.51539958936025" lon="10.874906057298597"><ele>315.0</ele><time>2026-04-18T09:12:15.002Z</time></trkpt><trkpt lat="43.51532675079644" lon="10.875004886018068"><ele>315.0</ele><time>2026-04-18T09:12:17.002Z</time></trkpt><trkpt lat="43.51527593597456" lon="10.87506988263999"><ele>315.0</ele><time>2026-04-18T09:12:19Z</time></trkpt><trkpt lat="43.515222282831914" lon="10.8751584410008"><ele>315.0</ele><time>2026-04-18T09:12:21Z</time></trkpt><trkpt lat="43.515152256616474" lon="10.87528020883204"><ele>315.0</ele><time>2026-04-18T09:12:23Z</time></trkpt><trkpt lat="43.51513894956059" lon="10.875415831851756"><ele>315.0</ele><time>2026-04-18T09:12:25Z</time></trkpt><trkpt lat="43.51514249263424" lon="10.875506765800795"><ele>315.0</ele><time>2026-04-18T09:12:28Z</time></trkpt><trkpt lat="43.51513181905415" lon="10.875604982569298"><ele>315.0</ele><time>2026-04-18T09:12:35Z</time></trkpt><trkpt lat="43.51511068015358" lon="10.875707242004081"><ele>315.0</ele><time>2026-04-18T09:12:39.001Z</time></trkpt><trkpt lat="43.515095612412836" lon="10.87580721214998"><ele>315.0</ele><time>2026-04-18T09:12:41.001Z</time></trkpt><trkpt lat="43.515093560813625" lon="10.875897636607297"><ele>315.0</ele><time>2026-04-18T09:12:44.001Z</time></trkpt><trkpt lat="43.51521076782603" lon="10.876017642015736"><ele>315.0</ele><time>2026-04-18T09:12:53.001Z</time></trkpt><trkpt lat="43.51531810891571" lon="10.87600531953526"><ele>315.0</ele><time>2026-04-18T09:12:55.001Z</time></trkpt><trkpt lat="43.51537906557951" lon="10.876034320626088"><ele>317.42857142857144</ele><time>2026-04-18T09:12:56.001Z</time></trkpt><trkpt lat="43.51544136743415" lon="10.87605097093131"><ele>319.8571428571429</ele><time>2026-04-18T09:12:57.001Z</time></trkpt><trkpt lat="43.51550044810566" lon="10.87608326618866"><ele>322.2857142857143</ele><time>2026-04-18T09:12:58.001Z</time></trkpt><trkpt lat="43.5155543641405" lon="10.876131826020893"><ele>324.7142857142857</ele><time>2026-04-18T09:12:59.001Z</time></trkpt><trkpt lat="43.515609478787326" lon="10.876185681178466"><ele>327.14285714285717</ele><time>2026-04-18T09:13:00.001Z</time></trkpt><trkpt lat="43.51566457438338" lon="10.876249349490834"><ele>329.57142857142856</ele><time>2026-04-18T09:13:01.001Z</time></trkpt><trkpt lat="43.51572715041124" lon="10.876306402712126"><ele>332.0</ele><time>2026-04-18T09:13:02.001Z</time></trkpt><trkpt lat="43.515796460616016" lon="10.876357943755515"><ele>332.0</ele><time>2026-04-18T09:13:03.001Z</time></trkpt><trkpt lat="43.5158894859967" lon="10.876368015072181"><ele>332.0</ele><time>2026-04-18T09:13:04.001Z</time></trkpt><trkpt lat="43.51597464825877" lon="10.876329499517608"><ele>332.0</ele><time>2026-04-18T09:13:05.001Z</time></trkpt><trkpt lat="43.51605721613989" lon="10.876299845045686"><ele>332.0</ele><time>2026-04-18T09:13:06.001Z</time></trkpt><trkpt lat="43.51614063969301" lon="10.876255055761622"><ele>332.0</ele><time>2026-04-18T09:13:07.001Z</time></trkpt><trkpt lat="43.516224829540754" lon="10.876211254498285"><ele>332.0</ele><time>2026-04-18T09:13:08.001Z</time></trkpt><trkpt lat="43.51631166740542" lon="10.876162627479031"><ele>332.6</ele><time>2026-04-18T09:13:09.001Z</time></trkpt><trkpt lat="43.516400824346576" lon="10.876105062490469"><ele>333.20000000000005</ele><time>2026-04-18T09:13:10.001Z</time></trkpt><trkpt lat="43.516493540946094" lon="10.876044671150314"><ele>333.8</ele><time>2026-04-18T09:13:11.001Z</time></trkpt><trkpt lat="43.51659285562241" lon="10.875991021451954"><ele>334.4</ele><time>2026-04-18T09:13:12.001Z</time></trkpt><trkpt lat="43.516687792785625" lon="10.875936750208052"><ele>335.0</ele><time>2026-04-18T09:13:13.001Z</time></trkpt><trkpt lat="43.51677526424914" lon="10.875882666469922"><ele>335.0</ele><time>2026-04-18T09:13:14.001Z</time></trkpt><trkpt lat="43.51685500019553" lon="10.875806409311767"><ele>335.0</ele><time>2026-04-18T09:13:15.001Z</time></trkpt><trkpt lat="43.51692084815208" lon="10.875705414883289"><ele>335.0</ele><time>2026-04-18T09:13:16.001Z</time></trkpt><trkpt lat="43.51697268521096" lon="10.875563463239564"><ele>335.0</ele><time>2026-04-18T09:13:17.001Z</time></trkpt><trkpt lat="43.516998200983316" lon="10.875420574554628"><ele>335.0</ele><time>2026-04-18T09:13:18.001Z</time></trkpt><trkpt lat="43.51703847409742" lon="10.87527278858066"><ele>336.8</ele><time>2026-04-18T09:13:19.001Z</time></trkpt><trkpt lat="43.51709310257217" lon="10.875135571680651"><ele>338.6</ele><time>2026-04-18T09:13:20.001Z</time></trkpt><trkpt lat="43.517160322622324" lon="10.87502769385231"><ele>340.4</ele><time>2026-04-18T09:13:21.001Z</time></trkpt><trkpt lat="43.51724406831055" lon="10.87494428919234"><ele>342.2</ele><time>2026-04-18T09:13:22.001Z</time></trkpt><trkpt lat="43.51734117439336" lon="10.874878599547364"><ele>344.0</ele><time>2026-04-18T09:13:23.001Z</time></trkpt><trkpt lat="43.517447208628795" lon="10.874832365649723"><ele>344.0</ele><time>2026-04-18T09:13:24.001Z</time></trkpt><trkpt lat="43.51755510430115" lon="10.87480088332379"><ele>344.0</ele><time>2026-04-18T09:13:25.001Z</time></trkpt><trkpt lat="43.51766689590714" lon="10.87480124330708"><ele>344.0</ele><time>2026-04-18T09:13:26.001Z</time></trkpt><trkpt lat="43.517773673602804" lon="10.874766333533326"><ele>344.0</ele><time>2026-04-18T09:13:27.001Z</time></trkpt><trkpt lat="43.51788412762427" lon="10.874762499422374"><ele>344.0</ele><time>2026-04-18T09:13:28.001Z</time></trkpt><trkpt lat="43.51799721643004" lon="10.87478661972657"><ele>346.0</ele><time>2026-04-18T09:13:29.001Z</time></trkpt><trkpt lat="43.518114479077354" lon="10.874793694786225"><ele>348.0</ele><time>2026-04-18T09:13:30.001Z</time></trkpt><trkpt lat="43.51823425247993" lon="10.874786264993036"><ele>350.0</ele><time>2026-04-18T09:13:31.001Z</time></trkpt><trkpt lat="43.518345461810576" lon="10.874809544991358"><ele>352.0</ele><time>2026-04-18T09:13:32.001Z</time></trkpt><trkpt lat="43.51845826115379" lon="10.874833864665144"><ele>352.0</ele><time>2026-04-18T09:13:33.001Z</time></trkpt><trkpt lat="43.51856696389755" lon="10.874856028341767"><ele>352.0</ele><time>2026-04-18T09:13:34.002Z</time></trkpt><trkpt lat="43.518672777841715" lon="10.874876517930915"><ele>352.0</ele><time>2026-04-18T09:13:35.002Z</time></trkpt><trkpt lat="43.518778534945604" lon="10.874890628818578"><ele>352.0</ele><time>2026-04-18T09:13:36.002Z</time></trkpt><trkpt lat="43.51887804007699" lon="10.874901305552267"><ele>352.0</ele><time>2026-04-18T09:13:37.002Z</time></trkpt><trkpt lat="43.51897406252965" lon="10.874905087466866"><ele>352.20000000000005</ele><time>2026-04-18T09:13:38.002Z</time></trkpt><trkpt lat="43.51906380256158" lon="10.874942728853195"><ele>352.4</ele><time>2026-04-18T09:13:39.002Z</time></trkpt><trkpt lat="43.51913611163261" lon="10.875034628429841"><ele>352.6</ele><time>2026-04-18T09:13:40.002Z</time></trkpt><trkpt lat="43.51921406703535" lon="10.875117440698947"><ele>352.79999999999995</ele><time>2026-04-18T09:13:41.002Z</time></trkpt><trkpt lat="43.51923252025011" lon="10.875261596781662"><ele>353.0</ele><time>2026-04-18T09:13:42.002Z</time></trkpt><trkpt lat="43.519262166689245" lon="10.875400267372623"><ele>353.0</ele><time>2026-04-18T09:13:43.002Z</time></trkpt><trkpt lat="43.519293723966264" lon="10.875538768926123"><ele>353.0</ele><time>2026-04-18T09:13:44.002Z</time></trkpt><trkpt lat="43.519329267175834" lon="10.87567669305133"><ele>353.0</ele><time>2026-04-18T09:13:45.002Z</time></trkpt><trkpt lat="43.51937606427027" lon="10.875813697455392"><ele>353.0</ele><time>2026-04-18T09:13:46.002Z</time></trkpt><trkpt lat="43.51944473579116" lon="10.875940253881753"><ele>353.0</ele><time>2026-04-18T09:13:47.002Z</time></trkpt><trkpt lat="43.51953400191868" lon="10.876041759403263"><ele>349.0</ele><time>2026-04-18T09:13:48.002Z</time></trkpt><trkpt lat="43.51963628922332" lon="10.876108491784445"><ele>345.0</ele><time>2026-04-18T09:13:49.002Z</time></trkpt><trkpt lat="43.51972123604091" lon="10.876168851353203"><ele>341.0</ele><time>2026-04-18T09:13:50.002Z</time></trkpt><trkpt lat="43.519782949858396" lon="10.87623437836795"><ele>337.0</ele><time>2026-04-18T09:13:51.002Z</time></trkpt><trkpt lat="43.51982674054837" lon="10.876329594327808"><ele>333.0</ele><time>2026-04-18T09:13:52.002Z</time></trkpt><trkpt lat="43.51984653623204" lon="10.87644068331752"><ele>333.0</ele><time>2026-04-18T09:13:53.002Z</time></trkpt><trkpt lat="43.519862312575995" lon="10.876561669974942"><ele>333.0</ele><time>2026-04-18T09:13:54.002Z</time></trkpt><trkpt lat="43.51987472721152" lon="10.876690051109744"><ele>333.0</ele><time>2026-04-18T09:13:55.002Z</time></trkpt><trkpt lat="43.51988909415445" lon="10.876828771552136"><ele>333.0</ele><time>2026-04-18T09:13:56.002Z</time></trkpt><trkpt lat="43.51991757012557" lon="10.876968567325372"><ele>333.0</ele><time>2026-04-18T09:13:57.002Z</time></trkpt><trkpt lat="43.51993543937875" lon="10.877117802070854"><ele>335.25</ele><time>2026-04-18T09:13:58.002Z</time></trkpt><trkpt lat="43.51995315959812" lon="10.877273194207492"><ele>337.5</ele><time>2026-04-18T09:13:59.002Z</time></trkpt><trkpt lat="43.51997370453039" lon="10.877432601704104"><ele>339.75</ele><time>2026-04-18T09:14:00.002Z</time></trkpt><trkpt lat="43.52000195924337" lon="10.877591248067397"><ele>342.0</ele><time>2026-04-18T09:14:01.002Z</time></trkpt><trkpt lat="43.52002226128673" lon="10.877758478209273"><ele>343.25</ele><time>2026-04-18T09:14:02.002Z</time></trkpt><trkpt lat="43.52008307987349" lon="10.877909233769211"><ele>344.5</ele><time>2026-04-18T09:14:03.002Z</time></trkpt><trkpt lat="43.520128365834125" lon="10.878068292963189"><ele>345.75</ele><time>2026-04-18T09:14:04.002Z</time></trkpt><trkpt lat="43.52017189202467" lon="10.878225929987266"><ele>347.0</ele><time>2026-04-18T09:14:05.002Z</time></trkpt><trkpt lat="43.520214526630596" lon="10.878372696314164"><ele>344.8</ele><time>2026-04-18T09:14:06.002Z</time></trkpt><trkpt lat="43.520229228375655" lon="10.87851681762119"><ele>342.6</ele><time>2026-04-18T09:14:07.002Z</time></trkpt><trkpt lat="43.52023754964376" lon="10.878639976077103"><ele>340.40000000000003</ele><time>2026-04-18T09:14:08.002Z</time></trkpt><trkpt lat="43.520222079406835" lon="10.878767040723744"><ele>338.20000000000005</ele><time>2026-04-18T09:14:09.002Z</time></trkpt><trkpt lat="43.5201989634129" lon="10.878901203772276"><ele>336.0</ele><time>2026-04-18T09:14:10.002Z</time></trkpt><trkpt lat="43.520122034621394" lon="10.878996730897589"><ele>336.0</ele><time>2026-04-18T09:14:11.002Z</time></trkpt><trkpt lat="43.520055844299186" lon="10.879109487729632"><ele>336.0</ele><time>2026-04-18T09:14:12.002Z</time></trkpt><trkpt lat="43.519966109235604" lon="10.879183374476392"><ele>336.0</ele><time>2026-04-18T09:14:13.002Z</time></trkpt><trkpt lat="43.51987627162981" lon="10.879220903149724"><ele>336.0</ele><time>2026-04-18T09:14:14.002Z</time></trkpt><trkpt lat="43.51978224158707" lon="10.879200497864609"><ele>336.0</ele><time>2026-04-18T09:14:15.002Z</time></trkpt><trkpt lat="43.51968921157093" lon="10.879183977250978"><ele>336.0</ele><time>2026-04-18T09:14:16.002Z</time></trkpt><trkpt lat="43.519587773130276" lon="10.879164968517243"><ele>336.0</ele><time>2026-04-18T09:14:17.002Z</time></trkpt><trkpt lat="43.51949140604817" lon="10.879146337793514"><ele>336.0</ele><time>2026-04-18T09:14:18.002Z</time></trkpt><trkpt lat="43.519396696107925" lon="10.879129219237116"><ele>336.0</ele><time>2026-04-18T09:14:19.002Z</time></trkpt><trkpt lat="43.519316022408944" lon="10.879096320160187"><ele>336.0</ele><time>2026-04-18T09:14:20.002Z</time></trkpt><trkpt lat="43.51923432367717" lon="10.879096818191108"><ele>336.8333333333333</ele><time>2026-04-18T09:14:21.002Z</time></trkpt><trkpt lat="43.51915172521648" lon="10.879111417080239"><ele>337.6666666666667</ele><time>2026-04-18T09:14:22.002Z</time></trkpt><trkpt lat="43.51906481928964" lon="10.879153471093518"><ele>338.5</ele><time>2026-04-18T09:14:23.002Z</time></trkpt><trkpt lat="43.51899717360572" lon="10.879236124162485"><ele>339.33333333333337</ele><time>2026-04-18T09:14:24.002Z</time></trkpt><trkpt lat="43.51895287752213" lon="10.879326959631491"><ele>340.1666666666667</ele><time>2026-04-18T09:14:25Z</time></trkpt><trkpt lat="43.518955363687816" lon="10.879449291417956"><ele>341.0</ele><time>2026-04-18T09:14:26Z</time></trkpt><trkpt lat="43.51896920814283" lon="10.879556590351974"><ele>341.0</ele><time>2026-04-18T09:14:27Z</time></trkpt><trkpt lat="43.51900933565928" lon="10.879646503247281"><ele>341.0</ele><time>2026-04-18T09:14:28Z</time></trkpt><trkpt lat="43.519069736147834" lon="10.879710865084467"><ele>341.0</ele><time>2026-04-18T09:14:29Z</time></trkpt><trkpt lat="43.519146070576895" lon="10.87973681822539"><ele>341.0</ele><time>2026-04-18T09:14:30Z</time></trkpt><trkpt lat="43.51923666493112" lon="10.879741977655646"><ele>341.0</ele><time>2026-04-18T09:14:31Z</time></trkpt><trkpt lat="43.519322273944454" lon="10.879760184150808"><ele>341.0</ele><time>2026-04-18T09:14:32Z</time></trkpt><trkpt lat="43.51940646810895" lon="10.879788644611736"><ele>341.0</ele><time>2026-04-18T09:14:33Z</time></trkpt><trkpt lat="43.51948353538048" lon="10.879841651635765"><ele>341.0</ele><time>2026-04-18T09:14:34Z</time></trkpt><trkpt lat="43.51955017415769" lon="10.879908259010369"><ele>341.0</ele><time>2026-04-18T09:14:35Z</time></trkpt><trkpt lat="43.519603980367165" lon="10.879986510018414"><ele>341.0</ele><time>2026-04-18T09:14:36Z</time></trkpt><trkpt lat="43.519636453164246" lon="10.880075672714652"><ele>341.0</ele><time>2026-04-18T09:14:37Z</time></trkpt><trkpt lat="43.51964606763868" lon="10.8801743979478"><ele>341.0</ele><time>2026-04-18T09:14:38Z</time></trkpt><trkpt lat="43.51960985173692" lon="10.88027069978781"><ele>339.33333333333337</ele><time>2026-04-18T09:14:39Z</time></trkpt><trkpt lat="43.51958996060144" lon="10.880369219125596"><ele>337.6666666666667</ele><time>2026-04-18T09:14:40Z</time></trkpt><trkpt lat="43.519580516069105" lon="10.880475230211534"><ele>336.0</ele><time>2026-04-18T09:14:41Z</time></trkpt><trkpt lat="43.51955983882929" lon="10.880577968828138"><ele>334.3333333333333</ele><time>2026-04-18T09:14:42Z</time></trkpt><trkpt lat="43.519552383225495" lon="10.880685152042497"><ele>332.66666666666663</ele><time>2026-04-18T09:14:43Z</time></trkpt><trkpt lat="43.519556918253095" lon="10.880799944484005"><ele>331.0</ele><time>2026-04-18T09:14:44Z</time></trkpt><trkpt lat="43.519575837146654" lon="10.880921026972041"><ele>332.8</ele><time>2026-04-18T09:14:45Z</time></trkpt><trkpt lat="43.51959394097051" lon="10.881043302751376"><ele>334.6</ele><time>2026-04-18T09:14:46Z</time></trkpt><trkpt lat="43.51959459178383" lon="10.881176367628182"><ele>336.4</ele><time>2026-04-18T09:14:47Z</time></trkpt><trkpt lat="43.519559990258934" lon="10.88130323848232"><ele>338.2</ele><time>2026-04-18T09:14:48Z</time></trkpt><trkpt lat="43.51953544962602" lon="10.881437675808906"><ele>340.0</ele><time>2026-04-18T09:14:49Z</time></trkpt><trkpt lat="43.51952575577069" lon="10.881578169735443"><ele>341.8</ele><time>2026-04-18T09:14:50Z</time></trkpt><trkpt lat="43.51950629334779" lon="10.881714510077012"><ele>343.6</ele><time>2026-04-18T09:14:51Z</time></trkpt><trkpt lat="43.51949644318994" lon="10.881856724726783"><ele>345.4</ele><time>2026-04-18T09:14:52Z</time></trkpt><trkpt lat="43.519490049055044" lon="10.88200551913662"><ele>347.2</ele><time>2026-04-18T09:14:53Z</time></trkpt><trkpt lat="43.5195307250913" lon="10.882143849143528"><ele>349.0</ele><time>2026-04-18T09:14:54.001Z</time></trkpt><trkpt lat="43.51957060213187" lon="10.882270180260182"><ele>349.0</ele><time>2026-04-18T09:14:55.001Z</time></trkpt><trkpt lat="43.51961599652784" lon="10.882387756102004"><ele>349.0</ele><time>2026-04-18T09:14:56.001Z</time></trkpt><trkpt lat="43.51965925054412" lon="10.882497546415605"><ele>349.0</ele><time>2026-04-18T09:14:57.001Z</time></trkpt><trkpt lat="43.51970790007511" lon="10.882598675776592"><ele>349.0</ele><time>2026-04-18T09:14:58.001Z</time></trkpt><trkpt lat="43.519750020535206" lon="10.882701271186722"><ele>349.0</ele><time>2026-04-18T09:14:59.001Z</time></trkpt><trkpt lat="43.51981891009653" lon="10.882782106892764"><ele>351.0</ele><time>2026-04-18T09:15:00.001Z</time></trkpt><trkpt lat="43.519903055120324" lon="10.882827446189669"><ele>353.0</ele><time>2026-04-18T09:15:01.001Z</time></trkpt><trkpt lat="43.5199778916838" lon="10.8828895197484"><ele>355.0</ele><time>2026-04-18T09:15:02.001Z</time></trkpt><trkpt lat="43.52005232539644" lon="10.882950835564472"><ele>357.0</ele><time>2026-04-18T09:15:03.001Z</time></trkpt><trkpt lat="43.52012829541232" lon="10.883010489546256"><ele>359.0</ele><time>2026-04-18T09:15:04.001Z</time></trkpt><trkpt lat="43.52020079891709" lon="10.88306733028764"><ele>361.0</ele><time>2026-04-18T09:15:05.001Z</time></trkpt><trkpt lat="43.52027312102147" lon="10.88311787268925"><ele>361.0</ele><time>2026-04-18T09:15:06.001Z</time></trkpt><trkpt lat="43.52034471769446" lon="10.883151892657976"><ele>361.0</ele><time>2026-04-18T09:15:07.001Z</time></trkpt><trkpt lat="43.520418322765785" lon="10.883177850304945"><ele>361.0</ele><time>2026-04-18T09:15:08.001Z</time></trkpt><trkpt lat="43.5204963132296" lon="10.883141791695996"><ele>361.0</ele><time>2026-04-18T09:15:09.001Z</time></trkpt><trkpt lat="43.52057440269944" lon="10.883110512028885"><ele>361.0</ele><time>2026-04-18T09:15:10.001Z</time></trkpt><trkpt lat="43.520658257772915" lon="10.883074146642882"><ele>361.0</ele><time>2026-04-18T09:15:11.001Z</time></trkpt><trkpt lat="43.52074560649764" lon="10.88304545140677"><ele>360.0</ele><time>2026-04-18T09:15:12.001Z</time></trkpt><trkpt lat="43.5208367086296" lon="10.883053798880702"><ele>359.0</ele><time>2026-04-18T09:15:13.001Z</time></trkpt><trkpt lat="43.520925585903825" lon="10.883091112164431"><ele>358.0</ele><time>2026-04-18T09:15:14.001Z</time></trkpt><trkpt lat="43.521015769110235" lon="10.88314751989387"><ele>357.0</ele><time>2026-04-18T09:15:15.001Z</time></trkpt><trkpt lat="43.52109805910671" lon="10.88322583346637"><ele>356.0</ele><time>2026-04-18T09:15:16.001Z</time></trkpt><trkpt lat="43.521187909895986" lon="10.883277936671426"><ele>353.6666666666667</ele><time>2026-04-18T09:15:17.001Z</time></trkpt><trkpt lat="43.52124076061166" lon="10.883387159382558"><ele>351.33333333333337</ele><time>2026-04-18T09:15:18.001Z</time></trkpt><trkpt lat="43.52128996926611" lon="10.883493479164013"><ele>349.0</ele><time>2026-04-18T09:15:19.001Z</time></trkpt><trkpt lat="43.5213215772654" lon="10.883607182087266"><ele>346.6666666666667</ele><time>2026-04-18T09:15:20.001Z</time></trkpt><trkpt lat="43.521339524800254" lon="10.88372522456833"><ele>344.3333333333333</ele><time>2026-04-18T09:15:21.001Z</time></trkpt><trkpt lat="43.52132800642499" lon="10.883840225795474"><ele>342.0</ele><time>2026-04-18T09:15:22.001Z</time></trkpt><trkpt lat="43.52130169636681" lon="10.883946185229243"><ele>342.0</ele><time>2026-04-18T09:15:23.001Z</time></trkpt><trkpt lat="43.521256144101066" lon="10.884028406258837"><ele>342.0</ele><time>2026-04-18T09:15:24.001Z</time></trkpt><trkpt lat="43.52120738510183" lon="10.884115224918219"><ele>342.0</ele><time>2026-04-18T09:15:25.001Z</time></trkpt><trkpt lat="43.5211585480906" lon="10.884204002168149"><ele>342.0</ele><time>2026-04-18T09:15:26.001Z</time></trkpt><trkpt lat="43.521115886340155" lon="10.884301388438361"><ele>342.0</ele><time>2026-04-18T09:15:27.001Z</time></trkpt><trkpt lat="43.5210850025676" lon="10.884413874184737"><ele>342.0</ele><time>2026-04-18T09:15:28.001Z</time></trkpt><trkpt lat="43.52108290213647" lon="10.884544519441533"><ele>345.0</ele><time>2026-04-18T09:15:29.001Z</time></trkpt><trkpt lat="43.52110286092829" lon="10.884673471461959"><ele>348.0</ele><time>2026-04-18T09:15:30.001Z</time></trkpt><trkpt lat="43.52113588515632" lon="10.884797626983914"><ele>351.0</ele><time>2026-04-18T09:15:31.001Z</time></trkpt><trkpt lat="43.52117058472092" lon="10.884920275184703"><ele>354.0</ele><time>2026-04-18T09:15:32.001Z</time></trkpt><trkpt lat="43.52121043517779" lon="10.885051056618911"><ele>357.0</ele><time>2026-04-18T09:15:33.001Z</time></trkpt><trkpt lat="43.52125498504842" lon="10.885184795872094"><ele>357.0</ele><time>2026-04-18T09:15:34.001Z</time></trkpt><trkpt lat="43.521307317725544" lon="10.885321885505647"><ele>357.0</ele><time>2026-04-18T09:15:35.001Z</time></trkpt><trkpt lat="43.52137176524931" lon="10.885456601234155"><ele>357.0</ele><time>2026-04-18T09:15:36.001Z</time></trkpt><trkpt lat="43.521442348545435" lon="10.885586106938353"><ele>357.0</ele><time>2026-04-18T09:15:37.001Z</time></trkpt><trkpt lat="43.521518266038946" lon="10.885714924458592"><ele>357.0</ele><time>2026-04-18T09:15:38.001Z</time></trkpt><trkpt lat="43.521606700944986" lon="10.885824087240318"><ele>357.0</ele><time>2026-04-18T09:15:39.001Z</time></trkpt><trkpt lat="43.521673134820546" lon="10.885962323368462"><ele>357.0</ele><time>2026-04-18T09:15:40.001Z</time></trkpt><trkpt lat="43.52174659280011" lon="10.8861031137962"><ele>357.0</ele><time>2026-04-18T09:15:41.001Z</time></trkpt><trkpt lat="43.521812305709105" lon="10.886253258518334"><ele>360.25</ele><time>2026-04-18T09:15:42.001Z</time></trkpt><trkpt lat="43.521874343264855" lon="10.886408732252175"><ele>363.5</ele><time>2026-04-18T09:15:43.001Z</time></trkpt><trkpt lat="43.52193316042299" lon="10.886567228726683"><ele>366.75</ele><time>2026-04-18T09:15:44.001Z</time></trkpt><trkpt lat="43.52198452245047" lon="10.886724836711208"><ele>370.0</ele><time>2026-04-18T09:15:45.001Z</time></trkpt><trkpt lat="43.522038905483406" lon="10.88687992307892"><ele>368.5</ele><time>2026-04-18T09:15:46.001Z</time></trkpt><trkpt lat="43.52209470294018" lon="10.887031932067211"><ele>367.0</ele><time>2026-04-18T09:15:47.002Z</time></trkpt><trkpt lat="43.52214824219446" lon="10.887181964220726"><ele>365.5</ele><time>2026-04-18T09:15:48.002Z</time></trkpt><trkpt lat="43.522203281662584" lon="10.887327614257654"><ele>364.0</ele><time>2026-04-18T09:15:49.002Z</time></trkpt><trkpt lat="43.52225904511523" lon="10.887466323512692"><ele>365.6</ele><time>2026-04-18T09:15:50.002Z</time></trkpt><trkpt lat="43.522310619374295" lon="10.887603379629047"><ele>367.2</ele><time>2026-04-18T09:15:51.002Z</time></trkpt><trkpt lat="43.52235223883842" lon="10.887740364713892"><ele>368.8</ele><time>2026-04-18T09:15:52.002Z</time></trkpt><trkpt lat="43.52237373175914" lon="10.88787731018348"><ele>370.40000000000003</ele><time>2026-04-18T09:15:53.002Z</time></trkpt><trkpt lat="43.52238240327477" lon="10.888016552963027"><ele>372.0</ele><time>2026-04-18T09:15:54.002Z</time></trkpt><trkpt lat="43.52237905435824" lon="10.888153222485288"><ele>372.0</ele><time>2026-04-18T09:15:55.002Z</time></trkpt><trkpt lat="43.52237212935412" lon="10.888288040832618"><ele>372.0</ele><time>2026-04-18T09:15:56.002Z</time></trkpt><trkpt lat="43.52236213020711" lon="10.888428183105002"><ele>372.0</ele><time>2026-04-18T09:15:57.002Z</time></trkpt><trkpt lat="43.522348934051834" lon="10.888569603038274"><ele>372.0</ele><time>2026-04-18T09:15:58.002Z</time></trkpt><trkpt lat="43.52233421609855" lon="10.888710224353682"><ele>372.0</ele><time>2026-04-18T09:15:59.002Z</time></trkpt><trkpt lat="43.52231972116541" lon="10.888853372088517"><ele>373.6</ele><time>2026-04-18T09:16:00.002Z</time></trkpt><trkpt lat="43.52230331303629" lon="10.888998486751497"><ele>375.20000000000005</ele><time>2026-04-18T09:16:01.002Z</time></trkpt><trkpt lat="43.52228854172919" lon="10.889141457263644"><ele>376.8</ele><time>2026-04-18T09:16:02.002Z</time></trkpt><trkpt lat="43.52227402425668" lon="10.88929005810207"><ele>378.4</ele><time>2026-04-18T09:16:03.002Z</time></trkpt><trkpt lat="43.52225573595136" lon="10.889434567865425"><ele>380.0</ele><time>2026-04-18T09:16:04.002Z</time></trkpt><trkpt lat="43.52224065195852" lon="10.88957953746443"><ele>381.6</ele><time>2026-04-18T09:16:05.002Z</time></trkpt><trkpt lat="43.5222254619457" lon="10.889726860231063"><ele>383.2</ele><time>2026-04-18T09:16:06.002Z</time></trkpt><trkpt lat="43.522211741627466" lon="10.889871564550777"><ele>384.79999999999995</ele><time>2026-04-18T09:16:07.002Z</time></trkpt><trkpt lat="43.5221974467454" lon="10.890015821568033"><ele>386.4</ele><time>2026-04-18T09:16:08.002Z</time></trkpt><trkpt lat="43.52218959698326" lon="10.890156436571575"><ele>388.0</ele><time>2026-04-18T09:16:09.002Z</time></trkpt><trkpt lat="43.522192015474545" lon="10.890299003194224"><ele>388.79999999999995</ele><time>2026-04-18T09:16:10.002Z</time></trkpt><trkpt lat="43.52220603157791" lon="10.890438590334622"><ele>389.6</ele><time>2026-04-18T09:16:11.002Z</time></trkpt><trkpt lat="43.522232576343455" lon="10.890576979899837"><ele>390.4</ele><time>2026-04-18T09:16:12.002Z</time></trkpt><trkpt lat="43.52226630356142" lon="10.890717420856465"><ele>391.20000000000005</ele><time>2026-04-18T09:16:13.002Z</time></trkpt><trkpt lat="43.522303981416115" lon="10.890856525691852"><ele>392.0</ele><time>2026-04-18T09:16:14.002Z</time></trkpt><trkpt lat="43.52234641260012" lon="10.89099503989598"><ele>393.0</ele><time>2026-04-18T09:16:15.002Z</time></trkpt><trkpt lat="43.52239237846034" lon="10.89113534357015"><ele>394.0</ele><time>2026-04-18T09:16:16.002Z</time></trkpt><trkpt lat="43.52244015874299" lon="10.891277296939833"><ele>395.0</ele><time>2026-04-18T09:16:17.002Z</time></trkpt><trkpt lat="43.52248749021202" lon="10.891422557611973"><ele>396.0</ele><time>2026-04-18T09:16:18.002Z</time></trkpt><trkpt lat="43.52253579622907" lon="10.891565531994708"><ele>396.0</ele><time>2026-04-18T09:16:19.002Z</time></trkpt><trkpt lat="43.52258201446378" lon="10.89170710737556"><ele>396.0</ele><time>2026-04-18T09:16:20.002Z</time></trkpt><trkpt lat="43.522626800098834" lon="10.891847530258113"><ele>396.0</ele><time>2026-04-18T09:16:21.002Z</time></trkpt><trkpt lat="43.52267106380107" lon="10.891985583230865"><ele>396.0</ele><time>2026-04-18T09:16:22.002Z</time></trkpt><trkpt lat="43.522716538879415" lon="10.892125911012009"><ele>396.0</ele><time>2026-04-18T09:16:23.002Z</time></trkpt><trkpt lat="43.52276329710576" lon="10.892264118692584"><ele>397.0</ele><time>2026-04-18T09:16:24.002Z</time></trkpt><trkpt lat="43.522809441098126" lon="10.892403280899467"><ele>398.0</ele><time>2026-04-18T09:16:25.002Z</time></trkpt><trkpt lat="43.52285637288658" lon="10.892544187051106"><ele>399.0</ele><time>2026-04-18T09:16:26.002Z</time></trkpt><trkpt lat="43.522903093613365" lon="10.89268712222564"><ele>400.0</ele><time>2026-04-18T09:16:27.002Z</time></trkpt><trkpt lat="43.52294947839018" lon="10.89283225235038"><ele>400.0</ele><time>2026-04-18T09:16:28.002Z</time></trkpt><trkpt lat="43.5229951055029" lon="10.89297904558828"><ele>400.0</ele><time>2026-04-18T09:16:29.002Z</time></trkpt><trkpt lat="43.52304118964628" lon="10.893125998089044"><ele>400.0</ele><time>2026-04-18T09:16:30.002Z</time></trkpt><trkpt lat="43.52308846125947" lon="10.893269439119834"><ele>400.0</ele><time>2026-04-18T09:16:31Z</time></trkpt><trkpt lat="43.5231319533711" lon="10.893408370213015"><ele>401.6</ele><time>2026-04-18T09:16:32Z</time></trkpt><trkpt lat="43.5231724116346" lon="10.893538128582428"><ele>403.2</ele><time>2026-04-18T09:16:33Z</time></trkpt><trkpt lat="43.523210703154774" lon="10.893663468996445"><ele>404.79999999999995</ele><time>2026-04-18T09:16:34Z</time></trkpt><trkpt lat="43.523245486425864" lon="10.89378250038043"><ele>406.4</ele><time>2026-04-18T09:16:35Z</time></trkpt><trkpt lat="43.523279756381335" lon="10.89389185438411"><ele>408.0</ele><time>2026-04-18T09:16:36Z</time></trkpt><trkpt lat="43.52331184139907" lon="10.893990541657432"><ele>408.0</ele><time>2026-04-18T09:16:37Z</time></trkpt><trkpt lat="43.52334021656215" lon="10.894081850554436"><ele>408.0</ele><time>2026-04-18T09:16:38Z</time></trkpt><trkpt lat="43.52336824182474" lon="10.894162778558265"><ele>408.0</ele><time>2026-04-18T09:16:39Z</time></trkpt><trkpt lat="43.52342950208837" lon="10.894309390946642"><ele>408.0</ele><time>2026-04-18T09:16:41Z</time></trkpt><trkpt lat="43.52346189847175" lon="10.894383954782695"><ele>408.0</ele><time>2026-04-18T09:16:42Z</time></trkpt><trkpt lat="43.52349456026576" lon="10.894464221682115"><ele>408.0</ele><time>2026-04-18T09:16:43Z</time></trkpt><trkpt lat="43.52353257042803" lon="10.894551335619767"><ele>407.8333333333333</ele><time>2026-04-18T09:16:44Z</time></trkpt><trkpt lat="43.523569946253374" lon="10.89464345626135"><ele>407.66666666666663</ele><time>2026-04-18T09:16:45Z</time></trkpt><trkpt lat="43.52360909776343" lon="10.894738920529912"><ele>407.5</ele><time>2026-04-18T09:16:46.001Z</time></trkpt><trkpt lat="43.52364713826069" lon="10.894831810375933"><ele>407.3333333333333</ele><time>2026-04-18T09:16:47.001Z</time></trkpt><trkpt lat="43.52368355953432" lon="10.89492586115312"><ele>407.16666666666663</ele><time>2026-04-18T09:16:48.001Z</time></trkpt><trkpt lat="43.52371884255237" lon="10.895020292436412"><ele>407.0</ele><time>2026-04-18T09:16:49.001Z</time></trkpt><trkpt lat="43.52375165669663" lon="10.895117054386189"><ele>406.99999999999994</ele><time>2026-04-18T09:16:50.001Z</time></trkpt><trkpt lat="43.523781741006765" lon="10.895214725956773"><ele>407.0</ele><time>2026-04-18T09:16:51.001Z</time></trkpt><trkpt lat="43.52380843570409" lon="10.895313923411457"><ele>407.0</ele><time>2026-04-18T09:16:52.001Z</time></trkpt><trkpt lat="43.523835135814174" lon="10.89541568421034"><ele>407.0</ele><time>2026-04-18T09:16:53.001Z</time></trkpt><trkpt lat="43.523864846566944" lon="10.895518465563978"><ele>406.99999999999994</ele><time>2026-04-18T09:16:54.001Z</time></trkpt><trkpt lat="43.523894255449086" lon="10.89562462055693"><ele>407.0</ele><time>2026-04-18T09:16:55.001Z</time></trkpt><trkpt lat="43.523921227918414" lon="10.895733375413684"><ele>407.0</ele><time>2026-04-18T09:16:56.001Z</time></trkpt><trkpt lat="43.52394622207766" lon="10.895845263429605"><ele>407.0</ele><time>2026-04-18T09:16:57.001Z</time></trkpt><trkpt lat="43.523971182717915" lon="10.89596078479307"><ele>407.0</ele><time>2026-04-18T09:16:58.001Z</time></trkpt><trkpt lat="43.523994971732165" lon="10.896085476729638"><ele>407.0</ele><time>2026-04-18T09:16:59.001Z</time></trkpt><trkpt lat="43.524022154861754" lon="10.89621111418229"><ele>407.0</ele><time>2026-04-18T09:17:00.001Z</time></trkpt><trkpt lat="43.52405028118599" lon="10.896339419690912"><ele>408.0</ele><time>2026-04-18T09:17:01.001Z</time></trkpt><trkpt lat="43.52407799783216" lon="10.896470643788577"><ele>409.0</ele><time>2026-04-18T09:17:02.001Z</time></trkpt><trkpt lat="43.52410928691409" lon="10.896601033349118"><ele>410.0</ele><time>2026-04-18T09:17:03.001Z</time></trkpt><trkpt lat="43.52414004215329" lon="10.896734073086177"><ele>411.0</ele><time>2026-04-18T09:17:04.001Z</time></trkpt><trkpt lat="43.524170410858574" lon="10.89686864309366"><ele>412.0</ele><time>2026-04-18T09:17:05.001Z</time></trkpt><trkpt lat="43.52419890763412" lon="10.896999816240452"><ele>412.20000000000005</ele><time>2026-04-18T09:17:06.001Z</time></trkpt><trkpt lat="43.524225730036" lon="10.89712821293373"><ele>412.4</ele><time>2026-04-18T09:17:07.001Z</time></trkpt><trkpt lat="43.524249516063406" lon="10.897252563239366"><ele>412.6</ele><time>2026-04-18T09:17:08.001Z</time></trkpt><trkpt lat="43.52427285815918" lon="10.897376621533633"><ele>412.79999999999995</ele><time>2026-04-18T09:17:09.001Z</time></trkpt><trkpt lat="43.524294683217335" lon="10.89749218108198"><ele>413.0</ele><time>2026-04-18T09:17:10.001Z</time></trkpt><trkpt lat="43.52431723895026" lon="10.897602419794266"><ele>413.8333333333333</ele><time>2026-04-18T09:17:11.001Z</time></trkpt><trkpt lat="43.524339333118306" lon="10.897707941197464"><ele>414.66666666666663</ele><time>2026-04-18T09:17:12.001Z</time></trkpt><trkpt lat="43.5243604397489" lon="10.897806790504596"><ele>415.5</ele><time>2026-04-18T09:17:13.001Z</time></trkpt><trkpt lat="43.52438989272093" lon="10.897958569023608"><ele>416.33333333333337</ele><time>2026-04-18T09:17:15.001Z</time></trkpt><trkpt lat="43.524388817723455" lon="10.898054086877313"><ele>417.1666666666667</ele><time>2026-04-18T09:17:17.001Z</time></trkpt><trkpt lat="43.52436243581851" lon="10.898154802549495"><ele>418.0</ele><time>2026-04-18T09:17:19.001Z</time></trkpt><trkpt lat="43.524289314247504" lon="10.898263115343"><ele>418.00000000000006</ele><time>2026-04-18T09:17:21.001Z</time></trkpt><trkpt lat="43.52423385482615" lon="10.898318793315896"><ele>418.0</ele><time>2026-04-18T09:17:22.001Z</time></trkpt><trkpt lat="43.524171662901416" lon="10.898387120642752"><ele>418.0</ele><time>2026-04-18T09:17:23.001Z</time></trkpt><trkpt lat="43.524103600617096" lon="10.89846036440711"><ele>418.0</ele><time>2026-04-18T09:17:24.001Z</time></trkpt><trkpt lat="43.524032450558565" lon="10.89853928875767"><ele>418.00000000000006</ele><time>2026-04-18T09:17:25.001Z</time></trkpt><trkpt lat="43.52395498121381" lon="10.89862519818672"><ele>418.0</ele><time>2026-04-18T09:17:26.001Z</time></trkpt><trkpt lat="43.523874738359325" lon="10.898719058766739"><ele>420.5</ele><time>2026-04-18T09:17:27.001Z</time></trkpt><trkpt lat="43.52379242460781" lon="10.898818436387113"><ele>423.0</ele><time>2026-04-18T09:17:28.001Z</time></trkpt><trkpt lat="43.52370853576565" lon="10.898918019470827"><ele>425.5</ele><time>2026-04-18T09:17:29.001Z</time></trkpt><trkpt lat="43.523622278156246" lon="10.899019490370392"><ele>428.0</ele><time>2026-04-18T09:17:30.001Z</time></trkpt><trkpt lat="43.52352938632323" lon="10.89911791833889"><ele>427.5</ele><time>2026-04-18T09:17:31.001Z</time></trkpt><trkpt lat="43.52343144832849" lon="10.899211801504736"><ele>427.0</ele><time>2026-04-18T09:17:32.001Z</time></trkpt><trkpt lat="43.523327368787825" lon="10.899302482828883"><ele>426.5</ele><time>2026-04-18T09:17:33.001Z</time></trkpt><trkpt lat="43.52321956109457" lon="10.89938744061952"><ele>426.0</ele><time>2026-04-18T09:17:34.001Z</time></trkpt><trkpt lat="43.5231097341766" lon="10.89946506607905"><ele>426.0</ele><time>2026-04-18T09:17:35.001Z</time></trkpt><trkpt lat="43.522994206242934" lon="10.89953179244444"><ele>426.0</ele><time>2026-04-18T09:17:36.001Z</time></trkpt><trkpt lat="43.52287301247083" lon="10.899591443041794"><ele>426.0</ele><time>2026-04-18T09:17:37.001Z</time></trkpt><trkpt lat="43.522746243124125" lon="10.899645916546461"><ele>426.0</ele><time>2026-04-18T09:17:38.001Z</time></trkpt><trkpt lat="43.52261569490579" lon="10.899702737509342"><ele>426.5</ele><time>2026-04-18T09:17:39.001Z</time></trkpt><trkpt lat="43.52248145158418" lon="10.899763170042913"><ele>427.0</ele><time>2026-04-18T09:17:40.001Z</time></trkpt><trkpt lat="43.52234485208815" lon="10.899818447341257"><ele>427.5</ele><time>2026-04-18T09:17:41.001Z</time></trkpt><trkpt lat="43.522207308445935" lon="10.899877007236327"><ele>428.0</ele><time>2026-04-18T09:17:42.001Z</time></trkpt><trkpt lat="43.52207222535177" lon="10.899941876153973"><ele>429.25</ele><time>2026-04-18T09:17:43.001Z</time></trkpt><trkpt lat="43.521941961853976" lon="10.900017754048179"><ele>430.5</ele><time>2026-04-18T09:17:44.001Z</time></trkpt><trkpt lat="43.52181397015568" lon="10.9001162239831"><ele>431.75</ele><time>2026-04-18T09:17:45.002Z</time></trkpt><trkpt lat="43.52169035542582" lon="10.900225720430395"><ele>433.0</ele><time>2026-04-18T09:17:46.002Z</time></trkpt><trkpt lat="43.521572694914916" lon="10.900347644836572"><ele>433.0</ele><time>2026-04-18T09:17:47.002Z</time></trkpt><trkpt lat="43.52145671985404" lon="10.9004772318825"><ele>433.0</ele><time>2026-04-18T09:17:48.002Z</time></trkpt><trkpt lat="43.52133939614977" lon="10.900604866858652"><ele>433.0</ele><time>2026-04-18T09:17:49.002Z</time></trkpt><trkpt lat="43.52122063481081" lon="10.900734004422212"><ele>435.0</ele><time>2026-04-18T09:17:50.002Z</time></trkpt><trkpt lat="43.52110005681646" lon="10.900864517988786"><ele>437.0</ele><time>2026-04-18T09:17:51.002Z</time></trkpt><trkpt lat="43.52097957017239" lon="10.900997243230194"><ele>439.0</ele><time>2026-04-18T09:17:52.002Z</time></trkpt><trkpt lat="43.5208582308621" lon="10.90113256432271"><ele>439.0</ele><time>2026-04-18T09:17:53.002Z</time></trkpt><trkpt lat="43.52073725945422" lon="10.901266399496937"><ele>439.0</ele><time>2026-04-18T09:17:54.002Z</time></trkpt><trkpt lat="43.52061555731485" lon="10.901404498029374"><ele>439.0</ele><time>2026-04-18T09:17:55.002Z</time></trkpt><trkpt lat="43.52049233941058" lon="10.90154123614239"><ele>438.0</ele><time>2026-04-18T09:17:56.002Z</time></trkpt><trkpt lat="43.52036793711291" lon="10.901676842240239"><ele>437.0</ele><time>2026-04-18T09:17:57.002Z</time></trkpt><trkpt lat="43.52024686834337" lon="10.901811967663964"><ele>436.0</ele><time>2026-04-18T09:17:58.002Z</time></trkpt><trkpt lat="43.52012685115328" lon="10.90194183609024"><ele>436.0</ele><time>2026-04-18T09:17:59.002Z</time></trkpt><trkpt lat="43.520006134304154" lon="10.90207211917196"><ele>436.0</ele><time>2026-04-18T09:18:00.002Z</time></trkpt><trkpt lat="43.51988085177088" lon="10.90219706373403"><ele>436.0</ele><time>2026-04-18T09:18:01.002Z</time></trkpt><trkpt lat="43.51974988566217" lon="10.902310563377448"><ele>436.0</ele><time>2026-04-18T09:18:02.002Z</time></trkpt><trkpt lat="43.51961414134715" lon="10.902413110362458"><ele>436.0</ele><time>2026-04-18T09:18:03.002Z</time></trkpt><trkpt lat="43.5194697372837" lon="10.902497614416719"><ele>436.0</ele><time>2026-04-18T09:18:04.002Z</time></trkpt><trkpt lat="43.51931944798732" lon="10.902567823943048"><ele>438.0</ele><time>2026-04-18T09:18:05.002Z</time></trkpt><trkpt lat="43.51916373441088" lon="10.902618088836274"><ele>440.0</ele><time>2026-04-18T09:18:06.002Z</time></trkpt><trkpt lat="43.51900165534211" lon="10.902645191323002"><ele>442.0</ele><time>2026-04-18T09:18:07.002Z</time></trkpt><trkpt lat="43.51883628535229" lon="10.902653976135527"><ele>441.6666666666667</ele><time>2026-04-18T09:18:08.002Z</time></trkpt><trkpt lat="43.51866533568054" lon="10.902658456052091"><ele>441.33333333333337</ele><time>2026-04-18T09:18:09.002Z</time></trkpt><trkpt lat="43.51849308566563" lon="10.902663409253542"><ele>441.0</ele><time>2026-04-18T09:18:10.002Z</time></trkpt><trkpt lat="43.51831696296009" lon="10.902668573305235"><ele>441.0</ele><time>2026-04-18T09:18:11.002Z</time></trkpt><trkpt lat="43.518141655096315" lon="10.902677867358648"><ele>441.0</ele><time>2026-04-18T09:18:12.002Z</time></trkpt><trkpt lat="43.517971422202876" lon="10.902686913976362"><ele>441.0</ele><time>2026-04-18T09:18:13.002Z</time></trkpt><trkpt lat="43.51780559802912" lon="10.902696451432552"><ele>444.0</ele><time>2026-04-18T09:18:14.002Z</time></trkpt><trkpt lat="43.51764502527319" lon="10.902692279125885"><ele>447.0</ele><time>2026-04-18T09:18:15.002Z</time></trkpt><trkpt lat="43.51749313013269" lon="10.902664666816348"><ele>450.0</ele><time>2026-04-18T09:18:16.002Z</time></trkpt><trkpt lat="43.517351805172375" lon="10.902604905464187"><ele>449.75</ele><time>2026-04-18T09:18:17.002Z</time></trkpt><trkpt lat="43.517216951645075" lon="10.902518947514471"><ele>449.5</ele><time>2026-04-18T09:18:18.002Z</time></trkpt><trkpt lat="43.517094605498286" lon="10.902405957174796"><ele>449.25</ele><time>2026-04-18T09:18:19.002Z</time></trkpt><trkpt lat="43.51698280464188" lon="10.902270792179207"><ele>449.0</ele><time>2026-04-18T09:18:20.002Z</time></trkpt><trkpt lat="43.51686727047396" lon="10.90213448841973"><ele>454.5</ele><time>2026-04-18T09:18:21.002Z</time></trkpt><trkpt lat="43.51675279665416" lon="10.901991310668626"><ele>460.0</ele><time>2026-04-18T09:18:22.002Z</time></trkpt><trkpt lat="43.516514822308714" lon="10.9017114618981"><ele>460.0</ele><time>2026-04-18T09:18:24.002Z</time></trkpt><trkpt lat="43.51639307036671" lon="10.901582429307814"><ele>460.0</ele><time>2026-04-18T09:18:25.002Z</time></trkpt><trkpt lat="43.5162724132186" lon="10.901461096096062"><ele>460.0</ele><time>2026-04-18T09:18:26.002Z</time></trkpt><trkpt lat="43.51614754385846" lon="10.901351501303266"><ele>461.0</ele><time>2026-04-18T09:18:27.002Z</time></trkpt><trkpt lat="43.51601663803388" lon="10.90125091597242"><ele>462.0</ele><time>2026-04-18T09:18:28.002Z</time></trkpt><trkpt lat="43.51588451623332" lon="10.901155755998218"><ele>463.0</ele><time>2026-04-18T09:18:29.002Z</time></trkpt><trkpt lat="43.515752151635496" lon="10.90106154788825"><ele>464.0</ele><time>2026-04-18T09:18:30.002Z</time></trkpt><trkpt lat="43.51561760108148" lon="10.900970056362674"><ele>467.0</ele><time>2026-04-18T09:18:31.002Z</time></trkpt><trkpt lat="43.51548148349846" lon="10.9008813373307"><ele>470.0</ele><time>2026-04-18T09:18:32.002Z</time></trkpt><trkpt lat="43.515344907694356" lon="10.900793026477581"><ele>473.0</ele><time>2026-04-18T09:18:33.002Z</time></trkpt><trkpt lat="43.51520763964465" lon="10.900706601301215"><ele>473.0</ele><time>2026-04-18T09:18:34.002Z</time></trkpt><trkpt lat="43.515070631020684" lon="10.900620489015905"><ele>473.0</ele><time>2026-04-18T09:18:35.002Z</time></trkpt><trkpt lat="43.51493421851026" lon="10.900536745756618"><ele>473.0</ele><time>2026-04-18T09:18:36.002Z</time></trkpt><trkpt lat="43.51479861787113" lon="10.900451862430348"><ele>473.0</ele><time>2026-04-18T09:18:37.001Z</time></trkpt><trkpt lat="43.51466345197695" lon="10.900366795001085"><ele>474.25</ele><time>2026-04-18T09:18:38.001Z</time></trkpt><trkpt lat="43.51453124700498" lon="10.900277053476504"><ele>475.5</ele><time>2026-04-18T09:18:39.001Z</time></trkpt><trkpt lat="43.51440264023143" lon="10.90017621237866"><ele>476.75</ele><time>2026-04-18T09:18:40.001Z</time></trkpt><trkpt lat="43.5142775035799" lon="10.900063701722871"><ele>478.0</ele><time>2026-04-18T09:18:41.001Z</time></trkpt><trkpt lat="43.51415793337884" lon="10.899945432281946"><ele>478.0</ele><time>2026-04-18T09:18:42.001Z</time></trkpt><trkpt lat="43.51403878878226" lon="10.899820633495654"><ele>478.0</ele><time>2026-04-18T09:18:43.001Z</time></trkpt><trkpt lat="43.51391879475796" lon="10.899693858661363"><ele>478.0</ele><time>2026-04-18T09:18:44.001Z</time></trkpt><trkpt lat="43.513803773214924" lon="10.899569159392268"><ele>478.0</ele><time>2026-04-18T09:18:45.001Z</time></trkpt><trkpt lat="43.51369062583208" lon="10.899451014986662"><ele>477.5</ele><time>2026-04-18T09:18:46.001Z</time></trkpt><trkpt lat="43.51358034792393" lon="10.899338445515886"><ele>477.0</ele><time>2026-04-18T09:18:47.001Z</time></trkpt><trkpt lat="43.51347358830643" lon="10.89922902960351"><ele>476.5</ele><time>2026-04-18T09:18:48.001Z</time></trkpt><trkpt lat="43.513366238615376" lon="10.899131540740356"><ele>476.0</ele><time>2026-04-18T09:18:49.001Z</time></trkpt><trkpt lat="43.51325588056532" lon="10.899047973882498"><ele>476.5</ele><time>2026-04-18T09:18:50.001Z</time></trkpt><trkpt lat="43.51313766826328" lon="10.898980603061476"><ele>477.0</ele><time>2026-04-18T09:18:51.001Z</time></trkpt><trkpt lat="43.51301199930698" lon="10.898931852476267"><ele>477.5</ele><time>2026-04-18T09:18:52.001Z</time></trkpt><trkpt lat="43.512881818174904" lon="10.89890626277477"><ele>478.0</ele><time>2026-04-18T09:18:53.001Z</time></trkpt><trkpt lat="43.51274893876413" lon="10.898895230780372"><ele>478.0</ele><time>2026-04-18T09:18:54Z</time></trkpt><trkpt lat="43.51261675087034" lon="10.8989051361773"><ele>478.0</ele><time>2026-04-18T09:18:55Z</time></trkpt><trkpt lat="43.51248554682014" lon="10.898937283068364"><ele>478.0</ele><time>2026-04-18T09:18:56Z</time></trkpt><trkpt lat="43.51236155009645" lon="10.899001649304688"><ele>478.0</ele><time>2026-04-18T09:18:57Z</time></trkpt><trkpt lat="43.5122457967342" lon="10.899080678780127"><ele>478.0</ele><time>2026-04-18T09:18:58Z</time></trkpt><trkpt lat="43.512137973241465" lon="10.899178359309914"><ele>478.0</ele><time>2026-04-18T09:18:59Z</time></trkpt><trkpt lat="43.51203860765105" lon="10.89928955220282"><ele>478.0</ele><time>2026-04-18T09:19:00Z</time></trkpt><trkpt lat="43.51195133683113" lon="10.899418526095511"><ele>478.0</ele><time>2026-04-18T09:19:01Z</time></trkpt><trkpt lat="43.51187895047005" lon="10.899561525007393"><ele>479.5</ele><time>2026-04-18T09:19:02Z</time></trkpt><trkpt lat="43.511820145263975" lon="10.899721278211683"><ele>481.0</ele><time>2026-04-18T09:19:03Z</time></trkpt><trkpt lat="43.51177877144433" lon="10.899895227395097"><ele>482.5</ele><time>2026-04-18T09:19:04Z</time></trkpt><trkpt lat="43.51175648306273" lon="10.900079845275712"><ele>484.0</ele><time>2026-04-18T09:19:05Z</time></trkpt><trkpt lat="43.51175076330391" lon="10.90027144116905"><ele>484.0</ele><time>2026-04-18T09:19:06Z</time></trkpt><trkpt lat="43.51175496112687" lon="10.900467228971157"><ele>484.0</ele><time>2026-04-18T09:19:07Z</time></trkpt><trkpt lat="43.51176013282131" lon="10.900663212406878"><ele>484.0</ele><time>2026-04-18T09:19:08Z</time></trkpt><trkpt lat="43.51177949241696" lon="10.900864240716919"><ele>484.0</ele><time>2026-04-18T09:19:08.999Z</time></trkpt><trkpt lat="43.511817234667475" lon="10.901067433501908"><ele>484.0</ele><time>2026-04-18T09:19:09.999Z</time></trkpt><trkpt lat="43.511868015229005" lon="10.901270668422073"><ele>484.0</ele><time>2026-04-18T09:19:10.999Z</time></trkpt><trkpt lat="43.51193233422173" lon="10.901470474814328"><ele>484.0</ele><time>2026-04-18T09:19:11.999Z</time></trkpt><trkpt lat="43.51200086435224" lon="10.901668268449637"><ele>483.6666666666667</ele><time>2026-04-18T09:19:12.999Z</time></trkpt><trkpt lat="43.51206610229166" lon="10.901866649000036"><ele>483.33333333333337</ele><time>2026-04-18T09:19:13.999Z</time></trkpt><trkpt lat="43.512122092885804" lon="10.902068884196387"><ele>483.0</ele><time>2026-04-18T09:19:14.999Z</time></trkpt><trkpt lat="43.5121650466316" lon="10.902276512617538"><ele>483.0</ele><time>2026-04-18T09:19:15.999Z</time></trkpt><trkpt lat="43.51218991040205" lon="10.902490581863098"><ele>483.0</ele><time>2026-04-18T09:19:16.999Z</time></trkpt><trkpt lat="43.51220083540029" lon="10.90270852809007"><ele>483.0</ele><time>2026-04-18T09:19:17.999Z</time></trkpt><trkpt lat="43.51219777257758" lon="10.902931194463093"><ele>483.33333333333337</ele><time>2026-04-18T09:19:18.999Z</time></trkpt><trkpt lat="43.51218245830224" lon="10.903154252835575"><ele>483.6666666666667</ele><time>2026-04-18T09:19:19.999Z</time></trkpt><trkpt lat="43.512164725621226" lon="10.903382397280646"><ele>484.0</ele><time>2026-04-18T09:19:20.999Z</time></trkpt><trkpt lat="43.51214574571649" lon="10.903610941358215"><ele>484.33333333333337</ele><time>2026-04-18T09:19:21.999Z</time></trkpt><trkpt lat="43.51212245750433" lon="10.90383556359347"><ele>484.66666666666663</ele><time>2026-04-18T09:19:22.999Z</time></trkpt><trkpt lat="43.51209119984196" lon="10.904049066924722"><ele>485.0</ele><time>2026-04-18T09:19:23.999Z</time></trkpt><trkpt lat="43.512039078881955" lon="10.904240627808344"><ele>486.25</ele><time>2026-04-18T09:19:24.999Z</time></trkpt><trkpt lat="43.51196659654845" lon="10.90440460442138"><ele>487.5</ele><time>2026-04-18T09:19:25.999Z</time></trkpt><trkpt lat="43.51186834939322" lon="10.904554144231982"><ele>488.75</ele><time>2026-04-18T09:19:26.999Z</time></trkpt><trkpt lat="43.51175622337189" lon="10.904692430263776"><ele>490.0</ele><time>2026-04-18T09:19:27.999Z</time></trkpt><trkpt lat="43.51161071261709" lon="10.904754813406543"><ele>490.0</ele><time>2026-04-18T09:19:28.999Z</time></trkpt><trkpt lat="43.51146423344108" lon="10.904811149714202"><ele>490.0</ele><time>2026-04-18T09:19:29.999Z</time></trkpt><trkpt lat="43.51131521648541" lon="10.90486596756912"><ele>490.0</ele><time>2026-04-18T09:19:30.999Z</time></trkpt><trkpt lat="43.51115949746727" lon="10.90492311062378"><ele>489.33333333333337</ele><time>2026-04-18T09:19:31.999Z</time></trkpt><trkpt lat="43.51099675419154" lon="10.90498283137808"><ele>488.66666666666663</ele><time>2026-04-18T09:19:32.999Z</time></trkpt><trkpt lat="43.51083419695528" lon="10.905063471247372"><ele>488.0</ele><time>2026-04-18T09:19:33.999Z</time></trkpt><trkpt lat="43.510662120639694" lon="10.905123981719075"><ele>487.0</ele><time>2026-04-18T09:19:34.999Z</time></trkpt><trkpt lat="43.510485650798124" lon="10.905187905470974"><ele>486.0</ele><time>2026-04-18T09:19:35.999Z</time></trkpt><trkpt lat="43.510302946693734" lon="10.905230202540082"><ele>485.0</ele><time>2026-04-18T09:19:36.999Z</time></trkpt><trkpt lat="43.510120318964425" lon="10.905295042608184"><ele>487.0</ele><time>2026-04-18T09:19:37.999Z</time></trkpt><trkpt lat="43.50993523236118" lon="10.905360949348607"><ele>489.0</ele><time>2026-04-18T09:19:38.999Z</time></trkpt><trkpt lat="43.50974988629999" lon="10.905426948535297"><ele>491.0</ele><time>2026-04-18T09:19:39.999Z</time></trkpt><trkpt lat="43.509564784961256" lon="10.905492860640717"><ele>493.66666666666663</ele><time>2026-04-18T09:19:40.999Z</time></trkpt><trkpt lat="43.50938369116761" lon="10.905580398040113"><ele>496.33333333333337</ele><time>2026-04-18T09:19:41.999Z</time></trkpt><trkpt lat="43.509200225211266" lon="10.90564620922899"><ele>499.0</ele><time>2026-04-18T09:19:42.999Z</time></trkpt><trkpt lat="43.509015916627696" lon="10.905710333952374"><ele>499.0</ele><time>2026-04-18T09:19:43.999Z</time></trkpt><trkpt lat="43.50883093985611" lon="10.905771202645463"><ele>499.0</ele><time>2026-04-18T09:19:44.999Z</time></trkpt><trkpt lat="43.508647671752584" lon="10.905835048907225"><ele>499.0</ele><time>2026-04-18T09:19:45.999Z</time></trkpt><trkpt lat="43.50846616874219" lon="10.905897554896004"><ele>501.6666666666667</ele><time>2026-04-18T09:19:46.999Z</time></trkpt><trkpt lat="43.50828825719923" lon="10.905961186951314"><ele>504.33333333333337</ele><time>2026-04-18T09:19:47.999Z</time></trkpt><trkpt lat="43.508113303223006" lon="10.906024190994124"><ele>507.0</ele><time>2026-04-18T09:19:48.999Z</time></trkpt><trkpt lat="43.5079489762296" lon="10.90608373068185"><ele>508.0</ele><time>2026-04-18T09:19:49.999Z</time></trkpt><trkpt lat="43.50779212876123" lon="10.906145037343476"><ele>509.0</ele><time>2026-04-18T09:19:51Z</time></trkpt><trkpt lat="43.507644728700356" lon="10.906224474504459"><ele>510.0</ele><time>2026-04-18T09:19:52Z</time></trkpt><trkpt lat="43.50750421970619" lon="10.906334810325697"><ele>510.0</ele><time>2026-04-18T09:19:53Z</time></trkpt><trkpt lat="43.507369795798674" lon="10.906468736901253"><ele>510.0</ele><time>2026-04-18T09:19:54Z</time></trkpt><trkpt lat="43.50724066141083" lon="10.906614593788305"><ele>510.0</ele><time>2026-04-18T09:19:55Z</time></trkpt><trkpt lat="43.50711041468436" lon="10.906763419131076"><ele>513.3333333333334</ele><time>2026-04-18T09:19:56Z</time></trkpt><trkpt lat="43.50696839546043" lon="10.906896992295552"><ele>516.6666666666667</ele><time>2026-04-18T09:19:57Z</time></trkpt><trkpt lat="43.50683327323516" lon="10.907048237538552"><ele>520.0</ele><time>2026-04-18T09:19:58Z</time></trkpt><trkpt lat="43.506698147787844" lon="10.907199075816687"><ele>520.0</ele><time>2026-04-18T09:19:59Z</time></trkpt><trkpt lat="43.506563750448684" lon="10.907349101026306"><ele>520.0</ele><time>2026-04-18T09:20:00Z</time></trkpt><trkpt lat="43.506432244070716" lon="10.907495899306173"><ele>520.0</ele><time>2026-04-18T09:20:01Z</time></trkpt><trkpt lat="43.50630328955366" lon="10.90763984871573"><ele>521.3333333333334</ele><time>2026-04-18T09:20:02Z</time></trkpt><trkpt lat="43.50618094464994" lon="10.907773989176281"><ele>522.6666666666666</ele><time>2026-04-18T09:20:03Z</time></trkpt><trkpt lat="43.50606513238046" lon="10.907916383213736"><ele>524.0</ele><time>2026-04-18T09:20:04Z</time></trkpt><trkpt lat="43.50592878196453" lon="10.908020306141175"><ele>524.0</ele><time>2026-04-18T09:20:05Z</time></trkpt><trkpt lat="43.50578665855972" lon="10.908102345411756"><ele>524.0</ele><time>2026-04-18T09:20:06Z</time></trkpt><trkpt lat="43.50563590012664" lon="10.908160232183354"><ele>524.0</ele><time>2026-04-18T09:20:07Z</time></trkpt><trkpt lat="43.50548213912935" lon="10.9081824112239"><ele>525.3333333333333</ele><time>2026-04-18T09:20:08Z</time></trkpt><trkpt lat="43.50532278606845" lon="10.908182751594964"><ele>526.6666666666666</ele><time>2026-04-18T09:20:09Z</time></trkpt><trkpt lat="43.50515989605952" lon="10.908160426583258"><ele>528.0</ele><time>2026-04-18T09:20:10Z</time></trkpt><trkpt lat="43.504995940359635" lon="10.908135586803295"><ele>528.0</ele><time>2026-04-18T09:20:11Z</time></trkpt><trkpt lat="43.504829152997935" lon="10.908111670456591"><ele>528.0</ele><time>2026-04-18T09:20:12Z</time></trkpt><trkpt lat="43.50465962573762" lon="10.908086178415315"><ele>528.0</ele><time>2026-04-18T09:20:13Z</time></trkpt><trkpt lat="43.50448778834669" lon="10.908058736582971"><ele>530.0</ele><time>2026-04-18T09:20:14Z</time></trkpt><trkpt lat="43.50431580960194" lon="10.908033424130984"><ele>532.0</ele><time>2026-04-18T09:20:15Z</time></trkpt><trkpt lat="43.50414432039062" lon="10.908008895640792"><ele>534.0</ele><time>2026-04-18T09:20:16Z</time></trkpt><trkpt lat="43.50397300880263" lon="10.907962883238943"><ele>534.0</ele><time>2026-04-18T09:20:17Z</time></trkpt><trkpt lat="43.50380315506887" lon="10.907940007009756"><ele>534.0</ele><time>2026-04-18T09:20:18Z</time></trkpt><trkpt lat="43.50363150907873" lon="10.907914032925733"><ele>534.0</ele><time>2026-04-18T09:20:19Z</time></trkpt><trkpt lat="43.50346082448109" lon="10.907887047903996"><ele>534.6666666666666</ele><time>2026-04-18T09:20:20Z</time></trkpt><trkpt lat="43.50329682760687" lon="10.90786053909979"><ele>535.3333333333333</ele><time>2026-04-18T09:20:21Z</time></trkpt><trkpt lat="43.503138521808786" lon="10.907834753259383"><ele>536.0</ele><time>2026-04-18T09:20:22Z</time></trkpt><trkpt lat="43.50298419483201" lon="10.907811162576541"><ele>535.3333333333333</ele><time>2026-04-18T09:20:23Z</time></trkpt><trkpt lat="43.502833049499046" lon="10.907789315180926"><ele>534.6666666666666</ele><time>2026-04-18T09:20:24Z</time></trkpt><trkpt lat="43.50268407313005" lon="10.907766949702546"><ele>534.0</ele><time>2026-04-18T09:20:25Z</time></trkpt><trkpt lat="43.50253655260857" lon="10.907744488831609"><ele>534.0</ele><time>2026-04-18T09:20:26Z</time></trkpt><trkpt lat="43.50239019550458" lon="10.907724420404191"><ele>534.0</ele><time>2026-04-18T09:20:27Z</time></trkpt><trkpt lat="43.50224523896152" lon="10.907704553756282"><ele>534.0</ele><time>2026-04-18T09:20:28Z</time></trkpt><trkpt lat="43.5021037925196" lon="10.907682376099626"><ele>534.0</ele><time>2026-04-18T09:20:29Z</time></trkpt><trkpt lat="43.50196610491888" lon="10.907669233027871"><ele>534.75</ele><time>2026-04-18T09:20:30Z</time></trkpt><trkpt lat="43.50183475726584" lon="10.907677519821783"><ele>535.5</ele><time>2026-04-18T09:20:31Z</time></trkpt><trkpt lat="43.501704301214836" lon="10.907708092791749"><ele>536.25</ele><time>2026-04-18T09:20:32Z</time></trkpt><trkpt lat="43.5015799995809" lon="10.90776628108918"><ele>537.0</ele><time>2026-04-18T09:20:33Z</time></trkpt><trkpt lat="43.50146079445085" lon="10.907852213320222"><ele>537.0</ele><time>2026-04-18T09:20:34Z</time></trkpt><trkpt lat="43.50135513021862" lon="10.907967237754418"><ele>537.0</ele><time>2026-04-18T09:20:35Z</time></trkpt><trkpt lat="43.501262730265005" lon="10.90810056687154"><ele>537.0</ele><time>2026-04-18T09:20:36Z</time></trkpt><trkpt lat="43.50117571767548" lon="10.90823982796718"><ele>537.0</ele><time>2026-04-18T09:20:37Z</time></trkpt><trkpt lat="43.50109462152388" lon="10.908385767741045"><ele>538.25</ele><time>2026-04-18T09:20:38Z</time></trkpt><trkpt lat="43.50101462876919" lon="10.9085411404054"><ele>539.5</ele><time>2026-04-18T09:20:39Z</time></trkpt><trkpt lat="43.50093940811807" lon="10.90870408869412"><ele>540.75</ele><time>2026-04-18T09:20:40Z</time></trkpt><trkpt lat="43.500872288002334" lon="10.90887237551208"><ele>542.0</ele><time>2026-04-18T09:20:41Z</time></trkpt><trkpt lat="43.500814830686544" lon="10.909047982583356"><ele>542.0</ele><time>2026-04-18T09:20:42Z</time></trkpt><trkpt lat="43.50076424972963" lon="10.909226328964092"><ele>542.0</ele><time>2026-04-18T09:20:42.999Z</time></trkpt><trkpt lat="43.500717668259455" lon="10.909401657442972"><ele>542.0</ele><time>2026-04-18T09:20:43.999Z</time></trkpt><trkpt lat="43.500673834557354" lon="10.909571578008304"><ele>542.0</ele><time>2026-04-18T09:20:44.999Z</time></trkpt><trkpt lat="43.50063486251562" lon="10.909735608742311"><ele>542.0</ele><time>2026-04-18T09:20:45.999Z</time></trkpt><trkpt lat="43.500600845240676" lon="10.909897611343013"><ele>542.0</ele><time>2026-04-18T09:20:46.999Z</time></trkpt><trkpt lat="43.5005759875136" lon="10.910063262965036"><ele>542.0</ele><time>2026-04-18T09:20:47.999Z</time></trkpt><trkpt lat="43.500561164437265" lon="10.910231589362802"><ele>542.0</ele><time>2026-04-18T09:20:48.999Z</time></trkpt><trkpt lat="43.50056530980387" lon="10.910402222049344"><ele>543.0</ele><time>2026-04-18T09:20:49.999Z</time></trkpt><trkpt lat="43.500585207539615" lon="10.910572231989914"><ele>544.0</ele><time>2026-04-18T09:20:50.999Z</time></trkpt><trkpt lat="43.50061182047119" lon="10.91073799215192"><ele>545.0</ele><time>2026-04-18T09:20:52Z</time></trkpt><trkpt lat="43.50064224491201" lon="10.910902998364518"><ele>546.0</ele><time>2026-04-18T09:20:53Z</time></trkpt><trkpt lat="43.500671448392126" lon="10.911069677484338"><ele>546.0</ele><time>2026-04-18T09:20:54Z</time></trkpt><trkpt lat="43.50069888399636" lon="10.911238047452859"><ele>546.0</ele><time>2026-04-18T09:20:55Z</time></trkpt><trkpt lat="43.50072418844076" lon="10.911406192574884"><ele>546.0</ele><time>2026-04-18T09:20:56Z</time></trkpt><trkpt lat="43.50075039994022" lon="10.911575458179623"><ele>546.0</ele><time>2026-04-18T09:20:57Z</time></trkpt><trkpt lat="43.50076555404379" lon="10.911747027137222"><ele>544.75</ele><time>2026-04-18T09:20:58Z</time></trkpt><trkpt lat="43.50076505102785" lon="10.911911869535269"><ele>543.5</ele><time>2026-04-18T09:20:59Z</time></trkpt><trkpt lat="43.500742225375575" lon="10.912072039099398"><ele>542.25</ele><time>2026-04-18T09:21:00Z</time></trkpt><trkpt lat="43.500706454397196" lon="10.912236118665618"><ele>541.0</ele><time>2026-04-18T09:21:01Z</time></trkpt><trkpt lat="43.500658011449715" lon="10.912399384090708"><ele>541.0</ele><time>2026-04-18T09:21:02Z</time></trkpt><trkpt lat="43.5006055118822" lon="10.91256717841248"><ele>541.0</ele><time>2026-04-18T09:21:03Z</time></trkpt><trkpt lat="43.50054558333547" lon="10.91273709852494"><ele>541.0</ele><time>2026-04-18T09:21:04Z</time></trkpt><trkpt lat="43.50048462836843" lon="10.912906686007002"><ele>541.0</ele><time>2026-04-18T09:21:05Z</time></trkpt><trkpt lat="43.500416474099204" lon="10.913071288300692"><ele>540.25</ele><time>2026-04-18T09:21:06Z</time></trkpt><trkpt lat="43.50034585823087" lon="10.913231003271658"><ele>539.5</ele><time>2026-04-18T09:21:07Z</time></trkpt><trkpt lat="43.50027358116648" lon="10.913390194151116"><ele>538.75</ele><time>2026-04-18T09:21:08Z</time></trkpt><trkpt lat="43.500204204288465" lon="10.913548722979302"><ele>538.0</ele><time>2026-04-18T09:21:09Z</time></trkpt><trkpt lat="43.50013204534337" lon="10.913705331968323"><ele>538.0</ele><time>2026-04-18T09:21:10Z</time></trkpt><trkpt lat="43.500058456261215" lon="10.91385595970694"><ele>538.0</ele><time>2026-04-18T09:21:11.001Z</time></trkpt><trkpt lat="43.49998838071056" lon="10.914003878778292"><ele>538.0</ele><time>2026-04-18T09:21:12.001Z</time></trkpt><trkpt lat="43.49992334639877" lon="10.91414865048206"><ele>538.0</ele><time>2026-04-18T09:21:13.001Z</time></trkpt><trkpt lat="43.49986899118008" lon="10.914295727089947"><ele>538.0</ele><time>2026-04-18T09:21:14.001Z</time></trkpt><trkpt lat="43.4998325456908" lon="10.914455154208099"><ele>538.0</ele><time>2026-04-18T09:21:15.001Z</time></trkpt><trkpt lat="43.4998213437821" lon="10.914625912618252"><ele>538.0</ele><time>2026-04-18T09:21:16.001Z</time></trkpt><trkpt lat="43.49983084472584" lon="10.9148005130452"><ele>538.0</ele><time>2026-04-18T09:21:17.001Z</time></trkpt><trkpt lat="43.499849997651154" lon="10.914977289375503"><ele>537.75</ele><time>2026-04-18T09:21:18.001Z</time></trkpt><trkpt lat="43.499874429321316" lon="10.915157427401356"><ele>537.5</ele><time>2026-04-18T09:21:19.001Z</time></trkpt><trkpt lat="43.4998997285233" lon="10.91533944471943"><ele>537.25</ele><time>2026-04-18T09:21:20.001Z</time></trkpt><trkpt lat="43.49992418782013" lon="10.915520251909351"><ele>537.0</ele><time>2026-04-18T09:21:21.001Z</time></trkpt><trkpt lat="43.49994995593823" lon="10.915698148188483"><ele>537.0</ele><time>2026-04-18T09:21:22.001Z</time></trkpt><trkpt lat="43.499972964186455" lon="10.91587204167029"><ele>537.0</ele><time>2026-04-18T09:21:23.001Z</time></trkpt><trkpt lat="43.49998679809285" lon="10.91604463320714"><ele>537.0</ele><time>2026-04-18T09:21:24.001Z</time></trkpt><trkpt lat="43.499980195558614" lon="10.916216621956893"><ele>537.0</ele><time>2026-04-18T09:21:25.001Z</time></trkpt><trkpt lat="43.49995383974895" lon="10.916383327837494"><ele>536.5</ele><time>2026-04-18T09:21:26.001Z</time></trkpt><trkpt lat="43.499908013016096" lon="10.91654122233045"><ele>536.0</ele><time>2026-04-18T09:21:27.001Z</time></trkpt><trkpt lat="43.49983645742364" lon="10.91667450503026"><ele>535.5</ele><time>2026-04-18T09:21:28.001Z</time></trkpt><trkpt lat="43.49974660163921" lon="10.916773265001686"><ele>535.0</ele><time>2026-04-18T09:21:29.001Z</time></trkpt><trkpt lat="43.499645490093414" lon="10.916856294247346"><ele>537.0</ele><time>2026-04-18T09:21:30.001Z</time></trkpt><trkpt lat="43.49954126973631" lon="10.916938671144878"><ele>539.0</ele><time>2026-04-18T09:21:31.001Z</time></trkpt><trkpt lat="43.499435549553745" lon="10.917021733465072"><ele>541.0</ele><time>2026-04-18T09:21:32.001Z</time></trkpt><trkpt lat="43.499330981246075" lon="10.917103684092652"><ele>543.0</ele><time>2026-04-18T09:21:33.001Z</time></trkpt><trkpt lat="43.49922696845023" lon="10.91718519343256"><ele>543.0</ele><time>2026-04-18T09:21:34.001Z</time></trkpt><trkpt lat="43.49912455223867" lon="10.91726546896375"><ele>543.0</ele><time>2026-04-18T09:21:35.001Z</time></trkpt><trkpt lat="43.49902907675064" lon="10.917340304441188"><ele>543.0</ele><time>2026-04-18T09:21:36.001Z</time></trkpt><trkpt lat="43.49893831725026" lon="10.917411443044823"><ele>543.0</ele><time>2026-04-18T09:21:37.001Z</time></trkpt><trkpt lat="43.49885125054806" lon="10.917479687448969"><ele>543.0</ele><time>2026-04-18T09:21:38.001Z</time></trkpt><trkpt lat="43.49876659490323" lon="10.917549405036283"><ele>542.0</ele><time>2026-04-18T09:21:39.001Z</time></trkpt><trkpt lat="43.498674313431685" lon="10.917620664325403"><ele>541.0</ele><time>2026-04-18T09:21:40.001Z</time></trkpt><trkpt lat="43.4985739120448" lon="10.91765078088896"><ele>540.0</ele><time>2026-04-18T09:21:41.001Z</time></trkpt><trkpt lat="43.49847402035067" lon="10.917674064225912"><ele>539.0</ele><time>2026-04-18T09:21:42.001Z</time></trkpt><trkpt lat="43.49837076824897" lon="10.917691695612183"><ele>538.0</ele><time>2026-04-18T09:21:43.001Z</time></trkpt><trkpt lat="43.49826865956172" lon="10.917712749824348"><ele>538.0</ele><time>2026-04-18T09:21:44.001Z</time></trkpt><trkpt lat="43.49816830121543" lon="10.917737336122174"><ele>538.0</ele><time>2026-04-18T09:21:45.001Z</time></trkpt><trkpt lat="43.498066783976334" lon="10.917781567369126"><ele>538.0</ele><time>2026-04-18T09:21:46.001Z</time></trkpt><trkpt lat="43.49799480664891" lon="10.917902687507864"><ele>538.0</ele><time>2026-04-18T09:21:47.001Z</time></trkpt><trkpt lat="43.49793980418456" lon="10.918024220460453"><ele>538.0</ele><time>2026-04-18T09:21:48.001Z</time></trkpt><trkpt lat="43.49790637374395" lon="10.918165560511154"><ele>538.0</ele><time>2026-04-18T09:21:49.001Z</time></trkpt><trkpt lat="43.49786903558109" lon="10.9183107332144"><ele>538.0</ele><time>2026-04-18T09:21:50.001Z</time></trkpt><trkpt lat="43.49781076415249" lon="10.918453948821192"><ele>538.0</ele><time>2026-04-18T09:21:51.001Z</time></trkpt><trkpt lat="43.49778133364518" lon="10.918620804317213"><ele>538.0</ele><time>2026-04-18T09:21:52.001Z</time></trkpt><trkpt lat="43.497736056424586" lon="10.918784128490815"><ele>538.0</ele><time>2026-04-18T09:21:53.001Z</time></trkpt><trkpt lat="43.497684714069756" lon="10.918951518909836"><ele>538.0</ele><time>2026-04-18T09:21:54.001Z</time></trkpt><trkpt lat="43.49762756826242" lon="10.91911928336687"><ele>538.0</ele><time>2026-04-18T09:21:55.001Z</time></trkpt><trkpt lat="43.49756879613208" lon="10.91929076099299"><ele>538.0</ele><time>2026-04-18T09:21:56.002Z</time></trkpt><trkpt lat="43.49750610174028" lon="10.919462881557077"><ele>536.5</ele><time>2026-04-18T09:21:57.002Z</time></trkpt><trkpt lat="43.497446779243596" lon="10.919632546077091"><ele>535.0</ele><time>2026-04-18T09:21:58.002Z</time></trkpt><trkpt lat="43.49740441681736" lon="10.919807642544537"><ele>533.5</ele><time>2026-04-18T09:21:59.002Z</time></trkpt><trkpt lat="43.49738829357807" lon="10.919997932668833"><ele>532.0</ele><time>2026-04-18T09:22:00.002Z</time></trkpt><trkpt lat="43.4973942246191" lon="10.9201908526609"><ele>530.75</ele><time>2026-04-18T09:22:01.002Z</time></trkpt><trkpt lat="43.497407957763805" lon="10.920379811121752"><ele>529.5</ele><time>2026-04-18T09:22:02.002Z</time></trkpt><trkpt lat="43.49741148606551" lon="10.920552509750463"><ele>528.25</ele><time>2026-04-18T09:22:03.002Z</time></trkpt><trkpt lat="43.49739983465875" lon="10.92069445695716"><ele>527.0</ele><time>2026-04-18T09:22:04.002Z</time></trkpt><trkpt lat="43.49736184223663" lon="10.920802044935892"><ele>527.0</ele><time>2026-04-18T09:22:05.002Z</time></trkpt><trkpt lat="43.49729328683555" lon="10.920891196021207"><ele>527.0</ele><time>2026-04-18T09:22:06.002Z</time></trkpt><trkpt lat="43.49720189609742" lon="10.92093674727225"><ele>527.0</ele><time>2026-04-18T09:22:07.002Z</time></trkpt><trkpt lat="43.49710917051051" lon="10.920987461327158"><ele>527.0</ele><time>2026-04-18T09:22:08.002Z</time></trkpt><trkpt lat="43.497012693029724" lon="10.921058249861792"><ele>527.0</ele><time>2026-04-18T09:22:09.002Z</time></trkpt><trkpt lat="43.49690557723851" lon="10.921104213372153"><ele>524.75</ele><time>2026-04-18T09:22:10.002Z</time></trkpt><trkpt lat="43.496794957093776" lon="10.921157439940353"><ele>522.5</ele><time>2026-04-18T09:22:11.002Z</time></trkpt><trkpt lat="43.496679768818375" lon="10.921209128519738"><ele>520.25</ele><time>2026-04-18T09:22:12.002Z</time></trkpt><trkpt lat="43.496565245525346" lon="10.92127446526078"><ele>518.0</ele><time>2026-04-18T09:22:13.002Z</time></trkpt><trkpt lat="43.49644409378514" lon="10.92134592927962"><ele>518.0</ele><time>2026-04-18T09:22:14.002Z</time></trkpt><trkpt lat="43.496353920590586" lon="10.921484755974689"><ele>518.0</ele><time>2026-04-18T09:22:15.002Z</time></trkpt><trkpt lat="43.49627017811937" lon="10.92162696577242"><ele>518.0</ele><time>2026-04-18T09:22:16.002Z</time></trkpt><trkpt lat="43.49620035866249" lon="10.921780134220928"><ele>518.0</ele><time>2026-04-18T09:22:17.002Z</time></trkpt><trkpt lat="43.49612821351308" lon="10.921939258243103"><ele>517.75</ele><time>2026-04-18T09:22:18.002Z</time></trkpt><trkpt lat="43.49605144823066" lon="10.922100058042078"><ele>517.5</ele><time>2026-04-18T09:22:19.002Z</time></trkpt><trkpt lat="43.495974150462565" lon="10.922263633160302"><ele>517.25</ele><time>2026-04-18T09:22:20.002Z</time></trkpt><trkpt lat="43.49589694140685" lon="10.922432518943735"><ele>517.0</ele><time>2026-04-18T09:22:21.002Z</time></trkpt><trkpt lat="43.49581680261088" lon="10.922601005365605"><ele>517.5</ele><time>2026-04-18T09:22:22.002Z</time></trkpt><trkpt lat="43.49572878668913" lon="10.922762771950818"><ele>518.0</ele><time>2026-04-18T09:22:23.002Z</time></trkpt><trkpt lat="43.49563159242358" lon="10.922919847412523"><ele>518.5</ele><time>2026-04-18T09:22:24.002Z</time></trkpt><trkpt lat="43.49551349133242" lon="10.923045453642322"><ele>519.0</ele><time>2026-04-18T09:22:25.002Z</time></trkpt><trkpt lat="43.49540200143031" lon="10.923177695887555"><ele>518.0</ele><time>2026-04-18T09:22:26.002Z</time></trkpt><trkpt lat="43.49529039819339" lon="10.923310072615608"><ele>517.0</ele><time>2026-04-18T09:22:27.002Z</time></trkpt><trkpt lat="43.49518028904408" lon="10.92344218420123"><ele>516.0</ele><time>2026-04-18T09:22:28.002Z</time></trkpt><trkpt lat="43.49508285860017" lon="10.923588213718526"><ele>515.0</ele><time>2026-04-18T09:22:29.002Z</time></trkpt><trkpt lat="43.494975606985506" lon="10.923716781759364"><ele>515.0</ele><time>2026-04-18T09:22:30.002Z</time></trkpt><trkpt lat="43.494872136644425" lon="10.92384554792516"><ele>515.0</ele><time>2026-04-18T09:22:31.002Z</time></trkpt><trkpt lat="43.494758828693136" lon="10.923957187805081"><ele>515.0</ele><time>2026-04-18T09:22:32.002Z</time></trkpt><trkpt lat="43.49465745184717" lon="10.924088061528023"><ele>515.0</ele><time>2026-04-18T09:22:33.002Z</time></trkpt><trkpt lat="43.494457222109425" lon="10.924353263104626"><ele>513.0</ele><time>2026-04-18T09:22:35.002Z</time></trkpt><trkpt lat="43.4943584645211" lon="10.924484939715978"><ele>511.0</ele><time>2026-04-18T09:22:36.002Z</time></trkpt><trkpt lat="43.494257463869964" lon="10.924619541824914"><ele>509.0</ele><time>2026-04-18T09:22:37.002Z</time></trkpt><trkpt lat="43.49415799387554" lon="10.924752112406482"><ele>507.0</ele><time>2026-04-18T09:22:38.002Z</time></trkpt><trkpt lat="43.49406740445928" lon="10.924881845734717"><ele>507.0</ele><time>2026-04-18T09:22:39.002Z</time></trkpt><trkpt lat="43.49399524489522" lon="10.925013777929703"><ele>507.0</ele><time>2026-04-18T09:22:40.002Z</time></trkpt><trkpt lat="43.493938945765265" lon="10.925162553336914"><ele>507.0</ele><time>2026-04-18T09:22:41.002Z</time></trkpt><trkpt lat="43.49392875238299" lon="10.92533644974997"><ele>507.0</ele><time>2026-04-18T09:22:42.002Z</time></trkpt><trkpt lat="43.493902062090676" lon="10.925510618289202"><ele>505.66666666666663</ele><time>2026-04-18T09:22:43.002Z</time></trkpt><trkpt lat="43.493917202955" lon="10.925686466755248"><ele>504.3333333333333</ele><time>2026-04-18T09:22:44.002Z</time></trkpt><trkpt lat="43.49389731876396" lon="10.925860754220295"><ele>503.0</ele><time>2026-04-18T09:22:45.002Z</time></trkpt><trkpt lat="43.493887858270114" lon="10.926175963246873"><ele>502.16666666666663</ele><time>2026-04-18T09:22:47.002Z</time></trkpt><trkpt lat="43.4938843430859" lon="10.926308170987644"><ele>501.3333333333333</ele><time>2026-04-18T09:22:48.002Z</time></trkpt><trkpt lat="43.49388225000742" lon="10.926427873560895"><ele>500.5</ele><time>2026-04-18T09:22:49.001Z</time></trkpt><trkpt lat="43.49388321749005" lon="10.92652734131349"><ele>499.66666666666663</ele><time>2026-04-18T09:22:50.001Z</time></trkpt><trkpt lat="43.49388443804494" lon="10.926653637835338"><ele>498.8333333333333</ele><time>2026-04-18T09:22:52.001Z</time></trkpt><trkpt lat="43.49387425257713" lon="10.926746041375525"><ele>498.0</ele><time>2026-04-18T09:22:55.001Z</time></trkpt><trkpt lat="43.49380566998414" lon="10.926804569681524"><ele>498.0</ele><time>2026-04-18T09:22:56.001Z</time></trkpt><trkpt lat="43.49369991367283" lon="10.926905609309477"><ele>498.0</ele><time>2026-04-18T09:22:58.001Z</time></trkpt><trkpt lat="43.49364033846906" lon="10.926971662364725"><ele>498.0</ele><time>2026-04-18T09:22:59.001Z</time></trkpt><trkpt lat="43.49358406024522" lon="10.927043818960199"><ele>498.0</ele><time>2026-04-18T09:23:00.001Z</time></trkpt><trkpt lat="43.49353056980232" lon="10.927120457460031"><ele>498.0</ele><time>2026-04-18T09:23:01.001Z</time></trkpt><trkpt lat="43.49347518594155" lon="10.927201111212971"><ele>498.0</ele><time>2026-04-18T09:23:02.001Z</time></trkpt><trkpt lat="43.4934183252094" lon="10.927287709171418"><ele>498.0</ele><time>2026-04-18T09:23:03.001Z</time></trkpt><trkpt lat="43.493356404631065" lon="10.927378718303233"><ele>497.99999999999994</ele><time>2026-04-18T09:23:04.001Z</time></trkpt><trkpt lat="43.49328802127888" lon="10.927479249278447"><ele>497.99999999999994</ele><time>2026-04-18T09:23:05.001Z</time></trkpt><trkpt lat="43.493216151792545" lon="10.927580449974934"><ele>498.0</ele><time>2026-04-18T09:23:06.001Z</time></trkpt><trkpt lat="43.49314311315743" lon="10.927695077001495"><ele>498.0</ele><time>2026-04-18T09:23:07.001Z</time></trkpt><trkpt lat="43.49306393638697" lon="10.927814004711639"><ele>497.0</ele><time>2026-04-18T09:23:08.001Z</time></trkpt><trkpt lat="43.49298056238163" lon="10.927935259042032"><ele>496.0</ele><time>2026-04-18T09:23:09.001Z</time></trkpt><trkpt lat="43.49289719765537" lon="10.928061383366952"><ele>495.0</ele><time>2026-04-18T09:23:10.001Z</time></trkpt><trkpt lat="43.49281001532927" lon="10.92819054610435"><ele>494.0</ele><time>2026-04-18T09:23:11.001Z</time></trkpt><trkpt lat="43.49272767952202" lon="10.928315916223655"><ele>491.5</ele><time>2026-04-18T09:23:12.001Z</time></trkpt><trkpt lat="43.49264731212973" lon="10.928434729160578"><ele>489.0</ele><time>2026-04-18T09:23:13.001Z</time></trkpt><trkpt lat="43.49256793249305" lon="10.928544687511303"><ele>486.5</ele><time>2026-04-18T09:23:14.001Z</time></trkpt><trkpt lat="43.49247851141565" lon="10.928641640830536"><ele>484.0</ele><time>2026-04-18T09:23:15.001Z</time></trkpt><trkpt lat="43.49238193773557" lon="10.928719182029013"><ele>484.0</ele><time>2026-04-18T09:23:16.001Z</time></trkpt><trkpt lat="43.49227858394954" lon="10.92877533727901"><ele>484.0</ele><time>2026-04-18T09:23:17.001Z</time></trkpt><trkpt lat="43.49216434719222" lon="10.928801983220874"><ele>484.0</ele><time>2026-04-18T09:23:18.001Z</time></trkpt><trkpt lat="43.492045487573186" lon="10.928801624944855"><ele>484.0</ele><time>2026-04-18T09:23:19.001Z</time></trkpt><trkpt lat="43.49192506494796" lon="10.928776392109537"><ele>484.5</ele><time>2026-04-18T09:23:20.001Z</time></trkpt><trkpt lat="43.49180695061621" lon="10.928718707461016"><ele>485.0</ele><time>2026-04-18T09:23:21.001Z</time></trkpt><trkpt lat="43.49169722714571" lon="10.928637695122987"><ele>485.5</ele><time>2026-04-18T09:23:22.001Z</time></trkpt><trkpt lat="43.49159570988254" lon="10.92856270421764"><ele>486.0</ele><time>2026-04-18T09:23:23.001Z</time></trkpt><trkpt lat="43.491491052286996" lon="10.928511170169319"><ele>486.0</ele><time>2026-04-18T09:23:24.001Z</time></trkpt><trkpt lat="43.49138092805434" lon="10.92849591178226"><ele>486.0</ele><time>2026-04-18T09:23:25.001Z</time></trkpt><trkpt lat="43.491270634814654" lon="10.928512469415098"><ele>486.0</ele><time>2026-04-18T09:23:26.001Z</time></trkpt><trkpt lat="43.49116666277434" lon="10.928561744748489"><ele>486.0</ele><time>2026-04-18T09:23:27.001Z</time></trkpt><trkpt lat="43.491072536040996" lon="10.92864986235755"><ele>486.0</ele><time>2026-04-18T09:23:28.001Z</time></trkpt><trkpt lat="43.49099719565032" lon="10.928773382384003"><ele>484.5</ele><time>2026-04-18T09:23:29.001Z</time></trkpt><trkpt lat="43.49093234950574" lon="10.928911100657707"><ele>483.0</ele><time>2026-04-18T09:23:30.001Z</time></trkpt><trkpt lat="43.49087200517584" lon="10.929059727908896"><ele>481.5</ele><time>2026-04-18T09:23:31.001Z</time></trkpt><trkpt lat="43.49081106155003" lon="10.929216842529547"><ele>480.0</ele><time>2026-04-18T09:23:32.001Z</time></trkpt><trkpt lat="43.49074141038133" lon="10.929374830972506"><ele>480.0</ele><time>2026-04-18T09:23:33.001Z</time></trkpt><trkpt lat="43.490674186490324" lon="10.92953558620987"><ele>480.0</ele><time>2026-04-18T09:23:34.001Z</time></trkpt><trkpt lat="43.49060452519722" lon="10.929700841625474"><ele>480.0</ele><time>2026-04-18T09:23:35.001Z</time></trkpt><trkpt lat="43.490533315326154" lon="10.929866453815123"><ele>480.0</ele><time>2026-04-18T09:23:36.001Z</time></trkpt><trkpt lat="43.4904615726553" lon="10.930034031807615"><ele>475.5</ele><time>2026-04-18T09:23:37.001Z</time></trkpt><trkpt lat="43.49038728487267" lon="10.930201322279187"><ele>471.0</ele><time>2026-04-18T09:23:38.001Z</time></trkpt><trkpt lat="43.4903145563178" lon="10.930368018734326"><ele>466.5</ele><time>2026-04-18T09:23:39.001Z</time></trkpt><trkpt lat="43.49024306592029" lon="10.93053117296244"><ele>462.0</ele><time>2026-04-18T09:23:40.001Z</time></trkpt><trkpt lat="43.49018803722046" lon="10.930707792358628"><ele>462.0</ele><time>2026-04-18T09:23:41.001Z</time></trkpt><trkpt lat="43.49013672313429" lon="10.930884530773755"><ele>462.0</ele><time>2026-04-18T09:23:42.001Z</time></trkpt><trkpt lat="43.49010287535187" lon="10.931063222612346"><ele>462.0</ele><time>2026-04-18T09:23:43.001Z</time></trkpt><trkpt lat="43.49008502511514" lon="10.931247153002378"><ele>462.0</ele><time>2026-04-18T09:23:44.001Z</time></trkpt><trkpt lat="43.49007350928231" lon="10.931421865720663"><ele>461.8</ele><time>2026-04-18T09:23:45.001Z</time></trkpt><trkpt lat="43.490075116278256" lon="10.93158797364921"><ele>461.6</ele><time>2026-04-18T09:23:46.001Z</time></trkpt><trkpt lat="43.4900770360255" lon="10.931735196883546"><ele>461.40000000000003</ele><time>2026-04-18T09:23:47.001Z</time></trkpt><trkpt lat="43.49007775582752" lon="10.931878641776777"><ele>461.20000000000005</ele><time>2026-04-18T09:23:48.001Z</time></trkpt><trkpt lat="43.49007904591263" lon="10.932019968771407"><ele>461.0</ele><time>2026-04-18T09:23:49.001Z</time></trkpt><trkpt lat="43.490080346129346" lon="10.932148587125758"><ele>460.49999999999994</ele><time>2026-04-18T09:23:50.001Z</time></trkpt><trkpt lat="43.490078354750175" lon="10.932264689347342"><ele>460.0</ele><time>2026-04-18T09:23:51.001Z</time></trkpt><trkpt lat="43.49006333138448" lon="10.932367820441042"><ele>459.5</ele><time>2026-04-18T09:23:52.001Z</time></trkpt><trkpt lat="43.490023281110844" lon="10.932448418720437"><ele>459.0</ele><time>2026-04-18T09:23:53.001Z</time></trkpt><trkpt lat="43.489966679930944" lon="10.932495262985993"><ele>458.49999999999994</ele><time>2026-04-18T09:23:54.001Z</time></trkpt><trkpt lat="43.4898881313776" lon="10.932505976509724"><ele>458.0</ele><time>2026-04-18T09:23:55.001Z</time></trkpt><trkpt lat="43.489811751880545" lon="10.932466521153462"><ele>458.0</ele><time>2026-04-18T09:23:56.001Z</time></trkpt><trkpt lat="43.48976011124006" lon="10.932369282291898"><ele>457.99999999999994</ele><time>2026-04-18T09:23:57.001Z</time></trkpt><trkpt lat="43.48975108291433" lon="10.932248408774509"><ele>457.99999999999994</ele><time>2026-04-18T09:23:58.001Z</time></trkpt><trkpt lat="43.48975249740417" lon="10.93212717170432"><ele>458.0</ele><time>2026-04-18T09:23:59.001Z</time></trkpt><trkpt lat="43.489745949799946" lon="10.93200020178793"><ele>458.0</ele><time>2026-04-18T09:24:00.001Z</time></trkpt><trkpt lat="43.48973776710752" lon="10.931861612307133"><ele>458.75</ele><time>2026-04-18T09:24:01.001Z</time></trkpt><trkpt lat="43.489726602564296" lon="10.931714170751341"><ele>459.5</ele><time>2026-04-18T09:24:02.001Z</time></trkpt><trkpt lat="43.48971489014537" lon="10.931554332421262"><ele>460.25</ele><time>2026-04-18T09:24:03.001Z</time></trkpt><trkpt lat="43.48969829364155" lon="10.931384334007184"><ele>461.0</ele><time>2026-04-18T09:24:04.001Z</time></trkpt><trkpt lat="43.489681913393404" lon="10.931205405571482"><ele>461.0</ele><time>2026-04-18T09:24:05.001Z</time></trkpt><trkpt lat="43.48966447685888" lon="10.931016474850548"><ele>461.0</ele><time>2026-04-18T09:24:06.001Z</time></trkpt><trkpt lat="43.48964949515533" lon="10.930821077386108"><ele>461.0</ele><time>2026-04-18T09:24:07.001Z</time></trkpt><trkpt lat="43.48963652212567" lon="10.93062162968835"><ele>461.0</ele><time>2026-04-18T09:24:08.001Z</time></trkpt><trkpt lat="43.4896137060362" lon="10.93041732636293"><ele>453.3333333333333</ele><time>2026-04-18T09:24:09.002Z</time></trkpt><trkpt lat="43.48957845407357" lon="10.930215275917018"><ele>445.66666666666663</ele><time>2026-04-18T09:24:10.002Z</time></trkpt><trkpt lat="43.489528235503016" lon="10.930015266766658"><ele>438.0</ele><time>2026-04-18T09:24:11.002Z</time></trkpt><trkpt lat="43.48946820275065" lon="10.929818479686624"><ele>437.66666666666663</ele><time>2026-04-18T09:24:12.002Z</time></trkpt><trkpt lat="43.48940620717066" lon="10.9296212358856"><ele>437.3333333333333</ele><time>2026-04-18T09:24:13.002Z</time></trkpt><trkpt lat="43.48934296505532" lon="10.92942181320603"><ele>437.0</ele><time>2026-04-18T09:24:14.002Z</time></trkpt><trkpt lat="43.48928346021877" lon="10.929221879546843"><ele>436.66666666666663</ele><time>2026-04-18T09:24:15.002Z</time></trkpt><trkpt lat="43.489244188000804" lon="10.929016785817009"><ele>436.33333333333337</ele><time>2026-04-18T09:24:16.002Z</time></trkpt><trkpt lat="43.48923540743541" lon="10.928808158343537"><ele>436.0</ele><time>2026-04-18T09:24:17.002Z</time></trkpt><trkpt lat="43.48924996440375" lon="10.928597305412103"><ele>435.33333333333337</ele><time>2026-04-18T09:24:18.002Z</time></trkpt><trkpt lat="43.48926897036758" lon="10.92838648547458"><ele>434.66666666666663</ele><time>2026-04-18T09:24:19.002Z</time></trkpt><trkpt lat="43.48928663588154" lon="10.928174452475739"><ele>434.0</ele><time>2026-04-18T09:24:20.002Z</time></trkpt><trkpt lat="43.489301837891944" lon="10.927960893892108"><ele>434.0</ele><time>2026-04-18T09:24:21.002Z</time></trkpt><trkpt lat="43.48931495198948" lon="10.927745359578116"><ele>434.0</ele><time>2026-04-18T09:24:22.002Z</time></trkpt><trkpt lat="43.48932852742734" lon="10.927529988358359"><ele>434.0</ele><time>2026-04-18T09:24:23.002Z</time></trkpt><trkpt lat="43.489342727307495" lon="10.927324648742362"><ele>433.5</ele><time>2026-04-18T09:24:24.002Z</time></trkpt><trkpt lat="43.48936195602834" lon="10.927130462383998"><ele>433.0</ele><time>2026-04-18T09:24:25.002Z</time></trkpt><trkpt lat="43.48938447005823" lon="10.92693810063945"><ele>432.5</ele><time>2026-04-18T09:24:26.002Z</time></trkpt><trkpt lat="43.48940960080895" lon="10.926745424964263"><ele>432.0</ele><time>2026-04-18T09:24:27.002Z</time></trkpt><trkpt lat="43.489434445964136" lon="10.926555553151067"><ele>430.25</ele><time>2026-04-18T09:24:28.002Z</time></trkpt><trkpt lat="43.489460230228914" lon="10.926368693474595"><ele>428.5</ele><time>2026-04-18T09:24:29.002Z</time></trkpt><trkpt lat="43.48948739951924" lon="10.926187474426802"><ele>426.75</ele><time>2026-04-18T09:24:30.002Z</time></trkpt><trkpt lat="43.48951253683654" lon="10.926014875059009"><ele>425.0</ele><time>2026-04-18T09:24:31.002Z</time></trkpt><trkpt lat="43.48953508445433" lon="10.92584899891711"><ele>426.5</ele><time>2026-04-18T09:24:32.002Z</time></trkpt><trkpt lat="43.489557563801014" lon="10.925690272022784"><ele>428.0</ele><time>2026-04-18T09:24:33.002Z</time></trkpt><trkpt lat="43.48960246516835" lon="10.925383701186362"><ele>429.5</ele><time>2026-04-18T09:24:35.002Z</time></trkpt><trkpt lat="43.48962225032967" lon="10.925248930289147"><ele>431.0</ele><time>2026-04-18T09:24:36.002Z</time></trkpt><trkpt lat="43.48963890160495" lon="10.925130913037677"><ele>429.8</ele><time>2026-04-18T09:24:37.002Z</time></trkpt><trkpt lat="43.4896504418521" lon="10.925032311142893"><ele>428.6</ele><time>2026-04-18T09:24:38.002Z</time></trkpt><trkpt lat="43.489668107353914" lon="10.924917950546023"><ele>427.4</ele><time>2026-04-18T09:24:40.002Z</time></trkpt><trkpt lat="43.48952007890583" lon="10.924859094552636"><ele>426.2</ele><time>2026-04-18T09:24:42.002Z</time></trkpt><trkpt lat="43.489398964443104" lon="10.924898437906505"><ele>425.0</ele><time>2026-04-18T09:24:44.002Z</time></trkpt><trkpt lat="43.489330835943065" lon="10.924929519391531"><ele>423.66666666666663</ele><time>2026-04-18T09:24:45.002Z</time></trkpt><trkpt lat="43.48926785053531" lon="10.924984507677323"><ele>422.3333333333333</ele><time>2026-04-18T09:24:46.002Z</time></trkpt><trkpt lat="43.48920875018678" lon="10.925027645024464"><ele>421.0</ele><time>2026-04-18T09:24:47.002Z</time></trkpt><trkpt lat="43.489165609045756" lon="10.925110429008013"><ele>419.66666666666663</ele><time>2026-04-18T09:24:48.002Z</time></trkpt><trkpt lat="43.48913274449073" lon="10.92520136028051"><ele>418.3333333333333</ele><time>2026-04-18T09:24:49.002Z</time></trkpt><trkpt lat="43.48911141472707" lon="10.925308012715693"><ele>417.0</ele><time>2026-04-18T09:24:50.002Z</time></trkpt><trkpt lat="43.48910100882957" lon="10.925417807621505"><ele>417.0</ele><time>2026-04-18T09:24:51.002Z</time></trkpt><trkpt lat="43.48909874546997" lon="10.9255297478952"><ele>417.0</ele><time>2026-04-18T09:24:52.002Z</time></trkpt><trkpt lat="43.48909763428634" lon="10.925637032495372"><ele>417.0</ele><time>2026-04-18T09:24:53.002Z</time></trkpt><trkpt lat="43.48909871791335" lon="10.925740110726233"><ele>417.0</ele><time>2026-04-18T09:24:54.002Z</time></trkpt><trkpt lat="43.489093640952966" lon="10.925843900181142"><ele>417.0</ele><time>2026-04-18T09:24:55.001Z</time></trkpt><trkpt lat="43.48907849704445" lon="10.925948384811035"><ele>417.0</ele><time>2026-04-18T09:24:56.001Z</time></trkpt><trkpt lat="43.48904758252906" lon="10.926042189861267"><ele>418.3333333333333</ele><time>2026-04-18T09:24:57.001Z</time></trkpt><trkpt lat="43.489019533770616" lon="10.926138748167395"><ele>419.66666666666663</ele><time>2026-04-18T09:24:58.001Z</time></trkpt><trkpt lat="43.488971288329715" lon="10.92621226888844"><ele>421.0</ele><time>2026-04-18T09:24:59.001Z</time></trkpt><trkpt lat="43.48891882033335" lon="10.926279265394573"><ele>422.3333333333333</ele><time>2026-04-18T09:25:00.001Z</time></trkpt><trkpt lat="43.48885234680817" lon="10.926329687010213"><ele>423.66666666666663</ele><time>2026-04-18T09:25:01.001Z</time></trkpt><trkpt lat="43.488777364813046" lon="10.92636491266224"><ele>425.0</ele><time>2026-04-18T09:25:02.001Z</time></trkpt><trkpt lat="43.488699975386844" lon="10.926403107151303"><ele>421.99999999999994</ele><time>2026-04-18T09:25:03.001Z</time></trkpt><trkpt lat="43.48861554100223" lon="10.926435436263736"><ele>419.0</ele><time>2026-04-18T09:25:04.001Z</time></trkpt><trkpt lat="43.488526183381154" lon="10.926467651648986"><ele>416.0</ele><time>2026-04-18T09:25:05.001Z</time></trkpt><trkpt lat="43.48843749241741" lon="10.92649804966559"><ele>413.0</ele><time>2026-04-18T09:25:06.001Z</time></trkpt><trkpt lat="43.48835135381431" lon="10.92652752623484"><ele>409.99999999999994</ele><time>2026-04-18T09:25:07.001Z</time></trkpt><trkpt lat="43.48826804748576" lon="10.926552449676079"><ele>407.0</ele><time>2026-04-18T09:25:08.001Z</time></trkpt><trkpt lat="43.4881889341331" lon="10.926585048736163"><ele>406.99999999999994</ele><time>2026-04-18T09:25:09.001Z</time></trkpt><trkpt lat="43.488121897253095" lon="10.926642856153979"><ele>407.0</ele><time>2026-04-18T09:25:10.001Z</time></trkpt><trkpt lat="43.48805231723068" lon="10.926686420515098"><ele>407.0</ele><time>2026-04-18T09:25:11.001Z</time></trkpt><trkpt lat="43.48799262707148" lon="10.926763015472297"><ele>407.0</ele><time>2026-04-18T09:25:12.001Z</time></trkpt><trkpt lat="43.48794644068133" lon="10.926866241865673"><ele>406.99999999999994</ele><time>2026-04-18T09:25:13.001Z</time></trkpt><trkpt lat="43.48790564429017" lon="10.926961653240374"><ele>407.0</ele><time>2026-04-18T09:25:14.001Z</time></trkpt><trkpt lat="43.487871333722524" lon="10.92704774212852"><ele>405.16666666666663</ele><time>2026-04-18T09:25:15.001Z</time></trkpt><trkpt lat="43.487829962529645" lon="10.927113146816358"><ele>403.3333333333333</ele><time>2026-04-18T09:25:16.001Z</time></trkpt><trkpt lat="43.487737380952055" lon="10.927202513682253"><ele>401.5</ele><time>2026-04-18T09:25:18.001Z</time></trkpt><trkpt lat="43.48767848369339" lon="10.927169508600658"><ele>399.66666666666663</ele><time>2026-04-18T09:25:19.001Z</time></trkpt><trkpt lat="43.487570744661916" lon="10.927085699545714"><ele>397.8333333333333</ele><time>2026-04-18T09:25:21.001Z</time></trkpt><trkpt lat="43.487543862203935" lon="10.9269890724997"><ele>396.0</ele><time>2026-04-18T09:25:22.001Z</time></trkpt><trkpt lat="43.487542747728064" lon="10.926880289832896"><ele>396.0</ele><time>2026-04-18T09:25:23.001Z</time></trkpt><trkpt lat="43.48756375841189" lon="10.92677724938304"><ele>396.0</ele><time>2026-04-18T09:25:24.001Z</time></trkpt><trkpt lat="43.48757884842552" lon="10.926678068910585"><ele>396.0</ele><time>2026-04-18T09:25:25.001Z</time></trkpt><trkpt lat="43.48755951590703" lon="10.926583593449013"><ele>396.0</ele><time>2026-04-18T09:25:26.001Z</time></trkpt><trkpt lat="43.48752662369431" lon="10.926504357059537"><ele>396.0</ele><time>2026-04-18T09:25:27.001Z</time></trkpt><trkpt lat="43.48747332328756" lon="10.926442870463454"><ele>396.0</ele><time>2026-04-18T09:25:28.001Z</time></trkpt><trkpt lat="43.48740663168826" lon="10.926400987355763"><ele>396.0</ele><time>2026-04-18T09:25:29.001Z</time></trkpt><trkpt lat="43.48733111671294" lon="10.926378532227286"><ele>395.20000000000005</ele><time>2026-04-18T09:25:30.001Z</time></trkpt><trkpt lat="43.48724522217392" lon="10.926367784905192"><ele>394.40000000000003</ele><time>2026-04-18T09:25:31.001Z</time></trkpt><trkpt lat="43.48715678363697" lon="10.926352564788672"><ele>393.6</ele><time>2026-04-18T09:25:32.001Z</time></trkpt><trkpt lat="43.487064345159034" lon="10.926335193577366"><ele>392.8</ele><time>2026-04-18T09:25:33.001Z</time></trkpt><trkpt lat="43.486964710979144" lon="10.926323407591978"><ele>392.0</ele><time>2026-04-18T09:25:34.001Z</time></trkpt><trkpt lat="43.48685796662773" lon="10.926310960055623"><ele>389.20000000000005</ele><time>2026-04-18T09:25:35.001Z</time></trkpt><trkpt lat="43.48674811992372" lon="10.926292857307367"><ele>386.4</ele><time>2026-04-18T09:25:36.001Z</time></trkpt><trkpt lat="43.48664434777359" lon="10.92626471509185"><ele>383.6</ele><time>2026-04-18T09:25:37.001Z</time></trkpt><trkpt lat="43.48653475127878" lon="10.926255884450748"><ele>380.79999999999995</ele><time>2026-04-18T09:25:38.001Z</time></trkpt><trkpt lat="43.48642528680264" lon="10.926237060537687"><ele>378.0</ele><time>2026-04-18T09:25:39.001Z</time></trkpt><trkpt lat="43.486316848272494" lon="10.926221279119531"><ele>377.59999999999997</ele><time>2026-04-18T09:25:40.001Z</time></trkpt><trkpt lat="43.48621339671092" lon="10.926197284676565"><ele>377.2</ele><time>2026-04-18T09:25:41.001Z</time></trkpt><trkpt lat="43.48610715456227" lon="10.926221488714212"><ele>376.8</ele><time>2026-04-18T09:25:42.001Z</time></trkpt><trkpt lat="43.48600329046076" lon="10.92623012234005"><ele>376.4</ele><time>2026-04-18T09:25:43.001Z</time></trkpt><trkpt lat="43.485896849769745" lon="10.926237759566995"><ele>376.0</ele><time>2026-04-18T09:25:44.001Z</time></trkpt><trkpt lat="43.485787433731964" lon="10.926246873150518"><ele>376.0</ele><time>2026-04-18T09:25:45.001Z</time></trkpt><trkpt lat="43.48567666300539" lon="10.926261030423275"><ele>376.0</ele><time>2026-04-18T09:25:46.001Z</time></trkpt><trkpt lat="43.48556677762307" lon="10.926274298047156"><ele>376.0</ele><time>2026-04-18T09:25:47.001Z</time></trkpt><trkpt lat="43.485464568636495" lon="10.926285750080025"><ele>376.0</ele><time>2026-04-18T09:25:48.001Z</time></trkpt><trkpt lat="43.48536796933003" lon="10.926285306960601"><ele>376.0</ele><time>2026-04-18T09:25:49.001Z</time></trkpt><trkpt lat="43.48528815371989" lon="10.926275168813973"><ele>374.85714285714283</ele><time>2026-04-18T09:25:50.001Z</time></trkpt><trkpt lat="43.48521869064981" lon="10.926259109005164"><ele>373.71428571428567</ele><time>2026-04-18T09:25:51.001Z</time></trkpt><trkpt lat="43.48515260560199" lon="10.926231182992842"><ele>372.57142857142856</ele><time>2026-04-18T09:25:52.001Z</time></trkpt><trkpt lat="43.485089071336894" lon="10.926192256628433"><ele>371.42857142857144</ele><time>2026-04-18T09:25:53.001Z</time></trkpt><trkpt lat="43.48502425031345" lon="10.92614220782319"><ele>370.2857142857143</ele><time>2026-04-18T09:25:54.001Z</time></trkpt><trkpt lat="43.484960880237566" lon="10.926077701586458"><ele>369.14285714285717</ele><time>2026-04-18T09:25:55.001Z</time></trkpt><trkpt lat="43.48489866759533" lon="10.926005354965229"><ele>368.0</ele><time>2026-04-18T09:25:56.001Z</time></trkpt><trkpt lat="43.48483450893887" lon="10.925924958262765"><ele>368.0</ele><time>2026-04-18T09:25:57.001Z</time></trkpt><trkpt lat="43.484768388168916" lon="10.925843497298741"><ele>368.0</ele><time>2026-04-18T09:25:58.001Z</time></trkpt><trkpt lat="43.484708052571285" lon="10.925753434310359"><ele>368.0</ele><time>2026-04-18T09:25:59.001Z</time></trkpt><trkpt lat="43.48464751042793" lon="10.92566910628302"><ele>368.0</ele><time>2026-04-18T09:26:00.001Z</time></trkpt><trkpt lat="43.484579206308155" lon="10.925604791227236"><ele>368.0</ele><time>2026-04-18T09:26:01.001Z</time></trkpt><trkpt lat="43.484510356111265" lon="10.925546383520391"><ele>368.0</ele><time>2026-04-18T09:26:02.001Z</time></trkpt><trkpt lat="43.484423340014864" lon="10.925516707126445"><ele>367.0</ele><time>2026-04-18T09:26:03.001Z</time></trkpt><trkpt lat="43.484328552905964" lon="10.925511387805567"><ele>366.0</ele><time>2026-04-18T09:26:04.001Z</time></trkpt><trkpt lat="43.48423063352943" lon="10.925515305458683"><ele>365.0</ele><time>2026-04-18T09:26:05.001Z</time></trkpt><trkpt lat="43.4841300874692" lon="10.925540564106571"><ele>364.0</ele><time>2026-04-18T09:26:06.001Z</time></trkpt><trkpt lat="43.484030299268504" lon="10.925579204035593"><ele>363.0</ele><time>2026-04-18T09:26:07.001Z</time></trkpt><trkpt lat="43.48393187748379" lon="10.925638499939899"><ele>363.0</ele><time>2026-04-18T09:26:08.001Z</time></trkpt><trkpt lat="43.483838040616135" lon="10.92571978662437"><ele>363.0</ele><time>2026-04-18T09:26:09.001Z</time></trkpt><trkpt lat="43.48374791816293" lon="10.925815306749342"><ele>363.0</ele><time>2026-04-18T09:26:10.001Z</time></trkpt><trkpt lat="43.48366235645607" lon="10.925914800967671"><ele>363.0</ele><time>2026-04-18T09:26:11.001Z</time></trkpt><trkpt lat="43.48357993720683" lon="10.925985479199987"><ele>363.0</ele><time>2026-04-18T09:26:12.001Z</time></trkpt><trkpt lat="43.48350895798826" lon="10.926071597805876"><ele>361.0</ele><time>2026-04-18T09:26:13.001Z</time></trkpt><trkpt lat="43.48343596360082" lon="10.926145281412506"><ele>359.0</ele><time>2026-04-18T09:26:14.001Z</time></trkpt><trkpt lat="43.48335810241528" lon="10.926219211492539"><ele>357.0</ele><time>2026-04-18T09:26:15.001Z</time></trkpt><trkpt lat="43.483270308609285" lon="10.926278328804925"><ele>355.0</ele><time>2026-04-18T09:26:16.001Z</time></trkpt><trkpt lat="43.483171296000194" lon="10.926332853687194"><ele>353.0</ele><time>2026-04-18T09:26:17.001Z</time></trkpt><trkpt lat="43.48306804280222" lon="10.92638111312228"><ele>353.0</ele><time>2026-04-18T09:26:18.002Z</time></trkpt><trkpt lat="43.482965552223014" lon="10.926420329315487"><ele>353.0</ele><time>2026-04-18T09:26:19.002Z</time></trkpt><trkpt lat="43.48286009211453" lon="10.92646069802212"><ele>353.0</ele><time>2026-04-18T09:26:20.002Z</time></trkpt><trkpt lat="43.48275571190834" lon="10.926497223377893"><ele>353.0</ele><time>2026-04-18T09:26:21.002Z</time></trkpt><trkpt lat="43.48265807645556" lon="10.926543790889609"><ele>353.0</ele><time>2026-04-18T09:26:22.002Z</time></trkpt><trkpt lat="43.48257230210294" lon="10.926572904961006"><ele>352.83333333333337</ele><time>2026-04-18T09:26:23.002Z</time></trkpt><trkpt lat="43.482494215955626" lon="10.926608234789892"><ele>352.6666666666667</ele><time>2026-04-18T09:26:24.002Z</time></trkpt><trkpt lat="43.48241674232669" lon="10.926653041124414"><ele>352.5</ele><time>2026-04-18T09:26:25.002Z</time></trkpt><trkpt lat="43.48233985655302" lon="10.926707495335181"><ele>352.3333333333333</ele><time>2026-04-18T09:26:26.002Z</time></trkpt><trkpt lat="43.482265541569205" lon="10.92677740334768"><ele>352.16666666666663</ele><time>2026-04-18T09:26:27.002Z</time></trkpt><trkpt lat="43.48219859803684" lon="10.926842504571434"><ele>352.0</ele><time>2026-04-18T09:26:28.002Z</time></trkpt><trkpt lat="43.48213851239485" lon="10.926913648046574"><ele>351.2857142857143</ele><time>2026-04-18T09:26:29.002Z</time></trkpt><trkpt lat="43.48208589312994" lon="10.926990006580185"><ele>350.57142857142856</ele><time>2026-04-18T09:26:30.002Z</time></trkpt><trkpt lat="43.48203765376444" lon="10.92706598553492"><ele>349.8571428571429</ele><time>2026-04-18T09:26:31.002Z</time></trkpt><trkpt lat="43.48199074057764" lon="10.927140952669316"><ele>349.1428571428571</ele><time>2026-04-18T09:26:32.002Z</time></trkpt><trkpt lat="43.481941726906285" lon="10.927212459309999"><ele>348.4285714285714</ele><time>2026-04-18T09:26:33.002Z</time></trkpt><trkpt lat="43.48188430971471" lon="10.927275256706936"><ele>347.7142857142857</ele><time>2026-04-18T09:26:34.002Z</time></trkpt><trkpt lat="43.48182053801118" lon="10.927331680948706"><ele>347.0</ele><time>2026-04-18T09:26:35.002Z</time></trkpt><trkpt lat="43.48174827941999" lon="10.927368411547745"><ele>347.0</ele><time>2026-04-18T09:26:36.002Z</time></trkpt><trkpt lat="43.481667151793104" lon="10.927389955380258"><ele>347.0</ele><time>2026-04-18T09:26:37.002Z</time></trkpt><trkpt lat="43.48158151724113" lon="10.92739651080953"><ele>347.0</ele><time>2026-04-18T09:26:38.002Z</time></trkpt><trkpt lat="43.4814906968524" lon="10.92739043334184"><ele>347.0</ele><time>2026-04-18T09:26:39.002Z</time></trkpt><trkpt lat="43.48139726658727" lon="10.927364050041435"><ele>347.0</ele><time>2026-04-18T09:26:40.002Z</time></trkpt><trkpt lat="43.48130089679976" lon="10.927336609100475"><ele>346.40000000000003</ele><time>2026-04-18T09:26:41.002Z</time></trkpt><trkpt lat="43.481196837783116" lon="10.927323453112018"><ele>345.8</ele><time>2026-04-18T09:26:42.002Z</time></trkpt><trkpt lat="43.481086971363546" lon="10.927307158156163"><ele>345.2</ele><time>2026-04-18T09:26:43.002Z</time></trkpt><trkpt lat="43.48097408307062" lon="10.92728861784914"><ele>344.6</ele><time>2026-04-18T09:26:44.002Z</time></trkpt><trkpt lat="43.48086185413839" lon="10.92725572261097"><ele>344.0</ele><time>2026-04-18T09:26:45.002Z</time></trkpt><trkpt lat="43.48074531180604" lon="10.927228787244635"><ele>344.0</ele><time>2026-04-18T09:26:46.002Z</time></trkpt><trkpt lat="43.480623697781894" lon="10.927227795419459"><ele>344.0</ele><time>2026-04-18T09:26:47.002Z</time></trkpt><trkpt lat="43.48050497358566" lon="10.927214074079373"><ele>344.0</ele><time>2026-04-18T09:26:48.002Z</time></trkpt><trkpt lat="43.48038678855927" lon="10.927199258037168"><ele>344.0</ele><time>2026-04-18T09:26:49.002Z</time></trkpt><trkpt lat="43.4802734093718" lon="10.927190389731685"><ele>343.6</ele><time>2026-04-18T09:26:50.002Z</time></trkpt><trkpt lat="43.48016433204051" lon="10.927178598594024"><ele>343.2</ele><time>2026-04-18T09:26:51.002Z</time></trkpt><trkpt lat="43.480057390086664" lon="10.927171183765985"><ele>342.8</ele><time>2026-04-18T09:26:52.002Z</time></trkpt><trkpt lat="43.47994872886955" lon="10.927179616681387"><ele>342.40000000000003</ele><time>2026-04-18T09:26:53.002Z</time></trkpt><trkpt lat="43.47983990856547" lon="10.92717937020931"><ele>342.0</ele><time>2026-04-18T09:26:54.002Z</time></trkpt><trkpt lat="43.47973191598388" lon="10.927176509413181"><ele>342.0</ele><time>2026-04-18T09:26:55.002Z</time></trkpt><trkpt lat="43.4796214563236" lon="10.927177071860001"><ele>342.0</ele><time>2026-04-18T09:26:56.002Z</time></trkpt><trkpt lat="43.47950934508227" lon="10.927176714097973"><ele>342.0</ele><time>2026-04-18T09:26:57.002Z</time></trkpt><trkpt lat="43.47939497632437" lon="10.92718462504089"><ele>342.0</ele><time>2026-04-18T09:26:58.002Z</time></trkpt><trkpt lat="43.47928508273724" lon="10.927187402159912"><ele>342.0</ele><time>2026-04-18T09:26:59.002Z</time></trkpt><trkpt lat="43.479166360720995" lon="10.92719219465562"><ele>341.25</ele><time>2026-04-18T09:27:00.001Z</time></trkpt><trkpt lat="43.47905671607548" lon="10.927198901387126"><ele>340.5</ele><time>2026-04-18T09:27:01.001Z</time></trkpt><trkpt lat="43.4789534629831" lon="10.927192075941912"><ele>339.75</ele><time>2026-04-18T09:27:02.001Z</time></trkpt><trkpt lat="43.47884463434182" lon="10.92718636948872"><ele>339.0</ele><time>2026-04-18T09:27:03.001Z</time></trkpt><trkpt lat="43.47863117455059" lon="10.92712070800777"><ele>337.5</ele><time>2026-04-18T09:27:05.001Z</time></trkpt><trkpt lat="43.47852527790682" lon="10.92707552901257"><ele>336.0</ele><time>2026-04-18T09:27:06.001Z</time></trkpt><trkpt lat="43.478418406951434" lon="10.927026947405635"><ele>334.5</ele><time>2026-04-18T09:27:07.001Z</time></trkpt><trkpt lat="43.478309084877736" lon="10.926977373440184"><ele>333.0</ele><time>2026-04-18T09:27:08.001Z</time></trkpt><trkpt lat="43.478200814180546" lon="10.926928372651421"><ele>333.0</ele><time>2026-04-18T09:27:09.001Z</time></trkpt><trkpt lat="43.47808933059808" lon="10.926880002424138"><ele>333.0</ele><time>2026-04-18T09:27:10.001Z</time></trkpt><trkpt lat="43.47797801780064" lon="10.926829846143436"><ele>333.0</ele><time>2026-04-18T09:27:11.001Z</time></trkpt><trkpt lat="43.477864520132954" lon="10.926782410997632"><ele>333.0</ele><time>2026-04-18T09:27:12.001Z</time></trkpt><trkpt lat="43.4777489195732" lon="10.926735185978405"><ele>334.0</ele><time>2026-04-18T09:27:13.001Z</time></trkpt><trkpt lat="43.47763209293366" lon="10.92668517103287"><ele>335.0</ele><time>2026-04-18T09:27:14.001Z</time></trkpt><trkpt lat="43.477515908559134" lon="10.926625881555326"><ele>336.0</ele><time>2026-04-18T09:27:15.001Z</time></trkpt><trkpt lat="43.47739936533105" lon="10.92656138167065"><ele>337.0</ele><time>2026-04-18T09:27:16.001Z</time></trkpt><trkpt lat="43.47728289708052" lon="10.926489673759393"><ele>337.0</ele><time>2026-04-18T09:27:17.001Z</time></trkpt><trkpt lat="43.47716714975301" lon="10.926412537560946"><ele>337.0</ele><time>2026-04-18T09:27:18.001Z</time></trkpt><trkpt lat="43.47705047565205" lon="10.926333550201724"><ele>337.0</ele><time>2026-04-18T09:27:19.001Z</time></trkpt><trkpt lat="43.47693938352349" lon="10.926261409889907"><ele>337.0</ele><time>2026-04-18T09:27:20.001Z</time></trkpt><trkpt lat="43.47683562304984" lon="10.926196531297473"><ele>336.0</ele><time>2026-04-18T09:27:21.001Z</time></trkpt><trkpt lat="43.476741039867704" lon="10.926119177678293"><ele>335.0</ele><time>2026-04-18T09:27:22.001Z</time></trkpt><trkpt lat="43.476642941728244" lon="10.92605956742242"><ele>334.0</ele><time>2026-04-18T09:27:23.001Z</time></trkpt><trkpt lat="43.476465162410236" lon="10.925942608183066"><ele>333.0</ele><time>2026-04-18T09:27:25.001Z</time></trkpt><trkpt lat="43.47638528112217" lon="10.925883619121914"><ele>333.0</ele><time>2026-04-18T09:27:26.001Z</time></trkpt><trkpt lat="43.476308017211245" lon="10.9258298509794"><ele>333.0</ele><time>2026-04-18T09:27:27.001Z</time></trkpt><trkpt lat="43.476223236413105" lon="10.925783320397347"><ele>333.0</ele><time>2026-04-18T09:27:28.001Z</time></trkpt><trkpt lat="43.476131270751814" lon="10.925749879845247"><ele>333.0</ele><time>2026-04-18T09:27:29.001Z</time></trkpt><trkpt lat="43.476038283083994" lon="10.925732120571338"><ele>333.0</ele><time>2026-04-18T09:27:30.001Z</time></trkpt><trkpt lat="43.475941650364376" lon="10.925727986083134"><ele>331.4</ele><time>2026-04-18T09:27:31.001Z</time></trkpt><trkpt lat="43.47584340502182" lon="10.925739057842481"><ele>329.79999999999995</ele><time>2026-04-18T09:27:32.001Z</time></trkpt><trkpt lat="43.47574333479286" lon="10.925760215005402"><ele>328.2</ele><time>2026-04-18T09:27:33.001Z</time></trkpt><trkpt lat="43.475645686097366" lon="10.92577883573266"><ele>326.6</ele><time>2026-04-18T09:27:34.001Z</time></trkpt><trkpt lat="43.47555901988781" lon="10.92579584718835"><ele>325.0</ele><time>2026-04-18T09:27:35.001Z</time></trkpt><trkpt lat="43.47548122541373" lon="10.925813078598269"><ele>324.1428571428571</ele><time>2026-04-18T09:27:36.001Z</time></trkpt><trkpt lat="43.4754114879564" lon="10.92583124182862"><ele>323.28571428571433</ele><time>2026-04-18T09:27:37.001Z</time></trkpt><trkpt lat="43.47534392199956" lon="10.92584860580559"><ele>322.42857142857144</ele><time>2026-04-18T09:27:38.001Z</time></trkpt><trkpt lat="43.47527807092749" lon="10.925865167434525"><ele>321.57142857142856</ele><time>2026-04-18T09:27:39.001Z</time></trkpt><trkpt lat="43.47521133159215" lon="10.925883207038789"><ele>320.71428571428567</ele><time>2026-04-18T09:27:40.001Z</time></trkpt><trkpt lat="43.47514258768438" lon="10.925904032606736"><ele>319.8571428571429</ele><time>2026-04-18T09:27:41.001Z</time></trkpt><trkpt lat="43.47507266028781" lon="10.925926210448702"><ele>319.0</ele><time>2026-04-18T09:27:42.001Z</time></trkpt><trkpt lat="43.47500018176447" lon="10.925950507773473"><ele>315.8333333333333</ele><time>2026-04-18T09:27:43.001Z</time></trkpt><trkpt lat="43.47492293084042" lon="10.925975301962154"><ele>312.66666666666663</ele><time>2026-04-18T09:27:44.001Z</time></trkpt><trkpt lat="43.47484172477947" lon="10.925996773747045"><ele>309.5</ele><time>2026-04-18T09:27:45.001Z</time></trkpt><trkpt lat="43.47475880925347" lon="10.926016847551866"><ele>306.3333333333333</ele><time>2026-04-18T09:27:46.001Z</time></trkpt><trkpt lat="43.474680900993555" lon="10.926029019405933"><ele>303.1666666666667</ele><time>2026-04-18T09:27:47.001Z</time></trkpt><trkpt lat="43.474610522929304" lon="10.92603706668628"><ele>300.0</ele><time>2026-04-18T09:27:48.001Z</time></trkpt><trkpt lat="43.47454582005061" lon="10.926036289131908"><ele>301.1666666666667</ele><time>2026-04-18T09:27:49.001Z</time></trkpt><trkpt lat="43.47444119225319" lon="10.926021834024766"><ele>302.3333333333333</ele><time>2026-04-18T09:27:51.001Z</time></trkpt><trkpt lat="43.47436033129285" lon="10.925990809582162"><ele>303.5</ele><time>2026-04-18T09:27:53.001Z</time></trkpt><trkpt lat="43.47429353329664" lon="10.925959252779641"><ele>304.66666666666663</ele><time>2026-04-18T09:27:55.001Z</time></trkpt><trkpt lat="43.474239089484165" lon="10.925909669649073"><ele>305.8333333333333</ele><time>2026-04-18T09:28:12.001Z</time></trkpt><trkpt lat="43.47416747938138" lon="10.925848871876594"><ele>307.0</ele><time>2026-04-18T09:28:14.001Z</time></trkpt><trkpt lat="43.47411450896346" lon="10.92579730002625"><ele>307.0</ele><time>2026-04-18T09:28:15.001Z</time></trkpt><trkpt lat="43.47405302570975" lon="10.925731158685227"><ele>307.0</ele><time>2026-04-18T09:28:16.001Z</time></trkpt><trkpt lat="43.473986980528466" lon="10.925653448104102"><ele>307.0</ele><time>2026-04-18T09:28:17.001Z</time></trkpt><trkpt lat="43.473923545332696" lon="10.925564949179506"><ele>307.0</ele><time>2026-04-18T09:28:18.001Z</time></trkpt><trkpt lat="43.47386209481857" lon="10.925466141636353"><ele>307.0</ele><time>2026-04-18T09:28:19.001Z</time></trkpt><trkpt lat="43.4737937627577" lon="10.925373642565313"><ele>307.0</ele><time>2026-04-18T09:28:20.001Z</time></trkpt><trkpt lat="43.47371663195383" lon="10.925285300881331"><ele>305.4</ele><time>2026-04-18T09:28:21.001Z</time></trkpt><trkpt lat="43.47365530697732" lon="10.925173364772588"><ele>303.79999999999995</ele><time>2026-04-18T09:28:22.001Z</time></trkpt><trkpt lat="43.47359802096497" lon="10.925053906097201"><ele>302.2</ele><time>2026-04-18T09:28:23.001Z</time></trkpt><trkpt lat="43.473544899585235" lon="10.92493325526898"><ele>300.59999999999997</ele><time>2026-04-18T09:28:24.001Z</time></trkpt><trkpt lat="43.473499216381676" lon="10.924823478200372"><ele>299.0</ele><time>2026-04-18T09:28:25.001Z</time></trkpt><trkpt lat="43.47345754238923" lon="10.924725916826327"><ele>299.0</ele><time>2026-04-18T09:28:26.001Z</time></trkpt><trkpt lat="43.47341861892049" lon="10.92464099341455"><ele>299.0</ele><time>2026-04-18T09:28:27.001Z</time></trkpt><trkpt lat="43.473375770677194" lon="10.924558458261346"><ele>299.0</ele><time>2026-04-18T09:28:28.001Z</time></trkpt><trkpt lat="43.473330937518575" lon="10.924484049468678"><ele>299.0</ele><time>2026-04-18T09:28:29.001Z</time></trkpt><trkpt lat="43.473287801524656" lon="10.924419774309419"><ele>299.0</ele><time>2026-04-18T09:28:30.001Z</time></trkpt><trkpt lat="43.4732384673608" lon="10.924361126999603"><ele>299.0</ele><time>2026-04-18T09:28:31.001Z</time></trkpt><trkpt lat="43.47318343283316" lon="10.92430222926077"><ele>299.0</ele><time>2026-04-18T09:28:32.001Z</time></trkpt><trkpt lat="43.47312120219636" lon="10.924246604797604"><ele>300.33333333333337</ele><time>2026-04-18T09:28:33.001Z</time></trkpt><trkpt lat="43.47305794019717" lon="10.924192163971147"><ele>301.6666666666667</ele><time>2026-04-18T09:28:34.002Z</time></trkpt><trkpt lat="43.472993753321774" lon="10.924144339600083"><ele>303.0</ele><time>2026-04-18T09:28:35.002Z</time></trkpt><trkpt lat="43.47292874754577" lon="10.924095499490834"><ele>304.3333333333333</ele><time>2026-04-18T09:28:36.002Z</time></trkpt><trkpt lat="43.47286081037416" lon="10.924040574428723"><ele>305.66666666666663</ele><time>2026-04-18T09:28:37.002Z</time></trkpt><trkpt lat="43.47278894348613" lon="10.923984956671712"><ele>307.0</ele><time>2026-04-18T09:28:38.002Z</time></trkpt><trkpt lat="43.47271638126955" lon="10.923928886328614"><ele>304.4285714285714</ele><time>2026-04-18T09:28:39.002Z</time></trkpt><trkpt lat="43.472646324305195" lon="10.923871873290876"><ele>301.85714285714283</ele><time>2026-04-18T09:28:40.002Z</time></trkpt><trkpt lat="43.47258096135593" lon="10.923818853025448"><ele>299.2857142857143</ele><time>2026-04-18T09:28:41.002Z</time></trkpt><trkpt lat="43.47252262730634" lon="10.9237718314466"><ele>296.71428571428567</ele><time>2026-04-18T09:28:42.002Z</time></trkpt><trkpt lat="43.472463224167036" lon="10.923726664469497"><ele>294.1428571428571</ele><time>2026-04-18T09:28:43.002Z</time></trkpt><trkpt lat="43.472405526253276" lon="10.923681408619471"><ele>291.57142857142856</ele><time>2026-04-18T09:28:44.002Z</time></trkpt><trkpt lat="43.47234873501446" lon="10.923636162975715"><ele>289.0</ele><time>2026-04-18T09:28:45.002Z</time></trkpt><trkpt lat="43.472292958362196" lon="10.923590141148894"><ele>289.0</ele><time>2026-04-18T09:28:46.002Z</time></trkpt><trkpt lat="43.472198536389286" lon="10.923488727363436"><ele>289.0</ele><time>2026-04-18T09:28:48.002Z</time></trkpt><trkpt lat="43.47214229685906" lon="10.923371742634847"><ele>289.0</ele><time>2026-04-18T09:28:50.002Z</time></trkpt><trkpt lat="43.47211093634462" lon="10.923231738876872"><ele>289.0</ele><time>2026-04-18T09:28:52.002Z</time></trkpt><trkpt lat="43.47212079777072" lon="10.923061871020835"><ele>289.66666666666663</ele><time>2026-04-18T09:28:54.002Z</time></trkpt><trkpt lat="43.47214655308974" lon="10.922972109315392"><ele>290.3333333333333</ele><time>2026-04-18T09:28:55.002Z</time></trkpt><trkpt lat="43.472200111284685" lon="10.92290151722207"><ele>291.0</ele><time>2026-04-18T09:28:56.002Z</time></trkpt><trkpt lat="43.472251483728265" lon="10.922821197548338"><ele>291.6666666666667</ele><time>2026-04-18T09:28:57.002Z</time></trkpt><trkpt lat="43.472296926614185" lon="10.922725526538711"><ele>292.33333333333337</ele><time>2026-04-18T09:28:58.002Z</time></trkpt><trkpt lat="43.47236110526056" lon="10.922646777631389"><ele>293.0</ele><time>2026-04-18T09:28:59.002Z</time></trkpt><trkpt lat="43.47243148542361" lon="10.922568863524448"><ele>291.1666666666667</ele><time>2026-04-18T09:29:00.002Z</time></trkpt><trkpt lat="43.47250687218146" lon="10.922495753801725"><ele>289.33333333333337</ele><time>2026-04-18T09:29:01.002Z</time></trkpt><trkpt lat="43.47258183248009" lon="10.922423841038276"><ele>287.5</ele><time>2026-04-18T09:29:02.002Z</time></trkpt><trkpt lat="43.472648427871334" lon="10.922351405852202"><ele>285.6666666666667</ele><time>2026-04-18T09:29:03.002Z</time></trkpt><trkpt lat="43.472711546317406" lon="10.922280990316576"><ele>283.8333333333333</ele><time>2026-04-18T09:29:04.002Z</time></trkpt><trkpt lat="43.47277086669313" lon="10.922207571926064"><ele>282.0</ele><time>2026-04-18T09:29:05.002Z</time></trkpt><trkpt lat="43.47282510861624" lon="10.922131018034165"><ele>282.0</ele><time>2026-04-18T09:29:06Z</time></trkpt><trkpt lat="43.47287998442577" lon="10.922051484492526"><ele>282.0</ele><time>2026-04-18T09:29:07Z</time></trkpt><trkpt lat="43.47293384443566" lon="10.921968260432253"><ele>282.0</ele><time>2026-04-18T09:29:08Z</time></trkpt><trkpt lat="43.47298532609998" lon="10.921885727520682"><ele>282.0</ele><time>2026-04-18T09:29:09Z</time></trkpt><trkpt lat="43.47303474800737" lon="10.921803039054412"><ele>282.0</ele><time>2026-04-18T09:29:10Z</time></trkpt><trkpt lat="43.47308148466258" lon="10.921723247373423"><ele>282.0</ele><time>2026-04-18T09:29:11Z</time></trkpt><trkpt lat="43.473128468459315" lon="10.921649379671232"><ele>281.7142857142857</ele><time>2026-04-18T09:29:12Z</time></trkpt><trkpt lat="43.47317533696647" lon="10.921579533171943"><ele>281.42857142857144</ele><time>2026-04-18T09:29:13Z</time></trkpt><trkpt lat="43.47322082356377" lon="10.921504026048275"><ele>281.1428571428571</ele><time>2026-04-18T09:29:14Z</time></trkpt><trkpt lat="43.473259888012954" lon="10.921417196346479"><ele>280.8571428571429</ele><time>2026-04-18T09:29:15Z</time></trkpt><trkpt lat="43.47329444778309" lon="10.921323924952175"><ele>280.57142857142856</ele><time>2026-04-18T09:29:16Z</time></trkpt><trkpt lat="43.47332134025485" lon="10.921226925695787"><ele>280.2857142857143</ele><time>2026-04-18T09:29:17Z</time></trkpt><trkpt lat="43.47334413079079" lon="10.921129262737226"><ele>280.0</ele><time>2026-04-18T09:29:18Z</time></trkpt><trkpt lat="43.47336408588297" lon="10.921027385755028"><ele>280.0</ele><time>2026-04-18T09:29:19Z</time></trkpt><trkpt lat="43.473380226269065" lon="10.920921982862025"><ele>280.0</ele><time>2026-04-18T09:29:20Z</time></trkpt><trkpt lat="43.47339350827879" lon="10.920808404990616"><ele>280.0</ele><time>2026-04-18T09:29:21Z</time></trkpt><trkpt lat="43.47340813262358" lon="10.920693195758602"><ele>280.0</ele><time>2026-04-18T09:29:22Z</time></trkpt><trkpt lat="43.473423908044815" lon="10.920584299080774"><ele>280.0</ele><time>2026-04-18T09:29:23Z</time></trkpt><trkpt lat="43.4734320552699" lon="10.920480866131038"><ele>280.0</ele><time>2026-04-18T09:29:24Z</time></trkpt><trkpt lat="43.47342947438764" lon="10.920380578927617"><ele>278.57142857142856</ele><time>2026-04-18T09:29:25Z</time></trkpt><trkpt lat="43.47341815658875" lon="10.920276531010524"><ele>277.1428571428571</ele><time>2026-04-18T09:29:26Z</time></trkpt><trkpt lat="43.47339729324108" lon="10.920179463441979"><ele>275.7142857142857</ele><time>2026-04-18T09:29:27Z</time></trkpt><trkpt lat="43.47336718978843" lon="10.920087117035234"><ele>274.2857142857143</ele><time>2026-04-18T09:29:28Z</time></trkpt><trkpt lat="43.4733301360345" lon="10.920002636219085"><ele>272.85714285714283</ele><time>2026-04-18T09:29:29Z</time></trkpt><trkpt lat="43.47328118411985" lon="10.91993504957074"><ele>271.42857142857144</ele><time>2026-04-18T09:29:30Z</time></trkpt><trkpt lat="43.47322776383821" lon="10.919878772674178"><ele>270.0</ele><time>2026-04-18T09:29:31Z</time></trkpt><trkpt lat="43.473171046391855" lon="10.919825512340594"><ele>268.8333333333333</ele><time>2026-04-18T09:29:32Z</time></trkpt><trkpt lat="43.47311436384463" lon="10.91977519375715"><ele>267.6666666666667</ele><time>2026-04-18T09:29:33Z</time></trkpt><trkpt lat="43.47301961098921" lon="10.919653632140557"><ele>266.5</ele><time>2026-04-18T09:29:35Z</time></trkpt><trkpt lat="43.47298282762814" lon="10.919576922608043"><ele>265.33333333333337</ele><time>2026-04-18T09:29:36Z</time></trkpt><trkpt lat="43.472950960322926" lon="10.919491378765468"><ele>264.1666666666667</ele><time>2026-04-18T09:29:37Z</time></trkpt><trkpt lat="43.47292833821599" lon="10.919399831043853"><ele>263.0</ele><time>2026-04-18T09:29:38Z</time></trkpt><trkpt lat="43.472914739769244" lon="10.919303077385617"><ele>261.7142857142857</ele><time>2026-04-18T09:29:39Z</time></trkpt><trkpt lat="43.47290768139042" lon="10.919204511157732"><ele>260.4285714285714</ele><time>2026-04-18T09:29:40Z</time></trkpt><trkpt lat="43.47290380740755" lon="10.919103436086855"><ele>259.1428571428571</ele><time>2026-04-18T09:29:41Z</time></trkpt><trkpt lat="43.47289792155436" lon="10.91899791729475"><ele>257.85714285714283</ele><time>2026-04-18T09:29:42Z</time></trkpt><trkpt lat="43.47288911274899" lon="10.918888596123995"><ele>256.57142857142856</ele><time>2026-04-18T09:29:43Z</time></trkpt><trkpt lat="43.472873605032014" lon="10.91879457319636"><ele>255.28571428571428</ele><time>2026-04-18T09:29:44Z</time></trkpt><trkpt lat="43.472851973845685" lon="10.918712490250163"><ele>254.0</ele><time>2026-04-18T09:29:45Z</time></trkpt><trkpt lat="43.47282417777286" lon="10.918627695157227"><ele>254.00000000000003</ele><time>2026-04-18T09:29:46Z</time></trkpt><trkpt lat="43.472792715987424" lon="10.91854046720136"><ele>254.0</ele><time>2026-04-18T09:29:47Z</time></trkpt><trkpt lat="43.472755883857985" lon="10.918454657153049"><ele>254.0</ele><time>2026-04-18T09:29:48Z</time></trkpt><trkpt lat="43.472711867315574" lon="10.918364771527143"><ele>254.0</ele><time>2026-04-18T09:29:49Z</time></trkpt><trkpt lat="43.472663902107136" lon="10.918273289685478"><ele>254.00000000000003</ele><time>2026-04-18T09:29:50Z</time></trkpt><trkpt lat="43.47261314663094" lon="10.9181781857739"><ele>254.0</ele><time>2026-04-18T09:29:51Z</time></trkpt><trkpt lat="43.47256064642274" lon="10.918078627990928"><ele>253.00000000000003</ele><time>2026-04-18T09:29:52Z</time></trkpt><trkpt lat="43.47250971148265" lon="10.917979683216208"><ele>252.0</ele><time>2026-04-18T09:29:53Z</time></trkpt><trkpt lat="43.472462860196714" lon="10.917887348995249"><ele>251.0</ele><time>2026-04-18T09:29:54Z</time></trkpt><trkpt lat="43.47241637435598" lon="10.917792035418953"><ele>250.0</ele><time>2026-04-18T09:29:55Z</time></trkpt><trkpt lat="43.47236995222123" lon="10.917698258053868"><ele>249.00000000000003</ele><time>2026-04-18T09:29:56.001Z</time></trkpt><trkpt lat="43.47232770947464" lon="10.917607961134367"><ele>248.0</ele><time>2026-04-18T09:29:57.001Z</time></trkpt><trkpt lat="43.47228476264195" lon="10.917525282412173"><ele>247.50000000000003</ele><time>2026-04-18T09:29:58.001Z</time></trkpt><trkpt lat="43.472237259385444" lon="10.917451498312564"><ele>247.0</ele><time>2026-04-18T09:29:59.001Z</time></trkpt><trkpt lat="43.4721819483996" lon="10.917383935138401"><ele>246.5</ele><time>2026-04-18T09:30:00.001Z</time></trkpt><trkpt lat="43.47212094307642" lon="10.917322772566301"><ele>246.0</ele><time>2026-04-18T09:30:01.001Z</time></trkpt><trkpt lat="43.472051966491485" lon="10.917264668487684"><ele>245.50000000000003</ele><time>2026-04-18T09:30:02.001Z</time></trkpt><trkpt lat="43.47197464595353" lon="10.917216566665603"><ele>245.0</ele><time>2026-04-18T09:30:03.001Z</time></trkpt><trkpt lat="43.471894342956936" lon="10.917175263949138"><ele>244.16666666666669</ele><time>2026-04-18T09:30:04.001Z</time></trkpt><trkpt lat="43.47181720200864" lon="10.91714908434407"><ele>243.33333333333334</ele><time>2026-04-18T09:30:05.001Z</time></trkpt><trkpt lat="43.47174024170007" lon="10.917138001146771"><ele>242.5</ele><time>2026-04-18T09:30:06.001Z</time></trkpt><trkpt lat="43.47165626660353" lon="10.917154214151912"><ele>241.66666666666669</ele><time>2026-04-18T09:30:07.001Z</time></trkpt><trkpt lat="43.471572672198114" lon="10.917182173418299"><ele>240.83333333333334</ele><time>2026-04-18T09:30:08.001Z</time></trkpt><trkpt lat="43.471493115402296" lon="10.917218340220638"><ele>240.0</ele><time>2026-04-18T09:30:09.001Z</time></trkpt><trkpt lat="43.471418865936734" lon="10.917276173659355"><ele>240.0</ele><time>2026-04-18T09:30:10.001Z</time></trkpt><trkpt lat="43.47134904980696" lon="10.917347085438546"><ele>240.0</ele><time>2026-04-18T09:30:11.001Z</time></trkpt><trkpt lat="43.47127851597263" lon="10.917419679357124"><ele>240.0</ele><time>2026-04-18T09:30:12.001Z</time></trkpt><trkpt lat="43.471205442264235" lon="10.91749485098256"><ele>240.0</ele><time>2026-04-18T09:30:13.001Z</time></trkpt><trkpt lat="43.47112913110856" lon="10.917571445826793"><ele>240.0</ele><time>2026-04-18T09:30:14.001Z</time></trkpt><trkpt lat="43.47105302630208" lon="10.91765448022287"><ele>239.6</ele><time>2026-04-18T09:30:15.001Z</time></trkpt><trkpt lat="43.470973971528295" lon="10.917739306487443"><ele>239.2</ele><time>2026-04-18T09:30:16.001Z</time></trkpt><trkpt lat="43.47089390148994" lon="10.917824887258323"><ele>238.8</ele><time>2026-04-18T09:30:17.001Z</time></trkpt><trkpt lat="43.47081476407517" lon="10.917907372386471"><ele>238.4</ele><time>2026-04-18T09:30:18.001Z</time></trkpt><trkpt lat="43.47074146256554" lon="10.917982952509453"><ele>238.0</ele><time>2026-04-18T09:30:19.001Z</time></trkpt><trkpt lat="43.47066936852862" lon="10.91805806098035"><ele>237.99999999999997</ele><time>2026-04-18T09:30:20.001Z</time></trkpt><trkpt lat="43.47059982832735" lon="10.918128459553666"><ele>238.0</ele><time>2026-04-18T09:30:21.001Z</time></trkpt><trkpt lat="43.47053340351251" lon="10.918198196779352"><ele>238.0</ele><time>2026-04-18T09:30:22.001Z</time></trkpt><trkpt lat="43.47046963856838" lon="10.918264864928137"><ele>238.0</ele><time>2026-04-18T09:30:23.001Z</time></trkpt><trkpt lat="43.47041614296407" lon="10.918327287643859"><ele>237.99999999999997</ele><time>2026-04-18T09:30:24.001Z</time></trkpt><trkpt lat="43.47031398601774" lon="10.918421028666316"><ele>238.0</ele><time>2026-04-18T09:30:26.001Z</time></trkpt><trkpt lat="43.470228391164305" lon="10.918492718206524"><ele>236.99999999999997</ele><time>2026-04-18T09:30:28.001Z</time></trkpt><trkpt lat="43.47012899111205" lon="10.918514129614525"><ele>236.0</ele><time>2026-04-18T09:30:30.001Z</time></trkpt><trkpt lat="43.470015047402356" lon="10.918474010882855"><ele>235.0</ele><time>2026-04-18T09:30:32.001Z</time></trkpt><trkpt lat="43.469967735808105" lon="10.918414876585569"><ele>234.0</ele><time>2026-04-18T09:30:33.001Z</time></trkpt><trkpt lat="43.46993563998228" lon="10.918333784641238"><ele>232.99999999999997</ele><time>2026-04-18T09:30:34.001Z</time></trkpt><trkpt lat="43.46991810493773" lon="10.918236203391013"><ele>232.0</ele><time>2026-04-18T09:30:35.001Z</time></trkpt><trkpt lat="43.469917319354224" lon="10.918130528646154"><ele>230.99999999999997</ele><time>2026-04-18T09:30:36.001Z</time></trkpt><trkpt lat="43.46993044317319" lon="10.918024604494368"><ele>230.0</ele><time>2026-04-18T09:30:37.001Z</time></trkpt><trkpt lat="43.469952652150745" lon="10.917914781650763"><ele>229.0</ele><time>2026-04-18T09:30:38.001Z</time></trkpt><trkpt lat="43.469969966963404" lon="10.917801485191038"><ele>228.0</ele><time>2026-04-18T09:30:39.001Z</time></trkpt><trkpt lat="43.469988146019716" lon="10.917695592789356"><ele>226.99999999999997</ele><time>2026-04-18T09:30:40.001Z</time></trkpt><trkpt lat="43.469994445696024" lon="10.917596429087741"><ele>226.0</ele><time>2026-04-18T09:30:41.001Z</time></trkpt><trkpt lat="43.46998890984233" lon="10.9174989232298"><ele>225.14285714285714</ele><time>2026-04-18T09:30:42.001Z</time></trkpt><trkpt lat="43.46997478157157" lon="10.917409547792138"><ele>224.28571428571428</ele><time>2026-04-18T09:30:43.001Z</time></trkpt><trkpt lat="43.46994830547867" lon="10.917330014126598"><ele>223.42857142857142</ele><time>2026-04-18T09:30:44.001Z</time></trkpt><trkpt lat="43.469897449066124" lon="10.917259691871038"><ele>222.57142857142856</ele><time>2026-04-18T09:30:45.001Z</time></trkpt><trkpt lat="43.46983003751162" lon="10.917213135125593"><ele>221.71428571428572</ele><time>2026-04-18T09:30:46.001Z</time></trkpt><trkpt lat="43.469748468684934" lon="10.91719168708489"><ele>220.85714285714283</ele><time>2026-04-18T09:30:47.001Z</time></trkpt><trkpt lat="43.46966243684746" lon="10.91718914311347"><ele>220.0</ele><time>2026-04-18T09:30:48.001Z</time></trkpt><trkpt lat="43.469575623780784" lon="10.917190058429918"><ele>218.0</ele><time>2026-04-18T09:30:49.001Z</time></trkpt><trkpt lat="43.469486544495375" lon="10.91718992132891"><ele>216.0</ele><time>2026-04-18T09:30:50.001Z</time></trkpt><trkpt lat="43.46939455331633" lon="10.917191227707926"><ele>214.0</ele><time>2026-04-18T09:30:51.001Z</time></trkpt><trkpt lat="43.46930011658012" lon="10.917191482265814"><ele>212.0</ele><time>2026-04-18T09:30:52.001Z</time></trkpt><trkpt lat="43.46920341126957" lon="10.917192368248992"><ele>210.0</ele><time>2026-04-18T09:30:53.001Z</time></trkpt><trkpt lat="43.469104782544946" lon="10.917194624932884"><ele>210.0</ele><time>2026-04-18T09:30:54.001Z</time></trkpt><trkpt lat="43.46900448803128" lon="10.917199303012032"><ele>210.0</ele><time>2026-04-18T09:30:55.001Z</time></trkpt><trkpt lat="43.46890200393508" lon="10.917201665928864"><ele>210.0</ele><time>2026-04-18T09:30:56.001Z</time></trkpt><trkpt lat="43.46879898009044" lon="10.917195242201498"><ele>210.0</ele><time>2026-04-18T09:30:57.001Z</time></trkpt><trkpt lat="43.468695088559805" lon="10.917190958993075"><ele>210.0</ele><time>2026-04-18T09:30:58.001Z</time></trkpt><trkpt lat="43.46858976057866" lon="10.91719098167529"><ele>208.6</ele><time>2026-04-18T09:30:59.001Z</time></trkpt><trkpt lat="43.46848503624344" lon="10.917184871757028"><ele>207.2</ele><time>2026-04-18T09:31:00.001Z</time></trkpt><trkpt lat="43.46838822282228" lon="10.917166690166107"><ele>205.8</ele><time>2026-04-18T09:31:01.001Z</time></trkpt><trkpt lat="43.46829943355172" lon="10.917139087178668"><ele>204.4</ele><time>2026-04-18T09:31:02.001Z</time></trkpt><trkpt lat="43.468214730911264" lon="10.917101287478571"><ele>203.0</ele><time>2026-04-18T09:31:03.001Z</time></trkpt><trkpt lat="43.468131894481324" lon="10.917052677192103"><ele>203.0</ele><time>2026-04-18T09:31:04.001Z</time></trkpt><trkpt lat="43.46804872510736" lon="10.916999131775457"><ele>203.0</ele><time>2026-04-18T09:31:05.001Z</time></trkpt><trkpt lat="43.46796665076868" lon="10.916935977119303"><ele>203.0</ele><time>2026-04-18T09:31:06.001Z</time></trkpt><trkpt lat="43.467886991836785" lon="10.91686545745681"><ele>203.0</ele><time>2026-04-18T09:31:07.001Z</time></trkpt><trkpt lat="43.4678175147874" lon="10.916786065625535"><ele>203.0</ele><time>2026-04-18T09:31:08.001Z</time></trkpt><trkpt lat="43.467765913602236" lon="10.916700191994558"><ele>201.83333333333334</ele><time>2026-04-18T09:31:09.001Z</time></trkpt><trkpt lat="43.46773180150684" lon="10.91661096167996"><ele>200.66666666666669</ele><time>2026-04-18T09:31:10.001Z</time></trkpt><trkpt lat="43.467709028772006" lon="10.916507704618988"><ele>199.5</ele><time>2026-04-18T09:31:11.001Z</time></trkpt><trkpt lat="43.46769649089182" lon="10.916396479272551"><ele>198.33333333333331</ele><time>2026-04-18T09:31:12Z</time></trkpt><trkpt lat="43.46769641275221" lon="10.916281037965144"><ele>197.16666666666666</ele><time>2026-04-18T09:31:13Z</time></trkpt><trkpt lat="43.46771003942692" lon="10.916166139100056"><ele>196.0</ele><time>2026-04-18T09:31:14Z</time></trkpt><trkpt lat="43.46773613976697" lon="10.91604855873172"><ele>196.0</ele><time>2026-04-18T09:31:15Z</time></trkpt><trkpt lat="43.46776484808845" lon="10.915929199030566"><ele>196.0</ele><time>2026-04-18T09:31:16Z</time></trkpt><trkpt lat="43.467792745613494" lon="10.91580464644831"><ele>196.0</ele><time>2026-04-18T09:31:17Z</time></trkpt><trkpt lat="43.467817082088125" lon="10.915679401896277"><ele>196.0</ele><time>2026-04-18T09:31:18Z</time></trkpt><trkpt lat="43.467841220225445" lon="10.915553833088888"><ele>196.0</ele><time>2026-04-18T09:31:19Z</time></trkpt><trkpt lat="43.46786180780636" lon="10.915426532325007"><ele>194.8</ele><time>2026-04-18T09:31:20Z</time></trkpt><trkpt lat="43.467872722731514" lon="10.915297759798333"><ele>193.60000000000002</ele><time>2026-04-18T09:31:21Z</time></trkpt><trkpt lat="43.46787658871109" lon="10.915165662644718"><ele>192.4</ele><time>2026-04-18T09:31:22Z</time></trkpt><trkpt lat="43.46787234313744" lon="10.915029373402348"><ele>191.2</ele><time>2026-04-18T09:31:23Z</time></trkpt><trkpt lat="43.467862098203426" lon="10.91489253042039"><ele>190.0</ele><time>2026-04-18T09:31:24Z</time></trkpt><trkpt lat="43.4678479708452" lon="10.914755021721106"><ele>189.4</ele><time>2026-04-18T09:31:25Z</time></trkpt><trkpt lat="43.46783481124726" lon="10.91461748328989"><ele>188.8</ele><time>2026-04-18T09:31:26Z</time></trkpt><trkpt lat="43.46782004967149" lon="10.914478040429547"><ele>188.2</ele><time>2026-04-18T09:31:27Z</time></trkpt><trkpt lat="43.467806250722425" lon="10.914339311311632"><ele>187.6</ele><time>2026-04-18T09:31:28Z</time></trkpt><trkpt lat="43.46779302132103" lon="10.91420284865006"><ele>187.0</ele><time>2026-04-18T09:31:29Z</time></trkpt><trkpt lat="43.46778039998884" lon="10.914068816095176"><ele>186.8</ele><time>2026-04-18T09:31:30Z</time></trkpt><trkpt lat="43.4677658149597" lon="10.913936013814535"><ele>186.6</ele><time>2026-04-18T09:31:31Z</time></trkpt><trkpt lat="43.467748013601934" lon="10.913805942839838"><ele>186.4</ele><time>2026-04-18T09:31:32Z</time></trkpt><trkpt lat="43.46773306886542" lon="10.913676991901685"><ele>186.20000000000002</ele><time>2026-04-18T09:31:33Z</time></trkpt><trkpt lat="43.46771855801445" lon="10.91355994780601"><ele>186.0</ele><time>2026-04-18T09:31:34Z</time></trkpt><trkpt lat="43.46770333922431" lon="10.913450298601576"><ele>185.60000000000002</ele><time>2026-04-18T09:31:35Z</time></trkpt><trkpt lat="43.46765870378656" lon="10.913252706531315"><ele>185.2</ele><time>2026-04-18T09:31:37Z</time></trkpt><trkpt lat="43.46762612864587" lon="10.913169399223106"><ele>184.8</ele><time>2026-04-18T09:31:38Z</time></trkpt><trkpt lat="43.46754753494514" lon="10.913042215753826"><ele>184.39999999999998</ele><time>2026-04-18T09:31:40Z</time></trkpt><trkpt lat="43.467488954897625" lon="10.913006969242092"><ele>184.0</ele><time>2026-04-18T09:31:41Z</time></trkpt><trkpt lat="43.46742272366658" lon="10.912994426436205"><ele>184.0</ele><time>2026-04-18T09:31:42Z</time></trkpt><trkpt lat="43.467351089313574" lon="10.913003842152532"><ele>184.0</ele><time>2026-04-18T09:31:43Z</time></trkpt><trkpt lat="43.467274885177375" lon="10.913026544008282"><ele>184.0</ele><time>2026-04-18T09:31:44Z</time></trkpt><trkpt lat="43.46719693093578" lon="10.913055531198317"><ele>184.0</ele><time>2026-04-18T09:31:45Z</time></trkpt><trkpt lat="43.46711448504369" lon="10.91308266532908"><ele>184.0</ele><time>2026-04-18T09:31:46Z</time></trkpt><trkpt lat="43.46702997729299" lon="10.913118330894042"><ele>184.0</ele><time>2026-04-18T09:31:47Z</time></trkpt><trkpt lat="43.46694357762089" lon="10.913147820823985"><ele>184.79999999999998</ele><time>2026-04-18T09:31:48Z</time></trkpt><trkpt lat="43.46684836528855" lon="10.91316524401921"><ele>185.6</ele><time>2026-04-18T09:31:49Z</time></trkpt><trkpt lat="43.466748657859014" lon="10.913165839865352"><ele>186.4</ele><time>2026-04-18T09:31:50Z</time></trkpt><trkpt lat="43.46664379434883" lon="10.91315269766135"><ele>187.2</ele><time>2026-04-18T09:31:51Z</time></trkpt><trkpt lat="43.466530548187585" lon="10.913134510703093"><ele>188.0</ele><time>2026-04-18T09:31:52Z</time></trkpt><trkpt lat="43.46642192421397" lon="10.913118077276831"><ele>188.0</ele><time>2026-04-18T09:31:53Z</time></trkpt><trkpt lat="43.46632271440452" lon="10.913099180644618"><ele>188.0</ele><time>2026-04-18T09:31:54Z</time></trkpt><trkpt lat="43.466219397442714" lon="10.913080097725278"><ele>188.0</ele><time>2026-04-18T09:31:55Z</time></trkpt><trkpt lat="43.466122241759564" lon="10.91306254355388"><ele>188.0</ele><time>2026-04-18T09:31:56Z</time></trkpt><trkpt lat="43.466023714636016" lon="10.913046628960398"><ele>188.0</ele><time>2026-04-18T09:31:57Z</time></trkpt><trkpt lat="43.465925756800274" lon="10.913034646401181"><ele>187.83333333333331</ele><time>2026-04-18T09:31:58Z</time></trkpt><trkpt lat="43.46583222600587" lon="10.9130224008774"><ele>187.66666666666666</ele><time>2026-04-18T09:31:59Z</time></trkpt><trkpt lat="43.46574440543277" lon="10.913008481195357"><ele>187.5</ele><time>2026-04-18T09:32:00Z</time></trkpt><trkpt lat="43.465668522125455" lon="10.913002063921189"><ele>187.33333333333334</ele><time>2026-04-18T09:32:01Z</time></trkpt><trkpt lat="43.46559338631019" lon="10.912995562955121"><ele>187.16666666666669</ele><time>2026-04-18T09:32:02Z</time></trkpt><trkpt lat="43.46551499485769" lon="10.913008504457691"><ele>187.0</ele><time>2026-04-18T09:32:03Z</time></trkpt><trkpt lat="43.46543399538686" lon="10.913039233687204"><ele>187.0</ele><time>2026-04-18T09:32:04Z</time></trkpt><trkpt lat="43.465350269300714" lon="10.913088517735392"><ele>187.0</ele><time>2026-04-18T09:32:05Z</time></trkpt><trkpt lat="43.46526238965466" lon="10.91315211324471"><ele>187.0</ele><time>2026-04-18T09:32:06Z</time></trkpt><trkpt lat="43.465174314283644" lon="10.913233121779758"><ele>187.0</ele><time>2026-04-18T09:32:07Z</time></trkpt><trkpt lat="43.46509164013205" lon="10.913324633323658"><ele>187.0</ele><time>2026-04-18T09:32:08Z</time></trkpt><trkpt lat="43.465012403273036" lon="10.913416582295573"><ele>188.8</ele><time>2026-04-18T09:32:09Z</time></trkpt><trkpt lat="43.46493245961133" lon="10.913505619092717"><ele>190.6</ele><time>2026-04-18T09:32:10Z</time></trkpt><trkpt lat="43.46485287160546" lon="10.91359693517012"><ele>192.4</ele><time>2026-04-18T09:32:11Z</time></trkpt><trkpt lat="43.46477308046573" lon="10.91368665197764"><ele>194.20000000000002</ele><time>2026-04-18T09:32:12Z</time></trkpt><trkpt lat="43.464696109132944" lon="10.913771750981292"><ele>196.0</ele><time>2026-04-18T09:32:13Z</time></trkpt><trkpt lat="43.46461814510432" lon="10.91384944585979"><ele>195.0</ele><time>2026-04-18T09:32:14Z</time></trkpt><trkpt lat="43.4645375115071" lon="10.91391599337783"><ele>194.0</ele><time>2026-04-18T09:32:15Z</time></trkpt><trkpt lat="43.464450669397046" lon="10.913966589729002"><ele>193.0</ele><time>2026-04-18T09:32:16Z</time></trkpt><trkpt lat="43.464359547750526" lon="10.913986558514583"><ele>192.0</ele><time>2026-04-18T09:32:17Z</time></trkpt><trkpt lat="43.46426691775915" lon="10.913973221514505"><ele>191.0</ele><time>2026-04-18T09:32:18Z</time></trkpt><trkpt lat="43.46417901136658" lon="10.913933328479033"><ele>191.0</ele><time>2026-04-18T09:32:19Z</time></trkpt><trkpt lat="43.46409607761499" lon="10.913877237169483"><ele>191.0</ele><time>2026-04-18T09:32:20.001Z</time></trkpt><trkpt lat="43.46401432989526" lon="10.913820457576739"><ele>191.0</ele><time>2026-04-18T09:32:21.001Z</time></trkpt><trkpt lat="43.463924433796485" lon="10.913792584004318"><ele>191.0</ele><time>2026-04-18T09:32:22.001Z</time></trkpt><trkpt lat="43.46385577718405" lon="10.913739797352784"><ele>191.0</ele><time>2026-04-18T09:32:23.001Z</time></trkpt><trkpt lat="43.4636878802702" lon="10.913921797786065"><ele>192.0</ele><time>2026-04-18T09:32:25.001Z</time></trkpt><trkpt lat="43.46363192734093" lon="10.914007441102815"><ele>193.0</ele><time>2026-04-18T09:32:26.001Z</time></trkpt><trkpt lat="43.46358302387304" lon="10.914103780687036"><ele>194.0</ele><time>2026-04-18T09:32:27.001Z</time></trkpt><trkpt lat="43.46353611484478" lon="10.914197998080057"><ele>195.0</ele><time>2026-04-18T09:32:28.001Z</time></trkpt><trkpt lat="43.46348998371952" lon="10.914297500521018"><ele>196.00000000000003</ele><time>2026-04-18T09:32:29.001Z</time></trkpt><trkpt lat="43.46344870989601" lon="10.914415740868405"><ele>197.0</ele><time>2026-04-18T09:32:30.001Z</time></trkpt><trkpt lat="43.46339786861568" lon="10.914509239799402"><ele>197.0</ele><time>2026-04-18T09:32:31.001Z</time></trkpt><trkpt lat="43.46334378767261" lon="10.914600159239328"><ele>197.0</ele><time>2026-04-18T09:32:32.001Z</time></trkpt><trkpt lat="43.46329330681974" lon="10.914693826438446"><ele>197.0</ele><time>2026-04-18T09:32:33.001Z</time></trkpt><trkpt lat="43.463242374788045" lon="10.914790109115161"><ele>197.0</ele><time>2026-04-18T09:32:34.001Z</time></trkpt><trkpt lat="43.46318806391642" lon="10.914892012022555"><ele>197.0</ele><time>2026-04-18T09:32:35.001Z</time></trkpt><trkpt lat="43.46312669595755" lon="10.915006295879223"><ele>196.39999999999998</ele><time>2026-04-18T09:32:36.001Z</time></trkpt><trkpt lat="43.46305972604179" lon="10.915114196973764"><ele>195.79999999999998</ele><time>2026-04-18T09:32:37.001Z</time></trkpt><trkpt lat="43.46298412731689" lon="10.915212853747644"><ele>195.2</ele><time>2026-04-18T09:32:38.001Z</time></trkpt><trkpt lat="43.462901021274085" lon="10.915293823848835"><ele>194.6</ele><time>2026-04-18T09:32:39.001Z</time></trkpt><trkpt lat="43.462809371676734" lon="10.91536490173109"><ele>194.0</ele><time>2026-04-18T09:32:40.001Z</time></trkpt><trkpt lat="43.462712951051714" lon="10.915421546780134"><ele>196.0</ele><time>2026-04-18T09:32:41.001Z</time></trkpt><trkpt lat="43.4626124548091" lon="10.915478167881997"><ele>198.0</ele><time>2026-04-18T09:32:42.001Z</time></trkpt><trkpt lat="43.46250888415941" lon="10.915535861954561"><ele>200.0</ele><time>2026-04-18T09:32:43.001Z</time></trkpt><trkpt lat="43.46240394493338" lon="10.915585339383318"><ele>202.0</ele><time>2026-04-18T09:32:44.001Z</time></trkpt><trkpt lat="43.462297555750986" lon="10.915628384361959"><ele>204.0</ele><time>2026-04-18T09:32:45.001Z</time></trkpt><trkpt lat="43.46219058302917" lon="10.915662169199868"><ele>206.75</ele><time>2026-04-18T09:32:46.001Z</time></trkpt><trkpt lat="43.46207912540734" lon="10.91568516383931"><ele>209.5</ele><time>2026-04-18T09:32:47.001Z</time></trkpt><trkpt lat="43.461966706485875" lon="10.915695655362505"><ele>212.25</ele><time>2026-04-18T09:32:48.001Z</time></trkpt><trkpt lat="43.46185298715057" lon="10.915715410874217"><ele>215.0</ele><time>2026-04-18T09:32:49.001Z</time></trkpt><trkpt lat="43.46173886307879" lon="10.915739804628918"><ele>215.0</ele><time>2026-04-18T09:32:50.001Z</time></trkpt><trkpt lat="43.461628476326375" lon="10.915773224891836"><ele>215.0</ele><time>2026-04-18T09:32:51.001Z</time></trkpt><trkpt lat="43.461530762175514" lon="10.915802188549426"><ele>215.0</ele><time>2026-04-18T09:32:52.001Z</time></trkpt><trkpt lat="43.46144125308314" lon="10.915826591147328"><ele>215.0</ele><time>2026-04-18T09:32:53.001Z</time></trkpt><trkpt lat="43.46135638992394" lon="10.915845347460877"><ele>215.0</ele><time>2026-04-18T09:32:54.001Z</time></trkpt><trkpt lat="43.46127353859299" lon="10.915859290722947"><ele>216.00000000000003</ele><time>2026-04-18T09:32:55.001Z</time></trkpt><trkpt lat="43.461193237399755" lon="10.91586969795064"><ele>217.0</ele><time>2026-04-18T09:32:56.001Z</time></trkpt><trkpt lat="43.461116162448214" lon="10.915873838830475"><ele>218.0</ele><time>2026-04-18T09:32:57.001Z</time></trkpt><trkpt lat="43.461041421143854" lon="10.915845678374724"><ele>219.0</ele><time>2026-04-18T09:32:58.001Z</time></trkpt><trkpt lat="43.460969503262206" lon="10.915801900186956"><ele>220.00000000000003</ele><time>2026-04-18T09:32:59.001Z</time></trkpt><trkpt lat="43.46090473623882" lon="10.915745013627824"><ele>221.0</ele><time>2026-04-18T09:33:00.001Z</time></trkpt><trkpt lat="43.46084217500651" lon="10.915677716485746"><ele>221.00000000000003</ele><time>2026-04-18T09:33:01.001Z</time></trkpt><trkpt lat="43.46077655942569" lon="10.915620435069707"><ele>221.0</ele><time>2026-04-18T09:33:02.001Z</time></trkpt><trkpt lat="43.460700568937014" lon="10.915598360613533"><ele>221.0</ele><time>2026-04-18T09:33:03.001Z</time></trkpt><trkpt lat="43.4606202602963" lon="10.91560191337643"><ele>221.0</ele><time>2026-04-18T09:33:04.001Z</time></trkpt><trkpt lat="43.460542474426624" lon="10.915644830232074"><ele>221.00000000000003</ele><time>2026-04-18T09:33:05.001Z</time></trkpt><trkpt lat="43.46047227797154" lon="10.91571048326967"><ele>221.0</ele><time>2026-04-18T09:33:06.001Z</time></trkpt><trkpt lat="43.4604069366983" lon="10.9157780237134"><ele>222.00000000000003</ele><time>2026-04-18T09:33:07.001Z</time></trkpt><trkpt lat="43.46035076141567" lon="10.915859590512428"><ele>223.0</ele><time>2026-04-18T09:33:08.001Z</time></trkpt><trkpt lat="43.46027748933475" lon="10.91590187101531"><ele>224.0</ele><time>2026-04-18T09:33:09.001Z</time></trkpt><trkpt lat="43.46020287895512" lon="10.915918448575404"><ele>225.0</ele><time>2026-04-18T09:33:10.001Z</time></trkpt><trkpt lat="43.460127597214345" lon="10.915922177996709"><ele>226.00000000000003</ele><time>2026-04-18T09:33:11.001Z</time></trkpt><trkpt lat="43.46005044573732" lon="10.915919217516443"><ele>227.0</ele><time>2026-04-18T09:33:12.001Z</time></trkpt><trkpt lat="43.459967019186095" lon="10.915892064460165"><ele>227.00000000000003</ele><time>2026-04-18T09:33:13.001Z</time></trkpt><trkpt lat="43.45988733561302" lon="10.915848337824334"><ele>227.0</ele><time>2026-04-18T09:33:14.001Z</time></trkpt><trkpt lat="43.45981743549162" lon="10.915778901009489"><ele>227.0</ele><time>2026-04-18T09:33:15.001Z</time></trkpt><trkpt lat="43.45975085808352" lon="10.915707333230094"><ele>227.0</ele><time>2026-04-18T09:33:16.001Z</time></trkpt><trkpt lat="43.45969692884837" lon="10.915615238146444"><ele>227.00000000000003</ele><time>2026-04-18T09:33:17.001Z</time></trkpt><trkpt lat="43.45964947387091" lon="10.915523696397452"><ele>227.0</ele><time>2026-04-18T09:33:17.999Z</time></trkpt><trkpt lat="43.45960300427827" lon="10.915433704813257"><ele>227.50000000000003</ele><time>2026-04-18T09:33:18.999Z</time></trkpt><trkpt lat="43.45956131810871" lon="10.915353959012885"><ele>228.0</ele><time>2026-04-18T09:33:19.999Z</time></trkpt><trkpt lat="43.459476934955674" lon="10.915245215781834"><ele>228.5</ele><time>2026-04-18T09:33:21.999Z</time></trkpt><trkpt lat="43.459417506616155" lon="10.915188538908621"><ele>229.0</ele><time>2026-04-18T09:33:23.999Z</time></trkpt><trkpt lat="43.459336862108266" lon="10.915167777826655"><ele>229.50000000000003</ele><time>2026-04-18T09:36:49.001Z</time></trkpt><trkpt lat="43.45924986477144" lon="10.915182965178309"><ele>230.0</ele><time>2026-04-18T09:36:52.001Z</time></trkpt><trkpt lat="43.45916444622568" lon="10.915233503579158"><ele>230.0</ele><time>2026-04-18T09:36:55.001Z</time></trkpt><trkpt lat="43.4590948580627" lon="10.915295223650027"><ele>230.0</ele><time>2026-04-18T09:36:57.001Z</time></trkpt><trkpt lat="43.45899924092276" lon="10.915342560001273"><ele>230.0</ele><time>2026-04-18T09:36:59.001Z</time></trkpt><trkpt lat="43.45889305397863" lon="10.915328774099303"><ele>230.0</ele><time>2026-04-18T09:37:01.001Z</time></trkpt><trkpt lat="43.458785205984036" lon="10.915269135686826"><ele>230.0</ele><time>2026-04-18T09:37:03.001Z</time></trkpt><trkpt lat="43.458733970404765" lon="10.915218298780847"><ele>229.0</ele><time>2026-04-18T09:37:04.001Z</time></trkpt><trkpt lat="43.458689260693724" lon="10.915153049044514"><ele>228.0</ele><time>2026-04-18T09:37:05.001Z</time></trkpt><trkpt lat="43.45861533502609" lon="10.915019928635898"><ele>227.0</ele><time>2026-04-18T09:37:07.001Z</time></trkpt><trkpt lat="43.4585709593991" lon="10.914858107083438"><ele>226.0</ele><time>2026-04-18T09:37:09.001Z</time></trkpt><trkpt lat="43.458553523433146" lon="10.914684316777826"><ele>225.0</ele><time>2026-04-18T09:37:11.001Z</time></trkpt><trkpt lat="43.458551802249254" lon="10.914595117008194"><ele>226.42857142857144</ele><time>2026-04-18T09:37:12.001Z</time></trkpt><trkpt lat="43.458548821051764" lon="10.91449760488951"><ele>227.85714285714286</ele><time>2026-04-18T09:37:13.001Z</time></trkpt><trkpt lat="43.458547498601355" lon="10.914401231614574"><ele>229.28571428571428</ele><time>2026-04-18T09:37:14.001Z</time></trkpt><trkpt lat="43.458547070965054" lon="10.91430514415727"><ele>230.71428571428572</ele><time>2026-04-18T09:37:15.002Z</time></trkpt><trkpt lat="43.45854654531081" lon="10.914205401214513"><ele>232.1428571428571</ele><time>2026-04-18T09:37:16.002Z</time></trkpt><trkpt lat="43.45854630281498" lon="10.91410599454544"><ele>233.57142857142856</ele><time>2026-04-18T09:37:17.002Z</time></trkpt><trkpt lat="43.45854610215093" lon="10.91400751151269"><ele>235.0</ele><time>2026-04-18T09:37:18.002Z</time></trkpt><trkpt lat="43.45854755504224" lon="10.913902026580523"><ele>236.33333333333331</ele><time>2026-04-18T09:37:19.002Z</time></trkpt><trkpt lat="43.458549233817216" lon="10.91379544021445"><ele>237.66666666666666</ele><time>2026-04-18T09:37:20.002Z</time></trkpt><trkpt lat="43.458552127838196" lon="10.913686085158972"><ele>239.0</ele><time>2026-04-18T09:37:21.002Z</time></trkpt><trkpt lat="43.45855443391359" lon="10.913573392446613"><ele>240.33333333333331</ele><time>2026-04-18T09:37:22.002Z</time></trkpt><trkpt lat="43.458555886587796" lon="10.913463524378257"><ele>241.66666666666666</ele><time>2026-04-18T09:37:23.002Z</time></trkpt><trkpt lat="43.45855805799754" lon="10.913355378250108"><ele>243.0</ele><time>2026-04-18T09:37:24.002Z</time></trkpt><trkpt lat="43.45855441487623" lon="10.913250069646745"><ele>244.0</ele><time>2026-04-18T09:37:25.002Z</time></trkpt><trkpt lat="43.45853924784108" lon="10.913151012505967"><ele>245.0</ele><time>2026-04-18T09:37:26.002Z</time></trkpt><trkpt lat="43.45851065904791" lon="10.91305741627842"><ele>246.0</ele><time>2026-04-18T09:37:27.002Z</time></trkpt><trkpt lat="43.45846922009008" lon="10.912977779858425"><ele>247.0</ele><time>2026-04-18T09:37:28.002Z</time></trkpt><trkpt lat="43.45842058708023" lon="10.912906800388381"><ele>248.0</ele><time>2026-04-18T09:37:29.002Z</time></trkpt><trkpt lat="43.458366109871" lon="10.912842762790895"><ele>249.0</ele><time>2026-04-18T09:37:30.001Z</time></trkpt><trkpt lat="43.4583060319906" lon="10.91278862531476"><ele>250.0</ele><time>2026-04-18T09:37:31.001Z</time></trkpt><trkpt lat="43.45823963130773" lon="10.912739786693896"><ele>249.99999999999997</ele><time>2026-04-18T09:37:32.001Z</time></trkpt><trkpt lat="43.45816556675848" lon="10.91269334333099"><ele>250.0</ele><time>2026-04-18T09:37:33.001Z</time></trkpt><trkpt lat="43.45809138256995" lon="10.912644860696975"><ele>250.0</ele><time>2026-04-18T09:37:34.001Z</time></trkpt><trkpt lat="43.45801477067618" lon="10.912590624670088"><ele>250.0</ele><time>2026-04-18T09:37:35.001Z</time></trkpt><trkpt lat="43.45793546894456" lon="10.912534821970969"><ele>249.99999999999997</ele><time>2026-04-18T09:37:36.001Z</time></trkpt><trkpt lat="43.45785406499361" lon="10.91247845954178"><ele>250.0</ele><time>2026-04-18T09:37:37.001Z</time></trkpt><trkpt lat="43.4577713614829" lon="10.912420544678401"><ele>251.8</ele><time>2026-04-18T09:37:38.001Z</time></trkpt><trkpt lat="43.45768649393103" lon="10.91236085254068"><ele>253.6</ele><time>2026-04-18T09:37:39.001Z</time></trkpt><trkpt lat="43.45759862128045" lon="10.912299415061986"><ele>255.39999999999998</ele><time>2026-04-18T09:37:40.001Z</time></trkpt><trkpt lat="43.45751011388911" lon="10.912238514670717"><ele>257.2</ele><time>2026-04-18T09:37:41.001Z</time></trkpt><trkpt lat="43.457420715742266" lon="10.912177989781496"><ele>259.0</ele><time>2026-04-18T09:37:42.001Z</time></trkpt><trkpt lat="43.45732806682663" lon="10.912117314858767"><ele>259.0</ele><time>2026-04-18T09:37:43.001Z</time></trkpt><trkpt lat="43.457235799153885" lon="10.91205758635514"><ele>259.0</ele><time>2026-04-18T09:37:44.001Z</time></trkpt><trkpt lat="43.457144545759256" lon="10.91199538169833"><ele>259.0</ele><time>2026-04-18T09:37:45.001Z</time></trkpt><trkpt lat="43.45705423135345" lon="10.911929811073"><ele>259.0</ele><time>2026-04-18T09:37:46.001Z</time></trkpt><trkpt lat="43.45696355607016" lon="10.911864195860579"><ele>259.0</ele><time>2026-04-18T09:37:47.001Z</time></trkpt><trkpt lat="43.45687195917229" lon="10.911800122399407"><ele>259.66666666666663</ele><time>2026-04-18T09:37:48.001Z</time></trkpt><trkpt lat="43.45678486710336" lon="10.911745716040265"><ele>260.3333333333333</ele><time>2026-04-18T09:37:49.001Z</time></trkpt><trkpt lat="43.45670551472777" lon="10.911691177806313"><ele>261.0</ele><time>2026-04-18T09:37:50.001Z</time></trkpt><trkpt lat="43.45663391985975" lon="10.91163750912412"><ele>261.6666666666667</ele><time>2026-04-18T09:37:51.001Z</time></trkpt><trkpt lat="43.456569632533245" lon="10.911588066568472"><ele>262.33333333333337</ele><time>2026-04-18T09:37:52.001Z</time></trkpt><trkpt lat="43.456507029448396" lon="10.911542783284437"><ele>263.0</ele><time>2026-04-18T09:37:53.001Z</time></trkpt><trkpt lat="43.456440911863766" lon="10.911509477794135"><ele>263.1666666666667</ele><time>2026-04-18T09:37:54.001Z</time></trkpt><trkpt lat="43.45636708318506" lon="10.911503821073646"><ele>263.33333333333337</ele><time>2026-04-18T09:37:55.001Z</time></trkpt><trkpt lat="43.45629461225942" lon="10.911527799761453"><ele>263.5</ele><time>2026-04-18T09:37:56.001Z</time></trkpt><trkpt lat="43.45622248628569" lon="10.911576893614873"><ele>263.6666666666667</ele><time>2026-04-18T09:37:57.001Z</time></trkpt><trkpt lat="43.45614750797811" lon="10.911633676752373"><ele>263.8333333333333</ele><time>2026-04-18T09:37:58.001Z</time></trkpt><trkpt lat="43.456068963230116" lon="10.911675062272314"><ele>264.0</ele><time>2026-04-18T09:37:59.001Z</time></trkpt><trkpt lat="43.45599033818269" lon="10.911713503165743"><ele>265.3333333333333</ele><time>2026-04-18T09:38:00.001Z</time></trkpt><trkpt lat="43.455912526839136" lon="10.91174457416761"><ele>266.6666666666667</ele><time>2026-04-18T09:38:01.001Z</time></trkpt><trkpt lat="43.45583773259211" lon="10.911773710224804"><ele>268.0</ele><time>2026-04-18T09:38:02.001Z</time></trkpt><trkpt lat="43.45576581253479" lon="10.911806426827141"><ele>269.33333333333337</ele><time>2026-04-18T09:38:03.001Z</time></trkpt><trkpt lat="43.45569437217702" lon="10.91184203953723"><ele>270.6666666666667</ele><time>2026-04-18T09:38:04.001Z</time></trkpt><trkpt lat="43.45562374114079" lon="10.911873552305076"><ele>272.0</ele><time>2026-04-18T09:38:05.001Z</time></trkpt><trkpt lat="43.455554552722965" lon="10.911897907563"><ele>271.99999999999994</ele><time>2026-04-18T09:38:06.001Z</time></trkpt><trkpt lat="43.45548364540985" lon="10.911916719546857"><ele>272.0</ele><time>2026-04-18T09:38:07.001Z</time></trkpt><trkpt lat="43.455411639955685" lon="10.91192963426894"><ele>272.0</ele><time>2026-04-18T09:38:08.001Z</time></trkpt><trkpt lat="43.45533800311867" lon="10.911939904465921"><ele>272.0</ele><time>2026-04-18T09:38:09.001Z</time></trkpt><trkpt lat="43.45526348543487" lon="10.911951259492142"><ele>272.0</ele><time>2026-04-18T09:38:10.001Z</time></trkpt><trkpt lat="43.45518921201538" lon="10.91196424486457"><ele>271.99999999999994</ele><time>2026-04-18T09:38:11.001Z</time></trkpt><trkpt lat="43.45511496083992" lon="10.91197449544368"><ele>272.0</ele><time>2026-04-18T09:38:12.001Z</time></trkpt><trkpt lat="43.4550403495217" lon="10.91198792920747"><ele>273.6666666666667</ele><time>2026-04-18T09:38:13.001Z</time></trkpt><trkpt lat="43.454966080669784" lon="10.9120079913196"><ele>275.33333333333337</ele><time>2026-04-18T09:38:14.001Z</time></trkpt><trkpt lat="43.45489087703905" lon="10.912039269547867"><ele>277.0</ele><time>2026-04-18T09:38:15.001Z</time></trkpt><trkpt lat="43.454817858266175" lon="10.912084994135972"><ele>278.6666666666667</ele><time>2026-04-18T09:38:16.001Z</time></trkpt><trkpt lat="43.454744301304515" lon="10.912144848685411"><ele>280.3333333333333</ele><time>2026-04-18T09:38:17.001Z</time></trkpt><trkpt lat="43.45466726521211" lon="10.912203819557313"><ele>282.0</ele><time>2026-04-18T09:38:18.001Z</time></trkpt><trkpt lat="43.45458825798731" lon="10.912253706178033"><ele>283.6666666666667</ele><time>2026-04-18T09:38:19.001Z</time></trkpt><trkpt lat="43.45450457437432" lon="10.912278463547004"><ele>285.3333333333333</ele><time>2026-04-18T09:38:20.001Z</time></trkpt><trkpt lat="43.45442100420964" lon="10.912282802653484"><ele>287.0</ele><time>2026-04-18T09:38:21.001Z</time></trkpt><trkpt lat="43.454337210312374" lon="10.912287850030047"><ele>288.66666666666663</ele><time>2026-04-18T09:38:22.001Z</time></trkpt><trkpt lat="43.45425138307543" lon="10.912286456782214"><ele>290.3333333333333</ele><time>2026-04-18T09:38:23.001Z</time></trkpt><trkpt lat="43.45416203257945" lon="10.912282613785964"><ele>292.0</ele><time>2026-04-18T09:38:24.001Z</time></trkpt><trkpt lat="43.45407482280242" lon="10.91226509632704"><ele>292.0</ele><time>2026-04-18T09:38:25.001Z</time></trkpt><trkpt lat="43.45399899656952" lon="10.912238241269788"><ele>292.0</ele><time>2026-04-18T09:38:26.001Z</time></trkpt><trkpt lat="43.45393375368643" lon="10.912209483960522"><ele>292.0</ele><time>2026-04-18T09:38:27.001Z</time></trkpt><trkpt lat="43.45380899129232" lon="10.9121462895898"><ele>292.0</ele><time>2026-04-18T09:38:29.001Z</time></trkpt><trkpt lat="43.45373428870813" lon="10.912124798326678"><ele>292.0</ele><time>2026-04-18T09:38:30.001Z</time></trkpt><trkpt lat="43.453651163161766" lon="10.912120414128252"><ele>292.0</ele><time>2026-04-18T09:38:31.001Z</time></trkpt><trkpt lat="43.45356267016228" lon="10.91212894429051"><ele>292.4</ele><time>2026-04-18T09:38:32.001Z</time></trkpt><trkpt lat="43.453469903963885" lon="10.91214743001868"><ele>292.79999999999995</ele><time>2026-04-18T09:38:33.001Z</time></trkpt><trkpt lat="43.45337442721623" lon="10.912171876455306"><ele>293.2</ele><time>2026-04-18T09:38:34.001Z</time></trkpt><trkpt lat="43.45327980047921" lon="10.912202789333575"><ele>293.59999999999997</ele><time>2026-04-18T09:38:35.001Z</time></trkpt><trkpt lat="43.45318386337963" lon="10.912242175519383"><ele>294.0</ele><time>2026-04-18T09:38:36.001Z</time></trkpt><trkpt lat="43.45308624257792" lon="10.912269085108976"><ele>294.0</ele><time>2026-04-18T09:38:37.001Z</time></trkpt><trkpt lat="43.45298387018847" lon="10.912286910225667"><ele>294.0</ele><time>2026-04-18T09:38:38.001Z</time></trkpt><trkpt lat="43.45288243224977" lon="10.912311253022985"><ele>294.0</ele><time>2026-04-18T09:38:39.001Z</time></trkpt><trkpt lat="43.45277982575657" lon="10.912326807867672"><ele>294.0</ele><time>2026-04-18T09:38:40.001Z</time></trkpt><trkpt lat="43.452682300431874" lon="10.912325600854357"><ele>294.0</ele><time>2026-04-18T09:38:41.001Z</time></trkpt><trkpt lat="43.45259604033931" lon="10.912304871674127"><ele>293.6666666666667</ele><time>2026-04-18T09:38:42.001Z</time></trkpt><trkpt lat="43.45251782699081" lon="10.912259216513442"><ele>293.3333333333333</ele><time>2026-04-18T09:38:43.001Z</time></trkpt><trkpt lat="43.452441211059195" lon="10.91221379659876"><ele>293.0</ele><time>2026-04-18T09:38:44.001Z</time></trkpt><trkpt lat="43.45236388910032" lon="10.912169221633448"><ele>292.66666666666663</ele><time>2026-04-18T09:38:45.001Z</time></trkpt><trkpt lat="43.45227616746521" lon="10.912141883319139"><ele>292.3333333333333</ele><time>2026-04-18T09:38:46.001Z</time></trkpt><trkpt lat="43.45218466552783" lon="10.912114673758623"><ele>292.0</ele><time>2026-04-18T09:38:47.001Z</time></trkpt><trkpt lat="43.45209408793943" lon="10.912096626311238"><ele>291.0</ele><time>2026-04-18T09:38:48.001Z</time></trkpt><trkpt lat="43.45200236802371" lon="10.912089139393407"><ele>290.0</ele><time>2026-04-18T09:38:49.001Z</time></trkpt><trkpt lat="43.45191023500943" lon="10.912088923857008"><ele>289.0</ele><time>2026-04-18T09:38:50.001Z</time></trkpt><trkpt lat="43.45181862821857" lon="10.912092204411776"><ele>288.0</ele><time>2026-04-18T09:38:51.001Z</time></trkpt><trkpt lat="43.45172768187175" lon="10.912097734902815"><ele>287.0</ele><time>2026-04-18T09:38:52.001Z</time></trkpt><trkpt lat="43.45163195683247" lon="10.912091401446105"><ele>287.0</ele><time>2026-04-18T09:38:53.001Z</time></trkpt><trkpt lat="43.4515441414177" lon="10.912077759383877"><ele>287.0</ele><time>2026-04-18T09:38:54.001Z</time></trkpt><trkpt lat="43.45145715974712" lon="10.912053369921777"><ele>287.0</ele><time>2026-04-18T09:38:55.001Z</time></trkpt><trkpt lat="43.45137914085325" lon="10.912023446508236"><ele>287.0</ele><time>2026-04-18T09:38:56.001Z</time></trkpt><trkpt lat="43.451306555759054" lon="10.911992977521036"><ele>287.0</ele><time>2026-04-18T09:38:57.001Z</time></trkpt><trkpt lat="43.45123852754339" lon="10.911960144645837"><ele>287.0</ele><time>2026-04-18T09:38:58.001Z</time></trkpt><trkpt lat="43.45116978617002" lon="10.911930667019316"><ele>286.33333333333337</ele><time>2026-04-18T09:38:59.001Z</time></trkpt><trkpt lat="43.45109802819173" lon="10.911916015744657"><ele>285.6666666666667</ele><time>2026-04-18T09:39:00.001Z</time></trkpt><trkpt lat="43.45102526212534" lon="10.911925060828018"><ele>285.0</ele><time>2026-04-18T09:39:01.001Z</time></trkpt><trkpt lat="43.45095671814758" lon="10.911950014590197"><ele>284.3333333333333</ele><time>2026-04-18T09:39:02.001Z</time></trkpt><trkpt lat="43.450891025929835" lon="10.911973521386601"><ele>283.66666666666663</ele><time>2026-04-18T09:39:03.001Z</time></trkpt><trkpt lat="43.450779848155506" lon="10.911961807616738"><ele>283.0</ele><time>2026-04-18T09:39:05.001Z</time></trkpt><trkpt lat="43.45069247067482" lon="10.91184923748829"><ele>283.0</ele><time>2026-04-18T09:39:07.001Z</time></trkpt><trkpt lat="43.45065871432032" lon="10.911772670663062"><ele>283.0</ele><time>2026-04-18T09:39:08.001Z</time></trkpt><trkpt lat="43.45061433189137" lon="10.911696153242632"><ele>283.0</ele><time>2026-04-18T09:39:09.001Z</time></trkpt><trkpt lat="43.45055449236407" lon="10.911635927182363"><ele>283.0</ele><time>2026-04-18T09:39:10.001Z</time></trkpt><trkpt lat="43.45048476383481" lon="10.91158097320311"><ele>283.0</ele><time>2026-04-18T09:39:11.001Z</time></trkpt><trkpt lat="43.45041529763968" lon="10.911528662841555"><ele>283.0</ele><time>2026-04-18T09:39:12.001Z</time></trkpt><trkpt lat="43.45034087211601" lon="10.911475405650878"><ele>282.0</ele><time>2026-04-18T09:39:13.001Z</time></trkpt><trkpt lat="43.450260924882734" lon="10.911427095883377"><ele>281.0</ele><time>2026-04-18T09:39:14.001Z</time></trkpt><trkpt lat="43.45017571727937" lon="10.911379681193647"><ele>280.0</ele><time>2026-04-18T09:39:15.001Z</time></trkpt><trkpt lat="43.45008753475146" lon="10.911330450667592"><ele>279.0</ele><time>2026-04-18T09:39:16.001Z</time></trkpt><trkpt lat="43.44999659057515" lon="10.911279531753879"><ele>278.0</ele><time>2026-04-18T09:39:17.001Z</time></trkpt><trkpt lat="43.44990527883927" lon="10.911228323677046"><ele>278.0</ele><time>2026-04-18T09:39:18.002Z</time></trkpt><trkpt lat="43.449814150262476" lon="10.91117587654055"><ele>278.0</ele><time>2026-04-18T09:39:19.002Z</time></trkpt><trkpt lat="43.44972221018832" lon="10.911124954002915"><ele>278.0</ele><time>2026-04-18T09:39:20.002Z</time></trkpt><trkpt lat="43.4496302230841" lon="10.911075811682235"><ele>278.0</ele><time>2026-04-18T09:39:21.002Z</time></trkpt><trkpt lat="43.44953805145127" lon="10.911025101226043"><ele>278.0</ele><time>2026-04-18T09:39:22.002Z</time></trkpt><trkpt lat="43.44944455972401" lon="10.910977217617605"><ele>277.0</ele><time>2026-04-18T09:39:23.002Z</time></trkpt><trkpt lat="43.44934993189039" lon="10.91093206702154"><ele>276.0</ele><time>2026-04-18T09:39:24.002Z</time></trkpt><trkpt lat="43.44925477748834" lon="10.910888865850556"><ele>275.0</ele><time>2026-04-18T09:39:25.002Z</time></trkpt><trkpt lat="43.44915898275211" lon="10.910848783761494"><ele>274.0</ele><time>2026-04-18T09:39:26.002Z</time></trkpt><trkpt lat="43.44906297799645" lon="10.910812682974807"><ele>273.0</ele><time>2026-04-18T09:39:27.002Z</time></trkpt><trkpt lat="43.4489669750325" lon="10.910778571061467"><ele>273.0</ele><time>2026-04-18T09:39:28.002Z</time></trkpt><trkpt lat="43.44887099897335" lon="10.9107473178208"><ele>273.0</ele><time>2026-04-18T09:39:29.002Z</time></trkpt><trkpt lat="43.448777505087925" lon="10.910705297373546"><ele>273.0</ele><time>2026-04-18T09:39:30.002Z</time></trkpt><trkpt lat="43.44868884102635" lon="10.910646977338907"><ele>273.0</ele><time>2026-04-18T09:39:31.002Z</time></trkpt><trkpt lat="43.448602725692666" lon="10.910581443339902"><ele>273.0</ele><time>2026-04-18T09:39:32.002Z</time></trkpt><trkpt lat="43.4485147418059" lon="10.910517371668174"><ele>272.8</ele><time>2026-04-18T09:39:33.002Z</time></trkpt><trkpt lat="43.44843272822598" lon="10.910444940604759"><ele>272.6</ele><time>2026-04-18T09:39:34.002Z</time></trkpt><trkpt lat="43.448350973093014" lon="10.910366362118323"><ele>272.4</ele><time>2026-04-18T09:39:35Z</time></trkpt><trkpt lat="43.44826796851061" lon="10.910291120700974"><ele>272.2</ele><time>2026-04-18T09:39:36Z</time></trkpt><trkpt lat="43.44817987521858" lon="10.910227408793682"><ele>272.0</ele><time>2026-04-18T09:39:37Z</time></trkpt><trkpt lat="43.44808473030663" lon="10.91017365591894"><ele>272.0</ele><time>2026-04-18T09:39:38Z</time></trkpt><trkpt lat="43.447986905910454" lon="10.910117272188801"><ele>272.0</ele><time>2026-04-18T09:39:39Z</time></trkpt><trkpt lat="43.4478860391109" lon="10.910057212698792"><ele>272.0</ele><time>2026-04-18T09:39:40Z</time></trkpt><trkpt lat="43.44778282465092" lon="10.910002112041065"><ele>272.0</ele><time>2026-04-18T09:39:41Z</time></trkpt><trkpt lat="43.447677590757856" lon="10.90994832959603"><ele>272.0</ele><time>2026-04-18T09:39:42Z</time></trkpt><trkpt lat="43.447572746024676" lon="10.909890962531557"><ele>271.0</ele><time>2026-04-18T09:39:43Z</time></trkpt><trkpt lat="43.44747436179698" lon="10.909825107290501"><ele>270.0</ele><time>2026-04-18T09:39:44Z</time></trkpt><trkpt lat="43.447381872191585" lon="10.909759770380973"><ele>269.0</ele><time>2026-04-18T09:39:45Z</time></trkpt><trkpt lat="43.44728988542679" lon="10.909702253036818"><ele>268.0</ele><time>2026-04-18T09:39:46Z</time></trkpt><trkpt lat="43.44719559415026" lon="10.909646165745759"><ele>267.0</ele><time>2026-04-18T09:39:47Z</time></trkpt><trkpt lat="43.44709837415371" lon="10.909598381161732"><ele>265.8</ele><time>2026-04-18T09:39:48Z</time></trkpt><trkpt lat="43.44700074399084" lon="10.909555681960754"><ele>264.6</ele><time>2026-04-18T09:39:49Z</time></trkpt><trkpt lat="43.446905120804566" lon="10.909516480502"><ele>263.40000000000003</ele><time>2026-04-18T09:39:50Z</time></trkpt><trkpt lat="43.44681495112627" lon="10.909482944002693"><ele>262.2</ele><time>2026-04-18T09:39:51Z</time></trkpt><trkpt lat="43.44672815560148" lon="10.909454326792094"><ele>261.0</ele><time>2026-04-18T09:39:52Z</time></trkpt><trkpt lat="43.44664855689273" lon="10.90942367014107"><ele>261.0</ele><time>2026-04-18T09:39:53Z</time></trkpt><trkpt lat="43.44657318954983" lon="10.909380965077059"><ele>261.0</ele><time>2026-04-18T09:39:54Z</time></trkpt><trkpt lat="43.44650442329334" lon="10.909313854653224"><ele>261.0</ele><time>2026-04-18T09:39:55Z</time></trkpt><trkpt lat="43.44644179678213" lon="10.9092353024021"><ele>261.0</ele><time>2026-04-18T09:39:56Z</time></trkpt><trkpt lat="43.44638346754285" lon="10.909137994023945"><ele>261.0</ele><time>2026-04-18T09:39:57Z</time></trkpt><trkpt lat="43.44633346179432" lon="10.909026495953384"><ele>261.0</ele><time>2026-04-18T09:39:58Z</time></trkpt><trkpt lat="43.44628534947477" lon="10.908904663483652"><ele>260.2</ele><time>2026-04-18T09:39:59Z</time></trkpt><trkpt lat="43.44623826775919" lon="10.908780204517504"><ele>259.40000000000003</ele><time>2026-04-18T09:40:00Z</time></trkpt><trkpt lat="43.44619269612796" lon="10.908652977467797"><ele>258.6</ele><time>2026-04-18T09:40:01Z</time></trkpt><trkpt lat="43.44616999272964" lon="10.908513321945192"><ele>257.8</ele><time>2026-04-18T09:40:02Z</time></trkpt><trkpt lat="43.446135461353336" lon="10.908379871041959"><ele>257.0</ele><time>2026-04-18T09:40:03Z</time></trkpt><trkpt lat="43.446100896446374" lon="10.908251261180618"><ele>257.0</ele><time>2026-04-18T09:40:04Z</time></trkpt><trkpt lat="43.4460502652409" lon="10.908130948871824"><ele>257.0</ele><time>2026-04-18T09:40:05Z</time></trkpt><trkpt lat="43.446008416978216" lon="10.908001418833951"><ele>257.0</ele><time>2026-04-18T09:40:06Z</time></trkpt><trkpt lat="43.44596479831298" lon="10.907870296013833"><ele>257.0</ele><time>2026-04-18T09:40:07Z</time></trkpt><trkpt lat="43.445912398229225" lon="10.907743341679115"><ele>257.0</ele><time>2026-04-18T09:40:08Z</time></trkpt><trkpt lat="43.445846852661994" lon="10.90762867275925"><ele>256.6</ele><time>2026-04-18T09:40:09Z</time></trkpt><trkpt lat="43.445778364160425" lon="10.907507846875458"><ele>256.2</ele><time>2026-04-18T09:40:10Z</time></trkpt><trkpt lat="43.44570498690622" lon="10.907390495781577"><ele>255.8</ele><time>2026-04-18T09:40:11Z</time></trkpt><trkpt lat="43.44563178892025" lon="10.907273234559646"><ele>255.4</ele><time>2026-04-18T09:40:12Z</time></trkpt><trkpt lat="43.44556136290712" lon="10.907155919386877"><ele>255.0</ele><time>2026-04-18T09:40:13Z</time></trkpt><trkpt lat="43.445493753297754" lon="10.90703860773541"><ele>254.4</ele><time>2026-04-18T09:40:14Z</time></trkpt><trkpt lat="43.44542770800652" lon="10.906918679582766"><ele>253.8</ele><time>2026-04-18T09:40:15Z</time></trkpt><trkpt lat="43.4453603648662" lon="10.906800276606887"><ele>253.2</ele><time>2026-04-18T09:40:16Z</time></trkpt><trkpt lat="43.4452901257957" lon="10.906683381257531"><ele>252.6</ele><time>2026-04-18T09:40:17Z</time></trkpt><trkpt lat="43.44522288758386" lon="10.906574716063284"><ele>252.0</ele><time>2026-04-18T09:40:18Z</time></trkpt><trkpt lat="43.44516106385788" lon="10.906482125995714"><ele>252.0</ele><time>2026-04-18T09:40:19Z</time></trkpt><trkpt lat="43.44510487293989" lon="10.906397835637106"><ele>252.0</ele><time>2026-04-18T09:40:20Z</time></trkpt><trkpt lat="43.44505076110727" lon="10.906322451675516"><ele>252.0</ele><time>2026-04-18T09:40:21Z</time></trkpt><trkpt lat="43.445000944130896" lon="10.906257774593685"><ele>252.0</ele><time>2026-04-18T09:40:22Z</time></trkpt><trkpt lat="43.444916795444406" lon="10.906140970485747"><ele>252.0</ele><time>2026-04-18T09:40:24Z</time></trkpt><trkpt lat="43.44484012521675" lon="10.906040529253048"><ele>252.0</ele><time>2026-04-18T09:40:26Z</time></trkpt><trkpt lat="43.44477051326552" lon="10.90594964091621"><ele>252.0</ele><time>2026-04-18T09:40:28Z</time></trkpt><trkpt lat="43.444697103153395" lon="10.905861376128632"><ele>252.0</ele><time>2026-04-18T09:40:30Z</time></trkpt><trkpt lat="43.44462001538071" lon="10.905756377557397"><ele>252.0</ele><time>2026-04-18T09:40:32Z</time></trkpt><trkpt lat="43.44458010591584" lon="10.905687758493533"><ele>252.0</ele><time>2026-04-18T09:40:33Z</time></trkpt><trkpt lat="43.44453857491182" lon="10.90560469752859"><ele>252.0</ele><time>2026-04-18T09:40:34Z</time></trkpt><trkpt lat="43.44449605013611" lon="10.905508993172388"><ele>251.83333333333334</ele><time>2026-04-18T09:40:35Z</time></trkpt><trkpt lat="43.444456306522405" lon="10.905406895196663"><ele>251.66666666666669</ele><time>2026-04-18T09:40:36Z</time></trkpt><trkpt lat="43.444412636374764" lon="10.905310185357374"><ele>251.5</ele><time>2026-04-18T09:40:37Z</time></trkpt><trkpt lat="43.444364011719195" lon="10.905220561657302"><ele>251.33333333333334</ele><time>2026-04-18T09:40:38Z</time></trkpt><trkpt lat="43.444319658341925" lon="10.905132940897255"><ele>251.16666666666669</ele><time>2026-04-18T09:40:39Z</time></trkpt><trkpt lat="43.44427323160818" lon="10.905053560607293"><ele>251.0</ele><time>2026-04-18T09:40:40Z</time></trkpt><trkpt lat="43.444221192723255" lon="10.904980783452459"><ele>251.00000000000003</ele><time>2026-04-18T09:40:41Z</time></trkpt><trkpt lat="43.44416441360425" lon="10.904912681286756"><ele>251.0</ele><time>2026-04-18T09:40:42Z</time></trkpt><trkpt lat="43.444103485162906" lon="10.904848368344506"><ele>251.0</ele><time>2026-04-18T09:40:43Z</time></trkpt><trkpt lat="43.44404111575832" lon="10.904783204214398"><ele>251.0</ele><time>2026-04-18T09:40:44Z</time></trkpt><trkpt lat="43.443973322690965" lon="10.90472121108876"><ele>251.00000000000003</ele><time>2026-04-18T09:40:45Z</time></trkpt><trkpt lat="43.443905687298" lon="10.904655590082994"><ele>251.0</ele><time>2026-04-18T09:40:46Z</time></trkpt><trkpt lat="43.44383473523791" lon="10.904589424624309"><ele>250.00000000000003</ele><time>2026-04-18T09:40:47.001Z</time></trkpt><trkpt lat="43.443762957298915" lon="10.90452263026406"><ele>249.0</ele><time>2026-04-18T09:40:48.001Z</time></trkpt><trkpt lat="43.44368921677998" lon="10.90445624056014"><ele>248.0</ele><time>2026-04-18T09:40:49.001Z</time></trkpt><trkpt lat="43.44361615469727" lon="10.904389758162441"><ele>247.0</ele><time>2026-04-18T09:40:50.001Z</time></trkpt><trkpt lat="43.44354405794205" lon="10.904324013454998"><ele>246.00000000000003</ele><time>2026-04-18T09:40:51.001Z</time></trkpt><trkpt lat="43.44347299359341" lon="10.904257838004494"><ele>245.0</ele><time>2026-04-18T09:40:52.001Z</time></trkpt><trkpt lat="43.443401920114674" lon="10.904191339254599"><ele>245.00000000000003</ele><time>2026-04-18T09:40:53.001Z</time></trkpt><trkpt lat="43.44333159118098" lon="10.904126454119849"><ele>245.0</ele><time>2026-04-18T09:40:54.001Z</time></trkpt><trkpt lat="43.44326046983259" lon="10.904060532881498"><ele>245.0</ele><time>2026-04-18T09:40:55.001Z</time></trkpt><trkpt lat="43.443188158580206" lon="10.903995736821923"><ele>245.0</ele><time>2026-04-18T09:40:56.001Z</time></trkpt><trkpt lat="43.44311447219332" lon="10.903930484579144"><ele>245.00000000000003</ele><time>2026-04-18T09:40:57.001Z</time></trkpt><trkpt lat="43.4430396381711" lon="10.903866785919453"><ele>245.0</ele><time>2026-04-18T09:40:58.001Z</time></trkpt><trkpt lat="43.44296247980204" lon="10.903801735235122"><ele>243.8</ele><time>2026-04-18T09:40:59.001Z</time></trkpt><trkpt lat="43.44288364164891" lon="10.903736781848592"><ele>242.6</ele><time>2026-04-18T09:41:00.001Z</time></trkpt><trkpt lat="43.44280235584329" lon="10.903668605742325"><ele>241.39999999999998</ele><time>2026-04-18T09:41:01.001Z</time></trkpt><trkpt lat="43.442721694621426" lon="10.903599016727963"><ele>240.2</ele><time>2026-04-18T09:41:02.001Z</time></trkpt><trkpt lat="43.44264192096357" lon="10.903523301974223"><ele>239.0</ele><time>2026-04-18T09:41:03.001Z</time></trkpt><trkpt lat="43.44256188540931" lon="10.903445110788205"><ele>240.39999999999998</ele><time>2026-04-18T09:41:04.001Z</time></trkpt><trkpt lat="43.442481121499895" lon="10.90336581792147"><ele>241.79999999999998</ele><time>2026-04-18T09:41:05.001Z</time></trkpt><trkpt lat="43.4423984187335" lon="10.903285572768596"><ele>243.20000000000002</ele><time>2026-04-18T09:41:06.001Z</time></trkpt><trkpt lat="43.44231386393481" lon="10.90320491198788"><ele>244.60000000000002</ele><time>2026-04-18T09:41:07.001Z</time></trkpt><trkpt lat="43.442228924593195" lon="10.903125940267639"><ele>246.0</ele><time>2026-04-18T09:41:08.001Z</time></trkpt><trkpt lat="43.4421405449312" lon="10.903051459307727"><ele>245.60000000000002</ele><time>2026-04-18T09:41:09.001Z</time></trkpt><trkpt lat="43.442051258041246" lon="10.902979028967394"><ele>245.20000000000002</ele><time>2026-04-18T09:41:10.001Z</time></trkpt><trkpt lat="43.44196522358954" lon="10.902904157804317"><ele>244.79999999999998</ele><time>2026-04-18T09:41:11.001Z</time></trkpt><trkpt lat="43.44187479320503" lon="10.902836467175202"><ele>244.39999999999998</ele><time>2026-04-18T09:41:12.001Z</time></trkpt><trkpt lat="43.441776248341725" lon="10.902783141177649"><ele>244.0</ele><time>2026-04-18T09:41:13.001Z</time></trkpt><trkpt lat="43.44167530729366" lon="10.9027367554019"><ele>244.0</ele><time>2026-04-18T09:41:14.001Z</time></trkpt><trkpt lat="43.4415716857205" lon="10.90270207932515"><ele>243.99999999999997</ele><time>2026-04-18T09:41:15.001Z</time></trkpt><trkpt lat="43.44146622648081" lon="10.902683202093653"><ele>243.99999999999997</ele><time>2026-04-18T09:41:16.001Z</time></trkpt><trkpt lat="43.441358537681495" lon="10.902673180241699"><ele>244.0</ele><time>2026-04-18T09:41:17.001Z</time></trkpt><trkpt lat="43.44124832766168" lon="10.90266671005259"><ele>244.0</ele><time>2026-04-18T09:41:18.001Z</time></trkpt><trkpt lat="43.44113631344918" lon="10.902663347453302"><ele>243.6</ele><time>2026-04-18T09:41:19.001Z</time></trkpt><trkpt lat="43.441026249023444" lon="10.9026542424872"><ele>243.2</ele><time>2026-04-18T09:41:20.001Z</time></trkpt><trkpt lat="43.44091832414431" lon="10.902635606831105"><ele>242.79999999999998</ele><time>2026-04-18T09:41:21.001Z</time></trkpt><trkpt lat="43.44081532134255" lon="10.902600736495017"><ele>242.39999999999998</ele><time>2026-04-18T09:41:22.001Z</time></trkpt><trkpt lat="43.44071332006799" lon="10.902563288001662"><ele>242.0</ele><time>2026-04-18T09:41:23.001Z</time></trkpt><trkpt lat="43.4406135207164" lon="10.902514384907635"><ele>242.8</ele><time>2026-04-18T09:41:24.001Z</time></trkpt><trkpt lat="43.440513034789014" lon="10.902451419366061"><ele>243.6</ele><time>2026-04-18T09:41:25.001Z</time></trkpt><trkpt lat="43.44041338681879" lon="10.90237718553147"><ele>244.40000000000003</ele><time>2026-04-18T09:41:26.001Z</time></trkpt><trkpt lat="43.440319200417434" lon="10.902299092509747"><ele>245.20000000000002</ele><time>2026-04-18T09:41:27.001Z</time></trkpt><trkpt lat="43.44023306969261" lon="10.90221227468649"><ele>246.0</ele><time>2026-04-18T09:41:28.001Z</time></trkpt><trkpt lat="43.44015413381579" lon="10.902112930244941"><ele>246.8</ele><time>2026-04-18T09:41:29.001Z</time></trkpt><trkpt lat="43.44008426603821" lon="10.902001641156682"><ele>247.60000000000002</ele><time>2026-04-18T09:41:30.001Z</time></trkpt><trkpt lat="43.44001882111122" lon="10.901885434021736"><ele>248.4</ele><time>2026-04-18T09:41:31.001Z</time></trkpt><trkpt lat="43.439956005885506" lon="10.901766345850238"><ele>249.2</ele><time>2026-04-18T09:41:32.001Z</time></trkpt><trkpt lat="43.43989670470879" lon="10.901653128256529"><ele>250.0</ele><time>2026-04-18T09:41:33.001Z</time></trkpt><trkpt lat="43.43983808051743" lon="10.901549929259877"><ele>249.99999999999997</ele><time>2026-04-18T09:41:34.001Z</time></trkpt><trkpt lat="43.43978347572895" lon="10.901451654498608"><ele>250.0</ele><time>2026-04-18T09:41:35.001Z</time></trkpt><trkpt lat="43.43973537919879" lon="10.901353007911046"><ele>250.0</ele><time>2026-04-18T09:41:36.001Z</time></trkpt><trkpt lat="43.43969583797631" lon="10.901248422447088"><ele>250.0</ele><time>2026-04-18T09:41:37.001Z</time></trkpt><trkpt lat="43.43967100884313" lon="10.901137579312024"><ele>249.99999999999997</ele><time>2026-04-18T09:41:38.001Z</time></trkpt><trkpt lat="43.43965341449001" lon="10.901024234290626"><ele>250.0</ele><time>2026-04-18T09:41:39.001Z</time></trkpt><trkpt lat="43.43964489715636" lon="10.900908611905955"><ele>249.49999999999997</ele><time>2026-04-18T09:41:40.001Z</time></trkpt><trkpt lat="43.439646265739235" lon="10.90079179298933"><ele>249.0</ele><time>2026-04-18T09:41:40.999Z</time></trkpt><trkpt lat="43.43965188613573" lon="10.900679047631671"><ele>248.5</ele><time>2026-04-18T09:41:41.999Z</time></trkpt><trkpt lat="43.43965735207807" lon="10.9005724981293"><ele>248.0</ele><time>2026-04-18T09:41:42.999Z</time></trkpt><trkpt lat="43.43966392507757" lon="10.900468864432447"><ele>247.49999999999997</ele><time>2026-04-18T09:41:43.999Z</time></trkpt><trkpt lat="43.43967174667271" lon="10.900367751324316"><ele>247.0</ele><time>2026-04-18T09:41:44.999Z</time></trkpt><trkpt lat="43.43968081337621" lon="10.90026990414351"><ele>246.99999999999997</ele><time>2026-04-18T09:41:45.999Z</time></trkpt><trkpt lat="43.43969091175978" lon="10.900172521082217"><ele>247.0</ele><time>2026-04-18T09:41:46.999Z</time></trkpt><trkpt lat="43.43969937919736" lon="10.90007317239796"><ele>247.0</ele><time>2026-04-18T09:41:47.999Z</time></trkpt><trkpt lat="43.4397010613961" lon="10.899967409674492"><ele>247.0</ele><time>2026-04-18T09:41:48.999Z</time></trkpt><trkpt lat="43.43969258420063" lon="10.899858946733401"><ele>246.99999999999997</ele><time>2026-04-18T09:41:49.999Z</time></trkpt><trkpt lat="43.43967212665302" lon="10.89975559836896"><ele>247.0</ele><time>2026-04-18T09:41:50.999Z</time></trkpt><trkpt lat="43.439645349855184" lon="10.899657129261934"><ele>247.66666666666666</ele><time>2026-04-18T09:41:51.999Z</time></trkpt><trkpt lat="43.439611902612796" lon="10.899567223427084"><ele>248.33333333333331</ele><time>2026-04-18T09:41:52.999Z</time></trkpt><trkpt lat="43.43954666388362" lon="10.899444553586699"><ele>249.0</ele><time>2026-04-18T09:41:54.999Z</time></trkpt><trkpt lat="43.43948518498731" lon="10.899387407317237"><ele>249.66666666666669</ele><time>2026-04-18T09:41:56.999Z</time></trkpt><trkpt lat="43.43942412296952" lon="10.899338413303239"><ele>250.33333333333334</ele><time>2026-04-18T09:41:58.999Z</time></trkpt><trkpt lat="43.43934357578891" lon="10.899262231916657"><ele>251.0</ele><time>2026-04-18T09:42:01Z</time></trkpt><trkpt lat="43.439266694761756" lon="10.899162271564967"><ele>251.00000000000003</ele><time>2026-04-18T09:42:03Z</time></trkpt><trkpt lat="43.43918197061895" lon="10.89905800784553"><ele>251.0</ele><time>2026-04-18T09:42:05Z</time></trkpt><trkpt lat="43.43908415427329" lon="10.898948350949217"><ele>251.0</ele><time>2026-04-18T09:42:07Z</time></trkpt><trkpt lat="43.439031622386054" lon="10.898891028902383"><ele>251.0</ele><time>2026-04-18T09:42:08Z</time></trkpt><trkpt lat="43.43897821756558" lon="10.898830462459792"><ele>251.00000000000003</ele><time>2026-04-18T09:42:09Z</time></trkpt><trkpt lat="43.438928792236894" lon="10.8987599318507"><ele>251.0</ele><time>2026-04-18T09:42:10Z</time></trkpt><trkpt lat="43.43887912293251" lon="10.898682396485407"><ele>250.99999999999997</ele><time>2026-04-18T09:42:11Z</time></trkpt><trkpt lat="43.438829709750735" lon="10.89859745841997"><ele>251.0</ele><time>2026-04-18T09:42:12Z</time></trkpt><trkpt lat="43.43878913225674" lon="10.898500449110328"><ele>250.99999999999997</ele><time>2026-04-18T09:42:13Z</time></trkpt><trkpt lat="43.438760196350785" lon="10.898401779290374"><ele>250.99999999999997</ele><time>2026-04-18T09:42:14Z</time></trkpt><trkpt lat="43.43873944972914" lon="10.898310993127547"><ele>251.0</ele><time>2026-04-18T09:42:15Z</time></trkpt><trkpt lat="43.438720935953825" lon="10.89822097737841"><ele>250.99999999999997</ele><time>2026-04-18T09:42:16Z</time></trkpt><trkpt lat="43.43870078167026" lon="10.898134079486644"><ele>250.99999999999997</ele><time>2026-04-18T09:42:17Z</time></trkpt><trkpt lat="43.438671107220955" lon="10.898047504394514"><ele>250.33333333333334</ele><time>2026-04-18T09:42:18Z</time></trkpt><trkpt lat="43.43862968749311" lon="10.897964128488987"><ele>249.66666666666669</ele><time>2026-04-18T09:42:19Z</time></trkpt><trkpt lat="43.43857803244325" lon="10.897887481994436"><ele>249.0</ele><time>2026-04-18T09:42:20Z</time></trkpt><trkpt lat="43.43852023521329" lon="10.8978050074175"><ele>248.33333333333331</ele><time>2026-04-18T09:42:21Z</time></trkpt><trkpt lat="43.43846581081147" lon="10.897717062777241"><ele>247.66666666666666</ele><time>2026-04-18T09:42:22Z</time></trkpt><trkpt lat="43.4384229735577" lon="10.89763233980927"><ele>247.0</ele><time>2026-04-18T09:42:23Z</time></trkpt><trkpt lat="43.4383921088266" lon="10.89754675546105"><ele>245.39999999999998</ele><time>2026-04-18T09:42:24Z</time></trkpt><trkpt lat="43.4383749344384" lon="10.897458359283693"><ele>243.79999999999998</ele><time>2026-04-18T09:42:25Z</time></trkpt><trkpt lat="43.4383706237498" lon="10.897366536055548"><ele>242.2</ele><time>2026-04-18T09:42:26Z</time></trkpt><trkpt lat="43.43837192743458" lon="10.897200163738738"><ele>240.6</ele><time>2026-04-18T09:42:28Z</time></trkpt><trkpt lat="43.4383619508009" lon="10.897051885754228"><ele>239.0</ele><time>2026-04-18T09:42:30Z</time></trkpt><trkpt lat="43.438342390604916" lon="10.896909252157782"><ele>239.0</ele><time>2026-04-18T09:42:32Z</time></trkpt><trkpt lat="43.43830477658393" lon="10.896756906446898"><ele>238.99999999999997</ele><time>2026-04-18T09:42:34Z</time></trkpt><trkpt lat="43.438278908437184" lon="10.896676358828332"><ele>238.99999999999997</ele><time>2026-04-18T09:42:35Z</time></trkpt><trkpt lat="43.43822560610843" lon="10.896522797232262"><ele>239.0</ele><time>2026-04-18T09:42:37Z</time></trkpt><trkpt lat="43.43818715264892" lon="10.89636360711882"><ele>239.0</ele><time>2026-04-18T09:42:39Z</time></trkpt><trkpt lat="43.438184944510176" lon="10.896203216789736"><ele>237.83333333333334</ele><time>2026-04-18T09:42:41Z</time></trkpt><trkpt lat="43.43820333524264" lon="10.89606224701878"><ele>236.66666666666669</ele><time>2026-04-18T09:42:43Z</time></trkpt><trkpt lat="43.438216140333466" lon="10.895937525480159"><ele>235.5</ele><time>2026-04-18T09:42:45Z</time></trkpt><trkpt lat="43.43820124637675" lon="10.895814888741707"><ele>234.33333333333331</ele><time>2026-04-18T09:42:47Z</time></trkpt><trkpt lat="43.43816497269859" lon="10.895728205256829"><ele>233.16666666666666</ele><time>2026-04-18T09:42:49Z</time></trkpt><trkpt lat="43.43810771289185" lon="10.895659569013922"><ele>232.0</ele><time>2026-04-18T09:42:51Z</time></trkpt><trkpt lat="43.4380446378269" lon="10.89559972068629"><ele>231.8571428571429</ele><time>2026-04-18T09:42:53Z</time></trkpt><trkpt lat="43.43799103474438" lon="10.895545648896425"><ele>231.71428571428572</ele><time>2026-04-18T09:42:55Z</time></trkpt><trkpt lat="43.43793948822085" lon="10.89548656517152"><ele>231.57142857142858</ele><time>2026-04-18T09:42:58Z</time></trkpt><trkpt lat="43.43788764505357" lon="10.895417408093351"><ele>231.42857142857144</ele><time>2026-04-18T09:43:01Z</time></trkpt><trkpt lat="43.43784838489896" lon="10.895340041293464"><ele>231.28571428571428</ele><time>2026-04-18T09:43:04Z</time></trkpt><trkpt lat="43.43787838309058" lon="10.895424225915727"><ele>231.14285714285714</ele><time>2026-04-18T09:44:14Z</time></trkpt><trkpt lat="43.43792207844062" lon="10.895489027438222"><ele>231.0</ele><time>2026-04-18T09:44:20Z</time></trkpt><trkpt lat="43.43797299258145" lon="10.895545585480034"><ele>230.60000000000002</ele><time>2026-04-18T09:44:27Z</time></trkpt><trkpt lat="43.437910093329954" lon="10.895460449566377"><ele>230.20000000000002</ele><time>2026-04-18T09:44:52Z</time></trkpt><trkpt lat="43.43784147166882" lon="10.895336675663748"><ele>229.79999999999998</ele><time>2026-04-18T09:44:54Z</time></trkpt><trkpt lat="43.43780421857855" lon="10.895248058998833"><ele>229.39999999999998</ele><time>2026-04-18T09:44:55Z</time></trkpt><trkpt lat="43.43776176359788" lon="10.895143509362804"><ele>229.0</ele><time>2026-04-18T09:44:56Z</time></trkpt><trkpt lat="43.43771753285831" lon="10.895026100111084"><ele>228.6</ele><time>2026-04-18T09:44:57Z</time></trkpt><trkpt lat="43.4376736078041" lon="10.894901851081155"><ele>228.2</ele><time>2026-04-18T09:44:58Z</time></trkpt><trkpt lat="43.43762643730699" lon="10.894776119501623"><ele>227.79999999999998</ele><time>2026-04-18T09:44:59Z</time></trkpt><trkpt lat="43.43757455289535" lon="10.89465020479734"><ele>227.39999999999998</ele><time>2026-04-18T09:45:00Z</time></trkpt><trkpt lat="43.43751046060984" lon="10.894528681810211"><ele>227.0</ele><time>2026-04-18T09:45:01Z</time></trkpt><trkpt lat="43.437429224137404" lon="10.894420665966155"><ele>227.0</ele><time>2026-04-18T09:45:02Z</time></trkpt><trkpt lat="43.4373417818856" lon="10.894308859667706"><ele>227.0</ele><time>2026-04-18T09:45:03Z</time></trkpt><trkpt lat="43.43724496850417" lon="10.894202940426887"><ele>227.0</ele><time>2026-04-18T09:45:04Z</time></trkpt><trkpt lat="43.43714176565261" lon="10.894111186237138"><ele>227.0</ele><time>2026-04-18T09:45:05Z</time></trkpt><trkpt lat="43.437033030749824" lon="10.894033334846199"><ele>224.75</ele><time>2026-04-18T09:45:06Z</time></trkpt><trkpt lat="43.43692682841539" lon="10.893971844065534"><ele>222.5</ele><time>2026-04-18T09:45:07Z</time></trkpt><trkpt lat="43.43682002572952" lon="10.893925655006349"><ele>220.25</ele><time>2026-04-18T09:45:08Z</time></trkpt><trkpt lat="43.4367113476015" lon="10.893888923046907"><ele>218.0</ele><time>2026-04-18T09:45:09.001Z</time></trkpt><trkpt lat="43.436601365833624" lon="10.893858022503597"><ele>218.0</ele><time>2026-04-18T09:45:10.001Z</time></trkpt><trkpt lat="43.43648640364975" lon="10.893834167093877"><ele>218.0</ele><time>2026-04-18T09:45:11.001Z</time></trkpt><trkpt lat="43.43637629681865" lon="10.893801010932872"><ele>218.0</ele><time>2026-04-18T09:45:12.001Z</time></trkpt><trkpt lat="43.436274095369825" lon="10.893761136931468"><ele>218.0</ele><time>2026-04-18T09:45:13.001Z</time></trkpt><trkpt lat="43.43618350285209" lon="10.893716355554348"><ele>218.0</ele><time>2026-04-18T09:45:14.001Z</time></trkpt><trkpt lat="43.43610499684839" lon="10.893665986647585"><ele>218.00000000000003</ele><time>2026-04-18T09:45:15.001Z</time></trkpt><trkpt lat="43.43603168477611" lon="10.893603853805287"><ele>218.0</ele><time>2026-04-18T09:45:16.001Z</time></trkpt><trkpt lat="43.43596416510056" lon="10.893528082584346"><ele>218.0</ele><time>2026-04-18T09:45:17.001Z</time></trkpt><trkpt lat="43.4359032841794" lon="10.893444941573156"><ele>218.0</ele><time>2026-04-18T09:45:18.001Z</time></trkpt><trkpt lat="43.43584692691568" lon="10.893356563320452"><ele>218.00000000000003</ele><time>2026-04-18T09:45:19.001Z</time></trkpt><trkpt lat="43.43579819598986" lon="10.893280568224396"><ele>218.0</ele><time>2026-04-18T09:45:20.001Z</time></trkpt><trkpt lat="43.435717252812964" lon="10.893161736271997"><ele>218.0</ele><time>2026-04-18T09:45:22.001Z</time></trkpt><trkpt lat="43.435641725138446" lon="10.893048764102407"><ele>218.0</ele><time>2026-04-18T09:45:24.001Z</time></trkpt><trkpt lat="43.43556733671939" lon="10.892938706481438"><ele>218.0</ele><time>2026-04-18T09:45:26.001Z</time></trkpt><trkpt lat="43.43548913915428" lon="10.892827586956214"><ele>218.0</ele><time>2026-04-18T09:45:28.001Z</time></trkpt><trkpt lat="43.43540598818524" lon="10.892711317767958"><ele>217.0</ele><time>2026-04-18T09:45:30.001Z</time></trkpt><trkpt lat="43.43536085107477" lon="10.892650214877396"><ele>216.0</ele><time>2026-04-18T09:45:31.001Z</time></trkpt><trkpt lat="43.43531254673591" lon="10.892588639008641"><ele>215.0</ele><time>2026-04-18T09:45:32.001Z</time></trkpt><trkpt lat="43.43525915627824" lon="10.892525452582579"><ele>214.0</ele><time>2026-04-18T09:45:33.001Z</time></trkpt><trkpt lat="43.43520317289774" lon="10.892463329696596"><ele>213.0</ele><time>2026-04-18T09:45:34.001Z</time></trkpt><trkpt lat="43.43514684557965" lon="10.892402601718933"><ele>212.0</ele><time>2026-04-18T09:45:35.001Z</time></trkpt><trkpt lat="43.435088673044135" lon="10.892343830463034"><ele>211.0</ele><time>2026-04-18T09:45:36.001Z</time></trkpt><trkpt lat="43.43500399340726" lon="10.892266872801736"><ele>211.0</ele><time>2026-04-18T09:45:38.001Z</time></trkpt><trkpt lat="43.434950974537365" lon="10.892206244312552"><ele>211.0</ele><time>2026-04-18T09:45:40.001Z</time></trkpt><trkpt lat="43.43490898982423" lon="10.892135080310814"><ele>211.0</ele><time>2026-04-18T09:45:58Z</time></trkpt><trkpt lat="43.434885402256356" lon="10.892049798297737"><ele>211.0</ele><time>2026-04-18T09:46:07Z</time></trkpt><trkpt lat="43.434919893818325" lon="10.892128281930757"><ele>211.0</ele><time>2026-04-18T09:46:54Z</time></trkpt><trkpt lat="43.43486946728238" lon="10.892045338634784"><ele>211.0</ele><time>2026-04-18T09:48:20Z</time></trkpt><trkpt lat="43.4348326552659" lon="10.891936042348956"><ele>211.0</ele><time>2026-04-18T09:48:22Z</time></trkpt><trkpt lat="43.43481526093661" lon="10.891794150603113"><ele>211.60000000000002</ele><time>2026-04-18T09:48:24Z</time></trkpt><trkpt lat="43.43477500116377" lon="10.891650468068235"><ele>212.2</ele><time>2026-04-18T09:48:26Z</time></trkpt><trkpt lat="43.43471335200185" lon="10.891542273903548"><ele>212.79999999999998</ele><time>2026-04-18T09:48:28Z</time></trkpt><trkpt lat="43.43460760673798" lon="10.891534479441626"><ele>213.39999999999998</ele><time>2026-04-18T09:48:30Z</time></trkpt><trkpt lat="43.43452337273725" lon="10.89160316359062"><ele>214.0</ele><time>2026-04-18T09:48:32Z</time></trkpt><trkpt lat="43.43446089681411" lon="10.891731593660186"><ele>211.16666666666666</ele><time>2026-04-18T09:48:34Z</time></trkpt><trkpt lat="43.43441190102846" lon="10.891888158075385"><ele>208.33333333333331</ele><time>2026-04-18T09:48:36Z</time></trkpt><trkpt lat="43.434400719660815" lon="10.891974318877118"><ele>205.5</ele><time>2026-04-18T09:48:37Z</time></trkpt><trkpt lat="43.43438403145768" lon="10.89206425863818"><ele>202.66666666666669</ele><time>2026-04-18T09:48:38Z</time></trkpt><trkpt lat="43.43439017669351" lon="10.89216543907992"><ele>199.83333333333334</ele><time>2026-04-18T09:48:39Z</time></trkpt><trkpt lat="43.43441318401809" lon="10.892265620642798"><ele>197.0</ele><time>2026-04-18T09:48:40Z</time></trkpt><trkpt lat="43.434441056504006" lon="10.892365436815213"><ele>197.00000000000003</ele><time>2026-04-18T09:48:41Z</time></trkpt><trkpt lat="43.43449165533088" lon="10.892457477956471"><ele>197.0</ele><time>2026-04-18T09:48:42Z</time></trkpt><trkpt lat="43.43453037231994" lon="10.89255991117763"><ele>197.0</ele><time>2026-04-18T09:48:43Z</time></trkpt><trkpt lat="43.43457582081104" lon="10.892663393623682"><ele>197.0</ele><time>2026-04-18T09:48:44Z</time></trkpt><trkpt lat="43.434605768099914" lon="10.892782364866674"><ele>197.00000000000003</ele><time>2026-04-18T09:48:45.001Z</time></trkpt><trkpt lat="43.434654430329644" lon="10.892884318466315"><ele>197.0</ele><time>2026-04-18T09:48:46.001Z</time></trkpt><trkpt lat="43.43465253776814" lon="10.89300487808447"><ele>196.66666666666669</ele><time>2026-04-18T09:48:47.001Z</time></trkpt><trkpt lat="43.434655848363576" lon="10.893123965148108"><ele>196.33333333333334</ele><time>2026-04-18T09:48:48.001Z</time></trkpt><trkpt lat="43.43465693872354" lon="10.893251048491512"><ele>196.0</ele><time>2026-04-18T09:48:49.001Z</time></trkpt><trkpt lat="43.4346580180372" lon="10.893376844823296"><ele>195.66666666666669</ele><time>2026-04-18T09:48:50.001Z</time></trkpt><trkpt lat="43.43466055836886" lon="10.89349398059839"><ele>195.33333333333334</ele><time>2026-04-18T09:48:51.001Z</time></trkpt><trkpt lat="43.434667977979664" lon="10.893597721693013"><ele>195.0</ele><time>2026-04-18T09:48:52.001Z</time></trkpt><trkpt lat="43.434678711128534" lon="10.893686629460916"><ele>195.0</ele><time>2026-04-18T09:48:53.001Z</time></trkpt><trkpt lat="43.434707385508666" lon="10.893830372312499"><ele>195.0</ele><time>2026-04-18T09:48:55.001Z</time></trkpt><trkpt lat="43.43467238262334" lon="10.89392683913364"><ele>195.0</ele><time>2026-04-18T09:48:57.001Z</time></trkpt><trkpt lat="43.43460138250882" lon="10.893930896504147"><ele>195.0</ele><time>2026-04-18T09:48:59.001Z</time></trkpt><trkpt lat="43.43451964719111" lon="10.893869980306777"><ele>195.0</ele><time>2026-04-18T09:49:01.001Z</time></trkpt><trkpt lat="43.4344370791326" lon="10.893740412739877"><ele>194.16666666666666</ele><time>2026-04-18T09:49:03.001Z</time></trkpt><trkpt lat="43.43438491516432" lon="10.893663959819625"><ele>193.33333333333334</ele><time>2026-04-18T09:49:04.001Z</time></trkpt><trkpt lat="43.43432575983624" lon="10.893586215202859"><ele>192.5</ele><time>2026-04-18T09:49:05.001Z</time></trkpt><trkpt lat="43.43426024612703" lon="10.893510242416829"><ele>191.66666666666669</ele><time>2026-04-18T09:49:06.001Z</time></trkpt><trkpt lat="43.434185918426756" lon="10.893439268059337"><ele>190.83333333333334</ele><time>2026-04-18T09:49:07.001Z</time></trkpt><trkpt lat="43.434102183481954" lon="10.893377167111536"><ele>190.0</ele><time>2026-04-18T09:49:08.001Z</time></trkpt><trkpt lat="43.43401731186815" lon="10.89330434035854"><ele>190.0</ele><time>2026-04-18T09:49:09.001Z</time></trkpt><trkpt lat="43.43391883013929" lon="10.893260596029814"><ele>190.0</ele><time>2026-04-18T09:49:10.001Z</time></trkpt><trkpt lat="43.433822445289024" lon="10.893204344619601"><ele>190.0</ele><time>2026-04-18T09:49:11.001Z</time></trkpt><trkpt lat="43.43372873235308" lon="10.893135180429049"><ele>190.0</ele><time>2026-04-18T09:49:12.001Z</time></trkpt><trkpt lat="43.43364814824878" lon="10.893033437002538"><ele>190.0</ele><time>2026-04-18T09:49:13.001Z</time></trkpt><trkpt lat="43.4335587115645" lon="10.892940696448848"><ele>188.0</ele><time>2026-04-18T09:49:14.001Z</time></trkpt><trkpt lat="43.433476646151234" lon="10.892855599401459"><ele>186.0</ele><time>2026-04-18T09:49:15.001Z</time></trkpt><trkpt lat="43.43340240935765" lon="10.892780343611062"><ele>184.0</ele><time>2026-04-18T09:49:16.001Z</time></trkpt><trkpt lat="43.433327238409355" lon="10.89273382767153"><ele>182.0</ele><time>2026-04-18T09:49:17.001Z</time></trkpt><trkpt lat="43.43326736350475" lon="10.892689022811007"><ele>180.0</ele><time>2026-04-18T09:49:18.001Z</time></trkpt><trkpt lat="43.43319860224776" lon="10.8926632766495"><ele>178.0</ele><time>2026-04-18T09:49:19.001Z</time></trkpt><trkpt lat="43.433124912661654" lon="10.892646245258137"><ele>178.0</ele><time>2026-04-18T09:49:20.001Z</time></trkpt><trkpt lat="43.433049180601984" lon="10.892649253232648"><ele>178.0</ele><time>2026-04-18T09:49:21.001Z</time></trkpt><trkpt lat="43.43296915436794" lon="10.89266237796659"><ele>178.0</ele><time>2026-04-18T09:49:22.001Z</time></trkpt><trkpt lat="43.43289460916225" lon="10.892683210279712"><ele>178.0</ele><time>2026-04-18T09:49:23.001Z</time></trkpt><trkpt lat="43.43282576716564" lon="10.892704699567254"><ele>178.0</ele><time>2026-04-18T09:49:24.001Z</time></trkpt><trkpt lat="43.432762736499384" lon="10.892727496346913"><ele>178.0</ele><time>2026-04-18T09:49:25.001Z</time></trkpt><trkpt lat="43.43265367889541" lon="10.892762676397293"><ele>177.16666666666669</ele><time>2026-04-18T09:49:27.001Z</time></trkpt><trkpt lat="43.4325434477198" lon="10.892792971844434"><ele>176.33333333333334</ele><time>2026-04-18T09:49:29.001Z</time></trkpt><trkpt lat="43.43248015379137" lon="10.89281035373677"><ele>175.5</ele><time>2026-04-18T09:49:30.001Z</time></trkpt><trkpt lat="43.43240849030479" lon="10.892831086153972"><ele>174.66666666666666</ele><time>2026-04-18T09:49:31.001Z</time></trkpt><trkpt lat="43.43232873389051" lon="10.892852766738468"><ele>173.83333333333331</ele><time>2026-04-18T09:49:32.001Z</time></trkpt><trkpt lat="43.43224484940715" lon="10.89287488733397"><ele>173.0</ele><time>2026-04-18T09:49:33.001Z</time></trkpt><trkpt lat="43.432167597043914" lon="10.892894417636978"><ele>173.83333333333331</ele><time>2026-04-18T09:49:34.001Z</time></trkpt><trkpt lat="43.43209960035048" lon="10.892909022658989"><ele>174.66666666666666</ele><time>2026-04-18T09:49:35.001Z</time></trkpt><trkpt lat="43.43203577739069" lon="10.892924895794673"><ele>175.5</ele><time>2026-04-18T09:49:36.001Z</time></trkpt><trkpt lat="43.43196325917826" lon="10.892951156056938"><ele>176.33333333333334</ele><time>2026-04-18T09:49:37.001Z</time></trkpt><trkpt lat="43.431887063875784" lon="10.89297427804287"><ele>177.16666666666669</ele><time>2026-04-18T09:49:39.001Z</time></trkpt><trkpt lat="43.431863426143536" lon="10.893132269940123"><ele>178.0</ele><time>2026-04-18T09:49:42.001Z</time></trkpt><trkpt lat="43.43187827702837" lon="10.893217693962177"><ele>178.0</ele><time>2026-04-18T09:49:43.001Z</time></trkpt><trkpt lat="43.43187884279366" lon="10.893319607528403"><ele>178.0</ele><time>2026-04-18T09:49:44.001Z</time></trkpt><trkpt lat="43.43191220743399" lon="10.893438645316182"><ele>178.0</ele><time>2026-04-18T09:49:45.001Z</time></trkpt><trkpt lat="43.43192358226307" lon="10.893575645220094"><ele>178.0</ele><time>2026-04-18T09:49:46.001Z</time></trkpt><trkpt lat="43.43192277534622" lon="10.893710293093458"><ele>178.0</ele><time>2026-04-18T09:49:47.001Z</time></trkpt><trkpt lat="43.43190282818318" lon="10.893838959426205"><ele>178.0</ele><time>2026-04-18T09:49:48.001Z</time></trkpt><trkpt lat="43.43187837516625" lon="10.893971640081617"><ele>178.0</ele><time>2026-04-18T09:49:49.001Z</time></trkpt><trkpt lat="43.431839419079495" lon="10.894101371669192"><ele>178.0</ele><time>2026-04-18T09:49:50.001Z</time></trkpt><trkpt lat="43.43179286065605" lon="10.894227863138951"><ele>178.0</ele><time>2026-04-18T09:49:51.001Z</time></trkpt><trkpt lat="43.431750217108096" lon="10.894352201105313"><ele>178.0</ele><time>2026-04-18T09:49:52.001Z</time></trkpt><trkpt lat="43.431710144929546" lon="10.894461918196885"><ele>178.0</ele><time>2026-04-18T09:49:53.001Z</time></trkpt><trkpt lat="43.43167257006187" lon="10.894561125828618"><ele>178.0</ele><time>2026-04-18T09:49:54.001Z</time></trkpt><trkpt lat="43.431610415313564" lon="10.894630816824375"><ele>178.0</ele><time>2026-04-18T09:49:55.001Z</time></trkpt><trkpt lat="43.431551976350306" lon="10.894700689296869"><ele>178.0</ele><time>2026-04-18T09:49:56.001Z</time></trkpt><trkpt lat="43.43148493222828" lon="10.894765200608765"><ele>178.0</ele><time>2026-04-18T09:49:57.001Z</time></trkpt><trkpt lat="43.43143971233333" lon="10.894868592415088"><ele>178.0</ele><time>2026-04-18T09:49:58.001Z</time></trkpt><trkpt lat="43.43142199534058" lon="10.89497532182852"><ele>178.0</ele><time>2026-04-18T09:49:59.001Z</time></trkpt><trkpt lat="43.431440154695004" lon="10.895063048508488"><ele>178.0</ele><time>2026-04-18T09:50:00.001Z</time></trkpt><trkpt lat="43.431467804267676" lon="10.895227264560065"><ele>178.0</ele><time>2026-04-18T09:50:02.001Z</time></trkpt><trkpt lat="43.43149973481782" lon="10.89531356928371"><ele>178.0</ele><time>2026-04-18T09:50:03.001Z</time></trkpt><trkpt lat="43.431527326456774" lon="10.895400316138417"><ele>178.0</ele><time>2026-04-18T09:50:04.001Z</time></trkpt><trkpt lat="43.431557708975376" lon="10.89549763423654"><ele>178.0</ele><time>2026-04-18T09:50:05Z</time></trkpt><trkpt lat="43.43158701247831" lon="10.895605754914213"><ele>178.5</ele><time>2026-04-18T09:50:06Z</time></trkpt><trkpt lat="43.4315992759653" lon="10.895730482473565"><ele>179.0</ele><time>2026-04-18T09:50:07Z</time></trkpt><trkpt lat="43.431621442234906" lon="10.895852080899397"><ele>179.5</ele><time>2026-04-18T09:50:08Z</time></trkpt><trkpt lat="43.43164083179913" lon="10.895973997314261"><ele>180.0</ele><time>2026-04-18T09:50:09Z</time></trkpt><trkpt lat="43.43165350395341" lon="10.896088941139704"><ele>180.5</ele><time>2026-04-18T09:50:10Z</time></trkpt><trkpt lat="43.43165488207018" lon="10.896188268060024"><ele>181.0</ele><time>2026-04-18T09:50:11Z</time></trkpt><trkpt lat="43.43159690406215" lon="10.89631643133095"><ele>181.83333333333334</ele><time>2026-04-18T09:50:13Z</time></trkpt><trkpt lat="43.431524008930246" lon="10.896317251584653"><ele>182.66666666666669</ele><time>2026-04-18T09:50:14Z</time></trkpt><trkpt lat="43.43148803697187" lon="10.896230497963758"><ele>183.5</ele><time>2026-04-18T09:50:15Z</time></trkpt><trkpt lat="43.431391189531595" lon="10.896120212969839"><ele>184.33333333333334</ele><time>2026-04-18T09:50:17Z</time></trkpt><trkpt lat="43.43133878229312" lon="10.89605145159115"><ele>185.16666666666666</ele><time>2026-04-18T09:50:18Z</time></trkpt><trkpt lat="43.43127006682355" lon="10.89600275008798"><ele>186.0</ele><time>2026-04-18T09:50:19Z</time></trkpt><trkpt lat="43.431189195219645" lon="10.895984242126085"><ele>186.66666666666666</ele><time>2026-04-18T09:50:20Z</time></trkpt><trkpt lat="43.43110631720031" lon="10.895968839093326"><ele>187.33333333333334</ele><time>2026-04-18T09:50:21Z</time></trkpt><trkpt lat="43.431022713138354" lon="10.895937629229289"><ele>188.0</ele><time>2026-04-18T09:50:22Z</time></trkpt><trkpt lat="43.43093769314691" lon="10.895899917945743"><ele>188.66666666666669</ele><time>2026-04-18T09:50:23Z</time></trkpt><trkpt lat="43.43085394794937" lon="10.895853833569403"><ele>189.33333333333334</ele><time>2026-04-18T09:50:24Z</time></trkpt><trkpt lat="43.43077332873457" lon="10.895813636923497"><ele>190.0</ele><time>2026-04-18T09:50:25Z</time></trkpt><trkpt lat="43.430695107853076" lon="10.895795275035335"><ele>190.0</ele><time>2026-04-18T09:50:26Z</time></trkpt><trkpt lat="43.43063428191772" lon="10.895818681629104"><ele>190.0</ele><time>2026-04-18T09:50:27Z</time></trkpt><trkpt lat="43.430588714267934" lon="10.89596320727393"><ele>190.0</ele><time>2026-04-18T09:50:29Z</time></trkpt><trkpt lat="43.430606351605455" lon="10.896054727476965"><ele>190.0</ele><time>2026-04-18T09:50:30Z</time></trkpt><trkpt lat="43.43066445714243" lon="10.896204773310393"><ele>190.0</ele><time>2026-04-18T09:50:32Z</time></trkpt><trkpt lat="43.4307109468183" lon="10.896275941425738"><ele>190.0</ele><time>2026-04-18T09:50:33Z</time></trkpt><trkpt lat="43.43076344806817" lon="10.896355660428934"><ele>191.57142857142858</ele><time>2026-04-18T09:50:34Z</time></trkpt><trkpt lat="43.43081769862299" lon="10.8964370155622"><ele>193.14285714285717</ele><time>2026-04-18T09:50:35Z</time></trkpt><trkpt lat="43.430870011739415" lon="10.896516138362916"><ele>194.71428571428572</ele><time>2026-04-18T09:50:36Z</time></trkpt><trkpt lat="43.4309189710674" lon="10.896594399810184"><ele>196.28571428571428</ele><time>2026-04-18T09:50:37Z</time></trkpt><trkpt lat="43.43096497530512" lon="10.896670635425302"><ele>197.85714285714286</ele><time>2026-04-18T09:50:38Z</time></trkpt><trkpt lat="43.43099462349577" lon="10.896747554722774"><ele>199.42857142857142</ele><time>2026-04-18T09:50:39Z</time></trkpt><trkpt lat="43.43100624287115" lon="10.896835531433387"><ele>201.0</ele><time>2026-04-18T09:50:40Z</time></trkpt><trkpt lat="43.431008049040315" lon="10.89693605488658"><ele>202.33333333333334</ele><time>2026-04-18T09:50:41Z</time></trkpt><trkpt lat="43.431003713278066" lon="10.897034236244659"><ele>203.66666666666669</ele><time>2026-04-18T09:50:42Z</time></trkpt><trkpt lat="43.43098768349604" lon="10.897130295026447"><ele>205.0</ele><time>2026-04-18T09:50:43Z</time></trkpt><trkpt lat="43.430962583332494" lon="10.897225304610531"><ele>206.33333333333334</ele><time>2026-04-18T09:50:44Z</time></trkpt><trkpt lat="43.43092958874529" lon="10.897314183682854"><ele>207.66666666666669</ele><time>2026-04-18T09:50:45Z</time></trkpt><trkpt lat="43.43088420189237" lon="10.897375861201686"><ele>209.0</ele><time>2026-04-18T09:50:46Z</time></trkpt><trkpt lat="43.430788252121204" lon="10.897416781967106"><ele>209.0</ele><time>2026-04-18T09:50:48Z</time></trkpt><trkpt lat="43.43070817460546" lon="10.897319634089502"><ele>209.0</ele><time>2026-04-18T09:50:50Z</time></trkpt><trkpt lat="43.43064687243183" lon="10.897178182207204"><ele>209.0</ele><time>2026-04-18T09:50:52Z</time></trkpt><trkpt lat="43.430610854151396" lon="10.897101419207267"><ele>209.0</ele><time>2026-04-18T09:50:53Z</time></trkpt><trkpt lat="43.43053847238523" lon="10.897061345390675"><ele>209.0</ele><time>2026-04-18T09:50:54Z</time></trkpt><trkpt lat="43.43045987465433" lon="10.897101241855893"><ele>210.0</ele><time>2026-04-18T09:50:55Z</time></trkpt><trkpt lat="43.43039719468339" lon="10.89713036887354"><ele>211.0</ele><time>2026-04-18T09:50:56Z</time></trkpt><trkpt lat="43.43034027239528" lon="10.897189336934739"><ele>212.0</ele><time>2026-04-18T09:50:57Z</time></trkpt><trkpt lat="43.43027879793885" lon="10.897231526015117"><ele>213.0</ele><time>2026-04-18T09:50:58Z</time></trkpt><trkpt lat="43.43021504666608" lon="10.897276952675425"><ele>214.0</ele><time>2026-04-18T09:50:59Z</time></trkpt><trkpt lat="43.43014986977731" lon="10.897326591724566"><ele>215.0</ele><time>2026-04-18T09:51:00Z</time></trkpt><trkpt lat="43.4300775594494" lon="10.89737028895858"><ele>216.0</ele><time>2026-04-18T09:51:01Z</time></trkpt><trkpt lat="43.43001934620112" lon="10.89742741030955"><ele>216.0</ele><time>2026-04-18T09:51:02Z</time></trkpt><trkpt lat="43.42994641917594" lon="10.897559664683698"><ele>216.00000000000003</ele><time>2026-04-18T09:51:04.001Z</time></trkpt><trkpt lat="43.42991386461581" lon="10.897729189055418"><ele>216.00000000000003</ele><time>2026-04-18T09:51:06.001Z</time></trkpt><trkpt lat="43.429912249081895" lon="10.897821165953186"><ele>216.0</ele><time>2026-04-18T09:51:07.001Z</time></trkpt><trkpt lat="43.42991281176574" lon="10.89791749623396"><ele>216.0</ele><time>2026-04-18T09:51:08.001Z</time></trkpt><trkpt lat="43.42991354535086" lon="10.898012244390204"><ele>217.0</ele><time>2026-04-18T09:51:09.001Z</time></trkpt><trkpt lat="43.42991439793706" lon="10.898107025725187"><ele>218.0</ele><time>2026-04-18T09:51:10.001Z</time></trkpt><trkpt lat="43.42991584541948" lon="10.8982041182445"><ele>219.0</ele><time>2026-04-18T09:51:11.001Z</time></trkpt><trkpt lat="43.42992043089257" lon="10.898384646300174"><ele>220.0</ele><time>2026-04-18T09:51:13.001Z</time></trkpt><trkpt lat="43.42992742855851" lon="10.898494143991146"><ele>221.0</ele><time>2026-04-18T09:51:14.001Z</time></trkpt><trkpt lat="43.42992649947148" lon="10.898602239417768"><ele>222.0</ele><time>2026-04-18T09:51:15.001Z</time></trkpt><trkpt lat="43.429930228776435" lon="10.898712572150036"><ele>223.2</ele><time>2026-04-18T09:51:16.001Z</time></trkpt><trkpt lat="43.429933739789995" lon="10.898816446636486"><ele>224.39999999999998</ele><time>2026-04-18T09:51:17.001Z</time></trkpt><trkpt lat="43.429970053770624" lon="10.89891542484371"><ele>225.60000000000002</ele><time>2026-04-18T09:51:18.001Z</time></trkpt><trkpt lat="43.429916153499896" lon="10.899051495450767"><ele>226.8</ele><time>2026-04-18T09:51:20.001Z</time></trkpt><trkpt lat="43.429822745033555" lon="10.89908470138702"><ele>228.0</ele><time>2026-04-18T09:51:22.001Z</time></trkpt><trkpt lat="43.429742468307325" lon="10.899046075207405"><ele>229.33333333333334</ele><time>2026-04-18T09:51:24.001Z</time></trkpt><trkpt lat="43.429641459802745" lon="10.899003520753778"><ele>230.66666666666669</ele><time>2026-04-18T09:51:26.001Z</time></trkpt><trkpt lat="43.42952241143633" lon="10.898994613180255"><ele>232.0</ele><time>2026-04-18T09:51:28.001Z</time></trkpt><trkpt lat="43.429458750794105" lon="10.899011223615833"><ele>233.33333333333334</ele><time>2026-04-18T09:51:29.001Z</time></trkpt><trkpt lat="43.42939490013001" lon="10.8990306100742"><ele>234.66666666666669</ele><time>2026-04-18T09:51:30.001Z</time></trkpt><trkpt lat="43.42933160178158" lon="10.899053319045867"><ele>236.0</ele><time>2026-04-18T09:51:31.001Z</time></trkpt><trkpt lat="43.42926775963531" lon="10.899080370247455"><ele>236.0</ele><time>2026-04-18T09:51:32.001Z</time></trkpt><trkpt lat="43.4292078363047" lon="10.899107681474884"><ele>236.00000000000003</ele><time>2026-04-18T09:51:33.001Z</time></trkpt><trkpt lat="43.42909746343698" lon="10.89916996966553"><ele>236.00000000000003</ele><time>2026-04-18T09:51:35.001Z</time></trkpt><trkpt lat="43.429016064909554" lon="10.899252041819494"><ele>236.0</ele><time>2026-04-18T09:51:37.001Z</time></trkpt><trkpt lat="43.42899258509547" lon="10.899369883832529"><ele>236.0</ele><time>2026-04-18T09:51:39.001Z</time></trkpt><trkpt lat="43.4290257071351" lon="10.89952076635571"><ele>237.14285714285714</ele><time>2026-04-18T09:51:41.001Z</time></trkpt><trkpt lat="43.4290581724157" lon="10.899598299524515"><ele>238.28571428571428</ele><time>2026-04-18T09:51:42.001Z</time></trkpt><trkpt lat="43.42909483799038" lon="10.899679471226872"><ele>239.42857142857142</ele><time>2026-04-18T09:51:43.001Z</time></trkpt><trkpt lat="43.42913240478543" lon="10.899761595326886"><ele>240.57142857142856</ele><time>2026-04-18T09:51:44.001Z</time></trkpt><trkpt lat="43.42916821864363" lon="10.899838923728867"><ele>241.71428571428572</ele><time>2026-04-18T09:51:45.001Z</time></trkpt><trkpt lat="43.429199693374365" lon="10.8999164777106"><ele>242.85714285714283</ele><time>2026-04-18T09:51:46.001Z</time></trkpt><trkpt lat="43.429213929432024" lon="10.900004518323406"><ele>243.99999999999997</ele><time>2026-04-18T09:51:47.001Z</time></trkpt><trkpt lat="43.4292121492671" lon="10.900098980450611"><ele>244.71428571428567</ele><time>2026-04-18T09:51:48.001Z</time></trkpt><trkpt lat="43.42920205835037" lon="10.900187396506237"><ele>245.42857142857142</ele><time>2026-04-18T09:51:49.001Z</time></trkpt><trkpt lat="43.42917757654129" lon="10.900273882585775"><ele>246.1428571428571</ele><time>2026-04-18T09:51:50.001Z</time></trkpt><trkpt lat="43.42914281301349" lon="10.900356029453773"><ele>246.85714285714283</ele><time>2026-04-18T09:51:51.001Z</time></trkpt><trkpt lat="43.42909630392341" lon="10.90042975986303"><ele>247.57142857142856</ele><time>2026-04-18T09:51:52.001Z</time></trkpt><trkpt lat="43.42904153522639" lon="10.900489021543821"><ele>248.28571428571428</ele><time>2026-04-18T09:51:53.001Z</time></trkpt><trkpt lat="43.42897887579968" lon="10.900527051629329"><ele>249.0</ele><time>2026-04-18T09:51:54.001Z</time></trkpt><trkpt lat="43.42891160696997" lon="10.90054734735873"><ele>249.0</ele><time>2026-04-18T09:51:55.001Z</time></trkpt><trkpt lat="43.42884181764916" lon="10.90055540093321"><ele>248.99999999999997</ele><time>2026-04-18T09:51:56.001Z</time></trkpt><trkpt lat="43.42877237711634" lon="10.900567468084454"><ele>249.0</ele><time>2026-04-18T09:51:57.001Z</time></trkpt><trkpt lat="43.428711946781966" lon="10.900598515477583"><ele>249.0</ele><time>2026-04-18T09:51:58.001Z</time></trkpt><trkpt lat="43.428662812228424" lon="10.900657228519012"><ele>248.99999999999997</ele><time>2026-04-18T09:51:59.001Z</time></trkpt><trkpt lat="43.42863137503964" lon="10.900742495130157"><ele>249.0</ele><time>2026-04-18T09:52:00.001Z</time></trkpt><trkpt lat="43.42861792692702" lon="10.900841777327361"><ele>249.0</ele><time>2026-04-18T09:52:01.001Z</time></trkpt><trkpt lat="43.42862128346722" lon="10.900945157130792"><ele>250.0</ele><time>2026-04-18T09:52:02.001Z</time></trkpt><trkpt lat="43.42863055891368" lon="10.901049862868584"><ele>251.0</ele><time>2026-04-18T09:52:03.001Z</time></trkpt><trkpt lat="43.42865190117429" lon="10.901152218877"><ele>252.0</ele><time>2026-04-18T09:52:04.001Z</time></trkpt><trkpt lat="43.428680482883934" lon="10.901253776035507"><ele>253.0</ele><time>2026-04-18T09:52:05.001Z</time></trkpt><trkpt lat="43.42871826931841" lon="10.901352361408371"><ele>254.0</ele><time>2026-04-18T09:52:06.001Z</time></trkpt><trkpt lat="43.42875035193395" lon="10.901465124369377"><ele>255.0</ele><time>2026-04-18T09:52:07.001Z</time></trkpt><trkpt lat="43.42881188377961" lon="10.901557955190437"><ele>255.0</ele><time>2026-04-18T09:52:08.001Z</time></trkpt><trkpt lat="43.42888177740994" lon="10.90163742639638"><ele>255.0</ele><time>2026-04-18T09:52:09.001Z</time></trkpt><trkpt lat="43.42894845629897" lon="10.901714556671191"><ele>255.0</ele><time>2026-04-18T09:52:10.001Z</time></trkpt><trkpt lat="43.42901524111697" lon="10.901792505562716"><ele>255.0</ele><time>2026-04-18T09:52:11Z</time></trkpt><trkpt lat="43.429070037935276" lon="10.9018779482043"><ele>255.0</ele><time>2026-04-18T09:52:12Z</time></trkpt><trkpt lat="43.42912100234047" lon="10.901976996655089"><ele>255.0</ele><time>2026-04-18T09:52:13Z</time></trkpt><trkpt lat="43.42917336925307" lon="10.902062977803014"><ele>256.8571428571429</ele><time>2026-04-18T09:52:14Z</time></trkpt><trkpt lat="43.42922253762642" lon="10.902129907020031"><ele>258.7142857142857</ele><time>2026-04-18T09:52:15Z</time></trkpt><trkpt lat="43.42927374385475" lon="10.902190209512982"><ele>260.57142857142856</ele><time>2026-04-18T09:52:16Z</time></trkpt><trkpt lat="43.42932898824418" lon="10.902243223729306"><ele>262.42857142857144</ele><time>2026-04-18T09:52:17Z</time></trkpt><trkpt lat="43.42938496148873" lon="10.90229284264495"><ele>264.2857142857143</ele><time>2026-04-18T09:52:18Z</time></trkpt><trkpt lat="43.42944357138583" lon="10.902346790084353"><ele>266.14285714285717</ele><time>2026-04-18T09:52:19Z</time></trkpt><trkpt lat="43.42950497165386" lon="10.902404587761175"><ele>268.0</ele><time>2026-04-18T09:52:20Z</time></trkpt><trkpt lat="43.42956519047643" lon="10.902461273278666"><ele>268.0</ele><time>2026-04-18T09:52:21Z</time></trkpt><trkpt lat="43.42961427337248" lon="10.902516012305723"><ele>268.0</ele><time>2026-04-18T09:52:22Z</time></trkpt><trkpt lat="43.42968441732006" lon="10.902626355699402"><ele>268.0</ele><time>2026-04-18T09:52:24Z</time></trkpt><trkpt lat="43.42969364514606" lon="10.902740785309991"><ele>268.0</ele><time>2026-04-18T09:52:26Z</time></trkpt><trkpt lat="43.42961282244293" lon="10.90277352605857"><ele>268.0</ele><time>2026-04-18T09:52:28Z</time></trkpt><trkpt lat="43.429486397803856" lon="10.902818208880774"><ele>268.0</ele><time>2026-04-18T09:52:30Z</time></trkpt><trkpt lat="43.42941582825479" lon="10.90281865511331"><ele>268.0</ele><time>2026-04-18T09:52:31Z</time></trkpt><trkpt lat="43.429344542036745" lon="10.902828261393179"><ele>268.0</ele><time>2026-04-18T09:52:32Z</time></trkpt><trkpt lat="43.42926845571032" lon="10.902816926544778"><ele>268.0</ele><time>2026-04-18T09:52:33Z</time></trkpt><trkpt lat="43.42919440696386" lon="10.902763435987543"><ele>268.0</ele><time>2026-04-18T09:52:34Z</time></trkpt><trkpt lat="43.429146509476176" lon="10.902653567833271"><ele>268.0</ele><time>2026-04-18T09:52:35Z</time></trkpt><trkpt lat="43.42909363991324" lon="10.902546508686772"><ele>268.0</ele><time>2026-04-18T09:52:36Z</time></trkpt><trkpt lat="43.42904284169991" lon="10.902442944984628"><ele>268.0</ele><time>2026-04-18T09:52:37Z</time></trkpt><trkpt lat="43.42898783257596" lon="10.902353679159257"><ele>268.0</ele><time>2026-04-18T09:52:38Z</time></trkpt><trkpt lat="43.42892123335108" lon="10.902282809803951"><ele>268.0</ele><time>2026-04-18T09:52:39Z</time></trkpt><trkpt lat="43.428838949313075" lon="10.902236036078916"><ele>268.0</ele><time>2026-04-18T09:52:40Z</time></trkpt><trkpt lat="43.42874666666374" lon="10.902218571294215"><ele>268.0</ele><time>2026-04-18T09:52:41Z</time></trkpt><trkpt lat="43.42865175755285" lon="10.902220064928157"><ele>270.0</ele><time>2026-04-18T09:52:42Z</time></trkpt><trkpt lat="43.42855519365383" lon="10.902246484831384"><ele>272.0</ele><time>2026-04-18T09:52:43Z</time></trkpt><trkpt lat="43.42846338124932" lon="10.902298223568218"><ele>274.0</ele><time>2026-04-18T09:52:44Z</time></trkpt><trkpt lat="43.4283751806769" lon="10.902353043157033"><ele>276.0</ele><time>2026-04-18T09:52:45Z</time></trkpt><trkpt lat="43.4282845984204" lon="10.902374208736468"><ele>278.0</ele><time>2026-04-18T09:52:46Z</time></trkpt><trkpt lat="43.42819167121132" lon="10.90236771356377"><ele>278.0</ele><time>2026-04-18T09:52:47Z</time></trkpt><trkpt lat="43.42810898331407" lon="10.902301128200046"><ele>278.0</ele><time>2026-04-18T09:52:48Z</time></trkpt><trkpt lat="43.42801750992199" lon="10.902271820491189"><ele>278.0</ele><time>2026-04-18T09:52:49Z</time></trkpt><trkpt lat="43.42793482344298" lon="10.902208934923703"><ele>278.0</ele><time>2026-04-18T09:52:50Z</time></trkpt><trkpt lat="43.42785332488975" lon="10.902155940316183"><ele>278.0</ele><time>2026-04-18T09:52:51Z</time></trkpt><trkpt lat="43.42778468220028" lon="10.902112417183133"><ele>278.5</ele><time>2026-04-18T09:52:52Z</time></trkpt><trkpt lat="43.42772019624935" lon="10.902096473348834"><ele>279.0</ele><time>2026-04-18T09:52:53Z</time></trkpt><trkpt lat="43.42761134963914" lon="10.90214067478134"><ele>279.5</ele><time>2026-04-18T09:52:55Z</time></trkpt><trkpt lat="43.42756459724466" lon="10.902289565142103"><ele>280.0</ele><time>2026-04-18T09:52:57Z</time></trkpt><trkpt lat="43.42757896679177" lon="10.902379381763243"><ele>280.5</ele><time>2026-04-18T09:52:58Z</time></trkpt><trkpt lat="43.42762777852601" lon="10.90245250055743"><ele>281.0</ele><time>2026-04-18T09:52:59Z</time></trkpt><trkpt lat="43.42768314176297" lon="10.902534128790723"><ele>282.2</ele><time>2026-04-18T09:53:00Z</time></trkpt><trkpt lat="43.42775109052405" lon="10.902609448976484"><ele>283.40000000000003</ele><time>2026-04-18T09:53:01Z</time></trkpt><trkpt lat="43.427822225504634" lon="10.902683415076432"><ele>284.6</ele><time>2026-04-18T09:53:02Z</time></trkpt><trkpt lat="43.42789841853925" lon="10.902758133429687"><ele>285.8</ele><time>2026-04-18T09:53:03Z</time></trkpt><trkpt lat="43.42797606381864" lon="10.90283348528226"><ele>287.0</ele><time>2026-04-18T09:53:04Z</time></trkpt><trkpt lat="43.42805985437628" lon="10.90291251307265"><ele>287.0</ele><time>2026-04-18T09:53:05Z</time></trkpt><trkpt lat="43.42815532899039" lon="10.902994746254386"><ele>287.0</ele><time>2026-04-18T09:53:06Z</time></trkpt><trkpt lat="43.428250990277405" lon="10.903069703583416"><ele>287.0</ele><time>2026-04-18T09:53:07Z</time></trkpt><trkpt lat="43.428340783533095" lon="10.90314334867279"><ele>287.0</ele><time>2026-04-18T09:53:08Z</time></trkpt><trkpt lat="43.42841326244757" lon="10.903215498245878"><ele>287.0</ele><time>2026-04-18T09:53:09Z</time></trkpt><trkpt lat="43.42847730560613" lon="10.903305777294806"><ele>288.8</ele><time>2026-04-18T09:53:10Z</time></trkpt><trkpt lat="43.42852924053081" lon="10.903417457710411"><ele>290.6</ele><time>2026-04-18T09:53:11Z</time></trkpt><trkpt lat="43.42858590472485" lon="10.903538977643283"><ele>292.40000000000003</ele><time>2026-04-18T09:53:12Z</time></trkpt><trkpt lat="43.42863791146322" lon="10.903662048109021"><ele>294.2</ele><time>2026-04-18T09:53:13Z</time></trkpt><trkpt lat="43.4286858181776" lon="10.903787718121912"><ele>296.0</ele><time>2026-04-18T09:53:14Z</time></trkpt><trkpt lat="43.42873031934634" lon="10.903916755138066"><ele>296.0</ele><time>2026-04-18T09:53:15Z</time></trkpt><trkpt lat="43.42877185589698" lon="10.904049125964795"><ele>296.0</ele><time>2026-04-18T09:53:16Z</time></trkpt><trkpt lat="43.42881359936138" lon="10.904182156210979"><ele>296.0</ele><time>2026-04-18T09:53:17Z</time></trkpt><trkpt lat="43.42884949724965" lon="10.904313549315459"><ele>296.0</ele><time>2026-04-18T09:53:18Z</time></trkpt><trkpt lat="43.42887876087213" lon="10.904441061550305"><ele>296.0</ele><time>2026-04-18T09:53:19Z</time></trkpt><trkpt lat="43.42890420698363" lon="10.904567592249599"><ele>295.6666666666667</ele><time>2026-04-18T09:53:20Z</time></trkpt><trkpt lat="43.42892259021069" lon="10.904686666104881"><ele>295.33333333333337</ele><time>2026-04-18T09:53:21Z</time></trkpt><trkpt lat="43.42895259082564" lon="10.904796784613158"><ele>295.0</ele><time>2026-04-18T09:53:22Z</time></trkpt><trkpt lat="43.42899932819864" lon="10.904900460632684"><ele>294.6666666666667</ele><time>2026-04-18T09:53:23Z</time></trkpt><trkpt lat="43.42906317338347" lon="10.904992914186266"><ele>294.3333333333333</ele><time>2026-04-18T09:53:24Z</time></trkpt><trkpt lat="43.429126814030916" lon="10.90506514753405"><ele>294.0</ele><time>2026-04-18T09:53:25Z</time></trkpt><trkpt lat="43.42918710703984" lon="10.905137016732033"><ele>295.6666666666667</ele><time>2026-04-18T09:53:26Z</time></trkpt><trkpt lat="43.429244303025754" lon="10.905205194370112"><ele>297.3333333333333</ele><time>2026-04-18T09:53:27Z</time></trkpt><trkpt lat="43.42930193343661" lon="10.905277877916125"><ele>299.0</ele><time>2026-04-18T09:53:28Z</time></trkpt><trkpt lat="43.429365724359194" lon="10.90534592246092"><ele>300.66666666666663</ele><time>2026-04-18T09:53:29Z</time></trkpt><trkpt lat="43.42938895951233" lon="10.905450146724325"><ele>302.3333333333333</ele><time>2026-04-18T09:53:30Z</time></trkpt><trkpt lat="43.429417411455375" lon="10.905544130410506"><ele>304.0</ele><time>2026-04-18T09:53:31Z</time></trkpt><trkpt lat="43.42941428126109" lon="10.905645105740641"><ele>304.0</ele><time>2026-04-18T09:53:32.001Z</time></trkpt><trkpt lat="43.42939257692619" lon="10.90573951139481"><ele>304.0</ele><time>2026-04-18T09:53:33.001Z</time></trkpt><trkpt lat="43.42934125908465" lon="10.905819669212963"><ele>304.0</ele><time>2026-04-18T09:53:34.001Z</time></trkpt><trkpt lat="43.42927753205515" lon="10.905872835799327"><ele>304.0</ele><time>2026-04-18T09:53:35.001Z</time></trkpt><trkpt lat="43.42920318828102" lon="10.905879438214205"><ele>304.0</ele><time>2026-04-18T09:53:36.001Z</time></trkpt><trkpt lat="43.429127085966904" lon="10.905841195300013"><ele>304.0</ele><time>2026-04-18T09:53:37.001Z</time></trkpt><trkpt lat="43.42906107824418" lon="10.905791298074837"><ele>304.0</ele><time>2026-04-18T09:53:38.001Z</time></trkpt><trkpt lat="43.428985168366395" lon="10.905743370181337"><ele>304.0</ele><time>2026-04-18T09:53:39.001Z</time></trkpt><trkpt lat="43.42890188258015" lon="10.90568893494311"><ele>304.0</ele><time>2026-04-18T09:53:40.001Z</time></trkpt><trkpt lat="43.428812765296016" lon="10.905632794525813"><ele>304.0</ele><time>2026-04-18T09:53:41.001Z</time></trkpt><trkpt lat="43.42871686854785" lon="10.905580042011744"><ele>304.0</ele><time>2026-04-18T09:53:42.001Z</time></trkpt><trkpt lat="43.428620118495395" lon="10.905521343038085"><ele>306.59999999999997</ele><time>2026-04-18T09:53:43.001Z</time></trkpt><trkpt lat="43.428518774594245" lon="10.905459234888273"><ele>309.2</ele><time>2026-04-18T09:53:44.001Z</time></trkpt><trkpt lat="43.42841791896241" lon="10.905398948113158"><ele>311.79999999999995</ele><time>2026-04-18T09:53:45.001Z</time></trkpt><trkpt lat="43.428321123112205" lon="10.905332104820214"><ele>314.4</ele><time>2026-04-18T09:53:46.001Z</time></trkpt><trkpt lat="43.428226889219985" lon="10.905280550981225"><ele>317.0</ele><time>2026-04-18T09:53:47.001Z</time></trkpt><trkpt lat="43.428128362621365" lon="10.905230245927934"><ele>317.0</ele><time>2026-04-18T09:53:48.001Z</time></trkpt><trkpt lat="43.428032822539855" lon="10.905185214821012"><ele>317.0</ele><time>2026-04-18T09:53:49.001Z</time></trkpt><trkpt lat="43.427942498581345" lon="10.90512324592548"><ele>317.0</ele><time>2026-04-18T09:53:50.001Z</time></trkpt><trkpt lat="43.4278659099198" lon="10.905052753613827"><ele>317.0</ele><time>2026-04-18T09:53:51.001Z</time></trkpt><trkpt lat="43.42779103267571" lon="10.904994631379132"><ele>317.0</ele><time>2026-04-18T09:53:52.001Z</time></trkpt><trkpt lat="43.42770787199267" lon="10.904944011023925"><ele>317.1666666666667</ele><time>2026-04-18T09:53:53.001Z</time></trkpt><trkpt lat="43.427621901469045" lon="10.904898997956552"><ele>317.33333333333337</ele><time>2026-04-18T09:53:54.001Z</time></trkpt><trkpt lat="43.427546041884376" lon="10.904854673819015"><ele>317.5</ele><time>2026-04-18T09:53:55.001Z</time></trkpt><trkpt lat="43.427472462336155" lon="10.90480857801497"><ele>317.6666666666667</ele><time>2026-04-18T09:53:56.001Z</time></trkpt><trkpt lat="43.427398074462545" lon="10.904777901671032"><ele>317.8333333333333</ele><time>2026-04-18T09:53:57.001Z</time></trkpt><trkpt lat="43.427325103612" lon="10.904767137281185"><ele>318.0</ele><time>2026-04-18T09:53:58.001Z</time></trkpt><trkpt lat="43.42725737114787" lon="10.904787859935585"><ele>318.0</ele><time>2026-04-18T09:53:59.001Z</time></trkpt><trkpt lat="43.42720174770136" lon="10.904842999313125"><ele>318.0</ele><time>2026-04-18T09:54:00.001Z</time></trkpt><trkpt lat="43.42715850529145" lon="10.904924476913974"><ele>318.0</ele><time>2026-04-18T09:54:01.001Z</time></trkpt><trkpt lat="43.42713372376478" lon="10.90501909090799"><ele>318.0</ele><time>2026-04-18T09:54:02.001Z</time></trkpt><trkpt lat="43.42710474964212" lon="10.905103479169911"><ele>318.0</ele><time>2026-04-18T09:54:03.001Z</time></trkpt><trkpt lat="43.42706877922919" lon="10.905185329523507"><ele>318.0</ele><time>2026-04-18T09:54:04.001Z</time></trkpt><trkpt lat="43.42703374077297" lon="10.905261963732356"><ele>318.0</ele><time>2026-04-18T09:54:05.001Z</time></trkpt><trkpt lat="43.42699689087955" lon="10.905335610624658"><ele>320.1666666666667</ele><time>2026-04-18T09:54:06.001Z</time></trkpt><trkpt lat="43.426946267073696" lon="10.90539348693933"><ele>322.3333333333333</ele><time>2026-04-18T09:54:07.001Z</time></trkpt><trkpt lat="43.42688764392487" lon="10.905436984976488"><ele>324.5</ele><time>2026-04-18T09:54:08.001Z</time></trkpt><trkpt lat="43.42682269856115" lon="10.905468393673168"><ele>326.66666666666663</ele><time>2026-04-18T09:54:09.001Z</time></trkpt><trkpt lat="43.42675725510712" lon="10.905487522508773"><ele>328.8333333333333</ele><time>2026-04-18T09:54:10.001Z</time></trkpt><trkpt lat="43.42663845935881" lon="10.905523373197646"><ele>331.0</ele><time>2026-04-18T09:54:12.001Z</time></trkpt><trkpt lat="43.42658410199095" lon="10.905646165075472"><ele>331.0</ele><time>2026-04-18T09:54:14.001Z</time></trkpt><trkpt lat="43.426640388355416" lon="10.905771153311735"><ele>331.0</ele><time>2026-04-18T09:54:16.001Z</time></trkpt><trkpt lat="43.42674400854178" lon="10.905856929581347"><ele>331.0</ele><time>2026-04-18T09:54:17.999Z</time></trkpt><trkpt lat="43.4268440983579" lon="10.905924873693529"><ele>331.0</ele><time>2026-04-18T09:54:19.999Z</time></trkpt><trkpt lat="43.42694555753831" lon="10.90599374747538"><ele>332.8333333333333</ele><time>2026-04-18T09:54:21.999Z</time></trkpt><trkpt lat="43.42704877307379" lon="10.90607243369379"><ele>334.66666666666663</ele><time>2026-04-18T09:54:23.999Z</time></trkpt><trkpt lat="43.42710371927967" lon="10.906124335086574"><ele>336.5</ele><time>2026-04-18T09:54:24.999Z</time></trkpt><trkpt lat="43.427161807116725" lon="10.906184353287925"><ele>338.3333333333333</ele><time>2026-04-18T09:54:25.999Z</time></trkpt><trkpt lat="43.42722413487349" lon="10.906248594128458"><ele>340.1666666666667</ele><time>2026-04-18T09:54:26.999Z</time></trkpt><trkpt lat="43.4272878012328" lon="10.906303253738336"><ele>342.0</ele><time>2026-04-18T09:54:27.999Z</time></trkpt><trkpt lat="43.427347555395784" lon="10.906354280587008"><ele>341.99999999999994</ele><time>2026-04-18T09:54:28.999Z</time></trkpt><trkpt lat="43.427404290510594" lon="10.906411565458574"><ele>342.0</ele><time>2026-04-18T09:54:29.999Z</time></trkpt><trkpt lat="43.42745774135244" lon="10.906476017709927"><ele>342.0</ele><time>2026-04-18T09:54:30.999Z</time></trkpt><trkpt lat="43.42750423436737" lon="10.906552008210001"><ele>342.0</ele><time>2026-04-18T09:54:31.999Z</time></trkpt><trkpt lat="43.427544494839466" lon="10.906637028485996"><ele>342.0</ele><time>2026-04-18T09:54:32.999Z</time></trkpt><trkpt lat="43.42758008807436" lon="10.906728939913531"><ele>341.99999999999994</ele><time>2026-04-18T09:54:33.999Z</time></trkpt><trkpt lat="43.427630012381435" lon="10.90681664618999"><ele>342.0</ele><time>2026-04-18T09:54:34.999Z</time></trkpt><trkpt lat="43.42765698254765" lon="10.906909997714028"><ele>343.4285714285714</ele><time>2026-04-18T09:54:35.999Z</time></trkpt><trkpt lat="43.42768752847185" lon="10.906996741437668"><ele>344.85714285714283</ele><time>2026-04-18T09:54:36.999Z</time></trkpt><trkpt lat="43.42771491212279" lon="10.907082448647936"><ele>346.2857142857143</ele><time>2026-04-18T09:54:37.999Z</time></trkpt><trkpt lat="43.427726768959474" lon="10.907179620322804"><ele>347.71428571428567</ele><time>2026-04-18T09:54:38.999Z</time></trkpt><trkpt lat="43.4277501330593" lon="10.907267641043662"><ele>349.1428571428571</ele><time>2026-04-18T09:54:40Z</time></trkpt><trkpt lat="43.427769896050606" lon="10.907356659496307"><ele>350.57142857142856</ele><time>2026-04-18T09:54:41Z</time></trkpt><trkpt lat="43.42779704545505" lon="10.90744341175223"><ele>352.0</ele><time>2026-04-18T09:54:42Z</time></trkpt><trkpt lat="43.42779982768171" lon="10.907537001329803"><ele>352.57142857142856</ele><time>2026-04-18T09:54:43Z</time></trkpt><trkpt lat="43.427793619259766" lon="10.907623409315647"><ele>353.1428571428571</ele><time>2026-04-18T09:54:44Z</time></trkpt><trkpt lat="43.42777772107938" lon="10.907708022277742"><ele>353.71428571428567</ele><time>2026-04-18T09:54:45Z</time></trkpt><trkpt lat="43.427754715629064" lon="10.907788818604159"><ele>354.2857142857143</ele><time>2026-04-18T09:54:46Z</time></trkpt><trkpt lat="43.42772235005858" lon="10.907864422698504"><ele>354.85714285714283</ele><time>2026-04-18T09:54:47Z</time></trkpt><trkpt lat="43.42768724178974" lon="10.907944998573265"><ele>355.4285714285714</ele><time>2026-04-18T09:54:48Z</time></trkpt><trkpt lat="43.4276563597736" lon="10.908021809372961"><ele>356.0</ele><time>2026-04-18T09:54:49Z</time></trkpt><trkpt lat="43.427625361936265" lon="10.908101621014424"><ele>356.0</ele><time>2026-04-18T09:54:50Z</time></trkpt><trkpt lat="43.427594650071576" lon="10.908181961615583"><ele>356.0</ele><time>2026-04-18T09:54:51Z</time></trkpt><trkpt lat="43.42756418697661" lon="10.908264189984171"><ele>356.0</ele><time>2026-04-18T09:54:52Z</time></trkpt><trkpt lat="43.42751155670935" lon="10.90840639034483"><ele>356.0</ele><time>2026-04-18T09:54:54Z</time></trkpt><trkpt lat="43.42745441413421" lon="10.908518487487175"><ele>356.0</ele><time>2026-04-18T09:54:56Z</time></trkpt><trkpt lat="43.42736026942753" lon="10.908562484339145"><ele>356.0</ele><time>2026-04-18T09:54:58Z</time></trkpt><trkpt lat="43.42725221758367" lon="10.908619617997145"><ele>356.6666666666667</ele><time>2026-04-18T09:55:00Z</time></trkpt><trkpt lat="43.42719590839251" lon="10.908678440379841"><ele>357.33333333333337</ele><time>2026-04-18T09:55:01Z</time></trkpt><trkpt lat="43.42713967498811" lon="10.908736705694917"><ele>358.0</ele><time>2026-04-18T09:55:02Z</time></trkpt><trkpt lat="43.42711603539584" lon="10.908896711361988"><ele>358.6666666666667</ele><time>2026-04-18T09:55:04Z</time></trkpt><trkpt lat="43.42714437349695" lon="10.908983883369368"><ele>359.3333333333333</ele><time>2026-04-18T09:55:05Z</time></trkpt><trkpt lat="43.427207114709645" lon="10.909079278233962"><ele>360.0</ele><time>2026-04-18T09:55:06Z</time></trkpt><trkpt lat="43.4272816658544" lon="10.909151630398512"><ele>360.0</ele><time>2026-04-18T09:55:07Z</time></trkpt><trkpt lat="43.427363398595105" lon="10.909217314764518"><ele>360.0</ele><time>2026-04-18T09:55:08Z</time></trkpt><trkpt lat="43.42744042937343" lon="10.909275576629348"><ele>360.0</ele><time>2026-04-18T09:55:09Z</time></trkpt><trkpt lat="43.42751527750825" lon="10.909329288253742"><ele>360.0</ele><time>2026-04-18T09:55:10Z</time></trkpt><trkpt lat="43.42758292022302" lon="10.909377682592119"><ele>360.0</ele><time>2026-04-18T09:55:11Z</time></trkpt><trkpt lat="43.427640698731295" lon="10.90942439260164"><ele>360.0</ele><time>2026-04-18T09:55:12Z</time></trkpt><trkpt lat="43.427699437993724" lon="10.9094851245217"><ele>361.8</ele><time>2026-04-18T09:55:13Z</time></trkpt><trkpt lat="43.42776551758326" lon="10.90961757779758"><ele>363.6</ele><time>2026-04-18T09:55:15Z</time></trkpt><trkpt lat="43.42776806203564" lon="10.90977601159798"><ele>365.4</ele><time>2026-04-18T09:55:17Z</time></trkpt><trkpt lat="43.4277472169277" lon="10.90994286031897"><ele>367.2</ele><time>2026-04-18T09:55:19Z</time></trkpt><trkpt lat="43.427740923740515" lon="10.91004612982742"><ele>369.0</ele><time>2026-04-18T09:55:20Z</time></trkpt><trkpt lat="43.42771954082399" lon="10.91014432003988"><ele>370.1666666666667</ele><time>2026-04-18T09:55:21Z</time></trkpt><trkpt lat="43.42772472112786" lon="10.91024529252905"><ele>371.3333333333333</ele><time>2026-04-18T09:55:22Z</time></trkpt><trkpt lat="43.427758283039" lon="10.910343432607"><ele>372.5</ele><time>2026-04-18T09:55:23Z</time></trkpt><trkpt lat="43.427781164358166" lon="10.910443583846673"><ele>373.66666666666663</ele><time>2026-04-18T09:55:24Z</time></trkpt><trkpt lat="43.42781684773384" lon="10.910541099441483"><ele>374.8333333333333</ele><time>2026-04-18T09:55:25Z</time></trkpt><trkpt lat="43.42785531954159" lon="10.910633044462642"><ele>376.0</ele><time>2026-04-18T09:55:26Z</time></trkpt><trkpt lat="43.42788795067336" lon="10.910721851879407"><ele>376.0</ele><time>2026-04-18T09:55:27Z</time></trkpt><trkpt lat="43.4279029938495" lon="10.91081530578359"><ele>376.0</ele><time>2026-04-18T09:55:28Z</time></trkpt><trkpt lat="43.42790464946975" lon="10.910915029163933"><ele>376.0</ele><time>2026-04-18T09:55:29Z</time></trkpt><trkpt lat="43.42789991695276" lon="10.91101972142004"><ele>376.0</ele><time>2026-04-18T09:55:30Z</time></trkpt><trkpt lat="43.427893884759946" lon="10.911133357398429"><ele>376.0</ele><time>2026-04-18T09:55:31Z</time></trkpt><trkpt lat="43.42788913289002" lon="10.911248997861357"><ele>376.0</ele><time>2026-04-18T09:55:32Z</time></trkpt><trkpt lat="43.4278857743204" lon="10.911357439899968"><ele>377.3333333333333</ele><time>2026-04-18T09:55:33Z</time></trkpt><trkpt lat="43.42788237526943" lon="10.91146283953191"><ele>378.66666666666663</ele><time>2026-04-18T09:55:34Z</time></trkpt><trkpt lat="43.42787810146051" lon="10.911565086493775"><ele>380.0</ele><time>2026-04-18T09:55:35Z</time></trkpt><trkpt lat="43.42787240788486" lon="10.911667301936442"><ele>381.3333333333333</ele><time>2026-04-18T09:55:36Z</time></trkpt><trkpt lat="43.42786633072014" lon="10.911770658237666"><ele>382.6666666666667</ele><time>2026-04-18T09:55:37Z</time></trkpt><trkpt lat="43.42785855935707" lon="10.911877858488406"><ele>384.0</ele><time>2026-04-18T09:55:38Z</time></trkpt><trkpt lat="43.42785070325169" lon="10.911986227871568"><ele>384.6666666666667</ele><time>2026-04-18T09:55:39Z</time></trkpt><trkpt lat="43.42784079625967" lon="10.912094300618747"><ele>385.33333333333337</ele><time>2026-04-18T09:55:40Z</time></trkpt><trkpt lat="43.427841104474616" lon="10.912201442739116"><ele>386.0</ele><time>2026-04-18T09:55:41Z</time></trkpt><trkpt lat="43.42780582051877" lon="10.912289740364372"><ele>386.6666666666667</ele><time>2026-04-18T09:55:42Z</time></trkpt><trkpt lat="43.42777756023622" lon="10.91237940761979"><ele>387.33333333333337</ele><time>2026-04-18T09:55:43Z</time></trkpt><trkpt lat="43.42774434707149" lon="10.912479087941866"><ele>388.0</ele><time>2026-04-18T09:55:44Z</time></trkpt><trkpt lat="43.42770919793809" lon="10.912577119747585"><ele>388.00000000000006</ele><time>2026-04-18T09:55:45Z</time></trkpt><trkpt lat="43.42768288803982" lon="10.91268506363998"><ele>388.0</ele><time>2026-04-18T09:55:46Z</time></trkpt><trkpt lat="43.427634077676444" lon="10.912777009703296"><ele>388.0</ele><time>2026-04-18T09:55:47Z</time></trkpt><trkpt lat="43.42758318466602" lon="10.912870799796423"><ele>388.0</ele><time>2026-04-18T09:55:48Z</time></trkpt><trkpt lat="43.42753207140383" lon="10.912962779818221"><ele>388.00000000000006</ele><time>2026-04-18T09:55:49Z</time></trkpt><trkpt lat="43.42748196710222" lon="10.913056384304873"><ele>388.0</ele><time>2026-04-18T09:55:50Z</time></trkpt><trkpt lat="43.4274415105431" lon="10.913159702385265"><ele>388.00000000000006</ele><time>2026-04-18T09:55:51Z</time></trkpt><trkpt lat="43.42737955929077" lon="10.913241914273991"><ele>388.0</ele><time>2026-04-18T09:55:52Z</time></trkpt><trkpt lat="43.42734776150945" lon="10.913353427684042"><ele>388.0</ele><time>2026-04-18T09:55:53Z</time></trkpt><trkpt lat="43.42733169713025" lon="10.913454960096534"><ele>388.0</ele><time>2026-04-18T09:55:54Z</time></trkpt><trkpt lat="43.42732283579481" lon="10.91355164909307"><ele>388.00000000000006</ele><time>2026-04-18T09:55:55.001Z</time></trkpt><trkpt lat="43.4273306951814" lon="10.913651117540072"><ele>388.0</ele><time>2026-04-18T09:55:56.001Z</time></trkpt><trkpt lat="43.427352307186105" lon="10.91374993662129"><ele>387.83333333333337</ele><time>2026-04-18T09:55:57.001Z</time></trkpt><trkpt lat="43.427400963662706" lon="10.913832750493489"><ele>387.6666666666667</ele><time>2026-04-18T09:55:58.001Z</time></trkpt><trkpt lat="43.42743662586757" lon="10.913917208770803"><ele>387.5</ele><time>2026-04-18T09:55:59.001Z</time></trkpt><trkpt lat="43.42748285351737" lon="10.913995991184853"><ele>387.33333333333337</ele><time>2026-04-18T09:56:00.001Z</time></trkpt><trkpt lat="43.42753419381765" lon="10.914076330241054"><ele>387.1666666666667</ele><time>2026-04-18T09:56:01.001Z</time></trkpt><trkpt lat="43.4275857093675" lon="10.91416099906212"><ele>387.0</ele><time>2026-04-18T09:56:02.001Z</time></trkpt><trkpt lat="43.4276412121572" lon="10.914249785018775"><ele>386.20000000000005</ele><time>2026-04-18T09:56:03.001Z</time></trkpt><trkpt lat="43.4277000156432" lon="10.914341973922282"><ele>385.4</ele><time>2026-04-18T09:56:04.001Z</time></trkpt><trkpt lat="43.427757764251204" lon="10.914439346344839"><ele>384.6</ele><time>2026-04-18T09:56:05.001Z</time></trkpt><trkpt lat="43.42780580522175" lon="10.914554379311296"><ele>383.79999999999995</ele><time>2026-04-18T09:56:06.001Z</time></trkpt><trkpt lat="43.427869441940274" lon="10.914660976709923"><ele>383.0</ele><time>2026-04-18T09:56:07.001Z</time></trkpt><trkpt lat="43.42793476691064" lon="10.91476805425971"><ele>384.59999999999997</ele><time>2026-04-18T09:56:08.001Z</time></trkpt><trkpt lat="43.42800104811081" lon="10.914876699319002"><ele>386.2</ele><time>2026-04-18T09:56:09.001Z</time></trkpt><trkpt lat="43.42806763098651" lon="10.914986295793287"><ele>387.8</ele><time>2026-04-18T09:56:10.001Z</time></trkpt><trkpt lat="43.42813370084826" lon="10.915098281902983"><ele>389.4</ele><time>2026-04-18T09:56:11.001Z</time></trkpt><trkpt lat="43.42820215779054" lon="10.91520876400836"><ele>391.0</ele><time>2026-04-18T09:56:12.001Z</time></trkpt><trkpt lat="43.428275560250896" lon="10.915309963021558"><ele>391.20000000000005</ele><time>2026-04-18T09:56:13.001Z</time></trkpt><trkpt lat="43.42837375283778" lon="10.915391240092875"><ele>391.40000000000003</ele><time>2026-04-18T09:56:14.001Z</time></trkpt><trkpt lat="43.428487985516725" lon="10.915430019766644"><ele>391.6</ele><time>2026-04-18T09:56:15.001Z</time></trkpt><trkpt lat="43.42859698891168" lon="10.915454604401242"><ele>391.8</ele><time>2026-04-18T09:56:16.001Z</time></trkpt><trkpt lat="43.42869575990541" lon="10.915472514413931"><ele>392.0</ele><time>2026-04-18T09:56:17.001Z</time></trkpt><trkpt lat="43.42877697443237" lon="10.91552288297754"><ele>394.8333333333333</ele><time>2026-04-18T09:56:18.001Z</time></trkpt><trkpt lat="43.42884197173151" lon="10.915590250400644"><ele>397.66666666666663</ele><time>2026-04-18T09:56:19.001Z</time></trkpt><trkpt lat="43.42889153952753" lon="10.915676523662608"><ele>400.5</ele><time>2026-04-18T09:56:20.001Z</time></trkpt><trkpt lat="43.42892344344161" lon="10.915785900365044"><ele>403.33333333333337</ele><time>2026-04-18T09:56:21.001Z</time></trkpt><trkpt lat="43.42893418168697" lon="10.915901636510235"><ele>406.1666666666667</ele><time>2026-04-18T09:56:22.001Z</time></trkpt><trkpt lat="43.428931846714676" lon="10.916025769275059"><ele>409.0</ele><time>2026-04-18T09:56:22.999Z</time></trkpt><trkpt lat="43.42893527836539" lon="10.91615230645987"><ele>410.0</ele><time>2026-04-18T09:56:23.999Z</time></trkpt><trkpt lat="43.42893187729067" lon="10.916277850873083"><ele>411.0</ele><time>2026-04-18T09:56:24.999Z</time></trkpt><trkpt lat="43.42894650579568" lon="10.916407261165622"><ele>412.0</ele><time>2026-04-18T09:56:25.999Z</time></trkpt><trkpt lat="43.42897714263078" lon="10.916544062727755"><ele>413.0</ele><time>2026-04-18T09:56:26.999Z</time></trkpt><trkpt lat="43.429002933115505" lon="10.916682798091806"><ele>414.0</ele><time>2026-04-18T09:56:27.999Z</time></trkpt><trkpt lat="43.42902536595978" lon="10.916824946040801"><ele>414.4</ele><time>2026-04-18T09:56:28.999Z</time></trkpt><trkpt lat="43.42905048185697" lon="10.916967718811085"><ele>414.79999999999995</ele><time>2026-04-18T09:56:29.999Z</time></trkpt><trkpt lat="43.429073829875875" lon="10.91710809990195"><ele>415.20000000000005</ele><time>2026-04-18T09:56:30.999Z</time></trkpt><trkpt lat="43.42908213533506" lon="10.917248866813164"><ele>415.6</ele><time>2026-04-18T09:56:31.999Z</time></trkpt><trkpt lat="43.42912436757616" lon="10.917370356301262"><ele>416.0</ele><time>2026-04-18T09:56:32.999Z</time></trkpt><trkpt lat="43.42914256569362" lon="10.917498923320919"><ele>416.0</ele><time>2026-04-18T09:56:33.999Z</time></trkpt><trkpt lat="43.42918657003344" lon="10.917608850805705"><ele>416.0</ele><time>2026-04-18T09:56:34.999Z</time></trkpt><trkpt lat="43.429213995856735" lon="10.917727719186841"><ele>416.0</ele><time>2026-04-18T09:56:35.999Z</time></trkpt><trkpt lat="43.429241291696314" lon="10.917844961719082"><ele>416.0</ele><time>2026-04-18T09:56:36.999Z</time></trkpt><trkpt lat="43.42926070445984" lon="10.917968255852935"><ele>416.0</ele><time>2026-04-18T09:56:37.999Z</time></trkpt><trkpt lat="43.42927348474093" lon="10.918095638862773"><ele>416.0</ele><time>2026-04-18T09:56:38.999Z</time></trkpt><trkpt lat="43.42928148873441" lon="10.918227179964346"><ele>416.0</ele><time>2026-04-18T09:56:39.999Z</time></trkpt><trkpt lat="43.42928982491027" lon="10.918361252022672"><ele>416.0</ele><time>2026-04-18T09:56:40.999Z</time></trkpt><trkpt lat="43.42929099562142" lon="10.918497260117313"><ele>416.0</ele><time>2026-04-18T09:56:41.999Z</time></trkpt><trkpt lat="43.42928780718066" lon="10.918637332999905"><ele>416.0</ele><time>2026-04-18T09:56:42.999Z</time></trkpt><trkpt lat="43.429275200782484" lon="10.918781995368949"><ele>417.0</ele><time>2026-04-18T09:56:43.999Z</time></trkpt><trkpt lat="43.42924891567763" lon="10.91892846269334"><ele>418.0</ele><time>2026-04-18T09:56:44.999Z</time></trkpt><trkpt lat="43.42921321742895" lon="10.919073911509331"><ele>419.0</ele><time>2026-04-18T09:56:45.999Z</time></trkpt><trkpt lat="43.4291707488657" lon="10.919218785397081"><ele>420.0</ele><time>2026-04-18T09:56:46.999Z</time></trkpt><trkpt lat="43.429119551945554" lon="10.919358933475074"><ele>421.0</ele><time>2026-04-18T09:56:47.999Z</time></trkpt><trkpt lat="43.42905985902069" lon="10.919493022256257"><ele>422.0</ele><time>2026-04-18T09:56:48.999Z</time></trkpt><trkpt lat="43.42900427889927" lon="10.919625904432973"><ele>423.0</ele><time>2026-04-18T09:56:49.999Z</time></trkpt><trkpt lat="43.42895711897302" lon="10.919742490531386"><ele>424.0</ele><time>2026-04-18T09:56:50.999Z</time></trkpt><trkpt lat="43.42891783673052" lon="10.919854725407275"><ele>425.0</ele><time>2026-04-18T09:56:51.999Z</time></trkpt><trkpt lat="43.42888225047725" lon="10.919972535697143"><ele>426.0</ele><time>2026-04-18T09:56:53Z</time></trkpt><trkpt lat="43.42885956334094" lon="10.920089678228482"><ele>426.0</ele><time>2026-04-18T09:56:54Z</time></trkpt><trkpt lat="43.42886269139908" lon="10.920208860439722"><ele>426.0</ele><time>2026-04-18T09:56:55Z</time></trkpt><trkpt lat="43.42887901292936" lon="10.92033321756299"><ele>426.0</ele><time>2026-04-18T09:56:56Z</time></trkpt><trkpt lat="43.42890881022958" lon="10.920462341179688"><ele>426.0</ele><time>2026-04-18T09:56:57Z</time></trkpt><trkpt lat="43.428943542184996" lon="10.9205952006317"><ele>426.0</ele><time>2026-04-18T09:56:58Z</time></trkpt><trkpt lat="43.42897129468308" lon="10.920725560608048"><ele>426.0</ele><time>2026-04-18T09:56:59Z</time></trkpt><trkpt lat="43.428994139464756" lon="10.920850466615661"><ele>426.0</ele><time>2026-04-18T09:57:00Z</time></trkpt><trkpt lat="43.42901088623533" lon="10.920966080155155"><ele>426.0</ele><time>2026-04-18T09:57:01Z</time></trkpt><trkpt lat="43.42901443557606" lon="10.921077260194014"><ele>426.0</ele><time>2026-04-18T09:57:02Z</time></trkpt><trkpt lat="43.42900248760091" lon="10.921191794405111"><ele>426.0</ele><time>2026-04-18T09:57:03Z</time></trkpt><trkpt lat="43.42897370611005" lon="10.92131132105116"><ele>426.0</ele><time>2026-04-18T09:57:04Z</time></trkpt><trkpt lat="43.428920858630505" lon="10.921427982090476"><ele>425.0</ele><time>2026-04-18T09:57:05Z</time></trkpt><trkpt lat="43.42884475807529" lon="10.921534600691247"><ele>424.0</ele><time>2026-04-18T09:57:06Z</time></trkpt><trkpt lat="43.428757171879575" lon="10.921623990857146"><ele>423.0</ele><time>2026-04-18T09:57:07Z</time></trkpt><trkpt lat="43.428653735377736" lon="10.921707051777393"><ele>422.0</ele><time>2026-04-18T09:57:08Z</time></trkpt><trkpt lat="43.42855229774147" lon="10.921800190289794"><ele>422.0</ele><time>2026-04-18T09:57:09Z</time></trkpt><trkpt lat="43.428453485610525" lon="10.921908883806326"><ele>422.0</ele><time>2026-04-18T09:57:10Z</time></trkpt><trkpt lat="43.42836537891732" lon="10.922038200131464"><ele>422.0</ele><time>2026-04-18T09:57:11Z</time></trkpt><trkpt lat="43.42828642119766" lon="10.922181105577778"><ele>422.0</ele><time>2026-04-18T09:57:12Z</time></trkpt><trkpt lat="43.4282256184966" lon="10.922342291033427"><ele>422.0</ele><time>2026-04-18T09:57:13Z</time></trkpt><trkpt lat="43.42817986678654" lon="10.922509253548093"><ele>422.0</ele><time>2026-04-18T09:57:14Z</time></trkpt><trkpt lat="43.42813151150953" lon="10.922663221750295"><ele>422.0</ele><time>2026-04-18T09:57:15Z</time></trkpt><trkpt lat="43.42809341069743" lon="10.922813215416737"><ele>422.0</ele><time>2026-04-18T09:57:16Z</time></trkpt><trkpt lat="43.428056855168464" lon="10.922956355052744"><ele>422.20000000000005</ele><time>2026-04-18T09:57:17Z</time></trkpt><trkpt lat="43.428031285077935" lon="10.923095351165339"><ele>422.4</ele><time>2026-04-18T09:57:18Z</time></trkpt><trkpt lat="43.4279949231349" lon="10.923227549144087"><ele>422.6</ele><time>2026-04-18T09:57:19Z</time></trkpt><trkpt lat="43.42796256821675" lon="10.923361655305843"><ele>422.79999999999995</ele><time>2026-04-18T09:57:20Z</time></trkpt><trkpt lat="43.42792912387166" lon="10.923495871278295"><ele>423.0</ele><time>2026-04-18T09:57:21Z</time></trkpt><trkpt lat="43.42789598599526" lon="10.923630862959154"><ele>429.4</ele><time>2026-04-18T09:57:22Z</time></trkpt><trkpt lat="43.42786806082381" lon="10.923767626772154"><ele>435.79999999999995</ele><time>2026-04-18T09:57:23Z</time></trkpt><trkpt lat="43.427849855412504" lon="10.92390894747509"><ele>442.2</ele><time>2026-04-18T09:57:24Z</time></trkpt><trkpt lat="43.427840917577434" lon="10.924046015895303"><ele>448.6</ele><time>2026-04-18T09:57:25Z</time></trkpt><trkpt lat="43.427835579462574" lon="10.924189377929784"><ele>455.0</ele><time>2026-04-18T09:57:26Z</time></trkpt><trkpt lat="43.42783334770771" lon="10.924337290986303"><ele>456.0</ele><time>2026-04-18T09:57:27Z</time></trkpt><trkpt lat="43.4278326665875" lon="10.924485501090382"><ele>457.0</ele><time>2026-04-18T09:57:28Z</time></trkpt><trkpt lat="43.42783519623907" lon="10.92463098197283"><ele>458.0</ele><time>2026-04-18T09:57:29Z</time></trkpt><trkpt lat="43.42783448023613" lon="10.924774563021918"><ele>459.0</ele><time>2026-04-18T09:57:30Z</time></trkpt><trkpt lat="43.42783790378178" lon="10.924917563274485"><ele>460.0</ele><time>2026-04-18T09:57:31Z</time></trkpt><trkpt lat="43.427841980051944" lon="10.925056684503808"><ele>459.6666666666667</ele><time>2026-04-18T09:57:32Z</time></trkpt><trkpt lat="43.4278451780212" lon="10.925189347823059"><ele>459.33333333333337</ele><time>2026-04-18T09:57:33Z</time></trkpt><trkpt lat="43.427848578516276" lon="10.925315169746359"><ele>459.0</ele><time>2026-04-18T09:57:34Z</time></trkpt><trkpt lat="43.427851980135074" lon="10.925433083892031"><ele>458.66666666666663</ele><time>2026-04-18T09:57:35Z</time></trkpt><trkpt lat="43.42785252478426" lon="10.925547496054051"><ele>458.3333333333333</ele><time>2026-04-18T09:57:36Z</time></trkpt><trkpt lat="43.42785468871266" lon="10.925655708774698"><ele>458.0</ele><time>2026-04-18T09:57:37Z</time></trkpt><trkpt lat="43.42785401075746" lon="10.92576090031832"><ele>457.99999999999994</ele><time>2026-04-18T09:57:38Z</time></trkpt><trkpt lat="43.42784003701955" lon="10.925860825709869"><ele>458.0</ele><time>2026-04-18T09:57:39Z</time></trkpt><trkpt lat="43.427808405351435" lon="10.925956293735606"><ele>458.0</ele><time>2026-04-18T09:57:40Z</time></trkpt><trkpt lat="43.4277734465845" lon="10.926048668789004"><ele>458.0</ele><time>2026-04-18T09:57:41Z</time></trkpt><trkpt lat="43.4277361014138" lon="10.92613465234998"><ele>457.99999999999994</ele><time>2026-04-18T09:57:42Z</time></trkpt><trkpt lat="43.42769773444103" lon="10.9262110239653"><ele>458.0</ele><time>2026-04-18T09:57:43Z</time></trkpt><trkpt lat="43.42760622800556" lon="10.92631796355854"><ele>457.49999999999994</ele><time>2026-04-18T09:57:45Z</time></trkpt><trkpt lat="43.42748519952207" lon="10.926347128852735"><ele>457.0</ele><time>2026-04-18T09:57:47Z</time></trkpt><trkpt lat="43.42741527750476" lon="10.926362172350636"><ele>456.5</ele><time>2026-04-18T09:57:48Z</time></trkpt><trkpt lat="43.427343729762015" lon="10.926392738959313"><ele>456.0</ele><time>2026-04-18T09:57:49Z</time></trkpt><trkpt lat="43.42727143386239" lon="10.926404606268493"><ele>455.49999999999994</ele><time>2026-04-18T09:57:50Z</time></trkpt><trkpt lat="43.42719787566146" lon="10.926426084463625"><ele>455.0</ele><time>2026-04-18T09:57:51Z</time></trkpt><trkpt lat="43.42712754665705" lon="10.926465550618708"><ele>457.16666666666663</ele><time>2026-04-18T09:57:52Z</time></trkpt><trkpt lat="43.427062002179746" lon="10.926515558685654"><ele>459.3333333333333</ele><time>2026-04-18T09:57:53Z</time></trkpt><trkpt lat="43.426996096315726" lon="10.926574331291974"><ele>461.5</ele><time>2026-04-18T09:57:54Z</time></trkpt><trkpt lat="43.42695254193008" lon="10.92666646358766"><ele>463.66666666666663</ele><time>2026-04-18T09:57:55Z</time></trkpt><trkpt lat="43.42695411416039" lon="10.926786197294254"><ele>465.8333333333333</ele><time>2026-04-18T09:57:56Z</time></trkpt><trkpt lat="43.42696356847049" lon="10.926894680565255"><ele>468.0</ele><time>2026-04-18T09:57:57Z</time></trkpt><trkpt lat="43.427007127065885" lon="10.926993368251898"><ele>467.59999999999997</ele><time>2026-04-18T09:57:58Z</time></trkpt><trkpt lat="43.42708273127764" lon="10.92705524599665"><ele>467.19999999999993</ele><time>2026-04-18T09:57:59Z</time></trkpt><trkpt lat="43.42718031020637" lon="10.927106194335842"><ele>466.8</ele><time>2026-04-18T09:58:00Z</time></trkpt><trkpt lat="43.42726625337685" lon="10.927157854744054"><ele>466.4</ele><time>2026-04-18T09:58:01Z</time></trkpt><trkpt lat="43.42734215646473" lon="10.927225787238159"><ele>466.0</ele><time>2026-04-18T09:58:02Z</time></trkpt><trkpt lat="43.427424473836375" lon="10.927277251013015"><ele>466.00000000000006</ele><time>2026-04-18T09:58:03Z</time></trkpt><trkpt lat="43.42750513083124" lon="10.927323705276931"><ele>466.0</ele><time>2026-04-18T09:58:04Z</time></trkpt><trkpt lat="43.42755020776792" lon="10.927426396495353"><ele>466.0</ele><time>2026-04-18T09:58:05.001Z</time></trkpt><trkpt lat="43.42759521571553" lon="10.927522749353246"><ele>466.0</ele><time>2026-04-18T09:58:06.001Z</time></trkpt><trkpt lat="43.42763890818904" lon="10.927620785558009"><ele>466.00000000000006</ele><time>2026-04-18T09:58:07.001Z</time></trkpt><trkpt lat="43.42767845657219" lon="10.927713173471192"><ele>466.0</ele><time>2026-04-18T09:58:08.001Z</time></trkpt><trkpt lat="43.42772840180894" lon="10.927799630538027"><ele>468.6666666666667</ele><time>2026-04-18T09:58:09.001Z</time></trkpt><trkpt lat="43.42776618475392" lon="10.927897616997688"><ele>471.33333333333337</ele><time>2026-04-18T09:58:10.001Z</time></trkpt><trkpt lat="43.42781107764679" lon="10.927990341691011"><ele>474.0</ele><time>2026-04-18T09:58:11.001Z</time></trkpt><trkpt lat="43.42785219756175" lon="10.928082191452683"><ele>476.66666666666663</ele><time>2026-04-18T09:58:12.001Z</time></trkpt><trkpt lat="43.42789366935684" lon="10.928172238234293"><ele>479.3333333333333</ele><time>2026-04-18T09:58:13.001Z</time></trkpt><trkpt lat="43.427928356997434" lon="10.928260135724857"><ele>482.0</ele><time>2026-04-18T09:58:14.001Z</time></trkpt><trkpt lat="43.427951474642235" lon="10.928357874531638"><ele>480.3333333333333</ele><time>2026-04-18T09:58:15.001Z</time></trkpt><trkpt lat="43.42796804417505" lon="10.928456715110961"><ele>478.66666666666663</ele><time>2026-04-18T09:58:16.001Z</time></trkpt><trkpt lat="43.427974302043324" lon="10.928559589509035"><ele>477.0</ele><time>2026-04-18T09:58:17.001Z</time></trkpt><trkpt lat="43.42797206189235" lon="10.928660285264218"><ele>475.33333333333337</ele><time>2026-04-18T09:58:18.001Z</time></trkpt><trkpt lat="43.427969213836505" lon="10.928755551997973"><ele>473.6666666666667</ele><time>2026-04-18T09:58:19.001Z</time></trkpt><trkpt lat="43.42797371937485" lon="10.928909723794456"><ele>472.0</ele><time>2026-04-18T09:58:21.001Z</time></trkpt><trkpt lat="43.42798644409849" lon="10.92902390612877"><ele>472.00000000000006</ele><time>2026-04-18T09:58:23.001Z</time></trkpt><trkpt lat="43.4280144863467" lon="10.929115410874982"><ele>472.0</ele><time>2026-04-18T09:58:25.001Z</time></trkpt><trkpt lat="43.42804699645832" lon="10.929205570024514"><ele>472.0</ele><time>2026-04-18T09:58:27.001Z</time></trkpt><trkpt lat="43.42807646150615" lon="10.929343373005892"><ele>472.0</ele><time>2026-04-18T09:58:28.999Z</time></trkpt><trkpt lat="43.428129678746174" lon="10.9294958486764"><ele>472.00000000000006</ele><time>2026-04-18T09:58:30.999Z</time></trkpt><trkpt lat="43.42815648210035" lon="10.929578111061987"><ele>472.0</ele><time>2026-04-18T09:58:31.999Z</time></trkpt><trkpt lat="43.42818246370514" lon="10.92966293886487"><ele>474.6</ele><time>2026-04-18T09:58:32.999Z</time></trkpt><trkpt lat="43.42821889070478" lon="10.929816799846117"><ele>477.20000000000005</ele><time>2026-04-18T09:58:34.999Z</time></trkpt><trkpt lat="43.428234795226416" lon="10.929964796445633"><ele>479.8</ele><time>2026-04-18T09:58:36.999Z</time></trkpt><trkpt lat="43.42822649628393" lon="10.93009878837177"><ele>482.4</ele><time>2026-04-18T09:58:38.999Z</time></trkpt><trkpt lat="43.42821406746898" lon="10.930253502421762"><ele>485.0</ele><time>2026-04-18T09:58:40.999Z</time></trkpt><trkpt lat="43.428169701581304" lon="10.930421128219123"><ele>486.49999999999994</ele><time>2026-04-18T09:58:42.999Z</time></trkpt><trkpt lat="43.428149160659736" lon="10.93051630574564"><ele>488.0</ele><time>2026-04-18T09:58:43.999Z</time></trkpt><trkpt lat="43.42813012748827" lon="10.930616005215535"><ele>489.5</ele><time>2026-04-18T09:58:44.999Z</time></trkpt><trkpt lat="43.42810748364347" lon="10.930723282704824"><ele>491.0</ele><time>2026-04-18T09:58:45.999Z</time></trkpt><trkpt lat="43.42808050611611" lon="10.930829457440971"><ele>492.49999999999994</ele><time>2026-04-18T09:58:46.999Z</time></trkpt><trkpt lat="43.428061227672636" lon="10.930940661466082"><ele>494.0</ele><time>2026-04-18T09:58:47.999Z</time></trkpt><trkpt lat="43.42804539332288" lon="10.931050660360755"><ele>495.8333333333333</ele><time>2026-04-18T09:58:48.999Z</time></trkpt><trkpt lat="43.42803216326143" lon="10.931162836793643"><ele>497.66666666666663</ele><time>2026-04-18T09:58:49.999Z</time></trkpt><trkpt lat="43.42802808660696" lon="10.931269319028294"><ele>499.5</ele><time>2026-04-18T09:58:50.999Z</time></trkpt><trkpt lat="43.42803165280909" lon="10.931377562676529"><ele>501.33333333333337</ele><time>2026-04-18T09:58:51.999Z</time></trkpt><trkpt lat="43.42804426142353" lon="10.93147829296984"><ele>503.1666666666667</ele><time>2026-04-18T09:58:52.999Z</time></trkpt><trkpt lat="43.428064582239266" lon="10.931572943332931"><ele>505.0</ele><time>2026-04-18T09:58:53.999Z</time></trkpt><trkpt lat="43.42806718521012" lon="10.931666724601612"><ele>506.1666666666667</ele><time>2026-04-18T09:58:54.999Z</time></trkpt><trkpt lat="43.42808208882948" lon="10.931753828219273"><ele>507.33333333333337</ele><time>2026-04-18T09:58:55.999Z</time></trkpt><trkpt lat="43.4280986833268" lon="10.931841425411891"><ele>508.5</ele><time>2026-04-18T09:58:56.999Z</time></trkpt><trkpt lat="43.42810170139553" lon="10.93200072124448"><ele>509.66666666666663</ele><time>2026-04-18T09:58:58.999Z</time></trkpt><trkpt lat="43.428069361637306" lon="10.932165457847713"><ele>510.8333333333333</ele><time>2026-04-18T09:59:00.999Z</time></trkpt><trkpt lat="43.428016973039625" lon="10.932224092893694"><ele>512.0</ele><time>2026-04-18T09:59:01.999Z</time></trkpt><trkpt lat="43.42795595546813" lon="10.932274010967541"><ele>512.3333333333333</ele><time>2026-04-18T09:59:02.999Z</time></trkpt><trkpt lat="43.42789232109815" lon="10.932321170589598"><ele>512.6666666666666</ele><time>2026-04-18T09:59:03.999Z</time></trkpt><trkpt lat="43.42783418723626" lon="10.932355981390856"><ele>513.0</ele><time>2026-04-18T09:59:05Z</time></trkpt><trkpt lat="43.42774599255594" lon="10.932456631694885"><ele>513.3333333333334</ele><time>2026-04-18T09:59:07Z</time></trkpt><trkpt lat="43.42773575994834" lon="10.932622097129459"><ele>513.6666666666667</ele><time>2026-04-18T09:59:09Z</time></trkpt><trkpt lat="43.42775757471647" lon="10.932704733323874"><ele>514.0</ele><time>2026-04-18T09:59:10Z</time></trkpt><trkpt lat="43.42778811366267" lon="10.932790545456918"><ele>514.0</ele><time>2026-04-18T09:59:11Z</time></trkpt><trkpt lat="43.427816782441994" lon="10.93287544314279"><ele>514.0</ele><time>2026-04-18T09:59:12Z</time></trkpt><trkpt lat="43.427850543008134" lon="10.93296099569228"><ele>514.0</ele><time>2026-04-18T09:59:13Z</time></trkpt><trkpt lat="43.4278701917669" lon="10.93305702226837"><ele>514.0</ele><time>2026-04-18T09:59:14Z</time></trkpt><trkpt lat="43.4279127709881" lon="10.933138931019368"><ele>514.0</ele><time>2026-04-18T09:59:15Z</time></trkpt><trkpt lat="43.42792457145615" lon="10.933236179269965"><ele>514.0</ele><time>2026-04-18T09:59:16Z</time></trkpt><trkpt lat="43.42794651739863" lon="10.933327279809435"><ele>514.0</ele><time>2026-04-18T09:59:17Z</time></trkpt><trkpt lat="43.42797112561997" lon="10.933420582095055"><ele>511.50000000000006</ele><time>2026-04-18T09:59:18Z</time></trkpt><trkpt lat="43.42799569466776" lon="10.933507442162178"><ele>509.0</ele><time>2026-04-18T09:59:19Z</time></trkpt><trkpt lat="43.428021673849386" lon="10.933590445874442"><ele>506.5</ele><time>2026-04-18T09:59:20Z</time></trkpt><trkpt lat="43.42805032817709" lon="10.933669646444763"><ele>504.0</ele><time>2026-04-18T09:59:21Z</time></trkpt><trkpt lat="43.42808490817442" lon="10.933745544647149"><ele>501.50000000000006</ele><time>2026-04-18T09:59:22Z</time></trkpt><trkpt lat="43.42816595228093" lon="10.933876830977015"><ele>499.0</ele><time>2026-04-18T09:59:24Z</time></trkpt><trkpt lat="43.42821067499659" lon="10.933938502344454"><ele>499.00000000000006</ele><time>2026-04-18T09:59:25Z</time></trkpt><trkpt lat="43.428258963922346" lon="10.934005091128967"><ele>499.0</ele><time>2026-04-18T09:59:26Z</time></trkpt><trkpt lat="43.42832639517015" lon="10.934051811824224"><ele>499.00000000000006</ele><time>2026-04-18T09:59:27Z</time></trkpt><trkpt lat="43.428380785406695" lon="10.934102160914827"><ele>499.00000000000006</ele><time>2026-04-18T09:59:28Z</time></trkpt><trkpt lat="43.4284351892581" lon="10.93415057160649"><ele>499.0</ele><time>2026-04-18T09:59:29Z</time></trkpt><trkpt lat="43.428490438444975" lon="10.934197319194798"><ele>499.00000000000006</ele><time>2026-04-18T09:59:30Z</time></trkpt><trkpt lat="43.42854805149204" lon="10.934245752550217"><ele>499.00000000000006</ele><time>2026-04-18T09:59:31Z</time></trkpt><trkpt lat="43.42860950582675" lon="10.934297948859243"><ele>497.33333333333337</ele><time>2026-04-18T09:59:32Z</time></trkpt><trkpt lat="43.428672610346304" lon="10.934353214500458"><ele>495.6666666666667</ele><time>2026-04-18T09:59:33Z</time></trkpt><trkpt lat="43.42873954326681" lon="10.93441663823792"><ele>494.0</ele><time>2026-04-18T09:59:34Z</time></trkpt><trkpt lat="43.42882079414067" lon="10.934468395272196"><ele>492.33333333333337</ele><time>2026-04-18T09:59:35Z</time></trkpt><trkpt lat="43.428888162558145" lon="10.934550124655326"><ele>490.6666666666667</ele><time>2026-04-18T09:59:36Z</time></trkpt><trkpt lat="43.42896774607422" lon="10.934612451094397"><ele>489.0</ele><time>2026-04-18T09:59:37Z</time></trkpt><trkpt lat="43.42905376654585" lon="10.934672082585939"><ele>489.0</ele><time>2026-04-18T09:59:38Z</time></trkpt><trkpt lat="43.42914166958531" lon="10.934726526203042"><ele>489.0</ele><time>2026-04-18T09:59:39Z</time></trkpt><trkpt lat="43.42922010966932" lon="10.934800568640332"><ele>489.0</ele><time>2026-04-18T09:59:40Z</time></trkpt><trkpt lat="43.429302316845444" lon="10.934855069081946"><ele>489.0</ele><time>2026-04-18T09:59:41Z</time></trkpt><trkpt lat="43.429383453721684" lon="10.93490891430109"><ele>489.0</ele><time>2026-04-18T09:59:42Z</time></trkpt><trkpt lat="43.429461391888026" lon="10.934960674271132"><ele>489.0</ele><time>2026-04-18T09:59:43Z</time></trkpt><trkpt lat="43.42954021910565" lon="10.935013024704215"><ele>489.0</ele><time>2026-04-18T09:59:44Z</time></trkpt><trkpt lat="43.42961552625927" lon="10.935064038841444"><ele>489.0</ele><time>2026-04-18T09:59:45Z</time></trkpt><trkpt lat="43.42968851314889" lon="10.935114859213277"><ele>489.0</ele><time>2026-04-18T09:59:46Z</time></trkpt><trkpt lat="43.429758281402215" lon="10.935167260905551"><ele>489.0</ele><time>2026-04-18T09:59:47Z</time></trkpt><trkpt lat="43.42982856442326" lon="10.935223431506603"><ele>489.0</ele><time>2026-04-18T09:59:48Z</time></trkpt><trkpt lat="43.42990522157797" lon="10.935262811655585"><ele>489.1666666666667</ele><time>2026-04-18T09:59:49Z</time></trkpt><trkpt lat="43.429974532416274" lon="10.935326253133685"><ele>489.33333333333337</ele><time>2026-04-18T09:59:50Z</time></trkpt><trkpt lat="43.43004258899394" lon="10.935380235087559"><ele>489.5</ele><time>2026-04-18T09:59:51Z</time></trkpt><trkpt lat="43.430095988853324" lon="10.935454640226805"><ele>489.6666666666667</ele><time>2026-04-18T09:59:52Z</time></trkpt><trkpt lat="43.43015651770326" lon="10.935518783735564"><ele>489.83333333333337</ele><time>2026-04-18T09:59:53Z</time></trkpt><trkpt lat="43.4302239007898" lon="10.935570839156592"><ele>490.0</ele><time>2026-04-18T09:59:54Z</time></trkpt><trkpt lat="43.43027604559673" lon="10.93565257465034"><ele>490.00000000000006</ele><time>2026-04-18T09:59:55Z</time></trkpt><trkpt lat="43.43032655602983" lon="10.935738916329907"><ele>490.0</ele><time>2026-04-18T09:59:56Z</time></trkpt><trkpt lat="43.430377424977856" lon="10.935829941964043"><ele>490.0</ele><time>2026-04-18T09:59:57Z</time></trkpt><trkpt lat="43.43043588048086" lon="10.935915539661094"><ele>490.0</ele><time>2026-04-18T09:59:58Z</time></trkpt><trkpt lat="43.43049519231976" lon="10.9359971501205"><ele>490.00000000000006</ele><time>2026-04-18T09:59:59Z</time></trkpt><trkpt lat="43.43055341708236" lon="10.936084264781448"><ele>490.0</ele><time>2026-04-18T10:00:00Z</time></trkpt><trkpt lat="43.43060902780717" lon="10.936176761413915"><ele>490.50000000000006</ele><time>2026-04-18T10:00:01Z</time></trkpt><trkpt lat="43.430658730660674" lon="10.936272638899748"><ele>491.0</ele><time>2026-04-18T10:00:02Z</time></trkpt><trkpt lat="43.430704848072125" lon="10.9363725420848"><ele>491.5</ele><time>2026-04-18T10:00:03Z</time></trkpt><trkpt lat="43.4307483767189" lon="10.93647802793705"><ele>492.0</ele><time>2026-04-18T10:00:04Z</time></trkpt><trkpt lat="43.43079509319686" lon="10.93658603216456"><ele>492.50000000000006</ele><time>2026-04-18T10:00:05Z</time></trkpt><trkpt lat="43.430839574695895" lon="10.936698069811124"><ele>493.0</ele><time>2026-04-18T10:00:06Z</time></trkpt><trkpt lat="43.43088333354952" lon="10.936813454686375"><ele>493.0</ele><time>2026-04-18T10:00:07Z</time></trkpt><trkpt lat="43.430911298461865" lon="10.936941165379293"><ele>492.99999999999994</ele><time>2026-04-18T10:00:08Z</time></trkpt><trkpt lat="43.43094775810989" lon="10.937070815196407"><ele>492.99999999999994</ele><time>2026-04-18T10:00:09Z</time></trkpt><trkpt lat="43.43098854983105" lon="10.93719544515406"><ele>493.0</ele><time>2026-04-18T10:00:10Z</time></trkpt><trkpt lat="43.43103877029267" lon="10.93731085943576"><ele>493.0</ele><time>2026-04-18T10:00:11Z</time></trkpt><trkpt lat="43.43109749123653" lon="10.937414406150626"><ele>493.0</ele><time>2026-04-18T10:00:12.001Z</time></trkpt><trkpt lat="43.43114869850277" lon="10.93753054278879"><ele>492.99999999999994</ele><time>2026-04-18T10:00:13.001Z</time></trkpt><trkpt lat="43.43122740828724" lon="10.937607436759407"><ele>492.99999999999994</ele><time>2026-04-18T10:00:14.001Z</time></trkpt><trkpt lat="43.43130808117436" lon="10.937682123573364"><ele>493.0</ele><time>2026-04-18T10:00:15.001Z</time></trkpt><trkpt lat="43.431392183497074" lon="10.937761831413834"><ele>493.0</ele><time>2026-04-18T10:00:16.001Z</time></trkpt><trkpt lat="43.43146781015399" lon="10.937843188417748"><ele>494.4</ele><time>2026-04-18T10:00:17.001Z</time></trkpt><trkpt lat="43.43153585619688" lon="10.937933806306983"><ele>495.79999999999995</ele><time>2026-04-18T10:00:18.001Z</time></trkpt><trkpt lat="43.4316077072982" lon="10.938035420876385"><ele>497.2</ele><time>2026-04-18T10:00:19.001Z</time></trkpt><trkpt lat="43.4316741813175" lon="10.938137354094494"><ele>498.6</ele><time>2026-04-18T10:00:20.001Z</time></trkpt><trkpt lat="43.43174093443675" lon="10.938246490530933"><ele>500.0</ele><time>2026-04-18T10:00:21.001Z</time></trkpt><trkpt lat="43.431807934172866" lon="10.93836342084998"><ele>500.0</ele><time>2026-04-18T10:00:22.001Z</time></trkpt><trkpt lat="43.43188320743174" lon="10.938477923454776"><ele>500.0</ele><time>2026-04-18T10:00:23.001Z</time></trkpt><trkpt lat="43.43193521586665" lon="10.938613848073166"><ele>500.0</ele><time>2026-04-18T10:00:24.001Z</time></trkpt><trkpt lat="43.43197216927332" lon="10.938760011845469"><ele>500.0</ele><time>2026-04-18T10:00:25.001Z</time></trkpt><trkpt lat="43.431986072527" lon="10.938917651937247"><ele>500.0</ele><time>2026-04-18T10:00:26.001Z</time></trkpt><trkpt lat="43.431985642255974" lon="10.939076496430035"><ele>500.0</ele><time>2026-04-18T10:00:27.001Z</time></trkpt><trkpt lat="43.431968334006534" lon="10.939236195613349"><ele>500.0</ele><time>2026-04-18T10:00:28.001Z</time></trkpt><trkpt lat="43.43194356949365" lon="10.939386740536381"><ele>500.0</ele><time>2026-04-18T10:00:29.001Z</time></trkpt><trkpt lat="43.43193872942445" lon="10.939536455290757"><ele>500.66666666666663</ele><time>2026-04-18T10:00:30.001Z</time></trkpt><trkpt lat="43.43196199097078" lon="10.93967375183351"><ele>501.3333333333333</ele><time>2026-04-18T10:00:31.001Z</time></trkpt><trkpt lat="43.43201523274177" lon="10.939785404256849"><ele>502.0</ele><time>2026-04-18T10:00:32.001Z</time></trkpt><trkpt lat="43.432070958063335" lon="10.939878266851494"><ele>502.66666666666663</ele><time>2026-04-18T10:00:33.001Z</time></trkpt><trkpt lat="43.43206874983038" lon="10.939984368818454"><ele>503.3333333333333</ele><time>2026-04-18T10:00:34.001Z</time></trkpt><trkpt lat="43.432052228534666" lon="10.940081734958921"><ele>504.0</ele><time>2026-04-18T10:00:34.999Z</time></trkpt><trkpt lat="43.4320347284806" lon="10.940187680648275"><ele>505.0</ele><time>2026-04-18T10:00:35.999Z</time></trkpt><trkpt lat="43.4320190434957" lon="10.940285937782537"><ele>506.0</ele><time>2026-04-18T10:00:36.999Z</time></trkpt><trkpt lat="43.43201485866209" lon="10.940389904643004"><ele>507.0</ele><time>2026-04-18T10:00:37.999Z</time></trkpt><trkpt lat="43.431997243499666" lon="10.940494326577682"><ele>508.0</ele><time>2026-04-18T10:00:38.999Z</time></trkpt><trkpt lat="43.43198105071621" lon="10.94060478526943"><ele>509.0</ele><time>2026-04-18T10:00:39.999Z</time></trkpt><trkpt lat="43.431957962125814" lon="10.940717109777154"><ele>510.0</ele><time>2026-04-18T10:00:40.999Z</time></trkpt><trkpt lat="43.43193821926863" lon="10.940832156101647"><ele>510.8333333333333</ele><time>2026-04-18T10:00:41.999Z</time></trkpt><trkpt lat="43.43192046201493" lon="10.940948390217297"><ele>511.66666666666663</ele><time>2026-04-18T10:00:42.999Z</time></trkpt><trkpt lat="43.43190721811779" lon="10.941064526262425"><ele>512.5</ele><time>2026-04-18T10:00:43.999Z</time></trkpt><trkpt lat="43.43189744888208" lon="10.941184588772707"><ele>513.3333333333333</ele><time>2026-04-18T10:00:44.999Z</time></trkpt><trkpt lat="43.43187560508725" lon="10.941304100277177"><ele>514.1666666666666</ele><time>2026-04-18T10:00:45.999Z</time></trkpt><trkpt lat="43.43187130897011" lon="10.941432970024685"><ele>515.0</ele><time>2026-04-18T10:00:46.999Z</time></trkpt><trkpt lat="43.43186976017307" lon="10.941562641450213"><ele>515.0</ele><time>2026-04-18T10:00:47.999Z</time></trkpt><trkpt lat="43.4318675069299" lon="10.94169352741687"><ele>515.0</ele><time>2026-04-18T10:00:48.999Z</time></trkpt><trkpt lat="43.43186474068296" lon="10.941821835133947"><ele>515.0</ele><time>2026-04-18T10:00:49.999Z</time></trkpt><trkpt lat="43.43186213695933" lon="10.94194260394221"><ele>515.0</ele><time>2026-04-18T10:00:50.999Z</time></trkpt><trkpt lat="43.43185969420311" lon="10.942055906934366"><ele>515.0</ele><time>2026-04-18T10:00:51.999Z</time></trkpt><trkpt lat="43.43185759884954" lon="10.942158801994378"><ele>515.0</ele><time>2026-04-18T10:00:52.999Z</time></trkpt><trkpt lat="43.431855646198386" lon="10.94226408593292"><ele>515.1666666666666</ele><time>2026-04-18T10:00:53.999Z</time></trkpt><trkpt lat="43.43185369956599" lon="10.942369045207887"><ele>515.3333333333333</ele><time>2026-04-18T10:00:54.999Z</time></trkpt><trkpt lat="43.43186978700459" lon="10.942477671813558"><ele>515.5</ele><time>2026-04-18T10:00:55.999Z</time></trkpt><trkpt lat="43.431870017118364" lon="10.942584392023564"><ele>515.6666666666666</ele><time>2026-04-18T10:00:56.999Z</time></trkpt><trkpt lat="43.431875403599875" lon="10.942690114689755"><ele>515.8333333333334</ele><time>2026-04-18T10:00:57.999Z</time></trkpt><trkpt lat="43.43188267776066" lon="10.94279478377645"><ele>516.0</ele><time>2026-04-18T10:00:58.999Z</time></trkpt><trkpt lat="43.431893973103904" lon="10.942898116748479"><ele>515.1666666666666</ele><time>2026-04-18T10:00:59.999Z</time></trkpt><trkpt lat="43.431901139832526" lon="10.943004113808525"><ele>514.3333333333334</ele><time>2026-04-18T10:01:00.999Z</time></trkpt><trkpt lat="43.43191021861393" lon="10.943110447112723"><ele>513.5</ele><time>2026-04-18T10:01:01.999Z</time></trkpt><trkpt lat="43.431914752214965" lon="10.943217231038526"><ele>512.6666666666667</ele><time>2026-04-18T10:01:02.999Z</time></trkpt><trkpt lat="43.43191827081216" lon="10.943326248428278"><ele>511.83333333333337</ele><time>2026-04-18T10:01:03.999Z</time></trkpt><trkpt lat="43.43191821085286" lon="10.94343695042932"><ele>511.0</ele><time>2026-04-18T10:01:04.999Z</time></trkpt><trkpt lat="43.43191669986556" lon="10.9435489709547"><ele>510.50000000000006</ele><time>2026-04-18T10:01:05.999Z</time></trkpt><trkpt lat="43.43191690598718" lon="10.943657576213548"><ele>510.0</ele><time>2026-04-18T10:01:06.999Z</time></trkpt><trkpt lat="43.43191169058879" lon="10.943763097681742"><ele>509.5</ele><time>2026-04-18T10:01:08Z</time></trkpt><trkpt lat="43.43190938501889" lon="10.943865155993205"><ele>509.0</ele><time>2026-04-18T10:01:09Z</time></trkpt><trkpt lat="43.431914711141935" lon="10.943969743268404"><ele>508.50000000000006</ele><time>2026-04-18T10:01:10Z</time></trkpt><trkpt lat="43.4319299074038" lon="10.944075976709854"><ele>508.0</ele><time>2026-04-18T10:01:11Z</time></trkpt><trkpt lat="43.43194984581238" lon="10.94418131475873"><ele>507.50000000000006</ele><time>2026-04-18T10:01:12Z</time></trkpt><trkpt lat="43.431980202364585" lon="10.944282957091755"><ele>507.0</ele><time>2026-04-18T10:01:13Z</time></trkpt><trkpt lat="43.43200919504555" lon="10.944387920911177"><ele>506.5</ele><time>2026-04-18T10:01:14Z</time></trkpt><trkpt lat="43.432062561740764" lon="10.944473506342103"><ele>506.0</ele><time>2026-04-18T10:01:15Z</time></trkpt><trkpt lat="43.43212806604281" lon="10.944531324267606"><ele>505.50000000000006</ele><time>2026-04-18T10:01:16Z</time></trkpt><trkpt lat="43.43220750286355" lon="10.944539300711567"><ele>505.0</ele><time>2026-04-18T10:01:17Z</time></trkpt><trkpt lat="43.43227818354476" lon="10.944563436538632"><ele>506.00000000000006</ele><time>2026-04-18T10:01:18Z</time></trkpt><trkpt lat="43.432352548165106" lon="10.944566782047321"><ele>507.0</ele><time>2026-04-18T10:01:19Z</time></trkpt><trkpt lat="43.4324304959325" lon="10.94456622311155"><ele>508.0</ele><time>2026-04-18T10:01:20.001Z</time></trkpt><trkpt lat="43.432508616659085" lon="10.944556038008669"><ele>509.0</ele><time>2026-04-18T10:01:21.001Z</time></trkpt><trkpt lat="43.4325906129209" lon="10.944540381876658"><ele>510.00000000000006</ele><time>2026-04-18T10:01:22.001Z</time></trkpt><trkpt lat="43.43267275587719" lon="10.944521071816474"><ele>511.0</ele><time>2026-04-18T10:01:23.001Z</time></trkpt><trkpt lat="43.43275344079303" lon="10.944499911287126"><ele>511.00000000000006</ele><time>2026-04-18T10:01:24.001Z</time></trkpt><trkpt lat="43.432834394161624" lon="10.944478680372516"><ele>511.0</ele><time>2026-04-18T10:01:25.001Z</time></trkpt><trkpt lat="43.4329132963475" lon="10.944458945871872"><ele>511.0</ele><time>2026-04-18T10:01:26.001Z</time></trkpt><trkpt lat="43.43299027881596" lon="10.944440441139031"><ele>511.0</ele><time>2026-04-18T10:01:27.001Z</time></trkpt><trkpt lat="43.43306639343213" lon="10.944418285938074"><ele>511.00000000000006</ele><time>2026-04-18T10:01:28.001Z</time></trkpt><trkpt lat="43.43313715895912" lon="10.944376128859897"><ele>511.0</ele><time>2026-04-18T10:01:29.001Z</time></trkpt><trkpt lat="43.43320582265773" lon="10.944367890462878"><ele>512.0</ele><time>2026-04-18T10:01:30.001Z</time></trkpt><trkpt lat="43.433276933670946" lon="10.944348617363303"><ele>513.0</ele><time>2026-04-18T10:01:31.001Z</time></trkpt><trkpt lat="43.433347154642135" lon="10.944364116492917"><ele>514.0</ele><time>2026-04-18T10:01:32.001Z</time></trkpt><trkpt lat="43.43341162004973" lon="10.944374801162272"><ele>515.0</ele><time>2026-04-18T10:01:33.001Z</time></trkpt><trkpt lat="43.43353255061627" lon="10.94443702382887"><ele>516.0</ele><time>2026-04-18T10:01:35.001Z</time></trkpt><trkpt lat="43.4335915175893" lon="10.944476153181839"><ele>517.0</ele><time>2026-04-18T10:01:36.001Z</time></trkpt><trkpt lat="43.43365571537908" lon="10.94452116415017"><ele>517.0</ele><time>2026-04-18T10:01:37.001Z</time></trkpt><trkpt lat="43.43372085386337" lon="10.944575338255536"><ele>517.0</ele><time>2026-04-18T10:01:38.001Z</time></trkpt><trkpt lat="43.43379750777131" lon="10.944615578344187"><ele>517.0</ele><time>2026-04-18T10:01:39.001Z</time></trkpt><trkpt lat="43.43386053132567" lon="10.944680412830545"><ele>517.0</ele><time>2026-04-18T10:01:40.001Z</time></trkpt><trkpt lat="43.43393126345299" lon="10.944733737323624"><ele>517.0</ele><time>2026-04-18T10:01:41.001Z</time></trkpt><trkpt lat="43.43400684198022" lon="10.944780552406508"><ele>517.0</ele><time>2026-04-18T10:01:42.001Z</time></trkpt><trkpt lat="43.434081983182665" lon="10.94482658532207"><ele>518.8333333333334</ele><time>2026-04-18T10:01:43.001Z</time></trkpt><trkpt lat="43.43416075349134" lon="10.94486466903515"><ele>520.6666666666667</ele><time>2026-04-18T10:01:44.001Z</time></trkpt><trkpt lat="43.434237717650966" lon="10.944893371272052"><ele>522.5</ele><time>2026-04-18T10:01:45.001Z</time></trkpt><trkpt lat="43.43431047415443" lon="10.94493172812762"><ele>524.3333333333334</ele><time>2026-04-18T10:01:46.001Z</time></trkpt><trkpt lat="43.43438465139058" lon="10.944957027021474"><ele>526.1666666666666</ele><time>2026-04-18T10:01:47.001Z</time></trkpt><trkpt lat="43.434457365754795" lon="10.944971968183786"><ele>528.0</ele><time>2026-04-18T10:01:48.001Z</time></trkpt><trkpt lat="43.43453056183076" lon="10.944978122088699"><ele>528.0</ele><time>2026-04-18T10:01:49.001Z</time></trkpt><trkpt lat="43.434605569093556" lon="10.944988034030576"><ele>528.0</ele><time>2026-04-18T10:01:50.001Z</time></trkpt><trkpt lat="43.43467917793488" lon="10.94501153490166"><ele>528.0</ele><time>2026-04-18T10:01:51.001Z</time></trkpt><trkpt lat="43.43474782912459" lon="10.945047817045296"><ele>528.0</ele><time>2026-04-18T10:01:52.001Z</time></trkpt><trkpt lat="43.434784368836" lon="10.945119292926096"><ele>528.0</ele><time>2026-04-18T10:01:53.001Z</time></trkpt><trkpt lat="43.434827852525856" lon="10.945275844796921"><ele>528.0</ele><time>2026-04-18T10:01:55.001Z</time></trkpt><trkpt lat="43.4348800665285" lon="10.945430748409738"><ele>530.1428571428571</ele><time>2026-04-18T10:01:57.001Z</time></trkpt><trkpt lat="43.43489806814736" lon="10.945518276688722"><ele>532.2857142857143</ele><time>2026-04-18T10:01:58.001Z</time></trkpt><trkpt lat="43.43493631375806" lon="10.945595109687437"><ele>534.4285714285714</ele><time>2026-04-18T10:01:59.001Z</time></trkpt><trkpt lat="43.434983764491776" lon="10.945653512270422"><ele>536.5714285714286</ele><time>2026-04-18T10:02:00.001Z</time></trkpt><trkpt lat="43.43503855427792" lon="10.945705395585591"><ele>538.7142857142857</ele><time>2026-04-18T10:02:01.001Z</time></trkpt><trkpt lat="43.435084711964386" lon="10.945773246475628"><ele>540.8571428571429</ele><time>2026-04-18T10:02:02.001Z</time></trkpt><trkpt lat="43.4351357715618" lon="10.945839357599814"><ele>543.0</ele><time>2026-04-18T10:02:03.001Z</time></trkpt><trkpt lat="43.43518869830167" lon="10.945899169825736"><ele>544.1428571428571</ele><time>2026-04-18T10:02:04.001Z</time></trkpt><trkpt lat="43.43524887209444" lon="10.945961990408495"><ele>545.2857142857142</ele><time>2026-04-18T10:02:05.001Z</time></trkpt><trkpt lat="43.43530407134792" lon="10.946017485045457"><ele>546.4285714285713</ele><time>2026-04-18T10:02:06.001Z</time></trkpt><trkpt lat="43.435358261050325" lon="10.94607514677784"><ele>547.5714285714286</ele><time>2026-04-18T10:02:07.001Z</time></trkpt><trkpt lat="43.43540262141992" lon="10.946146942049836"><ele>548.7142857142857</ele><time>2026-04-18T10:02:08.001Z</time></trkpt><trkpt lat="43.43545309373446" lon="10.946212778437703"><ele>549.8571428571428</ele><time>2026-04-18T10:02:09.001Z</time></trkpt><trkpt lat="43.43551185872607" lon="10.946259928252415"><ele>551.0</ele><time>2026-04-18T10:02:10.001Z</time></trkpt><trkpt lat="43.435585265367955" lon="10.946298696105965"><ele>551.0</ele><time>2026-04-18T10:02:11.001Z</time></trkpt><trkpt lat="43.435653602267216" lon="10.94636217157413"><ele>551.0</ele><time>2026-04-18T10:02:12.002Z</time></trkpt><trkpt lat="43.43572773545289" lon="10.946437211807996"><ele>551.0</ele><time>2026-04-18T10:02:13.002Z</time></trkpt><trkpt lat="43.43580294909578" lon="10.946511081911867"><ele>551.0</ele><time>2026-04-18T10:02:14.002Z</time></trkpt><trkpt lat="43.435878160282215" lon="10.94658681301752"><ele>551.0</ele><time>2026-04-18T10:02:15.002Z</time></trkpt><trkpt lat="43.43593681540491" lon="10.946657081252729"><ele>551.0</ele><time>2026-04-18T10:02:16.002Z</time></trkpt><trkpt lat="43.43598233217781" lon="10.946724429339946"><ele>553.6666666666666</ele><time>2026-04-18T10:02:17.002Z</time></trkpt><trkpt lat="43.436037333639625" lon="10.94680879172854"><ele>556.3333333333333</ele><time>2026-04-18T10:02:19.002Z</time></trkpt><trkpt lat="43.43607767678637" lon="10.946885486933272"><ele>559.0</ele><time>2026-04-18T10:02:21.002Z</time></trkpt><trkpt lat="43.43613555355894" lon="10.946981608185183"><ele>561.6666666666666</ele><time>2026-04-18T10:02:23.002Z</time></trkpt><trkpt lat="43.43619961958565" lon="10.947079236688895"><ele>564.3333333333334</ele><time>2026-04-18T10:02:25.002Z</time></trkpt><trkpt lat="43.436246137458134" lon="10.947218965749444"><ele>567.0</ele><time>2026-04-18T10:02:27.002Z</time></trkpt><trkpt lat="43.43628373597297" lon="10.947348017032953"><ele>567.0</ele><time>2026-04-18T10:02:29.002Z</time></trkpt><trkpt lat="43.43626435156904" lon="10.947468295660947"><ele>567.0</ele><time>2026-04-18T10:02:31.002Z</time></trkpt><trkpt lat="43.43620232328451" lon="10.947587678993647"><ele>567.0</ele><time>2026-04-18T10:02:33.002Z</time></trkpt><trkpt lat="43.43616967118632" lon="10.947745748873979"><ele>567.0</ele><time>2026-04-18T10:02:35.002Z</time></trkpt><trkpt lat="43.43614820318393" lon="10.947902342773748"><ele>567.0</ele><time>2026-04-18T10:02:37.002Z</time></trkpt><trkpt lat="43.436147291409036" lon="10.948076883879068"><ele>566.8571428571429</ele><time>2026-04-18T10:02:39.002Z</time></trkpt><trkpt lat="43.436152301832465" lon="10.948164263472798"><ele>566.7142857142858</ele><time>2026-04-18T10:02:40.002Z</time></trkpt><trkpt lat="43.436157832674425" lon="10.948251919083303"><ele>566.5714285714286</ele><time>2026-04-18T10:02:41Z</time></trkpt><trkpt lat="43.43616735208987" lon="10.948339406435315"><ele>566.4285714285714</ele><time>2026-04-18T10:02:42Z</time></trkpt><trkpt lat="43.436188015760386" lon="10.948424678114124"><ele>566.2857142857143</ele><time>2026-04-18T10:02:43Z</time></trkpt><trkpt lat="43.43619275090807" lon="10.948517687182528"><ele>566.1428571428571</ele><time>2026-04-18T10:02:44Z</time></trkpt><trkpt lat="43.4362239907086" lon="10.948615392773233"><ele>566.0</ele><time>2026-04-18T10:02:45Z</time></trkpt><trkpt lat="43.436261596683615" lon="10.948701274662444"><ele>565.1666666666666</ele><time>2026-04-18T10:02:46Z</time></trkpt><trkpt lat="43.43630735653069" lon="10.948782594997969"><ele>564.3333333333333</ele><time>2026-04-18T10:02:47Z</time></trkpt><trkpt lat="43.43634216179883" lon="10.948857331571602"><ele>563.5</ele><time>2026-04-18T10:02:48Z</time></trkpt><trkpt lat="43.436404168422946" lon="10.949000710116257"><ele>562.6666666666666</ele><time>2026-04-18T10:02:50Z</time></trkpt><trkpt lat="43.4364418058405" lon="10.949087739477271"><ele>561.8333333333334</ele><time>2026-04-18T10:02:51Z</time></trkpt><trkpt lat="43.436485033069786" lon="10.949187694667245"><ele>561.0</ele><time>2026-04-18T10:02:52Z</time></trkpt><trkpt lat="43.436529371061475" lon="10.9492902218295"><ele>560.8</ele><time>2026-04-18T10:02:53Z</time></trkpt><trkpt lat="43.43659772941716" lon="10.94938521662196"><ele>560.6</ele><time>2026-04-18T10:02:54Z</time></trkpt><trkpt lat="43.436665519556556" lon="10.949476660572994"><ele>560.4</ele><time>2026-04-18T10:02:55Z</time></trkpt><trkpt lat="43.43674045099744" lon="10.949556657618082"><ele>560.2</ele><time>2026-04-18T10:02:56Z</time></trkpt><trkpt lat="43.43682400166537" lon="10.949626247290126"><ele>560.0</ele><time>2026-04-18T10:02:57Z</time></trkpt><trkpt lat="43.4369117722134" lon="10.949673521357692"><ele>560.0</ele><time>2026-04-18T10:02:58Z</time></trkpt><trkpt lat="43.437005684192634" lon="10.949704029607993"><ele>560.0</ele><time>2026-04-18T10:02:59Z</time></trkpt><trkpt lat="43.437093129185094" lon="10.949730538937144"><ele>560.0</ele><time>2026-04-18T10:03:00Z</time></trkpt><trkpt lat="43.43718579641206" lon="10.949748303506492"><ele>560.0</ele><time>2026-04-18T10:03:01Z</time></trkpt><trkpt lat="43.43727945243095" lon="10.949760340891157"><ele>560.0</ele><time>2026-04-18T10:03:02Z</time></trkpt><trkpt lat="43.43737033546594" lon="10.949771900547926"><ele>560.8</ele><time>2026-04-18T10:03:03Z</time></trkpt><trkpt lat="43.43746187038403" lon="10.949793887412367"><ele>561.6</ele><time>2026-04-18T10:03:04Z</time></trkpt><trkpt lat="43.437550028640054" lon="10.949828011364172"><ele>562.4</ele><time>2026-04-18T10:03:05Z</time></trkpt><trkpt lat="43.43763812483048" lon="10.949871568929362"><ele>563.2</ele><time>2026-04-18T10:03:06Z</time></trkpt><trkpt lat="43.43772377169381" lon="10.949925783846433"><ele>564.0</ele><time>2026-04-18T10:03:07Z</time></trkpt><trkpt lat="43.4378052629422" lon="10.949989875243332"><ele>564.2</ele><time>2026-04-18T10:03:08Z</time></trkpt><trkpt lat="43.43788279605755" lon="10.950063973811943"><ele>564.4</ele><time>2026-04-18T10:03:09Z</time></trkpt><trkpt lat="43.437961726326755" lon="10.95014369384871"><ele>564.6</ele><time>2026-04-18T10:03:10.001Z</time></trkpt><trkpt lat="43.43804193803511" lon="10.950224708178956"><ele>564.8</ele><time>2026-04-18T10:03:11.001Z</time></trkpt><trkpt lat="43.43811978392687" lon="10.950308608490163"><ele>565.0</ele><time>2026-04-18T10:03:12.001Z</time></trkpt><trkpt lat="43.43819605971561" lon="10.950390808795571"><ele>565.0</ele><time>2026-04-18T10:03:13.001Z</time></trkpt><trkpt lat="43.43826940919687" lon="10.950469855583716"><ele>565.0</ele><time>2026-04-18T10:03:14.001Z</time></trkpt><trkpt lat="43.43834024989908" lon="10.950546198565338"><ele>565.0</ele><time>2026-04-18T10:03:15.001Z</time></trkpt><trkpt lat="43.438410467977796" lon="10.950621870745147"><ele>565.0</ele><time>2026-04-18T10:03:16.001Z</time></trkpt><trkpt lat="43.43848213875248" lon="10.950699108501217"><ele>565.0</ele><time>2026-04-18T10:03:17.001Z</time></trkpt><trkpt lat="43.4385564217649" lon="10.950779161172976"><ele>565.0</ele><time>2026-04-18T10:03:18.001Z</time></trkpt><trkpt lat="43.43863332699848" lon="10.950862039910916"><ele>565.0</ele><time>2026-04-18T10:03:19.001Z</time></trkpt><trkpt lat="43.43871283632493" lon="10.950946656120962"><ele>565.0</ele><time>2026-04-18T10:03:20.001Z</time></trkpt><trkpt lat="43.43879513343956" lon="10.95103284155474"><ele>565.0</ele><time>2026-04-18T10:03:21.001Z</time></trkpt><trkpt lat="43.43887922250327" lon="10.951120903551375"><ele>565.0</ele><time>2026-04-18T10:03:22.001Z</time></trkpt><trkpt lat="43.438963504321315" lon="10.951209165419073"><ele>566.2</ele><time>2026-04-18T10:03:23.001Z</time></trkpt><trkpt lat="43.43904877392458" lon="10.951296072935103"><ele>567.4</ele><time>2026-04-18T10:03:24.001Z</time></trkpt><trkpt lat="43.439132749793316" lon="10.951382440696154"><ele>568.6</ele><time>2026-04-18T10:03:25.001Z</time></trkpt><trkpt lat="43.43921468218197" lon="10.951466706632775"><ele>569.8</ele><time>2026-04-18T10:03:26.001Z</time></trkpt><trkpt lat="43.43929522508899" lon="10.95155146539528"><ele>571.0</ele><time>2026-04-18T10:03:27.001Z</time></trkpt><trkpt lat="43.43937530082193" lon="10.951636644512881"><ele>570.4</ele><time>2026-04-18T10:03:28.001Z</time></trkpt><trkpt lat="43.4394529492197" lon="10.951719241646812"><ele>569.8</ele><time>2026-04-18T10:03:29.001Z</time></trkpt><trkpt lat="43.43952858396845" lon="10.951799706918404"><ele>569.1999999999999</ele><time>2026-04-18T10:03:30.001Z</time></trkpt><trkpt lat="43.439602496952126" lon="10.951878341262855"><ele>568.6</ele><time>2026-04-18T10:03:31.001Z</time></trkpt><trkpt lat="43.439675130988874" lon="10.951955614966934"><ele>568.0</ele><time>2026-04-18T10:03:32.001Z</time></trkpt><trkpt lat="43.43974436380298" lon="10.952029270226634"><ele>570.1666666666667</ele><time>2026-04-18T10:03:33.001Z</time></trkpt><trkpt lat="43.43981105526815" lon="10.952100221703484"><ele>572.3333333333334</ele><time>2026-04-18T10:03:34.001Z</time></trkpt><trkpt lat="43.43987619793071" lon="10.952169525541041"><ele>574.5</ele><time>2026-04-18T10:03:35.001Z</time></trkpt><trkpt lat="43.439941305527775" lon="10.952238792044762"><ele>576.6666666666666</ele><time>2026-04-18T10:03:36.001Z</time></trkpt><trkpt lat="43.44000445606645" lon="10.95230597649444"><ele>578.8333333333333</ele><time>2026-04-18T10:03:37.001Z</time></trkpt><trkpt lat="43.440065337286384" lon="10.952370746666722"><ele>581.0</ele><time>2026-04-18T10:03:38.001Z</time></trkpt><trkpt lat="43.44012656907139" lon="10.95243588975573"><ele>581.0</ele><time>2026-04-18T10:03:39.001Z</time></trkpt><trkpt lat="43.44018700082848" lon="10.952500181751438"><ele>581.0</ele><time>2026-04-18T10:03:40.001Z</time></trkpt><trkpt lat="43.44024546603584" lon="10.95256348773184"><ele>581.0</ele><time>2026-04-18T10:03:41.001Z</time></trkpt><trkpt lat="43.440304456331" lon="10.952628482367032"><ele>581.0</ele><time>2026-04-18T10:03:42.001Z</time></trkpt><trkpt lat="43.440361376002166" lon="10.952691195614783"><ele>581.0</ele><time>2026-04-18T10:03:43.001Z</time></trkpt><trkpt lat="43.44042672539894" lon="10.952739461259771"><ele>581.0</ele><time>2026-04-18T10:03:44.001Z</time></trkpt><trkpt lat="43.44048081096632" lon="10.952811395241442"><ele>581.0</ele><time>2026-04-18T10:03:45.001Z</time></trkpt><trkpt lat="43.44054366554035" lon="10.95287041598849"><ele>582.8333333333333</ele><time>2026-04-18T10:03:46.001Z</time></trkpt><trkpt lat="43.440610874918924" lon="10.952930393018807"><ele>584.6666666666666</ele><time>2026-04-18T10:03:47.001Z</time></trkpt><trkpt lat="43.44068186568008" lon="10.95299007363435"><ele>586.5</ele><time>2026-04-18T10:03:48.001Z</time></trkpt><trkpt lat="43.44074448113053" lon="10.95306673105052"><ele>588.3333333333334</ele><time>2026-04-18T10:03:49.001Z</time></trkpt><trkpt lat="43.44081589009313" lon="10.953120265489767"><ele>590.1666666666667</ele><time>2026-04-18T10:03:50.001Z</time></trkpt><trkpt lat="43.44089526491322" lon="10.953138603967513"><ele>592.0</ele><time>2026-04-18T10:03:51.001Z</time></trkpt><trkpt lat="43.44096894669895" lon="10.953179696783387"><ele>592.0</ele><time>2026-04-18T10:03:52.001Z</time></trkpt><trkpt lat="43.44104687671694" lon="10.953169030738538"><ele>592.0</ele><time>2026-04-18T10:03:53.001Z</time></trkpt><trkpt lat="43.44111933448536" lon="10.95312229147606"><ele>592.0</ele><time>2026-04-18T10:03:54.001Z</time></trkpt><trkpt lat="43.44117886204699" lon="10.953048695323192"><ele>592.0</ele><time>2026-04-18T10:03:55.001Z</time></trkpt><trkpt lat="43.44121269323251" lon="10.952944834779952"><ele>592.0</ele><time>2026-04-18T10:03:56.001Z</time></trkpt><trkpt lat="43.44121136739795" lon="10.952824069016751"><ele>592.0</ele><time>2026-04-18T10:03:57.001Z</time></trkpt><trkpt lat="43.44122820919896" lon="10.952710855223959"><ele>592.0</ele><time>2026-04-18T10:03:58.001Z</time></trkpt><trkpt lat="43.44124335605081" lon="10.952605046953563"><ele>592.0</ele><time>2026-04-18T10:03:59.001Z</time></trkpt><trkpt lat="43.44127186449651" lon="10.952519420108572"><ele>592.0</ele><time>2026-04-18T10:04:00.001Z</time></trkpt><trkpt lat="43.441374784221196" lon="10.952435396269282"><ele>592.0</ele><time>2026-04-18T10:04:02.001Z</time></trkpt><trkpt lat="43.44143790606975" lon="10.952432154652108"><ele>592.0</ele><time>2026-04-18T10:04:03.001Z</time></trkpt><trkpt lat="43.4415093645373" lon="10.952434870146114"><ele>592.0</ele><time>2026-04-18T10:04:04.001Z</time></trkpt><trkpt lat="43.44157936463859" lon="10.952457881013272"><ele>593.8000000000001</ele><time>2026-04-18T10:04:05.001Z</time></trkpt><trkpt lat="43.44163945744986" lon="10.9524850971588"><ele>595.6</ele><time>2026-04-18T10:04:06.001Z</time></trkpt><trkpt lat="43.44169714806665" lon="10.952535315614648"><ele>597.4000000000001</ele><time>2026-04-18T10:04:08.001Z</time></trkpt><trkpt lat="43.44167141200529" lon="10.95267624497388"><ele>599.2</ele><time>2026-04-18T10:04:11.001Z</time></trkpt><trkpt lat="43.44164401590198" lon="10.952863822151627"><ele>601.0</ele><time>2026-04-18T10:04:13.002Z</time></trkpt><trkpt lat="43.441645331052186" lon="10.952994718087078"><ele>601.75</ele><time>2026-04-18T10:04:14.002Z</time></trkpt><trkpt lat="43.44167040607435" lon="10.953134014392713"><ele>602.5</ele><time>2026-04-18T10:04:15.002Z</time></trkpt><trkpt lat="43.44168142538981" lon="10.953288931912958"><ele>603.25</ele><time>2026-04-18T10:04:16.002Z</time></trkpt><trkpt lat="43.441678005483816" lon="10.953458892519208"><ele>604.0</ele><time>2026-04-18T10:04:17.002Z</time></trkpt><trkpt lat="43.441688662196924" lon="10.953639095258687"><ele>604.0</ele><time>2026-04-18T10:04:18.002Z</time></trkpt><trkpt lat="43.44169993197386" lon="10.953829664700628"><ele>604.0</ele><time>2026-04-18T10:04:19.002Z</time></trkpt><trkpt lat="43.44171136045261" lon="10.954022917788057"><ele>604.0</ele><time>2026-04-18T10:04:20.002Z</time></trkpt><trkpt lat="43.44171677403951" lon="10.954217582612486"><ele>604.0</ele><time>2026-04-18T10:04:21.002Z</time></trkpt><trkpt lat="43.44170274157754" lon="10.954414190751809"><ele>603.6666666666667</ele><time>2026-04-18T10:04:22.002Z</time></trkpt><trkpt lat="43.441674188727674" lon="10.954613767681465"><ele>603.3333333333334</ele><time>2026-04-18T10:04:23.002Z</time></trkpt><trkpt lat="43.44164329928467" lon="10.954818625805434"><ele>603.0</ele><time>2026-04-18T10:04:24.002Z</time></trkpt><trkpt lat="43.44160798889988" lon="10.955019821282269"><ele>602.5</ele><time>2026-04-18T10:04:25.002Z</time></trkpt><trkpt lat="43.44156855019084" lon="10.955215113289741"><ele>602.0</ele><time>2026-04-18T10:04:26.002Z</time></trkpt><trkpt lat="43.44152716713041" lon="10.955403668918539"><ele>601.5</ele><time>2026-04-18T10:04:27.002Z</time></trkpt><trkpt lat="43.44148222154124" lon="10.955582766858345"><ele>601.0</ele><time>2026-04-18T10:04:28.002Z</time></trkpt><trkpt lat="43.44142581764378" lon="10.955765662672706"><ele>600.3333333333334</ele><time>2026-04-18T10:04:29.002Z</time></trkpt><trkpt lat="43.44135789266332" lon="10.955950641161731"><ele>599.6666666666666</ele><time>2026-04-18T10:04:30.002Z</time></trkpt><trkpt lat="43.441289535429334" lon="10.956145086527053"><ele>599.0</ele><time>2026-04-18T10:04:31.002Z</time></trkpt><trkpt lat="43.44118961652039" lon="10.95632122128033"><ele>599.0</ele><time>2026-04-18T10:04:32.002Z</time></trkpt><trkpt lat="43.44108329067503" lon="10.956492784133234"><ele>599.0</ele><time>2026-04-18T10:04:33.002Z</time></trkpt><trkpt lat="43.440970210199595" lon="10.95666314457562"><ele>599.0</ele><time>2026-04-18T10:04:34.002Z</time></trkpt><trkpt lat="43.440855726040844" lon="10.956838078746552"><ele>600.0</ele><time>2026-04-18T10:04:35.002Z</time></trkpt><trkpt lat="43.44074069349801" lon="10.957011466674263"><ele>601.0</ele><time>2026-04-18T10:04:36.002Z</time></trkpt><trkpt lat="43.44062773665954" lon="10.957185200207057"><ele>602.0</ele><time>2026-04-18T10:04:37.002Z</time></trkpt><trkpt lat="43.44051488165259" lon="10.957356292474515"><ele>600.6666666666666</ele><time>2026-04-18T10:04:38.002Z</time></trkpt><trkpt lat="43.44040544439226" lon="10.957526782276778"><ele>599.3333333333334</ele><time>2026-04-18T10:04:39.002Z</time></trkpt><trkpt lat="43.44029892265937" lon="10.957696218786964"><ele>598.0</ele><time>2026-04-18T10:04:40.002Z</time></trkpt><trkpt lat="43.44019435805905" lon="10.95786660398999"><ele>598.0</ele><time>2026-04-18T10:04:41.002Z</time></trkpt><trkpt lat="43.44008960113935" lon="10.958036407870505"><ele>598.0</ele><time>2026-04-18T10:04:42.002Z</time></trkpt><trkpt lat="43.43999047819997" lon="10.958209333736328"><ele>598.0</ele><time>2026-04-18T10:04:43.002Z</time></trkpt><trkpt lat="43.43989116451348" lon="10.95838150379769"><ele>596.0</ele><time>2026-04-18T10:04:44.002Z</time></trkpt><trkpt lat="43.43978958996165" lon="10.958553315824913"><ele>594.0</ele><time>2026-04-18T10:04:45.002Z</time></trkpt><trkpt lat="43.43968983534779" lon="10.958727190543826"><ele>592.0</ele><time>2026-04-18T10:04:46.002Z</time></trkpt><trkpt lat="43.43958872466516" lon="10.958901354211486"><ele>591.6666666666667</ele><time>2026-04-18T10:04:47Z</time></trkpt><trkpt lat="43.43948592969213" lon="10.959074928020616"><ele>591.3333333333334</ele><time>2026-04-18T10:04:48Z</time></trkpt><trkpt lat="43.43938528205567" lon="10.959244879935701"><ele>591.0</ele><time>2026-04-18T10:04:49Z</time></trkpt><trkpt lat="43.43929056733108" lon="10.95940190865868"><ele>590.75</ele><time>2026-04-18T10:04:50Z</time></trkpt><trkpt lat="43.439197753758734" lon="10.959550406731944"><ele>590.5</ele><time>2026-04-18T10:04:51Z</time></trkpt><trkpt lat="43.43909800424462" lon="10.959692167460704"><ele>590.25</ele><time>2026-04-18T10:04:52Z</time></trkpt><trkpt lat="43.43898750473144" lon="10.95982041346373"><ele>590.0</ele><time>2026-04-18T10:04:53Z</time></trkpt><trkpt lat="43.43886587431822" lon="10.959935294184119"><ele>590.3333333333333</ele><time>2026-04-18T10:04:54Z</time></trkpt><trkpt lat="43.43873878361694" lon="10.960048674569085"><ele>590.6666666666666</ele><time>2026-04-18T10:04:55Z</time></trkpt><trkpt lat="43.43860964702549" lon="10.960162505703227"><ele>591.0</ele><time>2026-04-18T10:04:56Z</time></trkpt><trkpt lat="43.438470659617835" lon="10.96025715021391"><ele>591.0</ele><time>2026-04-18T10:04:57Z</time></trkpt><trkpt lat="43.43834638968744" lon="10.960387134369652"><ele>591.0</ele><time>2026-04-18T10:04:58Z</time></trkpt><trkpt lat="43.4382136005104" lon="10.96049609680752"><ele>591.0</ele><time>2026-04-18T10:04:59Z</time></trkpt><trkpt lat="43.438081443462735" lon="10.96060329304639"><ele>590.5</ele><time>2026-04-18T10:05:00Z</time></trkpt><trkpt lat="43.437949060114114" lon="10.960703277253959"><ele>590.0</ele><time>2026-04-18T10:05:01Z</time></trkpt><trkpt lat="43.43781759777394" lon="10.960794386292608"><ele>589.5</ele><time>2026-04-18T10:05:02Z</time></trkpt><trkpt lat="43.43768428687187" lon="10.960877167468933"><ele>589.0</ele><time>2026-04-18T10:05:03Z</time></trkpt><trkpt lat="43.43755295333727" lon="10.960950035173015"><ele>590.0</ele><time>2026-04-18T10:05:04Z</time></trkpt><trkpt lat="43.437427125558514" lon="10.961016568615221"><ele>591.0</ele><time>2026-04-18T10:05:05Z</time></trkpt><trkpt lat="43.43730998598199" lon="10.961093823761292"><ele>592.0</ele><time>2026-04-18T10:05:06.001Z</time></trkpt><trkpt lat="43.43720066628184" lon="10.961193164062022"><ele>593.0</ele><time>2026-04-18T10:05:07.001Z</time></trkpt><trkpt lat="43.43709303375155" lon="10.961296264504128"><ele>591.25</ele><time>2026-04-18T10:05:08.001Z</time></trkpt><trkpt lat="43.43702242546641" lon="10.961450028373134"><ele>589.5</ele><time>2026-04-18T10:05:09.001Z</time></trkpt><trkpt lat="43.43695603202764" lon="10.961599655772373"><ele>587.75</ele><time>2026-04-18T10:05:10.001Z</time></trkpt><trkpt lat="43.43690642027739" lon="10.961758542733532"><ele>586.0</ele><time>2026-04-18T10:05:11.001Z</time></trkpt><trkpt lat="43.43685250012358" lon="10.961917266014618"><ele>586.0</ele><time>2026-04-18T10:05:12.001Z</time></trkpt><trkpt lat="43.43682429778215" lon="10.962088378476926"><ele>586.0</ele><time>2026-04-18T10:05:13.001Z</time></trkpt><trkpt lat="43.436796402140786" lon="10.962261504833108"><ele>586.0</ele><time>2026-04-18T10:05:14.001Z</time></trkpt><trkpt lat="43.436779118689536" lon="10.962440036617046"><ele>586.0</ele><time>2026-04-18T10:05:15.001Z</time></trkpt><trkpt lat="43.43672698836357" lon="10.962596898740335"><ele>586.25</ele><time>2026-04-18T10:05:16.001Z</time></trkpt><trkpt lat="43.43666296472693" lon="10.962744457679351"><ele>586.5</ele><time>2026-04-18T10:05:17.001Z</time></trkpt><trkpt lat="43.43656799656997" lon="10.962843172650711"><ele>586.75</ele><time>2026-04-18T10:05:18.001Z</time></trkpt><trkpt lat="43.43647078293128" lon="10.962940334006326"><ele>587.0</ele><time>2026-04-18T10:05:19.001Z</time></trkpt><trkpt lat="43.436379323362125" lon="10.963048069293892"><ele>586.75</ele><time>2026-04-18T10:05:20.001Z</time></trkpt><trkpt lat="43.436276840064906" lon="10.963131976754005"><ele>586.5</ele><time>2026-04-18T10:05:21.001Z</time></trkpt><trkpt lat="43.436181164392465" lon="10.963231470156256"><ele>586.25</ele><time>2026-04-18T10:05:22.001Z</time></trkpt><trkpt lat="43.43607998043053" lon="10.9633327817563"><ele>586.0</ele><time>2026-04-18T10:05:23.001Z</time></trkpt><trkpt lat="43.435993116074584" lon="10.963465480264006"><ele>586.0</ele><time>2026-04-18T10:05:24.001Z</time></trkpt><trkpt lat="43.43591230237587" lon="10.96360367136308"><ele>586.0</ele><time>2026-04-18T10:05:25.001Z</time></trkpt><trkpt lat="43.435851054654464" lon="10.963757844853655"><ele>586.0</ele><time>2026-04-18T10:05:26.001Z</time></trkpt><trkpt lat="43.4357728431953" lon="10.963892033892057"><ele>586.0</ele><time>2026-04-18T10:05:27.001Z</time></trkpt><trkpt lat="43.43573835712772" lon="10.964060912793213"><ele>583.0</ele><time>2026-04-18T10:05:28.001Z</time></trkpt><trkpt lat="43.435693336201226" lon="10.96421923507227"><ele>580.0</ele><time>2026-04-18T10:05:29.001Z</time></trkpt><trkpt lat="43.43564263938702" lon="10.96437341249361"><ele>577.0</ele><time>2026-04-18T10:05:30.001Z</time></trkpt><trkpt lat="43.43557845429908" lon="10.964522964281871"><ele>574.0</ele><time>2026-04-18T10:05:31.001Z</time></trkpt><trkpt lat="43.43550250694984" lon="10.96466416188897"><ele>574.5</ele><time>2026-04-18T10:05:32.001Z</time></trkpt><trkpt lat="43.43541871495568" lon="10.96480471643791"><ele>575.0</ele><time>2026-04-18T10:05:33.001Z</time></trkpt><trkpt lat="43.43533459543257" lon="10.96495126535921"><ele>575.5</ele><time>2026-04-18T10:05:34.001Z</time></trkpt><trkpt lat="43.43524441941803" lon="10.965092824604572"><ele>576.0</ele><time>2026-04-18T10:05:35.001Z</time></trkpt><trkpt lat="43.4351687035587" lon="10.965248388380425"><ele>576.0</ele><time>2026-04-18T10:05:36.001Z</time></trkpt><trkpt lat="43.43509948791246" lon="10.965405677983545"><ele>576.0</ele><time>2026-04-18T10:05:37.001Z</time></trkpt><trkpt lat="43.43503535896806" lon="10.96556617801066"><ele>576.0</ele><time>2026-04-18T10:05:38.001Z</time></trkpt><trkpt lat="43.43496785627656" lon="10.965711344948781"><ele>576.0</ele><time>2026-04-18T10:05:39.001Z</time></trkpt><trkpt lat="43.43488870446079" lon="10.965839274436423"><ele>574.0</ele><time>2026-04-18T10:05:40.001Z</time></trkpt><trkpt lat="43.434799752879954" lon="10.965951178980873"><ele>572.0</ele><time>2026-04-18T10:05:41.001Z</time></trkpt><trkpt lat="43.434708103030374" lon="10.966054112411848"><ele>570.0</ele><time>2026-04-18T10:05:42.001Z</time></trkpt><trkpt lat="43.43461740987457" lon="10.96616544798981"><ele>568.0</ele><time>2026-04-18T10:05:43.001Z</time></trkpt><trkpt lat="43.43453154618144" lon="10.966288537242672"><ele>568.0</ele><time>2026-04-18T10:05:44.001Z</time></trkpt><trkpt lat="43.43443669892149" lon="10.966408635826163"><ele>568.0</ele><time>2026-04-18T10:05:45.001Z</time></trkpt><trkpt lat="43.43438038619095" lon="10.96657086512713"><ele>568.0</ele><time>2026-04-18T10:05:46.001Z</time></trkpt><trkpt lat="43.434299724798336" lon="10.966717809159999"><ele>568.0</ele><time>2026-04-18T10:05:47.001Z</time></trkpt><trkpt lat="43.43420937677544" lon="10.966852514080076"><ele>566.75</ele><time>2026-04-18T10:05:48.001Z</time></trkpt><trkpt lat="43.43410576854551" lon="10.966974910002907"><ele>565.5</ele><time>2026-04-18T10:05:49.001Z</time></trkpt><trkpt lat="43.43399152453116" lon="10.967083772080937"><ele>564.25</ele><time>2026-04-18T10:05:50.001Z</time></trkpt><trkpt lat="43.433868325208415" lon="10.967179699872556"><ele>563.0</ele><time>2026-04-18T10:05:51.001Z</time></trkpt><trkpt lat="43.43373707643488" lon="10.967268252785367"><ele>562.5</ele><time>2026-04-18T10:05:52.001Z</time></trkpt><trkpt lat="43.433603050804365" lon="10.967351509705363"><ele>562.0</ele><time>2026-04-18T10:05:53.001Z</time></trkpt><trkpt lat="43.43346850938656" lon="10.967439845828403"><ele>561.5</ele><time>2026-04-18T10:05:54.001Z</time></trkpt><trkpt lat="43.433336927224" lon="10.967534490448807"><ele>561.0</ele><time>2026-04-18T10:05:55.001Z</time></trkpt><trkpt lat="43.43320454485889" lon="10.967627473056544"><ele>560.75</ele><time>2026-04-18T10:05:56.001Z</time></trkpt><trkpt lat="43.43307321966207" lon="10.96771556611879"><ele>560.5</ele><time>2026-04-18T10:05:57.001Z</time></trkpt><trkpt lat="43.432947271111296" lon="10.967787497377712"><ele>560.25</ele><time>2026-04-18T10:05:58.001Z</time></trkpt><trkpt lat="43.43282200732818" lon="10.967829644267377"><ele>560.0</ele><time>2026-04-18T10:05:59.001Z</time></trkpt><trkpt lat="43.43270653604696" lon="10.967860680803899"><ele>560.0</ele><time>2026-04-18T10:06:00.001Z</time></trkpt><trkpt lat="43.43259852138917" lon="10.967914186615879"><ele>560.0</ele><time>2026-04-18T10:06:01.001Z</time></trkpt><trkpt lat="43.432505568743636" lon="10.968015942349968"><ele>560.0</ele><time>2026-04-18T10:06:02.001Z</time></trkpt><trkpt lat="43.432427846356184" lon="10.968130856834149"><ele>560.0</ele><time>2026-04-18T10:06:03.001Z</time></trkpt><trkpt lat="43.43234812052674" lon="10.968261009716345"><ele>560.0</ele><time>2026-04-18T10:06:04.001Z</time></trkpt><trkpt lat="43.43225780685278" lon="10.968358799903989"><ele>560.0</ele><time>2026-04-18T10:06:05.001Z</time></trkpt><trkpt lat="43.43217072693896" lon="10.968458597140264"><ele>560.0</ele><time>2026-04-18T10:06:06.001Z</time></trkpt><trkpt lat="43.432075156201385" lon="10.96852318824956"><ele>560.0</ele><time>2026-04-18T10:06:07.001Z</time></trkpt><trkpt lat="43.431963111455914" lon="10.968534025931195"><ele>560.0</ele><time>2026-04-18T10:06:08.001Z</time></trkpt><trkpt lat="43.43184326542778" lon="10.968507979973387"><ele>558.25</ele><time>2026-04-18T10:06:09.002Z</time></trkpt><trkpt lat="43.43171838443904" lon="10.968479159117074"><ele>556.5</ele><time>2026-04-18T10:06:10.002Z</time></trkpt><trkpt lat="43.43158899880008" lon="10.968442366293532"><ele>554.75</ele><time>2026-04-18T10:06:11.002Z</time></trkpt><trkpt lat="43.43146320239707" lon="10.968390839133587"><ele>553.0</ele><time>2026-04-18T10:06:12.002Z</time></trkpt><trkpt lat="43.431341568659754" lon="10.96831928375972"><ele>551.75</ele><time>2026-04-18T10:06:13.002Z</time></trkpt><trkpt lat="43.43121927931199" lon="10.968243555108002"><ele>550.5</ele><time>2026-04-18T10:06:14.002Z</time></trkpt><trkpt lat="43.43110070349422" lon="10.968174605906432"><ele>549.25</ele><time>2026-04-18T10:06:15.002Z</time></trkpt><trkpt lat="43.43098028122627" lon="10.968134846386393"><ele>548.0</ele><time>2026-04-18T10:06:16.002Z</time></trkpt><trkpt lat="43.430864555571034" lon="10.968105811198035"><ele>548.0</ele><time>2026-04-18T10:06:17.002Z</time></trkpt><trkpt lat="43.430746346480376" lon="10.968084470677317"><ele>548.0</ele><time>2026-04-18T10:06:18.002Z</time></trkpt><trkpt lat="43.43062786176596" lon="10.968081830111107"><ele>548.0</ele><time>2026-04-18T10:06:19.002Z</time></trkpt><trkpt lat="43.43051384426467" lon="10.968109713334297"><ele>548.0</ele><time>2026-04-18T10:06:20.002Z</time></trkpt><trkpt lat="43.43040563308035" lon="10.968172238566371"><ele>545.5</ele><time>2026-04-18T10:06:21.002Z</time></trkpt><trkpt lat="43.43030499274727" lon="10.968267159640757"><ele>543.0</ele><time>2026-04-18T10:06:22.002Z</time></trkpt><trkpt lat="43.43019792616714" lon="10.96835522420472"><ele>540.5</ele><time>2026-04-18T10:06:23.002Z</time></trkpt><trkpt lat="43.43009875319506" lon="10.968465051950288"><ele>538.0</ele><time>2026-04-18T10:06:24.002Z</time></trkpt><trkpt lat="43.430004849032244" lon="10.968592958343706"><ele>538.0</ele><time>2026-04-18T10:06:25.002Z</time></trkpt><trkpt lat="43.42990029193612" lon="10.968710244870657"><ele>538.0</ele><time>2026-04-18T10:06:26.002Z</time></trkpt><trkpt lat="43.42978467365103" lon="10.968812875364037"><ele>538.0</ele><time>2026-04-18T10:06:27.002Z</time></trkpt><trkpt lat="43.42968934758175" lon="10.968959292906417"><ele>538.0</ele><time>2026-04-18T10:06:28.002Z</time></trkpt><trkpt lat="43.429623292076485" lon="10.96913649938846"><ele>536.25</ele><time>2026-04-18T10:06:29.002Z</time></trkpt><trkpt lat="43.42954231647822" lon="10.969296778014204"><ele>534.5</ele><time>2026-04-18T10:06:30.002Z</time></trkpt><trkpt lat="43.429464878271695" lon="10.969459736726584"><ele>532.75</ele><time>2026-04-18T10:06:31.002Z</time></trkpt><trkpt lat="43.429388482993446" lon="10.969621214768374"><ele>531.0</ele><time>2026-04-18T10:06:32.002Z</time></trkpt><trkpt lat="43.429297834581405" lon="10.969764544802306"><ele>531.0</ele><time>2026-04-18T10:06:33.002Z</time></trkpt><trkpt lat="43.429237879079075" lon="10.969928139768514"><ele>531.0</ele><time>2026-04-18T10:06:34.002Z</time></trkpt><trkpt lat="43.429156599157146" lon="10.970052791477375"><ele>531.0</ele><time>2026-04-18T10:06:35.002Z</time></trkpt><trkpt lat="43.42906891191889" lon="10.970146433369889"><ele>531.0</ele><time>2026-04-18T10:06:36.002Z</time></trkpt><trkpt lat="43.42896514185294" lon="10.970213090504254"><ele>531.25</ele><time>2026-04-18T10:06:37.002Z</time></trkpt><trkpt lat="43.42884871175048" lon="10.970253370741396"><ele>531.5</ele><time>2026-04-18T10:06:38.002Z</time></trkpt><trkpt lat="43.42872400254053" lon="10.97028084699732"><ele>531.75</ele><time>2026-04-18T10:06:39.002Z</time></trkpt><trkpt lat="43.42859881452519" lon="10.970307663624665"><ele>532.0</ele><time>2026-04-18T10:06:40.002Z</time></trkpt><trkpt lat="43.42847458980224" lon="10.970331246545696"><ele>531.0</ele><time>2026-04-18T10:06:41.002Z</time></trkpt><trkpt lat="43.42835810175347" lon="10.970358565469494"><ele>530.0</ele><time>2026-04-18T10:06:42.002Z</time></trkpt><trkpt lat="43.42825511314832" lon="10.97039080157501"><ele>529.0</ele><time>2026-04-18T10:06:43.002Z</time></trkpt><trkpt lat="43.42816745568009" lon="10.970446717470248"><ele>528.0</ele><time>2026-04-18T10:06:44.002Z</time></trkpt><trkpt lat="43.428092487082324" lon="10.970527367339683"><ele>527.0</ele><time>2026-04-18T10:06:45.002Z</time></trkpt><trkpt lat="43.42805755704584" lon="10.970652320218367"><ele>527.0</ele><time>2026-04-18T10:06:46.002Z</time></trkpt><trkpt lat="43.4280523164723" lon="10.970791325194096"><ele>527.0</ele><time>2026-04-18T10:06:47.002Z</time></trkpt><trkpt lat="43.42807043184804" lon="10.970933787297938"><ele>527.0</ele><time>2026-04-18T10:06:48.002Z</time></trkpt><trkpt lat="43.42807896496856" lon="10.971086505818352"><ele>527.0</ele><time>2026-04-18T10:06:49.002Z</time></trkpt><trkpt lat="43.42808655408133" lon="10.97124815795094"><ele>527.0</ele><time>2026-04-18T10:06:50.002Z</time></trkpt><trkpt lat="43.42809148953862" lon="10.97141217070666"><ele>526.25</ele><time>2026-04-18T10:06:51.002Z</time></trkpt><trkpt lat="43.42808538700142" lon="10.97157535057653"><ele>525.5</ele><time>2026-04-18T10:06:52.002Z</time></trkpt><trkpt lat="43.428032076783715" lon="10.971722839940329"><ele>524.75</ele><time>2026-04-18T10:06:53.001Z</time></trkpt><trkpt lat="43.42796898685532" lon="10.971862471962085"><ele>524.0</ele><time>2026-04-18T10:06:54.001Z</time></trkpt><trkpt lat="43.42789301863776" lon="10.972005511705413"><ele>521.25</ele><time>2026-04-18T10:06:55.001Z</time></trkpt><trkpt lat="43.4278270017974" lon="10.972165682979558"><ele>518.5</ele><time>2026-04-18T10:06:56.001Z</time></trkpt><trkpt lat="43.42773678599272" lon="10.97231504990863"><ele>515.75</ele><time>2026-04-18T10:06:57.001Z</time></trkpt><trkpt lat="43.42764165748848" lon="10.972465533969482"><ele>513.0</ele><time>2026-04-18T10:06:58.001Z</time></trkpt><trkpt lat="43.42754305122285" lon="10.972621232752216"><ele>512.6666666666666</ele><time>2026-04-18T10:06:59.001Z</time></trkpt><trkpt lat="43.42743575185783" lon="10.972775071093947"><ele>512.3333333333333</ele><time>2026-04-18T10:07:00.001Z</time></trkpt><trkpt lat="43.42732196390486" lon="10.97292360148527"><ele>512.0</ele><time>2026-04-18T10:07:01.001Z</time></trkpt><trkpt lat="43.42720981791672" lon="10.97307180702677"><ele>511.66666666666663</ele><time>2026-04-18T10:07:02.001Z</time></trkpt><trkpt lat="43.427097408810184" lon="10.973216848334555"><ele>511.33333333333337</ele><time>2026-04-18T10:07:03Z</time></trkpt><trkpt lat="43.42698259948963" lon="10.973354027846126"><ele>511.0</ele><time>2026-04-18T10:07:04.001Z</time></trkpt><trkpt lat="43.426864319571216" lon="10.973475470449605"><ele>510.75</ele><time>2026-04-18T10:07:05Z</time></trkpt><trkpt lat="43.426743282147065" lon="10.973580771309772"><ele>510.5</ele><time>2026-04-18T10:07:06Z</time></trkpt><trkpt lat="43.42661305907817" lon="10.973663811007167"><ele>510.25</ele><time>2026-04-18T10:07:07Z</time></trkpt><trkpt lat="43.42647068077249" lon="10.973698383115172"><ele>510.0</ele><time>2026-04-18T10:07:08Z</time></trkpt><trkpt lat="43.426331149515775" lon="10.973750755218695"><ele>509.5</ele><time>2026-04-18T10:07:09.001Z</time></trkpt><trkpt lat="43.42618922015621" lon="10.973761954415274"><ele>509.0</ele><time>2026-04-18T10:07:10.001Z</time></trkpt><trkpt lat="43.42606000480634" lon="10.973747747369549"><ele>508.5</ele><time>2026-04-18T10:07:11.001Z</time></trkpt><trkpt lat="43.42595070374961" lon="10.973689661039257"><ele>508.0</ele><time>2026-04-18T10:07:12.001Z</time></trkpt><trkpt lat="43.425878572537975" lon="10.97356552636417"><ele>508.0</ele><time>2026-04-18T10:07:13.001Z</time></trkpt><trkpt lat="43.42579717677569" lon="10.973460067449277"><ele>508.0</ele><time>2026-04-18T10:07:14.001Z</time></trkpt><trkpt lat="43.4257131191352" lon="10.97335729715097"><ele>508.0</ele><time>2026-04-18T10:07:15.001Z</time></trkpt><trkpt lat="43.42560035375775" lon="10.973289872683651"><ele>508.0</ele><time>2026-04-18T10:07:16.001Z</time></trkpt><trkpt lat="43.42547531357451" lon="10.973274887585221"><ele>506.0</ele><time>2026-04-18T10:07:17.001Z</time></trkpt><trkpt lat="43.425360688613644" lon="10.973262784082655"><ele>503.99999999999994</ele><time>2026-04-18T10:07:18.001Z</time></trkpt><trkpt lat="43.425258716745105" lon="10.973285307178218"><ele>501.99999999999994</ele><time>2026-04-18T10:07:19.001Z</time></trkpt><trkpt lat="43.4251700933338" lon="10.973343079126188"><ele>500.0</ele><time>2026-04-18T10:07:20.001Z</time></trkpt><trkpt lat="43.425100024130145" lon="10.973441265854538"><ele>498.0</ele><time>2026-04-18T10:07:21.001Z</time></trkpt><trkpt lat="43.42505879894266" lon="10.973569381714938"><ele>498.0</ele><time>2026-04-18T10:07:22.001Z</time></trkpt><trkpt lat="43.42504272984814" lon="10.97371360290892"><ele>498.0</ele><time>2026-04-18T10:07:23.001Z</time></trkpt><trkpt lat="43.42503350743607" lon="10.973864387275828"><ele>498.0</ele><time>2026-04-18T10:07:24.001Z</time></trkpt><trkpt lat="43.42502839615182" lon="10.974027076706513"><ele>498.0</ele><time>2026-04-18T10:07:25.001Z</time></trkpt><trkpt lat="43.42500634816159" lon="10.97419641194376"><ele>497.0</ele><time>2026-04-18T10:07:26.001Z</time></trkpt><trkpt lat="43.42496268502794" lon="10.974357033058949"><ele>496.0</ele><time>2026-04-18T10:07:27.001Z</time></trkpt><trkpt lat="43.42490865216575" lon="10.97451669330751"><ele>495.0</ele><time>2026-04-18T10:07:28.001Z</time></trkpt><trkpt lat="43.42484703216052" lon="10.974676360606946"><ele>494.0</ele><time>2026-04-18T10:07:29.001Z</time></trkpt><trkpt lat="43.42478286720284" lon="10.974830673680442"><ele>494.0</ele><time>2026-04-18T10:07:30.001Z</time></trkpt><trkpt lat="43.42471793823801" lon="10.974972438645914"><ele>494.0</ele><time>2026-04-18T10:07:31.001Z</time></trkpt><trkpt lat="43.42464792845213" lon="10.975090928326667"><ele>494.0</ele><time>2026-04-18T10:07:32.001Z</time></trkpt><trkpt lat="43.42456149553933" lon="10.975185434149969"><ele>494.0</ele><time>2026-04-18T10:07:33.001Z</time></trkpt><trkpt lat="43.42446127053517" lon="10.97526181352695"><ele>493.75</ele><time>2026-04-18T10:07:34.001Z</time></trkpt><trkpt lat="43.42435002620526" lon="10.97531885419576"><ele>493.5</ele><time>2026-04-18T10:07:35.001Z</time></trkpt><trkpt lat="43.42423447610861" lon="10.975367281311472"><ele>493.25</ele><time>2026-04-18T10:07:36.001Z</time></trkpt><trkpt lat="43.424118079142445" lon="10.975422623044977"><ele>493.0</ele><time>2026-04-18T10:07:37.001Z</time></trkpt><trkpt lat="43.42399881163719" lon="10.97547846766006"><ele>493.0</ele><time>2026-04-18T10:07:38.001Z</time></trkpt><trkpt lat="43.42388264341644" lon="10.975533980563421"><ele>493.0</ele><time>2026-04-18T10:07:39.001Z</time></trkpt><trkpt lat="43.42376991635399" lon="10.975589247331982"><ele>493.0</ele><time>2026-04-18T10:07:40.001Z</time></trkpt><trkpt lat="43.423665420138704" lon="10.9756560227892"><ele>493.0</ele><time>2026-04-18T10:07:41.001Z</time></trkpt><trkpt lat="43.42356384432103" lon="10.975732292244055"><ele>493.25</ele><time>2026-04-18T10:07:42.001Z</time></trkpt><trkpt lat="43.423461337505415" lon="10.975814606807551"><ele>493.5</ele><time>2026-04-18T10:07:43.001Z</time></trkpt><trkpt lat="43.423355652414244" lon="10.975906815800295"><ele>493.75</ele><time>2026-04-18T10:07:44.001Z</time></trkpt><trkpt lat="43.423246977589635" lon="10.975997619783406"><ele>494.0</ele><time>2026-04-18T10:07:45.001Z</time></trkpt><trkpt lat="43.42313299684086" lon="10.97608073822275"><ele>494.5</ele><time>2026-04-18T10:07:46.001Z</time></trkpt><trkpt lat="43.42301395260108" lon="10.97615642427684"><ele>495.0</ele><time>2026-04-18T10:07:47.001Z</time></trkpt><trkpt lat="43.42289132217732" lon="10.976219366375323"><ele>495.5</ele><time>2026-04-18T10:07:48.001Z</time></trkpt><trkpt lat="43.42276975339103" lon="10.97626525729351"><ele>496.0</ele><time>2026-04-18T10:07:49.001Z</time></trkpt><trkpt lat="43.42264869005757" lon="10.976291241998242"><ele>496.0</ele><time>2026-04-18T10:07:50.001Z</time></trkpt><trkpt lat="43.422530889868476" lon="10.976285420425418"><ele>496.0</ele><time>2026-04-18T10:07:51.001Z</time></trkpt><trkpt lat="43.42242009130055" lon="10.976246834950594"><ele>496.0</ele><time>2026-04-18T10:07:52.001Z</time></trkpt><trkpt lat="43.42232267085302" lon="10.976167687020988"><ele>496.0</ele><time>2026-04-18T10:07:53.001Z</time></trkpt><trkpt lat="43.42223564757853" lon="10.976072246228615"><ele>496.0</ele><time>2026-04-18T10:07:54.001Z</time></trkpt><trkpt lat="43.422158134086494" lon="10.975969013845539"><ele>496.0</ele><time>2026-04-18T10:07:55.001Z</time></trkpt><trkpt lat="43.42207892038374" lon="10.975877608725574"><ele>496.0</ele><time>2026-04-18T10:07:56.001Z</time></trkpt><trkpt lat="43.42199926877223" lon="10.975805056846058"><ele>496.0</ele><time>2026-04-18T10:07:57.001Z</time></trkpt><trkpt lat="43.421913007582184" lon="10.975767596280003"><ele>496.0</ele><time>2026-04-18T10:07:58.001Z</time></trkpt><trkpt lat="43.42182262941297" lon="10.975766163049844"><ele>498.20000000000005</ele><time>2026-04-18T10:07:59.001Z</time></trkpt><trkpt lat="43.42173222414082" lon="10.975787629553384"><ele>500.40000000000003</ele><time>2026-04-18T10:08:00.001Z</time></trkpt><trkpt lat="43.42163913930589" lon="10.975817329134168"><ele>502.6</ele><time>2026-04-18T10:08:01.001Z</time></trkpt><trkpt lat="43.42154569629862" lon="10.975845987396918"><ele>504.8</ele><time>2026-04-18T10:08:02.001Z</time></trkpt><trkpt lat="43.42144957378601" lon="10.975873880021274"><ele>507.0</ele><time>2026-04-18T10:08:03.001Z</time></trkpt><trkpt lat="43.4213521329223" lon="10.975897628186237"><ele>508.0</ele><time>2026-04-18T10:08:04.001Z</time></trkpt><trkpt lat="43.42125035884992" lon="10.975913215170225"><ele>509.00000000000006</ele><time>2026-04-18T10:08:05.001Z</time></trkpt><trkpt lat="43.42114462564397" lon="10.975905966980426"><ele>510.00000000000006</ele><time>2026-04-18T10:08:06.001Z</time></trkpt><trkpt lat="43.421037801172915" lon="10.975882497608195"><ele>511.0</ele><time>2026-04-18T10:08:07.001Z</time></trkpt><trkpt lat="43.42092939897462" lon="10.97583814221489"><ele>512.0</ele><time>2026-04-18T10:08:08.001Z</time></trkpt><trkpt lat="43.42081939400295" lon="10.975788436568756"><ele>512.0</ele><time>2026-04-18T10:08:09.001Z</time></trkpt><trkpt lat="43.42070422109395" lon="10.97575758633222"><ele>512.0</ele><time>2026-04-18T10:08:10.001Z</time></trkpt><trkpt lat="43.420592713569924" lon="10.97571046930402"><ele>512.0</ele><time>2026-04-18T10:08:11.001Z</time></trkpt><trkpt lat="43.420474816473515" lon="10.975703320432002"><ele>512.0</ele><time>2026-04-18T10:08:12.001Z</time></trkpt><trkpt lat="43.42036086223976" lon="10.975726440356315"><ele>513.25</ele><time>2026-04-18T10:08:13.001Z</time></trkpt><trkpt lat="43.42024727586929" lon="10.975732678877366"><ele>514.5</ele><time>2026-04-18T10:08:14.001Z</time></trkpt><trkpt lat="43.420134347703794" lon="10.97574525363149"><ele>515.75</ele><time>2026-04-18T10:08:15.002Z</time></trkpt><trkpt lat="43.420017677664404" lon="10.975770577600336"><ele>517.0</ele><time>2026-04-18T10:08:16.002Z</time></trkpt><trkpt lat="43.4198922399042" lon="10.975785470978861"><ele>517.0</ele><time>2026-04-18T10:08:17.002Z</time></trkpt><trkpt lat="43.41976890972862" lon="10.975842972811524"><ele>517.0</ele><time>2026-04-18T10:08:18.002Z</time></trkpt><trkpt lat="43.41963949055178" lon="10.975905203151193"><ele>517.0</ele><time>2026-04-18T10:08:19.002Z</time></trkpt><trkpt lat="43.41950486219969" lon="10.975972740189555"><ele>517.0</ele><time>2026-04-18T10:08:20.002Z</time></trkpt><trkpt lat="43.41936772318253" lon="10.976041820081226"><ele>517.5</ele><time>2026-04-18T10:08:21.002Z</time></trkpt><trkpt lat="43.41922907139606" lon="10.976109634726916"><ele>518.0</ele><time>2026-04-18T10:08:22.002Z</time></trkpt><trkpt lat="43.41909830014532" lon="10.97619899441666"><ele>518.5</ele><time>2026-04-18T10:08:23.002Z</time></trkpt><trkpt lat="43.41897309545135" lon="10.976259967186124"><ele>519.0</ele><time>2026-04-18T10:08:24.002Z</time></trkpt><trkpt lat="43.4188580710872" lon="10.976297097106864"><ele>520.0</ele><time>2026-04-18T10:08:25.002Z</time></trkpt><trkpt lat="43.41875333693827" lon="10.97629850811598"><ele>521.0</ele><time>2026-04-18T10:08:26.002Z</time></trkpt><trkpt lat="43.418666989925576" lon="10.976229585692161"><ele>522.0</ele><time>2026-04-18T10:08:27.002Z</time></trkpt><trkpt lat="43.41858871481656" lon="10.976148135660269"><ele>523.0</ele><time>2026-04-18T10:08:28.002Z</time></trkpt><trkpt lat="43.4184968617716" lon="10.976088769016268"><ele>524.0</ele><time>2026-04-18T10:08:29.002Z</time></trkpt><trkpt lat="43.418404262259706" lon="10.97602891853482"><ele>524.0</ele><time>2026-04-18T10:08:30.002Z</time></trkpt><trkpt lat="43.41830082155329" lon="10.976000736812988"><ele>524.0</ele><time>2026-04-18T10:08:31.002Z</time></trkpt><trkpt lat="43.418194433543036" lon="10.9759965114839"><ele>524.0</ele><time>2026-04-18T10:08:32.002Z</time></trkpt><trkpt lat="43.418085918400664" lon="10.976017345870634"><ele>524.0</ele><time>2026-04-18T10:08:33.002Z</time></trkpt><trkpt lat="43.417974908013655" lon="10.976051134638782"><ele>524.0</ele><time>2026-04-18T10:08:34.002Z</time></trkpt><trkpt lat="43.41786271100332" lon="10.976080295877399"><ele>524.6</ele><time>2026-04-18T10:08:35.002Z</time></trkpt><trkpt lat="43.41775450912346" lon="10.976090402693693"><ele>525.2</ele><time>2026-04-18T10:08:36.002Z</time></trkpt><trkpt lat="43.417653470254166" lon="10.976100735617683"><ele>525.8000000000001</ele><time>2026-04-18T10:08:37.002Z</time></trkpt><trkpt lat="43.41756562528694" lon="10.976119757104426"><ele>526.4</ele><time>2026-04-18T10:08:38.002Z</time></trkpt><trkpt lat="43.41748726488893" lon="10.976163636911503"><ele>527.0</ele><time>2026-04-18T10:08:39.002Z</time></trkpt><trkpt lat="43.41741479329794" lon="10.976227726431272"><ele>527.0</ele><time>2026-04-18T10:08:40.002Z</time></trkpt><trkpt lat="43.417347858469526" lon="10.976306434020982"><ele>527.0</ele><time>2026-04-18T10:08:41.002Z</time></trkpt><trkpt lat="43.41727247973646" lon="10.976363687390148"><ele>527.0</ele><time>2026-04-18T10:08:42.002Z</time></trkpt><trkpt lat="43.4171908750704" lon="10.97638693659235"><ele>527.0</ele><time>2026-04-18T10:08:43.002Z</time></trkpt><trkpt lat="43.41711138520508" lon="10.976376512838952"><ele>527.0</ele><time>2026-04-18T10:08:44.002Z</time></trkpt><trkpt lat="43.417038385886066" lon="10.976342291012598"><ele>527.0</ele><time>2026-04-18T10:08:45.002Z</time></trkpt><trkpt lat="43.41696565683467" lon="10.976306110131159"><ele>526.5</ele><time>2026-04-18T10:08:46.002Z</time></trkpt><trkpt lat="43.416892712106524" lon="10.976276404295803"><ele>526.0</ele><time>2026-04-18T10:08:47.002Z</time></trkpt><trkpt lat="43.416817165684876" lon="10.976256636592312"><ele>525.5</ele><time>2026-04-18T10:08:48.002Z</time></trkpt><trkpt lat="43.416740525238396" lon="10.976252752921857"><ele>525.0</ele><time>2026-04-18T10:08:49.002Z</time></trkpt><trkpt lat="43.41666353323986" lon="10.976261291662276"><ele>524.5</ele><time>2026-04-18T10:08:50.002Z</time></trkpt><trkpt lat="43.416586193384454" lon="10.97628186227897"><ele>524.0</ele><time>2026-04-18T10:08:51.002Z</time></trkpt><trkpt lat="43.41651144655836" lon="10.976319816181196"><ele>524.0</ele><time>2026-04-18T10:08:52.002Z</time></trkpt><trkpt lat="43.41643905007282" lon="10.976368531533701"><ele>524.0</ele><time>2026-04-18T10:08:53.002Z</time></trkpt><trkpt lat="43.41636304694371" lon="10.976407343181462"><ele>524.0</ele><time>2026-04-18T10:08:54.002Z</time></trkpt><trkpt lat="43.4163138816805" lon="10.976500959453457"><ele>524.0</ele><time>2026-04-18T10:08:55.002Z</time></trkpt><trkpt lat="43.41626665149612" lon="10.976586706650508"><ele>524.0</ele><time>2026-04-18T10:08:56.002Z</time></trkpt><trkpt lat="43.416231622622306" lon="10.976686022758994"><ele>524.0</ele><time>2026-04-18T10:08:57.002Z</time></trkpt><trkpt lat="43.41620318275694" lon="10.976792311805767"><ele>524.4285714285714</ele><time>2026-04-18T10:08:58.002Z</time></trkpt><trkpt lat="43.416171495693085" lon="10.976895654334745"><ele>524.8571428571429</ele><time>2026-04-18T10:08:59Z</time></trkpt><trkpt lat="43.41614409785717" lon="10.976996243023626"><ele>525.2857142857143</ele><time>2026-04-18T10:09:00Z</time></trkpt><trkpt lat="43.416103104258745" lon="10.977070361942568"><ele>525.7142857142858</ele><time>2026-04-18T10:09:01Z</time></trkpt><trkpt lat="43.4160804732373" lon="10.977153933845486"><ele>526.1428571428571</ele><time>2026-04-18T10:09:03Z</time></trkpt><trkpt lat="43.416058989879545" lon="10.977062917772685"><ele>526.5714285714287</ele><time>2026-04-18T10:09:12Z</time></trkpt><trkpt lat="43.41609316052059" lon="10.976960681155242"><ele>527.0</ele><time>2026-04-18T10:09:15Z</time></trkpt><trkpt lat="43.4161231610027" lon="10.976859064236608"><ele>527.0</ele><time>2026-04-18T10:09:17.001Z</time></trkpt><trkpt lat="43.41615264177362" lon="10.976755748606484"><ele>527.0</ele><time>2026-04-18T10:09:19.001Z</time></trkpt><trkpt lat="43.41611682550805" lon="10.976622276356444"><ele>527.0</ele><time>2026-04-18T10:09:20.001Z</time></trkpt><trkpt lat="43.41617161352978" lon="10.97648230625764"><ele>527.0</ele><time>2026-04-18T10:09:22.001Z</time></trkpt><trkpt lat="43.41620991280685" lon="10.976320524137591"><ele>527.0</ele><time>2026-04-18T10:09:24.001Z</time></trkpt><trkpt lat="43.41624324956976" lon="10.976236553731798"><ele>526.5</ele><time>2026-04-18T10:09:25.001Z</time></trkpt><trkpt lat="43.41628626696539" lon="10.97614208306906"><ele>526.0</ele><time>2026-04-18T10:09:26.001Z</time></trkpt><trkpt lat="43.416335565434764" lon="10.976045973979119"><ele>525.5</ele><time>2026-04-18T10:09:27.001Z</time></trkpt><trkpt lat="43.41638969785997" lon="10.97596129973334"><ele>525.0</ele><time>2026-04-18T10:09:28.001Z</time></trkpt><trkpt lat="43.41644415859641" lon="10.975883090899218"><ele>524.5</ele><time>2026-04-18T10:09:29.001Z</time></trkpt><trkpt lat="43.41650391980845" lon="10.97581954794831"><ele>524.0</ele><time>2026-04-18T10:09:30.001Z</time></trkpt><trkpt lat="43.41657089410825" lon="10.975760589271683"><ele>522.1428571428571</ele><time>2026-04-18T10:09:31.001Z</time></trkpt><trkpt lat="43.41663909760909" lon="10.975714908512398"><ele>520.2857142857143</ele><time>2026-04-18T10:09:32.001Z</time></trkpt><trkpt lat="43.41670962255383" lon="10.975676117308938"><ele>518.4285714285714</ele><time>2026-04-18T10:09:33.001Z</time></trkpt><trkpt lat="43.416780017981765" lon="10.975642341309284"><ele>516.5714285714286</ele><time>2026-04-18T10:09:34.001Z</time></trkpt><trkpt lat="43.416849235512466" lon="10.975615439309113"><ele>514.7142857142858</ele><time>2026-04-18T10:09:35.001Z</time></trkpt><trkpt lat="43.416916597458915" lon="10.975599365407325"><ele>512.8571428571429</ele><time>2026-04-18T10:09:36.001Z</time></trkpt><trkpt lat="43.416988215003435" lon="10.975585065540951"><ele>511.0</ele><time>2026-04-18T10:09:37.001Z</time></trkpt><trkpt lat="43.41705217061896" lon="10.975562601028885"><ele>511.20000000000005</ele><time>2026-04-18T10:09:38.001Z</time></trkpt><trkpt lat="43.41715496057002" lon="10.975488603231659"><ele>511.40000000000003</ele><time>2026-04-18T10:09:40.001Z</time></trkpt><trkpt lat="43.41725033537889" lon="10.975377922711582"><ele>511.6</ele><time>2026-04-18T10:09:42.001Z</time></trkpt><trkpt lat="43.417303041617686" lon="10.975310594408985"><ele>511.8</ele><time>2026-04-18T10:09:43.001Z</time></trkpt><trkpt lat="43.41736154814538" lon="10.975239589727815"><ele>512.0</ele><time>2026-04-18T10:09:44.001Z</time></trkpt><trkpt lat="43.41742552030429" lon="10.97515942044255"><ele>511.99999999999994</ele><time>2026-04-18T10:09:45.001Z</time></trkpt><trkpt lat="43.41748819869303" lon="10.975080466464922"><ele>512.0</ele><time>2026-04-18T10:09:46.001Z</time></trkpt><trkpt lat="43.41754337328389" lon="10.97501096477519"><ele>512.0</ele><time>2026-04-18T10:09:47.001Z</time></trkpt><trkpt lat="43.41759122942268" lon="10.974950666212623"><ele>512.0</ele><time>2026-04-18T10:09:48.001Z</time></trkpt><trkpt lat="43.41765119167264" lon="10.97484534825229"><ele>511.99999999999994</ele><time>2026-04-18T10:09:50.001Z</time></trkpt><trkpt lat="43.41770938344552" lon="10.974771293989559"><ele>512.0</ele><time>2026-04-18T10:09:52.001Z</time></trkpt><trkpt lat="43.417748569965845" lon="10.974669188747882"><ele>509.20000000000005</ele><time>2026-04-18T10:09:54.001Z</time></trkpt><trkpt lat="43.417751619578176" lon="10.97455555507172"><ele>506.40000000000003</ele><time>2026-04-18T10:09:56.001Z</time></trkpt><trkpt lat="43.417703022745826" lon="10.97443436741034"><ele>503.59999999999997</ele><time>2026-04-18T10:09:58.001Z</time></trkpt><trkpt lat="43.4176522271531" lon="10.974315723962444"><ele>500.79999999999995</ele><time>2026-04-18T10:10:00.001Z</time></trkpt><trkpt lat="43.4175938883094" lon="10.974178510603249"><ele>498.0</ele><time>2026-04-18T10:10:02.001Z</time></trkpt><trkpt lat="43.41755004640859" lon="10.974098678127035"><ele>496.0</ele><time>2026-04-18T10:10:03.001Z</time></trkpt><trkpt lat="43.41750741154131" lon="10.974010189248252"><ele>494.0</ele><time>2026-04-18T10:10:04.001Z</time></trkpt><trkpt lat="43.417464915032426" lon="10.973917546341124"><ele>492.0</ele><time>2026-04-18T10:10:05.001Z</time></trkpt><trkpt lat="43.4174224988268" lon="10.973823166629625"><ele>490.0</ele><time>2026-04-18T10:10:06.001Z</time></trkpt><trkpt lat="43.41737970605726" lon="10.973728844455565"><ele>488.0</ele><time>2026-04-18T10:10:07.001Z</time></trkpt><trkpt lat="43.41733711463232" lon="10.973633950333804"><ele>486.0</ele><time>2026-04-18T10:10:08.001Z</time></trkpt><trkpt lat="43.41729412381896" lon="10.973540647060593"><ele>486.0</ele><time>2026-04-18T10:10:09.001Z</time></trkpt><trkpt lat="43.417252515961174" lon="10.973447437696331"><ele>486.0</ele><time>2026-04-18T10:10:10.001Z</time></trkpt><trkpt lat="43.4172067945405" lon="10.973348585114147"><ele>486.0</ele><time>2026-04-18T10:10:11.001Z</time></trkpt><trkpt lat="43.41716025007979" lon="10.973250918610152"><ele>486.0</ele><time>2026-04-18T10:10:12.001Z</time></trkpt><trkpt lat="43.41711570768415" lon="10.973145870784924"><ele>486.0</ele><time>2026-04-18T10:10:13.001Z</time></trkpt><trkpt lat="43.417092053459626" lon="10.973027559131138"><ele>486.0</ele><time>2026-04-18T10:10:14.001Z</time></trkpt><trkpt lat="43.41704239862423" lon="10.97292244729"><ele>484.3333333333333</ele><time>2026-04-18T10:10:15.002Z</time></trkpt><trkpt lat="43.41701015726427" lon="10.972811968932255"><ele>482.66666666666663</ele><time>2026-04-18T10:10:16.002Z</time></trkpt><trkpt lat="43.41697850131647" lon="10.972703256906563"><ele>481.0</ele><time>2026-04-18T10:10:17.002Z</time></trkpt><trkpt lat="43.41694827277178" lon="10.97259458439254"><ele>479.3333333333333</ele><time>2026-04-18T10:10:18.002Z</time></trkpt><trkpt lat="43.41693493291477" lon="10.972476936007427"><ele>477.66666666666663</ele><time>2026-04-18T10:10:19.002Z</time></trkpt><trkpt lat="43.41690684095756" lon="10.972368180442917"><ele>476.0</ele><time>2026-04-18T10:10:20.002Z</time></trkpt><trkpt lat="43.41687943054315" lon="10.972262063415258"><ele>475.8333333333333</ele><time>2026-04-18T10:10:21.002Z</time></trkpt><trkpt lat="43.416834694105155" lon="10.972157137942038"><ele>475.66666666666663</ele><time>2026-04-18T10:10:22.002Z</time></trkpt><trkpt lat="43.416811659523596" lon="10.972046014894278"><ele>475.5</ele><time>2026-04-18T10:10:23.002Z</time></trkpt><trkpt lat="43.41678157833233" lon="10.971937484347174"><ele>475.33333333333337</ele><time>2026-04-18T10:10:24.002Z</time></trkpt><trkpt lat="43.41675186046412" lon="10.971821299479037"><ele>475.1666666666667</ele><time>2026-04-18T10:10:25.002Z</time></trkpt><trkpt lat="43.41671390903983" lon="10.971708755250614"><ele>475.0</ele><time>2026-04-18T10:10:26.002Z</time></trkpt><trkpt lat="43.416675990731996" lon="10.971590801036267"><ele>475.6</ele><time>2026-04-18T10:10:27.002Z</time></trkpt><trkpt lat="43.41662863612383" lon="10.971476186913094"><ele>476.2</ele><time>2026-04-18T10:10:28.002Z</time></trkpt><trkpt lat="43.41657900704822" lon="10.971364131884595"><ele>476.79999999999995</ele><time>2026-04-18T10:10:29.002Z</time></trkpt><trkpt lat="43.41652887936319" lon="10.971250020549604"><ele>477.4</ele><time>2026-04-18T10:10:30.002Z</time></trkpt><trkpt lat="43.41647650865131" lon="10.971137726595028"><ele>478.0</ele><time>2026-04-18T10:10:31.002Z</time></trkpt><trkpt lat="43.41642039743276" lon="10.97102706283673"><ele>478.0</ele><time>2026-04-18T10:10:32.002Z</time></trkpt><trkpt lat="43.416366281819954" lon="10.970915799357156"><ele>477.99999999999994</ele><time>2026-04-18T10:10:33.002Z</time></trkpt><trkpt lat="43.416306086524116" lon="10.97080021265393"><ele>477.99999999999994</ele><time>2026-04-18T10:10:34.002Z</time></trkpt><trkpt lat="43.41624173287884" lon="10.97068173119903"><ele>478.0</ele><time>2026-04-18T10:10:35.002Z</time></trkpt><trkpt lat="43.41617735743684" lon="10.970558308535944"><ele>478.0</ele><time>2026-04-18T10:10:36.002Z</time></trkpt><trkpt lat="43.41610765911034" lon="10.970435849357917"><ele>478.5</ele><time>2026-04-18T10:10:37.002Z</time></trkpt><trkpt lat="43.416037338284944" lon="10.970310837578594"><ele>479.0</ele><time>2026-04-18T10:10:38.002Z</time></trkpt><trkpt lat="43.41596852792335" lon="10.97018571988598"><ele>479.5</ele><time>2026-04-18T10:10:39.002Z</time></trkpt><trkpt lat="43.415895594156815" lon="10.970058454414897"><ele>480.0</ele><time>2026-04-18T10:10:40.002Z</time></trkpt><trkpt lat="43.41581967355083" lon="10.969921620687035"><ele>480.0</ele><time>2026-04-18T10:10:41.002Z</time></trkpt><trkpt lat="43.41574664352549" lon="10.969786894276742"><ele>480.0</ele><time>2026-04-18T10:10:42.002Z</time></trkpt><trkpt lat="43.415673039937936" lon="10.969650817957046"><ele>480.0</ele><time>2026-04-18T10:10:43.002Z</time></trkpt><trkpt lat="43.41560289248775" lon="10.969515045751706"><ele>480.0</ele><time>2026-04-18T10:10:44.002Z</time></trkpt><trkpt lat="43.41555969593039" lon="10.969356493750537"><ele>480.0</ele><time>2026-04-18T10:10:45.002Z</time></trkpt><trkpt lat="43.41551696045957" lon="10.969208434929296"><ele>480.0</ele><time>2026-04-18T10:10:46.002Z</time></trkpt><trkpt lat="43.415504023778794" lon="10.969059256038607"><ele>480.0</ele><time>2026-04-18T10:10:47.002Z</time></trkpt><trkpt lat="43.41550507884245" lon="10.968899325764877"><ele>480.0</ele><time>2026-04-18T10:10:48.002Z</time></trkpt><trkpt lat="43.415508275055856" lon="10.968732163916025"><ele>479.0</ele><time>2026-04-18T10:10:49.002Z</time></trkpt><trkpt lat="43.41549777263681" lon="10.96856220064299"><ele>478.0</ele><time>2026-04-18T10:10:50.002Z</time></trkpt><trkpt lat="43.41550853261333" lon="10.968378381787375"><ele>477.0</ele><time>2026-04-18T10:10:51.002Z</time></trkpt><trkpt lat="43.41553455882733" lon="10.968203272812989"><ele>476.0</ele><time>2026-04-18T10:10:52.002Z</time></trkpt><trkpt lat="43.41553116327054" lon="10.968020545399282"><ele>476.0</ele><time>2026-04-18T10:10:53.002Z</time></trkpt><trkpt lat="43.41555082348495" lon="10.967848477936235"><ele>476.0</ele><time>2026-04-18T10:10:54.002Z</time></trkpt><trkpt lat="43.415569215312935" lon="10.967687787718244"><ele>476.0</ele><time>2026-04-18T10:10:55.002Z</time></trkpt><trkpt lat="43.415584197830185" lon="10.96752990453436"><ele>476.0</ele><time>2026-04-18T10:10:56.002Z</time></trkpt><trkpt lat="43.415603434702746" lon="10.967382213859494"><ele>477.6</ele><time>2026-04-18T10:10:57.002Z</time></trkpt><trkpt lat="43.41561997024682" lon="10.96723674882358"><ele>479.20000000000005</ele><time>2026-04-18T10:10:58.002Z</time></trkpt><trkpt lat="43.41563705617397" lon="10.967100357724163"><ele>480.79999999999995</ele><time>2026-04-18T10:10:59.002Z</time></trkpt><trkpt lat="43.415651722994625" lon="10.96696856731138"><ele>482.4</ele><time>2026-04-18T10:11:00.002Z</time></trkpt><trkpt lat="43.41566655258113" lon="10.966841543977603"><ele>484.0</ele><time>2026-04-18T10:11:01.002Z</time></trkpt><trkpt lat="43.415682944752845" lon="10.966722306457587"><ele>485.1666666666667</ele><time>2026-04-18T10:11:02.002Z</time></trkpt><trkpt lat="43.41569858221528" lon="10.966606162956507"><ele>486.33333333333337</ele><time>2026-04-18T10:11:03.002Z</time></trkpt><trkpt lat="43.41573010721416" lon="10.96649440466139"><ele>487.5</ele><time>2026-04-18T10:11:04.002Z</time></trkpt><trkpt lat="43.41574676551684" lon="10.96637914551494"><ele>488.66666666666663</ele><time>2026-04-18T10:11:05.001Z</time></trkpt><trkpt lat="43.415763534291685" lon="10.966263122030615"><ele>489.8333333333333</ele><time>2026-04-18T10:11:06.001Z</time></trkpt><trkpt lat="43.41578041052587" lon="10.966146355028526"><ele>491.0</ele><time>2026-04-18T10:11:07.001Z</time></trkpt><trkpt lat="43.41567228396745" lon="10.965993863802389"><ele>491.0</ele><time>2026-04-18T10:11:08.001Z</time></trkpt><trkpt lat="43.415641446648095" lon="10.965868325355997"><ele>491.0</ele><time>2026-04-18T10:11:09.001Z</time></trkpt><trkpt lat="43.41561361029187" lon="10.965737055860817"><ele>491.0</ele><time>2026-04-18T10:11:10.001Z</time></trkpt><trkpt lat="43.415589116643254" lon="10.965605387323999"><ele>491.0</ele><time>2026-04-18T10:11:11.001Z</time></trkpt><trkpt lat="43.41560612505992" lon="10.965470193722842"><ele>491.0</ele><time>2026-04-18T10:11:12.001Z</time></trkpt><trkpt lat="43.415610841650725" lon="10.965349308510877"><ele>491.49999999999994</ele><time>2026-04-18T10:11:13.001Z</time></trkpt><trkpt lat="43.41561751099822" lon="10.965228627083182"><ele>492.0</ele><time>2026-04-18T10:11:14.001Z</time></trkpt><trkpt lat="43.4156315161292" lon="10.96512251225654"><ele>492.5</ele><time>2026-04-18T10:11:15.001Z</time></trkpt><trkpt lat="43.415651710693425" lon="10.965029265635366"><ele>493.0</ele><time>2026-04-18T10:11:16.001Z</time></trkpt><trkpt lat="43.41568284607897" lon="10.964940109065095"><ele>493.49999999999994</ele><time>2026-04-18T10:11:17.001Z</time></trkpt><trkpt lat="43.41570704357075" lon="10.964829986978868"><ele>494.0</ele><time>2026-04-18T10:11:18.001Z</time></trkpt><trkpt lat="43.41571951379424" lon="10.964742462700377"><ele>494.6</ele><time>2026-04-18T10:11:19.001Z</time></trkpt><trkpt lat="43.4157190202899" lon="10.964653687300043"><ele>495.2</ele><time>2026-04-18T10:11:20.001Z</time></trkpt><trkpt lat="43.41572318982939" lon="10.964491492758626"><ele>495.80000000000007</ele><time>2026-04-18T10:11:22.001Z</time></trkpt><trkpt lat="43.4156080994735" lon="10.964394232148523"><ele>496.40000000000003</ele><time>2026-04-18T10:11:23.001Z</time></trkpt><trkpt lat="43.415551680096556" lon="10.964294307401724"><ele>497.0</ele><time>2026-04-18T10:11:24.001Z</time></trkpt><trkpt lat="43.41550459038251" lon="10.964192940700622"><ele>496.2857142857143</ele><time>2026-04-18T10:11:25.001Z</time></trkpt><trkpt lat="43.415452940805444" lon="10.964111879482141"><ele>495.57142857142856</ele><time>2026-04-18T10:11:26.001Z</time></trkpt><trkpt lat="43.41540091487386" lon="10.964045388404712"><ele>494.8571428571429</ele><time>2026-04-18T10:11:27.001Z</time></trkpt><trkpt lat="43.41534983452197" lon="10.963990919169348"><ele>494.14285714285717</ele><time>2026-04-18T10:11:28.001Z</time></trkpt><trkpt lat="43.41529177963231" lon="10.963942576427609"><ele>493.42857142857144</ele><time>2026-04-18T10:11:29.001Z</time></trkpt><trkpt lat="43.415229133832575" lon="10.963900768747802"><ele>492.7142857142858</ele><time>2026-04-18T10:11:30.001Z</time></trkpt><trkpt lat="43.41515891868658" lon="10.963873614483196"><ele>492.00000000000006</ele><time>2026-04-18T10:11:31.001Z</time></trkpt><trkpt lat="43.41505419995334" lon="10.963808719980916"><ele>492.0</ele><time>2026-04-18T10:11:33.001Z</time></trkpt><trkpt lat="43.414964431257424" lon="10.963735482275917"><ele>492.0</ele><time>2026-04-18T10:11:35.001Z</time></trkpt><trkpt lat="43.41486584883459" lon="10.963647910297132"><ele>492.0</ele><time>2026-04-18T10:11:37.001Z</time></trkpt><trkpt lat="43.414813325436974" lon="10.96358924469891"><ele>492.0</ele><time>2026-04-18T10:11:38.001Z</time></trkpt><trkpt lat="43.414743425125415" lon="10.963554268099596"><ele>492.0</ele><time>2026-04-18T10:11:39.001Z</time></trkpt><trkpt lat="43.414673299606015" lon="10.963532855542608"><ele>492.0</ele><time>2026-04-18T10:11:40.001Z</time></trkpt><trkpt lat="43.4146101675664" lon="10.963518622323123"><ele>490.0</ele><time>2026-04-18T10:11:41.001Z</time></trkpt><trkpt lat="43.414546823224946" lon="10.96352723023464"><ele>488.0</ele><time>2026-04-18T10:11:42.001Z</time></trkpt><trkpt lat="43.41448419359429" lon="10.96350908914355"><ele>486.0</ele><time>2026-04-18T10:11:43.001Z</time></trkpt><trkpt lat="43.41442027538736" lon="10.963490145528501"><ele>484.0</ele><time>2026-04-18T10:11:44.001Z</time></trkpt><trkpt lat="43.41435635613224" lon="10.963473835197693"><ele>482.0</ele><time>2026-04-18T10:11:45.001Z</time></trkpt><trkpt lat="43.41424599401866" lon="10.963421468844185"><ele>480.0</ele><time>2026-04-18T10:11:47.001Z</time></trkpt><trkpt lat="43.41417592099605" lon="10.963350565504708"><ele>480.0</ele><time>2026-04-18T10:11:49.001Z</time></trkpt><trkpt lat="43.41412665653108" lon="10.963260446013154"><ele>480.0</ele><time>2026-04-18T10:11:51.001Z</time></trkpt><trkpt lat="43.41406240469738" lon="10.963130937583143"><ele>480.0</ele><time>2026-04-18T10:11:53.001Z</time></trkpt><trkpt lat="43.41400962975655" lon="10.962998494265126"><ele>480.0</ele><time>2026-04-18T10:11:55.001Z</time></trkpt><trkpt lat="43.41395368405641" lon="10.96289128658034"><ele>480.0</ele><time>2026-04-18T10:11:57.001Z</time></trkpt><trkpt lat="43.413860036137564" lon="10.962816800049472"><ele>478.28571428571433</ele><time>2026-04-18T10:11:59.001Z</time></trkpt><trkpt lat="43.413788425681794" lon="10.96288457950925"><ele>476.57142857142856</ele><time>2026-04-18T10:12:00.001Z</time></trkpt><trkpt lat="43.41373764733541" lon="10.962939038657852"><ele>474.8571428571429</ele><time>2026-04-18T10:12:01.001Z</time></trkpt><trkpt lat="43.413684050900514" lon="10.962989401045135"><ele>473.14285714285717</ele><time>2026-04-18T10:12:02.001Z</time></trkpt><trkpt lat="43.41361984855687" lon="10.963036028780168"><ele>471.42857142857144</ele><time>2026-04-18T10:12:03.001Z</time></trkpt><trkpt lat="43.41354711234449" lon="10.963059318095077"><ele>469.7142857142857</ele><time>2026-04-18T10:12:04.001Z</time></trkpt><trkpt lat="43.41347191913809" lon="10.963093850795955"><ele>468.0</ele><time>2026-04-18T10:12:05.001Z</time></trkpt><trkpt lat="43.413406216124095" lon="10.963113826975464"><ele>468.0</ele><time>2026-04-18T10:12:06.001Z</time></trkpt><trkpt lat="43.41334344293367" lon="10.963120588388572"><ele>468.0</ele><time>2026-04-18T10:12:07.001Z</time></trkpt><trkpt lat="43.41327213010964" lon="10.963103723779929"><ele>468.0</ele><time>2026-04-18T10:12:08.001Z</time></trkpt><trkpt lat="43.413203111296305" lon="10.963056559850388"><ele>468.0</ele><time>2026-04-18T10:12:09.001Z</time></trkpt><trkpt lat="43.41313747750021" lon="10.962988514572672"><ele>468.0</ele><time>2026-04-18T10:12:10.001Z</time></trkpt><trkpt lat="43.41307164066838" lon="10.962908249769537"><ele>468.0</ele><time>2026-04-18T10:12:11.001Z</time></trkpt><trkpt lat="43.41300506681405" lon="10.962817396038945"><ele>464.79999999999995</ele><time>2026-04-18T10:12:12.002Z</time></trkpt><trkpt lat="43.41294104377713" lon="10.962725997839607"><ele>461.59999999999997</ele><time>2026-04-18T10:12:13.002Z</time></trkpt><trkpt lat="43.41288313014378" lon="10.962643110264874"><ele>458.40000000000003</ele><time>2026-04-18T10:12:14.002Z</time></trkpt><trkpt lat="43.41282778487317" lon="10.962572808592158"><ele>455.20000000000005</ele><time>2026-04-18T10:12:15.002Z</time></trkpt><trkpt lat="43.412743143419185" lon="10.962467596266526"><ele>452.0</ele><time>2026-04-18T10:12:17.002Z</time></trkpt><trkpt lat="43.41268693388646" lon="10.962368978606166"><ele>451.66666666666663</ele><time>2026-04-18T10:12:19.002Z</time></trkpt><trkpt lat="43.412662765469605" lon="10.962245288619565"><ele>451.3333333333333</ele><time>2026-04-18T10:12:21.002Z</time></trkpt><trkpt lat="43.4126771415439" lon="10.962153335471488"><ele>451.0</ele><time>2026-04-18T10:12:22.002Z</time></trkpt><trkpt lat="43.41269123249199" lon="10.962045863805466"><ele>450.66666666666663</ele><time>2026-04-18T10:12:23.002Z</time></trkpt><trkpt lat="43.4127100108414" lon="10.961933457477194"><ele>450.3333333333333</ele><time>2026-04-18T10:12:24.002Z</time></trkpt><trkpt lat="43.41273067357716" lon="10.961826233080426"><ele>450.0</ele><time>2026-04-18T10:12:25.002Z</time></trkpt><trkpt lat="43.41275886242377" lon="10.961720792166295"><ele>449.1666666666667</ele><time>2026-04-18T10:12:26.002Z</time></trkpt><trkpt lat="43.412779922491346" lon="10.9616127646281"><ele>448.33333333333337</ele><time>2026-04-18T10:12:27.002Z</time></trkpt><trkpt lat="43.41279908330389" lon="10.961500068620694"><ele>447.5</ele><time>2026-04-18T10:12:28.002Z</time></trkpt><trkpt lat="43.41281882112807" lon="10.961396133594217"><ele>446.6666666666667</ele><time>2026-04-18T10:12:29.002Z</time></trkpt><trkpt lat="43.41283347393312" lon="10.961294944940098"><ele>445.83333333333337</ele><time>2026-04-18T10:12:30.002Z</time></trkpt><trkpt lat="43.41283732672913" lon="10.961190594625586"><ele>445.0</ele><time>2026-04-18T10:12:31.002Z</time></trkpt><trkpt lat="43.4128287489624" lon="10.96108368214134"><ele>445.00000000000006</ele><time>2026-04-18T10:12:32.002Z</time></trkpt><trkpt lat="43.412809047937046" lon="10.960982995558794"><ele>445.0</ele><time>2026-04-18T10:12:33.002Z</time></trkpt><trkpt lat="43.412794166599056" lon="10.960884501740203"><ele>445.0</ele><time>2026-04-18T10:12:34.002Z</time></trkpt><trkpt lat="43.412780319598234" lon="10.960793380874714"><ele>445.0</ele><time>2026-04-18T10:12:35.002Z</time></trkpt><trkpt lat="43.41276054237111" lon="10.960694617197367"><ele>445.00000000000006</ele><time>2026-04-18T10:12:36.002Z</time></trkpt><trkpt lat="43.412750542325064" lon="10.960608998017781"><ele>445.0</ele><time>2026-04-18T10:12:37.002Z</time></trkpt><trkpt lat="43.41275232832549" lon="10.960422995742057"><ele>442.4</ele><time>2026-04-18T10:12:39.002Z</time></trkpt><trkpt lat="43.412763156552515" lon="10.960328277810053"><ele>439.8</ele><time>2026-04-18T10:12:40.002Z</time></trkpt><trkpt lat="43.41278535167254" lon="10.960161166343392"><ele>437.20000000000005</ele><time>2026-04-18T10:12:42.002Z</time></trkpt><trkpt lat="43.41280841456777" lon="10.960003444267262"><ele>434.6</ele><time>2026-04-18T10:12:44.002Z</time></trkpt><trkpt lat="43.41282852179811" lon="10.959864898524616"><ele>432.0</ele><time>2026-04-18T10:12:46.002Z</time></trkpt><trkpt lat="43.41284675133386" lon="10.95973200892868"><ele>430.3333333333333</ele><time>2026-04-18T10:12:48.002Z</time></trkpt><trkpt lat="43.41288570718605" lon="10.959603666962437"><ele>428.66666666666663</ele><time>2026-04-18T10:12:50.002Z</time></trkpt><trkpt lat="43.41291945150161" lon="10.959503168475997"><ele>427.0</ele><time>2026-04-18T10:12:52.002Z</time></trkpt><trkpt lat="43.41294711184898" lon="10.959402806568237"><ele>425.3333333333333</ele><time>2026-04-18T10:12:54.002Z</time></trkpt><trkpt lat="43.412974016265444" lon="10.959300933495184"><ele>423.66666666666663</ele><time>2026-04-18T10:12:56.002Z</time></trkpt><trkpt lat="43.41298093941336" lon="10.959192940645108"><ele>422.0</ele><time>2026-04-18T10:12:58.002Z</time></trkpt><trkpt lat="43.412981016239236" lon="10.95907080139196"><ele>420.0</ele><time>2026-04-18T10:13:00.002Z</time></trkpt><trkpt lat="43.41296795524879" lon="10.958934092373315"><ele>418.0</ele><time>2026-04-18T10:13:02.002Z</time></trkpt><trkpt lat="43.41293539098002" lon="10.958789449075235"><ele>416.0</ele><time>2026-04-18T10:13:04.002Z</time></trkpt><trkpt lat="43.412892290376035" lon="10.958629341805617"><ele>414.0</ele><time>2026-04-18T10:13:06.002Z</time></trkpt><trkpt lat="43.4128638032241" lon="10.958536456076098"><ele>412.0</ele><time>2026-04-18T10:13:07.002Z</time></trkpt><trkpt lat="43.41283189699233" lon="10.9584306169899"><ele>410.40000000000003</ele><time>2026-04-18T10:13:08.002Z</time></trkpt><trkpt lat="43.41280006740198" lon="10.958311390642491"><ele>408.8</ele><time>2026-04-18T10:13:09.002Z</time></trkpt><trkpt lat="43.41276806399981" lon="10.958189768095487"><ele>407.2</ele><time>2026-04-18T10:13:10.002Z</time></trkpt><trkpt lat="43.41273421374973" lon="10.958065993345357"><ele>405.6</ele><time>2026-04-18T10:13:11.001Z</time></trkpt><trkpt lat="43.41269919876623" lon="10.957936715404761"><ele>404.0</ele><time>2026-04-18T10:13:12.001Z</time></trkpt><trkpt lat="43.4126621600046" lon="10.957802752236987"><ele>404.0</ele><time>2026-04-18T10:13:13.001Z</time></trkpt><trkpt lat="43.41262423291476" lon="10.957670634732873"><ele>404.0</ele><time>2026-04-18T10:13:14.001Z</time></trkpt><trkpt lat="43.41258859767111" lon="10.957541058639851"><ele>404.0</ele><time>2026-04-18T10:13:15.001Z</time></trkpt><trkpt lat="43.4125537110955" lon="10.9574158236723"><ele>404.0</ele><time>2026-04-18T10:13:16.001Z</time></trkpt><trkpt lat="43.41251947232587" lon="10.957296706419893"><ele>404.0</ele><time>2026-04-18T10:13:17.001Z</time></trkpt><trkpt lat="43.41248777456553" lon="10.957177972012197"><ele>402.3333333333333</ele><time>2026-04-18T10:13:18.001Z</time></trkpt><trkpt lat="43.41245859800115" lon="10.957066979476052"><ele>400.66666666666663</ele><time>2026-04-18T10:13:19.001Z</time></trkpt><trkpt lat="43.41242890872319" lon="10.956960362122402"><ele>399.0</ele><time>2026-04-18T10:13:20.001Z</time></trkpt><trkpt lat="43.41239969531043" lon="10.95686186275544"><ele>397.33333333333337</ele><time>2026-04-18T10:13:21.001Z</time></trkpt><trkpt lat="43.41237201061211" lon="10.956769405246412"><ele>395.6666666666667</ele><time>2026-04-18T10:13:22.001Z</time></trkpt><trkpt lat="43.4123551308204" lon="10.956683517172271"><ele>394.0</ele><time>2026-04-18T10:13:23.001Z</time></trkpt><trkpt lat="43.412340473081166" lon="10.956538650147436"><ele>393.0</ele><time>2026-04-18T10:13:25.001Z</time></trkpt><trkpt lat="43.41230392635729" lon="10.95639286120464"><ele>392.0</ele><time>2026-04-18T10:13:27.001Z</time></trkpt><trkpt lat="43.41226462916963" lon="10.956230695046678"><ele>391.0</ele><time>2026-04-18T10:13:29.001Z</time></trkpt><trkpt lat="43.41224095517147" lon="10.956132645478403"><ele>390.0</ele><time>2026-04-18T10:13:30.001Z</time></trkpt><trkpt lat="43.41222244821096" lon="10.956049529375269"><ele>389.0</ele><time>2026-04-18T10:13:31.001Z</time></trkpt><trkpt lat="43.412201988406395" lon="10.955949333097726"><ele>389.0</ele><time>2026-04-18T10:13:32.001Z</time></trkpt><trkpt lat="43.412172198781846" lon="10.955791271129447"><ele>389.0</ele><time>2026-04-18T10:13:34.001Z</time></trkpt><trkpt lat="43.41213499450542" lon="10.955674353518937"><ele>389.0</ele><time>2026-04-18T10:13:36.001Z</time></trkpt><trkpt lat="43.41212973879669" lon="10.955559066828393"><ele>389.0</ele><time>2026-04-18T10:13:38.001Z</time></trkpt><trkpt lat="43.41212825503289" lon="10.955448144738464"><ele>389.0</ele><time>2026-04-18T10:13:40.001Z</time></trkpt><trkpt lat="43.412126777797425" lon="10.955318351896333"><ele>388.99999999999994</ele><time>2026-04-18T10:13:42.001Z</time></trkpt><trkpt lat="43.41212400122001" lon="10.955146530825818"><ele>389.0</ele><time>2026-04-18T10:13:44.001Z</time></trkpt><trkpt lat="43.41212049077547" lon="10.955050194329536"><ele>389.0</ele><time>2026-04-18T10:13:45.001Z</time></trkpt><trkpt lat="43.41211372572954" lon="10.954953666816952"><ele>389.0</ele><time>2026-04-18T10:13:46.001Z</time></trkpt><trkpt lat="43.41209988868274" lon="10.95486158057551"><ele>388.99999999999994</ele><time>2026-04-18T10:13:47.001Z</time></trkpt><trkpt lat="43.41207378818922" lon="10.954771042105898"><ele>389.0</ele><time>2026-04-18T10:13:48.001Z</time></trkpt><trkpt lat="43.412009767021495" lon="10.954625175411145"><ele>390.49999999999994</ele><time>2026-04-18T10:13:50.001Z</time></trkpt><trkpt lat="43.411961547724374" lon="10.954484502363684"><ele>392.0</ele><time>2026-04-18T10:13:52.001Z</time></trkpt><trkpt lat="43.41193418916169" lon="10.954323775301058"><ele>393.5</ele><time>2026-04-18T10:13:54.001Z</time></trkpt><trkpt lat="43.411922337177096" lon="10.954232453904856"><ele>395.0</ele><time>2026-04-18T10:13:55.001Z</time></trkpt><trkpt lat="43.41191153986588" lon="10.954129293730706"><ele>396.49999999999994</ele><time>2026-04-18T10:13:56.001Z</time></trkpt><trkpt lat="43.411899168647444" lon="10.95403220042113"><ele>398.0</ele><time>2026-04-18T10:13:57.001Z</time></trkpt><trkpt lat="43.41189317350016" lon="10.95393596940515"><ele>398.3333333333333</ele><time>2026-04-18T10:13:58.001Z</time></trkpt><trkpt lat="43.41188724084428" lon="10.953839296081288"><ele>398.66666666666663</ele><time>2026-04-18T10:13:59.001Z</time></trkpt><trkpt lat="43.41188216024329" lon="10.953739774011044"><ele>399.0</ele><time>2026-04-18T10:14:00.001Z</time></trkpt><trkpt lat="43.41187514500449" lon="10.953639596841992"><ele>399.33333333333337</ele><time>2026-04-18T10:14:01.001Z</time></trkpt><trkpt lat="43.4118673110958" lon="10.953533562876638"><ele>399.6666666666667</ele><time>2026-04-18T10:14:02.001Z</time></trkpt><trkpt lat="43.41186138012035" lon="10.953425170099372"><ele>400.0</ele><time>2026-04-18T10:14:03.001Z</time></trkpt><trkpt lat="43.41185518021309" lon="10.953311172032148"><ele>401.00000000000006</ele><time>2026-04-18T10:14:04.001Z</time></trkpt><trkpt lat="43.41184534246707" lon="10.95319385424585"><ele>402.0</ele><time>2026-04-18T10:14:05.001Z</time></trkpt><trkpt lat="43.41183630836423" lon="10.953072771166118"><ele>403.0</ele><time>2026-04-18T10:14:06.001Z</time></trkpt><trkpt lat="43.411829221389" lon="10.952952187266627"><ele>404.0</ele><time>2026-04-18T10:14:07.001Z</time></trkpt><trkpt lat="43.41182238630835" lon="10.952830587972148"><ele>405.00000000000006</ele><time>2026-04-18T10:14:08.001Z</time></trkpt><trkpt lat="43.41181501553515" lon="10.952713022931107"><ele>406.0</ele><time>2026-04-18T10:14:09.001Z</time></trkpt><trkpt lat="43.41180936523273" lon="10.952598848374782"><ele>407.00000000000006</ele><time>2026-04-18T10:14:10.001Z</time></trkpt><trkpt lat="43.41180309975676" lon="10.952489023727287"><ele>408.0</ele><time>2026-04-18T10:14:11.001Z</time></trkpt><trkpt lat="43.4117952011388" lon="10.952378688545942"><ele>409.0</ele><time>2026-04-18T10:14:12.001Z</time></trkpt><trkpt lat="43.41178930973732" lon="10.95226448997801"><ele>410.0</ele><time>2026-04-18T10:14:13.001Z</time></trkpt><trkpt lat="43.4117834843017" lon="10.952149665590698"><ele>411.00000000000006</ele><time>2026-04-18T10:14:14.001Z</time></trkpt><trkpt lat="43.41177683614985" lon="10.952035018329052"><ele>412.0</ele><time>2026-04-18T10:14:15.001Z</time></trkpt><trkpt lat="43.41176891952114" lon="10.951918207231378"><ele>412.00000000000006</ele><time>2026-04-18T10:14:16.001Z</time></trkpt><trkpt lat="43.41176225813851" lon="10.951799337826138"><ele>412.0</ele><time>2026-04-18T10:14:17.001Z</time></trkpt><trkpt lat="43.411756264630334" lon="10.951680593562742"><ele>412.0</ele><time>2026-04-18T10:14:18.001Z</time></trkpt><trkpt lat="43.41174749234983" lon="10.951559006145095"><ele>412.0</ele><time>2026-04-18T10:14:19.002Z</time></trkpt><trkpt lat="43.41173839059889" lon="10.951435111283834"><ele>412.00000000000006</ele><time>2026-04-18T10:14:20.002Z</time></trkpt><trkpt lat="43.41172911660125" lon="10.951310069946159"><ele>412.0</ele><time>2026-04-18T10:14:21.002Z</time></trkpt><trkpt lat="43.411719490091485" lon="10.951183074199301"><ele>412.8</ele><time>2026-04-18T10:14:22.002Z</time></trkpt><trkpt lat="43.411709386273984" lon="10.951057740267954"><ele>413.6</ele><time>2026-04-18T10:14:23.002Z</time></trkpt><trkpt lat="43.41170101494224" lon="10.950933994279081"><ele>414.40000000000003</ele><time>2026-04-18T10:14:24.002Z</time></trkpt><trkpt lat="43.41169292889245" lon="10.950811739011936"><ele>415.20000000000005</ele><time>2026-04-18T10:14:25.002Z</time></trkpt><trkpt lat="43.411685249053434" lon="10.950688903399877"><ele>416.0</ele><time>2026-04-18T10:14:26.002Z</time></trkpt><trkpt lat="43.41167528824688" lon="10.95056647125124"><ele>416.8</ele><time>2026-04-18T10:14:27.002Z</time></trkpt><trkpt lat="43.41166083512822" lon="10.95044704556696"><ele>417.6</ele><time>2026-04-18T10:14:28.002Z</time></trkpt><trkpt lat="43.41163987652313" lon="10.950324936109888"><ele>418.4</ele><time>2026-04-18T10:14:29.002Z</time></trkpt><trkpt lat="43.411620602281914" lon="10.950199642377969"><ele>419.2</ele><time>2026-04-18T10:14:30.002Z</time></trkpt><trkpt lat="43.411601153930185" lon="10.950074601830483"><ele>420.0</ele><time>2026-04-18T10:14:31.002Z</time></trkpt><trkpt lat="43.411579915520164" lon="10.949955292101176"><ele>420.3333333333333</ele><time>2026-04-18T10:14:32.002Z</time></trkpt><trkpt lat="43.41155870630914" lon="10.949846142824322"><ele>420.66666666666663</ele><time>2026-04-18T10:14:33.002Z</time></trkpt><trkpt lat="43.41153621371447" lon="10.949740293551848"><ele>421.0</ele><time>2026-04-18T10:14:34.002Z</time></trkpt><trkpt lat="43.41151313439064" lon="10.949636317938953"><ele>421.3333333333333</ele><time>2026-04-18T10:14:35.002Z</time></trkpt><trkpt lat="43.41148255722197" lon="10.949534063747812"><ele>421.66666666666663</ele><time>2026-04-18T10:14:36.002Z</time></trkpt><trkpt lat="43.41144550050969" lon="10.949435236077838"><ele>422.0</ele><time>2026-04-18T10:14:37.002Z</time></trkpt><trkpt lat="43.41140418672634" lon="10.949336778008453"><ele>422.0</ele><time>2026-04-18T10:14:38.002Z</time></trkpt><trkpt lat="43.41136341304641" lon="10.949250468957118"><ele>422.0</ele><time>2026-04-18T10:14:39.002Z</time></trkpt><trkpt lat="43.41132111569003" lon="10.94917893241716"><ele>422.0</ele><time>2026-04-18T10:14:40.002Z</time></trkpt><trkpt lat="43.41126757258233" lon="10.949117870602146"><ele>422.0</ele><time>2026-04-18T10:14:41.002Z</time></trkpt><trkpt lat="43.411208967304276" lon="10.949072892594472"><ele>422.0</ele><time>2026-04-18T10:14:42.002Z</time></trkpt><trkpt lat="43.41115215805625" lon="10.949032414449357"><ele>422.0</ele><time>2026-04-18T10:14:43.002Z</time></trkpt><trkpt lat="43.411098255138874" lon="10.948986161075423"><ele>422.0</ele><time>2026-04-18T10:14:44.002Z</time></trkpt><trkpt lat="43.41104641571879" lon="10.948924647376527"><ele>421.7142857142857</ele><time>2026-04-18T10:14:45.002Z</time></trkpt><trkpt lat="43.41099827643977" lon="10.948847135778355"><ele>421.42857142857144</ele><time>2026-04-18T10:14:46.002Z</time></trkpt><trkpt lat="43.4109691184757" lon="10.948764908674852"><ele>421.1428571428571</ele><time>2026-04-18T10:14:47.002Z</time></trkpt><trkpt lat="43.410950460941045" lon="10.948674801546321"><ele>420.8571428571429</ele><time>2026-04-18T10:14:48.002Z</time></trkpt><trkpt lat="43.410936985156404" lon="10.948574205421906"><ele>420.57142857142856</ele><time>2026-04-18T10:14:49.002Z</time></trkpt><trkpt lat="43.41092618392799" lon="10.94846983834668"><ele>420.2857142857143</ele><time>2026-04-18T10:14:50.002Z</time></trkpt><trkpt lat="43.410914274037324" lon="10.948362999299903"><ele>420.0</ele><time>2026-04-18T10:14:51.002Z</time></trkpt><trkpt lat="43.410901328618124" lon="10.948258182540549"><ele>419.6666666666667</ele><time>2026-04-18T10:14:52.002Z</time></trkpt><trkpt lat="43.41088864314791" lon="10.948153993005842"><ele>419.33333333333337</ele><time>2026-04-18T10:14:53.002Z</time></trkpt><trkpt lat="43.41088015471872" lon="10.948045395706377"><ele>419.0</ele><time>2026-04-18T10:14:54.002Z</time></trkpt><trkpt lat="43.41087521221665" lon="10.947936987914796"><ele>418.6666666666667</ele><time>2026-04-18T10:14:55.002Z</time></trkpt><trkpt lat="43.41087475311928" lon="10.947827763250638"><ele>418.33333333333337</ele><time>2026-04-18T10:14:56.002Z</time></trkpt><trkpt lat="43.41088273185735" lon="10.947717504196635"><ele>418.0</ele><time>2026-04-18T10:14:57.002Z</time></trkpt><trkpt lat="43.41089453197822" lon="10.947613204383845"><ele>418.57142857142856</ele><time>2026-04-18T10:14:58.002Z</time></trkpt><trkpt lat="43.41091062991636" lon="10.947509094380244"><ele>419.1428571428571</ele><time>2026-04-18T10:14:59.002Z</time></trkpt><trkpt lat="43.41092644263593" lon="10.94741235670807"><ele>419.7142857142857</ele><time>2026-04-18T10:15:00.002Z</time></trkpt><trkpt lat="43.41094122219689" lon="10.947320671403338"><ele>420.2857142857143</ele><time>2026-04-18T10:15:01.002Z</time></trkpt><trkpt lat="43.41095810740199" lon="10.947228913888312"><ele>420.8571428571429</ele><time>2026-04-18T10:15:02.002Z</time></trkpt><trkpt lat="43.41097015435813" lon="10.947138336895973"><ele>421.42857142857144</ele><time>2026-04-18T10:15:03.002Z</time></trkpt><trkpt lat="43.41097870801936" lon="10.947048662701949"><ele>422.0</ele><time>2026-04-18T10:15:04.002Z</time></trkpt><trkpt lat="43.41098666026232" lon="10.946956912342483"><ele>422.0</ele><time>2026-04-18T10:15:05.002Z</time></trkpt><trkpt lat="43.410994524078404" lon="10.946862872189396"><ele>422.0</ele><time>2026-04-18T10:15:06.002Z</time></trkpt><trkpt lat="43.411000315205" lon="10.946768572716383"><ele>422.0</ele><time>2026-04-18T10:15:07.002Z</time></trkpt><trkpt lat="43.41100523191602" lon="10.946669803181567"><ele>422.0</ele><time>2026-04-18T10:15:08.002Z</time></trkpt><trkpt lat="43.411009154083544" lon="10.94656746967535"><ele>422.0</ele><time>2026-04-18T10:15:09.002Z</time></trkpt><trkpt lat="43.41101429806122" lon="10.946465369728815"><ele>422.0</ele><time>2026-04-18T10:15:10.002Z</time></trkpt><trkpt lat="43.411018485799914" lon="10.94636509813065"><ele>422.0</ele><time>2026-04-18T10:15:11.002Z</time></trkpt><trkpt lat="43.411024737854994" lon="10.946267081833527"><ele>422.66666666666663</ele><time>2026-04-18T10:15:12.002Z</time></trkpt><trkpt lat="43.411028362965844" lon="10.946173624614952"><ele>423.3333333333333</ele><time>2026-04-18T10:15:13.002Z</time></trkpt><trkpt lat="43.41102910836647" lon="10.945988832791274"><ele>424.0</ele><time>2026-04-18T10:15:15.002Z</time></trkpt><trkpt lat="43.411026123386804" lon="10.945887572798554"><ele>424.66666666666663</ele><time>2026-04-18T10:15:16.002Z</time></trkpt><trkpt lat="43.41102231867778" lon="10.945789136271092"><ele>425.3333333333333</ele><time>2026-04-18T10:15:17.001Z</time></trkpt><trkpt lat="43.41101650469877" lon="10.945690542048146"><ele>426.0</ele><time>2026-04-18T10:15:18.001Z</time></trkpt><trkpt lat="43.41100676986034" lon="10.945577796353884"><ele>426.0</ele><time>2026-04-18T10:15:19.001Z</time></trkpt><trkpt lat="43.41099269976305" lon="10.945470153407681"><ele>426.0</ele><time>2026-04-18T10:15:20.001Z</time></trkpt><trkpt lat="43.41097499702287" lon="10.94535581820277"><ele>426.0</ele><time>2026-04-18T10:15:21.001Z</time></trkpt><trkpt lat="43.41096349847234" lon="10.945249406616101"><ele>426.0</ele><time>2026-04-18T10:15:22.001Z</time></trkpt><trkpt lat="43.41095050816247" lon="10.945140210870852"><ele>426.0</ele><time>2026-04-18T10:15:23.001Z</time></trkpt><trkpt lat="43.410936912138894" lon="10.945030476520131"><ele>426.0</ele><time>2026-04-18T10:15:24.001Z</time></trkpt><trkpt lat="43.41093453744036" lon="10.944924748963913"><ele>426.0</ele><time>2026-04-18T10:15:25.001Z</time></trkpt><trkpt lat="43.4109220466915" lon="10.94482098025101"><ele>426.0</ele><time>2026-04-18T10:15:26.001Z</time></trkpt><trkpt lat="43.410909785433354" lon="10.944709600202284"><ele>426.0</ele><time>2026-04-18T10:15:27.001Z</time></trkpt><trkpt lat="43.410900199853835" lon="10.944594603800768"><ele>426.0</ele><time>2026-04-18T10:15:28.001Z</time></trkpt><trkpt lat="43.410890745265604" lon="10.944479037638253"><ele>426.0</ele><time>2026-04-18T10:15:29.001Z</time></trkpt><trkpt lat="43.410889686684804" lon="10.944361527074204"><ele>426.0</ele><time>2026-04-18T10:15:30.001Z</time></trkpt><trkpt lat="43.410887799275976" lon="10.944251625049112"><ele>425.5</ele><time>2026-04-18T10:15:31.001Z</time></trkpt><trkpt lat="43.41088499688994" lon="10.944143029834535"><ele>425.0</ele><time>2026-04-18T10:15:32.001Z</time></trkpt><trkpt lat="43.41088034130383" lon="10.9440350356985"><ele>424.5</ele><time>2026-04-18T10:15:33.001Z</time></trkpt><trkpt lat="43.410869351286124" lon="10.943921700186763"><ele>424.0</ele><time>2026-04-18T10:15:34.001Z</time></trkpt><trkpt lat="43.410859787942876" lon="10.943813853098668"><ele>423.5</ele><time>2026-04-18T10:15:35.001Z</time></trkpt><trkpt lat="43.410850455561345" lon="10.943708448587468"><ele>423.0</ele><time>2026-04-18T10:15:36.001Z</time></trkpt><trkpt lat="43.41084185548165" lon="10.943600437614617"><ele>423.0</ele><time>2026-04-18T10:15:37.001Z</time></trkpt><trkpt lat="43.410835457043596" lon="10.943497884492203"><ele>423.0</ele><time>2026-04-18T10:15:38.001Z</time></trkpt><trkpt lat="43.41081803621349" lon="10.943385660082544"><ele>423.0</ele><time>2026-04-18T10:15:39.001Z</time></trkpt><trkpt lat="43.41080693455477" lon="10.943270526849194"><ele>423.0</ele><time>2026-04-18T10:15:40.001Z</time></trkpt><trkpt lat="43.41079393508193" lon="10.943140587298382"><ele>423.0</ele><time>2026-04-18T10:15:41.001Z</time></trkpt><trkpt lat="43.41077971152278" lon="10.943002296113876"><ele>423.0</ele><time>2026-04-18T10:15:42.001Z</time></trkpt><trkpt lat="43.410763813332686" lon="10.942862839323594"><ele>423.0</ele><time>2026-04-18T10:15:43.001Z</time></trkpt><trkpt lat="43.410747067764746" lon="10.942726372026241"><ele>423.0</ele><time>2026-04-18T10:15:44.001Z</time></trkpt><trkpt lat="43.41072888295462" lon="10.942593231180966"><ele>423.0</ele><time>2026-04-18T10:15:45.001Z</time></trkpt><trkpt lat="43.41072150311279" lon="10.942453737961916"><ele>423.0</ele><time>2026-04-18T10:15:46.001Z</time></trkpt><trkpt lat="43.41067756923957" lon="10.942325217475261"><ele>423.0</ele><time>2026-04-18T10:15:47.001Z</time></trkpt><trkpt lat="43.410629533270644" lon="10.942200772071688"><ele>422.0</ele><time>2026-04-18T10:15:48.001Z</time></trkpt><trkpt lat="43.410603379788164" lon="10.942060057090778"><ele>421.0</ele><time>2026-04-18T10:15:49.001Z</time></trkpt><trkpt lat="43.41056611977026" lon="10.94192308971833"><ele>420.0</ele><time>2026-04-18T10:15:50.001Z</time></trkpt><trkpt lat="43.410526934164494" lon="10.941789095726516"><ele>419.0</ele><time>2026-04-18T10:15:51.001Z</time></trkpt><trkpt lat="43.41048509913174" lon="10.941654324784636"><ele>418.0</ele><time>2026-04-18T10:15:52.001Z</time></trkpt><trkpt lat="43.41044405972955" lon="10.941523335689633"><ele>415.83333333333337</ele><time>2026-04-18T10:15:53.001Z</time></trkpt><trkpt lat="43.410408696654514" lon="10.941410464183955"><ele>413.6666666666667</ele><time>2026-04-18T10:15:54.001Z</time></trkpt><trkpt lat="43.41036445963898" lon="10.941315692056353"><ele>411.5</ele><time>2026-04-18T10:15:55.001Z</time></trkpt><trkpt lat="43.41034424155181" lon="10.941214281228815"><ele>409.33333333333337</ele><time>2026-04-18T10:15:56.001Z</time></trkpt><trkpt lat="43.41031980201191" lon="10.941121919041402"><ele>407.1666666666667</ele><time>2026-04-18T10:15:57.001Z</time></trkpt><trkpt lat="43.41029647330707" lon="10.941035371961535"><ele>405.0</ele><time>2026-04-18T10:15:58.001Z</time></trkpt><trkpt lat="43.4102627806135" lon="10.940885061607032"><ele>404.6</ele><time>2026-04-18T10:16:00.001Z</time></trkpt><trkpt lat="43.41028098105197" lon="10.940760959346221"><ele>404.2</ele><time>2026-04-18T10:16:02.001Z</time></trkpt><trkpt lat="43.41038049638902" lon="10.940725942596208"><ele>403.79999999999995</ele><time>2026-04-18T10:16:04.001Z</time></trkpt><trkpt lat="43.410439297575856" lon="10.940689072834676"><ele>403.4</ele><time>2026-04-18T10:16:05.001Z</time></trkpt><trkpt lat="43.4105362014673" lon="10.940635793675057"><ele>403.0</ele><time>2026-04-18T10:16:07.001Z</time></trkpt><trkpt lat="43.41064851718547" lon="10.940570720538021"><ele>403.00000000000006</ele><time>2026-04-18T10:16:09.001Z</time></trkpt><trkpt lat="43.41068687978576" lon="10.940483723347672"><ele>403.0</ele><time>2026-04-18T10:16:10.001Z</time></trkpt><trkpt lat="43.410701689345856" lon="10.940380627631736"><ele>403.0</ele><time>2026-04-18T10:16:11.001Z</time></trkpt><trkpt lat="43.410691598220225" lon="10.940261460062425"><ele>403.0</ele><time>2026-04-18T10:16:12.001Z</time></trkpt><trkpt lat="43.410676492468696" lon="10.940145070939801"><ele>403.00000000000006</ele><time>2026-04-18T10:16:13.001Z</time></trkpt><trkpt lat="43.4106597957922" lon="10.940022159540137"><ele>403.0</ele><time>2026-04-18T10:16:14.001Z</time></trkpt><trkpt lat="43.41064971223033" lon="10.939894986113531"><ele>402.00000000000006</ele><time>2026-04-18T10:16:15.001Z</time></trkpt><trkpt lat="43.41064511996883" lon="10.939772028726146"><ele>401.0</ele><time>2026-04-18T10:16:16.001Z</time></trkpt><trkpt lat="43.410639130997254" lon="10.939649114063847"><ele>400.0</ele><time>2026-04-18T10:16:17.001Z</time></trkpt><trkpt lat="43.41063138107318" lon="10.939534611124511"><ele>399.0</ele><time>2026-04-18T10:16:18.001Z</time></trkpt><trkpt lat="43.41062537266473" lon="10.939433717413777"><ele>398.00000000000006</ele><time>2026-04-18T10:16:19.001Z</time></trkpt><trkpt lat="43.41062282917115" lon="10.939334590825974"><ele>397.0</ele><time>2026-04-18T10:16:20.001Z</time></trkpt><trkpt lat="43.41063040581583" lon="10.939241053364993"><ele>396.1666666666667</ele><time>2026-04-18T10:16:21.001Z</time></trkpt><trkpt lat="43.410645125950964" lon="10.939152040376538"><ele>395.33333333333337</ele><time>2026-04-18T10:16:22.001Z</time></trkpt><trkpt lat="43.41066278629832" lon="10.938983523370228"><ele>394.5</ele><time>2026-04-18T10:16:24.001Z</time></trkpt><trkpt lat="43.410659795610435" lon="10.938891484981617"><ele>393.66666666666663</ele><time>2026-04-18T10:16:25.001Z</time></trkpt><trkpt lat="43.41064876262801" lon="10.938801667410056"><ele>392.8333333333333</ele><time>2026-04-18T10:16:26.001Z</time></trkpt><trkpt lat="43.41062408924462" lon="10.938704066862435"><ele>392.0</ele><time>2026-04-18T10:16:27.001Z</time></trkpt><trkpt lat="43.410593350845424" lon="10.938606777898833"><ele>392.0</ele><time>2026-04-18T10:16:28.001Z</time></trkpt><trkpt lat="43.41056335874774" lon="10.938508351527014"><ele>392.0</ele><time>2026-04-18T10:16:29.001Z</time></trkpt><trkpt lat="43.41053212185756" lon="10.93841361046357"><ele>392.0</ele><time>2026-04-18T10:16:30.002Z</time></trkpt><trkpt lat="43.41050182830184" lon="10.938322585330164"><ele>392.0</ele><time>2026-04-18T10:16:31.002Z</time></trkpt><trkpt lat="43.41046989041465" lon="10.938241517126405"><ele>392.0</ele><time>2026-04-18T10:16:32.002Z</time></trkpt><trkpt lat="43.410432063836176" lon="10.93817002946217"><ele>392.0</ele><time>2026-04-18T10:16:33.002Z</time></trkpt><trkpt lat="43.41038323882613" lon="10.938110548991377"><ele>392.0</ele><time>2026-04-18T10:16:34.002Z</time></trkpt><trkpt lat="43.41032087174867" lon="10.938071220176107"><ele>391.16666666666663</ele><time>2026-04-18T10:16:35.002Z</time></trkpt><trkpt lat="43.41025842480641" lon="10.93804901650113"><ele>390.3333333333333</ele><time>2026-04-18T10:16:36.002Z</time></trkpt><trkpt lat="43.41019643702874" lon="10.938032671716359"><ele>389.5</ele><time>2026-04-18T10:16:37.002Z</time></trkpt><trkpt lat="43.41007484888411" lon="10.937974088428577"><ele>388.66666666666663</ele><time>2026-04-18T10:16:39.002Z</time></trkpt><trkpt lat="43.40995159447519" lon="10.937946757644033"><ele>387.8333333333333</ele><time>2026-04-18T10:16:41.002Z</time></trkpt><trkpt lat="43.40988998016948" lon="10.937914281238521"><ele>387.0</ele><time>2026-04-18T10:16:42.002Z</time></trkpt><trkpt lat="43.40981442766045" lon="10.937804108537916"><ele>387.0</ele><time>2026-04-18T10:16:44.002Z</time></trkpt><trkpt lat="43.40979585635838" lon="10.937631337861006"><ele>387.0</ele><time>2026-04-18T10:16:46.002Z</time></trkpt><trkpt lat="43.40982177254092" lon="10.937549110188657"><ele>387.0</ele><time>2026-04-18T10:16:47.002Z</time></trkpt><trkpt lat="43.40980220407723" lon="10.937327368717847"><ele>387.0</ele><time>2026-04-18T10:16:49.002Z</time></trkpt><trkpt lat="43.40980129250675" lon="10.937218106445474"><ele>387.0</ele><time>2026-04-18T10:16:50.002Z</time></trkpt><trkpt lat="43.4097982375498" lon="10.937106706369253"><ele>386.3333333333333</ele><time>2026-04-18T10:16:51.002Z</time></trkpt><trkpt lat="43.409804242298215" lon="10.937001435213245"><ele>385.6666666666667</ele><time>2026-04-18T10:16:52.002Z</time></trkpt><trkpt lat="43.40982561340527" lon="10.93689097266101"><ele>385.0</ele><time>2026-04-18T10:16:53.002Z</time></trkpt><trkpt lat="43.40983480850822" lon="10.936796074459615"><ele>384.33333333333337</ele><time>2026-04-18T10:16:54.002Z</time></trkpt><trkpt lat="43.40982644763496" lon="10.936706055559872"><ele>383.6666666666667</ele><time>2026-04-18T10:16:55.002Z</time></trkpt><trkpt lat="43.40985201424468" lon="10.936620826167342"><ele>383.0</ele><time>2026-04-18T10:16:56.002Z</time></trkpt><trkpt lat="43.40983521753747" lon="10.93648477917619"><ele>381.83333333333337</ele><time>2026-04-18T10:16:58.002Z</time></trkpt><trkpt lat="43.409753279092186" lon="10.936349275286046"><ele>380.6666666666667</ele><time>2026-04-18T10:17:00.002Z</time></trkpt><trkpt lat="43.40970060330157" lon="10.936277908287318"><ele>379.5</ele><time>2026-04-18T10:17:01.002Z</time></trkpt><trkpt lat="43.409655043284346" lon="10.936213110532611"><ele>378.3333333333333</ele><time>2026-04-18T10:17:02.002Z</time></trkpt><trkpt lat="43.409607365463366" lon="10.93612633671479"><ele>377.16666666666663</ele><time>2026-04-18T10:17:03.002Z</time></trkpt><trkpt lat="43.40954906097395" lon="10.936060404208696"><ele>376.0</ele><time>2026-04-18T10:17:04.002Z</time></trkpt><trkpt lat="43.409482218889686" lon="10.936010968415742"><ele>375.8333333333333</ele><time>2026-04-18T10:17:05.002Z</time></trkpt><trkpt lat="43.40942027389425" lon="10.935940515123116"><ele>375.66666666666663</ele><time>2026-04-18T10:17:06.002Z</time></trkpt><trkpt lat="43.40936193103423" lon="10.93587245438607"><ele>375.5</ele><time>2026-04-18T10:17:07.002Z</time></trkpt><trkpt lat="43.40928952006913" lon="10.935799058387607"><ele>375.3333333333333</ele><time>2026-04-18T10:17:08.002Z</time></trkpt><trkpt lat="43.40921837062116" lon="10.935724717322563"><ele>375.1666666666667</ele><time>2026-04-18T10:17:09.002Z</time></trkpt><trkpt lat="43.40914313965302" lon="10.935654827960962"><ele>375.0</ele><time>2026-04-18T10:17:10.002Z</time></trkpt><trkpt lat="43.409066607134164" lon="10.935580410006311"><ele>374.8333333333333</ele><time>2026-04-18T10:17:11.002Z</time></trkpt><trkpt lat="43.40900866617763" lon="10.935509991292246"><ele>374.6666666666667</ele><time>2026-04-18T10:17:12.002Z</time></trkpt><trkpt lat="43.408955182142094" lon="10.93544801084811"><ele>374.5</ele><time>2026-04-18T10:17:13.002Z</time></trkpt><trkpt lat="43.40890074053244" lon="10.935375132124005"><ele>374.33333333333337</ele><time>2026-04-18T10:17:14.002Z</time></trkpt><trkpt lat="43.40885187473102" lon="10.935290237355668"><ele>374.1666666666667</ele><time>2026-04-18T10:17:15.002Z</time></trkpt><trkpt lat="43.40880615351711" lon="10.935196732395308"><ele>374.0</ele><time>2026-04-18T10:17:16.002Z</time></trkpt><trkpt lat="43.40876959651145" lon="10.93511024494159"><ele>372.83333333333337</ele><time>2026-04-18T10:17:17.002Z</time></trkpt><trkpt lat="43.40872220200103" lon="10.935026493346841"><ele>371.6666666666667</ele><time>2026-04-18T10:17:18.002Z</time></trkpt><trkpt lat="43.408701043775594" lon="10.93493184752248"><ele>370.5</ele><time>2026-04-18T10:17:19.002Z</time></trkpt><trkpt lat="43.40867877492582" lon="10.934820779829101"><ele>369.3333333333333</ele><time>2026-04-18T10:17:20.002Z</time></trkpt><trkpt lat="43.408684047968535" lon="10.934703741868276"><ele>368.16666666666663</ele><time>2026-04-18T10:17:21.002Z</time></trkpt><trkpt lat="43.40867554772784" lon="10.934588506176786"><ele>367.0</ele><time>2026-04-18T10:17:22.002Z</time></trkpt><trkpt lat="43.40866723967886" lon="10.934478638151894"><ele>367.0</ele><time>2026-04-18T10:17:23.001Z</time></trkpt><trkpt lat="43.408655143059285" lon="10.934358427196276"><ele>367.0</ele><time>2026-04-18T10:17:24.001Z</time></trkpt><trkpt lat="43.40863901642824" lon="10.934235452477507"><ele>367.0</ele><time>2026-04-18T10:17:25.001Z</time></trkpt><trkpt lat="43.40862293077716" lon="10.934112790171966"><ele>367.0</ele><time>2026-04-18T10:17:26.001Z</time></trkpt><trkpt lat="43.40860467828031" lon="10.933980916567032"><ele>367.0</ele><time>2026-04-18T10:17:27.001Z</time></trkpt><trkpt lat="43.408586053465505" lon="10.933851289524958"><ele>367.0</ele><time>2026-04-18T10:17:28.001Z</time></trkpt><trkpt lat="43.40854969803911" lon="10.933714552231779"><ele>367.0</ele><time>2026-04-18T10:17:29.001Z</time></trkpt><trkpt lat="43.40852944793062" lon="10.933575572624443"><ele>367.0</ele><time>2026-04-18T10:17:30.001Z</time></trkpt><trkpt lat="43.40851140086377" lon="10.933433850619707"><ele>367.0</ele><time>2026-04-18T10:17:31.001Z</time></trkpt><trkpt lat="43.40849269994214" lon="10.933296840028413"><ele>367.0</ele><time>2026-04-18T10:17:32.001Z</time></trkpt><trkpt lat="43.40847355547418" lon="10.933165921666054"><ele>367.0</ele><time>2026-04-18T10:17:33.001Z</time></trkpt><trkpt lat="43.40844594092305" lon="10.933050990986672"><ele>367.0</ele><time>2026-04-18T10:17:34.001Z</time></trkpt><trkpt lat="43.408416002243825" lon="10.93294452400235"><ele>367.0</ele><time>2026-04-18T10:17:35.001Z</time></trkpt><trkpt lat="43.40837667415228" lon="10.932851248190044"><ele>367.0</ele><time>2026-04-18T10:17:36.001Z</time></trkpt><trkpt lat="43.40836093889416" lon="10.93275220277838"><ele>367.0</ele><time>2026-04-18T10:17:37.001Z</time></trkpt><trkpt lat="43.40830683614883" lon="10.932660507920595"><ele>367.0</ele><time>2026-04-18T10:17:38.001Z</time></trkpt><trkpt lat="43.40826272221117" lon="10.932573849045975"><ele>366.7142857142857</ele><time>2026-04-18T10:17:39.001Z</time></trkpt><trkpt lat="43.40824196088903" lon="10.932473681097964"><ele>366.42857142857144</ele><time>2026-04-18T10:17:40.001Z</time></trkpt><trkpt lat="43.40820991902319" lon="10.932388020087963"><ele>366.14285714285717</ele><time>2026-04-18T10:17:41.001Z</time></trkpt><trkpt lat="43.40817847150523" lon="10.932303948022813"><ele>365.8571428571429</ele><time>2026-04-18T10:17:42.001Z</time></trkpt><trkpt lat="43.408146004106875" lon="10.932217149383863"><ele>365.57142857142856</ele><time>2026-04-18T10:17:43.001Z</time></trkpt><trkpt lat="43.408114109440746" lon="10.932131882181379"><ele>365.28571428571433</ele><time>2026-04-18T10:17:44.001Z</time></trkpt><trkpt lat="43.408079151429334" lon="10.9320384246598"><ele>365.0</ele><time>2026-04-18T10:17:45.001Z</time></trkpt><trkpt lat="43.40802521408173" lon="10.931933439298405"><ele>365.0</ele><time>2026-04-18T10:17:46.001Z</time></trkpt><trkpt lat="43.40799739619706" lon="10.931827024576126"><ele>365.0</ele><time>2026-04-18T10:17:47.001Z</time></trkpt><trkpt lat="43.40796364034582" lon="10.931720140547167"><ele>365.0</ele><time>2026-04-18T10:17:48.001Z</time></trkpt><trkpt lat="43.40791975035635" lon="10.93161657003232"><ele>365.0</ele><time>2026-04-18T10:17:49.001Z</time></trkpt><trkpt lat="43.40787753620343" lon="10.931518877185988"><ele>365.0</ele><time>2026-04-18T10:17:50.001Z</time></trkpt><trkpt lat="43.40783383187239" lon="10.931432120151122"><ele>365.0</ele><time>2026-04-18T10:17:51.001Z</time></trkpt><trkpt lat="43.40779557140084" lon="10.93135623460223"><ele>365.14285714285717</ele><time>2026-04-18T10:17:52.001Z</time></trkpt><trkpt lat="43.407753524636426" lon="10.931282953886708"><ele>365.2857142857143</ele><time>2026-04-18T10:17:53.001Z</time></trkpt><trkpt lat="43.40771392420908" lon="10.931213688990779"><ele>365.42857142857144</ele><time>2026-04-18T10:17:54.001Z</time></trkpt><trkpt lat="43.40767490680976" lon="10.931134794057044"><ele>365.57142857142856</ele><time>2026-04-18T10:17:55.001Z</time></trkpt><trkpt lat="43.40763437413915" lon="10.931054991367818"><ele>365.7142857142857</ele><time>2026-04-18T10:17:56.001Z</time></trkpt><trkpt lat="43.40759119201607" lon="10.93096936507182"><ele>365.8571428571429</ele><time>2026-04-18T10:17:57.001Z</time></trkpt><trkpt lat="43.407549438975444" lon="10.930884713924714"><ele>366.0</ele><time>2026-04-18T10:17:58.001Z</time></trkpt><trkpt lat="43.40750071208005" lon="10.930798014737277"><ele>366.8333333333333</ele><time>2026-04-18T10:17:59.001Z</time></trkpt><trkpt lat="43.40745841179388" lon="10.930707531010814"><ele>367.6666666666667</ele><time>2026-04-18T10:18:00.001Z</time></trkpt><trkpt lat="43.40741232956208" lon="10.930624477756469"><ele>368.5</ele><time>2026-04-18T10:18:01.001Z</time></trkpt><trkpt lat="43.40737889458194" lon="10.930545774758635"><ele>369.33333333333337</ele><time>2026-04-18T10:18:02.001Z</time></trkpt><trkpt lat="43.40735034962409" lon="10.930385962138741"><ele>370.1666666666667</ele><time>2026-04-18T10:18:04.001Z</time></trkpt><trkpt lat="43.407356451171964" lon="10.930289820232531"><ele>371.0</ele><time>2026-04-18T10:18:05.001Z</time></trkpt><trkpt lat="43.40735013726679" lon="10.930181475189425"><ele>371.0</ele><time>2026-04-18T10:18:06.001Z</time></trkpt><trkpt lat="43.407359071146814" lon="10.930076329086836"><ele>371.0</ele><time>2026-04-18T10:18:07.001Z</time></trkpt><trkpt lat="43.407358627647376" lon="10.929966331043696"><ele>371.0</ele><time>2026-04-18T10:18:08.001Z</time></trkpt><trkpt lat="43.40736551094147" lon="10.92984177959807"><ele>371.0</ele><time>2026-04-18T10:18:09.001Z</time></trkpt><trkpt lat="43.407360640634565" lon="10.929696240522176"><ele>371.0</ele><time>2026-04-18T10:18:10.001Z</time></trkpt><trkpt lat="43.40735677705986" lon="10.929557942913593"><ele>371.0</ele><time>2026-04-18T10:18:11.001Z</time></trkpt><trkpt lat="43.4073494947718" lon="10.929412615281777"><ele>371.0</ele><time>2026-04-18T10:18:12.001Z</time></trkpt><trkpt lat="43.40734172959634" lon="10.929267696579528"><ele>371.0</ele><time>2026-04-18T10:18:13.001Z</time></trkpt><trkpt lat="43.407342578060096" lon="10.929123962801457"><ele>371.0</ele><time>2026-04-18T10:18:14.001Z</time></trkpt><trkpt lat="43.407331653498964" lon="10.928975911953062"><ele>371.0</ele><time>2026-04-18T10:18:15.001Z</time></trkpt><trkpt lat="43.4073277954709" lon="10.928838673875937"><ele>370.6</ele><time>2026-04-18T10:18:16.001Z</time></trkpt><trkpt lat="43.407311949478846" lon="10.928708154415418"><ele>370.20000000000005</ele><time>2026-04-18T10:18:17.001Z</time></trkpt><trkpt lat="43.40728736449079" lon="10.928576261266876"><ele>369.79999999999995</ele><time>2026-04-18T10:18:18.001Z</time></trkpt><trkpt lat="43.407251064874075" lon="10.928455776982206"><ele>369.4</ele><time>2026-04-18T10:18:19.001Z</time></trkpt><trkpt lat="43.40719685768418" lon="10.928353018859497"><ele>369.0</ele><time>2026-04-18T10:18:20.001Z</time></trkpt><trkpt lat="43.40713170408963" lon="10.928261669003978"><ele>368.4</ele><time>2026-04-18T10:18:21.001Z</time></trkpt><trkpt lat="43.40705405248015" lon="10.928183266280486"><ele>367.79999999999995</ele><time>2026-04-18T10:18:22.001Z</time></trkpt><trkpt lat="43.40698052554866" lon="10.928099880940975"><ele>367.20000000000005</ele><time>2026-04-18T10:18:23.001Z</time></trkpt><trkpt lat="43.40691098249599" lon="10.928003470891577"><ele>366.6</ele><time>2026-04-18T10:18:24.001Z</time></trkpt><trkpt lat="43.4068457407891" lon="10.927915595864684"><ele>366.0</ele><time>2026-04-18T10:18:25.001Z</time></trkpt><trkpt lat="43.40677720115558" lon="10.927845294572666"><ele>366.0</ele><time>2026-04-18T10:18:26.001Z</time></trkpt><trkpt lat="43.406712987075906" lon="10.927776501503223"><ele>366.0</ele><time>2026-04-18T10:18:27.001Z</time></trkpt><trkpt lat="43.40666272248017" lon="10.927704346443429"><ele>366.0</ele><time>2026-04-18T10:18:28.001Z</time></trkpt><trkpt lat="43.406639490167755" lon="10.92761930261811"><ele>366.0</ele><time>2026-04-18T10:18:29.001Z</time></trkpt><trkpt lat="43.406595936687275" lon="10.92753130110415"><ele>366.0</ele><time>2026-04-18T10:18:30.001Z</time></trkpt><trkpt lat="43.40659195056913" lon="10.927431988614625"><ele>366.0</ele><time>2026-04-18T10:18:31.001Z</time></trkpt><trkpt lat="43.406554666547606" lon="10.927339621171015"><ele>366.0</ele><time>2026-04-18T10:18:32.001Z</time></trkpt><trkpt lat="43.406530124460865" lon="10.9272298951114"><ele>367.6666666666667</ele><time>2026-04-18T10:18:33.001Z</time></trkpt><trkpt lat="43.40651343996924" lon="10.927114584716213"><ele>369.3333333333333</ele><time>2026-04-18T10:18:34.001Z</time></trkpt><trkpt lat="43.40646282097616" lon="10.927010923977674"><ele>371.0</ele><time>2026-04-18T10:18:35.001Z</time></trkpt><trkpt lat="43.40642369513866" lon="10.926902913483149"><ele>372.66666666666663</ele><time>2026-04-18T10:18:36.001Z</time></trkpt><trkpt lat="43.40637862186775" lon="10.92679529091738"><ele>374.3333333333333</ele><time>2026-04-18T10:18:37.001Z</time></trkpt><trkpt lat="43.40632495947896" lon="10.926694431022515"><ele>376.0</ele><time>2026-04-18T10:18:38.001Z</time></trkpt><trkpt lat="43.40626135765097" lon="10.926610947621391"><ele>376.3333333333333</ele><time>2026-04-18T10:18:39.001Z</time></trkpt><trkpt lat="43.40619501221007" lon="10.926524827180492"><ele>376.66666666666663</ele><time>2026-04-18T10:18:40.001Z</time></trkpt><trkpt lat="43.4061284425347" lon="10.926451288884195"><ele>377.0</ele><time>2026-04-18T10:18:41.001Z</time></trkpt><trkpt lat="43.406063479100204" lon="10.926375528670835"><ele>377.3333333333333</ele><time>2026-04-18T10:18:42.001Z</time></trkpt><trkpt lat="43.40599847551052" lon="10.926301301528596"><ele>377.6666666666667</ele><time>2026-04-18T10:18:43.001Z</time></trkpt><trkpt lat="43.405934216209644" lon="10.92622316763878"><ele>378.0</ele><time>2026-04-18T10:18:44.001Z</time></trkpt><trkpt lat="43.40586926725259" lon="10.926144622399272"><ele>378.0</ele><time>2026-04-18T10:18:45.001Z</time></trkpt><trkpt lat="43.40580005370168" lon="10.926062317353946"><ele>378.0</ele><time>2026-04-18T10:18:46.001Z</time></trkpt><trkpt lat="43.405740714527724" lon="10.925953785032176"><ele>378.0</ele><time>2026-04-18T10:18:47.001Z</time></trkpt><trkpt lat="43.40565741988692" lon="10.925867042007042"><ele>378.0</ele><time>2026-04-18T10:18:48.001Z</time></trkpt><trkpt lat="43.405583229975875" lon="10.925759043962612"><ele>378.0</ele><time>2026-04-18T10:18:49.001Z</time></trkpt><trkpt lat="43.405508002160786" lon="10.925644457062456"><ele>377.25</ele><time>2026-04-18T10:18:50.001Z</time></trkpt><trkpt lat="43.40542999624676" lon="10.925532189032007"><ele>376.5</ele><time>2026-04-18T10:18:51.001Z</time></trkpt><trkpt lat="43.40534998545296" lon="10.925414863181004"><ele>375.75</ele><time>2026-04-18T10:18:52.001Z</time></trkpt><trkpt lat="43.4052601431413" lon="10.925302640192331"><ele>375.0</ele><time>2026-04-18T10:18:53.001Z</time></trkpt><trkpt lat="43.405157627009956" lon="10.92519280413697"><ele>375.0</ele><time>2026-04-18T10:18:54.001Z</time></trkpt><trkpt lat="43.4050441095118" lon="10.92509197218239"><ele>375.0</ele><time>2026-04-18T10:18:55.001Z</time></trkpt><trkpt lat="43.40492870804612" lon="10.92499589143514"><ele>375.0</ele><time>2026-04-18T10:18:56.001Z</time></trkpt><trkpt lat="43.40481379437758" lon="10.924897526411488"><ele>375.0</ele><time>2026-04-18T10:18:57.001Z</time></trkpt><trkpt lat="43.40469655027485" lon="10.924798630618492"><ele>375.25</ele><time>2026-04-18T10:18:58.001Z</time></trkpt><trkpt lat="43.40458070182133" lon="10.924694520583396"><ele>375.5</ele><time>2026-04-18T10:18:59.001Z</time></trkpt><trkpt lat="43.40446512068722" lon="10.92458247447346"><ele>375.75</ele><time>2026-04-18T10:19:00.001Z</time></trkpt><trkpt lat="43.404349330943916" lon="10.924467700519067"><ele>376.0</ele><time>2026-04-18T10:19:01.001Z</time></trkpt><trkpt lat="43.404235498845715" lon="10.924347110269546"><ele>375.25</ele><time>2026-04-18T10:19:02.001Z</time></trkpt><trkpt lat="43.40413454431063" lon="10.924211862615595"><ele>374.5</ele><time>2026-04-18T10:19:03.001Z</time></trkpt><trkpt lat="43.40403003359471" lon="10.924093811864953"><ele>373.75</ele><time>2026-04-18T10:19:04.001Z</time></trkpt><trkpt lat="43.40392933897557" lon="10.923976133799517"><ele>373.0</ele><time>2026-04-18T10:19:05.001Z</time></trkpt><trkpt lat="43.403826575380926" lon="10.923873953242413"><ele>373.0</ele><time>2026-04-18T10:19:06.001Z</time></trkpt><trkpt lat="43.403745349481724" lon="10.923757863059"><ele>373.0</ele><time>2026-04-18T10:19:07.001Z</time></trkpt><trkpt lat="43.40367006877114" lon="10.923636837830262"><ele>373.0</ele><time>2026-04-18T10:19:08.001Z</time></trkpt><trkpt lat="43.4036036760629" lon="10.923508668538172"><ele>373.0</ele><time>2026-04-18T10:19:09.001Z</time></trkpt><trkpt lat="43.403556277397016" lon="10.923370494480416"><ele>374.59999999999997</ele><time>2026-04-18T10:19:10.001Z</time></trkpt><trkpt lat="43.40352268103034" lon="10.923227513818599"><ele>376.2</ele><time>2026-04-18T10:19:11.001Z</time></trkpt><trkpt lat="43.40349462534492" lon="10.923085079266059"><ele>377.8</ele><time>2026-04-18T10:19:12.001Z</time></trkpt><trkpt lat="43.403459345979925" lon="10.922943640694788"><ele>379.4</ele><time>2026-04-18T10:19:13.001Z</time></trkpt><trkpt lat="43.40342156292523" lon="10.92280354746098"><ele>381.0</ele><time>2026-04-18T10:19:14.001Z</time></trkpt><trkpt lat="43.40338227832483" lon="10.922662253680906"><ele>380.0</ele><time>2026-04-18T10:19:15.001Z</time></trkpt><trkpt lat="43.403339433406515" lon="10.922525446850072"><ele>379.0</ele><time>2026-04-18T10:19:16.001Z</time></trkpt><trkpt lat="43.40329636794792" lon="10.922387772720178"><ele>378.0</ele><time>2026-04-18T10:19:17.001Z</time></trkpt><trkpt lat="43.403256397439215" lon="10.922247092332471"><ele>377.0</ele><time>2026-04-18T10:19:18.001Z</time></trkpt><trkpt lat="43.40321750649462" lon="10.922104465552207"><ele>376.0</ele><time>2026-04-18T10:19:19.001Z</time></trkpt><trkpt lat="43.40318438838491" lon="10.921958600129114"><ele>376.0</ele><time>2026-04-18T10:19:20.001Z</time></trkpt><trkpt lat="43.40315071152125" lon="10.921811878655868"><ele>376.0</ele><time>2026-04-18T10:19:21.001Z</time></trkpt><trkpt lat="43.40311707309975" lon="10.921660407085277"><ele>376.0</ele><time>2026-04-18T10:19:22.001Z</time></trkpt><trkpt lat="43.40308827182312" lon="10.921509254028619"><ele>376.0</ele><time>2026-04-18T10:19:23.001Z</time></trkpt><trkpt lat="43.403066824450946" lon="10.92136804368606"><ele>376.0</ele><time>2026-04-18T10:19:24.001Z</time></trkpt><trkpt lat="43.403059418233276" lon="10.921234218817371"><ele>375.20000000000005</ele><time>2026-04-18T10:19:25.001Z</time></trkpt><trkpt lat="43.40308861537044" lon="10.92110615200777"><ele>374.40000000000003</ele><time>2026-04-18T10:19:26.001Z</time></trkpt><trkpt lat="43.403098117264186" lon="10.920981477648763"><ele>373.6</ele><time>2026-04-18T10:19:27.001Z</time></trkpt><trkpt lat="43.40313671719706" lon="10.920852985266126"><ele>372.8</ele><time>2026-04-18T10:19:28Z</time></trkpt><trkpt lat="43.40318089698296" lon="10.920735117427643"><ele>372.0</ele><time>2026-04-18T10:19:29Z</time></trkpt><trkpt lat="43.403236127285076" lon="10.920639996575245"><ele>371.3333333333333</ele><time>2026-04-18T10:19:30Z</time></trkpt><trkpt lat="43.403277971626615" lon="10.920540210185166"><ele>370.6666666666667</ele><time>2026-04-18T10:19:31Z</time></trkpt><trkpt lat="43.40331755329294" lon="10.92044128985622"><ele>370.0</ele><time>2026-04-18T10:19:32Z</time></trkpt><trkpt lat="43.403352248411494" lon="10.92035277747532"><ele>369.33333333333337</ele><time>2026-04-18T10:19:33Z</time></trkpt><trkpt lat="43.4033849545466" lon="10.920268559613735"><ele>368.6666666666667</ele><time>2026-04-18T10:19:34Z</time></trkpt><trkpt lat="43.403442427459275" lon="10.92011037781121"><ele>368.0</ele><time>2026-04-18T10:19:36Z</time></trkpt><trkpt lat="43.40349166435209" lon="10.919966518498534"><ele>367.6666666666667</ele><time>2026-04-18T10:19:38Z</time></trkpt><trkpt lat="43.403525106685386" lon="10.919861655494575"><ele>367.33333333333337</ele><time>2026-04-18T10:19:40Z</time></trkpt><trkpt lat="43.40354107333064" lon="10.919764178922556"><ele>367.0</ele><time>2026-04-18T10:19:43Z</time></trkpt><trkpt lat="43.403569646171725" lon="10.91967772929499"><ele>366.6666666666667</ele><time>2026-04-18T10:19:55Z</time></trkpt><trkpt lat="43.40360148174477" lon="10.919554977637427"><ele>366.3333333333333</ele><time>2026-04-18T10:19:58Z</time></trkpt><trkpt lat="43.403625942484126" lon="10.919450930032665"><ele>366.0</ele><time>2026-04-18T10:20:02Z</time></trkpt><trkpt lat="43.403647994851134" lon="10.919367567170251"><ele>366.0</ele><time>2026-04-18T10:20:06Z</time></trkpt><trkpt lat="43.40367816681878" lon="10.919284210529657"><ele>366.0</ele><time>2026-04-18T10:20:10Z</time></trkpt><trkpt lat="43.403699727869274" lon="10.919182073853209"><ele>366.0</ele><time>2026-04-18T10:20:13Z</time></trkpt><trkpt lat="43.403716708579836" lon="10.919098347629564"><ele>366.0</ele><time>2026-04-18T10:20:15Z</time></trkpt><trkpt lat="43.40373621990153" lon="10.918988927763621"><ele>366.0</ele><time>2026-04-18T10:20:17Z</time></trkpt><trkpt lat="43.403756364569915" lon="10.91885319683275"><ele>366.0</ele><time>2026-04-18T10:20:19Z</time></trkpt><trkpt lat="43.4037691261923" lon="10.918690899635598"><ele>365.42857142857144</ele><time>2026-04-18T10:20:21.001Z</time></trkpt><trkpt lat="43.403769390740834" lon="10.918601209281562"><ele>364.8571428571429</ele><time>2026-04-18T10:20:22.001Z</time></trkpt><trkpt lat="43.403764743780634" lon="10.91850470749606"><ele>364.2857142857143</ele><time>2026-04-18T10:20:23.001Z</time></trkpt><trkpt lat="43.40375708427899" lon="10.918405690884596"><ele>363.7142857142857</ele><time>2026-04-18T10:20:24.001Z</time></trkpt><trkpt lat="43.40373854333597" lon="10.9183047185384"><ele>363.1428571428571</ele><time>2026-04-18T10:20:25.001Z</time></trkpt><trkpt lat="43.40371156514592" lon="10.918209444290513"><ele>362.57142857142856</ele><time>2026-04-18T10:20:26.001Z</time></trkpt><trkpt lat="43.40367704588131" lon="10.918115957448922"><ele>362.0</ele><time>2026-04-18T10:20:27.001Z</time></trkpt><trkpt lat="43.40363460666359" lon="10.918025615710695"><ele>361.0</ele><time>2026-04-18T10:20:28.001Z</time></trkpt><trkpt lat="43.40358641134111" lon="10.917936271884585"><ele>360.0</ele><time>2026-04-18T10:20:29.001Z</time></trkpt><trkpt lat="43.40353297270906" lon="10.917845949780135"><ele>359.0</ele><time>2026-04-18T10:20:30.001Z</time></trkpt><trkpt lat="43.40347968407951" lon="10.917749816761507"><ele>358.0</ele><time>2026-04-18T10:20:31.001Z</time></trkpt><trkpt lat="43.40342988444558" lon="10.917646352471031"><ele>357.0</ele><time>2026-04-18T10:20:32.001Z</time></trkpt><trkpt lat="43.40339538557029" lon="10.917531854866429"><ele>356.0</ele><time>2026-04-18T10:20:33.001Z</time></trkpt><trkpt lat="43.40337284640071" lon="10.917424083584047"><ele>354.99999999999994</ele><time>2026-04-18T10:20:34.001Z</time></trkpt><trkpt lat="43.4033579304712" lon="10.917319534491597"><ele>354.0</ele><time>2026-04-18T10:20:35.001Z</time></trkpt><trkpt lat="43.403343845406816" lon="10.917215972330059"><ele>353.0</ele><time>2026-04-18T10:20:36.001Z</time></trkpt><trkpt lat="43.40333160940192" lon="10.917117443549115"><ele>352.0</ele><time>2026-04-18T10:20:37.001Z</time></trkpt><trkpt lat="43.403316868701495" lon="10.917020161000226"><ele>351.0</ele><time>2026-04-18T10:20:38.001Z</time></trkpt><trkpt lat="43.403293567394" lon="10.916928044406749"><ele>349.99999999999994</ele><time>2026-04-18T10:20:39.001Z</time></trkpt><trkpt lat="43.40325970507563" lon="10.916846990075076"><ele>349.0</ele><time>2026-04-18T10:20:40.001Z</time></trkpt><trkpt lat="43.403221717928325" lon="10.91677406303278"><ele>348.79999999999995</ele><time>2026-04-18T10:20:41.001Z</time></trkpt><trkpt lat="43.403145056721996" lon="10.916650780252759"><ele>348.59999999999997</ele><time>2026-04-18T10:20:43.001Z</time></trkpt><trkpt lat="43.40305362124798" lon="10.916546950188113"><ele>348.4</ele><time>2026-04-18T10:20:45.001Z</time></trkpt><trkpt lat="43.403004060013984" lon="10.916491428007415"><ele>348.2</ele><time>2026-04-18T10:20:46.001Z</time></trkpt><trkpt lat="43.40291252350118" lon="10.916385972117855"><ele>348.0</ele><time>2026-04-18T10:20:48.001Z</time></trkpt><trkpt lat="43.40282082279981" lon="10.916280043582228"><ele>348.0</ele><time>2026-04-18T10:20:50.001Z</time></trkpt><trkpt lat="43.402770585404134" lon="10.916227333471276"><ele>348.0</ele><time>2026-04-18T10:20:51.001Z</time></trkpt><trkpt lat="43.402718672281416" lon="10.916172969700552"><ele>348.0</ele><time>2026-04-18T10:20:52.001Z</time></trkpt><trkpt lat="43.4026646095291" lon="10.916120668793567"><ele>348.0</ele><time>2026-04-18T10:20:53.001Z</time></trkpt><trkpt lat="43.40261390427864" lon="10.91606887226134"><ele>348.0</ele><time>2026-04-18T10:20:54.001Z</time></trkpt><trkpt lat="43.402559657681216" lon="10.916014135371054"><ele>348.0</ele><time>2026-04-18T10:20:55.001Z</time></trkpt><trkpt lat="43.40250072923818" lon="10.915958366754133"><ele>348.0</ele><time>2026-04-18T10:20:56.001Z</time></trkpt><trkpt lat="43.402442087978734" lon="10.915904517786998"><ele>346.3333333333333</ele><time>2026-04-18T10:20:57.001Z</time></trkpt><trkpt lat="43.402388537866294" lon="10.915855708842052"><ele>344.6666666666667</ele><time>2026-04-18T10:20:58.001Z</time></trkpt><trkpt lat="43.40229772771954" lon="10.915776747290762"><ele>343.0</ele><time>2026-04-18T10:21:00.001Z</time></trkpt><trkpt lat="43.402229809572326" lon="10.915685256719048"><ele>341.33333333333337</ele><time>2026-04-18T10:21:02.001Z</time></trkpt><trkpt lat="43.40219834495428" lon="10.915585481528195"><ele>339.6666666666667</ele><time>2026-04-18T10:21:05.001Z</time></trkpt><trkpt lat="43.402255233740405" lon="10.915519221635604"><ele>338.0</ele><time>2026-04-18T10:21:08.001Z</time></trkpt><trkpt lat="43.40234458694974" lon="10.91549409313802"><ele>338.0</ele><time>2026-04-18T10:21:10.001Z</time></trkpt><trkpt lat="43.40240609301789" lon="10.915465838278934"><ele>338.0</ele><time>2026-04-18T10:21:11.001Z</time></trkpt><trkpt lat="43.40247639128427" lon="10.915428918576168"><ele>338.0</ele><time>2026-04-18T10:21:12.001Z</time></trkpt><trkpt lat="43.40254703609877" lon="10.915370252905975"><ele>338.0</ele><time>2026-04-18T10:21:13.001Z</time></trkpt><trkpt lat="43.402616840428706" lon="10.915333299786266"><ele>338.0</ele><time>2026-04-18T10:21:14.001Z</time></trkpt><trkpt lat="43.40269698760406" lon="10.91526704397776"><ele>338.0</ele><time>2026-04-18T10:21:16.001Z</time></trkpt><trkpt lat="43.40273171524167" lon="10.915192066889395"><ele>336.33333333333337</ele><time>2026-04-18T10:25:11.001Z</time></trkpt><trkpt lat="43.40275585999874" lon="10.915064067230498"><ele>334.6666666666667</ele><time>2026-04-18T10:25:15.001Z</time></trkpt><trkpt lat="43.402771343663325" lon="10.914978245016561"><ele>333.0</ele><time>2026-04-18T10:27:08.001Z</time></trkpt><trkpt lat="43.40280069854551" lon="10.914839530844617"><ele>331.3333333333333</ele><time>2026-04-18T10:27:10.001Z</time></trkpt><trkpt lat="43.402821193143794" lon="10.91474854209459"><ele>329.66666666666663</ele><time>2026-04-18T10:27:11.001Z</time></trkpt><trkpt lat="43.40284328335814" lon="10.914648288000603"><ele>328.0</ele><time>2026-04-18T10:27:12.001Z</time></trkpt><trkpt lat="43.40286785633093" lon="10.914538733694028"><ele>328.0</ele><time>2026-04-18T10:27:13.001Z</time></trkpt><trkpt lat="43.402895733128524" lon="10.914410701792624"><ele>328.0</ele><time>2026-04-18T10:27:14.001Z</time></trkpt><trkpt lat="43.40292330822427" lon="10.914258276468745"><ele>328.0</ele><time>2026-04-18T10:27:15.001Z</time></trkpt><trkpt lat="43.402953998032245" lon="10.914089731968508"><ele>328.0</ele><time>2026-04-18T10:27:16.001Z</time></trkpt><trkpt lat="43.40298135239408" lon="10.913908574324648"><ele>326.5</ele><time>2026-04-18T10:27:17.001Z</time></trkpt><trkpt lat="43.40300161667558" lon="10.913720312614597"><ele>325.0</ele><time>2026-04-18T10:27:18.001Z</time></trkpt><trkpt lat="43.40301279657638" lon="10.913531346473931"><ele>323.5</ele><time>2026-04-18T10:27:19.001Z</time></trkpt><trkpt lat="43.40301802550348" lon="10.913340538774944"><ele>322.0</ele><time>2026-04-18T10:27:20.001Z</time></trkpt><trkpt lat="43.40301587107918" lon="10.9131499611102"><ele>322.25</ele><time>2026-04-18T10:27:21.001Z</time></trkpt><trkpt lat="43.40300103587848" lon="10.912960871291153"><ele>322.5</ele><time>2026-04-18T10:27:22.001Z</time></trkpt><trkpt lat="43.40297939583935" lon="10.912774337599819"><ele>322.75</ele><time>2026-04-18T10:27:23.001Z</time></trkpt><trkpt lat="43.402959028413505" lon="10.912590887642535"><ele>323.0</ele><time>2026-04-18T10:27:24.001Z</time></trkpt><trkpt lat="43.402936975706695" lon="10.912404385793725"><ele>323.0</ele><time>2026-04-18T10:27:25.001Z</time></trkpt><trkpt lat="43.40291584131732" lon="10.912224323225109"><ele>323.0</ele><time>2026-04-18T10:27:26.001Z</time></trkpt><trkpt lat="43.40289966656484" lon="10.912043634063874"><ele>323.0</ele><time>2026-04-18T10:27:27.001Z</time></trkpt><trkpt lat="43.402878746963935" lon="10.911870247042616"><ele>323.0</ele><time>2026-04-18T10:27:28.001Z</time></trkpt><trkpt lat="43.40285767511615" lon="10.911701229986233"><ele>324.2</ele><time>2026-04-18T10:27:29.001Z</time></trkpt><trkpt lat="43.402838650841794" lon="10.911539900976072"><ele>325.4</ele><time>2026-04-18T10:27:30.001Z</time></trkpt><trkpt lat="43.4028212906436" lon="10.911383670243143"><ele>326.59999999999997</ele><time>2026-04-18T10:27:31.001Z</time></trkpt><trkpt lat="43.40280393142503" lon="10.911237458495753"><ele>327.79999999999995</ele><time>2026-04-18T10:27:32.001Z</time></trkpt><trkpt lat="43.40278752941304" lon="10.911100451859761"><ele>329.0</ele><time>2026-04-18T10:27:33.001Z</time></trkpt><trkpt lat="43.40277013830699" lon="10.910970448074861"><ele>330.0</ele><time>2026-04-18T10:27:34.001Z</time></trkpt><trkpt lat="43.40275570266285" lon="10.910855818660263"><ele>331.0</ele><time>2026-04-18T10:27:35.001Z</time></trkpt><trkpt lat="43.402742728526924" lon="10.910756106837153"><ele>332.0</ele><time>2026-04-18T10:27:36.001Z</time></trkpt><trkpt lat="43.402706274001694" lon="10.910611279991931"><ele>333.0</ele><time>2026-04-18T10:27:38.001Z</time></trkpt><trkpt lat="43.40267379030277" lon="10.910527819696032"><ele>334.0</ele><time>2026-04-18T10:27:40.001Z</time></trkpt><trkpt lat="43.40264374539168" lon="10.91044808864433"><ele>335.0</ele><time>2026-04-18T10:28:09.001Z</time></trkpt><trkpt lat="43.40259845643739" lon="10.910354687628262"><ele>335.0</ele><time>2026-04-18T10:28:58.001Z</time></trkpt><trkpt lat="43.402549319629756" lon="10.910252065388157"><ele>335.0</ele><time>2026-04-18T10:29:01.001Z</time></trkpt><trkpt lat="43.402516004091154" lon="10.910164900800334"><ele>335.0</ele><time>2026-04-18T10:29:03.001Z</time></trkpt><trkpt lat="43.40247958246908" lon="10.910066422656609"><ele>335.0</ele><time>2026-04-18T10:29:05.001Z</time></trkpt><trkpt lat="43.40243715491024" lon="10.909947271155184"><ele>335.0</ele><time>2026-04-18T10:29:07.001Z</time></trkpt><trkpt lat="43.402386808875995" lon="10.909811680439333"><ele>335.0</ele><time>2026-04-18T10:29:09.001Z</time></trkpt><trkpt lat="43.40232783857168" lon="10.909658370527742"><ele>336.1428571428571</ele><time>2026-04-18T10:29:11.001Z</time></trkpt><trkpt lat="43.402296538933804" lon="10.909574401389468"><ele>337.2857142857143</ele><time>2026-04-18T10:29:12.001Z</time></trkpt><trkpt lat="43.40226399854457" lon="10.90948688080264"><ele>338.42857142857144</ele><time>2026-04-18T10:29:13.001Z</time></trkpt><trkpt lat="43.40222934578797" lon="10.909397737139459"><ele>339.57142857142856</ele><time>2026-04-18T10:29:14.001Z</time></trkpt><trkpt lat="43.402193724268756" lon="10.90930580234808"><ele>340.7142857142857</ele><time>2026-04-18T10:29:15.001Z</time></trkpt><trkpt lat="43.40215992552719" lon="10.909210400032437"><ele>341.85714285714283</ele><time>2026-04-18T10:29:16.001Z</time></trkpt><trkpt lat="43.40212437181526" lon="10.909113338886613"><ele>343.0</ele><time>2026-04-18T10:29:17.001Z</time></trkpt><trkpt lat="43.402088091203716" lon="10.909014614153588"><ele>343.5</ele><time>2026-04-18T10:29:18.001Z</time></trkpt><trkpt lat="43.402053583542056" lon="10.908913453716638"><ele>344.0</ele><time>2026-04-18T10:29:19.001Z</time></trkpt><trkpt lat="43.40201615427863" lon="10.908814303393644"><ele>344.5</ele><time>2026-04-18T10:29:20.001Z</time></trkpt><trkpt lat="43.40198107462146" lon="10.908716882113863"><ele>345.0</ele><time>2026-04-18T10:29:21.001Z</time></trkpt><trkpt lat="43.40194501724144" lon="10.908629122775764"><ele>345.5</ele><time>2026-04-18T10:29:22.001Z</time></trkpt><trkpt lat="43.401896451097414" lon="10.908559285711618"><ele>346.0</ele><time>2026-04-18T10:29:23.001Z</time></trkpt><trkpt lat="43.40183843075443" lon="10.908513010959588"><ele>346.0</ele><time>2026-04-18T10:29:24.001Z</time></trkpt><trkpt lat="43.401776317563346" lon="10.908492587677596"><ele>346.0</ele><time>2026-04-18T10:29:25.001Z</time></trkpt><trkpt lat="43.4017106216037" lon="10.90848794443314"><ele>346.0</ele><time>2026-04-18T10:29:26.001Z</time></trkpt><trkpt lat="43.40163737414093" lon="10.908476606936862"><ele>346.0</ele><time>2026-04-18T10:29:27.001Z</time></trkpt><trkpt lat="43.40156285096731" lon="10.908487864215845"><ele>346.0</ele><time>2026-04-18T10:29:28.001Z</time></trkpt><trkpt lat="43.40149202256782" lon="10.908499943232396"><ele>346.0</ele><time>2026-04-18T10:29:29.001Z</time></trkpt><trkpt lat="43.401422627217144" lon="10.908533476607403"><ele>346.0</ele><time>2026-04-18T10:29:30.001Z</time></trkpt><trkpt lat="43.401348394633146" lon="10.9085406010148"><ele>346.0</ele><time>2026-04-18T10:29:31.001Z</time></trkpt><trkpt lat="43.40127564319952" lon="10.908549318853456"><ele>346.0</ele><time>2026-04-18T10:29:32.001Z</time></trkpt><trkpt lat="43.40119276099137" lon="10.908536930235504"><ele>346.0</ele><time>2026-04-18T10:29:33.001Z</time></trkpt><trkpt lat="43.40111430565879" lon="10.908540639894465"><ele>346.0</ele><time>2026-04-18T10:29:34.001Z</time></trkpt><trkpt lat="43.4010309162929" lon="10.908545272985199"><ele>346.0</ele><time>2026-04-18T10:29:35.001Z</time></trkpt><trkpt lat="43.40094296487587" lon="10.908556605539653"><ele>346.0</ele><time>2026-04-18T10:29:36.001Z</time></trkpt><trkpt lat="43.400856667447265" lon="10.908590100789143"><ele>346.0</ele><time>2026-04-18T10:29:37.001Z</time></trkpt><trkpt lat="43.40076331377013" lon="10.908595266400742"><ele>346.0</ele><time>2026-04-18T10:29:38.001Z</time></trkpt><trkpt lat="43.40067115004151" lon="10.9086066203209"><ele>346.0</ele><time>2026-04-18T10:29:39.001Z</time></trkpt><trkpt lat="43.40058280115457" lon="10.908613852823606"><ele>346.0</ele><time>2026-04-18T10:29:40.001Z</time></trkpt><trkpt lat="43.40050290921954" lon="10.908618896548873"><ele>346.0</ele><time>2026-04-18T10:29:41.001Z</time></trkpt><trkpt lat="43.40043165049982" lon="10.908625302959114"><ele>346.0</ele><time>2026-04-18T10:29:42.001Z</time></trkpt><trkpt lat="43.400364824250545" lon="10.908634372021256"><ele>346.5</ele><time>2026-04-18T10:29:43.001Z</time></trkpt><trkpt lat="43.400299018341315" lon="10.908637160972935"><ele>347.0</ele><time>2026-04-18T10:29:44.001Z</time></trkpt><trkpt lat="43.40012205221441" lon="10.90832301580806"><ele>347.5</ele><time>2026-04-18T10:29:49.001Z</time></trkpt><trkpt lat="43.400093078159756" lon="10.908235933080507"><ele>348.0</ele><time>2026-04-18T10:29:50.001Z</time></trkpt><trkpt lat="43.40004622396273" lon="10.908156632994057"><ele>348.5</ele><time>2026-04-18T10:29:51.001Z</time></trkpt><trkpt lat="43.400005542898484" lon="10.908082935768343"><ele>349.0</ele><time>2026-04-18T10:29:52.001Z</time></trkpt><trkpt lat="43.39995637788433" lon="10.907919447189565"><ele>349.5</ele><time>2026-04-18T10:29:54.001Z</time></trkpt><trkpt lat="43.39995984522262" lon="10.90781867251591"><ele>350.0</ele><time>2026-04-18T10:29:55.001Z</time></trkpt><trkpt lat="43.399993056259" lon="10.907724798678691"><ele>350.5</ele><time>2026-04-18T10:29:56.001Z</time></trkpt><trkpt lat="43.40000087165408" lon="10.907622797672795"><ele>351.0</ele><time>2026-04-18T10:29:57.001Z</time></trkpt><trkpt lat="43.40001871694541" lon="10.907516399343317"><ele>349.6</ele><time>2026-04-18T10:29:58Z</time></trkpt><trkpt lat="43.400039231413274" lon="10.90740474858633"><ele>348.20000000000005</ele><time>2026-04-18T10:29:59Z</time></trkpt><trkpt lat="43.40006423417214" lon="10.907287651052375"><ele>346.79999999999995</ele><time>2026-04-18T10:30:00Z</time></trkpt><trkpt lat="43.40009781637354" lon="10.907168410458354"><ele>345.4</ele><time>2026-04-18T10:30:01Z</time></trkpt><trkpt lat="43.40012782659209" lon="10.907046675591827"><ele>344.0</ele><time>2026-04-18T10:30:02Z</time></trkpt><trkpt lat="43.40015493296558" lon="10.906924411883889"><ele>344.0</ele><time>2026-04-18T10:30:03Z</time></trkpt><trkpt lat="43.40018610366429" lon="10.906804506426099"><ele>344.0</ele><time>2026-04-18T10:30:04Z</time></trkpt><trkpt lat="43.4002144739451" lon="10.906696735046252"><ele>344.0</ele><time>2026-04-18T10:30:05Z</time></trkpt><trkpt lat="43.400240812655085" lon="10.906599861125855"><ele>344.0</ele><time>2026-04-18T10:30:06Z</time></trkpt><trkpt lat="43.40026327758046" lon="10.906507908253436"><ele>344.0</ele><time>2026-04-18T10:30:07Z</time></trkpt><trkpt lat="43.40027653619279" lon="10.906412746540262"><ele>344.0</ele><time>2026-04-18T10:30:08Z</time></trkpt><trkpt lat="43.40027772071223" lon="10.90631148664775"><ele>343.4</ele><time>2026-04-18T10:30:09Z</time></trkpt><trkpt lat="43.40026606220409" lon="10.906202158552116"><ele>342.79999999999995</ele><time>2026-04-18T10:30:10Z</time></trkpt><trkpt lat="43.4002461015448" lon="10.906090914794175"><ele>342.20000000000005</ele><time>2026-04-18T10:30:11Z</time></trkpt><trkpt lat="43.40021193897982" lon="10.905974394607275"><ele>341.6</ele><time>2026-04-18T10:30:12Z</time></trkpt><trkpt lat="43.400165823447" lon="10.905859158966605"><ele>341.0</ele><time>2026-04-18T10:30:13Z</time></trkpt><trkpt lat="43.40010937800439" lon="10.905743001937564"><ele>341.0</ele><time>2026-04-18T10:30:14Z</time></trkpt><trkpt lat="43.40005076971362" lon="10.90562516331849"><ele>341.0</ele><time>2026-04-18T10:30:15Z</time></trkpt><trkpt lat="43.39999327814529" lon="10.905508919937136"><ele>341.0</ele><time>2026-04-18T10:30:16Z</time></trkpt><trkpt lat="43.3999425246491" lon="10.905401279692018"><ele>341.0</ele><time>2026-04-18T10:30:17Z</time></trkpt><trkpt lat="43.39990043978156" lon="10.905295795655324"><ele>341.0</ele><time>2026-04-18T10:30:18Z</time></trkpt><trkpt lat="43.399867961965654" lon="10.90518885838583"><ele>341.0</ele><time>2026-04-18T10:30:19Z</time></trkpt><trkpt lat="43.399849226069136" lon="10.905095224198774"><ele>341.0</ele><time>2026-04-18T10:30:20Z</time></trkpt><trkpt lat="43.3998160455185" lon="10.904957288622606"><ele>341.0</ele><time>2026-04-18T10:30:22Z</time></trkpt><trkpt lat="43.3997310354807" lon="10.904918371811949"><ele>341.0</ele><time>2026-04-18T10:30:24Z</time></trkpt><trkpt lat="43.39965333866456" lon="10.905025689289085"><ele>341.0</ele><time>2026-04-18T10:30:26Z</time></trkpt><trkpt lat="43.399637697801005" lon="10.905117848442165"><ele>341.0</ele><time>2026-04-18T10:30:27Z</time></trkpt><trkpt lat="43.399636949272335" lon="10.905230278462039"><ele>341.0</ele><time>2026-04-18T10:30:28Z</time></trkpt><trkpt lat="43.39966333766329" lon="10.905341489970038"><ele>341.0</ele><time>2026-04-18T10:30:29Z</time></trkpt><trkpt lat="43.39969168269948" lon="10.905422268182226"><ele>341.0</ele><time>2026-04-18T10:30:30Z</time></trkpt><trkpt lat="43.399709234852466" lon="10.905519450046759"><ele>341.0</ele><time>2026-04-18T10:30:32Z</time></trkpt><trkpt lat="43.399659914889355" lon="10.90562670494454"><ele>341.0</ele><time>2026-04-18T10:30:35Z</time></trkpt><trkpt lat="43.39960088405249" lon="10.905579592453343"><ele>341.0</ele><time>2026-04-18T10:30:36Z</time></trkpt><trkpt lat="43.3994944797945" lon="10.905490901076492"><ele>336.83333333333337</ele><time>2026-04-18T10:30:38Z</time></trkpt><trkpt lat="43.39944291277347" lon="10.905417065664242"><ele>332.6666666666667</ele><time>2026-04-18T10:30:39Z</time></trkpt><trkpt lat="43.39943443310861" lon="10.90530364133682"><ele>328.5</ele><time>2026-04-18T10:30:40Z</time></trkpt><trkpt lat="43.39940743164014" lon="10.905196953712725"><ele>324.3333333333333</ele><time>2026-04-18T10:30:41Z</time></trkpt><trkpt lat="43.39936898859226" lon="10.905100628586506"><ele>320.16666666666663</ele><time>2026-04-18T10:30:42Z</time></trkpt><trkpt lat="43.39933695889109" lon="10.905008819655606"><ele>316.0</ele><time>2026-04-18T10:30:43Z</time></trkpt><trkpt lat="43.39930161563578" lon="10.904918078036635"><ele>316.00000000000006</ele><time>2026-04-18T10:30:44Z</time></trkpt><trkpt lat="43.399279752169036" lon="10.904823578070046"><ele>316.0</ele><time>2026-04-18T10:30:45Z</time></trkpt><trkpt lat="43.39924084339679" lon="10.904745012515326"><ele>316.0</ele><time>2026-04-18T10:30:46Z</time></trkpt><trkpt lat="43.399264222544495" lon="10.90465547495111"><ele>316.0</ele><time>2026-04-18T10:30:47Z</time></trkpt><trkpt lat="43.399298427907006" lon="10.90458188639457"><ele>316.0</ele><time>2026-04-18T10:30:48Z</time></trkpt><trkpt lat="43.39934537815329" lon="10.904507832953703"><ele>316.00000000000006</ele><time>2026-04-18T10:30:49Z</time></trkpt><trkpt lat="43.399407207198145" lon="10.904444660204177"><ele>316.0</ele><time>2026-04-18T10:30:50Z</time></trkpt><trkpt lat="43.39946068146478" lon="10.90435023610421"><ele>316.0</ele><time>2026-04-18T10:30:51Z</time></trkpt><trkpt lat="43.39951820261315" lon="10.904257275694588"><ele>316.0</ele><time>2026-04-18T10:30:52Z</time></trkpt><trkpt lat="43.3995497833986" lon="10.904152526495611"><ele>316.0</ele><time>2026-04-18T10:30:53Z</time></trkpt><trkpt lat="43.39953990008248" lon="10.904005169813239"><ele>316.0</ele><time>2026-04-18T10:30:55Z</time></trkpt><trkpt lat="43.39943709893875" lon="10.90393942966667"><ele>316.0</ele><time>2026-04-18T10:30:57Z</time></trkpt><trkpt lat="43.399358359124406" lon="10.904024496512157"><ele>316.0</ele><time>2026-04-18T10:30:58Z</time></trkpt><trkpt lat="43.39930108449952" lon="10.904092791411786"><ele>316.0</ele><time>2026-04-18T10:30:59Z</time></trkpt><trkpt lat="43.39923450514301" lon="10.904145646284142"><ele>316.0</ele><time>2026-04-18T10:31:00Z</time></trkpt><trkpt lat="43.399180966657234" lon="10.904229861313688"><ele>316.0</ele><time>2026-04-18T10:31:01Z</time></trkpt><trkpt lat="43.39911344535058" lon="10.904306024575744"><ele>316.0</ele><time>2026-04-18T10:31:02Z</time></trkpt><trkpt lat="43.399053989753114" lon="10.904383662804754"><ele>316.0</ele><time>2026-04-18T10:31:03Z</time></trkpt><trkpt lat="43.39900640135684" lon="10.904470910460452"><ele>316.0</ele><time>2026-04-18T10:31:04Z</time></trkpt><trkpt lat="43.39896300659123" lon="10.90457250644637"><ele>316.0</ele><time>2026-04-18T10:31:05Z</time></trkpt><trkpt lat="43.398915277118874" lon="10.904678058769816"><ele>316.0</ele><time>2026-04-18T10:31:06Z</time></trkpt><trkpt lat="43.39887975591844" lon="10.904799766648326"><ele>316.0</ele><time>2026-04-18T10:31:07Z</time></trkpt><trkpt lat="43.39883897624827" lon="10.904926477776632"><ele>316.0</ele><time>2026-04-18T10:31:08Z</time></trkpt><trkpt lat="43.39879219887916" lon="10.90504759682759"><ele>312.2</ele><time>2026-04-18T10:31:09Z</time></trkpt><trkpt lat="43.39873820547642" lon="10.90516314292689"><ele>308.40000000000003</ele><time>2026-04-18T10:31:10Z</time></trkpt><trkpt lat="43.39868425088341" lon="10.905285331817993"><ele>304.6</ele><time>2026-04-18T10:31:11Z</time></trkpt><trkpt lat="43.39863438457325" lon="10.905401260056552"><ele>300.8</ele><time>2026-04-18T10:31:12Z</time></trkpt><trkpt lat="43.39858997507267" lon="10.905504502423073"><ele>297.0</ele><time>2026-04-18T10:31:13Z</time></trkpt><trkpt lat="43.398552753903125" lon="10.905591033560347"><ele>297.0</ele><time>2026-04-18T10:31:14Z</time></trkpt><trkpt lat="43.398482286159386" lon="10.905700680272256"><ele>297.0</ele><time>2026-04-18T10:31:16Z</time></trkpt><trkpt lat="43.398362016152795" lon="10.90566108310653"><ele>297.0</ele><time>2026-04-18T10:31:18Z</time></trkpt><trkpt lat="43.39830566109188" lon="10.905590175300073"><ele>297.0</ele><time>2026-04-18T10:31:19Z</time></trkpt><trkpt lat="43.398284470967475" lon="10.905484785676856"><ele>297.0</ele><time>2026-04-18T10:31:20Z</time></trkpt><trkpt lat="43.39826203749928" lon="10.905382382058484"><ele>297.0</ele><time>2026-04-18T10:31:21Z</time></trkpt><trkpt lat="43.39822517406867" lon="10.90524835571854"><ele>297.0</ele><time>2026-04-18T10:31:22.001Z</time></trkpt><trkpt lat="43.398203093882806" lon="10.90511519421893"><ele>297.0</ele><time>2026-04-18T10:31:23.001Z</time></trkpt><trkpt lat="43.39818344172084" lon="10.904997997215222"><ele>297.0</ele><time>2026-04-18T10:31:24.001Z</time></trkpt><trkpt lat="43.39816316243015" lon="10.904897104106004"><ele>297.0</ele><time>2026-04-18T10:31:25.001Z</time></trkpt><trkpt lat="43.398164775460884" lon="10.904729450502227"><ele>296.5</ele><time>2026-04-18T10:31:27.001Z</time></trkpt><trkpt lat="43.39818512360567" lon="10.904639062399488"><ele>296.0</ele><time>2026-04-18T10:31:28.001Z</time></trkpt><trkpt lat="43.39820648171366" lon="10.904543790259174"><ele>295.5</ele><time>2026-04-18T10:31:29.001Z</time></trkpt><trkpt lat="43.39824693775019" lon="10.904463316495118"><ele>295.0</ele><time>2026-04-18T10:31:30.001Z</time></trkpt><trkpt lat="43.39825837986148" lon="10.904376996392857"><ele>294.5</ele><time>2026-04-18T10:31:31.001Z</time></trkpt><trkpt lat="43.39830441664036" lon="10.9042348253274"><ele>294.0</ele><time>2026-04-18T10:31:33.001Z</time></trkpt><trkpt lat="43.39828863745512" lon="10.904106787251086"><ele>294.0</ele><time>2026-04-18T10:31:35.001Z</time></trkpt><trkpt lat="43.398219085432665" lon="10.904077831292366"><ele>294.0</ele><time>2026-04-18T10:31:36.001Z</time></trkpt><trkpt lat="43.3981503824472" lon="10.904119472242183"><ele>294.0</ele><time>2026-04-18T10:31:37.001Z</time></trkpt><trkpt lat="43.39809284818579" lon="10.904175616589383"><ele>294.0</ele><time>2026-04-18T10:31:38.001Z</time></trkpt><trkpt lat="43.39804872761281" lon="10.904248354631775"><ele>294.0</ele><time>2026-04-18T10:31:39.001Z</time></trkpt><trkpt lat="43.39799783128521" lon="10.904313241885163"><ele>294.0</ele><time>2026-04-18T10:31:40.001Z</time></trkpt><trkpt lat="43.39794401763633" lon="10.904384194000471"><ele>294.0</ele><time>2026-04-18T10:31:41.001Z</time></trkpt><trkpt lat="43.39789783011915" lon="10.904466285108601"><ele>291.6666666666667</ele><time>2026-04-18T10:31:42.001Z</time></trkpt><trkpt lat="43.39784126809652" lon="10.904544463464164"><ele>289.3333333333333</ele><time>2026-04-18T10:31:43.001Z</time></trkpt><trkpt lat="43.39780179076857" lon="10.90464515988229"><ele>287.0</ele><time>2026-04-18T10:31:44.001Z</time></trkpt><trkpt lat="43.397761350590464" lon="10.90474938894423"><ele>284.66666666666663</ele><time>2026-04-18T10:31:45.001Z</time></trkpt><trkpt lat="43.39771904171585" lon="10.904858433969805"><ele>282.3333333333333</ele><time>2026-04-18T10:31:46.001Z</time></trkpt><trkpt lat="43.39767554388649" lon="10.904973095974107"><ele>280.0</ele><time>2026-04-18T10:31:47.001Z</time></trkpt><trkpt lat="43.397633299076" lon="10.90509281539294"><ele>280.0</ele><time>2026-04-18T10:31:48.001Z</time></trkpt><trkpt lat="43.39758972260706" lon="10.90521726290463"><ele>280.0</ele><time>2026-04-18T10:31:49.001Z</time></trkpt><trkpt lat="43.39754407829716" lon="10.905336506778236"><ele>280.0</ele><time>2026-04-18T10:31:50.001Z</time></trkpt><trkpt lat="43.39751262379193" lon="10.905455344315259"><ele>280.0</ele><time>2026-04-18T10:31:51.001Z</time></trkpt><trkpt lat="43.39746670565398" lon="10.905553560032038"><ele>280.0</ele><time>2026-04-18T10:31:52.001Z</time></trkpt><trkpt lat="43.39743240688272" lon="10.905650815627968"><ele>280.0</ele><time>2026-04-18T10:31:53.001Z</time></trkpt><trkpt lat="43.39739933134363" lon="10.905738076579013"><ele>280.0</ele><time>2026-04-18T10:31:54.001Z</time></trkpt><trkpt lat="43.397369148452384" lon="10.905878491017315"><ele>280.0</ele><time>2026-04-18T10:31:56.001Z</time></trkpt><trkpt lat="43.39730433912238" lon="10.905902783258934"><ele>280.0</ele><time>2026-04-18T10:31:58.001Z</time></trkpt><trkpt lat="43.39723698710967" lon="10.905826017128248"><ele>280.0</ele><time>2026-04-18T10:32:00.001Z</time></trkpt><trkpt lat="43.39717081943371" lon="10.905694678113356"><ele>280.0</ele><time>2026-04-18T10:32:02.001Z</time></trkpt><trkpt lat="43.39714474999201" lon="10.905604412047651"><ele>277.3333333333333</ele><time>2026-04-18T10:32:03.001Z</time></trkpt><trkpt lat="43.39710846089648" lon="10.90550936255396"><ele>274.66666666666663</ele><time>2026-04-18T10:32:03.999Z</time></trkpt><trkpt lat="43.397071424536676" lon="10.905405348872305"><ele>272.0</ele><time>2026-04-18T10:32:04.999Z</time></trkpt><trkpt lat="43.39703754769647" lon="10.905307867785226"><ele>269.3333333333333</ele><time>2026-04-18T10:32:05.999Z</time></trkpt><trkpt lat="43.396973438839545" lon="10.905206214310967"><ele>266.6666666666667</ele><time>2026-04-18T10:32:07.999Z</time></trkpt><trkpt lat="43.39688630857497" lon="10.905218372552785"><ele>264.0</ele><time>2026-04-18T10:32:09.999Z</time></trkpt><trkpt lat="43.39680906775258" lon="10.905315594614642"><ele>264.0</ele><time>2026-04-18T10:32:11.999Z</time></trkpt><trkpt lat="43.396753489317476" lon="10.905468889738495"><ele>264.0</ele><time>2026-04-18T10:32:13.999Z</time></trkpt><trkpt lat="43.39672113488571" lon="10.905550571128643"><ele>264.0</ele><time>2026-04-18T10:32:14.999Z</time></trkpt><trkpt lat="43.39668448452429" lon="10.90563227512488"><ele>264.0</ele><time>2026-04-18T10:32:15.999Z</time></trkpt><trkpt lat="43.396636691934816" lon="10.905700388195905"><ele>264.0</ele><time>2026-04-18T10:32:16.999Z</time></trkpt><trkpt lat="43.39657506652422" lon="10.905755704965522"><ele>264.0</ele><time>2026-04-18T10:32:17.999Z</time></trkpt><trkpt lat="43.396500435765084" lon="10.905750506951463"><ele>264.0</ele><time>2026-04-18T10:32:18.999Z</time></trkpt><trkpt lat="43.396436544542965" lon="10.905707868246818"><ele>264.0</ele><time>2026-04-18T10:32:19.999Z</time></trkpt><trkpt lat="43.396391708421774" lon="10.905638633793531"><ele>264.0</ele><time>2026-04-18T10:32:20.999Z</time></trkpt><trkpt lat="43.39636764936293" lon="10.905553686872432"><ele>264.0</ele><time>2026-04-18T10:32:21.999Z</time></trkpt><trkpt lat="43.3963675992129" lon="10.9054609269343"><ele>264.0</ele><time>2026-04-18T10:32:22.999Z</time></trkpt><trkpt lat="43.39639134904021" lon="10.90537165771136"><ele>264.0</ele><time>2026-04-18T10:32:23.999Z</time></trkpt><trkpt lat="43.39641794468935" lon="10.905258313613068"><ele>264.0</ele><time>2026-04-18T10:32:24.999Z</time></trkpt><trkpt lat="43.3964541844693" lon="10.90515124480552"><ele>264.2</ele><time>2026-04-18T10:32:25.999Z</time></trkpt><trkpt lat="43.39648516550782" lon="10.905022844178282"><ele>264.4</ele><time>2026-04-18T10:32:26.999Z</time></trkpt><trkpt lat="43.396511383095785" lon="10.904897390775048"><ele>264.6</ele><time>2026-04-18T10:32:27.999Z</time></trkpt><trkpt lat="43.396524310411046" lon="10.904772546382588"><ele>264.8</ele><time>2026-04-18T10:32:28.999Z</time></trkpt><trkpt lat="43.39651681080402" lon="10.90465141172525"><ele>265.0</ele><time>2026-04-18T10:32:29.999Z</time></trkpt><trkpt lat="43.39650716115573" lon="10.904520638098568"><ele>265.0</ele><time>2026-04-18T10:32:30.999Z</time></trkpt><trkpt lat="43.39649976268915" lon="10.904384326439986"><ele>265.0</ele><time>2026-04-18T10:32:31.999Z</time></trkpt><trkpt lat="43.396468881282374" lon="10.90425422749654"><ele>265.0</ele><time>2026-04-18T10:32:32.999Z</time></trkpt><trkpt lat="43.396432329506375" lon="10.90413652250693"><ele>265.0</ele><time>2026-04-18T10:32:33.999Z</time></trkpt><trkpt lat="43.39637931835671" lon="10.904024715090603"><ele>265.0</ele><time>2026-04-18T10:32:34.999Z</time></trkpt><trkpt lat="43.396349628812516" lon="10.903905412383237"><ele>261.6</ele><time>2026-04-18T10:32:35.999Z</time></trkpt><trkpt lat="43.39632147897153" lon="10.903787667886135"><ele>258.2</ele><time>2026-04-18T10:32:36.999Z</time></trkpt><trkpt lat="43.39631318361192" lon="10.903665803902188"><ele>254.8</ele><time>2026-04-18T10:32:37.999Z</time></trkpt><trkpt lat="43.39631949726364" lon="10.903542316083403"><ele>251.4</ele><time>2026-04-18T10:32:38.999Z</time></trkpt><trkpt lat="43.396330350705504" lon="10.903417433044746"><ele>248.0</ele><time>2026-04-18T10:32:39.999Z</time></trkpt><trkpt lat="43.396336865573836" lon="10.90329057093151"><ele>248.0</ele><time>2026-04-18T10:32:40.999Z</time></trkpt><trkpt lat="43.396332968291105" lon="10.903173180231587"><ele>248.0</ele><time>2026-04-18T10:32:41.999Z</time></trkpt><trkpt lat="43.396336667054385" lon="10.903073900423825"><ele>248.0</ele><time>2026-04-18T10:32:42.999Z</time></trkpt><trkpt lat="43.39640157879058" lon="10.902946190130573"><ele>248.0</ele><time>2026-04-18T10:32:44.999Z</time></trkpt><trkpt lat="43.396508252223676" lon="10.90288097637967"><ele>248.0</ele><time>2026-04-18T10:32:46.999Z</time></trkpt><trkpt lat="43.39655654329035" lon="10.902823984414884"><ele>248.00000000000003</ele><time>2026-04-18T10:32:47.999Z</time></trkpt><trkpt lat="43.39661308500364" lon="10.902781327236754"><ele>248.0</ele><time>2026-04-18T10:32:49Z</time></trkpt><trkpt lat="43.39665270845289" lon="10.902709442092387"><ele>248.0</ele><time>2026-04-18T10:32:50Z</time></trkpt><trkpt lat="43.39663904935649" lon="10.902535896284443"><ele>248.0</ele><time>2026-04-18T10:32:52Z</time></trkpt><trkpt lat="43.39658846953746" lon="10.902472237846899"><ele>248.00000000000003</ele><time>2026-04-18T10:32:53Z</time></trkpt><trkpt lat="43.3965282926207" lon="10.902436544494519"><ele>248.0</ele><time>2026-04-18T10:32:54Z</time></trkpt><trkpt lat="43.396454276577444" lon="10.902428033706736"><ele>246.66666666666669</ele><time>2026-04-18T10:32:55Z</time></trkpt><trkpt lat="43.39637391771607" lon="10.902439786859963"><ele>245.33333333333334</ele><time>2026-04-18T10:32:56Z</time></trkpt><trkpt lat="43.39629359927557" lon="10.902468107642923"><ele>244.0</ele><time>2026-04-18T10:32:57Z</time></trkpt><trkpt lat="43.39621787464233" lon="10.902520147408403"><ele>242.66666666666669</ele><time>2026-04-18T10:32:58Z</time></trkpt><trkpt lat="43.39615468176889" lon="10.902602960456434"><ele>241.33333333333334</ele><time>2026-04-18T10:32:59Z</time></trkpt><trkpt lat="43.39609438333942" lon="10.902696469375158"><ele>240.0</ele><time>2026-04-18T10:33:00Z</time></trkpt><trkpt lat="43.39603821205448" lon="10.902794760844719"><ele>239.28571428571428</ele><time>2026-04-18T10:33:01Z</time></trkpt><trkpt lat="43.39598765096838" lon="10.90289305862497"><ele>238.57142857142856</ele><time>2026-04-18T10:33:02Z</time></trkpt><trkpt lat="43.39593910476169" lon="10.902972478681532"><ele>237.85714285714283</ele><time>2026-04-18T10:33:03Z</time></trkpt><trkpt lat="43.395887874864044" lon="10.903039448085183"><ele>237.14285714285714</ele><time>2026-04-18T10:33:04Z</time></trkpt><trkpt lat="43.39584245067114" lon="10.903115358985088"><ele>236.4285714285714</ele><time>2026-04-18T10:33:05Z</time></trkpt><trkpt lat="43.395803930826666" lon="10.903194000052087"><ele>235.7142857142857</ele><time>2026-04-18T10:33:06Z</time></trkpt><trkpt lat="43.39578111213634" lon="10.903279474943266"><ele>235.0</ele><time>2026-04-18T10:33:07Z</time></trkpt><trkpt lat="43.39575409787221" lon="10.90337817132877"><ele>235.83333333333331</ele><time>2026-04-18T10:33:08Z</time></trkpt><trkpt lat="43.39574642145031" lon="10.903490887616133"><ele>236.66666666666666</ele><time>2026-04-18T10:33:09Z</time></trkpt><trkpt lat="43.39574887850324" lon="10.903600040480931"><ele>237.5</ele><time>2026-04-18T10:33:10Z</time></trkpt><trkpt lat="43.39574944901751" lon="10.90368878337179"><ele>238.33333333333331</ele><time>2026-04-18T10:33:11Z</time></trkpt><trkpt lat="43.39573345741685" lon="10.903804451154661"><ele>239.16666666666666</ele><time>2026-04-18T10:33:13Z</time></trkpt><trkpt lat="43.39569721782171" lon="10.903888885194691"><ele>240.0</ele><time>2026-04-18T10:33:15Z</time></trkpt><trkpt lat="43.395626840030246" lon="10.903868377967903"><ele>240.0</ele><time>2026-04-18T10:33:17Z</time></trkpt><trkpt lat="43.395573582655416" lon="10.90375757093946"><ele>240.0</ele><time>2026-04-18T10:33:19Z</time></trkpt><trkpt lat="43.39556743087643" lon="10.903664097659327"><ele>240.0</ele><time>2026-04-18T10:33:20Z</time></trkpt><trkpt lat="43.3955579411113" lon="10.903568622366615"><ele>240.0</ele><time>2026-04-18T10:33:21Z</time></trkpt><trkpt lat="43.39553606244512" lon="10.903457658601017"><ele>240.0</ele><time>2026-04-18T10:33:22Z</time></trkpt><trkpt lat="43.3955228796608" lon="10.903340163523204"><ele>240.0</ele><time>2026-04-18T10:33:23Z</time></trkpt><trkpt lat="43.39550656856572" lon="10.903217651372268"><ele>239.0</ele><time>2026-04-18T10:33:24Z</time></trkpt><trkpt lat="43.395504077565626" lon="10.903090306570515"><ele>238.0</ele><time>2026-04-18T10:33:25Z</time></trkpt><trkpt lat="43.395502598912216" lon="10.902956399528376"><ele>237.0</ele><time>2026-04-18T10:33:26Z</time></trkpt><trkpt lat="43.395506071347754" lon="10.902827081915273"><ele>236.0</ele><time>2026-04-18T10:33:27Z</time></trkpt><trkpt lat="43.395509215246186" lon="10.902727330034267"><ele>235.0</ele><time>2026-04-18T10:33:28Z</time></trkpt><trkpt lat="43.39546139816355" lon="10.90257954972494"><ele>233.99999999999997</ele><time>2026-04-18T10:33:30Z</time></trkpt><trkpt lat="43.39533954245337" lon="10.90255334098565"><ele>233.0</ele><time>2026-04-18T10:33:32Z</time></trkpt><trkpt lat="43.39527474606579" lon="10.902575774348529"><ele>232.0</ele><time>2026-04-18T10:33:33Z</time></trkpt><trkpt lat="43.395205421842114" lon="10.9025669909772"><ele>231.0</ele><time>2026-04-18T10:33:34Z</time></trkpt><trkpt lat="43.39513380772096" lon="10.902569864948596"><ele>229.99999999999997</ele><time>2026-04-18T10:33:35Z</time></trkpt><trkpt lat="43.39505413365253" lon="10.902565830636178"><ele>229.0</ele><time>2026-04-18T10:33:36Z</time></trkpt><trkpt lat="43.394965469343354" lon="10.902554788543272"><ele>229.0</ele><time>2026-04-18T10:33:37Z</time></trkpt><trkpt lat="43.39488410859875" lon="10.902533122520323"><ele>228.99999999999997</ele><time>2026-04-18T10:33:38Z</time></trkpt><trkpt lat="43.394818744827404" lon="10.90252495311645"><ele>228.99999999999997</ele><time>2026-04-18T10:33:39Z</time></trkpt><trkpt lat="43.394760605628576" lon="10.902396801611886"><ele>229.0</ele><time>2026-04-18T10:33:41Z</time></trkpt><trkpt lat="43.39481073598072" lon="10.902239125351636"><ele>229.0</ele><time>2026-04-18T10:33:43Z</time></trkpt><trkpt lat="43.3948690506299" lon="10.90215855565169"><ele>229.0</ele><time>2026-04-18T10:33:44Z</time></trkpt><trkpt lat="43.39492925577877" lon="10.902061814620941"><ele>228.99999999999997</ele><time>2026-04-18T10:33:45Z</time></trkpt><trkpt lat="43.3949875007351" lon="10.901953133038791"><ele>228.99999999999997</ele><time>2026-04-18T10:33:46Z</time></trkpt><trkpt lat="43.395038385712105" lon="10.901826728647801"><ele>229.0</ele><time>2026-04-18T10:33:47Z</time></trkpt><trkpt lat="43.395102524878794" lon="10.901704001929302"><ele>229.0</ele><time>2026-04-18T10:33:48Z</time></trkpt><trkpt lat="43.39515151049848" lon="10.901573526079316"><ele>229.2</ele><time>2026-04-18T10:33:49Z</time></trkpt><trkpt lat="43.395190063032054" lon="10.901459036553016"><ele>229.39999999999998</ele><time>2026-04-18T10:33:50Z</time></trkpt><trkpt lat="43.395220967987576" lon="10.901328637007666"><ele>229.6</ele><time>2026-04-18T10:33:51Z</time></trkpt><trkpt lat="43.395232247568764" lon="10.901170966790277"><ele>229.8</ele><time>2026-04-18T10:33:52Z</time></trkpt><trkpt lat="43.39522177854848" lon="10.901032365105861"><ele>230.0</ele><time>2026-04-18T10:33:53Z</time></trkpt><trkpt lat="43.39519923680326" lon="10.90090393342361"><ele>231.16666666666669</ele><time>2026-04-18T10:33:54Z</time></trkpt><trkpt lat="43.39519049095226" lon="10.900790153185522"><ele>232.33333333333334</ele><time>2026-04-18T10:33:55Z</time></trkpt><trkpt lat="43.39519751033726" lon="10.900699964489046"><ele>233.5</ele><time>2026-04-18T10:33:56Z</time></trkpt><trkpt lat="43.3952412181244" lon="10.900549659610897"><ele>234.66666666666669</ele><time>2026-04-18T10:33:58Z</time></trkpt><trkpt lat="43.39526654348604" lon="10.900453355571843"><ele>235.83333333333334</ele><time>2026-04-18T10:33:59Z</time></trkpt><trkpt lat="43.39528794921867" lon="10.900343515214585"><ele>237.0</ele><time>2026-04-18T10:34:00Z</time></trkpt><trkpt lat="43.39530860237174" lon="10.900223172242294"><ele>237.0</ele><time>2026-04-18T10:34:01Z</time></trkpt><trkpt lat="43.39533414400706" lon="10.90010483450546"><ele>237.0</ele><time>2026-04-18T10:34:02Z</time></trkpt><trkpt lat="43.395374965195224" lon="10.899994379429138"><ele>237.0</ele><time>2026-04-18T10:34:03Z</time></trkpt><trkpt lat="43.39544356495879" lon="10.899850162053967"><ele>237.0</ele><time>2026-04-18T10:34:04Z</time></trkpt><trkpt lat="43.395461663606625" lon="10.899704213264988"><ele>237.0</ele><time>2026-04-18T10:34:05Z</time></trkpt><trkpt lat="43.39543522056666" lon="10.899566358161811"><ele>237.66666666666666</ele><time>2026-04-18T10:34:06Z</time></trkpt><trkpt lat="43.395454843352695" lon="10.899457685376102"><ele>238.33333333333331</ele><time>2026-04-18T10:34:07Z</time></trkpt><trkpt lat="43.395499338031755" lon="10.899364153404498"><ele>239.0</ele><time>2026-04-18T10:34:08Z</time></trkpt><trkpt lat="43.39555650466867" lon="10.899279154611126"><ele>239.66666666666666</ele><time>2026-04-18T10:34:09Z</time></trkpt><trkpt lat="43.395622442358224" lon="10.899182391392007"><ele>240.33333333333331</ele><time>2026-04-18T10:34:09.998Z</time></trkpt><trkpt lat="43.39569146384829" lon="10.899077796117911"><ele>241.0</ele><time>2026-04-18T10:34:10.998Z</time></trkpt><trkpt lat="43.39575350128603" lon="10.898970858116458"><ele>240.99999999999997</ele><time>2026-04-18T10:34:11.998Z</time></trkpt><trkpt lat="43.39581425814459" lon="10.89888380390564"><ele>241.0</ele><time>2026-04-18T10:34:12.998Z</time></trkpt><trkpt lat="43.395878266118274" lon="10.898814002934866"><ele>241.0</ele><time>2026-04-18T10:34:13.998Z</time></trkpt><trkpt lat="43.39593169702958" lon="10.898738254034567"><ele>241.0</ele><time>2026-04-18T10:34:14.998Z</time></trkpt><trkpt lat="43.39598147341481" lon="10.898652046845635"><ele>240.99999999999997</ele><time>2026-04-18T10:34:15.998Z</time></trkpt><trkpt lat="43.39601464634597" lon="10.898548676971389"><ele>241.0</ele><time>2026-04-18T10:34:16.998Z</time></trkpt><trkpt lat="43.39601452695972" lon="10.898431469757499"><ele>243.4</ele><time>2026-04-18T10:34:17.998Z</time></trkpt><trkpt lat="43.396035736591514" lon="10.898327998027609"><ele>245.8</ele><time>2026-04-18T10:34:18.998Z</time></trkpt><trkpt lat="43.39606496155263" lon="10.89823386768459"><ele>248.20000000000002</ele><time>2026-04-18T10:34:19.998Z</time></trkpt><trkpt lat="43.39610181667006" lon="10.89815957057329"><ele>250.60000000000002</ele><time>2026-04-18T10:34:20.998Z</time></trkpt><trkpt lat="43.3961157887622" lon="10.898021800181256"><ele>253.0</ele><time>2026-04-18T10:34:22.998Z</time></trkpt><trkpt lat="43.396253029705846" lon="10.898009495700013"><ele>253.0</ele><time>2026-04-18T10:34:23.998Z</time></trkpt><trkpt lat="43.39631458403183" lon="10.897977761382347"><ele>253.0</ele><time>2026-04-18T10:34:24.998Z</time></trkpt><trkpt lat="43.39642401144187" lon="10.897895946598627"><ele>253.0</ele><time>2026-04-18T10:34:26.998Z</time></trkpt><trkpt lat="43.39647831785692" lon="10.897845066059501"><ele>253.0</ele><time>2026-04-18T10:34:27.998Z</time></trkpt><trkpt lat="43.3965747824028" lon="10.897751802944958"><ele>253.0</ele><time>2026-04-18T10:34:29.999Z</time></trkpt><trkpt lat="43.396664005498295" lon="10.897653856830859"><ele>253.60000000000002</ele><time>2026-04-18T10:34:31.999Z</time></trkpt><trkpt lat="43.396749487200026" lon="10.897552171766343"><ele>254.20000000000002</ele><time>2026-04-18T10:34:33.999Z</time></trkpt><trkpt lat="43.396804138081585" lon="10.897387204666177"><ele>254.8</ele><time>2026-04-18T10:34:35.999Z</time></trkpt><trkpt lat="43.39681345628245" lon="10.897282154118868"><ele>255.4</ele><time>2026-04-18T10:34:36.999Z</time></trkpt><trkpt lat="43.39681302739739" lon="10.897173256617387"><ele>256.0</ele><time>2026-04-18T10:34:37.999Z</time></trkpt><trkpt lat="43.396823585290186" lon="10.897077676985285"><ele>256.0</ele><time>2026-04-18T10:34:38.999Z</time></trkpt><trkpt lat="43.3968528085826" lon="10.896989909301256"><ele>255.99999999999997</ele><time>2026-04-18T10:34:39.999Z</time></trkpt><trkpt lat="43.39689070887449" lon="10.896910787860259"><ele>256.0</ele><time>2026-04-18T10:34:40.999Z</time></trkpt><trkpt lat="43.39693147652822" lon="10.896836427075286"><ele>256.0</ele><time>2026-04-18T10:34:41.999Z</time></trkpt><trkpt lat="43.39696775997958" lon="10.896761351347537"><ele>255.99999999999997</ele><time>2026-04-18T10:34:42.999Z</time></trkpt><trkpt lat="43.39699431135576" lon="10.896673274558616"><ele>256.0</ele><time>2026-04-18T10:34:43.999Z</time></trkpt><trkpt lat="43.39702105771828" lon="10.896578075079544"><ele>256.0</ele><time>2026-04-18T10:34:44.999Z</time></trkpt><trkpt lat="43.39703614197837" lon="10.896463363519596"><ele>255.60000000000002</ele><time>2026-04-18T10:34:45.999Z</time></trkpt><trkpt lat="43.39705592225809" lon="10.896344984105792"><ele>255.20000000000002</ele><time>2026-04-18T10:34:46.999Z</time></trkpt><trkpt lat="43.39709130307771" lon="10.89622365011805"><ele>254.79999999999998</ele><time>2026-04-18T10:34:47.999Z</time></trkpt><trkpt lat="43.39714979676586" lon="10.896110822588696"><ele>254.39999999999998</ele><time>2026-04-18T10:34:48.999Z</time></trkpt><trkpt lat="43.39721122830547" lon="10.896016767389822"><ele>254.0</ele><time>2026-04-18T10:34:49.999Z</time></trkpt><trkpt lat="43.39725301287763" lon="10.895899666308067"><ele>255.16666666666669</ele><time>2026-04-18T10:34:50.999Z</time></trkpt><trkpt lat="43.39727312896001" lon="10.895771552125703"><ele>256.33333333333337</ele><time>2026-04-18T10:34:51.999Z</time></trkpt><trkpt lat="43.39727586231757" lon="10.895653593403749"><ele>257.5</ele><time>2026-04-18T10:34:52.999Z</time></trkpt><trkpt lat="43.397286704522855" lon="10.895536452870717"><ele>258.6666666666667</ele><time>2026-04-18T10:34:53.999Z</time></trkpt><trkpt lat="43.39730893908957" lon="10.895425207564205"><ele>259.8333333333333</ele><time>2026-04-18T10:34:54.999Z</time></trkpt><trkpt lat="43.397350448097484" lon="10.895329630184692"><ele>261.0</ele><time>2026-04-18T10:34:55.999Z</time></trkpt><trkpt lat="43.39739366477106" lon="10.895248513016602"><ele>261.0</ele><time>2026-04-18T10:34:56.999Z</time></trkpt><trkpt lat="43.39746593381427" lon="10.895123590591044"><ele>261.0</ele><time>2026-04-18T10:34:58.999Z</time></trkpt><trkpt lat="43.39750998462342" lon="10.89501322746151"><ele>261.0</ele><time>2026-04-18T10:35:00.999Z</time></trkpt><trkpt lat="43.39757435317025" lon="10.894904551379067"><ele>261.0</ele><time>2026-04-18T10:35:03Z</time></trkpt><trkpt lat="43.397626788789786" lon="10.894854862964111"><ele>261.0</ele><time>2026-04-18T10:35:04Z</time></trkpt><trkpt lat="43.3976873811105" lon="10.894807407782405"><ele>261.0</ele><time>2026-04-18T10:35:05Z</time></trkpt><trkpt lat="43.3977483538756" lon="10.894762816785862"><ele>260.5</ele><time>2026-04-18T10:35:06Z</time></trkpt><trkpt lat="43.39781933317249" lon="10.89471481209907"><ele>260.0</ele><time>2026-04-18T10:35:07Z</time></trkpt><trkpt lat="43.397898688525316" lon="10.89465740099326"><ele>259.5</ele><time>2026-04-18T10:35:08Z</time></trkpt><trkpt lat="43.39797949712152" lon="10.894600115392103"><ele>259.0</ele><time>2026-04-18T10:35:09Z</time></trkpt><trkpt lat="43.39806021714662" lon="10.894530734068079"><ele>258.5</ele><time>2026-04-18T10:35:10Z</time></trkpt><trkpt lat="43.39813440681229" lon="10.894457243368562"><ele>258.0</ele><time>2026-04-18T10:35:11Z</time></trkpt><trkpt lat="43.398202304928965" lon="10.894378681705485"><ele>258.0</ele><time>2026-04-18T10:35:12Z</time></trkpt><trkpt lat="43.39825428382741" lon="10.894290492326924"><ele>258.0</ele><time>2026-04-18T10:35:13Z</time></trkpt><trkpt lat="43.39829370506938" lon="10.894187981796243"><ele>258.0</ele><time>2026-04-18T10:35:14Z</time></trkpt><trkpt lat="43.398326546960696" lon="10.894095789154468"><ele>258.0</ele><time>2026-04-18T10:35:15Z</time></trkpt><trkpt lat="43.3983736065722" lon="10.894016736973706"><ele>258.0</ele><time>2026-04-18T10:35:16Z</time></trkpt><trkpt lat="43.39843984342847" lon="10.893935263821282"><ele>258.0</ele><time>2026-04-18T10:35:17Z</time></trkpt><trkpt lat="43.398508878167156" lon="10.893850132372373"><ele>261.2</ele><time>2026-04-18T10:35:18Z</time></trkpt><trkpt lat="43.398577141528605" lon="10.893762563380994"><ele>264.4</ele><time>2026-04-18T10:35:19Z</time></trkpt><trkpt lat="43.39864501659198" lon="10.893673560314872"><ele>267.59999999999997</ele><time>2026-04-18T10:35:20Z</time></trkpt><trkpt lat="43.39870947048979" lon="10.893587437279713"><ele>270.8</ele><time>2026-04-18T10:35:21Z</time></trkpt><trkpt lat="43.39877048228521" lon="10.893505505944841"><ele>274.0</ele><time>2026-04-18T10:35:22Z</time></trkpt><trkpt lat="43.398834469465015" lon="10.893421616692926"><ele>275.0</ele><time>2026-04-18T10:35:23Z</time></trkpt><trkpt lat="43.39890777968909" lon="10.893351873473987"><ele>276.0</ele><time>2026-04-18T10:35:24Z</time></trkpt><trkpt lat="43.3989799117004" lon="10.893320460097407"><ele>277.0</ele><time>2026-04-18T10:35:25Z</time></trkpt><trkpt lat="43.39905730820994" lon="10.89330197011394"><ele>278.0</ele><time>2026-04-18T10:35:27Z</time></trkpt><trkpt lat="43.39913033861529" lon="10.893271533646901"><ele>279.0</ele><time>2026-04-18T10:35:30Z</time></trkpt><trkpt lat="43.3992130880204" lon="10.893219115032876"><ele>280.0</ele><time>2026-04-18T10:35:32Z</time></trkpt><trkpt lat="43.39933913551916" lon="10.893222807308954"><ele>280.0</ele><time>2026-04-18T10:35:34Z</time></trkpt><trkpt lat="43.39940297157286" lon="10.893231156200283"><ele>280.0</ele><time>2026-04-18T10:35:35Z</time></trkpt><trkpt lat="43.39951619114677" lon="10.893206432333919"><ele>280.0</ele><time>2026-04-18T10:35:37Z</time></trkpt><trkpt lat="43.399594240494395" lon="10.893073392646384"><ele>280.0</ele><time>2026-04-18T10:35:39Z</time></trkpt><trkpt lat="43.399624987553416" lon="10.892995917045347"><ele>280.0</ele><time>2026-04-18T10:35:40Z</time></trkpt><trkpt lat="43.3996730775419" lon="10.892871392639806"><ele>280.0</ele><time>2026-04-18T10:35:42Z</time></trkpt><trkpt lat="43.39967686264112" lon="10.892774637516043"><ele>280.0</ele><time>2026-04-18T10:35:45Z</time></trkpt><trkpt lat="43.39958726752565" lon="10.892778440567728"><ele>280.0</ele><time>2026-04-18T10:35:50Z</time></trkpt><trkpt lat="43.39949242611629" lon="10.892918965851354"><ele>280.0</ele><time>2026-04-18T10:35:52Z</time></trkpt><trkpt lat="43.39943050989555" lon="10.892957975196847"><ele>280.0</ele><time>2026-04-18T10:35:53Z</time></trkpt><trkpt lat="43.39935678866671" lon="10.892974049349354"><ele>280.0</ele><time>2026-04-18T10:35:54Z</time></trkpt><trkpt lat="43.39927936055495" lon="10.89297132310903"><ele>280.0</ele><time>2026-04-18T10:35:55Z</time></trkpt><trkpt lat="43.399193971792734" lon="10.892970809804414"><ele>280.0</ele><time>2026-04-18T10:35:56Z</time></trkpt><trkpt lat="43.39910306975222" lon="10.89297413938516"><ele>280.0</ele><time>2026-04-18T10:35:57Z</time></trkpt><trkpt lat="43.399010180279824" lon="10.892982538257227"><ele>280.0</ele><time>2026-04-18T10:35:58Z</time></trkpt><trkpt lat="43.39891364021323" lon="10.892993266608217"><ele>280.0</ele><time>2026-04-18T10:35:59Z</time></trkpt><trkpt lat="43.398813109523395" lon="10.893005664074176"><ele>282.8</ele><time>2026-04-18T10:36:00Z</time></trkpt><trkpt lat="43.39870903890167" lon="10.893024227276397"><ele>285.6</ele><time>2026-04-18T10:36:01Z</time></trkpt><trkpt lat="43.39860471095731" lon="10.89305863792858"><ele>288.4</ele><time>2026-04-18T10:36:02Z</time></trkpt><trkpt lat="43.398505035317655" lon="10.893098713415428"><ele>291.2</ele><time>2026-04-18T10:36:03Z</time></trkpt><trkpt lat="43.39841016105333" lon="10.893145964500835"><ele>294.0</ele><time>2026-04-18T10:36:04Z</time></trkpt><trkpt lat="43.39831696783666" lon="10.89317453959797"><ele>294.0</ele><time>2026-04-18T10:36:05Z</time></trkpt><trkpt lat="43.39820864171712" lon="10.893234482067454"><ele>294.0</ele><time>2026-04-18T10:36:06Z</time></trkpt><trkpt lat="43.398107675845715" lon="10.893272099593348"><ele>294.0</ele><time>2026-04-18T10:36:07Z</time></trkpt><trkpt lat="43.39800465929728" lon="10.893299756658342"><ele>294.0</ele><time>2026-04-18T10:36:08Z</time></trkpt><trkpt lat="43.397897993908664" lon="10.893316374947485"><ele>294.0</ele><time>2026-04-18T10:36:09Z</time></trkpt><trkpt lat="43.39778793154002" lon="10.893320951008295"><ele>296.25</ele><time>2026-04-18T10:36:10.001Z</time></trkpt><trkpt lat="43.39767135799225" lon="10.893315969121867"><ele>298.5</ele><time>2026-04-18T10:36:11.001Z</time></trkpt><trkpt lat="43.39755131928332" lon="10.89331220063879"><ele>300.75</ele><time>2026-04-18T10:36:12.001Z</time></trkpt><trkpt lat="43.39743024878033" lon="10.893303599927133"><ele>303.0</ele><time>2026-04-18T10:36:13.001Z</time></trkpt><trkpt lat="43.39730752124177" lon="10.893295211275722"><ele>303.0</ele><time>2026-04-18T10:36:14.001Z</time></trkpt><trkpt lat="43.39718476667047" lon="10.893294474277981"><ele>303.0</ele><time>2026-04-18T10:36:15.001Z</time></trkpt><trkpt lat="43.39706384116593" lon="10.893318359076854"><ele>303.0</ele><time>2026-04-18T10:36:15.999Z</time></trkpt><trkpt lat="43.39694382464177" lon="10.893357289997514"><ele>303.0</ele><time>2026-04-18T10:36:16.999Z</time></trkpt><trkpt lat="43.39682352511744" lon="10.893412618088677"><ele>301.5</ele><time>2026-04-18T10:36:17.999Z</time></trkpt><trkpt lat="43.39669862979716" lon="10.89348487486007"><ele>300.0</ele><time>2026-04-18T10:36:18.999Z</time></trkpt><trkpt lat="43.39657556303408" lon="10.893558432739155"><ele>298.5</ele><time>2026-04-18T10:36:19.999Z</time></trkpt><trkpt lat="43.39644909260607" lon="10.893642335168204"><ele>297.0</ele><time>2026-04-18T10:36:20.999Z</time></trkpt><trkpt lat="43.39632473257081" lon="10.89372377140979"><ele>300.5</ele><time>2026-04-18T10:36:21.999Z</time></trkpt><trkpt lat="43.39619977009115" lon="10.893803287391927"><ele>304.0</ele><time>2026-04-18T10:36:22.999Z</time></trkpt><trkpt lat="43.396074515938444" lon="10.893875782102342"><ele>307.5</ele><time>2026-04-18T10:36:23.999Z</time></trkpt><trkpt lat="43.39594910887459" lon="10.893949551588696"><ele>311.0</ele><time>2026-04-18T10:36:24.999Z</time></trkpt><trkpt lat="43.39582304141654" lon="10.89402665009087"><ele>311.0</ele><time>2026-04-18T10:36:25.999Z</time></trkpt><trkpt lat="43.39569627966075" lon="10.89410293158438"><ele>311.0</ele><time>2026-04-18T10:36:26.999Z</time></trkpt><trkpt lat="43.39557138846837" lon="10.894179606437287"><ele>311.0</ele><time>2026-04-18T10:36:27.999Z</time></trkpt><trkpt lat="43.39544985749256" lon="10.894254724350393"><ele>311.0</ele><time>2026-04-18T10:36:28.999Z</time></trkpt><trkpt lat="43.39533019737136" lon="10.894330108705267"><ele>312.25</ele><time>2026-04-18T10:36:29.999Z</time></trkpt><trkpt lat="43.39521432508091" lon="10.8944101769312"><ele>313.5</ele><time>2026-04-18T10:36:30.999Z</time></trkpt><trkpt lat="43.39509998512713" lon="10.89448951622776"><ele>314.75</ele><time>2026-04-18T10:36:31.999Z</time></trkpt><trkpt lat="43.39498747588365" lon="10.89456981443997"><ele>316.0</ele><time>2026-04-18T10:36:32.999Z</time></trkpt><trkpt lat="43.39488529691749" lon="10.894664030778834"><ele>316.0</ele><time>2026-04-18T10:36:33.999Z</time></trkpt><trkpt lat="43.39479522068145" lon="10.894770311402223"><ele>316.0</ele><time>2026-04-18T10:36:34.999Z</time></trkpt><trkpt lat="43.39470540682626" lon="10.89487419141417"><ele>316.0</ele><time>2026-04-18T10:36:36Z</time></trkpt><trkpt lat="43.39462240746103" lon="10.894972610816406"><ele>316.0</ele><time>2026-04-18T10:36:37Z</time></trkpt><trkpt lat="43.39454118902236" lon="10.895065385249506"><ele>317.6</ele><time>2026-04-18T10:36:38Z</time></trkpt><trkpt lat="43.39445973329866" lon="10.895154088636168"><ele>319.20000000000005</ele><time>2026-04-18T10:36:39Z</time></trkpt><trkpt lat="43.394376112155776" lon="10.895237484401072"><ele>320.79999999999995</ele><time>2026-04-18T10:36:40Z</time></trkpt><trkpt lat="43.39428815609659" lon="10.895317427861016"><ele>322.4</ele><time>2026-04-18T10:36:41Z</time></trkpt><trkpt lat="43.39419508021555" lon="10.895394145663383"><ele>324.0</ele><time>2026-04-18T10:36:42Z</time></trkpt><trkpt lat="43.394096743087495" lon="10.895466843284321"><ele>324.0</ele><time>2026-04-18T10:36:43Z</time></trkpt><trkpt lat="43.39399546628682" lon="10.895537744752213"><ele>324.0</ele><time>2026-04-18T10:36:44Z</time></trkpt><trkpt lat="43.39389242996616" lon="10.895603459365171"><ele>324.0</ele><time>2026-04-18T10:36:45Z</time></trkpt><trkpt lat="43.39378972791607" lon="10.8956638188699"><ele>324.0</ele><time>2026-04-18T10:36:46Z</time></trkpt><trkpt lat="43.39368764730547" lon="10.8957180337119"><ele>324.0</ele><time>2026-04-18T10:36:47Z</time></trkpt><trkpt lat="43.39358587985954" lon="10.895765676614976"><ele>325.79999999999995</ele><time>2026-04-18T10:36:48Z</time></trkpt><trkpt lat="43.39348429602693" lon="10.895805194708586"><ele>327.59999999999997</ele><time>2026-04-18T10:36:49Z</time></trkpt><trkpt lat="43.393395266107994" lon="10.895835208803803"><ele>329.4</ele><time>2026-04-18T10:36:50Z</time></trkpt><trkpt lat="43.39332257087931" lon="10.895858136051581"><ele>331.2</ele><time>2026-04-18T10:36:51Z</time></trkpt><trkpt lat="43.393222548753286" lon="10.895874102818935"><ele>333.0</ele><time>2026-04-18T10:36:53Z</time></trkpt><trkpt lat="43.393123393025284" lon="10.89587581968932"><ele>333.0</ele><time>2026-04-18T10:36:57Z</time></trkpt><trkpt lat="43.39300369630248" lon="10.895891570566885"><ele>333.0</ele><time>2026-04-18T10:36:59Z</time></trkpt><trkpt lat="43.392933072076595" lon="10.89590043109643"><ele>333.0</ele><time>2026-04-18T10:37:00Z</time></trkpt><trkpt lat="43.39285789775504" lon="10.895904592843108"><ele>333.0</ele><time>2026-04-18T10:37:01Z</time></trkpt><trkpt lat="43.39277885526447" lon="10.895889772301148"><ele>333.0</ele><time>2026-04-18T10:37:02Z</time></trkpt><trkpt lat="43.392698024407764" lon="10.895864011216897"><ele>333.0</ele><time>2026-04-18T10:37:03Z</time></trkpt><trkpt lat="43.39262272039422" lon="10.895829195167844"><ele>333.0</ele><time>2026-04-18T10:37:04Z</time></trkpt><trkpt lat="43.39256658430778" lon="10.895776736599524"><ele>333.0</ele><time>2026-04-18T10:37:05Z</time></trkpt><trkpt lat="43.39250773743881" lon="10.895649292237145"><ele>333.0</ele><time>2026-04-18T10:37:07Z</time></trkpt><trkpt lat="43.3925011986266" lon="10.895505620501815"><ele>333.0</ele><time>2026-04-18T10:37:09Z</time></trkpt><trkpt lat="43.39250725392838" lon="10.895344813229235"><ele>333.0</ele><time>2026-04-18T10:37:11Z</time></trkpt><trkpt lat="43.392509229579154" lon="10.895254577715217"><ele>333.0</ele><time>2026-04-18T10:37:12Z</time></trkpt><trkpt lat="43.39251158639217" lon="10.895162266912221"><ele>333.0</ele><time>2026-04-18T10:37:13Z</time></trkpt><trkpt lat="43.3925133048342" lon="10.895065443928896"><ele>333.0</ele><time>2026-04-18T10:37:14Z</time></trkpt><trkpt lat="43.39251563787045" lon="10.894965391339435"><ele>333.0</ele><time>2026-04-18T10:37:15Z</time></trkpt><trkpt lat="43.39251766485163" lon="10.894859877344455"><ele>333.0</ele><time>2026-04-18T10:37:16Z</time></trkpt><trkpt lat="43.392525738033164" lon="10.894750797825676"><ele>333.0</ele><time>2026-04-18T10:37:17Z</time></trkpt><trkpt lat="43.39255933836561" lon="10.894643062555929"><ele>333.0</ele><time>2026-04-18T10:37:18Z</time></trkpt><trkpt lat="43.39260726261045" lon="10.894542454272854"><ele>333.0</ele><time>2026-04-18T10:37:19Z</time></trkpt><trkpt lat="43.392666779081814" lon="10.894449208059333"><ele>333.0</ele><time>2026-04-18T10:37:20Z</time></trkpt><trkpt lat="43.39273065615257" lon="10.894354764911567"><ele>333.0</ele><time>2026-04-18T10:37:21Z</time></trkpt><trkpt lat="43.392800449649684" lon="10.894261985542396"><ele>333.0</ele><time>2026-04-18T10:37:22Z</time></trkpt><trkpt lat="43.39287738725837" lon="10.894168056651553"><ele>333.0</ele><time>2026-04-18T10:37:23Z</time></trkpt><trkpt lat="43.39296470592088" lon="10.894075863968954"><ele>333.0</ele><time>2026-04-18T10:37:24Z</time></trkpt><trkpt lat="43.393061373783446" lon="10.89399078842533"><ele>333.0</ele><time>2026-04-18T10:37:25Z</time></trkpt><trkpt lat="43.39316538663586" lon="10.893914764774465"><ele>333.0</ele><time>2026-04-18T10:37:26Z</time></trkpt><trkpt lat="43.39327027394803" lon="10.893840626795642"><ele>336.75</ele><time>2026-04-18T10:37:27Z</time></trkpt><trkpt lat="43.39337566608144" lon="10.89376608537305"><ele>340.5</ele><time>2026-04-18T10:37:28.001Z</time></trkpt><trkpt lat="43.39347787608378" lon="10.893686494680171"><ele>344.25</ele><time>2026-04-18T10:37:29.001Z</time></trkpt><trkpt lat="43.39357121561248" lon="10.89358452040852"><ele>348.0</ele><time>2026-04-18T10:37:30.001Z</time></trkpt><trkpt lat="43.39364854856825" lon="10.8934598751765"><ele>346.25</ele><time>2026-04-18T10:37:31.001Z</time></trkpt><trkpt lat="43.393718489572606" lon="10.893320581983875"><ele>344.5</ele><time>2026-04-18T10:37:32.001Z</time></trkpt><trkpt lat="43.39378670904725" lon="10.893179315240484"><ele>342.75</ele><time>2026-04-18T10:37:33.001Z</time></trkpt><trkpt lat="43.39385313144439" lon="10.893034497883628"><ele>341.0</ele><time>2026-04-18T10:37:34.001Z</time></trkpt><trkpt lat="43.39390573584725" lon="10.892883081621477"><ele>341.0</ele><time>2026-04-18T10:37:35.001Z</time></trkpt><trkpt lat="43.39393497414687" lon="10.892724448400859"><ele>341.0</ele><time>2026-04-18T10:37:36.001Z</time></trkpt><trkpt lat="43.39393718576031" lon="10.892563766590042"><ele>341.0</ele><time>2026-04-18T10:37:37.001Z</time></trkpt><trkpt lat="43.39391270494948" lon="10.89241104996006"><ele>341.0</ele><time>2026-04-18T10:37:38.001Z</time></trkpt><trkpt lat="43.3938478044868" lon="10.892286084837103"><ele>340.5</ele><time>2026-04-18T10:37:39.001Z</time></trkpt><trkpt lat="43.39376675748454" lon="10.892172679190613"><ele>340.0</ele><time>2026-04-18T10:37:40.001Z</time></trkpt><trkpt lat="43.39368172449965" lon="10.892065031671084"><ele>339.5</ele><time>2026-04-18T10:37:41.001Z</time></trkpt><trkpt lat="43.39359754221578" lon="10.891956771989024"><ele>339.0</ele><time>2026-04-18T10:37:42.001Z</time></trkpt><trkpt lat="43.39351345834525" lon="10.891848234568291"><ele>342.5</ele><time>2026-04-18T10:37:43.001Z</time></trkpt><trkpt lat="43.393433295874125" lon="10.89173229581176"><ele>346.0</ele><time>2026-04-18T10:37:44.001Z</time></trkpt><trkpt lat="43.39336274484692" lon="10.891603520429213"><ele>349.5</ele><time>2026-04-18T10:37:45.001Z</time></trkpt><trkpt lat="43.39330165482035" lon="10.891465632025765"><ele>353.0</ele><time>2026-04-18T10:37:46.001Z</time></trkpt><trkpt lat="43.393242109954706" lon="10.891323425210237"><ele>353.0</ele><time>2026-04-18T10:37:47.001Z</time></trkpt><trkpt lat="43.3931814033249" lon="10.891180467322274"><ele>353.0</ele><time>2026-04-18T10:37:48.001Z</time></trkpt><trkpt lat="43.39312251199925" lon="10.891035075995227"><ele>353.0</ele><time>2026-04-18T10:37:49.001Z</time></trkpt><trkpt lat="43.39307592913607" lon="10.890889057088117"><ele>353.0</ele><time>2026-04-18T10:37:50.001Z</time></trkpt><trkpt lat="43.39305822247087" lon="10.890746078858655"><ele>355.4</ele><time>2026-04-18T10:37:51.001Z</time></trkpt><trkpt lat="43.39307718205582" lon="10.890609577889482"><ele>357.79999999999995</ele><time>2026-04-18T10:37:52.001Z</time></trkpt><trkpt lat="43.393120543913085" lon="10.890482098390603"><ele>360.2</ele><time>2026-04-18T10:37:53.001Z</time></trkpt><trkpt lat="43.39317771629857" lon="10.890358378168397"><ele>362.6</ele><time>2026-04-18T10:37:54.001Z</time></trkpt><trkpt lat="43.3932314047547" lon="10.89022386454594"><ele>365.0</ele><time>2026-04-18T10:37:55.001Z</time></trkpt><trkpt lat="43.39329124232693" lon="10.890086497383308"><ele>365.0</ele><time>2026-04-18T10:37:56.001Z</time></trkpt><trkpt lat="43.39335503357405" lon="10.889947949927675"><ele>365.0</ele><time>2026-04-18T10:37:57.001Z</time></trkpt><trkpt lat="43.393419762999585" lon="10.88980251789037"><ele>365.0</ele><time>2026-04-18T10:37:58.001Z</time></trkpt><trkpt lat="43.393486216643815" lon="10.889652070562002"><ele>365.0</ele><time>2026-04-18T10:37:59.001Z</time></trkpt><trkpt lat="43.393552113479764" lon="10.889503266187205"><ele>365.0</ele><time>2026-04-18T10:38:00.001Z</time></trkpt><trkpt lat="43.39362037181041" lon="10.889369832966597"><ele>365.0</ele><time>2026-04-18T10:38:01.001Z</time></trkpt><trkpt lat="43.393710054503515" lon="10.889258964057438"><ele>365.0</ele><time>2026-04-18T10:38:02.001Z</time></trkpt><trkpt lat="43.39382361846595" lon="10.88919192325092"><ele>365.0</ele><time>2026-04-18T10:38:03.001Z</time></trkpt><trkpt lat="43.39393457219333" lon="10.889111411510973"><ele>367.75</ele><time>2026-04-18T10:38:04.001Z</time></trkpt><trkpt lat="43.39404866864728" lon="10.889027796187227"><ele>370.5</ele><time>2026-04-18T10:38:05.001Z</time></trkpt><trkpt lat="43.394155502613984" lon="10.888927621971588"><ele>373.25</ele><time>2026-04-18T10:38:06.001Z</time></trkpt><trkpt lat="43.394267134095905" lon="10.888848155611612"><ele>376.0</ele><time>2026-04-18T10:38:07.001Z</time></trkpt><trkpt lat="43.39436277151973" lon="10.888759797235853"><ele>376.0</ele><time>2026-04-18T10:38:08.001Z</time></trkpt><trkpt lat="43.39443619474796" lon="10.888645383064434"><ele>376.0</ele><time>2026-04-18T10:38:09.001Z</time></trkpt><trkpt lat="43.39448563771832" lon="10.888510006611902"><ele>376.0</ele><time>2026-04-18T10:38:10.001Z</time></trkpt><trkpt lat="43.394525005756016" lon="10.888376530919999"><ele>376.0</ele><time>2026-04-18T10:38:11.001Z</time></trkpt><trkpt lat="43.394560346192115" lon="10.888252208263204"><ele>376.0</ele><time>2026-04-18T10:38:12.001Z</time></trkpt><trkpt lat="43.39461172543717" lon="10.888152522607776"><ele>376.8333333333333</ele><time>2026-04-18T10:38:13.001Z</time></trkpt><trkpt lat="43.39468633251001" lon="10.88809874923851"><ele>377.66666666666663</ele><time>2026-04-18T10:38:14.001Z</time></trkpt><trkpt lat="43.39476723606135" lon="10.888101342709463"><ele>378.5</ele><time>2026-04-18T10:38:15.001Z</time></trkpt><trkpt lat="43.39482238229292" lon="10.888174419230209"><ele>379.3333333333333</ele><time>2026-04-18T10:38:16.001Z</time></trkpt><trkpt lat="43.39484761213445" lon="10.88827040991471"><ele>380.1666666666667</ele><time>2026-04-18T10:38:17.001Z</time></trkpt><trkpt lat="43.39485995073679" lon="10.88837767180938"><ele>381.0</ele><time>2026-04-18T10:38:18.001Z</time></trkpt><trkpt lat="43.39486354939355" lon="10.888499486374045"><ele>381.6</ele><time>2026-04-18T10:38:19.001Z</time></trkpt><trkpt lat="43.39485290186598" lon="10.888632099937151"><ele>382.20000000000005</ele><time>2026-04-18T10:38:20.001Z</time></trkpt><trkpt lat="43.39484701334239" lon="10.888783079100142"><ele>382.79999999999995</ele><time>2026-04-18T10:38:21Z</time></trkpt><trkpt lat="43.394826025609476" lon="10.888935265652208"><ele>383.4</ele><time>2026-04-18T10:38:22Z</time></trkpt><trkpt lat="43.39482549485594" lon="10.889083591544733"><ele>384.0</ele><time>2026-04-18T10:38:23Z</time></trkpt><trkpt lat="43.39483678328125" lon="10.889223751584328"><ele>384.0</ele><time>2026-04-18T10:38:24Z</time></trkpt><trkpt lat="43.394888320535244" lon="10.889344028211204"><ele>384.0</ele><time>2026-04-18T10:38:25Z</time></trkpt><trkpt lat="43.394989617602505" lon="10.889386776934979"><ele>384.0</ele><time>2026-04-18T10:38:26Z</time></trkpt><trkpt lat="43.395081192867686" lon="10.889378536079162"><ele>384.0</ele><time>2026-04-18T10:38:27Z</time></trkpt><trkpt lat="43.39516358142499" lon="10.889315939267862"><ele>384.0</ele><time>2026-04-18T10:38:28Z</time></trkpt><trkpt lat="43.395222672076635" lon="10.889219887907124"><ele>384.0</ele><time>2026-04-18T10:38:29Z</time></trkpt><trkpt lat="43.395274193620935" lon="10.889105059571778"><ele>384.0</ele><time>2026-04-18T10:38:30Z</time></trkpt><trkpt lat="43.39532202126751" lon="10.888971524748078"><ele>384.0</ele><time>2026-04-18T10:38:31Z</time></trkpt><trkpt lat="43.395372605740995" lon="10.888830566866972"><ele>384.0</ele><time>2026-04-18T10:38:32Z</time></trkpt><trkpt lat="43.39543032914047" lon="10.888683114634853"><ele>384.0</ele><time>2026-04-18T10:38:33Z</time></trkpt><trkpt lat="43.39549065982415" lon="10.888527973585333"><ele>385.75</ele><time>2026-04-18T10:38:34Z</time></trkpt><trkpt lat="43.39555381579174" lon="10.888367157999038"><ele>387.5</ele><time>2026-04-18T10:38:35Z</time></trkpt><trkpt lat="43.395621067108166" lon="10.888212195743682"><ele>389.25</ele><time>2026-04-18T10:38:36Z</time></trkpt><trkpt lat="43.39570321642291" lon="10.888072710546194"><ele>391.0</ele><time>2026-04-18T10:38:37Z</time></trkpt><trkpt lat="43.39581062122084" lon="10.887976946715803"><ele>391.0</ele><time>2026-04-18T10:38:38Z</time></trkpt><trkpt lat="43.395917844411855" lon="10.88791287129638"><ele>391.0</ele><time>2026-04-18T10:38:39Z</time></trkpt><trkpt lat="43.39600522692435" lon="10.887836081825059"><ele>391.0</ele><time>2026-04-18T10:38:40Z</time></trkpt><trkpt lat="43.396066891487656" lon="10.887723548571472"><ele>391.0</ele><time>2026-04-18T10:38:41Z</time></trkpt><trkpt lat="43.39608655285953" lon="10.887579725637345"><ele>391.0</ele><time>2026-04-18T10:38:42Z</time></trkpt><trkpt lat="43.39607548460701" lon="10.887433944993251"><ele>392.5</ele><time>2026-04-18T10:38:43Z</time></trkpt><trkpt lat="43.39603524370645" lon="10.887289830347799"><ele>394.0</ele><time>2026-04-18T10:38:44Z</time></trkpt><trkpt lat="43.39599859323326" lon="10.887142200524636"><ele>395.5</ele><time>2026-04-18T10:38:45.001Z</time></trkpt><trkpt lat="43.395963593475884" lon="10.886991621240973"><ele>397.0</ele><time>2026-04-18T10:38:46.001Z</time></trkpt><trkpt lat="43.395936336616074" lon="10.886841320730296"><ele>397.75</ele><time>2026-04-18T10:38:47.001Z</time></trkpt><trkpt lat="43.39592480713728" lon="10.886688035651241"><ele>398.5</ele><time>2026-04-18T10:38:48.001Z</time></trkpt><trkpt lat="43.3959360757218" lon="10.886529399171605"><ele>399.25</ele><time>2026-04-18T10:38:49.001Z</time></trkpt><trkpt lat="43.39597345289839" lon="10.886373254320725"><ele>400.0</ele><time>2026-04-18T10:38:50.001Z</time></trkpt><trkpt lat="43.396036775137965" lon="10.886224440013262"><ele>400.0</ele><time>2026-04-18T10:38:51.001Z</time></trkpt><trkpt lat="43.396112497191375" lon="10.886082817950701"><ele>400.0</ele><time>2026-04-18T10:38:52.001Z</time></trkpt><trkpt lat="43.39619516057184" lon="10.885943192619994"><ele>400.0</ele><time>2026-04-18T10:38:53.001Z</time></trkpt><trkpt lat="43.39628165326113" lon="10.885799132479693"><ele>400.0</ele><time>2026-04-18T10:38:54.001Z</time></trkpt><trkpt lat="43.39637258948133" lon="10.885648223109461"><ele>403.0</ele><time>2026-04-18T10:38:55.001Z</time></trkpt><trkpt lat="43.39646666176196" lon="10.885490530811303"><ele>406.0</ele><time>2026-04-18T10:38:56.001Z</time></trkpt><trkpt lat="43.39656511867345" lon="10.885325010095283"><ele>409.0</ele><time>2026-04-18T10:38:57.001Z</time></trkpt><trkpt lat="43.39666833776921" lon="10.885154964584839"><ele>408.0</ele><time>2026-04-18T10:38:58.001Z</time></trkpt><trkpt lat="43.396774335629544" lon="10.884978832379442"><ele>407.0</ele><time>2026-04-18T10:38:59.001Z</time></trkpt><trkpt lat="43.39688103995083" lon="10.88480228266786"><ele>406.0</ele><time>2026-04-18T10:39:00.001Z</time></trkpt><trkpt lat="43.396982483838556" lon="10.884633051725212"><ele>406.0</ele><time>2026-04-18T10:39:01.001Z</time></trkpt><trkpt lat="43.39707847973608" lon="10.884466025325235"><ele>406.0</ele><time>2026-04-18T10:39:02.001Z</time></trkpt><trkpt lat="43.39716002424911" lon="10.884306001835082"><ele>406.0</ele><time>2026-04-18T10:39:03.001Z</time></trkpt><trkpt lat="43.397225197566854" lon="10.88415626861046"><ele>406.0</ele><time>2026-04-18T10:39:04.001Z</time></trkpt><trkpt lat="43.39725845216207" lon="10.884001564403444"><ele>406.75</ele><time>2026-04-18T10:39:05.001Z</time></trkpt><trkpt lat="43.397261452306005" lon="10.883841490246581"><ele>407.5</ele><time>2026-04-18T10:39:06.001Z</time></trkpt><trkpt lat="43.39723663659967" lon="10.883676976594826"><ele>408.25</ele><time>2026-04-18T10:39:07.001Z</time></trkpt><trkpt lat="43.39720223123488" lon="10.883510521333324"><ele>409.0</ele><time>2026-04-18T10:39:08.001Z</time></trkpt><trkpt lat="43.39717041890243" lon="10.883336576700088"><ele>407.25</ele><time>2026-04-18T10:39:09.001Z</time></trkpt><trkpt lat="43.39714140632645" lon="10.883153276372118"><ele>405.5</ele><time>2026-04-18T10:39:10.001Z</time></trkpt><trkpt lat="43.397125922944824" lon="10.882957835123893"><ele>403.75</ele><time>2026-04-18T10:39:11.001Z</time></trkpt><trkpt lat="43.39712425065936" lon="10.882756978335234"><ele>402.0</ele><time>2026-04-18T10:39:12.001Z</time></trkpt><trkpt lat="43.39713261859907" lon="10.882552056866947"><ele>402.0</ele><time>2026-04-18T10:39:13.001Z</time></trkpt><trkpt lat="43.39713497551235" lon="10.882341774961638"><ele>402.0</ele><time>2026-04-18T10:39:14.001Z</time></trkpt><trkpt lat="43.39711500887131" lon="10.88213069591811"><ele>402.0</ele><time>2026-04-18T10:39:15.001Z</time></trkpt><trkpt lat="43.397075664037416" lon="10.881921866901207"><ele>406.0</ele><time>2026-04-18T10:39:16.001Z</time></trkpt><trkpt lat="43.39702782413876" lon="10.8817125701877"><ele>410.0</ele><time>2026-04-18T10:39:17.001Z</time></trkpt><trkpt lat="43.39698584294918" lon="10.881503317824741"><ele>414.0</ele><time>2026-04-18T10:39:18.001Z</time></trkpt><trkpt lat="43.396944971438664" lon="10.881298761195687"><ele>414.0</ele><time>2026-04-18T10:39:19.001Z</time></trkpt><trkpt lat="43.396905302506106" lon="10.881098718556691"><ele>414.0</ele><time>2026-04-18T10:39:20.001Z</time></trkpt><trkpt lat="43.396867339892715" lon="10.880905111355005"><ele>414.0</ele><time>2026-04-18T10:39:21.001Z</time></trkpt><trkpt lat="43.396836537611826" lon="10.880717981619576"><ele>414.0</ele><time>2026-04-18T10:39:22.001Z</time></trkpt><trkpt lat="43.3968136585452" lon="10.880532272795662"><ele>416.5</ele><time>2026-04-18T10:39:23.001Z</time></trkpt><trkpt lat="43.39679959344682" lon="10.880342519485975"><ele>419.0</ele><time>2026-04-18T10:39:24.001Z</time></trkpt><trkpt lat="43.396789052874794" lon="10.880150571592388"><ele>421.5</ele><time>2026-04-18T10:39:25.001Z</time></trkpt><trkpt lat="43.39676809102827" lon="10.879956913233151"><ele>424.0</ele><time>2026-04-18T10:39:26.001Z</time></trkpt><trkpt lat="43.39673294752703" lon="10.87976533681562"><ele>426.25</ele><time>2026-04-18T10:39:27.001Z</time></trkpt><trkpt lat="43.39669664187206" lon="10.879573378076328"><ele>428.5</ele><time>2026-04-18T10:39:28.001Z</time></trkpt><trkpt lat="43.39666994780249" lon="10.879381363306882"><ele>430.75</ele><time>2026-04-18T10:39:29.001Z</time></trkpt><trkpt lat="43.396659624566425" lon="10.879185579772956"><ele>433.0</ele><time>2026-04-18T10:39:30.001Z</time></trkpt><trkpt lat="43.39666605493198" lon="10.878986207342333"><ele>434.5</ele><time>2026-04-18T10:39:31.001Z</time></trkpt><trkpt lat="43.39668354132547" lon="10.878800643061135"><ele>436.0</ele><time>2026-04-18T10:39:32.001Z</time></trkpt><trkpt lat="43.39671938108419" lon="10.878629040694804"><ele>437.5</ele><time>2026-04-18T10:39:33.001Z</time></trkpt><trkpt lat="43.396771691456834" lon="10.878465909548941"><ele>439.0</ele><time>2026-04-18T10:39:34.001Z</time></trkpt><trkpt lat="43.3968594598162" lon="10.878330003879125"><ele>439.0</ele><time>2026-04-18T10:39:35.001Z</time></trkpt><trkpt lat="43.39689998328014" lon="10.878155184948223"><ele>439.0</ele><time>2026-04-18T10:39:36.001Z</time></trkpt><trkpt lat="43.39693723819193" lon="10.87797746356533"><ele>439.0</ele><time>2026-04-18T10:39:37.001Z</time></trkpt><trkpt lat="43.396973080551355" lon="10.877796146017557"><ele>439.0</ele><time>2026-04-18T10:39:38.001Z</time></trkpt><trkpt lat="43.39700710008901" lon="10.87760975046113"><ele>439.0</ele><time>2026-04-18T10:39:39.001Z</time></trkpt><trkpt lat="43.39703570189434" lon="10.877419000819279"><ele>439.0</ele><time>2026-04-18T10:39:40.001Z</time></trkpt><trkpt lat="43.39705917233259" lon="10.877228359872502"><ele>439.0</ele><time>2026-04-18T10:39:41.001Z</time></trkpt><trkpt lat="43.39707715527102" lon="10.877040837625579"><ele>439.0</ele><time>2026-04-18T10:39:42.001Z</time></trkpt><trkpt lat="43.397092604778194" lon="10.876858148389637"><ele>440.25</ele><time>2026-04-18T10:39:43.001Z</time></trkpt><trkpt lat="43.3971089654" lon="10.876678201055324"><ele>441.5</ele><time>2026-04-18T10:39:44.001Z</time></trkpt><trkpt lat="43.39713300378108" lon="10.876501665734349"><ele>442.75</ele><time>2026-04-18T10:39:45.001Z</time></trkpt><trkpt lat="43.39716603148826" lon="10.876325915258045"><ele>444.0</ele><time>2026-04-18T10:39:46.001Z</time></trkpt><trkpt lat="43.39721350226157" lon="10.876155566595845"><ele>449.75</ele><time>2026-04-18T10:39:47.001Z</time></trkpt><trkpt lat="43.39727105015761" lon="10.875987290344256"><ele>455.5</ele><time>2026-04-18T10:39:48.001Z</time></trkpt><trkpt lat="43.3973304565019" lon="10.875816191286836"><ele>461.25</ele><time>2026-04-18T10:39:49.001Z</time></trkpt><trkpt lat="43.39739407511666" lon="10.875642476793779"><ele>467.0</ele><time>2026-04-18T10:39:50.001Z</time></trkpt><trkpt lat="43.39745903425546" lon="10.875467983261382"><ele>467.0</ele><time>2026-04-18T10:39:51.001Z</time></trkpt><trkpt lat="43.397524742903734" lon="10.875294586865284"><ele>467.0</ele><time>2026-04-18T10:39:52.001Z</time></trkpt><trkpt lat="43.39758393487829" lon="10.875123286490963"><ele>467.0</ele><time>2026-04-18T10:39:53.001Z</time></trkpt><trkpt lat="43.39763423242414" lon="10.87495550545564"><ele>467.0</ele><time>2026-04-18T10:39:54.001Z</time></trkpt><trkpt lat="43.397679983389494" lon="10.874792748342045"><ele>466.25</ele><time>2026-04-18T10:39:55.001Z</time></trkpt><trkpt lat="43.39773466745457" lon="10.874642728116127"><ele>465.5</ele><time>2026-04-18T10:39:56.001Z</time></trkpt><trkpt lat="43.39779999317741" lon="10.874503249956309"><ele>464.75</ele><time>2026-04-18T10:39:57.001Z</time></trkpt><trkpt lat="43.39787718691099" lon="10.874379263339513"><ele>464.0</ele><time>2026-04-18T10:39:58.001Z</time></trkpt><trkpt lat="43.397964745397985" lon="10.874267459771827"><ele>468.25</ele><time>2026-04-18T10:39:59.001Z</time></trkpt><trkpt lat="43.39804981485901" lon="10.874151569929849"><ele>472.5</ele><time>2026-04-18T10:40:00.002Z</time></trkpt><trkpt lat="43.3981330434513" lon="10.874033615370141"><ele>476.75</ele><time>2026-04-18T10:40:01.002Z</time></trkpt><trkpt lat="43.39821412477751" lon="10.873920798355101"><ele>481.0</ele><time>2026-04-18T10:40:02.002Z</time></trkpt><trkpt lat="43.3982905726505" lon="10.87381416314617"><ele>481.0</ele><time>2026-04-18T10:40:03.002Z</time></trkpt><trkpt lat="43.39835922630365" lon="10.873709951803562"><ele>481.0</ele><time>2026-04-18T10:40:04.002Z</time></trkpt><trkpt lat="43.398420366396216" lon="10.873593725253924"><ele>481.0</ele><time>2026-04-18T10:40:05.002Z</time></trkpt><trkpt lat="43.39847573324794" lon="10.873463661201763"><ele>481.0</ele><time>2026-04-18T10:40:06.002Z</time></trkpt><trkpt lat="43.39853468088277" lon="10.873327612884335"><ele>481.0</ele><time>2026-04-18T10:40:07.002Z</time></trkpt><trkpt lat="43.39860036625502" lon="10.873191784681717"><ele>480.25</ele><time>2026-04-18T10:40:08.002Z</time></trkpt><trkpt lat="43.39866647454981" lon="10.873055085059061"><ele>479.5</ele><time>2026-04-18T10:40:09.002Z</time></trkpt><trkpt lat="43.39873599984876" lon="10.872917399440716"><ele>478.75</ele><time>2026-04-18T10:40:10.002Z</time></trkpt><trkpt lat="43.39881904800722" lon="10.872795805230657"><ele>478.0</ele><time>2026-04-18T10:40:11.002Z</time></trkpt><trkpt lat="43.39888897430571" lon="10.872662298252312"><ele>480.4</ele><time>2026-04-18T10:40:12.002Z</time></trkpt><trkpt lat="43.39895584822152" lon="10.872532119571188"><ele>482.79999999999995</ele><time>2026-04-18T10:40:13.002Z</time></trkpt><trkpt lat="43.399024114320305" lon="10.87241277501617"><ele>485.2</ele><time>2026-04-18T10:40:14.002Z</time></trkpt><trkpt lat="43.399101003810024" lon="10.872302968727192"><ele>487.6</ele><time>2026-04-18T10:40:15.002Z</time></trkpt><trkpt lat="43.3991614631179" lon="10.872186124117723"><ele>490.0</ele><time>2026-04-18T10:40:16.002Z</time></trkpt><trkpt lat="43.39923188997606" lon="10.872097140692349"><ele>490.0</ele><time>2026-04-18T10:40:17.002Z</time></trkpt><trkpt lat="43.399299210246184" lon="10.8720039146152"><ele>490.0</ele><time>2026-04-18T10:40:18.002Z</time></trkpt><trkpt lat="43.39935517215297" lon="10.871903723923205"><ele>490.0</ele><time>2026-04-18T10:40:19.002Z</time></trkpt><trkpt lat="43.39942638235981" lon="10.871804057608763"><ele>490.0</ele><time>2026-04-18T10:40:20.002Z</time></trkpt><trkpt lat="43.39948421134996" lon="10.871687698241862"><ele>490.0</ele><time>2026-04-18T10:40:21.002Z</time></trkpt><trkpt lat="43.39952849388832" lon="10.871558367291886"><ele>490.4</ele><time>2026-04-18T10:40:22.002Z</time></trkpt><trkpt lat="43.39957424911981" lon="10.87144213511582"><ele>490.8</ele><time>2026-04-18T10:40:23.002Z</time></trkpt><trkpt lat="43.399610365875404" lon="10.87131220576282"><ele>491.20000000000005</ele><time>2026-04-18T10:40:24.002Z</time></trkpt><trkpt lat="43.39964697025458" lon="10.871182668659849"><ele>491.6</ele><time>2026-04-18T10:40:25.002Z</time></trkpt><trkpt lat="43.39967129829912" lon="10.871037183504624"><ele>492.0</ele><time>2026-04-18T10:40:26.002Z</time></trkpt><trkpt lat="43.39969251219009" lon="10.870874236104413"><ele>493.0</ele><time>2026-04-18T10:40:27.002Z</time></trkpt><trkpt lat="43.3997009014788" lon="10.87072087731433"><ele>494.00000000000006</ele><time>2026-04-18T10:40:28.002Z</time></trkpt><trkpt lat="43.399702355467646" lon="10.870577134305556"><ele>495.00000000000006</ele><time>2026-04-18T10:40:29.002Z</time></trkpt><trkpt lat="43.399700960392" lon="10.870439011797295"><ele>496.0</ele><time>2026-04-18T10:40:30.002Z</time></trkpt><trkpt lat="43.39969180333129" lon="10.87030312934658"><ele>497.0</ele><time>2026-04-18T10:40:31.002Z</time></trkpt><trkpt lat="43.399677901213245" lon="10.870162362015433"><ele>497.6</ele><time>2026-04-18T10:40:32.002Z</time></trkpt><trkpt lat="43.39965699371675" lon="10.870023591202324"><ele>498.20000000000005</ele><time>2026-04-18T10:40:33.002Z</time></trkpt><trkpt lat="43.39964136358034" lon="10.869875193649179"><ele>498.8</ele><time>2026-04-18T10:40:34.001Z</time></trkpt><trkpt lat="43.399631842691086" lon="10.869741412458062"><ele>499.4</ele><time>2026-04-18T10:40:35.001Z</time></trkpt><trkpt lat="43.39962271570283" lon="10.869614571573178"><ele>500.0</ele><time>2026-04-18T10:40:36.001Z</time></trkpt><trkpt lat="43.39961220463663" lon="10.869497113491544"><ele>499.99999999999994</ele><time>2026-04-18T10:40:37.001Z</time></trkpt><trkpt lat="43.39959992780487" lon="10.869381950305073"><ele>500.0</ele><time>2026-04-18T10:40:38.001Z</time></trkpt><trkpt lat="43.399583051070934" lon="10.869277226298824"><ele>500.0</ele><time>2026-04-18T10:40:39.001Z</time></trkpt><trkpt lat="43.39956232297739" lon="10.86918288000721"><ele>500.0</ele><time>2026-04-18T10:40:40.001Z</time></trkpt><trkpt lat="43.39954328851397" lon="10.8690945537729"><ele>499.99999999999994</ele><time>2026-04-18T10:40:41.001Z</time></trkpt><trkpt lat="43.39950883905105" lon="10.868934970469114"><ele>500.0</ele><time>2026-04-18T10:40:43.001Z</time></trkpt><trkpt lat="43.39947540037433" lon="10.86878040311245"><ele>500.16666666666663</ele><time>2026-04-18T10:40:45.001Z</time></trkpt><trkpt lat="43.399451418984754" lon="10.868651102904375"><ele>500.3333333333333</ele><time>2026-04-18T10:40:47.001Z</time></trkpt><trkpt lat="43.39945832899851" lon="10.868558462568995"><ele>500.5</ele><time>2026-04-18T10:40:49.001Z</time></trkpt><trkpt lat="43.39943175741824" lon="10.868476273426019"><ele>500.66666666666663</ele><time>2026-04-18T10:43:42.001Z</time></trkpt><trkpt lat="43.39939274390375" lon="10.868392439728673"><ele>500.8333333333333</ele><time>2026-04-18T10:44:51.002Z</time></trkpt><trkpt lat="43.39937086914549" lon="10.868253994931585"><ele>501.0</ele><time>2026-04-18T10:44:53.002Z</time></trkpt><trkpt lat="43.39935237961967" lon="10.86816205427303"><ele>501.0</ele><time>2026-04-18T10:44:54.002Z</time></trkpt><trkpt lat="43.39933189462205" lon="10.868063084862273"><ele>501.0</ele><time>2026-04-18T10:44:55.002Z</time></trkpt><trkpt lat="43.39931145931707" lon="10.867952157820294"><ele>501.0</ele><time>2026-04-18T10:44:56.001Z</time></trkpt><trkpt lat="43.3992884587829" lon="10.867835455120003"><ele>501.0</ele><time>2026-04-18T10:44:57.001Z</time></trkpt><trkpt lat="43.39926337458185" lon="10.867710818642008"><ele>501.0</ele><time>2026-04-18T10:44:58.001Z</time></trkpt><trkpt lat="43.39925126074656" lon="10.867584932283918"><ele>501.0</ele><time>2026-04-18T10:44:59.001Z</time></trkpt><trkpt lat="43.39923667176935" lon="10.86744538791896"><ele>502.20000000000005</ele><time>2026-04-18T10:45:00.001Z</time></trkpt><trkpt lat="43.399231907759365" lon="10.867302878555833"><ele>503.40000000000003</ele><time>2026-04-18T10:45:01.001Z</time></trkpt><trkpt lat="43.39923579712562" lon="10.867156209954533"><ele>504.6</ele><time>2026-04-18T10:45:02.001Z</time></trkpt><trkpt lat="43.3992385964238" lon="10.867006238205999"><ele>505.8</ele><time>2026-04-18T10:45:03.001Z</time></trkpt><trkpt lat="43.39924052082104" lon="10.866852838241313"><ele>507.0</ele><time>2026-04-18T10:45:04.001Z</time></trkpt><trkpt lat="43.39924451293909" lon="10.866697208107151"><ele>508.75</ele><time>2026-04-18T10:45:05.001Z</time></trkpt><trkpt lat="43.39924367262118" lon="10.866537822042194"><ele>510.5</ele><time>2026-04-18T10:45:06.001Z</time></trkpt><trkpt lat="43.39925061261595" lon="10.866385201001332"><ele>512.25</ele><time>2026-04-18T10:45:07.001Z</time></trkpt><trkpt lat="43.399254896448404" lon="10.866229492454384"><ele>514.0</ele><time>2026-04-18T10:45:08.001Z</time></trkpt><trkpt lat="43.39926057734514" lon="10.866076156001972"><ele>514.6666666666667</ele><time>2026-04-18T10:45:09.001Z</time></trkpt><trkpt lat="43.39926641677321" lon="10.865935721631867"><ele>515.3333333333334</ele><time>2026-04-18T10:45:10.001Z</time></trkpt><trkpt lat="43.399272319485846" lon="10.865802602192677"><ele>516.0</ele><time>2026-04-18T10:45:11.001Z</time></trkpt><trkpt lat="43.399260024435776" lon="10.865683376044897"><ele>516.6666666666666</ele><time>2026-04-18T10:45:12.001Z</time></trkpt><trkpt lat="43.39923588691297" lon="10.865573979271128"><ele>517.3333333333333</ele><time>2026-04-18T10:45:13.001Z</time></trkpt><trkpt lat="43.399208527096356" lon="10.865471740905399"><ele>518.0</ele><time>2026-04-18T10:45:14.001Z</time></trkpt><trkpt lat="43.39918866013368" lon="10.865366732279314"><ele>518.0</ele><time>2026-04-18T10:45:15.001Z</time></trkpt><trkpt lat="43.39917363126326" lon="10.865253232463198"><ele>518.0</ele><time>2026-04-18T10:45:16.001Z</time></trkpt><trkpt lat="43.399183683352945" lon="10.865132796550139"><ele>518.0</ele><time>2026-04-18T10:45:17.001Z</time></trkpt><trkpt lat="43.39919299184323" lon="10.865010845532248"><ele>518.0</ele><time>2026-04-18T10:45:18.001Z</time></trkpt><trkpt lat="43.399191633392206" lon="10.86488754104433"><ele>518.0</ele><time>2026-04-18T10:45:19.001Z</time></trkpt><trkpt lat="43.39920381146179" lon="10.864767200841824"><ele>518.0</ele><time>2026-04-18T10:45:20.001Z</time></trkpt><trkpt lat="43.39921720271869" lon="10.864642156904068"><ele>517.8</ele><time>2026-04-18T10:45:21.001Z</time></trkpt><trkpt lat="43.399224082456" lon="10.864514749820184"><ele>517.5999999999999</ele><time>2026-04-18T10:45:22.001Z</time></trkpt><trkpt lat="43.39923411535627" lon="10.864380988959915"><ele>517.4000000000001</ele><time>2026-04-18T10:45:23.001Z</time></trkpt><trkpt lat="43.39924349262982" lon="10.864249703371007"><ele>517.2</ele><time>2026-04-18T10:45:24.001Z</time></trkpt><trkpt lat="43.39924977940985" lon="10.86410956721725"><ele>517.0</ele><time>2026-04-18T10:45:25.001Z</time></trkpt><trkpt lat="43.39925739204262" lon="10.863970132018014"><ele>516.6</ele><time>2026-04-18T10:45:26.001Z</time></trkpt><trkpt lat="43.3992676200061" lon="10.86382893829544"><ele>516.2</ele><time>2026-04-18T10:45:27.001Z</time></trkpt><trkpt lat="43.39927696599461" lon="10.863682788590477"><ele>515.8</ele><time>2026-04-18T10:45:28.001Z</time></trkpt><trkpt lat="43.39928756799431" lon="10.863534540789127"><ele>515.4</ele><time>2026-04-18T10:45:29.001Z</time></trkpt><trkpt lat="43.399299585593745" lon="10.863383840932771"><ele>515.0</ele><time>2026-04-18T10:45:30.001Z</time></trkpt><trkpt lat="43.39931149257963" lon="10.863230185250154"><ele>513.75</ele><time>2026-04-18T10:45:31.001Z</time></trkpt><trkpt lat="43.39932233738135" lon="10.86307510385893"><ele>512.5</ele><time>2026-04-18T10:45:32.001Z</time></trkpt><trkpt lat="43.39933351634249" lon="10.862915623727773"><ele>511.25</ele><time>2026-04-18T10:45:33.001Z</time></trkpt><trkpt lat="43.39934613042754" lon="10.862755458502322"><ele>510.0</ele><time>2026-04-18T10:45:34.001Z</time></trkpt><trkpt lat="43.399357839278224" lon="10.862598198436785"><ele>508.25</ele><time>2026-04-18T10:45:35.001Z</time></trkpt><trkpt lat="43.399368185630955" lon="10.862428365489592"><ele>506.5</ele><time>2026-04-18T10:45:36.001Z</time></trkpt><trkpt lat="43.39938254715395" lon="10.862256725727105"><ele>504.75</ele><time>2026-04-18T10:45:37.001Z</time></trkpt><trkpt lat="43.399396887358336" lon="10.862086917671993"><ele>503.0</ele><time>2026-04-18T10:45:38.001Z</time></trkpt><trkpt lat="43.39940830877722" lon="10.86191279768369"><ele>501.0</ele><time>2026-04-18T10:45:39.001Z</time></trkpt><trkpt lat="43.39941794004746" lon="10.861738528266947"><ele>499.0</ele><time>2026-04-18T10:45:40.001Z</time></trkpt><trkpt lat="43.399431570431446" lon="10.861565677573022"><ele>497.0</ele><time>2026-04-18T10:45:41.001Z</time></trkpt><trkpt lat="43.3994444068616" lon="10.861391907628754"><ele>495.0</ele><time>2026-04-18T10:45:42.001Z</time></trkpt><trkpt lat="43.39945797091714" lon="10.861226577379824"><ele>495.0</ele><time>2026-04-18T10:45:43.001Z</time></trkpt><trkpt lat="43.39946691783549" lon="10.861063938790622"><ele>495.0</ele><time>2026-04-18T10:45:44.001Z</time></trkpt><trkpt lat="43.39947860061126" lon="10.860915729818187"><ele>495.0</ele><time>2026-04-18T10:45:45.001Z</time></trkpt><trkpt lat="43.399489371992736" lon="10.860778136173467"><ele>495.0</ele><time>2026-04-18T10:45:46.001Z</time></trkpt><trkpt lat="43.39949886504387" lon="10.86064670546015"><ele>495.0</ele><time>2026-04-18T10:45:47.001Z</time></trkpt><trkpt lat="43.399509132474975" lon="10.860511425201956"><ele>494.0</ele><time>2026-04-18T10:45:48.001Z</time></trkpt><trkpt lat="43.39951958107146" lon="10.860373912797392"><ele>493.0</ele><time>2026-04-18T10:45:49.001Z</time></trkpt><trkpt lat="43.39952939066803" lon="10.860237150533683"><ele>492.0</ele><time>2026-04-18T10:45:50.001Z</time></trkpt><trkpt lat="43.399537492845944" lon="10.86010313101929"><ele>491.0</ele><time>2026-04-18T10:45:51.001Z</time></trkpt><trkpt lat="43.39954497392053" lon="10.859974520991443"><ele>490.0</ele><time>2026-04-18T10:45:52.001Z</time></trkpt><trkpt lat="43.39955159021414" lon="10.85985122333074"><ele>489.33333333333337</ele><time>2026-04-18T10:45:53.001Z</time></trkpt><trkpt lat="43.3995585395551" lon="10.8597318715698"><ele>488.6666666666667</ele><time>2026-04-18T10:45:54.001Z</time></trkpt><trkpt lat="43.399566851088125" lon="10.859615962143671"><ele>488.0</ele><time>2026-04-18T10:45:55.001Z</time></trkpt><trkpt lat="43.3995783231878" lon="10.859503431082217"><ele>487.33333333333337</ele><time>2026-04-18T10:45:56.001Z</time></trkpt><trkpt lat="43.39960690541553" lon="10.859398550364745"><ele>486.6666666666667</ele><time>2026-04-18T10:45:57.001Z</time></trkpt><trkpt lat="43.39965802811972" lon="10.859312767557807"><ele>486.0</ele><time>2026-04-18T10:45:58.001Z</time></trkpt><trkpt lat="43.399729294127106" lon="10.859235611241251"><ele>488.6</ele><time>2026-04-18T10:45:59.001Z</time></trkpt><trkpt lat="43.39979871500543" lon="10.859152578268711"><ele>491.20000000000005</ele><time>2026-04-18T10:46:00.001Z</time></trkpt><trkpt lat="43.39986774266869" lon="10.859063216547604"><ele>493.79999999999995</ele><time>2026-04-18T10:46:01.001Z</time></trkpt><trkpt lat="43.39993584556442" lon="10.858968587396415"><ele>496.4</ele><time>2026-04-18T10:46:02.001Z</time></trkpt><trkpt lat="43.40000168377162" lon="10.858876967344107"><ele>499.0</ele><time>2026-04-18T10:46:03.001Z</time></trkpt><trkpt lat="43.400062555431006" lon="10.858772081461487"><ele>499.0</ele><time>2026-04-18T10:46:04.001Z</time></trkpt><trkpt lat="43.40013608466005" lon="10.858681464364157"><ele>499.0</ele><time>2026-04-18T10:46:05.001Z</time></trkpt><trkpt lat="43.4002091191849" lon="10.858582503834764"><ele>499.0</ele><time>2026-04-18T10:46:06.001Z</time></trkpt><trkpt lat="43.40027987678946" lon="10.858481052401025"><ele>499.0</ele><time>2026-04-18T10:46:07.001Z</time></trkpt><trkpt lat="43.4003459445105" lon="10.858382353114465"><ele>499.0</ele><time>2026-04-18T10:46:08.001Z</time></trkpt><trkpt lat="43.400405103116654" lon="10.858301677522945"><ele>501.4</ele><time>2026-04-18T10:46:09.001Z</time></trkpt><trkpt lat="43.400479195458686" lon="10.858193672337444"><ele>503.79999999999995</ele><time>2026-04-18T10:46:11.001Z</time></trkpt><trkpt lat="43.400515983133104" lon="10.858105239886441"><ele>506.20000000000005</ele><time>2026-04-18T10:46:16.001Z</time></trkpt><trkpt lat="43.40051812307785" lon="10.85800212196632"><ele>508.6</ele><time>2026-04-18T10:46:19.001Z</time></trkpt><trkpt lat="43.40040273065026" lon="10.857968884207715"><ele>511.0</ele><time>2026-04-18T10:46:21.001Z</time></trkpt><trkpt lat="43.40028941416773" lon="10.858015293826014"><ele>506.83333333333337</ele><time>2026-04-18T10:46:23.001Z</time></trkpt><trkpt lat="43.400219995507435" lon="10.858025784360773"><ele>502.6666666666667</ele><time>2026-04-18T10:46:24.001Z</time></trkpt><trkpt lat="43.400152652636386" lon="10.858071338499327"><ele>498.5</ele><time>2026-04-18T10:46:25.001Z</time></trkpt><trkpt lat="43.400087697019906" lon="10.858122106305249"><ele>494.33333333333337</ele><time>2026-04-18T10:46:26.001Z</time></trkpt><trkpt lat="43.4000045592821" lon="10.858157050716489"><ele>490.1666666666667</ele><time>2026-04-18T10:46:27.001Z</time></trkpt><trkpt lat="43.39991800491266" lon="10.858187950099849"><ele>486.0</ele><time>2026-04-18T10:46:28.001Z</time></trkpt><trkpt lat="43.39982665137927" lon="10.85821336268586"><ele>486.0</ele><time>2026-04-18T10:46:29.001Z</time></trkpt><trkpt lat="43.399732193797526" lon="10.858246350328223"><ele>486.0</ele><time>2026-04-18T10:46:30.001Z</time></trkpt><trkpt lat="43.399639685030515" lon="10.858273762307428"><ele>486.0</ele><time>2026-04-18T10:46:31.001Z</time></trkpt><trkpt lat="43.39954164370439" lon="10.858311818979708"><ele>486.0</ele><time>2026-04-18T10:46:32.001Z</time></trkpt><trkpt lat="43.39944158512714" lon="10.858358866476458"><ele>486.0</ele><time>2026-04-18T10:46:33.001Z</time></trkpt><trkpt lat="43.39934478670822" lon="10.858412532653176"><ele>484.8</ele><time>2026-04-18T10:46:34.001Z</time></trkpt><trkpt lat="43.39925061167792" lon="10.858483706136656"><ele>483.6</ele><time>2026-04-18T10:46:35.001Z</time></trkpt><trkpt lat="43.39916566561875" lon="10.858568022914552"><ele>482.4</ele><time>2026-04-18T10:46:36.001Z</time></trkpt><trkpt lat="43.39908389787127" lon="10.858664086066113"><ele>481.2</ele><time>2026-04-18T10:46:37.001Z</time></trkpt><trkpt lat="43.39901288738698" lon="10.85877317033477"><ele>480.0</ele><time>2026-04-18T10:46:38.001Z</time></trkpt><trkpt lat="43.39895417743704" lon="10.858890789019195"><ele>480.0</ele><time>2026-04-18T10:46:39.001Z</time></trkpt><trkpt lat="43.39890344694154" lon="10.85901512023759"><ele>480.0</ele><time>2026-04-18T10:46:40.001Z</time></trkpt><trkpt lat="43.39884692264439" lon="10.859111863103598"><ele>480.0</ele><time>2026-04-18T10:46:41.001Z</time></trkpt><trkpt lat="43.398810864161824" lon="10.859202626600466"><ele>480.0</ele><time>2026-04-18T10:46:42.001Z</time></trkpt><trkpt lat="43.39875860385576" lon="10.859313295943577"><ele>480.0</ele><time>2026-04-18T10:46:44.001Z</time></trkpt><trkpt lat="43.39869513129274" lon="10.859390740085312"><ele>476.0</ele><time>2026-04-18T10:46:53.001Z</time></trkpt><trkpt lat="43.39862985704443" lon="10.859390148338994"><ele>472.0</ele><time>2026-04-18T10:46:55.001Z</time></trkpt><trkpt lat="43.39860112587571" lon="10.859525242175922"><ele>468.0</ele><time>2026-04-18T10:46:56.001Z</time></trkpt><trkpt lat="43.39858043274664" lon="10.859703545899176"><ele>464.0</ele><time>2026-04-18T10:46:58.001Z</time></trkpt><trkpt lat="43.39855886870877" lon="10.859806756299585"><ele>460.0</ele><time>2026-04-18T10:46:59.001Z</time></trkpt><trkpt lat="43.39856538119068" lon="10.859925513932616"><ele>460.0</ele><time>2026-04-18T10:47:00.001Z</time></trkpt><trkpt lat="43.39858275608348" lon="10.860046872346148"><ele>460.0</ele><time>2026-04-18T10:47:01.001Z</time></trkpt><trkpt lat="43.398608294572185" lon="10.860169339443168"><ele>460.0</ele><time>2026-04-18T10:47:02.001Z</time></trkpt><trkpt lat="43.39863114359896" lon="10.860294247451588"><ele>460.0</ele><time>2026-04-18T10:47:03.001Z</time></trkpt><trkpt lat="43.39865184536811" lon="10.860420517788999"><ele>460.0</ele><time>2026-04-18T10:47:04.001Z</time></trkpt><trkpt lat="43.39866341571606" lon="10.860549113889874"><ele>460.6666666666667</ele><time>2026-04-18T10:47:05.001Z</time></trkpt><trkpt lat="43.39866685690516" lon="10.86067291766633"><ele>461.33333333333337</ele><time>2026-04-18T10:47:06.001Z</time></trkpt><trkpt lat="43.39866083333536" lon="10.860789172966259"><ele>462.0</ele><time>2026-04-18T10:47:07.001Z</time></trkpt><trkpt lat="43.39864594701261" lon="10.860897843217135"><ele>462.66666666666663</ele><time>2026-04-18T10:47:08.001Z</time></trkpt><trkpt lat="43.39862608884964" lon="10.86100219410085"><ele>463.3333333333333</ele><time>2026-04-18T10:47:09Z</time></trkpt><trkpt lat="43.398601446332044" lon="10.861091339150471"><ele>464.0</ele><time>2026-04-18T10:47:10Z</time></trkpt><trkpt lat="43.39851471188143" lon="10.8612299692052"><ele>465.0</ele><time>2026-04-18T10:47:12Z</time></trkpt><trkpt lat="43.398455529534175" lon="10.861310549726445"><ele>466.0</ele><time>2026-04-18T10:47:13Z</time></trkpt><trkpt lat="43.3983922280642" lon="10.861396738692557"><ele>467.0</ele><time>2026-04-18T10:47:14Z</time></trkpt><trkpt lat="43.39832536636832" lon="10.86149050636823"><ele>468.0</ele><time>2026-04-18T10:47:15Z</time></trkpt><trkpt lat="43.39825793787981" lon="10.86159309633489"><ele>469.0</ele><time>2026-04-18T10:47:16Z</time></trkpt><trkpt lat="43.39819322743427" lon="10.861705201279806"><ele>470.2</ele><time>2026-04-18T10:47:17Z</time></trkpt><trkpt lat="43.398133195909445" lon="10.861815818087884"><ele>471.4</ele><time>2026-04-18T10:47:18Z</time></trkpt><trkpt lat="43.39807573392783" lon="10.861921700141583"><ele>472.6</ele><time>2026-04-18T10:47:19Z</time></trkpt><trkpt lat="43.39801844498468" lon="10.862022327145274"><ele>473.8</ele><time>2026-04-18T10:47:20Z</time></trkpt><trkpt lat="43.397958456670246" lon="10.862114700420628"><ele>475.0</ele><time>2026-04-18T10:47:21Z</time></trkpt><trkpt lat="43.39789303886999" lon="10.86219656919596"><ele>472.83333333333337</ele><time>2026-04-18T10:47:22Z</time></trkpt><trkpt lat="43.39781583865236" lon="10.86226239568294"><ele>470.6666666666667</ele><time>2026-04-18T10:47:23Z</time></trkpt><trkpt lat="43.397737446600615" lon="10.862313241093249"><ele>468.5</ele><time>2026-04-18T10:47:24Z</time></trkpt><trkpt lat="43.39765479136588" lon="10.862358729825592"><ele>466.33333333333337</ele><time>2026-04-18T10:47:25Z</time></trkpt><trkpt lat="43.39757218170214" lon="10.86239700750418"><ele>464.1666666666667</ele><time>2026-04-18T10:47:26Z</time></trkpt><trkpt lat="43.39748939544413" lon="10.862441260047545"><ele>462.0</ele><time>2026-04-18T10:47:27Z</time></trkpt><trkpt lat="43.39741104540219" lon="10.86247693191766"><ele>462.0</ele><time>2026-04-18T10:47:28Z</time></trkpt><trkpt lat="43.397326242508264" lon="10.862494116764482"><ele>462.0</ele><time>2026-04-18T10:47:29Z</time></trkpt><trkpt lat="43.39723929417255" lon="10.862505729065628"><ele>462.0</ele><time>2026-04-18T10:47:30Z</time></trkpt><trkpt lat="43.39715335407677" lon="10.862529578287765"><ele>462.0</ele><time>2026-04-18T10:47:31Z</time></trkpt><trkpt lat="43.397068998221556" lon="10.862519337405125"><ele>462.0</ele><time>2026-04-18T10:47:32Z</time></trkpt><trkpt lat="43.39699411140696" lon="10.862493911220458"><ele>462.0</ele><time>2026-04-18T10:47:33Z</time></trkpt><trkpt lat="43.39692524936891" lon="10.862465669547328"><ele>461.6666666666667</ele><time>2026-04-18T10:47:34Z</time></trkpt><trkpt lat="43.39686216311551" lon="10.862437639551713"><ele>461.33333333333337</ele><time>2026-04-18T10:47:35Z</time></trkpt><trkpt lat="43.39675126575095" lon="10.862412718789475"><ele>461.0</ele><time>2026-04-18T10:47:37Z</time></trkpt><trkpt lat="43.396688552525184" lon="10.862394658231802"><ele>460.6666666666667</ele><time>2026-04-18T10:47:38Z</time></trkpt><trkpt lat="43.39661983510863" lon="10.862409020613295"><ele>460.33333333333337</ele><time>2026-04-18T10:47:39Z</time></trkpt><trkpt lat="43.39655125118924" lon="10.86246011955034"><ele>460.0</ele><time>2026-04-18T10:47:40Z</time></trkpt><trkpt lat="43.39646965065031" lon="10.862491880038151"><ele>460.0</ele><time>2026-04-18T10:47:41Z</time></trkpt><trkpt lat="43.39637955769175" lon="10.862525735522103"><ele>460.0</ele><time>2026-04-18T10:47:42Z</time></trkpt><trkpt lat="43.3962800302625" lon="10.862569271086581"><ele>460.0</ele><time>2026-04-18T10:47:43Z</time></trkpt><trkpt lat="43.39617708768123" lon="10.862612054347178"><ele>460.0</ele><time>2026-04-18T10:47:44Z</time></trkpt><trkpt lat="43.396081216616366" lon="10.862655093800562"><ele>460.0</ele><time>2026-04-18T10:47:45Z</time></trkpt><trkpt lat="43.39599399644898" lon="10.8626939745681"><ele>458.1666666666667</ele><time>2026-04-18T10:47:46Z</time></trkpt><trkpt lat="43.395919259529464" lon="10.862725187820596"><ele>456.33333333333337</ele><time>2026-04-18T10:47:47Z</time></trkpt><trkpt lat="43.395844866104" lon="10.862743244853796"><ele>454.5</ele><time>2026-04-18T10:47:48Z</time></trkpt><trkpt lat="43.395762116946315" lon="10.862737180837605"><ele>452.66666666666663</ele><time>2026-04-18T10:47:49Z</time></trkpt><trkpt lat="43.395679089721426" lon="10.862711095529555"><ele>450.8333333333333</ele><time>2026-04-18T10:47:50Z</time></trkpt><trkpt lat="43.39558234346758" lon="10.862674529026998"><ele>449.0</ele><time>2026-04-18T10:47:51Z</time></trkpt><trkpt lat="43.39548707451834" lon="10.862639377772132"><ele>447.8333333333333</ele><time>2026-04-18T10:47:52Z</time></trkpt><trkpt lat="43.395389069006185" lon="10.862604114709415"><ele>446.66666666666663</ele><time>2026-04-18T10:47:53Z</time></trkpt><trkpt lat="43.395292009129165" lon="10.862568236920014"><ele>445.5</ele><time>2026-04-18T10:47:54Z</time></trkpt><trkpt lat="43.39520754763463" lon="10.862537406120145"><ele>444.33333333333337</ele><time>2026-04-18T10:47:55Z</time></trkpt><trkpt lat="43.39513792730388" lon="10.862509648513818"><ele>443.1666666666667</ele><time>2026-04-18T10:47:56Z</time></trkpt><trkpt lat="43.395073777578524" lon="10.86248878581879"><ele>442.0</ele><time>2026-04-18T10:47:57Z</time></trkpt><trkpt lat="43.39500440296718" lon="10.862494505656798"><ele>442.00000000000006</ele><time>2026-04-18T10:47:58Z</time></trkpt><trkpt lat="43.39493813734078" lon="10.86252350241299"><ele>442.0</ele><time>2026-04-18T10:47:59Z</time></trkpt><trkpt lat="43.39486405587165" lon="10.862561207055716"><ele>442.0</ele><time>2026-04-18T10:48:00Z</time></trkpt><trkpt lat="43.39478161779706" lon="10.862603863146509"><ele>442.0</ele><time>2026-04-18T10:48:01Z</time></trkpt><trkpt lat="43.394694407317935" lon="10.862652028266918"><ele>442.00000000000006</ele><time>2026-04-18T10:48:02Z</time></trkpt><trkpt lat="43.39460653759203" lon="10.862709224443286"><ele>442.0</ele><time>2026-04-18T10:48:03Z</time></trkpt><trkpt lat="43.39451895531678" lon="10.862772044407553"><ele>439.40000000000003</ele><time>2026-04-18T10:48:04Z</time></trkpt><trkpt lat="43.394429926338645" lon="10.862815249388621"><ele>436.80000000000007</ele><time>2026-04-18T10:48:05Z</time></trkpt><trkpt lat="43.39434709787017" lon="10.862875079867381"><ele>434.2</ele><time>2026-04-18T10:48:06Z</time></trkpt><trkpt lat="43.394263683627365" lon="10.86293088761007"><ele>431.6</ele><time>2026-04-18T10:48:07Z</time></trkpt><trkpt lat="43.39418502309539" lon="10.862979766876759"><ele>429.0</ele><time>2026-04-18T10:48:08Z</time></trkpt><trkpt lat="43.394103412306976" lon="10.863028072966843"><ele>429.0</ele><time>2026-04-18T10:48:09Z</time></trkpt><trkpt lat="43.39401984532732" lon="10.863075214661992"><ele>429.0</ele><time>2026-04-18T10:48:10Z</time></trkpt><trkpt lat="43.39393871069799" lon="10.863110309931644"><ele>429.0</ele><time>2026-04-18T10:48:11Z</time></trkpt><trkpt lat="43.39386215962869" lon="10.86312866898801"><ele>429.0</ele><time>2026-04-18T10:48:12Z</time></trkpt><trkpt lat="43.3937913142389" lon="10.863131228899896"><ele>429.0</ele><time>2026-04-18T10:48:13Z</time></trkpt><trkpt lat="43.393692685139456" lon="10.863077972686426"><ele>429.0</ele><time>2026-04-18T10:48:15Z</time></trkpt><trkpt lat="43.39364253370558" lon="10.862936206386909"><ele>425.79999999999995</ele><time>2026-04-18T10:48:17Z</time></trkpt><trkpt lat="43.39365181200614" lon="10.862832268768017"><ele>422.59999999999997</ele><time>2026-04-18T10:48:18Z</time></trkpt><trkpt lat="43.393645768726415" lon="10.862710859465182"><ele>419.4</ele><time>2026-04-18T10:48:19Z</time></trkpt><trkpt lat="43.39363237579711" lon="10.862583754974567"><ele>416.2</ele><time>2026-04-18T10:48:20Z</time></trkpt><trkpt lat="43.393612039534936" lon="10.862455064863015"><ele>413.0</ele><time>2026-04-18T10:48:21Z</time></trkpt><trkpt lat="43.39358630409658" lon="10.862326408408775"><ele>412.4</ele><time>2026-04-18T10:48:22Z</time></trkpt><trkpt lat="43.39355367399014" lon="10.862197214960727"><ele>411.79999999999995</ele><time>2026-04-18T10:48:23Z</time></trkpt><trkpt lat="43.393517344709736" lon="10.862054747311916"><ele>411.2</ele><time>2026-04-18T10:48:24Z</time></trkpt><trkpt lat="43.393476228517464" lon="10.861902178052794"><ele>410.6</ele><time>2026-04-18T10:48:25.001Z</time></trkpt><trkpt lat="43.3934294866706" lon="10.861748025519958"><ele>410.0</ele><time>2026-04-18T10:48:26.001Z</time></trkpt><trkpt lat="43.3933780052941" lon="10.861594044773293"><ele>410.0</ele><time>2026-04-18T10:48:27.001Z</time></trkpt><trkpt lat="43.39332457649925" lon="10.861445002084306"><ele>410.0</ele><time>2026-04-18T10:48:28.001Z</time></trkpt><trkpt lat="43.39327249160241" lon="10.861296097546685"><ele>410.0</ele><time>2026-04-18T10:48:29.001Z</time></trkpt><trkpt lat="43.39322744925551" lon="10.861154589099424"><ele>410.0</ele><time>2026-04-18T10:48:30.001Z</time></trkpt><trkpt lat="43.39319060616861" lon="10.86102606282306"><ele>409.4</ele><time>2026-04-18T10:48:31.001Z</time></trkpt><trkpt lat="43.39315345897875" lon="10.860913556556113"><ele>408.8</ele><time>2026-04-18T10:48:32.001Z</time></trkpt><trkpt lat="43.393137676369854" lon="10.860805523480689"><ele>408.20000000000005</ele><time>2026-04-18T10:48:33.001Z</time></trkpt><trkpt lat="43.39309110282766" lon="10.860739456867996"><ele>407.6</ele><time>2026-04-18T10:48:34.001Z</time></trkpt><trkpt lat="43.392994463018944" lon="10.860698293440128"><ele>407.0</ele><time>2026-04-18T10:48:36.001Z</time></trkpt><trkpt lat="43.39290433774247" lon="10.860814231113427"><ele>403.66666666666663</ele><time>2026-04-18T10:48:38.001Z</time></trkpt><trkpt lat="43.39286653535016" lon="10.860897672658263"><ele>400.3333333333333</ele><time>2026-04-18T10:48:39.001Z</time></trkpt><trkpt lat="43.39285287441477" lon="10.860996804664536"><ele>397.0</ele><time>2026-04-18T10:48:40.001Z</time></trkpt><trkpt lat="43.39285094771863" lon="10.861112335558117"><ele>393.66666666666663</ele><time>2026-04-18T10:48:41.001Z</time></trkpt><trkpt lat="43.392870017100215" lon="10.861232811524056"><ele>390.3333333333333</ele><time>2026-04-18T10:48:42.001Z</time></trkpt><trkpt lat="43.39284971988701" lon="10.86135749430945"><ele>387.0</ele><time>2026-04-18T10:48:43.001Z</time></trkpt><trkpt lat="43.39283703486515" lon="10.861476478618696"><ele>387.0</ele><time>2026-04-18T10:48:44.001Z</time></trkpt><trkpt lat="43.39281345725339" lon="10.861589304547412"><ele>387.0</ele><time>2026-04-18T10:48:45.001Z</time></trkpt><trkpt lat="43.392760943109174" lon="10.86167681740749"><ele>387.0</ele><time>2026-04-18T10:48:46.001Z</time></trkpt><trkpt lat="43.39269285799654" lon="10.86175938985102"><ele>387.0</ele><time>2026-04-18T10:48:47.001Z</time></trkpt><trkpt lat="43.39261679313833" lon="10.861831484861218"><ele>387.0</ele><time>2026-04-18T10:48:48.001Z</time></trkpt><trkpt lat="43.392540117487584" lon="10.861901871229676"><ele>387.0</ele><time>2026-04-18T10:48:49Z</time></trkpt><trkpt lat="43.39244642938742" lon="10.861912928703292"><ele>387.5</ele><time>2026-04-18T10:48:50Z</time></trkpt><trkpt lat="43.392370660277116" lon="10.861973239540234"><ele>388.0</ele><time>2026-04-18T10:48:51Z</time></trkpt><trkpt lat="43.39230781301844" lon="10.862032066309427"><ele>388.5</ele><time>2026-04-18T10:48:52Z</time></trkpt><trkpt lat="43.39225266850654" lon="10.86210138891222"><ele>389.0</ele><time>2026-04-18T10:48:53Z</time></trkpt><trkpt lat="43.39221456110438" lon="10.862207872008238"><ele>389.5</ele><time>2026-04-18T10:48:54Z</time></trkpt><trkpt lat="43.3921903604301" lon="10.862317504391028"><ele>390.0</ele><time>2026-04-18T10:48:55Z</time></trkpt><trkpt lat="43.39217200310551" lon="10.862422247267116"><ele>387.1666666666667</ele><time>2026-04-18T10:48:56Z</time></trkpt><trkpt lat="43.392155695242366" lon="10.862563388705196"><ele>384.3333333333333</ele><time>2026-04-18T10:48:58Z</time></trkpt><trkpt lat="43.39214824939919" lon="10.862679108330752"><ele>381.5</ele><time>2026-04-18T10:49:00Z</time></trkpt><trkpt lat="43.392150216671006" lon="10.862787284498882"><ele>378.66666666666663</ele><time>2026-04-18T10:49:02Z</time></trkpt><trkpt lat="43.39214336395618" lon="10.8628750389691"><ele>375.8333333333333</ele><time>2026-04-18T10:49:04Z</time></trkpt><trkpt lat="43.392095172604655" lon="10.862981663145446"><ele>373.0</ele><time>2026-04-18T10:49:07Z</time></trkpt><trkpt lat="43.39213146226821" lon="10.862907540622011"><ele>373.0</ele><time>2026-04-18T10:49:25Z</time></trkpt><trkpt lat="43.39216652530078" lon="10.862817411145377"><ele>373.0</ele><time>2026-04-18T10:49:30Z</time></trkpt><trkpt lat="43.39214896432271" lon="10.862730730939688"><ele>373.0</ele><time>2026-04-18T10:49:38Z</time></trkpt><trkpt lat="43.3921528603429" lon="10.862595226821272"><ele>373.0</ele><time>2026-04-18T10:49:42Z</time></trkpt><trkpt lat="43.392166070656685" lon="10.862468695254378"><ele>373.0</ele><time>2026-04-18T10:49:44Z</time></trkpt><trkpt lat="43.392178072728655" lon="10.86237801286056"><ele>373.0</ele><time>2026-04-18T10:49:45Z</time></trkpt><trkpt lat="43.39219492891849" lon="10.862290630705983"><ele>378.66666666666663</ele><time>2026-04-18T10:49:46Z</time></trkpt><trkpt lat="43.39221873114773" lon="10.86215900232016"><ele>384.3333333333333</ele><time>2026-04-18T10:49:47Z</time></trkpt><trkpt lat="43.39248972765045" lon="10.86198042174315"><ele>390.0</ele><time>2026-04-18T10:49:48Z</time></trkpt><trkpt lat="43.39236251160095" lon="10.862008905256893"><ele>390.0</ele><time>2026-04-18T10:49:50Z</time></trkpt><trkpt lat="43.392448572395125" lon="10.861953820830552"><ele>390.0</ele><time>2026-04-18T10:49:52Z</time></trkpt><trkpt lat="43.39247996747123" lon="10.861867682278247"><ele>390.0</ele><time>2026-04-18T10:49:54Z</time></trkpt><trkpt lat="43.39243231524329" lon="10.861737078583543"><ele>390.0</ele><time>2026-04-18T10:49:56Z</time></trkpt><trkpt lat="43.39240280979772" lon="10.86165409767624"><ele>390.0</ele><time>2026-04-18T10:49:57Z</time></trkpt><trkpt lat="43.39237095583341" lon="10.861556386801343"><ele>390.0</ele><time>2026-04-18T10:49:58Z</time></trkpt><trkpt lat="43.392337392853555" lon="10.8614422718855"><ele>389.4</ele><time>2026-04-18T10:49:59Z</time></trkpt><trkpt lat="43.3923012198251" lon="10.86132402565641"><ele>388.8</ele><time>2026-04-18T10:50:00Z</time></trkpt><trkpt lat="43.39226235640181" lon="10.86120375355307"><ele>388.20000000000005</ele><time>2026-04-18T10:50:01Z</time></trkpt><trkpt lat="43.392223401274144" lon="10.861084615652542"><ele>387.6</ele><time>2026-04-18T10:50:02Z</time></trkpt><trkpt lat="43.3921789132746" lon="10.860978130190984"><ele>387.0</ele><time>2026-04-18T10:50:03Z</time></trkpt><trkpt lat="43.39212667519021" lon="10.860886057224821"><ele>382.8</ele><time>2026-04-18T10:50:04Z</time></trkpt><trkpt lat="43.39206661602218" lon="10.86080842830834"><ele>378.6</ele><time>2026-04-18T10:50:05Z</time></trkpt><trkpt lat="43.39198935366989" lon="10.860752021690619"><ele>374.40000000000003</ele><time>2026-04-18T10:50:06Z</time></trkpt><trkpt lat="43.39190036991668" lon="10.86070707074753"><ele>370.20000000000005</ele><time>2026-04-18T10:50:07Z</time></trkpt><trkpt lat="43.39180865369697" lon="10.860663349950526"><ele>366.0</ele><time>2026-04-18T10:50:08Z</time></trkpt><trkpt lat="43.391716469165935" lon="10.860617692400659"><ele>366.0</ele><time>2026-04-18T10:50:09Z</time></trkpt><trkpt lat="43.39163010583729" lon="10.860575360201196"><ele>366.0</ele><time>2026-04-18T10:50:10Z</time></trkpt><trkpt lat="43.39154869552769" lon="10.8605376063768"><ele>366.0</ele><time>2026-04-18T10:50:11Z</time></trkpt><trkpt lat="43.39147159515419" lon="10.860497507532774"><ele>366.0</ele><time>2026-04-18T10:50:12Z</time></trkpt><trkpt lat="43.3914040081726" lon="10.86045559191032"><ele>366.0</ele><time>2026-04-18T10:50:13Z</time></trkpt><trkpt lat="43.39134998690706" lon="10.860401426657505"><ele>366.0</ele><time>2026-04-18T10:50:14Z</time></trkpt><trkpt lat="43.39130750689616" lon="10.860321338309692"><ele>363.20000000000005</ele><time>2026-04-18T10:50:15Z</time></trkpt><trkpt lat="43.39127590308262" lon="10.860218037621191"><ele>360.40000000000003</ele><time>2026-04-18T10:50:16Z</time></trkpt><trkpt lat="43.39124787957638" lon="10.860098311465654"><ele>357.6</ele><time>2026-04-18T10:50:17Z</time></trkpt><trkpt lat="43.391213674197125" lon="10.859966283200713"><ele>354.8</ele><time>2026-04-18T10:50:18Z</time></trkpt><trkpt lat="43.39117518090123" lon="10.859821671425083"><ele>352.0</ele><time>2026-04-18T10:50:19Z</time></trkpt><trkpt lat="43.391134163194074" lon="10.859665427576791"><ele>351.25</ele><time>2026-04-18T10:50:20Z</time></trkpt><trkpt lat="43.39109249886543" lon="10.859507332133719"><ele>350.5</ele><time>2026-04-18T10:50:21Z</time></trkpt><trkpt lat="43.39105572906636" lon="10.859348605075606"><ele>349.75</ele><time>2026-04-18T10:50:22Z</time></trkpt><trkpt lat="43.391024841390816" lon="10.859187142008146"><ele>349.0</ele><time>2026-04-18T10:50:23Z</time></trkpt><trkpt lat="43.3909975302523" lon="10.85901704624348"><ele>348.25</ele><time>2026-04-18T10:50:24Z</time></trkpt><trkpt lat="43.39097380909752" lon="10.858841842003004"><ele>347.5</ele><time>2026-04-18T10:50:25Z</time></trkpt><trkpt lat="43.390953607359805" lon="10.858664536947673"><ele>346.75</ele><time>2026-04-18T10:50:26Z</time></trkpt><trkpt lat="43.390946101833514" lon="10.85848876476975"><ele>346.0</ele><time>2026-04-18T10:50:27Z</time></trkpt><trkpt lat="43.39092943614901" lon="10.858325125179885"><ele>344.6</ele><time>2026-04-18T10:50:28Z</time></trkpt><trkpt lat="43.390914545253096" lon="10.85817774257702"><ele>343.20000000000005</ele><time>2026-04-18T10:50:29Z</time></trkpt><trkpt lat="43.390896731008624" lon="10.858051291922097"><ele>341.79999999999995</ele><time>2026-04-18T10:50:30Z</time></trkpt><trkpt lat="43.39086465356647" lon="10.857949064639792"><ele>340.4</ele><time>2026-04-18T10:50:31Z</time></trkpt><trkpt lat="43.390801156055055" lon="10.857862451471636"><ele>339.0</ele><time>2026-04-18T10:50:32Z</time></trkpt><trkpt lat="43.390720799341636" lon="10.857792698090579"><ele>339.0</ele><time>2026-04-18T10:50:33Z</time></trkpt><trkpt lat="43.39062968846068" lon="10.857718263798565"><ele>339.0</ele><time>2026-04-18T10:50:34Z</time></trkpt><trkpt lat="43.39053704588266" lon="10.857639217859052"><ele>339.0</ele><time>2026-04-18T10:50:35Z</time></trkpt><trkpt lat="43.39044053469026" lon="10.857557737605628"><ele>339.0</ele><time>2026-04-18T10:50:36Z</time></trkpt><trkpt lat="43.39034140322656" lon="10.857473148697661"><ele>339.0</ele><time>2026-04-18T10:50:37Z</time></trkpt><trkpt lat="43.390241248338626" lon="10.85738969863895"><ele>336.6</ele><time>2026-04-18T10:50:38Z</time></trkpt><trkpt lat="43.39014247311171" lon="10.85731041178483"><ele>334.2</ele><time>2026-04-18T10:50:39Z</time></trkpt><trkpt lat="43.39004608235972" lon="10.857237560481725"><ele>331.8</ele><time>2026-04-18T10:50:40Z</time></trkpt><trkpt lat="43.389954673892056" lon="10.85717390581384"><ele>329.40000000000003</ele><time>2026-04-18T10:50:41Z</time></trkpt><trkpt lat="43.389869053108065" lon="10.85711594213433"><ele>327.0</ele><time>2026-04-18T10:50:42Z</time></trkpt><trkpt lat="43.389792836525245" lon="10.857050717668963"><ele>327.0</ele><time>2026-04-18T10:50:43Z</time></trkpt><trkpt lat="43.38973424923323" lon="10.856957421786538"><ele>327.0</ele><time>2026-04-18T10:50:44Z</time></trkpt><trkpt lat="43.389681311934396" lon="10.856852121387892"><ele>327.0</ele><time>2026-04-18T10:50:45Z</time></trkpt><trkpt lat="43.38961348835701" lon="10.856763927116884"><ele>327.0</ele><time>2026-04-18T10:50:46Z</time></trkpt><trkpt lat="43.389533564665356" lon="10.856702421992614"><ele>327.0</ele><time>2026-04-18T10:50:47Z</time></trkpt><trkpt lat="43.38944908939415" lon="10.856636709830498"><ele>325.6666666666667</ele><time>2026-04-18T10:50:48Z</time></trkpt><trkpt lat="43.389368678506266" lon="10.856572597009388"><ele>324.3333333333333</ele><time>2026-04-18T10:50:49Z</time></trkpt><trkpt lat="43.389289035912896" lon="10.856511471360754"><ele>323.0</ele><time>2026-04-18T10:50:50Z</time></trkpt><trkpt lat="43.38920939544454" lon="10.856451515296722"><ele>321.66666666666663</ele><time>2026-04-18T10:50:51Z</time></trkpt><trkpt lat="43.38913399884791" lon="10.856391199567003"><ele>320.3333333333333</ele><time>2026-04-18T10:50:52Z</time></trkpt><trkpt lat="43.389062115400996" lon="10.856327639658721"><ele>319.0</ele><time>2026-04-18T10:50:53Z</time></trkpt><trkpt lat="43.388991126286086" lon="10.856258709443248"><ele>319.0</ele><time>2026-04-18T10:50:54Z</time></trkpt><trkpt lat="43.388922406497656" lon="10.856189006231912"><ele>319.0</ele><time>2026-04-18T10:50:54.999Z</time></trkpt><trkpt lat="43.388854782542516" lon="10.856126289961386"><ele>319.0</ele><time>2026-04-18T10:50:55.999Z</time></trkpt><trkpt lat="43.388795835013326" lon="10.856068260526097"><ele>319.0</ele><time>2026-04-18T10:50:56.999Z</time></trkpt><trkpt lat="43.38874265804059" lon="10.856003122329781"><ele>319.0</ele><time>2026-04-18T10:50:57.999Z</time></trkpt><trkpt lat="43.38869457386164" lon="10.855925840738866"><ele>319.0</ele><time>2026-04-18T10:50:58.999Z</time></trkpt><trkpt lat="43.38865367029228" lon="10.85584167779437"><ele>317.2</ele><time>2026-04-18T10:50:59.999Z</time></trkpt><trkpt lat="43.388612962540556" lon="10.85574848611723"><ele>315.4</ele><time>2026-04-18T10:51:00.999Z</time></trkpt><trkpt lat="43.388570299310146" lon="10.855647443478269"><ele>313.6</ele><time>2026-04-18T10:51:01.999Z</time></trkpt><trkpt lat="43.3885234799517" lon="10.855539332163062"><ele>311.8</ele><time>2026-04-18T10:51:02.999Z</time></trkpt><trkpt lat="43.38847350112301" lon="10.855425587305888"><ele>310.0</ele><time>2026-04-18T10:51:03.999Z</time></trkpt><trkpt lat="43.388420345406026" lon="10.855304595267942"><ele>310.0</ele><time>2026-04-18T10:51:04.999Z</time></trkpt><trkpt lat="43.388362918751994" lon="10.855176668469849"><ele>310.0</ele><time>2026-04-18T10:51:05.999Z</time></trkpt><trkpt lat="43.388308179190055" lon="10.855052136792215"><ele>310.0</ele><time>2026-04-18T10:51:06.999Z</time></trkpt><trkpt lat="43.38825760474341" lon="10.854933483473358"><ele>310.0</ele><time>2026-04-18T10:51:07.999Z</time></trkpt><trkpt lat="43.388211881443276" lon="10.854823271029183"><ele>310.0</ele><time>2026-04-18T10:51:08.999Z</time></trkpt><trkpt lat="43.38816887483492" lon="10.854721883617321"><ele>309.4</ele><time>2026-04-18T10:51:09.999Z</time></trkpt><trkpt lat="43.38812743286153" lon="10.854626817935435"><ele>308.8</ele><time>2026-04-18T10:51:10.999Z</time></trkpt><trkpt lat="43.388078662805775" lon="10.854535265994969"><ele>308.2</ele><time>2026-04-18T10:51:11.999Z</time></trkpt><trkpt lat="43.3880108570007" lon="10.854443996745829"><ele>307.6</ele><time>2026-04-18T10:51:12.999Z</time></trkpt><trkpt lat="43.38793270890887" lon="10.854357180136299"><ele>307.0</ele><time>2026-04-18T10:51:13.999Z</time></trkpt><trkpt lat="43.3878490291824" lon="10.854266038353003"><ele>304.2</ele><time>2026-04-18T10:51:14.999Z</time></trkpt><trkpt lat="43.38776110163625" lon="10.854172665951443"><ele>301.4</ele><time>2026-04-18T10:51:15.999Z</time></trkpt><trkpt lat="43.38767120893495" lon="10.854081204594697"><ele>298.6</ele><time>2026-04-18T10:51:16.999Z</time></trkpt><trkpt lat="43.38758584731551" lon="10.853991070571135"><ele>295.8</ele><time>2026-04-18T10:51:17.999Z</time></trkpt><trkpt lat="43.38751096510936" lon="10.853906099983497"><ele>293.0</ele><time>2026-04-18T10:51:18.999Z</time></trkpt><trkpt lat="43.38745389821772" lon="10.853835543766357"><ele>293.0</ele><time>2026-04-18T10:51:19.999Z</time></trkpt><trkpt lat="43.387398875677974" lon="10.853768163369784"><ele>293.0</ele><time>2026-04-18T10:51:20.999Z</time></trkpt><trkpt lat="43.387345490079376" lon="10.853705423844662"><ele>293.0</ele><time>2026-04-18T10:51:21.999Z</time></trkpt><trkpt lat="43.38727573727041" lon="10.853655226981736"><ele>293.0</ele><time>2026-04-18T10:51:22.999Z</time></trkpt><trkpt lat="43.387189115628786" lon="10.853628826872727"><ele>293.0</ele><time>2026-04-18T10:51:24Z</time></trkpt><trkpt lat="43.38709597077412" lon="10.853630268836318"><ele>293.0</ele><time>2026-04-18T10:51:25Z</time></trkpt><trkpt lat="43.38700368990045" lon="10.853656179553417"><ele>291.5</ele><time>2026-04-18T10:51:26Z</time></trkpt><trkpt lat="43.386909185150635" lon="10.853691801976971"><ele>290.0</ele><time>2026-04-18T10:51:27Z</time></trkpt><trkpt lat="43.386817066868254" lon="10.853725403581576"><ele>288.5</ele><time>2026-04-18T10:51:28Z</time></trkpt><trkpt lat="43.386737569427204" lon="10.853766311523891"><ele>287.0</ele><time>2026-04-18T10:51:29Z</time></trkpt><trkpt lat="43.386672871187805" lon="10.853826795187421"><ele>285.5</ele><time>2026-04-18T10:51:30Z</time></trkpt><trkpt lat="43.38663129564347" lon="10.853904919634976"><ele>284.0</ele><time>2026-04-18T10:51:31Z</time></trkpt><trkpt lat="43.386613326763104" lon="10.854005052957229"><ele>284.0</ele><time>2026-04-18T10:51:32Z</time></trkpt><trkpt lat="43.38661137910015" lon="10.854108409509726"><ele>284.0</ele><time>2026-04-18T10:51:33Z</time></trkpt><trkpt lat="43.386608915525585" lon="10.854216880409574"><ele>284.0</ele><time>2026-04-18T10:51:34Z</time></trkpt><trkpt lat="43.38660488797024" lon="10.85432791582918"><ele>284.0</ele><time>2026-04-18T10:51:35Z</time></trkpt><trkpt lat="43.386601890329906" lon="10.85443356242377"><ele>284.0</ele><time>2026-04-18T10:51:36Z</time></trkpt><trkpt lat="43.38658336480401" lon="10.854521490816413"><ele>284.0</ele><time>2026-04-18T10:51:37Z</time></trkpt><trkpt lat="43.38656999032654" lon="10.85465051933886"><ele>283.59999999999997</ele><time>2026-04-18T10:51:39Z</time></trkpt><trkpt lat="43.38648401443268" lon="10.854717437302847"><ele>283.2</ele><time>2026-04-18T10:51:42Z</time></trkpt><trkpt lat="43.3863484299743" lon="10.854731878978509"><ele>282.79999999999995</ele><time>2026-04-18T10:51:44Z</time></trkpt><trkpt lat="43.38627008416291" lon="10.85474251839305"><ele>282.4</ele><time>2026-04-18T10:51:45Z</time></trkpt><trkpt lat="43.38619485458998" lon="10.854754117168806"><ele>282.0</ele><time>2026-04-18T10:51:46Z</time></trkpt><trkpt lat="43.386125294426336" lon="10.854767790949092"><ele>279.6666666666667</ele><time>2026-04-18T10:51:47Z</time></trkpt><trkpt lat="43.38606194496336" lon="10.854802975838522"><ele>277.3333333333333</ele><time>2026-04-18T10:51:48Z</time></trkpt><trkpt lat="43.386005702945724" lon="10.854864208024951"><ele>275.0</ele><time>2026-04-18T10:51:49Z</time></trkpt><trkpt lat="43.38596451894382" lon="10.854945713327902"><ele>272.66666666666663</ele><time>2026-04-18T10:51:50Z</time></trkpt><trkpt lat="43.385928842613914" lon="10.855028105035265"><ele>270.3333333333333</ele><time>2026-04-18T10:51:51Z</time></trkpt><trkpt lat="43.38588281823127" lon="10.855089422063426"><ele>268.0</ele><time>2026-04-18T10:51:52Z</time></trkpt><trkpt lat="43.38576566206322" lon="10.855129616015528"><ele>268.0</ele><time>2026-04-18T10:51:54Z</time></trkpt><trkpt lat="43.385699679074555" lon="10.855111810031365"><ele>268.0</ele><time>2026-04-18T10:51:55Z</time></trkpt><trkpt lat="43.38563412652494" lon="10.855075528014972"><ele>268.0</ele><time>2026-04-18T10:51:56Z</time></trkpt><trkpt lat="43.38556053206464" lon="10.855034803802507"><ele>268.0</ele><time>2026-04-18T10:51:57Z</time></trkpt><trkpt lat="43.385484330420816" lon="10.854995121733799"><ele>268.0</ele><time>2026-04-18T10:51:58Z</time></trkpt><trkpt lat="43.38540233387016" lon="10.854949590990254"><ele>268.0</ele><time>2026-04-18T10:51:59Z</time></trkpt><trkpt lat="43.38531541846521" lon="10.85490326367246"><ele>265.6</ele><time>2026-04-18T10:52:00Z</time></trkpt><trkpt lat="43.3852283848894" lon="10.854861661740701"><ele>263.20000000000005</ele><time>2026-04-18T10:52:01Z</time></trkpt><trkpt lat="43.38514053336187" lon="10.854822966424534"><ele>260.8</ele><time>2026-04-18T10:52:02Z</time></trkpt><trkpt lat="43.385051210442576" lon="10.854782791495795"><ele>258.40000000000003</ele><time>2026-04-18T10:52:03Z</time></trkpt><trkpt lat="43.384966825102445" lon="10.854738639518555"><ele>256.0</ele><time>2026-04-18T10:52:04Z</time></trkpt><trkpt lat="43.384890643042525" lon="10.854693480056751"><ele>256.0</ele><time>2026-04-18T10:52:05Z</time></trkpt><trkpt lat="43.3848272411664" lon="10.854647776724077"><ele>256.0</ele><time>2026-04-18T10:52:06Z</time></trkpt><trkpt lat="43.384770010286516" lon="10.854605501924079"><ele>256.0</ele><time>2026-04-18T10:52:07Z</time></trkpt><trkpt lat="43.384658752207024" lon="10.854543952468184"><ele>256.0</ele><time>2026-04-18T10:52:09Z</time></trkpt><trkpt lat="43.384549713651246" lon="10.85451095218988"><ele>256.0</ele><time>2026-04-18T10:52:11Z</time></trkpt><trkpt lat="43.38445621683743" lon="10.854500979726835"><ele>254.33333333333331</ele><time>2026-04-18T10:52:13Z</time></trkpt><trkpt lat="43.38437807979152" lon="10.854497445452903"><ele>252.66666666666666</ele><time>2026-04-18T10:52:15Z</time></trkpt><trkpt lat="43.3843022280577" lon="10.854493883813511"><ele>251.0</ele><time>2026-04-18T10:52:17Z</time></trkpt><trkpt lat="43.38423858225891" lon="10.854495274923034"><ele>249.33333333333331</ele><time>2026-04-18T10:52:19Z</time></trkpt><trkpt lat="43.38417435022134" lon="10.854509115441898"><ele>247.66666666666666</ele><time>2026-04-18T10:52:22Z</time></trkpt><trkpt lat="43.384093033855166" lon="10.854573081957737"><ele>246.0</ele><time>2026-04-18T10:52:52Z</time></trkpt><trkpt lat="43.38402606885617" lon="10.854648251384788"><ele>246.00000000000003</ele><time>2026-04-18T10:52:54Z</time></trkpt><trkpt lat="43.38395599322415" lon="10.854685825412018"><ele>246.0</ele><time>2026-04-18T10:52:56Z</time></trkpt><trkpt lat="43.38388656213836" lon="10.854662468356189"><ele>246.00000000000003</ele><time>2026-04-18T10:52:59Z</time></trkpt><trkpt lat="43.38381493689552" lon="10.854606708626706"><ele>246.00000000000003</ele><time>2026-04-18T10:53:02.999Z</time></trkpt><trkpt lat="43.38380476866125" lon="10.854508037199857"><ele>246.0</ele><time>2026-04-18T10:53:03.999Z</time></trkpt><trkpt lat="43.38377421657659" lon="10.854424110944686"><ele>246.00000000000003</ele><time>2026-04-18T10:53:05.999Z</time></trkpt><trkpt lat="43.38374861381739" lon="10.854344791706268"><ele>246.00000000000003</ele><time>2026-04-18T10:53:07.999Z</time></trkpt><trkpt lat="43.38372558442109" lon="10.854260812630248"><ele>245.00000000000003</ele><time>2026-04-18T10:53:36.999Z</time></trkpt><trkpt lat="43.383765362559814" lon="10.854191170645395"><ele>244.0</ele><time>2026-04-18T10:53:43.999Z</time></trkpt><trkpt lat="43.38379324143116" lon="10.854089131529634"><ele>243.00000000000003</ele><time>2026-04-18T10:53:46.999Z</time></trkpt><trkpt lat="43.383813478494574" lon="10.853991981825036"><ele>242.00000000000003</ele><time>2026-04-18T10:53:49.999Z</time></trkpt><trkpt lat="43.38383199396147" lon="10.853908656936241"><ele>241.0</ele><time>2026-04-18T10:53:52.999Z</time></trkpt><trkpt lat="43.38380375842001" lon="10.8540159008325"><ele>240.00000000000003</ele><time>2026-04-18T10:54:06.999Z</time></trkpt><trkpt lat="43.38378197141176" lon="10.854106975125205"><ele>239.00000000000003</ele><time>2026-04-18T10:54:10.999Z</time></trkpt><trkpt lat="43.38375870530847" lon="10.854191834580648"><ele>239.00000000000003</ele><time>2026-04-18T10:54:16.999Z</time></trkpt><trkpt lat="43.38375979090764" lon="10.85428071870926"><ele>239.0</ele><time>2026-04-18T10:54:20.999Z</time></trkpt><trkpt lat="43.383723296331475" lon="10.85436035864637"><ele>239.00000000000003</ele><time>2026-04-18T10:54:27.999Z</time></trkpt><trkpt lat="43.38376343737582" lon="10.854461892458666"><ele>239.00000000000003</ele><time>2026-04-18T10:54:31.999Z</time></trkpt><trkpt lat="43.38380763939902" lon="10.854525333388255"><ele>239.0</ele><time>2026-04-18T10:54:34Z</time></trkpt><trkpt lat="43.383837759773996" lon="10.85460290851179"><ele>239.00000000000003</ele><time>2026-04-18T10:54:37Z</time></trkpt><trkpt lat="43.383796357274015" lon="10.854678711917732"><ele>239.00000000000003</ele><time>2026-04-18T10:54:41Z</time></trkpt><trkpt lat="43.38373358578485" lon="10.85476489441316"><ele>239.0</ele><time>2026-04-18T10:54:44Z</time></trkpt><trkpt lat="43.38366751272852" lon="10.854830085746553"><ele>238.99999999999997</ele><time>2026-04-18T10:54:46Z</time></trkpt><trkpt lat="43.38357030317592" lon="10.854834712288575"><ele>238.99999999999997</ele><time>2026-04-18T10:54:48Z</time></trkpt><trkpt lat="43.383470559358344" lon="10.854822437004318"><ele>239.0</ele><time>2026-04-18T10:54:50Z</time></trkpt><trkpt lat="43.38337597515242" lon="10.854826904060815"><ele>239.0</ele><time>2026-04-18T10:54:52Z</time></trkpt><trkpt lat="43.38327928587847" lon="10.854863193784203"><ele>239.00000000000003</ele><time>2026-04-18T10:54:54Z</time></trkpt><trkpt lat="43.38317484088991" lon="10.854927854582428"><ele>239.0</ele><time>2026-04-18T10:54:56Z</time></trkpt><trkpt lat="43.383110202923746" lon="10.854949697413101"><ele>239.0</ele><time>2026-04-18T10:54:57Z</time></trkpt><trkpt lat="43.38304863231357" lon="10.854994674146342"><ele>239.0</ele><time>2026-04-18T10:54:58Z</time></trkpt><trkpt lat="43.38298741032505" lon="10.855037041542019"><ele>239.00000000000003</ele><time>2026-04-18T10:54:59Z</time></trkpt><trkpt lat="43.38292740102964" lon="10.855072185609679"><ele>239.0</ele><time>2026-04-18T10:55:00Z</time></trkpt><trkpt lat="43.38286353193664" lon="10.855100369216457"><ele>237.39999999999998</ele><time>2026-04-18T10:55:01Z</time></trkpt><trkpt lat="43.382745575998456" lon="10.855103520979776"><ele>235.79999999999998</ele><time>2026-04-18T10:55:03Z</time></trkpt><trkpt lat="43.38267392451557" lon="10.855074728235419"><ele>234.20000000000002</ele><time>2026-04-18T10:55:04Z</time></trkpt><trkpt lat="43.38258885608544" lon="10.855056883357888"><ele>232.60000000000002</ele><time>2026-04-18T10:55:05Z</time></trkpt><trkpt lat="43.38250597486532" lon="10.855009344430561"><ele>231.0</ele><time>2026-04-18T10:55:06Z</time></trkpt><trkpt lat="43.38242748400849" lon="10.85494040108752"><ele>231.0</ele><time>2026-04-18T10:55:06.999Z</time></trkpt><trkpt lat="43.38233669232292" lon="10.854906060309753"><ele>231.00000000000003</ele><time>2026-04-18T10:55:07.998Z</time></trkpt><trkpt lat="43.3822470400322" lon="10.854851761573558"><ele>231.00000000000003</ele><time>2026-04-18T10:55:08.999Z</time></trkpt><trkpt lat="43.38215389967251" lon="10.854804877678603"><ele>231.0</ele><time>2026-04-18T10:55:09.999Z</time></trkpt><trkpt lat="43.3820627196417" lon="10.854753656406304"><ele>231.0</ele><time>2026-04-18T10:55:10.999Z</time></trkpt><trkpt lat="43.381975567128286" lon="10.854707591601981"><ele>230.42857142857144</ele><time>2026-04-18T10:55:11.999Z</time></trkpt><trkpt lat="43.381896862553674" lon="10.854666724533756"><ele>229.85714285714286</ele><time>2026-04-18T10:55:12.999Z</time></trkpt><trkpt lat="43.38183098971521" lon="10.854603488300842"><ele>229.28571428571428</ele><time>2026-04-18T10:55:13.999Z</time></trkpt><trkpt lat="43.381766510757146" lon="10.85456034069994"><ele>228.71428571428572</ele><time>2026-04-18T10:55:14.999Z</time></trkpt><trkpt lat="43.38171337326653" lon="10.854502328673425"><ele>228.14285714285717</ele><time>2026-04-18T10:55:15.999Z</time></trkpt><trkpt lat="43.38167322150291" lon="10.854433586597358"><ele>227.57142857142858</ele><time>2026-04-18T10:55:16.999Z</time></trkpt><trkpt lat="43.381634466918776" lon="10.854344046392507"><ele>227.0</ele><time>2026-04-18T10:55:17.999Z</time></trkpt><trkpt lat="43.38159663272326" lon="10.85424504360997"><ele>226.2</ele><time>2026-04-18T10:55:18.999Z</time></trkpt><trkpt lat="43.381539044459785" lon="10.854154175796856"><ele>225.39999999999998</ele><time>2026-04-18T10:55:19.999Z</time></trkpt><trkpt lat="43.38148963676589" lon="10.854056161988593"><ele>224.60000000000002</ele><time>2026-04-18T10:55:20.999Z</time></trkpt><trkpt lat="43.38142961354146" lon="10.853964900335981"><ele>223.8</ele><time>2026-04-18T10:55:21.999Z</time></trkpt><trkpt lat="43.381358296614046" lon="10.853881493754365"><ele>223.0</ele><time>2026-04-18T10:55:22.999Z</time></trkpt><trkpt lat="43.38127762819014" lon="10.85380389318211"><ele>222.99999999999997</ele><time>2026-04-18T10:55:23.999Z</time></trkpt><trkpt lat="43.38119395819654" lon="10.853723607914242"><ele>223.0</ele><time>2026-04-18T10:55:24.999Z</time></trkpt><trkpt lat="43.38110973601012" lon="10.853643798172493"><ele>223.0</ele><time>2026-04-18T10:55:25.999Z</time></trkpt><trkpt lat="43.38102768075563" lon="10.853570094099206"><ele>223.0</ele><time>2026-04-18T10:55:26.999Z</time></trkpt><trkpt lat="43.380966744179595" lon="10.853515452176806"><ele>222.99999999999997</ele><time>2026-04-18T10:55:27.999Z</time></trkpt><trkpt lat="43.38091030158754" lon="10.853463251209368"><ele>223.0</ele><time>2026-04-18T10:55:29.999Z</time></trkpt><trkpt lat="43.38096709898529" lon="10.853516064920273"><ele>223.0</ele><time>2026-04-18T10:55:37.999Z</time></trkpt><trkpt lat="43.381027958874824" lon="10.853571198942868"><ele>223.0</ele><time>2026-04-18T10:55:41.999Z</time></trkpt><trkpt lat="43.38108939635411" lon="10.853628527545938"><ele>223.0</ele><time>2026-04-18T10:55:45.999Z</time></trkpt><trkpt lat="43.38104780173298" lon="10.853545475582541"><ele>223.0</ele><time>2026-04-18T10:55:54.999Z</time></trkpt><trkpt lat="43.380999923966506" lon="10.853482893523008"><ele>223.0</ele><time>2026-04-18T10:55:57.999Z</time></trkpt><trkpt lat="43.38090904034357" lon="10.853435451326202"><ele>223.0</ele><time>2026-04-18T10:56:00.999Z</time></trkpt><trkpt lat="43.380854772023746" lon="10.853385519311246"><ele>223.0</ele><time>2026-04-18T10:56:02.999Z</time></trkpt><trkpt lat="43.380795132997775" lon="10.853330645708965"><ele>220.0</ele><time>2026-04-18T10:56:04.999Z</time></trkpt><trkpt lat="43.380718217990704" lon="10.85324476940233"><ele>217.0</ele><time>2026-04-18T10:56:07.999Z</time></trkpt><trkpt lat="43.380897153172235" lon="10.852554617798898"><ele>216.2</ele><time>2026-04-18T10:56:10.999Z</time></trkpt><trkpt lat="43.380848822808254" lon="10.852441485904334"><ele>215.39999999999998</ele><time>2026-04-18T10:56:12.999Z</time></trkpt><trkpt lat="43.38079732056235" lon="10.852319887361057"><ele>214.60000000000002</ele><time>2026-04-18T10:56:14.999Z</time></trkpt><trkpt lat="43.380742275420225" lon="10.852198483489959"><ele>213.8</ele><time>2026-04-18T10:56:16.999Z</time></trkpt><trkpt lat="43.380684396690214" lon="10.85206966067416"><ele>213.0</ele><time>2026-04-18T10:56:18.999Z</time></trkpt><trkpt lat="43.38062141495164" lon="10.851936318610775"><ele>212.16666666666666</ele><time>2026-04-18T10:56:20.999Z</time></trkpt><trkpt lat="43.3805508579601" lon="10.851790045655074"><ele>211.33333333333331</ele><time>2026-04-18T10:56:22.999Z</time></trkpt><trkpt lat="43.38051585228032" lon="10.851714848970719"><ele>210.5</ele><time>2026-04-18T10:56:23.999Z</time></trkpt><trkpt lat="43.3804803597606" lon="10.851636840904199"><ele>209.66666666666666</ele><time>2026-04-18T10:56:24.999Z</time></trkpt><trkpt lat="43.38044543643019" lon="10.851558097126393"><ele>208.83333333333331</ele><time>2026-04-18T10:56:25.999Z</time></trkpt><trkpt lat="43.38041240716195" lon="10.851478340203384"><ele>208.0</ele><time>2026-04-18T10:56:26.999Z</time></trkpt><trkpt lat="43.38036907319465" lon="10.851336903779845"><ele>207.66666666666666</ele><time>2026-04-18T10:56:28.999Z</time></trkpt><trkpt lat="43.38034808892655" lon="10.851236914146794"><ele>207.33333333333331</ele><time>2026-04-18T10:56:30.999Z</time></trkpt><trkpt lat="43.3803292508688" lon="10.85113914181702"><ele>207.0</ele><time>2026-04-18T10:56:34.999Z</time></trkpt><trkpt lat="43.3803118168763" lon="10.851054093165645"><ele>206.66666666666669</ele><time>2026-04-18T10:56:46Z</time></trkpt><trkpt lat="43.38029177359522" lon="10.850939997275127"><ele>206.33333333333334</ele><time>2026-04-18T10:56:52Z</time></trkpt><trkpt lat="43.38028308718051" lon="10.850827533195467"><ele>206.0</ele><time>2026-04-18T10:56:56Z</time></trkpt><trkpt lat="43.38028029078276" lon="10.850703526818892"><ele>205.42857142857142</ele><time>2026-04-18T10:56:59Z</time></trkpt><trkpt lat="43.380266433894704" lon="10.85060356695521"><ele>204.85714285714286</ele><time>2026-04-18T10:57:02Z</time></trkpt><trkpt lat="43.38025488031367" lon="10.850515668268631"><ele>204.28571428571428</ele><time>2026-04-18T10:57:05Z</time></trkpt><trkpt lat="43.38023322374294" lon="10.850433268778442"><ele>203.71428571428572</ele><time>2026-04-18T10:57:07Z</time></trkpt><trkpt lat="43.38018086313603" lon="10.850352140493415"><ele>203.14285714285714</ele><time>2026-04-18T10:57:11Z</time></trkpt><trkpt lat="43.3801382414351" lon="10.850259829051854"><ele>202.57142857142856</ele><time>2026-04-18T10:57:15.998Z</time></trkpt><trkpt lat="43.38009470199042" lon="10.850168827645664"><ele>202.0</ele><time>2026-04-18T10:57:19.998Z</time></trkpt><trkpt lat="43.3800468849822" lon="10.850057586668367"><ele>200.66666666666666</ele><time>2026-04-18T10:57:22.998Z</time></trkpt><trkpt lat="43.38002479196112" lon="10.849956331504531"><ele>199.33333333333331</ele><time>2026-04-18T10:57:24.998Z</time></trkpt><trkpt lat="43.380014297344594" lon="10.84984670008607"><ele>198.0</ele><time>2026-04-18T10:57:27.998Z</time></trkpt><trkpt lat="43.37999962201971" lon="10.849739353804036"><ele>196.66666666666669</ele><time>2026-04-18T10:57:29.998Z</time></trkpt><trkpt lat="43.379987015658244" lon="10.849639882582371"><ele>195.33333333333334</ele><time>2026-04-18T10:57:31.999Z</time></trkpt><trkpt lat="43.37997067227153" lon="10.849534106959748"><ele>194.0</ele><time>2026-04-18T10:57:33.999Z</time></trkpt><trkpt lat="43.379953633583476" lon="10.849441480916342"><ele>194.00000000000003</ele><time>2026-04-18T10:57:35.999Z</time></trkpt><trkpt lat="43.379908077587615" lon="10.849325670933675"><ele>194.0</ele><time>2026-04-18T10:57:38.999Z</time></trkpt><trkpt lat="43.37986718289158" lon="10.849236401736142"><ele>194.0</ele><time>2026-04-18T10:57:40.999Z</time></trkpt><trkpt lat="43.37982461293425" lon="10.849147597307653"><ele>194.0</ele><time>2026-04-18T10:57:43.999Z</time></trkpt><trkpt lat="43.37976158383526" lon="10.849050224369394"><ele>194.00000000000003</ele><time>2026-04-18T10:57:46.999Z</time></trkpt><trkpt lat="43.37970614279113" lon="10.8489587620673"><ele>194.0</ele><time>2026-04-18T10:57:48.999Z</time></trkpt><trkpt lat="43.37964045104243" lon="10.848866051418243"><ele>191.2</ele><time>2026-04-18T10:57:50.999Z</time></trkpt><trkpt lat="43.37957320882016" lon="10.848767624895233"><ele>188.39999999999998</ele><time>2026-04-18T10:57:52.999Z</time></trkpt><trkpt lat="43.37948683544817" lon="10.848675335171707"><ele>185.6</ele><time>2026-04-18T10:57:54.999Z</time></trkpt><trkpt lat="43.3793912176316" lon="10.848589006603023"><ele>182.8</ele><time>2026-04-18T10:57:56.999Z</time></trkpt><trkpt lat="43.379302658737295" lon="10.848511085026722"><ele>180.0</ele><time>2026-04-18T10:57:58.999Z</time></trkpt><trkpt lat="43.3792267563253" lon="10.848420217479736"><ele>180.0</ele><time>2026-04-18T10:58:00.999Z</time></trkpt><trkpt lat="43.37915528931467" lon="10.848318630143824"><ele>180.0</ele><time>2026-04-18T10:58:02.999Z</time></trkpt><trkpt lat="43.37909568952516" lon="10.848190786165194"><ele>180.0</ele><time>2026-04-18T10:58:04.999Z</time></trkpt><trkpt lat="43.379048190184776" lon="10.848041697586423"><ele>180.0</ele><time>2026-04-18T10:58:06.999Z</time></trkpt><trkpt lat="43.3790267484256" lon="10.847887285896824"><ele>180.0</ele><time>2026-04-18T10:58:08.999Z</time></trkpt><trkpt lat="43.37901284132383" lon="10.847726412702649"><ele>180.4</ele><time>2026-04-18T10:58:10.999Z</time></trkpt><trkpt lat="43.378980395573656" lon="10.847574691538243"><ele>180.8</ele><time>2026-04-18T10:58:12.999Z</time></trkpt><trkpt lat="43.37893605808314" lon="10.847451962742278"><ele>181.2</ele><time>2026-04-18T10:58:14.999Z</time></trkpt><trkpt lat="43.37890608506507" lon="10.84733576210431"><ele>181.6</ele><time>2026-04-18T10:58:16.999Z</time></trkpt><trkpt lat="43.37887771224677" lon="10.847202227679565"><ele>182.0</ele><time>2026-04-18T10:58:18.999Z</time></trkpt><trkpt lat="43.3788501449819" lon="10.847039324040058"><ele>180.6</ele><time>2026-04-18T10:58:20.999Z</time></trkpt><trkpt lat="43.37882987384435" lon="10.846863209636581"><ele>179.2</ele><time>2026-04-18T10:58:22.999Z</time></trkpt><trkpt lat="43.37881101118749" lon="10.846776695625772"><ele>177.8</ele><time>2026-04-18T10:58:23.999Z</time></trkpt><trkpt lat="43.378786261813524" lon="10.846691712668193"><ele>176.4</ele><time>2026-04-18T10:58:24.999Z</time></trkpt><trkpt lat="43.37873018640095" lon="10.846538002102264"><ele>175.0</ele><time>2026-04-18T10:58:26.999Z</time></trkpt><trkpt lat="43.37869465583161" lon="10.846455482310345"><ele>175.0</ele><time>2026-04-18T10:58:27.999Z</time></trkpt><trkpt lat="43.37865774506921" lon="10.846372777510393"><ele>175.0</ele><time>2026-04-18T10:58:28.999Z</time></trkpt><trkpt lat="43.378622634301344" lon="10.846284635760853"><ele>175.0</ele><time>2026-04-18T10:58:29.999Z</time></trkpt><trkpt lat="43.378579918944666" lon="10.846194323458331"><ele>175.0</ele><time>2026-04-18T10:58:30.999Z</time></trkpt><trkpt lat="43.37854009517519" lon="10.846102332526668"><ele>175.0</ele><time>2026-04-18T10:58:31.999Z</time></trkpt><trkpt lat="43.37849969127007" lon="10.846005880139682"><ele>175.0</ele><time>2026-04-18T10:58:32.999Z</time></trkpt><trkpt lat="43.3784657451347" lon="10.84590896307519"><ele>175.5</ele><time>2026-04-18T10:58:33.999Z</time></trkpt><trkpt lat="43.37843606342783" lon="10.84581111624457"><ele>176.0</ele><time>2026-04-18T10:58:34.999Z</time></trkpt><trkpt lat="43.378403161410354" lon="10.845716713350393"><ele>176.5</ele><time>2026-04-18T10:58:35.999Z</time></trkpt><trkpt lat="43.37836949357232" lon="10.845625603637895"><ele>177.0</ele><time>2026-04-18T10:58:36.999Z</time></trkpt><trkpt lat="43.378332351953425" lon="10.845534560836866"><ele>177.5</ele><time>2026-04-18T10:58:38Z</time></trkpt><trkpt lat="43.37830504336954" lon="10.845435253022274"><ele>178.0</ele><time>2026-04-18T10:58:39Z</time></trkpt><trkpt lat="43.37828453253275" lon="10.845328290101996"><ele>178.0</ele><time>2026-04-18T10:58:40Z</time></trkpt><trkpt lat="43.3782595366023" lon="10.845223444240085"><ele>178.0</ele><time>2026-04-18T10:58:41Z</time></trkpt><trkpt lat="43.37822469720267" lon="10.845127165427588"><ele>178.0</ele><time>2026-04-18T10:58:42Z</time></trkpt><trkpt lat="43.378184044550224" lon="10.845049337825387"><ele>178.0</ele><time>2026-04-18T10:58:43Z</time></trkpt><trkpt lat="43.37813880634918" lon="10.84498560734697"><ele>178.0</ele><time>2026-04-18T10:58:44Z</time></trkpt><trkpt lat="43.37805432787498" lon="10.844863915383865"><ele>178.0</ele><time>2026-04-18T10:58:46Z</time></trkpt><trkpt lat="43.378009837718466" lon="10.844801122972129"><ele>176.83333333333334</ele><time>2026-04-18T10:58:47Z</time></trkpt><trkpt lat="43.37796412955681" lon="10.844730350793986"><ele>175.66666666666669</ele><time>2026-04-18T10:58:48Z</time></trkpt><trkpt lat="43.377919205377246" lon="10.844647619955722"><ele>174.5</ele><time>2026-04-18T10:58:49Z</time></trkpt><trkpt lat="43.37787410619853" lon="10.844563610987365"><ele>173.33333333333334</ele><time>2026-04-18T10:58:50Z</time></trkpt><trkpt lat="43.37782908062787" lon="10.844484835438905"><ele>172.16666666666666</ele><time>2026-04-18T10:58:51Z</time></trkpt><trkpt lat="43.37778799733604" lon="10.844414143158595"><ele>171.0</ele><time>2026-04-18T10:58:52Z</time></trkpt><trkpt lat="43.37772874192757" lon="10.844307340142628"><ele>172.0</ele><time>2026-04-18T10:58:54Z</time></trkpt><trkpt lat="43.37769085503367" lon="10.844197121746351"><ele>173.0</ele><time>2026-04-18T10:58:56Z</time></trkpt><trkpt lat="43.37767610858544" lon="10.844095518103222"><ele>174.0</ele><time>2026-04-18T10:58:58Z</time></trkpt><trkpt lat="43.3776635896121" lon="10.843994449301267"><ele>175.0</ele><time>2026-04-18T10:59:00Z</time></trkpt><trkpt lat="43.37765750324739" lon="10.843895520912909"><ele>176.0</ele><time>2026-04-18T10:59:02Z</time></trkpt><trkpt lat="43.37764834032213" lon="10.843785929501841"><ele>177.0</ele><time>2026-04-18T10:59:04Z</time></trkpt><trkpt lat="43.37763149163338" lon="10.843675289200164"><ele>177.0</ele><time>2026-04-18T10:59:06Z</time></trkpt><trkpt lat="43.377613183773846" lon="10.843575662998065"><ele>177.0</ele><time>2026-04-18T10:59:08Z</time></trkpt><trkpt lat="43.37759537547131" lon="10.843489416862923"><ele>177.0</ele><time>2026-04-18T10:59:10Z</time></trkpt><trkpt lat="43.37756083172765" lon="10.843368863091484"><ele>177.0</ele><time>2026-04-18T10:59:13Z</time></trkpt><trkpt lat="43.37753789166934" lon="10.84327296496663"><ele>177.0</ele><time>2026-04-18T10:59:15Z</time></trkpt><trkpt lat="43.3775116816049" lon="10.84315060030395"><ele>177.0</ele><time>2026-04-18T10:59:18Z</time></trkpt><trkpt lat="43.377482805119755" lon="10.843053473849325"><ele>177.0</ele><time>2026-04-18T10:59:19.997Z</time></trkpt><trkpt lat="43.377446897478855" lon="10.842954696379081"><ele>177.0</ele><time>2026-04-18T10:59:21.997Z</time></trkpt><trkpt lat="43.37740669039882" lon="10.84285292548195"><ele>177.0</ele><time>2026-04-18T10:59:23.997Z</time></trkpt><trkpt lat="43.37735510104958" lon="10.842743133565795"><ele>177.0</ele><time>2026-04-18T10:59:25.997Z</time></trkpt><trkpt lat="43.3772901848845" lon="10.842626928669338"><ele>177.0</ele><time>2026-04-18T10:59:27.997Z</time></trkpt><trkpt lat="43.37722388671146" lon="10.84252114906743"><ele>175.39999999999998</ele><time>2026-04-18T10:59:29.997Z</time></trkpt><trkpt lat="43.377145281730236" lon="10.842401141377811"><ele>173.79999999999998</ele><time>2026-04-18T10:59:31.997Z</time></trkpt><trkpt lat="43.37705997005341" lon="10.842293529766872"><ele>172.2</ele><time>2026-04-18T10:59:33.997Z</time></trkpt><trkpt lat="43.376992741812685" lon="10.842205925989672"><ele>170.6</ele><time>2026-04-18T10:59:35.997Z</time></trkpt><trkpt lat="43.376922637877264" lon="10.842108445529497"><ele>169.0</ele><time>2026-04-18T10:59:37.998Z</time></trkpt><trkpt lat="43.376844385307976" lon="10.84201540024294"><ele>169.0</ele><time>2026-04-18T10:59:39.998Z</time></trkpt><trkpt lat="43.376771551518374" lon="10.841933792588653"><ele>169.0</ele><time>2026-04-18T10:59:41.998Z</time></trkpt><trkpt lat="43.376696907174676" lon="10.841858628244914"><ele>169.0</ele><time>2026-04-18T10:59:43.998Z</time></trkpt><trkpt lat="43.37663788492845" lon="10.841778950399979"><ele>169.0</ele><time>2026-04-18T10:59:45.998Z</time></trkpt><trkpt lat="43.376593796107" lon="10.841670396787297"><ele>169.0</ele><time>2026-04-18T10:59:47.998Z</time></trkpt><trkpt lat="43.37655033326643" lon="10.841543882301771"><ele>168.0</ele><time>2026-04-18T10:59:49.998Z</time></trkpt><trkpt lat="43.37650772875511" lon="10.841444750961958"><ele>167.0</ele><time>2026-04-18T10:59:51.998Z</time></trkpt><trkpt lat="43.3764598389312" lon="10.84135660817152"><ele>166.0</ele><time>2026-04-18T10:59:53.998Z</time></trkpt><trkpt lat="43.37641833863241" lon="10.841257882889657"><ele>165.0</ele><time>2026-04-18T10:59:55.998Z</time></trkpt><trkpt lat="43.37634267918843" lon="10.841138219136191"><ele>164.0</ele><time>2026-04-18T10:59:57.998Z</time></trkpt><trkpt lat="43.37625815995169" lon="10.841033544901581"><ele>163.2</ele><time>2026-04-18T10:59:59.998Z</time></trkpt><trkpt lat="43.37617529647271" lon="10.8409228400235"><ele>162.39999999999998</ele><time>2026-04-18T11:00:01.998Z</time></trkpt><trkpt lat="43.37612817114" lon="10.840864325510921"><ele>161.6</ele><time>2026-04-18T11:00:02.998Z</time></trkpt><trkpt lat="43.37603307828767" lon="10.840749708209255"><ele>160.8</ele><time>2026-04-18T11:00:04.998Z</time></trkpt><trkpt lat="43.375939022517116" lon="10.840629633638223"><ele>160.0</ele><time>2026-04-18T11:00:06.999Z</time></trkpt><trkpt lat="43.375892308526595" lon="10.84056641084908"><ele>160.0</ele><time>2026-04-18T11:00:07.999Z</time></trkpt><trkpt lat="43.37584236623881" lon="10.840498088067902"><ele>160.0</ele><time>2026-04-18T11:00:08.999Z</time></trkpt><trkpt lat="43.375795405426004" lon="10.840428584536953"><ele>160.0</ele><time>2026-04-18T11:00:09.999Z</time></trkpt><trkpt lat="43.37575138976128" lon="10.840361099428069"><ele>160.0</ele><time>2026-04-18T11:00:10.999Z</time></trkpt><trkpt lat="43.375666731066445" lon="10.840238516157791"><ele>160.0</ele><time>2026-04-18T11:00:12.999Z</time></trkpt><trkpt lat="43.375594360031776" lon="10.84012379147181"><ele>160.0</ele><time>2026-04-18T11:00:14.999Z</time></trkpt><trkpt lat="43.37554336889771" lon="10.840031438187296"><ele>159.66666666666669</ele><time>2026-04-18T11:00:16.999Z</time></trkpt><trkpt lat="43.375523864465606" lon="10.839947140323442"><ele>159.33333333333334</ele><time>2026-04-18T11:00:21.999Z</time></trkpt><trkpt lat="43.37555453063608" lon="10.839842580511414"><ele>159.0</ele><time>2026-04-18T11:01:58.999Z</time></trkpt><trkpt lat="43.37557821831198" lon="10.839734324254511"><ele>158.66666666666666</ele><time>2026-04-18T11:02:02Z</time></trkpt><trkpt lat="43.37557293430183" lon="10.839624244870024"><ele>158.33333333333331</ele><time>2026-04-18T11:02:04Z</time></trkpt><trkpt lat="43.37555568424622" lon="10.839491443919561"><ele>158.0</ele><time>2026-04-18T11:02:06Z</time></trkpt><trkpt lat="43.37552896773044" lon="10.839355986301427"><ele>157.66666666666666</ele><time>2026-04-18T11:02:08Z</time></trkpt><trkpt lat="43.37547420929081" lon="10.839237223695836"><ele>157.33333333333331</ele><time>2026-04-18T11:02:10Z</time></trkpt><trkpt lat="43.37549251514025" lon="10.839151993412566"><ele>157.0</ele><time>2026-04-18T11:02:11Z</time></trkpt><trkpt lat="43.37548398399396" lon="10.83901771245998"><ele>156.66666666666666</ele><time>2026-04-18T11:02:13Z</time></trkpt><trkpt lat="43.375467935928704" lon="10.838896053441335"><ele>156.33333333333334</ele><time>2026-04-18T11:02:15Z</time></trkpt><trkpt lat="43.37544461514005" lon="10.838782685571383"><ele>156.0</ele><time>2026-04-18T11:02:17Z</time></trkpt><trkpt lat="43.37543849668438" lon="10.838689585255961"><ele>156.0</ele><time>2026-04-18T11:02:18Z</time></trkpt><trkpt lat="43.37544809774002" lon="10.838581375685104"><ele>156.0</ele><time>2026-04-18T11:02:19Z</time></trkpt><trkpt lat="43.375473164819724" lon="10.838488632589527"><ele>156.0</ele><time>2026-04-18T11:02:20Z</time></trkpt><trkpt lat="43.375505529276005" lon="10.838388762318472"><ele>156.0</ele><time>2026-04-18T11:02:22Z</time></trkpt><trkpt lat="43.37554479067604" lon="10.838280957706687"><ele>156.0</ele><time>2026-04-18T11:02:25Z</time></trkpt><trkpt lat="43.37559239714638" lon="10.83817680365531"><ele>156.0</ele><time>2026-04-18T11:02:27Z</time></trkpt><trkpt lat="43.37564243870682" lon="10.83807733831141"><ele>155.4</ele><time>2026-04-18T11:02:29Z</time></trkpt><trkpt lat="43.37571256989454" lon="10.838037739301308"><ele>154.8</ele><time>2026-04-18T11:02:30Z</time></trkpt><trkpt lat="43.37580297444491" lon="10.837995269029427"><ele>154.20000000000002</ele><time>2026-04-18T11:02:32Z</time></trkpt><trkpt lat="43.37588424742929" lon="10.8379729528609"><ele>153.6</ele><time>2026-04-18T11:02:34Z</time></trkpt><trkpt lat="43.375986824733204" lon="10.837978584004615"><ele>153.0</ele><time>2026-04-18T11:02:36Z</time></trkpt><trkpt lat="43.37608518914858" lon="10.837996497075991"><ele>153.0</ele><time>2026-04-18T11:02:38Z</time></trkpt><trkpt lat="43.37619144967053" lon="10.838015884730911"><ele>153.0</ele><time>2026-04-18T11:02:40Z</time></trkpt><trkpt lat="43.37629499490127" lon="10.83802875459572"><ele>153.0</ele><time>2026-04-18T11:02:42Z</time></trkpt><trkpt lat="43.37639317665574" lon="10.838030826959214"><ele>153.0</ele><time>2026-04-18T11:02:44Z</time></trkpt><trkpt lat="43.376494697251324" lon="10.838025013433187"><ele>153.0</ele><time>2026-04-18T11:02:46Z</time></trkpt><trkpt lat="43.376575029564954" lon="10.838024126967438"><ele>150.66666666666666</ele><time>2026-04-18T11:02:48.001Z</time></trkpt><trkpt lat="43.37664002008852" lon="10.838026651962045"><ele>148.33333333333334</ele><time>2026-04-18T11:02:51.001Z</time></trkpt><trkpt lat="43.376724103619026" lon="10.838029527718417"><ele>146.0</ele><time>2026-04-18T11:02:54.001Z</time></trkpt><trkpt lat="43.376787311290194" lon="10.838032168220916"><ele>143.66666666666669</ele><time>2026-04-18T11:02:57.001Z</time></trkpt><trkpt lat="43.376881576726895" lon="10.838037159116634"><ele>141.33333333333334</ele><time>2026-04-18T11:03:01.001Z</time></trkpt><trkpt lat="43.376950960379816" lon="10.838039513301842"><ele>139.0</ele><time>2026-04-18T11:03:03.001Z</time></trkpt><trkpt lat="43.37703056291316" lon="10.838040963556407"><ele>139.0</ele><time>2026-04-18T11:03:05.001Z</time></trkpt><trkpt lat="43.377108439620294" lon="10.838040308416824"><ele>139.0</ele><time>2026-04-18T11:03:07.001Z</time></trkpt><trkpt lat="43.37719591346961" lon="10.838027825244462"><ele>139.0</ele><time>2026-04-18T11:03:09.001Z</time></trkpt><trkpt lat="43.377286379621545" lon="10.837995132525805"><ele>139.0</ele><time>2026-04-18T11:03:11.001Z</time></trkpt><trkpt lat="43.37735803231075" lon="10.83794145302598"><ele>139.0</ele><time>2026-04-18T11:03:13.001Z</time></trkpt><trkpt lat="43.377423724333696" lon="10.837868238365983"><ele>139.0</ele><time>2026-04-18T11:03:15.001Z</time></trkpt><trkpt lat="43.37747986469462" lon="10.83781134210324"><ele>137.16666666666669</ele><time>2026-04-18T11:03:19.001Z</time></trkpt><trkpt lat="43.377524181662885" lon="10.83769172795154"><ele>135.33333333333334</ele><time>2026-04-18T11:03:22.001Z</time></trkpt><trkpt lat="43.377585013807675" lon="10.837574727248672"><ele>133.5</ele><time>2026-04-18T11:03:24.001Z</time></trkpt><trkpt lat="43.377628328169756" lon="10.837470523435753"><ele>131.66666666666666</ele><time>2026-04-18T11:03:26.001Z</time></trkpt><trkpt lat="43.37770867632083" lon="10.837470665862213"><ele>129.83333333333331</ele><time>2026-04-18T11:03:29.001Z</time></trkpt><trkpt lat="43.37777300003115" lon="10.837438442138819"><ele>128.0</ele><time>2026-04-18T11:03:30.999Z</time></trkpt><trkpt lat="43.37786436364557" lon="10.837409777153434"><ele>128.0</ele><time>2026-04-18T11:03:32.999Z</time></trkpt><trkpt lat="43.37796431501725" lon="10.837348774113028"><ele>128.0</ele><time>2026-04-18T11:03:34.999Z</time></trkpt><trkpt lat="43.378073261513435" lon="10.837306346707466"><ele>128.0</ele><time>2026-04-18T11:03:36.999Z</time></trkpt><trkpt lat="43.378181351038364" lon="10.837278757891788"><ele>128.0</ele><time>2026-04-18T11:03:38.999Z</time></trkpt><trkpt lat="43.37826930783068" lon="10.837263155977638"><ele>128.0</ele><time>2026-04-18T11:03:40.999Z</time></trkpt><trkpt lat="43.37829360453794" lon="10.83706251683057"><ele>127.49999999999999</ele><time>2026-04-18T11:03:42.999Z</time></trkpt><trkpt lat="43.37829699992095" lon="10.836972921672844"><ele>127.0</ele><time>2026-04-18T11:03:44Z</time></trkpt><trkpt lat="43.37830050924091" lon="10.836871476995245"><ele>126.5</ele><time>2026-04-18T11:03:45Z</time></trkpt><trkpt lat="43.378304433004146" lon="10.836758051951893"><ele>126.0</ele><time>2026-04-18T11:03:46Z</time></trkpt><trkpt lat="43.37830624487006" lon="10.836642430085071"><ele>125.49999999999999</ele><time>2026-04-18T11:03:47Z</time></trkpt><trkpt lat="43.37830569979969" lon="10.836528778979853"><ele>125.0</ele><time>2026-04-18T11:03:48Z</time></trkpt><trkpt lat="43.37830184203114" lon="10.836415243532564"><ele>125.0</ele><time>2026-04-18T11:03:49Z</time></trkpt><trkpt lat="43.378292890333654" lon="10.836297626362201"><ele>125.0</ele><time>2026-04-18T11:03:50Z</time></trkpt><trkpt lat="43.37828167822213" lon="10.836174488263701"><ele>125.0</ele><time>2026-04-18T11:03:51Z</time></trkpt><trkpt lat="43.3782697102366" lon="10.836047903798613"><ele>125.0</ele><time>2026-04-18T11:03:52Z</time></trkpt><trkpt lat="43.37825651483137" lon="10.835915733155552"><ele>125.0</ele><time>2026-04-18T11:03:53Z</time></trkpt><trkpt lat="43.37823715255107" lon="10.835779587129236"><ele>125.2</ele><time>2026-04-18T11:03:54Z</time></trkpt><trkpt lat="43.378211136544735" lon="10.835641286998442"><ele>125.4</ele><time>2026-04-18T11:03:55Z</time></trkpt><trkpt lat="43.37818061021452" lon="10.835501162115365"><ele>125.6</ele><time>2026-04-18T11:03:56Z</time></trkpt><trkpt lat="43.37814840552293" lon="10.835361738627004"><ele>125.8</ele><time>2026-04-18T11:03:57Z</time></trkpt><trkpt lat="43.37811594986372" lon="10.83522122863081"><ele>126.0</ele><time>2026-04-18T11:03:58Z</time></trkpt><trkpt lat="43.37808429827024" lon="10.835085521434033"><ele>126.4</ele><time>2026-04-18T11:03:59Z</time></trkpt><trkpt lat="43.37804887029086" lon="10.834947766084007"><ele>126.8</ele><time>2026-04-18T11:04:00Z</time></trkpt><trkpt lat="43.378003696214336" lon="10.834809872755713"><ele>127.20000000000002</ele><time>2026-04-18T11:04:01Z</time></trkpt><trkpt lat="43.377952372503024" lon="10.83467322751383"><ele>127.60000000000001</ele><time>2026-04-18T11:04:02Z</time></trkpt><trkpt lat="43.37789746275097" lon="10.834541961263595"><ele>128.0</ele><time>2026-04-18T11:04:03Z</time></trkpt><trkpt lat="43.37784323164563" lon="10.83442186514214"><ele>126.80000000000001</ele><time>2026-04-18T11:04:04Z</time></trkpt><trkpt lat="43.37779057870015" lon="10.834317351746328"><ele>125.60000000000001</ele><time>2026-04-18T11:04:05Z</time></trkpt><trkpt lat="43.37772244199437" lon="10.834231435980694"><ele>124.39999999999999</ele><time>2026-04-18T11:04:06Z</time></trkpt><trkpt lat="43.377663597676545" lon="10.834125269103668"><ele>123.19999999999999</ele><time>2026-04-18T11:04:07Z</time></trkpt><trkpt lat="43.37761360758219" lon="10.834004667988914"><ele>122.0</ele><time>2026-04-18T11:04:08Z</time></trkpt><trkpt lat="43.377546559710964" lon="10.833892012288484"><ele>122.0</ele><time>2026-04-18T11:04:09Z</time></trkpt><trkpt lat="43.37747459204051" lon="10.833775832817157"><ele>121.99999999999999</ele><time>2026-04-18T11:04:10Z</time></trkpt><trkpt lat="43.37740044725855" lon="10.833666137554738"><ele>121.99999999999999</ele><time>2026-04-18T11:04:11Z</time></trkpt><trkpt lat="43.37732858500603" lon="10.833567040023935"><ele>122.0</ele><time>2026-04-18T11:04:12Z</time></trkpt><trkpt lat="43.377260555279534" lon="10.833482155794298"><ele>122.0</ele><time>2026-04-18T11:04:13Z</time></trkpt><trkpt lat="43.37719204088706" lon="10.833401727448194"><ele>120.99999999999999</ele><time>2026-04-18T11:04:14Z</time></trkpt><trkpt lat="43.377123049309745" lon="10.833325142018376"><ele>120.0</ele><time>2026-04-18T11:04:15.001Z</time></trkpt><trkpt lat="43.37705163953817" lon="10.833250775319103"><ele>119.0</ele><time>2026-04-18T11:04:16.001Z</time></trkpt><trkpt lat="43.376972496668834" lon="10.833196591745976"><ele>118.0</ele><time>2026-04-18T11:04:17.001Z</time></trkpt><trkpt lat="43.3769011774542" lon="10.833126309787737"><ele>116.99999999999999</ele><time>2026-04-18T11:04:18.001Z</time></trkpt><trkpt lat="43.37683308028858" lon="10.83305300835979"><ele>116.0</ele><time>2026-04-18T11:04:19.001Z</time></trkpt><trkpt lat="43.376761084158424" lon="10.83298490218161"><ele>116.0</ele><time>2026-04-18T11:04:20.001Z</time></trkpt><trkpt lat="43.376685616063895" lon="10.832918962375281"><ele>116.0</ele><time>2026-04-18T11:04:21.001Z</time></trkpt><trkpt lat="43.37660650342947" lon="10.832856983720852"><ele>116.0</ele><time>2026-04-18T11:04:22.001Z</time></trkpt><trkpt lat="43.37652638022971" lon="10.832794204121425"><ele>116.0</ele><time>2026-04-18T11:04:23.001Z</time></trkpt><trkpt lat="43.37644520801232" lon="10.832732953155068"><ele>116.0</ele><time>2026-04-18T11:04:24.001Z</time></trkpt><trkpt lat="43.37636145376346" lon="10.832670699094464"><ele>116.19999999999999</ele><time>2026-04-18T11:04:25.001Z</time></trkpt><trkpt lat="43.37627836720021" lon="10.83260629487239"><ele>116.39999999999999</ele><time>2026-04-18T11:04:26.001Z</time></trkpt><trkpt lat="43.376196204840596" lon="10.832539952077607"><ele>116.6</ele><time>2026-04-18T11:04:27.001Z</time></trkpt><trkpt lat="43.37611481282523" lon="10.832475054287935"><ele>116.8</ele><time>2026-04-18T11:04:28.001Z</time></trkpt><trkpt lat="43.37603319771718" lon="10.832411660874333"><ele>117.0</ele><time>2026-04-18T11:04:29.001Z</time></trkpt><trkpt lat="43.37595091693422" lon="10.832349303862472"><ele>117.0</ele><time>2026-04-18T11:04:30.001Z</time></trkpt><trkpt lat="43.37586916128561" lon="10.83228999912657"><ele>116.99999999999999</ele><time>2026-04-18T11:04:31.001Z</time></trkpt><trkpt lat="43.375791834534546" lon="10.83222612938747"><ele>116.99999999999999</ele><time>2026-04-18T11:04:32.001Z</time></trkpt><trkpt lat="43.37571021121149" lon="10.832169595702334"><ele>117.0</ele><time>2026-04-18T11:04:33.001Z</time></trkpt><trkpt lat="43.37562742083264" lon="10.832118712780101"><ele>117.0</ele><time>2026-04-18T11:04:34.001Z</time></trkpt><trkpt lat="43.37554317124614" lon="10.832072100401177"><ele>116.16666666666667</ele><time>2026-04-18T11:04:35.001Z</time></trkpt><trkpt lat="43.37545833666747" lon="10.832031298466644"><ele>115.33333333333334</ele><time>2026-04-18T11:04:36.001Z</time></trkpt><trkpt lat="43.375372285087295" lon="10.83199745555882"><ele>114.5</ele><time>2026-04-18T11:04:37.001Z</time></trkpt><trkpt lat="43.37528591070512" lon="10.83196657267324"><ele>113.66666666666667</ele><time>2026-04-18T11:04:38.001Z</time></trkpt><trkpt lat="43.375201962409925" lon="10.831937512339861"><ele>112.83333333333334</ele><time>2026-04-18T11:04:39.001Z</time></trkpt><trkpt lat="43.37511742338164" lon="10.83190918798189"><ele>112.0</ele><time>2026-04-18T11:04:40.001Z</time></trkpt><trkpt lat="43.375033015050064" lon="10.831883606445574"><ele>112.00000000000001</ele><time>2026-04-18T11:04:41.001Z</time></trkpt><trkpt lat="43.37494834329074" lon="10.831862904117422"><ele>112.0</ele><time>2026-04-18T11:04:42.001Z</time></trkpt><trkpt lat="43.37486273893234" lon="10.831846343808925"><ele>112.0</ele><time>2026-04-18T11:04:43.001Z</time></trkpt><trkpt lat="43.374778216864875" lon="10.831834627187572"><ele>112.0</ele><time>2026-04-18T11:04:44.001Z</time></trkpt><trkpt lat="43.37469386869324" lon="10.831830285010867"><ele>112.00000000000001</ele><time>2026-04-18T11:04:45.001Z</time></trkpt><trkpt lat="43.37460961053846" lon="10.831831112049688"><ele>112.0</ele><time>2026-04-18T11:04:46.001Z</time></trkpt><trkpt lat="43.37452321628282" lon="10.831833844401158"><ele>111.66666666666667</ele><time>2026-04-18T11:04:47.001Z</time></trkpt><trkpt lat="43.37444216262051" lon="10.8318366205745"><ele>111.33333333333334</ele><time>2026-04-18T11:04:48.001Z</time></trkpt><trkpt lat="43.3743590160393" lon="10.831842763352148"><ele>111.0</ele><time>2026-04-18T11:04:49.001Z</time></trkpt><trkpt lat="43.37427649279336" lon="10.831853515329586"><ele>110.66666666666666</ele><time>2026-04-18T11:04:50.001Z</time></trkpt><trkpt lat="43.3741935879742" lon="10.83186821680978"><ele>110.33333333333333</ele><time>2026-04-18T11:04:51.001Z</time></trkpt><trkpt lat="43.374108027445935" lon="10.831885573194057"><ele>110.0</ele><time>2026-04-18T11:04:52.001Z</time></trkpt><trkpt lat="43.37402131924512" lon="10.83190875904339"><ele>110.0</ele><time>2026-04-18T11:04:53.001Z</time></trkpt><trkpt lat="43.37393298819564" lon="10.831935333109122"><ele>110.0</ele><time>2026-04-18T11:04:54.001Z</time></trkpt><trkpt lat="43.3738426484368" lon="10.831960122154085"><ele>110.0</ele><time>2026-04-18T11:04:55.001Z</time></trkpt><trkpt lat="43.373751749971156" lon="10.83198725666174"><ele>110.0</ele><time>2026-04-18T11:04:56.001Z</time></trkpt><trkpt lat="43.373659421023206" lon="10.832014118322208"><ele>110.0</ele><time>2026-04-18T11:04:57.001Z</time></trkpt><trkpt lat="43.37356253310334" lon="10.832045212950138"><ele>109.8</ele><time>2026-04-18T11:04:58.001Z</time></trkpt><trkpt lat="43.37346789512582" lon="10.832075854161447"><ele>109.6</ele><time>2026-04-18T11:04:59.001Z</time></trkpt><trkpt lat="43.37337069412063" lon="10.832110593653386"><ele>109.4</ele><time>2026-04-18T11:05:00.001Z</time></trkpt><trkpt lat="43.37327215153146" lon="10.832147990466147"><ele>109.2</ele><time>2026-04-18T11:05:01.001Z</time></trkpt><trkpt lat="43.373172028355526" lon="10.832184199580988"><ele>109.0</ele><time>2026-04-18T11:05:02.001Z</time></trkpt><trkpt lat="43.373072465935714" lon="10.832217569582083"><ele>109.0</ele><time>2026-04-18T11:05:03.002Z</time></trkpt><trkpt lat="43.37297350670003" lon="10.832243613736242"><ele>109.0</ele><time>2026-04-18T11:05:04.002Z</time></trkpt><trkpt lat="43.372876525274414" lon="10.832266114293548"><ele>109.0</ele><time>2026-04-18T11:05:05.002Z</time></trkpt><trkpt lat="43.37277975376934" lon="10.832291784824681"><ele>109.0</ele><time>2026-04-18T11:05:06.002Z</time></trkpt><trkpt lat="43.37268509953808" lon="10.83231678696097"><ele>109.0</ele><time>2026-04-18T11:05:07.002Z</time></trkpt><trkpt lat="43.37260704948018" lon="10.832334330647694"><ele>109.0</ele><time>2026-04-18T11:05:08.002Z</time></trkpt><trkpt lat="43.372541298164435" lon="10.832352819623889"><ele>109.0</ele><time>2026-04-18T11:05:09.002Z</time></trkpt><trkpt lat="43.37246812436253" lon="10.83237820237328"><ele>109.0</ele><time>2026-04-18T11:05:10.002Z</time></trkpt><trkpt lat="43.37239770335379" lon="10.832399104362128"><ele>109.0</ele><time>2026-04-18T11:05:11.002Z</time></trkpt><trkpt lat="43.372325729103025" lon="10.832425236391256"><ele>109.0</ele><time>2026-04-18T11:05:12.002Z</time></trkpt><trkpt lat="43.37225154874981" lon="10.832445450718613"><ele>109.0</ele><time>2026-04-18T11:05:13.002Z</time></trkpt><trkpt lat="43.372176344751374" lon="10.832456926986099"><ele>109.0</ele><time>2026-04-18T11:05:14.002Z</time></trkpt><trkpt lat="43.37210106002433" lon="10.832461080148468"><ele>108.50000000000001</ele><time>2026-04-18T11:05:15.002Z</time></trkpt><trkpt lat="43.37202538942639" lon="10.832459845387643"><ele>108.0</ele><time>2026-04-18T11:05:16.002Z</time></trkpt><trkpt lat="43.371950649745436" lon="10.832452025045825"><ele>107.5</ele><time>2026-04-18T11:05:17.002Z</time></trkpt><trkpt lat="43.37187469661041" lon="10.832444594217273"><ele>107.0</ele><time>2026-04-18T11:05:18.002Z</time></trkpt><trkpt lat="43.37179808716937" lon="10.832437492259588"><ele>106.50000000000001</ele><time>2026-04-18T11:05:19.002Z</time></trkpt><trkpt lat="43.371722043312424" lon="10.832425406059958"><ele>106.0</ele><time>2026-04-18T11:05:20.002Z</time></trkpt><trkpt lat="43.371644910525625" lon="10.832407506125692"><ele>106.00000000000001</ele><time>2026-04-18T11:05:21.002Z</time></trkpt><trkpt lat="43.37156711219601" lon="10.832383643514566"><ele>106.0</ele><time>2026-04-18T11:05:22.002Z</time></trkpt><trkpt lat="43.37148761423125" lon="10.832357463668238"><ele>106.0</ele><time>2026-04-18T11:05:23.002Z</time></trkpt><trkpt lat="43.37140463054037" lon="10.832325215157988"><ele>106.0</ele><time>2026-04-18T11:05:24.002Z</time></trkpt><trkpt lat="43.371332177467096" lon="10.832268454266886"><ele>106.00000000000001</ele><time>2026-04-18T11:05:25.002Z</time></trkpt><trkpt lat="43.37125749578588" lon="10.832224119159868"><ele>106.0</ele><time>2026-04-18T11:05:26.002Z</time></trkpt><trkpt lat="43.371181636610146" lon="10.832174389487566"><ele>106.00000000000001</ele><time>2026-04-18T11:05:27.002Z</time></trkpt><trkpt lat="43.37110570498289" lon="10.832119946234187"><ele>106.0</ele><time>2026-04-18T11:05:28.002Z</time></trkpt><trkpt lat="43.37102927488691" lon="10.832060514649006"><ele>106.0</ele><time>2026-04-18T11:05:29.002Z</time></trkpt><trkpt lat="43.37095970463696" lon="10.83199373268835"><ele>106.0</ele><time>2026-04-18T11:05:30.002Z</time></trkpt><trkpt lat="43.37089259307349" lon="10.831921575443243"><ele>106.00000000000001</ele><time>2026-04-18T11:05:31.002Z</time></trkpt><trkpt lat="43.37082880531578" lon="10.831843901232075"><ele>106.0</ele><time>2026-04-18T11:05:32.002Z</time></trkpt><trkpt lat="43.37076692595769" lon="10.831762327707844"><ele>106.00000000000001</ele><time>2026-04-18T11:05:33.002Z</time></trkpt><trkpt lat="43.3707062978506" lon="10.831676757324317"><ele>106.0</ele><time>2026-04-18T11:05:34.002Z</time></trkpt><trkpt lat="43.37064840393621" lon="10.831589887762398"><ele>106.0</ele><time>2026-04-18T11:05:35.002Z</time></trkpt><trkpt lat="43.370593115067805" lon="10.83150119089856"><ele>106.0</ele><time>2026-04-18T11:05:36.001Z</time></trkpt><trkpt lat="43.37053747366925" lon="10.831405830888375"><ele>106.00000000000001</ele><time>2026-04-18T11:05:37.001Z</time></trkpt><trkpt lat="43.370480365189806" lon="10.831301551172485"><ele>106.0</ele><time>2026-04-18T11:05:38.001Z</time></trkpt><trkpt lat="43.37042599081989" lon="10.83118902279252"><ele>104.4</ele><time>2026-04-18T11:05:39.001Z</time></trkpt><trkpt lat="43.37037103648079" lon="10.831069863501918"><ele>102.8</ele><time>2026-04-18T11:05:40.001Z</time></trkpt><trkpt lat="43.370313082047964" lon="10.830945673214313"><ele>101.2</ele><time>2026-04-18T11:05:41.001Z</time></trkpt><trkpt lat="43.3702526674715" lon="10.83082217618712"><ele>99.60000000000001</ele><time>2026-04-18T11:05:42.001Z</time></trkpt><trkpt lat="43.37019232300876" lon="10.830698822483324"><ele>98.0</ele><time>2026-04-18T11:05:43.001Z</time></trkpt><trkpt lat="43.37012980742" lon="10.830573677040453"><ele>98.0</ele><time>2026-04-18T11:05:44.001Z</time></trkpt><trkpt lat="43.370070288333835" lon="10.830453551837833"><ele>98.0</ele><time>2026-04-18T11:05:45.001Z</time></trkpt><trkpt lat="43.37001357434287" lon="10.830334454271423"><ele>98.0</ele><time>2026-04-18T11:05:46.001Z</time></trkpt><trkpt lat="43.369959177085974" lon="10.830212003871543"><ele>98.0</ele><time>2026-04-18T11:05:47.001Z</time></trkpt><trkpt lat="43.36990627781567" lon="10.830084175628347"><ele>98.0</ele><time>2026-04-18T11:05:48.001Z</time></trkpt><trkpt lat="43.3698574642238" lon="10.829950145799744"><ele>98.80000000000001</ele><time>2026-04-18T11:05:49.001Z</time></trkpt><trkpt lat="43.36981756854811" lon="10.829812435713906"><ele>99.6</ele><time>2026-04-18T11:05:50.001Z</time></trkpt><trkpt lat="43.36978006437895" lon="10.829668528299107"><ele>100.4</ele><time>2026-04-18T11:05:51.001Z</time></trkpt><trkpt lat="43.36974913747197" lon="10.829547894976628"><ele>101.19999999999999</ele><time>2026-04-18T11:05:52.001Z</time></trkpt><trkpt lat="43.369724500492374" lon="10.829449635035614"><ele>102.0</ele><time>2026-04-18T11:05:53.001Z</time></trkpt><trkpt lat="43.3696981647376" lon="10.829344599825653"><ele>100.5</ele><time>2026-04-18T11:05:54.001Z</time></trkpt><trkpt lat="43.369668303074825" lon="10.829228843246005"><ele>99.0</ele><time>2026-04-18T11:05:55.001Z</time></trkpt><trkpt lat="43.36963754874684" lon="10.82911226496448"><ele>97.5</ele><time>2026-04-18T11:05:56.001Z</time></trkpt><trkpt lat="43.369607917441854" lon="10.82899809055616"><ele>96.0</ele><time>2026-04-18T11:05:57.001Z</time></trkpt><trkpt lat="43.36957967575553" lon="10.828883321707762"><ele>94.5</ele><time>2026-04-18T11:05:58.001Z</time></trkpt><trkpt lat="43.369551564865596" lon="10.828762014404417"><ele>93.0</ele><time>2026-04-18T11:05:59.001Z</time></trkpt><trkpt lat="43.3695224391834" lon="10.828632929575301"><ele>93.0</ele><time>2026-04-18T11:06:00.001Z</time></trkpt><trkpt lat="43.36949159848171" lon="10.828496243831484"><ele>93.0</ele><time>2026-04-18T11:06:01.001Z</time></trkpt><trkpt lat="43.36946057344954" lon="10.828358741124951"><ele>93.0</ele><time>2026-04-18T11:06:02.001Z</time></trkpt><trkpt lat="43.36943227735507" lon="10.82822904569773"><ele>93.0</ele><time>2026-04-18T11:06:03.001Z</time></trkpt><trkpt lat="43.36940644982112" lon="10.828108128282146"><ele>93.0</ele><time>2026-04-18T11:06:04.001Z</time></trkpt><trkpt lat="43.36938330990716" lon="10.82798890306162"><ele>93.2</ele><time>2026-04-18T11:06:05.001Z</time></trkpt><trkpt lat="43.369365176734576" lon="10.82786527945357"><ele>93.4</ele><time>2026-04-18T11:06:06.001Z</time></trkpt><trkpt lat="43.3693502716171" lon="10.827730082755494"><ele>93.60000000000001</ele><time>2026-04-18T11:06:07.001Z</time></trkpt><trkpt lat="43.36934473297213" lon="10.82759070720384"><ele>93.80000000000001</ele><time>2026-04-18T11:06:08.001Z</time></trkpt><trkpt lat="43.369346307742276" lon="10.827445703268397"><ele>94.0</ele><time>2026-04-18T11:06:09.001Z</time></trkpt><trkpt lat="43.36935158205" lon="10.82729481362952"><ele>94.2</ele><time>2026-04-18T11:06:10.001Z</time></trkpt><trkpt lat="43.36936035007775" lon="10.827140128284748"><ele>94.4</ele><time>2026-04-18T11:06:11.001Z</time></trkpt><trkpt lat="43.36936169139717" lon="10.826988532546675"><ele>94.6</ele><time>2026-04-18T11:06:12.001Z</time></trkpt><trkpt lat="43.3693953350678" lon="10.826848403400806"><ele>94.8</ele><time>2026-04-18T11:06:13.001Z</time></trkpt><trkpt lat="43.36941992402172" lon="10.826721671495834"><ele>95.0</ele><time>2026-04-18T11:06:14.001Z</time></trkpt><trkpt lat="43.36943090670646" lon="10.826617679650939"><ele>94.4</ele><time>2026-04-18T11:06:15.001Z</time></trkpt><trkpt lat="43.36947493135745" lon="10.826495393834485"><ele>93.8</ele><time>2026-04-18T11:06:16.001Z</time></trkpt><trkpt lat="43.36950816978471" lon="10.82637000782682"><ele>93.19999999999999</ele><time>2026-04-18T11:06:17.001Z</time></trkpt><trkpt lat="43.369529437472785" lon="10.826233787953413"><ele>92.6</ele><time>2026-04-18T11:06:18.001Z</time></trkpt><trkpt lat="43.36956746660115" lon="10.826106671101385"><ele>92.0</ele><time>2026-04-18T11:06:19.001Z</time></trkpt><trkpt lat="43.36959996219899" lon="10.825976369163156"><ele>91.19999999999999</ele><time>2026-04-18T11:06:20.001Z</time></trkpt><trkpt lat="43.36964974444556" lon="10.825855083889275"><ele>90.4</ele><time>2026-04-18T11:06:21.001Z</time></trkpt><trkpt lat="43.36968577386065" lon="10.825728291969584"><ele>89.6</ele><time>2026-04-18T11:06:22.001Z</time></trkpt><trkpt lat="43.3697044264646" lon="10.825593545269529"><ele>88.80000000000001</ele><time>2026-04-18T11:06:23.001Z</time></trkpt><trkpt lat="43.36973439428638" lon="10.82546455954354"><ele>88.0</ele><time>2026-04-18T11:06:24.001Z</time></trkpt><trkpt lat="43.36975622590869" lon="10.825333318673753"><ele>88.33333333333333</ele><time>2026-04-18T11:06:25.001Z</time></trkpt><trkpt lat="43.36977425943485" lon="10.825226046282216"><ele>88.66666666666666</ele><time>2026-04-18T11:06:26.001Z</time></trkpt><trkpt lat="43.36978797342717" lon="10.825139714838437"><ele>89.0</ele><time>2026-04-18T11:06:27.001Z</time></trkpt><trkpt lat="43.369793584223245" lon="10.825042102846583"><ele>89.33333333333333</ele><time>2026-04-18T11:06:28.001Z</time></trkpt><trkpt lat="43.36979319178471" lon="10.82493712531366"><ele>89.66666666666667</ele><time>2026-04-18T11:06:29.001Z</time></trkpt><trkpt lat="43.36979478145509" lon="10.824817396022128"><ele>90.0</ele><time>2026-04-18T11:06:30.001Z</time></trkpt><trkpt lat="43.369791040070076" lon="10.82468497199692"><ele>90.0</ele><time>2026-04-18T11:06:31.001Z</time></trkpt><trkpt lat="43.3697966278617" lon="10.824540095478174"><ele>90.0</ele><time>2026-04-18T11:06:32.001Z</time></trkpt><trkpt lat="43.36978060613004" lon="10.82439317530948"><ele>90.0</ele><time>2026-04-18T11:06:33.001Z</time></trkpt><trkpt lat="43.36974408097682" lon="10.824246990267373"><ele>90.0</ele><time>2026-04-18T11:06:34.001Z</time></trkpt><trkpt lat="43.36971641873677" lon="10.824094402669354"><ele>90.0</ele><time>2026-04-18T11:06:35.001Z</time></trkpt><trkpt lat="43.369679095636776" lon="10.82394317418029"><ele>88.75</ele><time>2026-04-18T11:06:36.001Z</time></trkpt><trkpt lat="43.36963126923163" lon="10.823790636925022"><ele>87.5</ele><time>2026-04-18T11:06:37.001Z</time></trkpt><trkpt lat="43.369572965373166" lon="10.823640120487866"><ele>86.25</ele><time>2026-04-18T11:06:38.001Z</time></trkpt><trkpt lat="43.369509108780974" lon="10.823487722486645"><ele>85.0</ele><time>2026-04-18T11:06:39.001Z</time></trkpt><trkpt lat="43.3694394391167" lon="10.823341395509189"><ele>85.0</ele><time>2026-04-18T11:06:40.001Z</time></trkpt><trkpt lat="43.36937155269942" lon="10.82322056749514"><ele>85.0</ele><time>2026-04-18T11:06:41.002Z</time></trkpt><trkpt lat="43.36930889670745" lon="10.823124361207652"><ele>85.0</ele><time>2026-04-18T11:06:42.002Z</time></trkpt><trkpt lat="43.369249706846006" lon="10.823017836009607"><ele>85.0</ele><time>2026-04-18T11:06:43.002Z</time></trkpt><trkpt lat="43.369172088042326" lon="10.822929284517052"><ele>85.0</ele><time>2026-04-18T11:06:44.002Z</time></trkpt><trkpt lat="43.36908157952436" lon="10.822860207122936"><ele>85.0</ele><time>2026-04-18T11:06:45.002Z</time></trkpt><trkpt lat="43.369009335800094" lon="10.822761291003212"><ele>85.0</ele><time>2026-04-18T11:06:46.002Z</time></trkpt><trkpt lat="43.36892113700127" lon="10.822699799486347"><ele>85.0</ele><time>2026-04-18T11:06:47.002Z</time></trkpt><trkpt lat="43.368852428550696" lon="10.822606342938375"><ele>85.0</ele><time>2026-04-18T11:06:48.002Z</time></trkpt><trkpt lat="43.36877461176804" lon="10.82253333107073"><ele>85.0</ele><time>2026-04-18T11:06:49.002Z</time></trkpt><trkpt lat="43.368696969294284" lon="10.822465896590513"><ele>84.83333333333333</ele><time>2026-04-18T11:06:50.002Z</time></trkpt><trkpt lat="43.36862122844962" lon="10.82240343101677"><ele>84.66666666666666</ele><time>2026-04-18T11:06:51.002Z</time></trkpt><trkpt lat="43.36855129833555" lon="10.822347674720449"><ele>84.5</ele><time>2026-04-18T11:06:52.002Z</time></trkpt><trkpt lat="43.368480314430606" lon="10.822315375324706"><ele>84.33333333333333</ele><time>2026-04-18T11:06:53.002Z</time></trkpt><trkpt lat="43.3684216276032" lon="10.822257611178108"><ele>84.16666666666667</ele><time>2026-04-18T11:06:54.002Z</time></trkpt><trkpt lat="43.3683722298854" lon="10.822181631529336"><ele>84.0</ele><time>2026-04-18T11:06:55.002Z</time></trkpt><trkpt lat="43.36830299389" lon="10.822154862872521"><ele>84.0</ele><time>2026-04-18T11:06:56.002Z</time></trkpt><trkpt lat="43.3682065703381" lon="10.822059944893608"><ele>84.0</ele><time>2026-04-18T11:06:58.002Z</time></trkpt><trkpt lat="43.36811426248759" lon="10.821973867663903"><ele>84.0</ele><time>2026-04-18T11:07:00.002Z</time></trkpt><trkpt lat="43.36802440793711" lon="10.821884898725157"><ele>84.0</ele><time>2026-04-18T11:07:02.002Z</time></trkpt><trkpt lat="43.36792341992809" lon="10.821796165677847"><ele>84.14285714285714</ele><time>2026-04-18T11:07:04.002Z</time></trkpt><trkpt lat="43.36786552502895" lon="10.821747149907651"><ele>84.28571428571428</ele><time>2026-04-18T11:07:05.002Z</time></trkpt><trkpt lat="43.36780910257216" lon="10.821692656955083"><ele>84.42857142857143</ele><time>2026-04-18T11:07:06.002Z</time></trkpt><trkpt lat="43.36775119483262" lon="10.821643663071626"><ele>84.57142857142857</ele><time>2026-04-18T11:07:07.002Z</time></trkpt><trkpt lat="43.36769616850587" lon="10.821593512338088"><ele>84.71428571428571</ele><time>2026-04-18T11:07:08.002Z</time></trkpt><trkpt lat="43.36764151647195" lon="10.821543523738335"><ele>84.85714285714286</ele><time>2026-04-18T11:07:09.002Z</time></trkpt><trkpt lat="43.36758338019141" lon="10.821492959453257"><ele>85.0</ele><time>2026-04-18T11:07:10.002Z</time></trkpt><trkpt lat="43.3675341455155" lon="10.821423598772455"><ele>85.0</ele><time>2026-04-18T11:07:11.002Z</time></trkpt><trkpt lat="43.36747511347744" lon="10.821369565076049"><ele>85.0</ele><time>2026-04-18T11:07:12.002Z</time></trkpt><trkpt lat="43.36741708239273" lon="10.821316447569336"><ele>85.0</ele><time>2026-04-18T11:07:13.002Z</time></trkpt><trkpt lat="43.3673620567536" lon="10.821266081036503"><ele>85.0</ele><time>2026-04-18T11:07:14.002Z</time></trkpt><trkpt lat="43.367303993695046" lon="10.82121448891465"><ele>85.0</ele><time>2026-04-18T11:07:15.002Z</time></trkpt><trkpt lat="43.367240250853" lon="10.821175029077182"><ele>85.0</ele><time>2026-04-18T11:07:16.002Z</time></trkpt><trkpt lat="43.367180836668034" lon="10.821125511581318"><ele>85.0</ele><time>2026-04-18T11:07:17.002Z</time></trkpt><trkpt lat="43.36712242060873" lon="10.821074520299783"><ele>84.28571428571429</ele><time>2026-04-18T11:07:18.002Z</time></trkpt><trkpt lat="43.367063044107205" lon="10.82102418592604"><ele>83.57142857142857</ele><time>2026-04-18T11:07:19.002Z</time></trkpt><trkpt lat="43.367002027994495" lon="10.820972204251849"><ele>82.85714285714286</ele><time>2026-04-18T11:07:20.002Z</time></trkpt><trkpt lat="43.366940370734" lon="10.820917240928027"><ele>82.14285714285714</ele><time>2026-04-18T11:07:21.002Z</time></trkpt><trkpt lat="43.36687835724368" lon="10.82086057640183"><ele>81.42857142857143</ele><time>2026-04-18T11:07:22.002Z</time></trkpt><trkpt lat="43.366814894405316" lon="10.820803979246056"><ele>80.71428571428571</ele><time>2026-04-18T11:07:23.002Z</time></trkpt><trkpt lat="43.36675158569989" lon="10.820747024966384"><ele>80.0</ele><time>2026-04-18T11:07:24.002Z</time></trkpt><trkpt lat="43.36670128016065" lon="10.820668926062568"><ele>80.0</ele><time>2026-04-18T11:07:25.002Z</time></trkpt><trkpt lat="43.36663363860971" lon="10.820618688895083"><ele>80.0</ele><time>2026-04-18T11:07:26.002Z</time></trkpt><trkpt lat="43.36657532130897" lon="10.820549487438774"><ele>80.0</ele><time>2026-04-18T11:07:27.002Z</time></trkpt><trkpt lat="43.366527681923536" lon="10.820488317626358"><ele>80.0</ele><time>2026-04-18T11:07:28.002Z</time></trkpt><trkpt lat="43.36646145851557" lon="10.8204115124982"><ele>80.0</ele><time>2026-04-18T11:07:30.002Z</time></trkpt><trkpt lat="43.36639877283121" lon="10.82033565607943"><ele>80.0</ele><time>2026-04-18T11:07:32.002Z</time></trkpt><trkpt lat="43.36631170175528" lon="10.820220179124547"><ele>79.83333333333334</ele><time>2026-04-18T11:07:34.003Z</time></trkpt><trkpt lat="43.3662631376584" lon="10.820148094050703"><ele>79.66666666666667</ele><time>2026-04-18T11:07:35.003Z</time></trkpt><trkpt lat="43.36620778020969" lon="10.820067728838827"><ele>79.5</ele><time>2026-04-18T11:07:36.003Z</time></trkpt><trkpt lat="43.366149809237946" lon="10.819985432595251"><ele>79.33333333333333</ele><time>2026-04-18T11:07:37.003Z</time></trkpt><trkpt lat="43.3660897372754" lon="10.81989796296766"><ele>79.16666666666666</ele><time>2026-04-18T11:07:38.003Z</time></trkpt><trkpt lat="43.36603102349294" lon="10.819805971646536"><ele>79.0</ele><time>2026-04-18T11:07:39.003Z</time></trkpt><trkpt lat="43.36596736306014" lon="10.819714932439888"><ele>79.0</ele><time>2026-04-18T11:07:40.003Z</time></trkpt><trkpt lat="43.365901345222916" lon="10.8196255051298"><ele>79.0</ele><time>2026-04-18T11:07:41.003Z</time></trkpt><trkpt lat="43.365832397298526" lon="10.819531658660653"><ele>79.0</ele><time>2026-04-18T11:07:42.001Z</time></trkpt><trkpt lat="43.36576569850512" lon="10.81943712405704"><ele>79.0</ele><time>2026-04-18T11:07:43.001Z</time></trkpt><trkpt lat="43.36569603343807" lon="10.819336774354841"><ele>79.0</ele><time>2026-04-18T11:07:44.001Z</time></trkpt><trkpt lat="43.365630215176154" lon="10.819237303202746"><ele>79.0</ele><time>2026-04-18T11:07:45.001Z</time></trkpt><trkpt lat="43.365566492179134" lon="10.8191402002408"><ele>79.0</ele><time>2026-04-18T11:07:46.001Z</time></trkpt><trkpt lat="43.36550127126001" lon="10.819044304213792"><ele>79.0</ele><time>2026-04-18T11:07:47.001Z</time></trkpt><trkpt lat="43.36543363092314" lon="10.818948716210105"><ele>79.0</ele><time>2026-04-18T11:07:48.001Z</time></trkpt><trkpt lat="43.36536537190921" lon="10.818852555955223"><ele>79.0</ele><time>2026-04-18T11:07:49.001Z</time></trkpt><trkpt lat="43.36529869680672" lon="10.818752007089326"><ele>79.0</ele><time>2026-04-18T11:07:50.001Z</time></trkpt><trkpt lat="43.36523021913224" lon="10.818654201723849"><ele>79.0</ele><time>2026-04-18T11:07:51.001Z</time></trkpt><trkpt lat="43.36516284367868" lon="10.818557002593336"><ele>79.0</ele><time>2026-04-18T11:07:52.001Z</time></trkpt><trkpt lat="43.3650991159158" lon="10.818457714556427"><ele>79.0</ele><time>2026-04-18T11:07:53.001Z</time></trkpt><trkpt lat="43.36503180824233" lon="10.818361038738825"><ele>79.0</ele><time>2026-04-18T11:07:54.001Z</time></trkpt><trkpt lat="43.364963748480875" lon="10.818262426090161"><ele>78.8</ele><time>2026-04-18T11:07:55.001Z</time></trkpt><trkpt lat="43.36489587498128" lon="10.818165726029084"><ele>78.60000000000001</ele><time>2026-04-18T11:07:56.001Z</time></trkpt><trkpt lat="43.36482717079733" lon="10.818071043700023"><ele>78.4</ele><time>2026-04-18T11:07:57.001Z</time></trkpt><trkpt lat="43.364758997336835" lon="10.817972414931504"><ele>78.2</ele><time>2026-04-18T11:07:58.001Z</time></trkpt><trkpt lat="43.36469200369343" lon="10.817872876687634"><ele>78.0</ele><time>2026-04-18T11:07:59.001Z</time></trkpt><trkpt lat="43.364624223070955" lon="10.817774012042625"><ele>78.0</ele><time>2026-04-18T11:08:00.001Z</time></trkpt><trkpt lat="43.36455705345738" lon="10.817677211428018"><ele>78.0</ele><time>2026-04-18T11:08:01.001Z</time></trkpt><trkpt lat="43.36449121970367" lon="10.817586630004511"><ele>78.0</ele><time>2026-04-18T11:08:02.001Z</time></trkpt><trkpt lat="43.364429853330954" lon="10.817489731505443"><ele>78.0</ele><time>2026-04-18T11:08:03.001Z</time></trkpt><trkpt lat="43.364364572506275" lon="10.8174016351361"><ele>78.0</ele><time>2026-04-18T11:08:04.001Z</time></trkpt><trkpt lat="43.36430416612386" lon="10.817310411323868"><ele>77.6</ele><time>2026-04-18T11:08:05.001Z</time></trkpt><trkpt lat="43.36424430473362" lon="10.817224371909823"><ele>77.19999999999999</ele><time>2026-04-18T11:08:06.001Z</time></trkpt><trkpt lat="43.364192636315984" lon="10.817144887197918"><ele>76.8</ele><time>2026-04-18T11:08:07.001Z</time></trkpt><trkpt lat="43.36412145947826" lon="10.817042911140994"><ele>76.39999999999999</ele><time>2026-04-18T11:08:09.001Z</time></trkpt><trkpt lat="43.36406025881673" lon="10.816957398808905"><ele>76.0</ele><time>2026-04-18T11:08:11.001Z</time></trkpt><trkpt lat="43.363995323469496" lon="10.816856961736185"><ele>75.83333333333333</ele><time>2026-04-18T11:08:13.001Z</time></trkpt><trkpt lat="43.36394020885482" lon="10.816734895591603"><ele>75.66666666666666</ele><time>2026-04-18T11:08:15.001Z</time></trkpt><trkpt lat="43.36399419237967" lon="10.816645000900968"><ele>75.5</ele><time>2026-04-18T11:08:16.001Z</time></trkpt><trkpt lat="43.36403984215948" lon="10.816584154726513"><ele>75.33333333333333</ele><time>2026-04-18T11:08:17.001Z</time></trkpt><trkpt lat="43.36409412424325" lon="10.816524812679067"><ele>75.16666666666667</ele><time>2026-04-18T11:08:18.001Z</time></trkpt><trkpt lat="43.364155916918754" lon="10.81645586887475"><ele>75.0</ele><time>2026-04-18T11:08:19.001Z</time></trkpt><trkpt lat="43.364217545387746" lon="10.816372540332148"><ele>75.0</ele><time>2026-04-18T11:08:20.001Z</time></trkpt><trkpt lat="43.36426515800999" lon="10.816274503274927"><ele>75.0</ele><time>2026-04-18T11:08:21.001Z</time></trkpt><trkpt lat="43.364326094954116" lon="10.816191717789259"><ele>75.0</ele><time>2026-04-18T11:08:22.001Z</time></trkpt><trkpt lat="43.36438135521684" lon="10.816106545987223"><ele>75.0</ele><time>2026-04-18T11:08:23.001Z</time></trkpt><trkpt lat="43.36444278831465" lon="10.81603335641451"><ele>75.0</ele><time>2026-04-18T11:08:24.001Z</time></trkpt><trkpt lat="43.364498798598525" lon="10.815958657099609"><ele>75.0</ele><time>2026-04-18T11:08:25.001Z</time></trkpt><trkpt lat="43.36455251833324" lon="10.815884067352982"><ele>75.0</ele><time>2026-04-18T11:08:26.001Z</time></trkpt><trkpt lat="43.36460635557841" lon="10.815808919436606"><ele>75.0</ele><time>2026-04-18T11:08:27.001Z</time></trkpt><trkpt lat="43.36467525017081" lon="10.815756263795619"><ele>75.0</ele><time>2026-04-18T11:08:28.001Z</time></trkpt><trkpt lat="43.36473918858743" lon="10.81567817392012"><ele>75.0</ele><time>2026-04-18T11:08:29.001Z</time></trkpt><trkpt lat="43.364814784512006" lon="10.815618289547306"><ele>75.0</ele><time>2026-04-18T11:08:30.001Z</time></trkpt><trkpt lat="43.364891328673444" lon="10.815557843611874"><ele>75.0</ele><time>2026-04-18T11:08:31.002Z</time></trkpt><trkpt lat="43.36495912406613" lon="10.81549215022897"><ele>75.33333333333333</ele><time>2026-04-18T11:08:32.002Z</time></trkpt><trkpt lat="43.36502830142057" lon="10.815428511293652"><ele>75.66666666666667</ele><time>2026-04-18T11:08:33.002Z</time></trkpt><trkpt lat="43.36511117413848" lon="10.815403876231223"><ele>76.0</ele><time>2026-04-18T11:08:34.002Z</time></trkpt><trkpt lat="43.365197387555085" lon="10.815365444650368"><ele>76.33333333333334</ele><time>2026-04-18T11:08:35.002Z</time></trkpt><trkpt lat="43.36528594459188" lon="10.81533885905172"><ele>76.66666666666667</ele><time>2026-04-18T11:08:36.002Z</time></trkpt><trkpt lat="43.36538254083117" lon="10.81530980357767"><ele>77.0</ele><time>2026-04-18T11:08:37.002Z</time></trkpt><trkpt lat="43.365484494894275" lon="10.815279136513482"><ele>78.2</ele><time>2026-04-18T11:08:38.002Z</time></trkpt><trkpt lat="43.365586581376924" lon="10.81524842960694"><ele>79.4</ele><time>2026-04-18T11:08:39.002Z</time></trkpt><trkpt lat="43.36568300075048" lon="10.815200897579238"><ele>80.60000000000001</ele><time>2026-04-18T11:08:40.002Z</time></trkpt><trkpt lat="43.36578436396834" lon="10.815180920943348"><ele>81.80000000000001</ele><time>2026-04-18T11:08:41.002Z</time></trkpt><trkpt lat="43.36588654692256" lon="10.815163601452284"><ele>83.0</ele><time>2026-04-18T11:08:42.002Z</time></trkpt><trkpt lat="43.365989180277346" lon="10.815150070686162"><ele>83.0</ele><time>2026-04-18T11:08:43.002Z</time></trkpt><trkpt lat="43.366093574090755" lon="10.815143335789042"><ele>83.0</ele><time>2026-04-18T11:08:44.002Z</time></trkpt><trkpt lat="43.36619595944816" lon="10.815140198861151"><ele>83.0</ele><time>2026-04-18T11:08:45.002Z</time></trkpt><trkpt lat="43.36628997915375" lon="10.815144782313554"><ele>83.0</ele><time>2026-04-18T11:08:46.002Z</time></trkpt><trkpt lat="43.36637386123229" lon="10.815152214694633"><ele>83.0</ele><time>2026-04-18T11:08:47.002Z</time></trkpt><trkpt lat="43.36644841669957" lon="10.815161127334934"><ele>84.80000000000001</ele><time>2026-04-18T11:08:48.002Z</time></trkpt><trkpt lat="43.36651375352681" lon="10.815173539748805"><ele>86.6</ele><time>2026-04-18T11:08:49.002Z</time></trkpt><trkpt lat="43.366598058228526" lon="10.81517809709893"><ele>88.4</ele><time>2026-04-18T11:08:51.002Z</time></trkpt><trkpt lat="43.36652233605233" lon="10.814977993586211"><ele>90.19999999999999</ele><time>2026-04-18T11:09:01.002Z</time></trkpt><trkpt lat="43.36645417596254" lon="10.814958438682318"><ele>92.0</ele><time>2026-04-18T11:09:02.002Z</time></trkpt><trkpt lat="43.366379009628794" lon="10.814925500449576"><ele>90.19999999999999</ele><time>2026-04-18T11:09:03.002Z</time></trkpt><trkpt lat="43.366294315035596" lon="10.814882933211006"><ele>88.4</ele><time>2026-04-18T11:09:04.002Z</time></trkpt><trkpt lat="43.36620140593769" lon="10.81483498228777"><ele>86.6</ele><time>2026-04-18T11:09:05.002Z</time></trkpt><trkpt lat="43.36610185479615" lon="10.814783896442291"><ele>84.80000000000001</ele><time>2026-04-18T11:09:06.002Z</time></trkpt><trkpt lat="43.36599932666966" lon="10.814727943716775"><ele>83.0</ele><time>2026-04-18T11:09:07.002Z</time></trkpt><trkpt lat="43.36589734604933" lon="10.814660470518277"><ele>83.0</ele><time>2026-04-18T11:09:08.002Z</time></trkpt><trkpt lat="43.36579653560516" lon="10.814584251618138"><ele>83.0</ele><time>2026-04-18T11:09:09.002Z</time></trkpt><trkpt lat="43.36569811207023" lon="10.814498804461119"><ele>83.0</ele><time>2026-04-18T11:09:10.002Z</time></trkpt><trkpt lat="43.365599285676396" lon="10.814409644661403"><ele>83.0</ele><time>2026-04-18T11:09:11.002Z</time></trkpt><trkpt lat="43.365498168266626" lon="10.814316733964343"><ele>82.0</ele><time>2026-04-18T11:09:12.002Z</time></trkpt><trkpt lat="43.36539703387564" lon="10.814221328163775"><ele>81.0</ele><time>2026-04-18T11:09:13.002Z</time></trkpt><trkpt lat="43.365294624258986" lon="10.814125961865967"><ele>80.0</ele><time>2026-04-18T11:09:14.002Z</time></trkpt><trkpt lat="43.365196309054255" lon="10.814036273209457"><ele>79.0</ele><time>2026-04-18T11:09:15.002Z</time></trkpt><trkpt lat="43.365107425675795" lon="10.813953779582887"><ele>79.0</ele><time>2026-04-18T11:09:16.002Z</time></trkpt><trkpt lat="43.36502471282359" lon="10.813874989804422"><ele>79.0</ele><time>2026-04-18T11:09:17.002Z</time></trkpt><trkpt lat="43.364944110142396" lon="10.813799695828937"><ele>79.0</ele><time>2026-04-18T11:09:18.002Z</time></trkpt><trkpt lat="43.36486636448169" lon="10.81372663712806"><ele>79.0</ele><time>2026-04-18T11:09:19.002Z</time></trkpt><trkpt lat="43.36479117328455" lon="10.813654303744642"><ele>79.0</ele><time>2026-04-18T11:09:20.002Z</time></trkpt><trkpt lat="43.36471600901184" lon="10.813586291355682"><ele>78.83333333333333</ele><time>2026-04-18T11:09:21.002Z</time></trkpt><trkpt lat="43.364643167755716" lon="10.81351910925644"><ele>78.66666666666666</ele><time>2026-04-18T11:09:22.002Z</time></trkpt><trkpt lat="43.36457237541483" lon="10.813452119401493"><ele>78.5</ele><time>2026-04-18T11:09:23.002Z</time></trkpt><trkpt lat="43.36450275986075" lon="10.813387302139741"><ele>78.33333333333333</ele><time>2026-04-18T11:09:24.002Z</time></trkpt><trkpt lat="43.36443399515211" lon="10.81332483767662"><ele>78.16666666666667</ele><time>2026-04-18T11:09:25.002Z</time></trkpt><trkpt lat="43.36436565036807" lon="10.813262617128839"><ele>78.0</ele><time>2026-04-18T11:09:26.002Z</time></trkpt><trkpt lat="43.36429636131002" lon="10.813199974898495"><ele>78.0</ele><time>2026-04-18T11:09:27.002Z</time></trkpt><trkpt lat="43.364226782156265" lon="10.813136040513104"><ele>78.0</ele><time>2026-04-18T11:09:28.003Z</time></trkpt><trkpt lat="43.364157018042974" lon="10.813071598476832"><ele>78.0</ele><time>2026-04-18T11:09:29.003Z</time></trkpt><trkpt lat="43.36409716685949" lon="10.81298819638104"><ele>78.0</ele><time>2026-04-18T11:09:30.003Z</time></trkpt><trkpt lat="43.364030782384006" lon="10.81292605719944"><ele>78.0</ele><time>2026-04-18T11:09:31.003Z</time></trkpt><trkpt lat="43.363962379553975" lon="10.81288881277135"><ele>78.0</ele><time>2026-04-18T11:09:32.003Z</time></trkpt><trkpt lat="43.36388336376233" lon="10.812806703564952"><ele>78.16666666666667</ele><time>2026-04-18T11:09:34.003Z</time></trkpt><trkpt lat="43.363828671703494" lon="10.8127008805526"><ele>78.33333333333333</ele><time>2026-04-18T11:09:43.003Z</time></trkpt><trkpt lat="43.36375824502601" lon="10.812656400355941"><ele>78.5</ele><time>2026-04-18T11:09:45.003Z</time></trkpt><trkpt lat="43.36364151419796" lon="10.812654886355757"><ele>78.66666666666666</ele><time>2026-04-18T11:09:47.003Z</time></trkpt><trkpt lat="43.363570776570484" lon="10.812652383298968"><ele>78.83333333333333</ele><time>2026-04-18T11:09:48.002Z</time></trkpt><trkpt lat="43.363493862138235" lon="10.812650225265"><ele>79.0</ele><time>2026-04-18T11:09:49.002Z</time></trkpt><trkpt lat="43.36341383171926" lon="10.812645442239239"><ele>79.0</ele><time>2026-04-18T11:09:50.002Z</time></trkpt><trkpt lat="43.36332939963952" lon="10.812644731543191"><ele>79.0</ele><time>2026-04-18T11:09:51.002Z</time></trkpt><trkpt lat="43.363240704248476" lon="10.812643203173556"><ele>79.0</ele><time>2026-04-18T11:09:52.002Z</time></trkpt><trkpt lat="43.36314962014227" lon="10.812641799345318"><ele>79.0</ele><time>2026-04-18T11:09:53.002Z</time></trkpt><trkpt lat="43.36305660712216" lon="10.812638031269413"><ele>79.0</ele><time>2026-04-18T11:09:54.001Z</time></trkpt><trkpt lat="43.36296005591631" lon="10.812636333183532"><ele>79.0</ele><time>2026-04-18T11:09:55.001Z</time></trkpt><trkpt lat="43.362862412364954" lon="10.81263718402174"><ele>79.0</ele><time>2026-04-18T11:09:56.001Z</time></trkpt><trkpt lat="43.36276428583981" lon="10.812637306873501"><ele>79.0</ele><time>2026-04-18T11:09:57.001Z</time></trkpt><trkpt lat="43.36266514211728" lon="10.812637244486758"><ele>79.0</ele><time>2026-04-18T11:09:58.001Z</time></trkpt><trkpt lat="43.36256744326659" lon="10.812638294258248"><ele>79.0</ele><time>2026-04-18T11:09:59.001Z</time></trkpt><trkpt lat="43.36247015361782" lon="10.812638635468444"><ele>79.0</ele><time>2026-04-18T11:10:00.001Z</time></trkpt><trkpt lat="43.36237035682098" lon="10.812638521323176"><ele>79.0</ele><time>2026-04-18T11:10:01.001Z</time></trkpt><trkpt lat="43.36227055399264" lon="10.81263544543445"><ele>79.0</ele><time>2026-04-18T11:10:02.001Z</time></trkpt><trkpt lat="43.36217040498481" lon="10.812625125636385"><ele>79.0</ele><time>2026-04-18T11:10:03.001Z</time></trkpt><trkpt lat="43.36206821703539" lon="10.812609998379644"><ele>79.0</ele><time>2026-04-18T11:10:04.001Z</time></trkpt><trkpt lat="43.36196473282108" lon="10.812591554691766"><ele>78.4</ele><time>2026-04-18T11:10:05.001Z</time></trkpt><trkpt lat="43.36186051252256" lon="10.812562854261678"><ele>77.80000000000001</ele><time>2026-04-18T11:10:06.001Z</time></trkpt><trkpt lat="43.3617556616013" lon="10.812522131545295"><ele>77.19999999999999</ele><time>2026-04-18T11:10:07.001Z</time></trkpt><trkpt lat="43.36165250136071" lon="10.812470025583133"><ele>76.6</ele><time>2026-04-18T11:10:08.001Z</time></trkpt><trkpt lat="43.36155838501108" lon="10.812387598004717"><ele>76.0</ele><time>2026-04-18T11:10:09.001Z</time></trkpt><trkpt lat="43.36145346930492" lon="10.812334689598364"><ele>76.0</ele><time>2026-04-18T11:10:10.001Z</time></trkpt><trkpt lat="43.36136912615875" lon="10.812236833411285"><ele>76.0</ele><time>2026-04-18T11:10:11.001Z</time></trkpt><trkpt lat="43.36127273327596" lon="10.812169730220305"><ele>76.0</ele><time>2026-04-18T11:10:12.001Z</time></trkpt><trkpt lat="43.36120373512906" lon="10.812050814020585"><ele>76.0</ele><time>2026-04-18T11:10:13.001Z</time></trkpt><trkpt lat="43.361125828625724" lon="10.811936051902928"><ele>76.0</ele><time>2026-04-18T11:10:14.001Z</time></trkpt><trkpt lat="43.36104892421407" lon="10.811813672924306"><ele>75.75</ele><time>2026-04-18T11:10:15.001Z</time></trkpt><trkpt lat="43.36096115006435" lon="10.811698322956245"><ele>75.5</ele><time>2026-04-18T11:10:16.001Z</time></trkpt><trkpt lat="43.36089917549098" lon="10.811552708658724"><ele>75.25</ele><time>2026-04-18T11:10:17.001Z</time></trkpt><trkpt lat="43.36081175975857" lon="10.811427400315237"><ele>75.0</ele><time>2026-04-18T11:10:18.001Z</time></trkpt><trkpt lat="43.36074013409327" lon="10.811285272990839"><ele>75.0</ele><time>2026-04-18T11:10:19.001Z</time></trkpt><trkpt lat="43.36067172015043" lon="10.811141731975463"><ele>75.0</ele><time>2026-04-18T11:10:20.001Z</time></trkpt><trkpt lat="43.360609083211294" lon="10.810989791902683"><ele>75.0</ele><time>2026-04-18T11:10:21.001Z</time></trkpt><trkpt lat="43.36055275782325" lon="10.810830512013828"><ele>75.0</ele><time>2026-04-18T11:10:22.001Z</time></trkpt><trkpt lat="43.360501434701796" lon="10.810670184859656"><ele>74.25</ele><time>2026-04-18T11:10:23.001Z</time></trkpt><trkpt lat="43.360451732792946" lon="10.810508282272421"><ele>73.5</ele><time>2026-04-18T11:10:24.001Z</time></trkpt><trkpt lat="43.36040429004034" lon="10.81034351770105"><ele>72.75</ele><time>2026-04-18T11:10:25.001Z</time></trkpt><trkpt lat="43.360354857364605" lon="10.810176561610247"><ele>72.0</ele><time>2026-04-18T11:10:26.001Z</time></trkpt><trkpt lat="43.360301539097" lon="10.810008731849535"><ele>72.0</ele><time>2026-04-18T11:10:27.001Z</time></trkpt><trkpt lat="43.3602480541393" lon="10.809836044255276"><ele>72.0</ele><time>2026-04-18T11:10:28.001Z</time></trkpt><trkpt lat="43.36019219157929" lon="10.80965866727307"><ele>72.0</ele><time>2026-04-18T11:10:29.001Z</time></trkpt><trkpt lat="43.360134695551075" lon="10.809480041588582"><ele>72.0</ele><time>2026-04-18T11:10:30.002Z</time></trkpt><trkpt lat="43.36007665155633" lon="10.809300868689933"><ele>72.5</ele><time>2026-04-18T11:10:31.002Z</time></trkpt><trkpt lat="43.36001962077785" lon="10.809121630534134"><ele>73.0</ele><time>2026-04-18T11:10:32.002Z</time></trkpt><trkpt lat="43.35996007662547" lon="10.808941920464559"><ele>73.5</ele><time>2026-04-18T11:10:33.002Z</time></trkpt><trkpt lat="43.35990130650196" lon="10.80876317194921"><ele>74.0</ele><time>2026-04-18T11:10:34.002Z</time></trkpt><trkpt lat="43.3598461817489" lon="10.808582296200706"><ele>75.0</ele><time>2026-04-18T11:10:35.002Z</time></trkpt><trkpt lat="43.359792576577895" lon="10.80840222648147"><ele>76.0</ele><time>2026-04-18T11:10:36.002Z</time></trkpt><trkpt lat="43.359739189729034" lon="10.808221763762317"><ele>77.0</ele><time>2026-04-18T11:10:37.002Z</time></trkpt><trkpt lat="43.3596858551873" lon="10.808042336523954"><ele>78.0</ele><time>2026-04-18T11:10:38.002Z</time></trkpt><trkpt lat="43.35963223925565" lon="10.807863656918727"><ele>76.0</ele><time>2026-04-18T11:10:39.002Z</time></trkpt><trkpt lat="43.35957901371624" lon="10.80768614145436"><ele>74.0</ele><time>2026-04-18T11:10:40.002Z</time></trkpt><trkpt lat="43.35952503865038" lon="10.807507725792222"><ele>72.0</ele><time>2026-04-18T11:10:41.002Z</time></trkpt><trkpt lat="43.35946985991283" lon="10.80732849310011"><ele>70.0</ele><time>2026-04-18T11:10:42.002Z</time></trkpt><trkpt lat="43.35941455925339" lon="10.80714995553748"><ele>70.0</ele><time>2026-04-18T11:10:43.002Z</time></trkpt><trkpt lat="43.35935946179838" lon="10.806972029455629"><ele>70.0</ele><time>2026-04-18T11:10:44.002Z</time></trkpt><trkpt lat="43.3593064424898" lon="10.806797591430628"><ele>70.0</ele><time>2026-04-18T11:10:45.002Z</time></trkpt><trkpt lat="43.35925763611391" lon="10.80663099953226"><ele>70.0</ele><time>2026-04-18T11:10:46.002Z</time></trkpt><trkpt lat="43.35921781971614" lon="10.806471363001998"><ele>69.75</ele><time>2026-04-18T11:10:47.002Z</time></trkpt><trkpt lat="43.35920284168704" lon="10.806309030080934"><ele>69.5</ele><time>2026-04-18T11:10:48.002Z</time></trkpt><trkpt lat="43.35922722758517" lon="10.806144013010508"><ele>69.25</ele><time>2026-04-18T11:10:49.002Z</time></trkpt><trkpt lat="43.35923286766897" lon="10.805969980918208"><ele>69.0</ele><time>2026-04-18T11:10:50.002Z</time></trkpt><trkpt lat="43.35925573626583" lon="10.805794894983363"><ele>69.0</ele><time>2026-04-18T11:10:51.002Z</time></trkpt><trkpt lat="43.3592787635089" lon="10.805612326801354"><ele>69.0</ele><time>2026-04-18T11:10:52.002Z</time></trkpt><trkpt lat="43.35930054483364" lon="10.805423698162123"><ele>69.0</ele><time>2026-04-18T11:10:53.002Z</time></trkpt><trkpt lat="43.359323463931375" lon="10.805228399712352"><ele>69.0</ele><time>2026-04-18T11:10:54.002Z</time></trkpt><trkpt lat="43.35934730803045" lon="10.805030209159336"><ele>68.5</ele><time>2026-04-18T11:10:55.002Z</time></trkpt><trkpt lat="43.35937013043292" lon="10.804830729871705"><ele>68.0</ele><time>2026-04-18T11:10:56.002Z</time></trkpt><trkpt lat="43.35939494005338" lon="10.804636583272162"><ele>67.5</ele><time>2026-04-18T11:10:57.002Z</time></trkpt><trkpt lat="43.359418164597116" lon="10.804443738560098"><ele>67.0</ele><time>2026-04-18T11:10:58.002Z</time></trkpt><trkpt lat="43.359438520734706" lon="10.804252758486808"><ele>66.5</ele><time>2026-04-18T11:10:59.002Z</time></trkpt><trkpt lat="43.35945254152898" lon="10.804066414385147"><ele>66.0</ele><time>2026-04-18T11:11:00.002Z</time></trkpt><trkpt lat="43.35945358325063" lon="10.803878937922951"><ele>65.5</ele><time>2026-04-18T11:11:01.002Z</time></trkpt><trkpt lat="43.35944109508915" lon="10.80369106562301"><ele>65.0</ele><time>2026-04-18T11:11:02.002Z</time></trkpt><trkpt lat="43.35941645311993" lon="10.803502314619266"><ele>65.25</ele><time>2026-04-18T11:11:03.002Z</time></trkpt><trkpt lat="43.359387490286935" lon="10.8033150330235"><ele>65.5</ele><time>2026-04-18T11:11:04.002Z</time></trkpt><trkpt lat="43.3593478303585" lon="10.803127516214078"><ele>65.75</ele><time>2026-04-18T11:11:05.002Z</time></trkpt><trkpt lat="43.3593226055355" lon="10.802930287235917"><ele>66.0</ele><time>2026-04-18T11:11:06.002Z</time></trkpt><trkpt lat="43.359237357313106" lon="10.802758636236078"><ele>67.0</ele><time>2026-04-18T11:11:07.002Z</time></trkpt><trkpt lat="43.3591594016017" lon="10.802585423553888"><ele>68.0</ele><time>2026-04-18T11:11:08.002Z</time></trkpt><trkpt lat="43.35906925154411" lon="10.802419052027945"><ele>69.0</ele><time>2026-04-18T11:11:09.002Z</time></trkpt><trkpt lat="43.35896977354657" lon="10.802263373493112"><ele>69.0</ele><time>2026-04-18T11:11:10.002Z</time></trkpt><trkpt lat="43.358868875508186" lon="10.802114456032488"><ele>69.0</ele><time>2026-04-18T11:11:11.002Z</time></trkpt><trkpt lat="43.35877114320281" lon="10.801968043199736"><ele>69.0</ele><time>2026-04-18T11:11:12.002Z</time></trkpt><trkpt lat="43.35867540900609" lon="10.801822107865554"><ele>69.0</ele><time>2026-04-18T11:11:13.002Z</time></trkpt><trkpt lat="43.35858204418682" lon="10.801677417906022"><ele>68.5</ele><time>2026-04-18T11:11:14.002Z</time></trkpt><trkpt lat="43.35849175084965" lon="10.801530714895401"><ele>68.0</ele><time>2026-04-18T11:11:15.002Z</time></trkpt><trkpt lat="43.3584064104678" lon="10.801379596604736"><ele>67.5</ele><time>2026-04-18T11:11:16.002Z</time></trkpt><trkpt lat="43.35832473431909" lon="10.801220168907832"><ele>67.0</ele><time>2026-04-18T11:11:17.002Z</time></trkpt><trkpt lat="43.35825145585514" lon="10.801049762442261"><ele>66.25</ele><time>2026-04-18T11:11:18.002Z</time></trkpt><trkpt lat="43.35818712176554" lon="10.800872033842086"><ele>65.5</ele><time>2026-04-18T11:11:19.002Z</time></trkpt><trkpt lat="43.35812542928831" lon="10.800687891093816"><ele>64.75</ele><time>2026-04-18T11:11:20.002Z</time></trkpt><trkpt lat="43.358064294718076" lon="10.800499160334546"><ele>64.0</ele><time>2026-04-18T11:11:21.002Z</time></trkpt><trkpt lat="43.3580019836456" lon="10.800307983806837"><ele>64.33333333333333</ele><time>2026-04-18T11:11:22.002Z</time></trkpt><trkpt lat="43.35793947771187" lon="10.800113586825042"><ele>64.66666666666667</ele><time>2026-04-18T11:11:23.002Z</time></trkpt><trkpt lat="43.357877589166726" lon="10.799917583673757"><ele>65.0</ele><time>2026-04-18T11:11:24.002Z</time></trkpt><trkpt lat="43.35781462252591" lon="10.799721826129232"><ele>65.0</ele><time>2026-04-18T11:11:25.002Z</time></trkpt><trkpt lat="43.35774605340317" lon="10.79952904097003"><ele>65.0</ele><time>2026-04-18T11:11:26.002Z</time></trkpt><trkpt lat="43.35766616876771" lon="10.799344648479265"><ele>65.0</ele><time>2026-04-18T11:11:27.002Z</time></trkpt><trkpt lat="43.357573989490035" lon="10.799169690769839"><ele>65.66666666666667</ele><time>2026-04-18T11:11:28.002Z</time></trkpt><trkpt lat="43.35747167294595" lon="10.799002633513691"><ele>66.33333333333333</ele><time>2026-04-18T11:11:29.002Z</time></trkpt><trkpt lat="43.357364871192736" lon="10.798839215864465"><ele>67.0</ele><time>2026-04-18T11:11:30.002Z</time></trkpt><trkpt lat="43.35725651305741" lon="10.798674732746614"><ele>66.33333333333333</ele><time>2026-04-18T11:11:31.002Z</time></trkpt><trkpt lat="43.35715033182696" lon="10.798510802153858"><ele>65.66666666666667</ele><time>2026-04-18T11:11:32.002Z</time></trkpt><trkpt lat="43.3570461707299" lon="10.79834761841934"><ele>65.0</ele><time>2026-04-18T11:11:33.002Z</time></trkpt><trkpt lat="43.356947910724394" lon="10.79817801632099"><ele>65.0</ele><time>2026-04-18T11:11:34.002Z</time></trkpt><trkpt lat="43.356859010860155" lon="10.798002860309877"><ele>65.0</ele><time>2026-04-18T11:11:35.002Z</time></trkpt><trkpt lat="43.35677499334709" lon="10.797821720411127"><ele>65.0</ele><time>2026-04-18T11:11:36.003Z</time></trkpt><trkpt lat="43.35669699770281" lon="10.797636373820673"><ele>66.66666666666667</ele><time>2026-04-18T11:11:37.003Z</time></trkpt><trkpt lat="43.35662601956046" lon="10.797445530396608"><ele>68.33333333333333</ele><time>2026-04-18T11:11:38.003Z</time></trkpt><trkpt lat="43.35656137794682" lon="10.797248391730065"><ele>70.0</ele><time>2026-04-18T11:11:39.003Z</time></trkpt><trkpt lat="43.35650655959758" lon="10.797045682171314"><ele>70.0</ele><time>2026-04-18T11:11:40.003Z</time></trkpt><trkpt lat="43.35645704949485" lon="10.796837811091798"><ele>70.0</ele><time>2026-04-18T11:11:41.003Z</time></trkpt><trkpt lat="43.35641665015749" lon="10.796624199552001"><ele>70.0</ele><time>2026-04-18T11:11:42.003Z</time></trkpt><trkpt lat="43.356380694604745" lon="10.796401930272644"><ele>67.33333333333333</ele><time>2026-04-18T11:11:43.003Z</time></trkpt><trkpt lat="43.35635368093077" lon="10.796172021569191"><ele>64.66666666666667</ele><time>2026-04-18T11:11:44.003Z</time></trkpt><trkpt lat="43.35633561991524" lon="10.795934549315815"><ele>62.0</ele><time>2026-04-18T11:11:45.003Z</time></trkpt><trkpt lat="43.35632641990388" lon="10.795691749181023"><ele>62.0</ele><time>2026-04-18T11:11:46.003Z</time></trkpt><trkpt lat="43.35632830206" lon="10.795443417579444"><ele>62.0</ele><time>2026-04-18T11:11:47.003Z</time></trkpt><trkpt lat="43.35634017884028" lon="10.795190689110113"><ele>62.0</ele><time>2026-04-18T11:11:48.003Z</time></trkpt><trkpt lat="43.356362071397285" lon="10.794936568514673"><ele>62.333333333333336</ele><time>2026-04-18T11:11:49.003Z</time></trkpt><trkpt lat="43.35639333141321" lon="10.794679433491696"><ele>62.66666666666667</ele><time>2026-04-18T11:11:50.003Z</time></trkpt><trkpt lat="43.35643321179999" lon="10.794423737625925"><ele>63.0</ele><time>2026-04-18T11:11:51.003Z</time></trkpt><trkpt lat="43.35648144927739" lon="10.794167923206633"><ele>62.33333333333333</ele><time>2026-04-18T11:11:52.003Z</time></trkpt><trkpt lat="43.35653529192179" lon="10.793912178505057"><ele>61.666666666666664</ele><time>2026-04-18T11:11:53.003Z</time></trkpt><trkpt lat="43.35659138819427" lon="10.793656805475575"><ele>61.0</ele><time>2026-04-18T11:11:54.002Z</time></trkpt><trkpt lat="43.356648374671956" lon="10.793401424167717"><ele>60.666666666666664</ele><time>2026-04-18T11:11:55.002Z</time></trkpt><trkpt lat="43.35670619728688" lon="10.793145902374011"><ele>60.33333333333333</ele><time>2026-04-18T11:11:56.002Z</time></trkpt><trkpt lat="43.35676433082526" lon="10.792890313819335"><ele>60.0</ele><time>2026-04-18T11:11:57.002Z</time></trkpt><trkpt lat="43.35682316125008" lon="10.792633515074586"><ele>59.33333333333333</ele><time>2026-04-18T11:11:58.002Z</time></trkpt><trkpt lat="43.356880044379736" lon="10.792376153370501"><ele>58.666666666666664</ele><time>2026-04-18T11:11:59.002Z</time></trkpt><trkpt lat="43.35693613901949" lon="10.792118365582283"><ele>58.0</ele><time>2026-04-18T11:12:00.002Z</time></trkpt><trkpt lat="43.3569892902051" lon="10.79185657258301"><ele>58.666666666666664</ele><time>2026-04-18T11:12:01.002Z</time></trkpt><trkpt lat="43.3570416272737" lon="10.791588893164304"><ele>59.33333333333333</ele><time>2026-04-18T11:12:02.002Z</time></trkpt><trkpt lat="43.35709064711983" lon="10.791314279448537"><ele>60.0</ele><time>2026-04-18T11:12:03.002Z</time></trkpt><trkpt lat="43.357134202416475" lon="10.791035330752903"><ele>59.66666666666667</ele><time>2026-04-18T11:12:04.001Z</time></trkpt><trkpt lat="43.35717184765541" lon="10.790753296651173"><ele>59.333333333333336</ele><time>2026-04-18T11:12:05.001Z</time></trkpt><trkpt lat="43.35720426722573" lon="10.790469150504418"><ele>59.0</ele><time>2026-04-18T11:12:06.001Z</time></trkpt><trkpt lat="43.3572306227024" lon="10.790183863116084"><ele>60.333333333333336</ele><time>2026-04-18T11:12:07.001Z</time></trkpt><trkpt lat="43.35725213755479" lon="10.789897536146823"><ele>61.66666666666667</ele><time>2026-04-18T11:12:08.001Z</time></trkpt><trkpt lat="43.357268101347024" lon="10.78961350809314"><ele>63.0</ele><time>2026-04-18T11:12:09.001Z</time></trkpt><trkpt lat="43.357279396828744" lon="10.789330317962726"><ele>64.0</ele><time>2026-04-18T11:12:10.001Z</time></trkpt><trkpt lat="43.35728484267617" lon="10.789046928935809"><ele>65.0</ele><time>2026-04-18T11:12:11.001Z</time></trkpt><trkpt lat="43.35728423027106" lon="10.788765072090936"><ele>66.0</ele><time>2026-04-18T11:12:12.001Z</time></trkpt><trkpt lat="43.35727808854553" lon="10.788485138408044"><ele>66.0</ele><time>2026-04-18T11:12:13.001Z</time></trkpt><trkpt lat="43.35726638475562" lon="10.788206360934078"><ele>66.0</ele><time>2026-04-18T11:12:14.001Z</time></trkpt><trkpt lat="43.35724944414698" lon="10.787927719291854"><ele>66.0</ele><time>2026-04-18T11:12:15.001Z</time></trkpt><trkpt lat="43.35722826576409" lon="10.787650152949295"><ele>65.0</ele><time>2026-04-18T11:12:16.001Z</time></trkpt><trkpt lat="43.357204361708476" lon="10.787371852565434"><ele>64.0</ele><time>2026-04-18T11:12:17.001Z</time></trkpt><trkpt lat="43.35717603299171" lon="10.7870945039331"><ele>63.0</ele><time>2026-04-18T11:12:18.001Z</time></trkpt><trkpt lat="43.3571425245004" lon="10.786817071121124"><ele>62.33333333333333</ele><time>2026-04-18T11:12:19.001Z</time></trkpt><trkpt lat="43.3571060438316" lon="10.786540524414594"><ele>61.666666666666664</ele><time>2026-04-18T11:12:20.001Z</time></trkpt><trkpt lat="43.35706749922032" lon="10.786263585216295"><ele>61.0</ele><time>2026-04-18T11:12:21.001Z</time></trkpt><trkpt lat="43.357026906396726" lon="10.785985377395503"><ele>61.0</ele><time>2026-04-18T11:12:22.001Z</time></trkpt><trkpt lat="43.35698411127404" lon="10.785705519226532"><ele>61.0</ele><time>2026-04-18T11:12:23.001Z</time></trkpt><trkpt lat="43.35694048577462" lon="10.785425824333704"><ele>61.0</ele><time>2026-04-18T11:12:24.001Z</time></trkpt><trkpt lat="43.356895459143324" lon="10.785144519136548"><ele>60.666666666666664</ele><time>2026-04-18T11:12:25.001Z</time></trkpt><trkpt lat="43.35685118693763" lon="10.784861429376663"><ele>60.33333333333333</ele><time>2026-04-18T11:12:26.001Z</time></trkpt><trkpt lat="43.35680859610623" lon="10.784577169219006"><ele>60.0</ele><time>2026-04-18T11:12:27.001Z</time></trkpt><trkpt lat="43.3567654740738" lon="10.784294309271436"><ele>60.0</ele><time>2026-04-18T11:12:28.001Z</time></trkpt><trkpt lat="43.356721094559234" lon="10.784017539865394"><ele>60.0</ele><time>2026-04-18T11:12:29.001Z</time></trkpt><trkpt lat="43.35667705468069" lon="10.783746282397018"><ele>60.0</ele><time>2026-04-18T11:12:30.001Z</time></trkpt><trkpt lat="43.35663424369485" lon="10.78347579483859"><ele>59.66666666666667</ele><time>2026-04-18T11:12:31.001Z</time></trkpt><trkpt lat="43.35659155414816" lon="10.783207718856213"><ele>59.333333333333336</ele><time>2026-04-18T11:12:32.001Z</time></trkpt><trkpt lat="43.35655137189066" lon="10.782937999229656"><ele>59.0</ele><time>2026-04-18T11:12:33.001Z</time></trkpt><trkpt lat="43.356521029153036" lon="10.782665594403209"><ele>59.0</ele><time>2026-04-18T11:12:34.001Z</time></trkpt><trkpt lat="43.356498746291706" lon="10.782389497167776"><ele>59.0</ele><time>2026-04-18T11:12:35.001Z</time></trkpt><trkpt lat="43.35648379082766" lon="10.782113192499711"><ele>59.0</ele><time>2026-04-18T11:12:36.001Z</time></trkpt><trkpt lat="43.356471947039005" lon="10.781834600953891"><ele>59.0</ele><time>2026-04-18T11:12:37.001Z</time></trkpt><trkpt lat="43.35646389218638" lon="10.781553349963657"><ele>59.0</ele><time>2026-04-18T11:12:38.001Z</time></trkpt><trkpt lat="43.35645599861272" lon="10.781270979323066"><ele>59.0</ele><time>2026-04-18T11:12:39.001Z</time></trkpt><trkpt lat="43.3564491841189" lon="10.78098701262109"><ele>59.333333333333336</ele><time>2026-04-18T11:12:40.001Z</time></trkpt><trkpt lat="43.35644284940947" lon="10.780703751559608"><ele>59.66666666666667</ele><time>2026-04-18T11:12:41.002Z</time></trkpt><trkpt lat="43.3564362736938" lon="10.780416906604941"><ele>60.0</ele><time>2026-04-18T11:12:42.002Z</time></trkpt><trkpt lat="43.35642813095597" lon="10.78013188979862"><ele>60.0</ele><time>2026-04-18T11:12:43.002Z</time></trkpt><trkpt lat="43.3564191489831" lon="10.77984861113642"><ele>60.0</ele><time>2026-04-18T11:12:44.002Z</time></trkpt><trkpt lat="43.35640953442348" lon="10.779566402962814"><ele>60.0</ele><time>2026-04-18T11:12:45.002Z</time></trkpt><trkpt lat="43.35639602988247" lon="10.779286305642307"><ele>59.33333333333333</ele><time>2026-04-18T11:12:46.002Z</time></trkpt><trkpt lat="43.356374768845725" lon="10.779008612582238"><ele>58.666666666666664</ele><time>2026-04-18T11:12:47.002Z</time></trkpt><trkpt lat="43.356340836864966" lon="10.778735426331796"><ele>58.0</ele><time>2026-04-18T11:12:48.002Z</time></trkpt><trkpt lat="43.35629302593178" lon="10.778466590297482"><ele>58.0</ele><time>2026-04-18T11:12:49.002Z</time></trkpt><trkpt lat="43.35622822464967" lon="10.778202660862414"><ele>58.0</ele><time>2026-04-18T11:12:50.002Z</time></trkpt><trkpt lat="43.356145688062824" lon="10.777950673270189"><ele>58.0</ele><time>2026-04-18T11:12:51.002Z</time></trkpt><trkpt lat="43.35604707997772" lon="10.7777088467461"><ele>59.33333333333333</ele><time>2026-04-18T11:12:52.002Z</time></trkpt><trkpt lat="43.35593260661808" lon="10.777476911634736"><ele>60.66666666666667</ele><time>2026-04-18T11:12:53.002Z</time></trkpt><trkpt lat="43.35582191005963" lon="10.777243158236054"><ele>62.0</ele><time>2026-04-18T11:12:54.002Z</time></trkpt><trkpt lat="43.355710596017346" lon="10.77701475706768"><ele>60.5</ele><time>2026-04-18T11:12:55.002Z</time></trkpt><trkpt lat="43.35559665872269" lon="10.776796332066503"><ele>59.0</ele><time>2026-04-18T11:12:56.002Z</time></trkpt><trkpt lat="43.35532682812013" lon="10.776730992924648"><ele>59.0</ele><time>2026-04-18T11:12:57.002Z</time></trkpt><trkpt lat="43.35514737784296" lon="10.776602762634488"><ele>59.0</ele><time>2026-04-18T11:12:58.002Z</time></trkpt><trkpt lat="43.35496920553633" lon="10.77649212544589"><ele>59.0</ele><time>2026-04-18T11:12:59.002Z</time></trkpt><trkpt lat="43.354799843584196" lon="10.77638749154343"><ele>58.333333333333336</ele><time>2026-04-18T11:13:00.002Z</time></trkpt><trkpt lat="43.35464132292587" lon="10.776287626410982"><ele>57.66666666666667</ele><time>2026-04-18T11:13:01.002Z</time></trkpt><trkpt lat="43.35449248287562" lon="10.776193681712728"><ele>57.0</ele><time>2026-04-18T11:13:02.002Z</time></trkpt><trkpt lat="43.354349438521986" lon="10.776106834115566"><ele>57.0</ele><time>2026-04-18T11:13:03.002Z</time></trkpt><trkpt lat="43.35420606814316" lon="10.776022252844703"><ele>57.0</ele><time>2026-04-18T11:13:04.002Z</time></trkpt><trkpt lat="43.354061641139054" lon="10.775931332158317"><ele>57.0</ele><time>2026-04-18T11:13:05.002Z</time></trkpt><trkpt lat="43.353921595460314" lon="10.775827091305196"><ele>56.66666666666667</ele><time>2026-04-18T11:13:06.002Z</time></trkpt><trkpt lat="43.35378565292553" lon="10.775702609739003"><ele>56.333333333333336</ele><time>2026-04-18T11:13:07.002Z</time></trkpt><trkpt lat="43.35365711626544" lon="10.77555724830491"><ele>56.0</ele><time>2026-04-18T11:13:08.002Z</time></trkpt><trkpt lat="43.35353922942074" lon="10.775391285710864"><ele>56.0</ele><time>2026-04-18T11:13:09.002Z</time></trkpt><trkpt lat="43.35343016918616" lon="10.775210403694373"><ele>56.0</ele><time>2026-04-18T11:13:10.002Z</time></trkpt><trkpt lat="43.353322950596535" lon="10.775024785173434"><ele>56.0</ele><time>2026-04-18T11:13:11.002Z</time></trkpt><trkpt lat="43.35321357502397" lon="10.774836253515636"><ele>56.0</ele><time>2026-04-18T11:13:12.002Z</time></trkpt><trkpt lat="43.353101073197536" lon="10.774645095222057"><ele>56.0</ele><time>2026-04-18T11:13:13.002Z</time></trkpt><trkpt lat="43.352985401532806" lon="10.774452212750052"><ele>56.0</ele><time>2026-04-18T11:13:14.002Z</time></trkpt><trkpt lat="43.35286778709173" lon="10.774258491990318"><ele>56.0</ele><time>2026-04-18T11:13:15.002Z</time></trkpt><trkpt lat="43.35275000453928" lon="10.774059199566361"><ele>56.0</ele><time>2026-04-18T11:13:16.002Z</time></trkpt><trkpt lat="43.352632825308575" lon="10.773857310829637"><ele>56.0</ele><time>2026-04-18T11:13:17.002Z</time></trkpt><trkpt lat="43.35251492329092" lon="10.773654400025546"><ele>56.333333333333336</ele><time>2026-04-18T11:13:18.002Z</time></trkpt><trkpt lat="43.352397711338746" lon="10.77345040464528"><ele>56.66666666666667</ele><time>2026-04-18T11:13:19.002Z</time></trkpt><trkpt lat="43.352281070737746" lon="10.773244335731873"><ele>57.0</ele><time>2026-04-18T11:13:20.002Z</time></trkpt><trkpt lat="43.35216280184214" lon="10.773036514058468"><ele>56.33333333333333</ele><time>2026-04-18T11:13:21.002Z</time></trkpt><trkpt lat="43.352043313956145" lon="10.772827231780616"><ele>55.666666666666664</ele><time>2026-04-18T11:13:22.002Z</time></trkpt><trkpt lat="43.35192266935555" lon="10.772619585837742"><ele>55.0</ele><time>2026-04-18T11:13:23.002Z</time></trkpt><trkpt lat="43.35180093846741" lon="10.772412932694607"><ele>55.0</ele><time>2026-04-18T11:13:24.002Z</time></trkpt><trkpt lat="43.35167937003751" lon="10.77220390424092"><ele>55.0</ele><time>2026-04-18T11:13:25.002Z</time></trkpt><trkpt lat="43.35155771029564" lon="10.77199677799537"><ele>55.0</ele><time>2026-04-18T11:13:26.002Z</time></trkpt><trkpt lat="43.351434775713116" lon="10.77178867232531"><ele>54.666666666666664</ele><time>2026-04-18T11:13:27.002Z</time></trkpt><trkpt lat="43.35131276407222" lon="10.77158113379459"><ele>54.33333333333333</ele><time>2026-04-18T11:13:28.002Z</time></trkpt><trkpt lat="43.35119161220237" lon="10.771372542246738"><ele>54.0</ele><time>2026-04-18T11:13:29.002Z</time></trkpt><trkpt lat="43.35106978663753" lon="10.771165406311333"><ele>55.0</ele><time>2026-04-18T11:13:30.002Z</time></trkpt><trkpt lat="43.35094946730095" lon="10.770960817918729"><ele>56.0</ele><time>2026-04-18T11:13:31.002Z</time></trkpt><trkpt lat="43.35083535898527" lon="10.770754709934655"><ele>57.0</ele><time>2026-04-18T11:13:32.002Z</time></trkpt><trkpt lat="43.350725362280116" lon="10.77054282338548"><ele>57.0</ele><time>2026-04-18T11:13:33.002Z</time></trkpt><trkpt lat="43.350616566836365" lon="10.77032641377499"><ele>57.0</ele><time>2026-04-18T11:13:34.002Z</time></trkpt><trkpt lat="43.35050559295528" lon="10.770104766199054"><ele>57.0</ele><time>2026-04-18T11:13:35.002Z</time></trkpt><trkpt lat="43.350393123578755" lon="10.76988056210227"><ele>56.66666666666667</ele><time>2026-04-18T11:13:36.002Z</time></trkpt><trkpt lat="43.35027943439571" lon="10.769653746080325"><ele>56.333333333333336</ele><time>2026-04-18T11:13:37.002Z</time></trkpt><trkpt lat="43.35016425784078" lon="10.769424707824685"><ele>56.0</ele><time>2026-04-18T11:13:38.002Z</time></trkpt><trkpt lat="43.3500477861089" lon="10.769195097739457"><ele>56.0</ele><time>2026-04-18T11:13:39.002Z</time></trkpt><trkpt lat="43.34993210638373" lon="10.768966323896834"><ele>56.0</ele><time>2026-04-18T11:13:40.002Z</time></trkpt><trkpt lat="43.34982086877944" lon="10.768738060610419"><ele>56.0</ele><time>2026-04-18T11:13:41.002Z</time></trkpt><trkpt lat="43.34972026952876" lon="10.768507004994472"><ele>55.66666666666667</ele><time>2026-04-18T11:13:42.002Z</time></trkpt><trkpt lat="43.3496364672586" lon="10.768269452776027"><ele>55.33333333333333</ele><time>2026-04-18T11:13:43.002Z</time></trkpt><trkpt lat="43.34957267131062" lon="10.7680220102278"><ele>55.0</ele><time>2026-04-18T11:13:44.002Z</time></trkpt><trkpt lat="43.349529098523504" lon="10.767771152902249"><ele>55.0</ele><time>2026-04-18T11:13:45.002Z</time></trkpt><trkpt lat="43.3494976460313" lon="10.767525671231041"><ele>55.0</ele><time>2026-04-18T11:13:46.002Z</time></trkpt><trkpt lat="43.34948128004843" lon="10.767290660544136"><ele>55.0</ele><time>2026-04-18T11:13:47.002Z</time></trkpt><trkpt lat="43.34948236657601" lon="10.767075522561145"><ele>55.0</ele><time>2026-04-18T11:13:48.002Z</time></trkpt><trkpt lat="43.34949682072554" lon="10.766872290386479"><ele>55.0</ele><time>2026-04-18T11:13:49.002Z</time></trkpt><trkpt lat="43.3495023443505" lon="10.766674493956028"><ele>55.0</ele><time>2026-04-18T11:13:50.002Z</time></trkpt><trkpt lat="43.34948157478326" lon="10.766469759652447"><ele>55.0</ele><time>2026-04-18T11:13:51.002Z</time></trkpt><trkpt lat="43.34941963268336" lon="10.766286662508783"><ele>55.33333333333333</ele><time>2026-04-18T11:13:52.002Z</time></trkpt><trkpt lat="43.349326095032104" lon="10.7661196759852"><ele>55.66666666666667</ele><time>2026-04-18T11:13:53.002Z</time></trkpt><trkpt lat="43.349216104493074" lon="10.76596134597493"><ele>56.0</ele><time>2026-04-18T11:13:54.002Z</time></trkpt><trkpt lat="43.349101675946216" lon="10.765798440349542"><ele>56.0</ele><time>2026-04-18T11:13:55.002Z</time></trkpt><trkpt lat="43.34898555987703" lon="10.765626323416058"><ele>56.0</ele><time>2026-04-18T11:13:56.003Z</time></trkpt><trkpt lat="43.348874272906684" lon="10.765441461621934"><ele>56.0</ele><time>2026-04-18T11:13:57.003Z</time></trkpt><trkpt lat="43.34876646799478" lon="10.765249592259165"><ele>57.333333333333336</ele><time>2026-04-18T11:13:58.003Z</time></trkpt><trkpt lat="43.34866443118516" lon="10.765050241175954"><ele>58.66666666666667</ele><time>2026-04-18T11:13:59.003Z</time></trkpt><trkpt lat="43.348573792772164" lon="10.764840339095214"><ele>60.0</ele><time>2026-04-18T11:14:00.001Z</time></trkpt><trkpt lat="43.3484934057897" lon="10.764618913113528"><ele>60.0</ele><time>2026-04-18T11:14:01.001Z</time></trkpt><trkpt lat="43.34841940268899" lon="10.764390282446577"><ele>60.0</ele><time>2026-04-18T11:14:02.001Z</time></trkpt><trkpt lat="43.34834616167719" lon="10.764157940761459"><ele>60.0</ele><time>2026-04-18T11:14:03.001Z</time></trkpt><trkpt lat="43.34827146992808" lon="10.763924493728776"><ele>61.66666666666667</ele><time>2026-04-18T11:14:04.001Z</time></trkpt><trkpt lat="43.348196924777106" lon="10.763690790581428"><ele>63.333333333333336</ele><time>2026-04-18T11:14:05.001Z</time></trkpt><trkpt lat="43.34812261579246" lon="10.76345902368133"><ele>65.0</ele><time>2026-04-18T11:14:06.001Z</time></trkpt><trkpt lat="43.348049659501555" lon="10.76323006702788"><ele>63.0</ele><time>2026-04-18T11:14:07.001Z</time></trkpt><trkpt lat="43.347976662852105" lon="10.762997771690536"><ele>61.0</ele><time>2026-04-18T11:14:08.001Z</time></trkpt><trkpt lat="43.3479029831982" lon="10.762762864105076"><ele>59.0</ele><time>2026-04-18T11:14:09.001Z</time></trkpt><trkpt lat="43.34783578252905" lon="10.762523578172729"><ele>59.0</ele><time>2026-04-18T11:14:10.001Z</time></trkpt><trkpt lat="43.347780177758246" lon="10.76227727603676"><ele>59.0</ele><time>2026-04-18T11:14:11.001Z</time></trkpt><trkpt lat="43.34773541898902" lon="10.762024351296706"><ele>59.0</ele><time>2026-04-18T11:14:12.001Z</time></trkpt><trkpt lat="43.34769933906933" lon="10.761768147681618"><ele>59.0</ele><time>2026-04-18T11:14:13.001Z</time></trkpt><trkpt lat="43.34766701582453" lon="10.761509654768018"><ele>59.0</ele><time>2026-04-18T11:14:14.001Z</time></trkpt><trkpt lat="43.34763646846411" lon="10.761250252526853"><ele>59.0</ele><time>2026-04-18T11:14:15.001Z</time></trkpt><trkpt lat="43.347609122896124" lon="10.760990417332039"><ele>58.66666666666667</ele><time>2026-04-18T11:14:16.001Z</time></trkpt><trkpt lat="43.34758140035523" lon="10.760731774704572"><ele>58.33333333333333</ele><time>2026-04-18T11:14:17.001Z</time></trkpt><trkpt lat="43.34755535699745" lon="10.7604765766908"><ele>58.0</ele><time>2026-04-18T11:14:18.001Z</time></trkpt><trkpt lat="43.34752713191813" lon="10.760225366395401"><ele>57.33333333333333</ele><time>2026-04-18T11:14:19.001Z</time></trkpt><trkpt lat="43.34748428349656" lon="10.759982797411423"><ele>56.66666666666667</ele><time>2026-04-18T11:14:20.001Z</time></trkpt><trkpt lat="43.34742435041909" lon="10.759752409479821"><ele>56.0</ele><time>2026-04-18T11:14:21.001Z</time></trkpt><trkpt lat="43.34734906772202" lon="10.759534867285938"><ele>56.333333333333336</ele><time>2026-04-18T11:14:22.001Z</time></trkpt><trkpt lat="43.34726452366704" lon="10.759325258952193"><ele>56.66666666666667</ele><time>2026-04-18T11:14:23.001Z</time></trkpt><trkpt lat="43.34717089776644" lon="10.759122391933154"><ele>57.0</ele><time>2026-04-18T11:14:24.001Z</time></trkpt><trkpt lat="43.347074597582754" lon="10.758920712669072"><ele>57.0</ele><time>2026-04-18T11:14:25.001Z</time></trkpt><trkpt lat="43.34697070367102" lon="10.758723818443944"><ele>57.0</ele><time>2026-04-18T11:14:26.001Z</time></trkpt><trkpt lat="43.346864697163795" lon="10.758526526781763"><ele>57.0</ele><time>2026-04-18T11:14:27.001Z</time></trkpt><trkpt lat="43.346757506091244" lon="10.758328590710835"><ele>58.33333333333333</ele><time>2026-04-18T11:14:28.001Z</time></trkpt><trkpt lat="43.34665016314486" lon="10.758132802197892"><ele>59.666666666666664</ele><time>2026-04-18T11:14:29.001Z</time></trkpt><trkpt lat="43.34654428415187" lon="10.757938918945403"><ele>61.0</ele><time>2026-04-18T11:14:30.001Z</time></trkpt><trkpt lat="43.34644027546019" lon="10.7577462927939"><ele>59.666666666666664</ele><time>2026-04-18T11:14:31.001Z</time></trkpt><trkpt lat="43.346337366909154" lon="10.757556288341895"><ele>58.33333333333333</ele><time>2026-04-18T11:14:32.001Z</time></trkpt><trkpt lat="43.346234446355844" lon="10.757368041176091"><ele>57.0</ele><time>2026-04-18T11:14:33.001Z</time></trkpt><trkpt lat="43.346128823103044" lon="10.757183796232738"><ele>57.0</ele><time>2026-04-18T11:14:34.001Z</time></trkpt><trkpt lat="43.34601925973926" lon="10.757006137752056"><ele>57.0</ele><time>2026-04-18T11:14:35.001Z</time></trkpt><trkpt lat="43.345904563969064" lon="10.756837753625668"><ele>57.0</ele><time>2026-04-18T11:14:36.001Z</time></trkpt><trkpt lat="43.34578811709719" lon="10.756675912554257"><ele>57.0</ele><time>2026-04-18T11:14:37.001Z</time></trkpt><trkpt lat="43.345669888101455" lon="10.75652192873053"><ele>57.0</ele><time>2026-04-18T11:14:38.001Z</time></trkpt><trkpt lat="43.3455531789406" lon="10.756375911598372"><ele>57.0</ele><time>2026-04-18T11:14:39.001Z</time></trkpt><trkpt lat="43.345444973104506" lon="10.756241409046444"><ele>56.8</ele><time>2026-04-18T11:14:40.001Z</time></trkpt><trkpt lat="43.34535199562693" lon="10.75612493548972"><ele>56.6</ele><time>2026-04-18T11:14:41.001Z</time></trkpt><trkpt lat="43.345276625226354" lon="10.756027346345038"><ele>56.39999999999999</ele><time>2026-04-18T11:14:42.001Z</time></trkpt><trkpt lat="43.345225237423264" lon="10.755944144533606"><ele>56.199999999999996</ele><time>2026-04-18T11:14:43.001Z</time></trkpt><trkpt lat="43.34518995135381" lon="10.75579293923191"><ele>56.0</ele><time>2026-04-18T11:14:45.001Z</time></trkpt><trkpt lat="43.34523067749837" lon="10.755645615082674"><ele>56.0</ele><time>2026-04-18T11:14:47.001Z</time></trkpt><trkpt lat="43.34526358399189" lon="10.755565851179364"><ele>56.0</ele><time>2026-04-18T11:14:48.001Z</time></trkpt><trkpt lat="43.34528107758802" lon="10.755476125883982"><ele>56.0</ele><time>2026-04-18T11:14:49.001Z</time></trkpt><trkpt lat="43.34527594802269" lon="10.755380993409114"><ele>56.0</ele><time>2026-04-18T11:14:50.001Z</time></trkpt><trkpt lat="43.34524450394097" lon="10.755294100194337"><ele>56.0</ele><time>2026-04-18T11:14:51.001Z</time></trkpt><trkpt lat="43.34518939365597" lon="10.755224183887615"><ele>56.0</ele><time>2026-04-18T11:14:52.001Z</time></trkpt><trkpt lat="43.34511821105339" lon="10.755171467790277"><ele>56.0</ele><time>2026-04-18T11:14:53.001Z</time></trkpt><trkpt lat="43.34504043694969" lon="10.755109148506927"><ele>56.0</ele><time>2026-04-18T11:14:54.001Z</time></trkpt><trkpt lat="43.344966250802386" lon="10.755022216785855"><ele>55.99999999999999</ele><time>2026-04-18T11:14:55.001Z</time></trkpt><trkpt lat="43.34490782934938" lon="10.754907444965774"><ele>55.99999999999999</ele><time>2026-04-18T11:14:56.001Z</time></trkpt><trkpt lat="43.34486530377582" lon="10.754763815030998"><ele>56.0</ele><time>2026-04-18T11:14:57.001Z</time></trkpt><trkpt lat="43.34483151485941" lon="10.754605231919873"><ele>56.0</ele><time>2026-04-18T11:14:58.001Z</time></trkpt><trkpt lat="43.34478943259885" lon="10.754440133997834"><ele>56.25</ele><time>2026-04-18T11:14:59.001Z</time></trkpt><trkpt lat="43.344743304942746" lon="10.754278607672672"><ele>56.5</ele><time>2026-04-18T11:15:00.001Z</time></trkpt><trkpt lat="43.34471104625903" lon="10.754112859097734"><ele>56.75</ele><time>2026-04-18T11:15:01.001Z</time></trkpt><trkpt lat="43.34466471326128" lon="10.753966920185183"><ele>57.0</ele><time>2026-04-18T11:15:02.001Z</time></trkpt><trkpt lat="43.34461478985315" lon="10.75384442826088"><ele>57.0</ele><time>2026-04-18T11:15:03.001Z</time></trkpt><trkpt lat="43.34456119241609" lon="10.75375713081152"><ele>57.0</ele><time>2026-04-18T11:15:04.001Z</time></trkpt><trkpt lat="43.344526095251986" lon="10.75363154553766"><ele>57.0</ele><time>2026-04-18T11:15:06.001Z</time></trkpt><trkpt lat="43.34455947903706" lon="10.753539168091859"><ele>57.0</ele><time>2026-04-18T11:15:09.002Z</time></trkpt><trkpt lat="43.344519342825976" lon="10.753441678117643"><ele>57.0</ele><time>2026-04-18T11:15:13.002Z</time></trkpt><trkpt lat="43.344485270181096" lon="10.753355469165173"><ele>57.0</ele><time>2026-04-18T11:15:15.002Z</time></trkpt><trkpt lat="43.34443666186475" lon="10.753271928325207"><ele>57.0</ele><time>2026-04-18T11:15:17.002Z</time></trkpt><trkpt lat="43.34439116702922" lon="10.75319981250809"><ele>56.99999999999999</ele><time>2026-04-18T11:15:19.002Z</time></trkpt><trkpt lat="43.34433912123125" lon="10.75311885572257"><ele>57.0</ele><time>2026-04-18T11:15:22.002Z</time></trkpt><trkpt lat="43.34429257251612" lon="10.753044765789701"><ele>57.0</ele><time>2026-04-18T11:15:26.002Z</time></trkpt><trkpt lat="43.34427887393118" lon="10.752918760625953"><ele>56.99999999999999</ele><time>2026-04-18T11:15:33.002Z</time></trkpt><trkpt lat="43.34429120615836" lon="10.752822145194575"><ele>57.0</ele><time>2026-04-18T11:15:37.002Z</time></trkpt><trkpt lat="43.344269923191526" lon="10.752903744300358"><ele>57.0</ele><time>2026-04-18T11:16:54.001Z</time></trkpt><trkpt lat="43.34428359884837" lon="10.753002788468013"><ele>57.0</ele><time>2026-04-18T11:17:31.001Z</time></trkpt><trkpt lat="43.34431861281908" lon="10.753084926426618"><ele>57.0</ele><time>2026-04-18T11:17:42.001Z</time></trkpt><trkpt lat="43.344356177461115" lon="10.753163515808762"><ele>57.0</ele><time>2026-04-18T11:17:51.002Z</time></trkpt><trkpt lat="43.344403210625565" lon="10.753233341866741"><ele>57.0</ele><time>2026-04-18T11:17:58.002Z</time></trkpt><trkpt lat="43.344456005932635" lon="10.753301427145722"><ele>57.0</ele><time>2026-04-18T11:18:05.002Z</time></trkpt><trkpt lat="43.34449765935357" lon="10.753370270250562"><ele>57.0</ele><time>2026-04-18T11:18:11.002Z</time></trkpt><trkpt lat="43.34454849756711" lon="10.753430474534257"><ele>57.0</ele><time>2026-04-18T11:18:19.001Z</time></trkpt></trkseg><trkseg><trkpt lat="43.34464631478553" lon="10.753551149032083"><ele>54.99999999999999</ele><time>2026-04-18T11:32:24.001Z</time></trkpt><trkpt lat="43.3445872585208" lon="10.753604281217571"><ele>55.0</ele><time>2026-04-18T11:58:46.999Z</time></trkpt><trkpt lat="43.344525848268745" lon="10.753541616696406"><ele>55.0</ele><time>2026-04-18T11:58:52.999Z</time></trkpt><trkpt lat="43.34447696615818" lon="10.753603951873432"><ele>55.0</ele><time>2026-04-18T11:59:09.999Z</time></trkpt><trkpt lat="43.34444875285893" lon="10.753514942201994"><ele>54.99999999999999</ele><time>2026-04-18T11:59:24.999Z</time></trkpt><trkpt lat="43.34444365057713" lon="10.753638884835306"><ele>55.0</ele><time>2026-04-18T11:59:40.999Z</time></trkpt><trkpt lat="43.34439460302752" lon="10.753783826728935"><ele>55.0</ele><time>2026-04-18T11:59:50.999Z</time></trkpt><trkpt lat="43.3443287428516" lon="10.753683356507894"><ele>55.0</ele><time>2026-04-18T11:59:52.999Z</time></trkpt><trkpt lat="43.34459198073266" lon="10.753749919750677"><ele>55.0</ele><time>2026-04-18T12:00:32.999Z</time></trkpt><trkpt lat="43.34461465733493" lon="10.75366526841672"><ele>55.0</ele><time>2026-04-18T12:00:42.999Z</time></trkpt><trkpt lat="43.34466235133035" lon="10.75358086749421"><ele>55.0</ele><time>2026-04-18T12:01:11.999Z</time></trkpt><trkpt lat="43.34461902321782" lon="10.753771619108036"><ele>55.0</ele><time>2026-04-18T12:02:01Z</time></trkpt><trkpt lat="43.3445546916852" lon="10.7537291322027"><ele>55.0</ele><time>2026-04-18T12:02:11Z</time></trkpt><trkpt lat="43.34461889601382" lon="10.753549547411192"><ele>55.0</ele><time>2026-04-18T12:02:42Z</time></trkpt><trkpt lat="43.34466814426559" lon="10.753448611802696"><ele>55.33333333333333</ele><time>2026-04-18T12:04:12Z</time></trkpt><trkpt lat="43.34466977459876" lon="10.753321668602128"><ele>55.666666666666664</ele><time>2026-04-18T12:04:19Z</time></trkpt><trkpt lat="43.344663932917186" lon="10.753170317333497"><ele>56.0</ele><time>2026-04-18T12:04:35Z</time></trkpt><trkpt lat="43.34468373006484" lon="10.753254485839994"><ele>56.33333333333333</ele><time>2026-04-18T12:04:46Z</time></trkpt><trkpt lat="43.34466299141146" lon="10.753361962371583"><ele>56.666666666666664</ele><time>2026-04-18T12:04:48Z</time></trkpt><trkpt lat="43.344608688824394" lon="10.753441119565148"><ele>57.0</ele><time>2026-04-18T12:04:51Z</time></trkpt><trkpt lat="43.34460522043586" lon="10.753536276057716"><ele>57.0</ele><time>2026-04-18T12:04:55Z</time></trkpt><trkpt lat="43.344634017137814" lon="10.753455452932162"><ele>56.99999999999999</ele><time>2026-04-18T12:05:25Z</time></trkpt><trkpt lat="43.3445643466552" lon="10.753477770580853"><ele>57.0</ele><time>2026-04-18T12:06:06Z</time></trkpt><trkpt lat="43.34460679728014" lon="10.753546108082817"><ele>57.0</ele><time>2026-04-18T12:06:12Z</time></trkpt><trkpt lat="43.3445573889866" lon="10.753471066350306"><ele>56.99999999999999</ele><time>2026-04-18T12:17:23Z</time></trkpt><trkpt lat="43.34450160730258" lon="10.753414413233507"><ele>57.0</ele><time>2026-04-18T12:17:29Z</time></trkpt><trkpt lat="43.34444375461551" lon="10.75334172602123"><ele>57.0</ele><time>2026-04-18T12:17:35Z</time></trkpt><trkpt lat="43.34440275646552" lon="10.753263773387951"><ele>57.0</ele><time>2026-04-18T12:17:41Z</time></trkpt><trkpt lat="43.34436501313736" lon="10.753186430916195"><ele>56.99999999999999</ele><time>2026-04-18T12:17:47Z</time></trkpt><trkpt lat="43.344323760059254" lon="10.75311591194371"><ele>57.0</ele><time>2026-04-18T12:17:52Z</time></trkpt><trkpt lat="43.34429200765332" lon="10.75303188756763"><ele>57.0</ele><time>2026-04-18T12:17:57Z</time></trkpt><trkpt lat="43.34427042963023" lon="10.752942691378943"><ele>56.99999999999999</ele><time>2026-04-18T12:18:03Z</time></trkpt><trkpt lat="43.34428895090746" lon="10.752823566330578"><ele>57.0</ele><time>2026-04-18T12:18:22Z</time></trkpt><trkpt lat="43.344233357341146" lon="10.75277200355968"><ele>57.0</ele><time>2026-04-18T12:18:28Z</time></trkpt><trkpt lat="43.344163584487774" lon="10.75274073680538"><ele>57.0</ele><time>2026-04-18T12:18:34Z</time></trkpt><trkpt lat="43.34410138194786" lon="10.752700368798386"><ele>56.99999999999999</ele><time>2026-04-18T12:18:40Z</time></trkpt><trkpt lat="43.34416507261066" lon="10.752736767350934"><ele>57.0</ele><time>2026-04-18T12:19:44Z</time></trkpt><trkpt lat="43.34422982646945" lon="10.752739578667349"><ele>57.0</ele><time>2026-04-18T12:19:52Z</time></trkpt><trkpt lat="43.34427106136861" lon="10.75281335026773"><ele>56.99999999999999</ele><time>2026-04-18T12:20:56.999Z</time></trkpt><trkpt lat="43.34433715996083" lon="10.752833434230011"><ele>57.0</ele><time>2026-04-18T12:21:24.997Z</time></trkpt><trkpt lat="43.34431770887956" lon="10.752918212205278"><ele>57.0</ele><time>2026-04-18T12:21:29.997Z</time></trkpt><trkpt lat="43.34427072790052" lon="10.752978825459586"><ele>57.0</ele><time>2026-04-18T12:21:34.998Z</time></trkpt><trkpt lat="43.3442023319437" lon="10.752985094015473"><ele>56.99999999999999</ele><time>2026-04-18T12:21:50.998Z</time></trkpt><trkpt lat="43.34424130196873" lon="10.753063953452218"><ele>57.0</ele><time>2026-04-18T12:22:19.998Z</time></trkpt><trkpt lat="43.34429865023836" lon="10.753115731732048"><ele>57.0</ele><time>2026-04-18T12:22:24.998Z</time></trkpt><trkpt lat="43.34435097567927" lon="10.753183000294928"><ele>56.99999999999999</ele><time>2026-04-18T12:22:30.998Z</time></trkpt><trkpt lat="43.34440024926583" lon="10.75325346496203"><ele>57.0</ele><time>2026-04-18T12:22:36.998Z</time></trkpt><trkpt lat="43.34444971252626" lon="10.753315239492178"><ele>57.0</ele><time>2026-04-18T12:22:42.998Z</time></trkpt><trkpt lat="43.34448575723251" lon="10.753399468090219"><ele>57.0</ele><time>2026-04-18T12:22:48.998Z</time></trkpt><trkpt lat="43.34456204589027" lon="10.753498521799617"><ele>57.0</ele><time>2026-04-18T12:22:57.998Z</time></trkpt><trkpt lat="43.34457740146517" lon="10.75358657844036"><ele>57.0</ele><time>2026-04-18T12:23:04.998Z</time></trkpt><trkpt lat="43.344551527273815" lon="10.753499073195172"><ele>57.0</ele><time>2026-04-18T12:40:21.001Z</time></trkpt><trkpt lat="43.344503283206016" lon="10.75342058677051"><ele>57.0</ele><time>2026-04-18T12:40:35Z</time></trkpt><trkpt lat="43.34445128294978" lon="10.75335149717211"><ele>57.0</ele><time>2026-04-18T12:40:40Z</time></trkpt><trkpt lat="43.3443984940799" lon="10.753278931952721"><ele>57.0</ele><time>2026-04-18T12:40:47Z</time></trkpt><trkpt lat="43.34435808107386" lon="10.753203384894126"><ele>57.0</ele><time>2026-04-18T12:40:54Z</time></trkpt><trkpt lat="43.3443051831188" lon="10.75313070698411"><ele>57.0</ele><time>2026-04-18T12:41:01Z</time></trkpt><trkpt lat="43.34425953812765" lon="10.753070657741539"><ele>57.0</ele><time>2026-04-18T12:41:12Z</time></trkpt><trkpt lat="43.34419754364026" lon="10.753012232658863"><ele>57.0</ele><time>2026-04-18T12:41:43Z</time></trkpt><trkpt lat="43.344305274647446" lon="10.753042338470232"><ele>57.0</ele><time>2026-04-18T12:45:51.999Z</time></trkpt><trkpt lat="43.344360105608196" lon="10.753120959087607"><ele>57.0</ele><time>2026-04-18T12:45:54.999Z</time></trkpt><trkpt lat="43.344406839246176" lon="10.753220206943778"><ele>57.0</ele><time>2026-04-18T12:45:57.999Z</time></trkpt><trkpt lat="43.3444527752383" lon="10.753307868354522"><ele>57.0</ele><time>2026-04-18T12:46:00.999Z</time></trkpt><trkpt lat="43.34450009956308" lon="10.75337592733165"><ele>57.0</ele><time>2026-04-18T12:46:03.999Z</time></trkpt><trkpt lat="43.34453589777683" lon="10.753457151635804"><ele>57.0</ele><time>2026-04-18T12:46:06.999Z</time></trkpt><trkpt lat="43.344504065103685" lon="10.753547796486806"><ele>57.0</ele><time>2026-04-18T12:46:09.999Z</time></trkpt><trkpt lat="43.344399594958055" lon="10.753498666555439"><ele>57.0</ele><time>2026-04-18T12:46:12.999Z</time></trkpt><trkpt lat="43.34435624286688" lon="10.753428708456507"><ele>57.0</ele><time>2026-04-18T12:46:13.999Z</time></trkpt><trkpt lat="43.34429944516736" lon="10.7533390973463"><ele>57.0</ele><time>2026-04-18T12:46:14.999Z</time></trkpt><trkpt lat="43.344242465016436" lon="10.753245961020806"><ele>57.0</ele><time>2026-04-18T12:46:15.999Z</time></trkpt><trkpt lat="43.3441754583442" lon="10.753157821151849"><ele>57.0</ele><time>2026-04-18T12:46:16.999Z</time></trkpt><trkpt lat="43.344107000834185" lon="10.753063399724313"><ele>57.0</ele><time>2026-04-18T12:46:17.999Z</time></trkpt><trkpt lat="43.34403702212055" lon="10.752970299671574"><ele>57.0</ele><time>2026-04-18T12:46:18.999Z</time></trkpt><trkpt lat="43.343966171708864" lon="10.752872160171213"><ele>57.0</ele><time>2026-04-18T12:46:19.999Z</time></trkpt><trkpt lat="43.34391151957535" lon="10.752740878712904"><ele>57.0</ele><time>2026-04-18T12:46:20.999Z</time></trkpt><trkpt lat="43.34383863226293" lon="10.75263384384816"><ele>57.0</ele><time>2026-04-18T12:46:21.999Z</time></trkpt><trkpt lat="43.34376137202952" lon="10.752521649645502"><ele>57.0</ele><time>2026-04-18T12:46:22.999Z</time></trkpt><trkpt lat="43.34368262160403" lon="10.752407142013928"><ele>56.75</ele><time>2026-04-18T12:46:23.999Z</time></trkpt><trkpt lat="43.343600610487286" lon="10.75228789308322"><ele>56.5</ele><time>2026-04-18T12:46:24.999Z</time></trkpt><trkpt lat="43.343515836048816" lon="10.752166044318207"><ele>56.25</ele><time>2026-04-18T12:46:25.999Z</time></trkpt><trkpt lat="43.34342733482465" lon="10.752039421178493"><ele>56.0</ele><time>2026-04-18T12:46:26.999Z</time></trkpt><trkpt lat="43.34333614954865" lon="10.75190895954142"><ele>56.25</ele><time>2026-04-18T12:46:27.999Z</time></trkpt><trkpt lat="43.34324295839126" lon="10.75177343351291"><ele>56.5</ele><time>2026-04-18T12:46:28.999Z</time></trkpt><trkpt lat="43.34314795862049" lon="10.751635735056865"><ele>56.75</ele><time>2026-04-18T12:46:29.999Z</time></trkpt><trkpt lat="43.343051926029794" lon="10.751496539546642"><ele>57.0</ele><time>2026-04-18T12:46:30.999Z</time></trkpt><trkpt lat="43.342954700299885" lon="10.751355039010164"><ele>56.75</ele><time>2026-04-18T12:46:31.999Z</time></trkpt><trkpt lat="43.342856166802164" lon="10.751211305427061"><ele>56.5</ele><time>2026-04-18T12:46:32.999Z</time></trkpt><trkpt lat="43.342758088682814" lon="10.75106823609736"><ele>56.25</ele><time>2026-04-18T12:46:33.999Z</time></trkpt><trkpt lat="43.34265842193062" lon="10.750922849459169"><ele>56.0</ele><time>2026-04-18T12:46:34.999Z</time></trkpt><trkpt lat="43.34255926399782" lon="10.750778204983412"><ele>56.0</ele><time>2026-04-18T12:46:35.999Z</time></trkpt><trkpt lat="43.34246069748817" lon="10.75063442323875"><ele>56.0</ele><time>2026-04-18T12:46:36.999Z</time></trkpt><trkpt lat="43.34236169826934" lon="10.750491354835772"><ele>56.0</ele><time>2026-04-18T12:46:37.999Z</time></trkpt><trkpt lat="43.34226331775368" lon="10.750349914525085"><ele>56.0</ele><time>2026-04-18T12:46:38.999Z</time></trkpt><trkpt lat="43.34216586721687" lon="10.750209611349888"><ele>55.75</ele><time>2026-04-18T12:46:39.999Z</time></trkpt><trkpt lat="43.34206974560267" lon="10.750070637630134"><ele>55.5</ele><time>2026-04-18T12:46:40.999Z</time></trkpt><trkpt lat="43.34197412671488" lon="10.74993239074288"><ele>55.25</ele><time>2026-04-18T12:46:41.999Z</time></trkpt><trkpt lat="43.34186707429616" lon="10.749809993145972"><ele>55.0</ele><time>2026-04-18T12:46:42.999Z</time></trkpt><trkpt lat="43.34177463793336" lon="10.749672172759707"><ele>55.0</ele><time>2026-04-18T12:46:43.999Z</time></trkpt><trkpt lat="43.34169443033109" lon="10.749523655404271"><ele>55.0</ele><time>2026-04-18T12:46:44.999Z</time></trkpt><trkpt lat="43.34158929609117" lon="10.749411263218997"><ele>55.0</ele><time>2026-04-18T12:46:45.999Z</time></trkpt><trkpt lat="43.34149587704213" lon="10.749291136140716"><ele>55.0</ele><time>2026-04-18T12:46:46.999Z</time></trkpt><trkpt lat="43.34139926786526" lon="10.749182441335323"><ele>54.75</ele><time>2026-04-18T12:46:47.999Z</time></trkpt><trkpt lat="43.34130706783715" lon="10.749068770350041"><ele>54.5</ele><time>2026-04-18T12:46:48.999Z</time></trkpt><trkpt lat="43.34120024177544" lon="10.748977228746314"><ele>54.25</ele><time>2026-04-18T12:46:49.999Z</time></trkpt><trkpt lat="43.34109270854331" lon="10.748889193118904"><ele>54.0</ele><time>2026-04-18T12:46:50.999Z</time></trkpt><trkpt lat="43.340984171079086" lon="10.748802485668834"><ele>54.0</ele><time>2026-04-18T12:46:51.999Z</time></trkpt><trkpt lat="43.34086680817002" lon="10.748732906063474"><ele>54.0</ele><time>2026-04-18T12:46:52.999Z</time></trkpt><trkpt lat="43.34075627715098" lon="10.748647961704647"><ele>54.0</ele><time>2026-04-18T12:46:53.999Z</time></trkpt><trkpt lat="43.340644769404136" lon="10.74856471990173"><ele>54.0</ele><time>2026-04-18T12:46:54.999Z</time></trkpt><trkpt lat="43.340536852827796" lon="10.748467879269835"><ele>54.25</ele><time>2026-04-18T12:46:55.999Z</time></trkpt><trkpt lat="43.340418962851295" lon="10.748400541806301"><ele>54.5</ele><time>2026-04-18T12:46:56.999Z</time></trkpt><trkpt lat="43.340301560502226" lon="10.748338096470558"><ele>54.75</ele><time>2026-04-18T12:46:57.999Z</time></trkpt><trkpt lat="43.34018459407098" lon="10.748277761611051"><ele>55.0</ele><time>2026-04-18T12:46:58.999Z</time></trkpt><trkpt lat="43.340066534635284" lon="10.748219032257817"><ele>55.0</ele><time>2026-04-18T12:46:59.999Z</time></trkpt><trkpt lat="43.339941412410376" lon="10.748184351716601"><ele>55.0</ele><time>2026-04-18T12:47:00.999Z</time></trkpt><trkpt lat="43.339821489011364" lon="10.74812809670772"><ele>55.0</ele><time>2026-04-18T12:47:01.999Z</time></trkpt><trkpt lat="43.339698001063425" lon="10.748076195613796"><ele>55.0</ele><time>2026-04-18T12:47:02.999Z</time></trkpt><trkpt lat="43.33957728824986" lon="10.748004978167888"><ele>55.0</ele><time>2026-04-18T12:47:03.999Z</time></trkpt><trkpt lat="43.339450932433316" lon="10.747953717634346"><ele>55.0</ele><time>2026-04-18T12:47:04.999Z</time></trkpt><trkpt lat="43.33932038665969" lon="10.7479258630154"><ele>55.0</ele><time>2026-04-18T12:47:05.999Z</time></trkpt><trkpt lat="43.33919658747528" lon="10.747880328680044"><ele>55.0</ele><time>2026-04-18T12:47:06.999Z</time></trkpt><trkpt lat="43.33907452980336" lon="10.74783936018928"><ele>55.0</ele><time>2026-04-18T12:47:07.999Z</time></trkpt><trkpt lat="43.338950721015024" lon="10.747813790802539"><ele>55.0</ele><time>2026-04-18T12:47:08.999Z</time></trkpt><trkpt lat="43.33882547064464" lon="10.747797270600323"><ele>55.0</ele><time>2026-04-18T12:47:09.999Z</time></trkpt><trkpt lat="43.33869846041059" lon="10.747792673230329"><ele>55.0</ele><time>2026-04-18T12:47:10.999Z</time></trkpt><trkpt lat="43.33856918421446" lon="10.747799253863013"><ele>54.5</ele><time>2026-04-18T12:47:11.999Z</time></trkpt><trkpt lat="43.338438987316735" lon="10.747806772720647"><ele>54.0</ele><time>2026-04-18T12:47:12.999Z</time></trkpt><trkpt lat="43.33830845703004" lon="10.747818037437366"><ele>53.5</ele><time>2026-04-18T12:47:13.999Z</time></trkpt><trkpt lat="43.33817806923503" lon="10.747830044416004"><ele>53.0</ele><time>2026-04-18T12:47:14.999Z</time></trkpt><trkpt lat="43.33804778387629" lon="10.747839522307345"><ele>53.0</ele><time>2026-04-18T12:47:15.999Z</time></trkpt><trkpt lat="43.33791938444851" lon="10.747840721586547"><ele>53.0</ele><time>2026-04-18T12:47:16.999Z</time></trkpt><trkpt lat="43.3377923549369" lon="10.747837020092563"><ele>53.0</ele><time>2026-04-18T12:47:17.999Z</time></trkpt><trkpt lat="43.337668628546254" lon="10.747821678613144"><ele>53.0</ele><time>2026-04-18T12:47:18.999Z</time></trkpt><trkpt lat="43.337549332968806" lon="10.747794105319857"><ele>53.0</ele><time>2026-04-18T12:47:19.999Z</time></trkpt><trkpt lat="43.33743560005412" lon="10.747753457585508"><ele>53.0</ele><time>2026-04-18T12:47:20.999Z</time></trkpt><trkpt lat="43.33732818149664" lon="10.747700538461343"><ele>53.0</ele><time>2026-04-18T12:47:21.999Z</time></trkpt><trkpt lat="43.33722680670509" lon="10.747631888910202"><ele>53.0</ele><time>2026-04-18T12:47:22.999Z</time></trkpt><trkpt lat="43.33714284805936" lon="10.747529629047657"><ele>53.75</ele><time>2026-04-18T12:47:23.999Z</time></trkpt><trkpt lat="43.337055616412904" lon="10.747427835135422"><ele>54.5</ele><time>2026-04-18T12:47:24.999Z</time></trkpt><trkpt lat="43.33696977938816" lon="10.747321174454425"><ele>55.25</ele><time>2026-04-18T12:47:25.999Z</time></trkpt><trkpt lat="43.33687962895345" lon="10.747209154053884"><ele>56.0</ele><time>2026-04-18T12:47:26.999Z</time></trkpt><trkpt lat="43.336788472171605" lon="10.747094218970867"><ele>56.0</ele><time>2026-04-18T12:47:27.999Z</time></trkpt><trkpt lat="43.33669596048608" lon="10.746976582027683"><ele>56.0</ele><time>2026-04-18T12:47:28.999Z</time></trkpt><trkpt lat="43.33660151023783" lon="10.746856479883453"><ele>56.0</ele><time>2026-04-18T12:47:29.999Z</time></trkpt><trkpt lat="43.3365085531595" lon="10.74673295709297"><ele>56.0</ele><time>2026-04-18T12:47:30.999Z</time></trkpt><trkpt lat="43.33641921699682" lon="10.746603555066926"><ele>55.75</ele><time>2026-04-18T12:47:31.999Z</time></trkpt><trkpt lat="43.336325483267835" lon="10.746480336476756"><ele>55.5</ele><time>2026-04-18T12:47:32.999Z</time></trkpt><trkpt lat="43.33626018816152" lon="10.746329717566988"><ele>55.25</ele><time>2026-04-18T12:47:33.999Z</time></trkpt><trkpt lat="43.33622350352885" lon="10.74616290781934"><ele>55.0</ele><time>2026-04-18T12:47:34.999Z</time></trkpt><trkpt lat="43.33617706231634" lon="10.746002002924842"><ele>55.0</ele><time>2026-04-18T12:47:35.999Z</time></trkpt><trkpt lat="43.336129868022205" lon="10.74583902598077"><ele>55.0</ele><time>2026-04-18T12:47:36.999Z</time></trkpt><trkpt lat="43.33608098173667" lon="10.745670205924648"><ele>55.0</ele><time>2026-04-18T12:47:37.999Z</time></trkpt><trkpt lat="43.336030912400304" lon="10.745497300540963"><ele>55.0</ele><time>2026-04-18T12:47:38.999Z</time></trkpt><trkpt lat="43.335980716528034" lon="10.745319821471947"><ele>55.75</ele><time>2026-04-18T12:47:39.999Z</time></trkpt><trkpt lat="43.335929382937934" lon="10.74513727192975"><ele>56.5</ele><time>2026-04-18T12:47:40.999Z</time></trkpt><trkpt lat="43.335875767026955" lon="10.744951940987608"><ele>57.25</ele><time>2026-04-18T12:47:41.999Z</time></trkpt><trkpt lat="43.335821908677175" lon="10.74476577205027"><ele>58.0</ele><time>2026-04-18T12:47:42.999Z</time></trkpt><trkpt lat="43.33576839241303" lon="10.744579972390925"><ele>58.0</ele><time>2026-04-18T12:47:43.999Z</time></trkpt><trkpt lat="43.335715201525645" lon="10.744392352344965"><ele>58.0</ele><time>2026-04-18T12:47:44.999Z</time></trkpt><trkpt lat="43.33566268546382" lon="10.744207112600357"><ele>58.0</ele><time>2026-04-18T12:47:45.999Z</time></trkpt><trkpt lat="43.33553631716172" lon="10.743875963843076"><ele>57.0</ele><time>2026-04-18T12:47:47.999Z</time></trkpt><trkpt lat="43.3354890420754" lon="10.743715288411689"><ele>56.0</ele><time>2026-04-18T12:47:48.999Z</time></trkpt><trkpt lat="43.33544530163513" lon="10.743561199122182"><ele>55.0</ele><time>2026-04-18T12:47:49.999Z</time></trkpt><trkpt lat="43.33543587742151" lon="10.743401444761103"><ele>54.0</ele><time>2026-04-18T12:47:50.999Z</time></trkpt><trkpt lat="43.335411926486636" lon="10.743263771303946"><ele>54.0</ele><time>2026-04-18T12:47:51.999Z</time></trkpt><trkpt lat="43.335395453656076" lon="10.743135298576199"><ele>54.0</ele><time>2026-04-18T12:47:52.999Z</time></trkpt><trkpt lat="43.335392830538034" lon="10.743014442557103"><ele>54.0</ele><time>2026-04-18T12:47:53.999Z</time></trkpt><trkpt lat="43.33540584363195" lon="10.742904868729086"><ele>54.0</ele><time>2026-04-18T12:47:54.999Z</time></trkpt><trkpt lat="43.33542465429349" lon="10.74280319652234"><ele>54.0</ele><time>2026-04-18T12:47:55.999Z</time></trkpt><trkpt lat="43.335442977211315" lon="10.742715497049117"><ele>54.0</ele><time>2026-04-18T12:47:56.999Z</time></trkpt><trkpt lat="43.33547112624138" lon="10.742580765491702"><ele>54.0</ele><time>2026-04-18T12:47:58.999Z</time></trkpt><trkpt lat="43.335332006128425" lon="10.742463419329953"><ele>54.00000000000001</ele><time>2026-04-18T12:47:59.999Z</time></trkpt><trkpt lat="43.33528882382339" lon="10.74239839035619"><ele>54.00000000000001</ele><time>2026-04-18T12:48:00.999Z</time></trkpt><trkpt lat="43.33522106317469" lon="10.74228265861291"><ele>54.0</ele><time>2026-04-18T12:48:02.999Z</time></trkpt><trkpt lat="43.33518039932533" lon="10.742213718840727"><ele>54.0</ele><time>2026-04-18T12:48:04.999Z</time></trkpt><trkpt lat="43.3351207043714" lon="10.742108998385126"><ele>54.0</ele><time>2026-04-18T12:48:08.999Z</time></trkpt><trkpt lat="43.335053101283115" lon="10.741993500903156"><ele>54.0</ele><time>2026-04-18T12:48:10.999Z</time></trkpt><trkpt lat="43.33501266745691" lon="10.741925151139762"><ele>54.0</ele><time>2026-04-18T12:48:11.999Z</time></trkpt><trkpt lat="43.33496910552285" lon="10.741851513518144"><ele>54.0</ele><time>2026-04-18T12:48:12.999Z</time></trkpt><trkpt lat="43.33492266932218" lon="10.741773017252052"><ele>54.0</ele><time>2026-04-18T12:48:13.999Z</time></trkpt><trkpt lat="43.334873714609316" lon="10.741691153967604"><ele>54.0</ele><time>2026-04-18T12:48:14.999Z</time></trkpt><trkpt lat="43.33482477691588" lon="10.741609461664137"><ele>53.666666666666664</ele><time>2026-04-18T12:48:15.999Z</time></trkpt><trkpt lat="43.33477391012502" lon="10.741524549256928"><ele>53.33333333333333</ele><time>2026-04-18T12:48:16.999Z</time></trkpt><trkpt lat="43.33472162216495" lon="10.741437141420684"><ele>53.0</ele><time>2026-04-18T12:48:17.999Z</time></trkpt><trkpt lat="43.33466838169001" lon="10.741348050920365"><ele>52.666666666666664</ele><time>2026-04-18T12:48:18.999Z</time></trkpt><trkpt lat="43.33461469795752" lon="10.741258216972046"><ele>52.33333333333333</ele><time>2026-04-18T12:48:19.999Z</time></trkpt><trkpt lat="43.33455990565438" lon="10.74116773593986"><ele>52.0</ele><time>2026-04-18T12:48:20.999Z</time></trkpt><trkpt lat="43.3345036653239" lon="10.741074320719243"><ele>51.83333333333333</ele><time>2026-04-18T12:48:21.999Z</time></trkpt><trkpt lat="43.33444765644697" lon="10.740981159191362"><ele>51.666666666666664</ele><time>2026-04-18T12:48:22.999Z</time></trkpt><trkpt lat="43.33439390762585" lon="10.740890053032006"><ele>51.5</ele><time>2026-04-18T12:48:23.997Z</time></trkpt><trkpt lat="43.33433970340026" lon="10.74079817495875"><ele>51.33333333333333</ele><time>2026-04-18T12:48:24.997Z</time></trkpt><trkpt lat="43.334284512235115" lon="10.740704263765128"><ele>51.166666666666664</ele><time>2026-04-18T12:48:25.997Z</time></trkpt><trkpt lat="43.33422801466129" lon="10.74060680009521"><ele>51.0</ele><time>2026-04-18T12:48:26.997Z</time></trkpt><trkpt lat="43.334170135311794" lon="10.740506952754886"><ele>51.0</ele><time>2026-04-18T12:48:27.997Z</time></trkpt><trkpt lat="43.33410839357081" lon="10.74040044238603"><ele>51.0</ele><time>2026-04-18T12:48:28.997Z</time></trkpt><trkpt lat="43.334044865651684" lon="10.740290850730716"><ele>51.0</ele><time>2026-04-18T12:48:29.997Z</time></trkpt><trkpt lat="43.33397956190973" lon="10.740178195603935"><ele>51.0</ele><time>2026-04-18T12:48:30.997Z</time></trkpt><trkpt lat="43.33391280860439" lon="10.740063039839393"><ele>51.0</ele><time>2026-04-18T12:48:31.997Z</time></trkpt><trkpt lat="43.33384516936867" lon="10.739946355760766"><ele>51.199999999999996</ele><time>2026-04-18T12:48:32.997Z</time></trkpt><trkpt lat="43.333779258667285" lon="10.739832653592005"><ele>51.4</ele><time>2026-04-18T12:48:33.997Z</time></trkpt><trkpt lat="43.33371433753829" lon="10.73972082568863"><ele>51.6</ele><time>2026-04-18T12:48:34.998Z</time></trkpt><trkpt lat="43.333651759438375" lon="10.739613258706171"><ele>51.8</ele><time>2026-04-18T12:48:35.998Z</time></trkpt><trkpt lat="43.33359072147971" lon="10.73950833914412"><ele>52.0</ele><time>2026-04-18T12:48:36.998Z</time></trkpt><trkpt lat="43.33353138118898" lon="10.739406337705729"><ele>52.0</ele><time>2026-04-18T12:48:37.998Z</time></trkpt><trkpt lat="43.33347178449341" lon="10.739305998455233"><ele>52.0</ele><time>2026-04-18T12:48:38.998Z</time></trkpt><trkpt lat="43.33341030604082" lon="10.739204613651898"><ele>52.0</ele><time>2026-04-18T12:48:39.998Z</time></trkpt><trkpt lat="43.33334688178787" lon="10.739102806482178"><ele>52.0</ele><time>2026-04-18T12:48:40.998Z</time></trkpt><trkpt lat="43.3332810599585" lon="10.739000378712596"><ele>52.0</ele><time>2026-04-18T12:48:41.998Z</time></trkpt><trkpt lat="43.33321034402634" lon="10.738899565695581"><ele>52.0</ele><time>2026-04-18T12:48:42.998Z</time></trkpt><trkpt lat="43.33313280773358" lon="10.738805157909221"><ele>52.0</ele><time>2026-04-18T12:48:43.998Z</time></trkpt><trkpt lat="43.333043860135746" lon="10.738719858019797"><ele>52.0</ele><time>2026-04-18T12:48:44.998Z</time></trkpt><trkpt lat="43.33294469039196" lon="10.738652462842651"><ele>52.0</ele><time>2026-04-18T12:48:45.998Z</time></trkpt><trkpt lat="43.332841689357075" lon="10.738591597832373"><ele>52.0</ele><time>2026-04-18T12:48:46.998Z</time></trkpt><trkpt lat="43.33273375366812" lon="10.73853128786757"><ele>52.5</ele><time>2026-04-18T12:48:47.998Z</time></trkpt><trkpt lat="43.332621694617075" lon="10.738472285498773"><ele>53.0</ele><time>2026-04-18T12:48:48.998Z</time></trkpt><trkpt lat="43.332509292746735" lon="10.738413067103009"><ele>53.5</ele><time>2026-04-18T12:48:49.998Z</time></trkpt><trkpt lat="43.332396403192476" lon="10.738346776897723"><ele>54.0</ele><time>2026-04-18T12:48:50.998Z</time></trkpt><trkpt lat="43.33228282046131" lon="10.738280079599587"><ele>53.5</ele><time>2026-04-18T12:48:51.998Z</time></trkpt><trkpt lat="43.33216842922986" lon="10.738213992648951"><ele>53.0</ele><time>2026-04-18T12:48:52.998Z</time></trkpt><trkpt lat="43.332054795746785" lon="10.738148957881796"><ele>52.5</ele><time>2026-04-18T12:48:53.998Z</time></trkpt><trkpt lat="43.33194174063618" lon="10.738084254124098"><ele>52.0</ele><time>2026-04-18T12:48:54.998Z</time></trkpt><trkpt lat="43.331829572820396" lon="10.738020057862224"><ele>52.0</ele><time>2026-04-18T12:48:55.998Z</time></trkpt><trkpt lat="43.331718728986075" lon="10.7379547890276"><ele>52.0</ele><time>2026-04-18T12:48:56.998Z</time></trkpt><trkpt lat="43.331609198681726" lon="10.737890650972622"><ele>52.0</ele><time>2026-04-18T12:48:57.998Z</time></trkpt><trkpt lat="43.33150342223332" lon="10.737828711095434"><ele>52.0</ele><time>2026-04-18T12:48:58.998Z</time></trkpt><trkpt lat="43.33140268004552" lon="10.737765348229514"><ele>54.0</ele><time>2026-04-18T12:48:59.998Z</time></trkpt><trkpt lat="43.33130870933851" lon="10.73769501130136"><ele>56.0</ele><time>2026-04-18T12:49:00.998Z</time></trkpt><trkpt lat="43.331219591641485" lon="10.737614279062313"><ele>58.0</ele><time>2026-04-18T12:49:01.998Z</time></trkpt><trkpt lat="43.33113877457729" lon="10.737521322487185"><ele>60.0</ele><time>2026-04-18T12:49:02.998Z</time></trkpt><trkpt lat="43.331065341916045" lon="10.73741475621094"><ele>62.0</ele><time>2026-04-18T12:49:03.998Z</time></trkpt><trkpt lat="43.331003017153115" lon="10.73729691747067"><ele>62.0</ele><time>2026-04-18T12:49:04.998Z</time></trkpt><trkpt lat="43.33095109189822" lon="10.737167965695146"><ele>62.0</ele><time>2026-04-18T12:49:05.998Z</time></trkpt><trkpt lat="43.330905043837525" lon="10.737029461377906"><ele>62.0</ele><time>2026-04-18T12:49:06.998Z</time></trkpt><trkpt lat="43.330863244384325" lon="10.736884891194068"><ele>62.0</ele><time>2026-04-18T12:49:07.998Z</time></trkpt><trkpt lat="43.33082182227877" lon="10.736737515836127"><ele>62.0</ele><time>2026-04-18T12:49:08.998Z</time></trkpt><trkpt lat="43.33078186996771" lon="10.736594249631427"><ele>62.400000000000006</ele><time>2026-04-18T12:49:09.998Z</time></trkpt><trkpt lat="43.33072843073175" lon="10.736468874418907"><ele>62.800000000000004</ele><time>2026-04-18T12:49:10.998Z</time></trkpt><trkpt lat="43.330696065360925" lon="10.736351859543177"><ele>63.2</ele><time>2026-04-18T12:49:11.998Z</time></trkpt><trkpt lat="43.330669135543225" lon="10.73625404336757"><ele>63.6</ele><time>2026-04-18T12:49:12.998Z</time></trkpt><trkpt lat="43.330641192170134" lon="10.73612722531036"><ele>64.0</ele><time>2026-04-18T12:49:14.998Z</time></trkpt><trkpt lat="43.330505166745844" lon="10.736166796608476"><ele>65.33333333333333</ele><time>2026-04-18T12:49:15.998Z</time></trkpt><trkpt lat="43.33039112488918" lon="10.736225259748826"><ele>66.66666666666666</ele><time>2026-04-18T12:49:17.998Z</time></trkpt><trkpt lat="43.330330490739556" lon="10.736250440283875"><ele>68.0</ele><time>2026-04-18T12:49:18.998Z</time></trkpt><trkpt lat="43.33026337913677" lon="10.73627742869624"><ele>69.33333333333333</ele><time>2026-04-18T12:49:19.998Z</time></trkpt><trkpt lat="43.330192131012176" lon="10.736304133907954"><ele>70.66666666666667</ele><time>2026-04-18T12:49:20.998Z</time></trkpt><trkpt lat="43.330112058087046" lon="10.736345745351528"><ele>72.0</ele><time>2026-04-18T12:49:21.998Z</time></trkpt><trkpt lat="43.33002808417202" lon="10.736390767635461"><ele>72.0</ele><time>2026-04-18T12:49:22.998Z</time></trkpt><trkpt lat="43.329942398080746" lon="10.736436142366257"><ele>72.0</ele><time>2026-04-18T12:49:23.998Z</time></trkpt><trkpt lat="43.3298487231886" lon="10.736485908417858"><ele>72.0</ele><time>2026-04-18T12:49:24.998Z</time></trkpt><trkpt lat="43.32975074543412" lon="10.73653775174296"><ele>72.0</ele><time>2026-04-18T12:49:25.998Z</time></trkpt><trkpt lat="43.32964933777048" lon="10.736591712237802"><ele>72.0</ele><time>2026-04-18T12:49:26.998Z</time></trkpt><trkpt lat="43.32954497102168" lon="10.736646036690088"><ele>72.25</ele><time>2026-04-18T12:49:27.998Z</time></trkpt><trkpt lat="43.32943756164805" lon="10.736702929174012"><ele>72.5</ele><time>2026-04-18T12:49:28.998Z</time></trkpt><trkpt lat="43.329330756710704" lon="10.736760791538215"><ele>72.75</ele><time>2026-04-18T12:49:29.998Z</time></trkpt><trkpt lat="43.32922181169185" lon="10.736820496180936"><ele>73.0</ele><time>2026-04-18T12:49:30.998Z</time></trkpt><trkpt lat="43.32911218441384" lon="10.73688316581428"><ele>73.25</ele><time>2026-04-18T12:49:31.998Z</time></trkpt><trkpt lat="43.329001029055874" lon="10.736948152656199"><ele>73.5</ele><time>2026-04-18T12:49:32.998Z</time></trkpt><trkpt lat="43.32890086978161" lon="10.73702049146964"><ele>73.75</ele><time>2026-04-18T12:49:33.998Z</time></trkpt><trkpt lat="43.32877568679887" lon="10.73708565920915"><ele>74.0</ele><time>2026-04-18T12:49:34.998Z</time></trkpt><trkpt lat="43.328547781906344" lon="10.737208020754553"><ele>74.5</ele><time>2026-04-18T12:49:36.998Z</time></trkpt><trkpt lat="43.32843884901752" lon="10.737267345654457"><ele>75.0</ele><time>2026-04-18T12:49:37.998Z</time></trkpt><trkpt lat="43.328321860956216" lon="10.737329707995107"><ele>75.5</ele><time>2026-04-18T12:49:38.998Z</time></trkpt><trkpt lat="43.328211277918804" lon="10.737390289436888"><ele>76.0</ele><time>2026-04-18T12:49:39.998Z</time></trkpt><trkpt lat="43.328100361687234" lon="10.737451477923228"><ele>76.5</ele><time>2026-04-18T12:49:40.998Z</time></trkpt><trkpt lat="43.327991797023955" lon="10.737513574486407"><ele>77.0</ele><time>2026-04-18T12:49:41.998Z</time></trkpt><trkpt lat="43.32788229852356" lon="10.737575622728075"><ele>77.5</ele><time>2026-04-18T12:49:42.998Z</time></trkpt><trkpt lat="43.327767054020015" lon="10.737617877044686"><ele>78.0</ele><time>2026-04-18T12:49:43.998Z</time></trkpt><trkpt lat="43.32766501051604" lon="10.737692026783616"><ele>78.0</ele><time>2026-04-18T12:49:44.998Z</time></trkpt><trkpt lat="43.327556372516796" lon="10.737745823500411"><ele>78.0</ele><time>2026-04-18T12:49:45.998Z</time></trkpt><trkpt lat="43.327462185216824" lon="10.737801047767785"><ele>78.0</ele><time>2026-04-18T12:49:46.998Z</time></trkpt><trkpt lat="43.327373676984486" lon="10.737867868617494"><ele>78.0</ele><time>2026-04-18T12:49:47.998Z</time></trkpt><trkpt lat="43.32729581753864" lon="10.737949597378169"><ele>78.0</ele><time>2026-04-18T12:49:48.998Z</time></trkpt><trkpt lat="43.32722446327216" lon="10.738037902737236"><ele>78.0</ele><time>2026-04-18T12:49:49.998Z</time></trkpt><trkpt lat="43.327148392864615" lon="10.738123057076947"><ele>78.0</ele><time>2026-04-18T12:49:50.998Z</time></trkpt><trkpt lat="43.3270600649954" lon="10.738199457343441"><ele>78.0</ele><time>2026-04-18T12:49:51.998Z</time></trkpt><trkpt lat="43.326965351541084" lon="10.738266235108094"><ele>78.0</ele><time>2026-04-18T12:49:52.998Z</time></trkpt><trkpt lat="43.32686719599297" lon="10.738321038847367"><ele>78.0</ele><time>2026-04-18T12:49:53.998Z</time></trkpt><trkpt lat="43.32676915657508" lon="10.738377186774805"><ele>78.0</ele><time>2026-04-18T12:49:54.998Z</time></trkpt><trkpt lat="43.32667629282243" lon="10.73844847797286"><ele>78.0</ele><time>2026-04-18T12:49:55.998Z</time></trkpt><trkpt lat="43.3265936653576" lon="10.738536337786568"><ele>78.0</ele><time>2026-04-18T12:49:56.998Z</time></trkpt><trkpt lat="43.32652276947655" lon="10.738638488265135"><ele>78.0</ele><time>2026-04-18T12:49:57.998Z</time></trkpt><trkpt lat="43.326461618857" lon="10.738749696640618"><ele>78.0</ele><time>2026-04-18T12:49:58.998Z</time></trkpt><trkpt lat="43.32640756066138" lon="10.738858194147745"><ele>78.2</ele><time>2026-04-18T12:49:59.998Z</time></trkpt><trkpt lat="43.32635641979107" lon="10.738967555914742"><ele>78.4</ele><time>2026-04-18T12:50:00.998Z</time></trkpt><trkpt lat="43.326324534073166" lon="10.739087489614423"><ele>78.60000000000001</ele><time>2026-04-18T12:50:01.998Z</time></trkpt><trkpt lat="43.32631805530421" lon="10.739218037285394"><ele>78.8</ele><time>2026-04-18T12:50:02.998Z</time></trkpt><trkpt lat="43.32632340423107" lon="10.739342513632694"><ele>79.0</ele><time>2026-04-18T12:50:03.998Z</time></trkpt><trkpt lat="43.3263321700228" lon="10.739469752876724"><ele>77.33333333333333</ele><time>2026-04-18T12:50:04.998Z</time></trkpt><trkpt lat="43.326341081345284" lon="10.739598862216939"><ele>75.66666666666666</ele><time>2026-04-18T12:50:05.998Z</time></trkpt><trkpt lat="43.32634972380373" lon="10.739720473559824"><ele>74.0</ele><time>2026-04-18T12:50:06.998Z</time></trkpt><trkpt lat="43.326347172862434" lon="10.73983090574971"><ele>72.33333333333333</ele><time>2026-04-18T12:50:07.998Z</time></trkpt><trkpt lat="43.32633163732396" lon="10.739931522824905"><ele>70.66666666666667</ele><time>2026-04-18T12:50:08.998Z</time></trkpt><trkpt lat="43.326292069729405" lon="10.740032771291151"><ele>69.0</ele><time>2026-04-18T12:50:09.998Z</time></trkpt><trkpt lat="43.3262157592029" lon="10.740096684245158"><ele>69.0</ele><time>2026-04-18T12:50:10.998Z</time></trkpt><trkpt lat="43.326133437282195" lon="10.740143091339192"><ele>69.0</ele><time>2026-04-18T12:50:11.998Z</time></trkpt><trkpt lat="43.32604341699764" lon="10.740199770783907"><ele>69.0</ele><time>2026-04-18T12:50:12.998Z</time></trkpt><trkpt lat="43.325954220384844" lon="10.740276639601143"><ele>69.0</ele><time>2026-04-18T12:50:13.998Z</time></trkpt><trkpt lat="43.3258523320877" lon="10.740334907972233"><ele>69.0</ele><time>2026-04-18T12:50:14.998Z</time></trkpt><trkpt lat="43.32574385903321" lon="10.740395588893197"><ele>68.0</ele><time>2026-04-18T12:50:15.998Z</time></trkpt><trkpt lat="43.325630897564785" lon="10.740473096155364"><ele>67.0</ele><time>2026-04-18T12:50:16.998Z</time></trkpt><trkpt lat="43.32551549630335" lon="10.740552549732419"><ele>66.0</ele><time>2026-04-18T12:50:17.998Z</time></trkpt><trkpt lat="43.32539919035485" lon="10.740632981966206"><ele>65.0</ele><time>2026-04-18T12:50:18.998Z</time></trkpt><trkpt lat="43.325280357155826" lon="10.74071670591313"><ele>65.0</ele><time>2026-04-18T12:50:19.998Z</time></trkpt><trkpt lat="43.32516280908138" lon="10.74080740165307"><ele>65.0</ele><time>2026-04-18T12:50:20.998Z</time></trkpt><trkpt lat="43.32504961954816" lon="10.740910534404108"><ele>65.0</ele><time>2026-04-18T12:50:21.998Z</time></trkpt><trkpt lat="43.32494511466955" lon="10.741030200608092"><ele>65.0</ele><time>2026-04-18T12:50:22.998Z</time></trkpt><trkpt lat="43.32484822190876" lon="10.741159778473625"><ele>64.25</ele><time>2026-04-18T12:50:23.998Z</time></trkpt><trkpt lat="43.32475023363491" lon="10.741290989013006"><ele>63.5</ele><time>2026-04-18T12:50:24.998Z</time></trkpt><trkpt lat="43.32465147804065" lon="10.74142468237463"><ele>62.75</ele><time>2026-04-18T12:50:25.998Z</time></trkpt><trkpt lat="43.324553755428646" lon="10.741560350741217"><ele>62.0</ele><time>2026-04-18T12:50:26.998Z</time></trkpt><trkpt lat="43.324458761013815" lon="10.741699722721535"><ele>62.0</ele><time>2026-04-18T12:50:27.998Z</time></trkpt><trkpt lat="43.32436654891468" lon="10.741841532661866"><ele>62.0</ele><time>2026-04-18T12:50:28.998Z</time></trkpt><trkpt lat="43.32427434191328" lon="10.741982998659173"><ele>62.0</ele><time>2026-04-18T12:50:29.997Z</time></trkpt><trkpt lat="43.32418118435785" lon="10.742125726988792"><ele>62.0</ele><time>2026-04-18T12:50:30.997Z</time></trkpt><trkpt lat="43.32408761423922" lon="10.742270362525652"><ele>61.0</ele><time>2026-04-18T12:50:31.997Z</time></trkpt><trkpt lat="43.323992499207414" lon="10.742413930041245"><ele>60.0</ele><time>2026-04-18T12:50:32.997Z</time></trkpt><trkpt lat="43.32389834975056" lon="10.742560908576092"><ele>59.0</ele><time>2026-04-18T12:50:33.997Z</time></trkpt><trkpt lat="43.32380504137623" lon="10.742711293546613"><ele>58.0</ele><time>2026-04-18T12:50:34.997Z</time></trkpt><trkpt lat="43.323711384362284" lon="10.742861934732371"><ele>58.0</ele><time>2026-04-18T12:50:35.997Z</time></trkpt><trkpt lat="43.32361737228272" lon="10.743013845465674"><ele>58.0</ele><time>2026-04-18T12:50:36.997Z</time></trkpt><trkpt lat="43.32352387575981" lon="10.74316624289418"><ele>58.0</ele><time>2026-04-18T12:50:37.997Z</time></trkpt><trkpt lat="43.32342934027047" lon="10.743319321422272"><ele>58.0</ele><time>2026-04-18T12:50:38.997Z</time></trkpt><trkpt lat="43.3233353481003" lon="10.743474944465303"><ele>57.25</ele><time>2026-04-18T12:50:39.997Z</time></trkpt><trkpt lat="43.32324311502116" lon="10.743631894519345"><ele>56.5</ele><time>2026-04-18T12:50:40.997Z</time></trkpt><trkpt lat="43.32315033134538" lon="10.743790952938461"><ele>55.75</ele><time>2026-04-18T12:50:41.998Z</time></trkpt><trkpt lat="43.32305800200434" lon="10.743950461150408"><ele>55.0</ele><time>2026-04-18T12:50:42.998Z</time></trkpt><trkpt lat="43.32296233096398" lon="10.744109264935561"><ele>55.666666666666664</ele><time>2026-04-18T12:50:43.998Z</time></trkpt><trkpt lat="43.32286496946367" lon="10.744266535811354"><ele>56.33333333333333</ele><time>2026-04-18T12:50:44.998Z</time></trkpt><trkpt lat="43.32276671930458" lon="10.744424104446315"><ele>57.0</ele><time>2026-04-18T12:50:45.998Z</time></trkpt><trkpt lat="43.3226686328514" lon="10.744582422346724"><ele>57.0</ele><time>2026-04-18T12:50:46.998Z</time></trkpt><trkpt lat="43.32257115961535" lon="10.744742304830808"><ele>57.0</ele><time>2026-04-18T12:50:47.998Z</time></trkpt><trkpt lat="43.32247432718225" lon="10.744901958158518"><ele>57.0</ele><time>2026-04-18T12:50:48.998Z</time></trkpt><trkpt lat="43.322375678787054" lon="10.745060524238767"><ele>56.0</ele><time>2026-04-18T12:50:49.998Z</time></trkpt><trkpt lat="43.32227748400781" lon="10.745218839031615"><ele>55.0</ele><time>2026-04-18T12:50:50.998Z</time></trkpt><trkpt lat="43.32217875180996" lon="10.745377668203545"><ele>54.0</ele><time>2026-04-18T12:50:51.998Z</time></trkpt><trkpt lat="43.32208333410196" lon="10.74553844621794"><ele>54.66666666666667</ele><time>2026-04-18T12:50:52.998Z</time></trkpt><trkpt lat="43.321992020018556" lon="10.74570397313789"><ele>55.333333333333336</ele><time>2026-04-18T12:50:53.998Z</time></trkpt><trkpt lat="43.32190521685791" lon="10.74587378842069"><ele>56.0</ele><time>2026-04-18T12:50:54.998Z</time></trkpt><trkpt lat="43.321823764057505" lon="10.746049980932902"><ele>56.0</ele><time>2026-04-18T12:50:55.998Z</time></trkpt><trkpt lat="43.32174703017761" lon="10.746232183115891"><ele>56.0</ele><time>2026-04-18T12:50:56.998Z</time></trkpt><trkpt lat="43.321669030761974" lon="10.746417394249136"><ele>56.0</ele><time>2026-04-18T12:50:57.998Z</time></trkpt><trkpt lat="43.32159038383875" lon="10.746606911933494"><ele>56.0</ele><time>2026-04-18T12:50:58.998Z</time></trkpt><trkpt lat="43.32151160641683" lon="10.746800178532146"><ele>56.0</ele><time>2026-04-18T12:50:59.998Z</time></trkpt><trkpt lat="43.321432132751276" lon="10.746996444010485"><ele>56.0</ele><time>2026-04-18T12:51:00.998Z</time></trkpt><trkpt lat="43.321352383911744" lon="10.747196351937031"><ele>57.66666666666667</ele><time>2026-04-18T12:51:01.998Z</time></trkpt><trkpt lat="43.321271446797915" lon="10.747396377481667"><ele>59.33333333333333</ele><time>2026-04-18T12:51:02.998Z</time></trkpt><trkpt lat="43.32118848756567" lon="10.747597726821079"><ele>61.0</ele><time>2026-04-18T12:51:03.998Z</time></trkpt><trkpt lat="43.32110500006873" lon="10.747802997387335"><ele>61.0</ele><time>2026-04-18T12:51:04.998Z</time></trkpt><trkpt lat="43.32102090159142" lon="10.748011065738007"><ele>61.0</ele><time>2026-04-18T12:51:05.998Z</time></trkpt><trkpt lat="43.320935423540725" lon="10.748221552127633"><ele>61.0</ele><time>2026-04-18T12:51:06.998Z</time></trkpt><trkpt lat="43.32084893515702" lon="10.748434419120965"><ele>59.666666666666664</ele><time>2026-04-18T12:51:07.998Z</time></trkpt><trkpt lat="43.32076160436285" lon="10.748646779656422"><ele>58.33333333333333</ele><time>2026-04-18T12:51:08.998Z</time></trkpt><trkpt lat="43.32067462621444" lon="10.748860269445245"><ele>57.0</ele><time>2026-04-18T12:51:09.998Z</time></trkpt><trkpt lat="43.320589434384175" lon="10.749070920118223"><ele>58.66666666666667</ele><time>2026-04-18T12:51:10.998Z</time></trkpt><trkpt lat="43.32050564809695" lon="10.749278185419888"><ele>60.333333333333336</ele><time>2026-04-18T12:51:11.998Z</time></trkpt><trkpt lat="43.32042390251133" lon="10.749482382489592"><ele>62.0</ele><time>2026-04-18T12:51:12.998Z</time></trkpt><trkpt lat="43.32034409384003" lon="10.74968183451267"><ele>62.0</ele><time>2026-04-18T12:51:13.998Z</time></trkpt><trkpt lat="43.3202626266222" lon="10.749875940751219"><ele>62.0</ele><time>2026-04-18T12:51:14.998Z</time></trkpt><trkpt lat="43.320169816312564" lon="10.750056588498506"><ele>62.0</ele><time>2026-04-18T12:51:15.999Z</time></trkpt><trkpt lat="43.32006419685934" lon="10.750222234127346"><ele>63.0</ele><time>2026-04-18T12:51:16.999Z</time></trkpt><trkpt lat="43.31994558034677" lon="10.750373279212829"><ele>64.0</ele><time>2026-04-18T12:51:17.999Z</time></trkpt><trkpt lat="43.31982060482922" lon="10.75051530385823"><ele>65.0</ele><time>2026-04-18T12:51:18.999Z</time></trkpt><trkpt lat="43.31969243870123" lon="10.75065396248943"><ele>65.0</ele><time>2026-04-18T12:51:19.999Z</time></trkpt><trkpt lat="43.31956464412072" lon="10.75079371003019"><ele>65.0</ele><time>2026-04-18T12:51:20.999Z</time></trkpt><trkpt lat="43.31943893223688" lon="10.750933842708744"><ele>65.0</ele><time>2026-04-18T12:51:21.999Z</time></trkpt><trkpt lat="43.31931238276899" lon="10.751076098369039"><ele>64.0</ele><time>2026-04-18T12:51:22.999Z</time></trkpt><trkpt lat="43.31919329829432" lon="10.751227448473692"><ele>63.0</ele><time>2026-04-18T12:51:23.999Z</time></trkpt><trkpt lat="43.31906993786341" lon="10.751375860329293"><ele>62.0</ele><time>2026-04-18T12:51:24.999Z</time></trkpt><trkpt lat="43.31898601375344" lon="10.75157505384586"><ele>62.0</ele><time>2026-04-18T12:51:25.999Z</time></trkpt><trkpt lat="43.31890136727092" lon="10.751770586640967"><ele>62.0</ele><time>2026-04-18T12:51:26.999Z</time></trkpt><trkpt lat="43.31882254775672" lon="10.751975610727225"><ele>62.0</ele><time>2026-04-18T12:51:27.999Z</time></trkpt><trkpt lat="43.31874628806572" lon="10.752185372780266"><ele>64.66666666666667</ele><time>2026-04-18T12:51:28.999Z</time></trkpt><trkpt lat="43.31866859578454" lon="10.752398745111211"><ele>67.33333333333333</ele><time>2026-04-18T12:51:29.999Z</time></trkpt><trkpt lat="43.3185928693068" lon="10.752615074092876"><ele>70.0</ele><time>2026-04-18T12:51:30.999Z</time></trkpt><trkpt lat="43.318515440567644" lon="10.752834476271069"><ele>70.0</ele><time>2026-04-18T12:51:31.999Z</time></trkpt><trkpt lat="43.31843642281499" lon="10.753053624881712"><ele>70.0</ele><time>2026-04-18T12:51:32.999Z</time></trkpt><trkpt lat="43.31835637618171" lon="10.753272605684359"><ele>70.0</ele><time>2026-04-18T12:51:33.999Z</time></trkpt><trkpt lat="43.318275685290146" lon="10.753491978053578"><ele>68.0</ele><time>2026-04-18T12:51:34.999Z</time></trkpt><trkpt lat="43.31819472038177" lon="10.753711246724821"><ele>66.0</ele><time>2026-04-18T12:51:35.999Z</time></trkpt><trkpt lat="43.3181124950225" lon="10.753929309771644"><ele>64.0</ele><time>2026-04-18T12:51:36.999Z</time></trkpt><trkpt lat="43.31803222369019" lon="10.754145441969321"><ele>65.0</ele><time>2026-04-18T12:51:37.999Z</time></trkpt><trkpt lat="43.317953508377734" lon="10.754356314570629"><ele>66.0</ele><time>2026-04-18T12:51:38.999Z</time></trkpt><trkpt lat="43.31787714141492" lon="10.75456118048842"><ele>67.0</ele><time>2026-04-18T12:51:39.999Z</time></trkpt><trkpt lat="43.31780390341487" lon="10.754762998669888"><ele>67.0</ele><time>2026-04-18T12:51:40.999Z</time></trkpt><trkpt lat="43.317733359377044" lon="10.754965050570526"><ele>67.0</ele><time>2026-04-18T12:51:41.999Z</time></trkpt><trkpt lat="43.31766878886395" lon="10.755167929501656"><ele>67.0</ele><time>2026-04-18T12:51:42.999Z</time></trkpt><trkpt lat="43.31760883996141" lon="10.755371697341204"><ele>66.66666666666666</ele><time>2026-04-18T12:51:43.999Z</time></trkpt><trkpt lat="43.31755415267981" lon="10.755577904691899"><ele>66.33333333333333</ele><time>2026-04-18T12:51:44.999Z</time></trkpt><trkpt lat="43.31749685351473" lon="10.755785741320322"><ele>66.0</ele><time>2026-04-18T12:51:45.999Z</time></trkpt><trkpt lat="43.3174359405697" lon="10.755995907081736"><ele>65.66666666666667</ele><time>2026-04-18T12:51:46.999Z</time></trkpt><trkpt lat="43.317371048207335" lon="10.756206802195168"><ele>65.33333333333334</ele><time>2026-04-18T12:51:47.999Z</time></trkpt><trkpt lat="43.3173005229742" lon="10.756418027416597"><ele>65.0</ele><time>2026-04-18T12:51:48.999Z</time></trkpt><trkpt lat="43.3172265425807" lon="10.75662605195934"><ele>69.66666666666667</ele><time>2026-04-18T12:51:49.999Z</time></trkpt><trkpt lat="43.317155215301376" lon="10.756830558082736"><ele>74.33333333333333</ele><time>2026-04-18T12:51:50.999Z</time></trkpt><trkpt lat="43.31708944174517" lon="10.757033350837029"><ele>79.0</ele><time>2026-04-18T12:51:51.999Z</time></trkpt><trkpt lat="43.31702986039915" lon="10.757235347514156"><ele>79.75</ele><time>2026-04-18T12:51:52.999Z</time></trkpt><trkpt lat="43.316979159195846" lon="10.75743587682414"><ele>80.5</ele><time>2026-04-18T12:51:53.999Z</time></trkpt><trkpt lat="43.316935861314064" lon="10.75763373895206"><ele>81.25</ele><time>2026-04-18T12:51:54.999Z</time></trkpt><trkpt lat="43.31690010280902" lon="10.757821744374146"><ele>82.0</ele><time>2026-04-18T12:51:55.999Z</time></trkpt><trkpt lat="43.31686775491292" lon="10.757994948994563"><ele>80.0</ele><time>2026-04-18T12:51:56.999Z</time></trkpt><trkpt lat="43.31682197293459" lon="10.75814959514568"><ele>78.0</ele><time>2026-04-18T12:51:57.999Z</time></trkpt><trkpt lat="43.31677770188204" lon="10.758294177356857"><ele>76.0</ele><time>2026-04-18T12:51:58.999Z</time></trkpt><trkpt lat="43.31674461146913" lon="10.758435994241154"><ele>74.0</ele><time>2026-04-18T12:51:59.999Z</time></trkpt><trkpt lat="43.31666243722744" lon="10.758549022973273"><ele>74.0</ele><time>2026-04-18T12:52:00.999Z</time></trkpt><trkpt lat="43.3166130551876" lon="10.758652343219035"><ele>74.0</ele><time>2026-04-18T12:52:01.999Z</time></trkpt><trkpt lat="43.31657508198176" lon="10.758731757050077"><ele>74.0</ele><time>2026-04-18T12:52:03.999Z</time></trkpt><trkpt lat="43.31662400362639" lon="10.758626058131556"><ele>74.0</ele><time>2026-04-18T12:52:10.999Z</time></trkpt><trkpt lat="43.316670556818366" lon="10.75852804823722"><ele>74.0</ele><time>2026-04-18T12:52:13.999Z</time></trkpt><trkpt lat="43.31671374991967" lon="10.758442626288579"><ele>74.0</ele><time>2026-04-18T12:52:16.999Z</time></trkpt><trkpt lat="43.316730349231484" lon="10.758529212465211"><ele>73.0</ele><time>2026-04-18T12:52:21.999Z</time></trkpt><trkpt lat="43.31672069656808" lon="10.75866955421604"><ele>72.0</ele><time>2026-04-18T12:52:23.999Z</time></trkpt><trkpt lat="43.31670103032116" lon="10.758758137265923"><ele>71.0</ele><time>2026-04-18T12:52:24.999Z</time></trkpt><trkpt lat="43.316678713191095" lon="10.758866276433928"><ele>70.0</ele><time>2026-04-18T12:52:25.999Z</time></trkpt><trkpt lat="43.31665325840978" lon="10.758985013549076"><ele>69.0</ele><time>2026-04-18T12:52:26.999Z</time></trkpt><trkpt lat="43.316626041742026" lon="10.759115332219675"><ele>68.0</ele><time>2026-04-18T12:52:27.999Z</time></trkpt><trkpt lat="43.316595699675034" lon="10.759253913273806"><ele>67.5</ele><time>2026-04-18T12:52:28.999Z</time></trkpt><trkpt lat="43.316564317959944" lon="10.759397749883217"><ele>67.0</ele><time>2026-04-18T12:52:29.999Z</time></trkpt><trkpt lat="43.3165327607287" lon="10.759546896366519"><ele>66.5</ele><time>2026-04-18T12:52:30.999Z</time></trkpt><trkpt lat="43.31650030286499" lon="10.759702033599698"><ele>66.0</ele><time>2026-04-18T12:52:31.999Z</time></trkpt><trkpt lat="43.3164668328548" lon="10.759863217675447"><ele>66.0</ele><time>2026-04-18T12:52:32.999Z</time></trkpt><trkpt lat="43.31643329769322" lon="10.76002790116071"><ele>66.0</ele><time>2026-04-18T12:52:33.999Z</time></trkpt><trkpt lat="43.31640008800831" lon="10.760194889443376"><ele>66.0</ele><time>2026-04-18T12:52:34.999Z</time></trkpt><trkpt lat="43.31636779219836" lon="10.760362318199595"><ele>66.0</ele><time>2026-04-18T12:52:35.998Z</time></trkpt><trkpt lat="43.316337087071155" lon="10.760523600727021"><ele>67.39999999999999</ele><time>2026-04-18T12:52:36.998Z</time></trkpt><trkpt lat="43.316307270849485" lon="10.76067455834199"><ele>68.8</ele><time>2026-04-18T12:52:37.998Z</time></trkpt><trkpt lat="43.31627576554242" lon="10.760812623806915"><ele>70.19999999999999</ele><time>2026-04-18T12:52:38.998Z</time></trkpt><trkpt lat="43.316232812143724" lon="10.76091941705757"><ele>71.6</ele><time>2026-04-18T12:52:39.998Z</time></trkpt><trkpt lat="43.31616149238166" lon="10.76098845110449"><ele>73.0</ele><time>2026-04-18T12:52:40.998Z</time></trkpt><trkpt lat="43.31608819912466" lon="10.761002173112221"><ele>73.0</ele><time>2026-04-18T12:52:41.998Z</time></trkpt><trkpt lat="43.31600398210686" lon="10.761028253537722"><ele>73.0</ele><time>2026-04-18T12:52:42.998Z</time></trkpt><trkpt lat="43.315906533228194" lon="10.761058899783022"><ele>73.0</ele><time>2026-04-18T12:52:43.998Z</time></trkpt><trkpt lat="43.31580410649251" lon="10.761096252163172"><ele>73.0</ele><time>2026-04-18T12:52:44.998Z</time></trkpt><trkpt lat="43.31570025347923" lon="10.76115971792917"><ele>73.0</ele><time>2026-04-18T12:52:45.998Z</time></trkpt><trkpt lat="43.31557868295214" lon="10.761185503868898"><ele>71.5</ele><time>2026-04-18T12:52:46.998Z</time></trkpt><trkpt lat="43.31545797326097" lon="10.761254404279724"><ele>70.0</ele><time>2026-04-18T12:52:47.998Z</time></trkpt><trkpt lat="43.31535155505507" lon="10.761366052779003"><ele>68.5</ele><time>2026-04-18T12:52:48.998Z</time></trkpt><trkpt lat="43.31524734364228" lon="10.761482561403385"><ele>67.0</ele><time>2026-04-18T12:52:49.999Z</time></trkpt><trkpt lat="43.315150836861285" lon="10.761612871211534"><ele>67.0</ele><time>2026-04-18T12:52:50.999Z</time></trkpt><trkpt lat="43.315043097937235" lon="10.761726575840566"><ele>67.0</ele><time>2026-04-18T12:52:51.999Z</time></trkpt><trkpt lat="43.31496283047197" lon="10.761874806856525"><ele>67.0</ele><time>2026-04-18T12:52:52.999Z</time></trkpt><trkpt lat="43.31487361715731" lon="10.761998209479357"><ele>67.0</ele><time>2026-04-18T12:52:53.999Z</time></trkpt><trkpt lat="43.31476852860522" lon="10.76209117636243"><ele>67.75</ele><time>2026-04-18T12:52:54.999Z</time></trkpt><trkpt lat="43.314669452935576" lon="10.76218393447785"><ele>68.5</ele><time>2026-04-18T12:52:55.999Z</time></trkpt><trkpt lat="43.31456521674246" lon="10.762265190091457"><ele>69.25</ele><time>2026-04-18T12:52:56.999Z</time></trkpt><trkpt lat="43.31445517788757" lon="10.762347163309414"><ele>70.0</ele><time>2026-04-18T12:52:57.999Z</time></trkpt><trkpt lat="43.31434784856718" lon="10.76243420682195"><ele>70.0</ele><time>2026-04-18T12:52:58.999Z</time></trkpt><trkpt lat="43.31424329216141" lon="10.762539700620719"><ele>70.0</ele><time>2026-04-18T12:52:59.999Z</time></trkpt><trkpt lat="43.314159111723484" lon="10.76267469911622"><ele>70.0</ele><time>2026-04-18T12:53:00.999Z</time></trkpt><trkpt lat="43.314068158484524" lon="10.762803702411064"><ele>70.0</ele><time>2026-04-18T12:53:01.999Z</time></trkpt><trkpt lat="43.31398072839563" lon="10.76294430009529"><ele>72.25</ele><time>2026-04-18T12:53:02.999Z</time></trkpt><trkpt lat="43.3138948972512" lon="10.76308849339523"><ele>74.5</ele><time>2026-04-18T12:53:03.999Z</time></trkpt><trkpt lat="43.31380761914735" lon="10.7632304725263"><ele>76.75</ele><time>2026-04-18T12:53:04.999Z</time></trkpt><trkpt lat="43.31372152764264" lon="10.763369282859353"><ele>79.0</ele><time>2026-04-18T12:53:05.999Z</time></trkpt><trkpt lat="43.31363941507103" lon="10.763499691411706"><ele>78.0</ele><time>2026-04-18T12:53:06.999Z</time></trkpt><trkpt lat="43.31355982654854" lon="10.763625626085988"><ele>77.0</ele><time>2026-04-18T12:53:07.999Z</time></trkpt><trkpt lat="43.313482683972744" lon="10.763747007620069"><ele>76.0</ele><time>2026-04-18T12:53:08.999Z</time></trkpt><trkpt lat="43.3134024743663" lon="10.763857383553475"><ele>75.0</ele><time>2026-04-18T12:53:09.999Z</time></trkpt><trkpt lat="43.31331604146952" lon="10.76394512330542"><ele>75.0</ele><time>2026-04-18T12:53:10.999Z</time></trkpt><trkpt lat="43.31322454092264" lon="10.764018509517864"><ele>75.0</ele><time>2026-04-18T12:53:11.999Z</time></trkpt><trkpt lat="43.31312932222333" lon="10.764083663499632"><ele>75.0</ele><time>2026-04-18T12:53:12.999Z</time></trkpt><trkpt lat="43.31303228153398" lon="10.764142068276142"><ele>75.0</ele><time>2026-04-18T12:53:13.999Z</time></trkpt><trkpt lat="43.31293552896253" lon="10.764198210619858"><ele>75.0</ele><time>2026-04-18T12:53:14.999Z</time></trkpt><trkpt lat="43.312838344834965" lon="10.764254804535286"><ele>77.4</ele><time>2026-04-18T12:53:15.999Z</time></trkpt><trkpt lat="43.31274616940818" lon="10.764320563057982"><ele>79.8</ele><time>2026-04-18T12:53:16.999Z</time></trkpt><trkpt lat="43.31265720974763" lon="10.764396993077218"><ele>82.19999999999999</ele><time>2026-04-18T12:53:17.999Z</time></trkpt><trkpt lat="43.312568503707894" lon="10.764477866934431"><ele>84.6</ele><time>2026-04-18T12:53:18.999Z</time></trkpt><trkpt lat="43.3124805377511" lon="10.764561272050841"><ele>87.0</ele><time>2026-04-18T12:53:19.999Z</time></trkpt><trkpt lat="43.31239311916155" lon="10.764643565673387"><ele>87.0</ele><time>2026-04-18T12:53:20.999Z</time></trkpt><trkpt lat="43.312308381717784" lon="10.764723854233779"><ele>87.0</ele><time>2026-04-18T12:53:21.999Z</time></trkpt><trkpt lat="43.31222756798461" lon="10.764804846415126"><ele>87.0</ele><time>2026-04-18T12:53:22.999Z</time></trkpt><trkpt lat="43.3121479170004" lon="10.76488707834691"><ele>87.0</ele><time>2026-04-18T12:53:23.999Z</time></trkpt><trkpt lat="43.31206872771265" lon="10.764972818989115"><ele>87.0</ele><time>2026-04-18T12:53:24.999Z</time></trkpt><trkpt lat="43.31199745086598" lon="10.765066020102823"><ele>89.8</ele><time>2026-04-18T12:53:25.999Z</time></trkpt><trkpt lat="43.31193442802609" lon="10.765165729832153"><ele>92.6</ele><time>2026-04-18T12:53:26.999Z</time></trkpt><trkpt lat="43.31187541601457" lon="10.765273062056059"><ele>95.39999999999999</ele><time>2026-04-18T12:53:27.999Z</time></trkpt><trkpt lat="43.31181936773133" lon="10.765389827215596"><ele>98.19999999999999</ele><time>2026-04-18T12:53:28.999Z</time></trkpt><trkpt lat="43.31176653487204" lon="10.765515269737953"><ele>101.0</ele><time>2026-04-18T12:53:29.999Z</time></trkpt><trkpt lat="43.31171535339553" lon="10.765642874986238"><ele>101.6</ele><time>2026-04-18T12:53:30.999Z</time></trkpt><trkpt lat="43.31166270023745" lon="10.76577068523502"><ele>102.19999999999999</ele><time>2026-04-18T12:53:31.999Z</time></trkpt><trkpt lat="43.311605790363004" lon="10.765893821681864"><ele>102.80000000000001</ele><time>2026-04-18T12:53:32.999Z</time></trkpt><trkpt lat="43.31153895462909" lon="10.766003325507857"><ele>103.4</ele><time>2026-04-18T12:53:33.999Z</time></trkpt><trkpt lat="43.311458443695656" lon="10.766087840196569"><ele>104.0</ele><time>2026-04-18T12:53:34.999Z</time></trkpt><trkpt lat="43.3113596589198" lon="10.766112551217747"><ele>105.80000000000001</ele><time>2026-04-18T12:53:35.999Z</time></trkpt><trkpt lat="43.3112667421042" lon="10.766098237941277"><ele>107.60000000000001</ele><time>2026-04-18T12:53:36.999Z</time></trkpt><trkpt lat="43.3111750916633" lon="10.766078299400272"><ele>109.4</ele><time>2026-04-18T12:53:37.999Z</time></trkpt><trkpt lat="43.31108279996055" lon="10.766056575216137"><ele>111.2</ele><time>2026-04-18T12:53:38.999Z</time></trkpt><trkpt lat="43.310985466866306" lon="10.766026637864112"><ele>113.0</ele><time>2026-04-18T12:53:39.999Z</time></trkpt><trkpt lat="43.310882791079635" lon="10.76601588083329"><ele>113.0</ele><time>2026-04-18T12:53:40.999Z</time></trkpt><trkpt lat="43.310782758148115" lon="10.76598530886526"><ele>113.00000000000001</ele><time>2026-04-18T12:53:41.999Z</time></trkpt><trkpt lat="43.31068051728511" lon="10.765957836405207"><ele>113.00000000000001</ele><time>2026-04-18T12:53:42.999Z</time></trkpt><trkpt lat="43.31058679140482" lon="10.76589221799411"><ele>113.0</ele><time>2026-04-18T12:53:43.999Z</time></trkpt><trkpt lat="43.31048066602424" lon="10.765856814147867"><ele>113.0</ele><time>2026-04-18T12:53:44.999Z</time></trkpt><trkpt lat="43.31038287871701" lon="10.76578154339459"><ele>116.25</ele><time>2026-04-18T12:53:45.999Z</time></trkpt><trkpt lat="43.31028300819983" lon="10.765695534946856"><ele>119.5</ele><time>2026-04-18T12:53:46.999Z</time></trkpt><trkpt lat="43.31019792242564" lon="10.765575251619868"><ele>122.75</ele><time>2026-04-18T12:53:47.999Z</time></trkpt><trkpt lat="43.31010919686503" lon="10.765456252633415"><ele>126.0</ele><time>2026-04-18T12:53:48.999Z</time></trkpt><trkpt lat="43.31002802490034" lon="10.765319997192186"><ele>126.25</ele><time>2026-04-18T12:53:49.999Z</time></trkpt><trkpt lat="43.30996352611029" lon="10.76516613954583"><ele>126.5</ele><time>2026-04-18T12:53:50.999Z</time></trkpt><trkpt lat="43.30990706310125" lon="10.765000210738666"><ele>126.75</ele><time>2026-04-18T12:53:51.999Z</time></trkpt><trkpt lat="43.30985649955128" lon="10.7648344628228"><ele>127.0</ele><time>2026-04-18T12:53:52.999Z</time></trkpt><trkpt lat="43.30980220823818" lon="10.764677428132813"><ele>127.0</ele><time>2026-04-18T12:53:53.999Z</time></trkpt><trkpt lat="43.309763288816356" lon="10.764524365437296"><ele>126.99999999999999</ele><time>2026-04-18T12:53:54.999Z</time></trkpt><trkpt lat="43.30971133382508" lon="10.76439195758993"><ele>126.99999999999999</ele><time>2026-04-18T12:53:55.999Z</time></trkpt><trkpt lat="43.309659568643255" lon="10.764272548762536"><ele>127.0</ele><time>2026-04-18T12:53:56.999Z</time></trkpt><trkpt lat="43.30962276513638" lon="10.764162197183"><ele>127.0</ele><time>2026-04-18T12:53:57.999Z</time></trkpt><trkpt lat="43.30957125004142" lon="10.764082666391326"><ele>128.33333333333334</ele><time>2026-04-18T12:53:58.999Z</time></trkpt><trkpt lat="43.30949633745204" lon="10.764032933878521"><ele>129.66666666666669</ele><time>2026-04-18T12:53:59.999Z</time></trkpt><trkpt lat="43.3094079913157" lon="10.764051784543643"><ele>131.0</ele><time>2026-04-18T12:54:00.999Z</time></trkpt><trkpt lat="43.309352868902764" lon="10.764170049841749"><ele>132.33333333333334</ele><time>2026-04-18T12:54:01.999Z</time></trkpt><trkpt lat="43.30930174816464" lon="10.764260981213749"><ele>133.66666666666666</ele><time>2026-04-18T12:54:02.999Z</time></trkpt><trkpt lat="43.30924526955017" lon="10.76435173409816"><ele>135.0</ele><time>2026-04-18T12:54:03.999Z</time></trkpt><trkpt lat="43.30918261291805" lon="10.764443344200668"><ele>136.4</ele><time>2026-04-18T12:54:04.999Z</time></trkpt><trkpt lat="43.30911479588779" lon="10.764536054580377"><ele>137.8</ele><time>2026-04-18T12:54:05.999Z</time></trkpt><trkpt lat="43.30903706634918" lon="10.76462186499433"><ele>139.2</ele><time>2026-04-18T12:54:06.999Z</time></trkpt><trkpt lat="43.30893777138791" lon="10.764669218899742"><ele>140.6</ele><time>2026-04-18T12:54:07.999Z</time></trkpt><trkpt lat="43.30884402933629" lon="10.764734855242597"><ele>142.0</ele><time>2026-04-18T12:54:08.999Z</time></trkpt><trkpt lat="43.30875463496476" lon="10.764822561158239"><ele>142.0</ele><time>2026-04-18T12:54:09.999Z</time></trkpt><trkpt lat="43.30865017163828" lon="10.76487246626397"><ele>142.0</ele><time>2026-04-18T12:54:10.999Z</time></trkpt><trkpt lat="43.30855447705632" lon="10.764946702107691"><ele>142.0</ele><time>2026-04-18T12:54:11.999Z</time></trkpt><trkpt lat="43.308458540326164" lon="10.76502250370821"><ele>142.0</ele><time>2026-04-18T12:54:12.999Z</time></trkpt><trkpt lat="43.30835952513118" lon="10.765100174884875"><ele>142.0</ele><time>2026-04-18T12:54:13.999Z</time></trkpt><trkpt lat="43.308257505095014" lon="10.76517808574574"><ele>142.6</ele><time>2026-04-18T12:54:14.999Z</time></trkpt><trkpt lat="43.30815655004057" lon="10.76525283405144"><ele>143.2</ele><time>2026-04-18T12:54:15.999Z</time></trkpt><trkpt lat="43.30805958454448" lon="10.765324589926767"><ele>143.8</ele><time>2026-04-18T12:54:16.999Z</time></trkpt><trkpt lat="43.307966176903626" lon="10.765393638972062"><ele>144.4</ele><time>2026-04-18T12:54:17.999Z</time></trkpt><trkpt lat="43.307877411116195" lon="10.765461561518778"><ele>145.0</ele><time>2026-04-18T12:54:18.999Z</time></trkpt><trkpt lat="43.307789043510525" lon="10.765531393419995"><ele>145.0</ele><time>2026-04-18T12:54:19.999Z</time></trkpt><trkpt lat="43.307710190030505" lon="10.765599351040535"><ele>145.0</ele><time>2026-04-18T12:54:20.999Z</time></trkpt><trkpt lat="43.30764866458053" lon="10.765685026913271"><ele>145.0</ele><time>2026-04-18T12:54:21.999Z</time></trkpt><trkpt lat="43.30757941798232" lon="10.765754035674155"><ele>145.0</ele><time>2026-04-18T12:54:22.999Z</time></trkpt><trkpt lat="43.30751032857057" lon="10.765836829709164"><ele>145.0</ele><time>2026-04-18T12:54:23.999Z</time></trkpt><trkpt lat="43.3074280334404" lon="10.765912064688147"><ele>145.0</ele><time>2026-04-18T12:54:24.999Z</time></trkpt><trkpt lat="43.307356684983596" lon="10.766009458790812"><ele>145.0</ele><time>2026-04-18T12:54:25.999Z</time></trkpt><trkpt lat="43.30728913989366" lon="10.76611205616202"><ele>145.0</ele><time>2026-04-18T12:54:26.999Z</time></trkpt><trkpt lat="43.30722531830817" lon="10.766225049884833"><ele>145.0</ele><time>2026-04-18T12:54:27.999Z</time></trkpt><trkpt lat="43.30716596562705" lon="10.766343687422255"><ele>145.0</ele><time>2026-04-18T12:54:28.999Z</time></trkpt><trkpt lat="43.307110012778125" lon="10.766468343580032"><ele>144.2</ele><time>2026-04-18T12:54:29.999Z</time></trkpt><trkpt lat="43.307059542663325" lon="10.766597147562573"><ele>143.4</ele><time>2026-04-18T12:54:30.999Z</time></trkpt><trkpt lat="43.307009284830464" lon="10.76672686971027"><ele>142.6</ele><time>2026-04-18T12:54:31.999Z</time></trkpt><trkpt lat="43.30692776622062" lon="10.766817301347643"><ele>141.8</ele><time>2026-04-18T12:54:32.999Z</time></trkpt><trkpt lat="43.306837066081606" lon="10.766888776174904"><ele>141.0</ele><time>2026-04-18T12:54:33.999Z</time></trkpt><trkpt lat="43.306733301699474" lon="10.766937540829437"><ele>140.75</ele><time>2026-04-18T12:54:34.999Z</time></trkpt><trkpt lat="43.306618834740576" lon="10.766951752511698"><ele>140.5</ele><time>2026-04-18T12:54:35.999Z</time></trkpt><trkpt lat="43.30650745729968" lon="10.766996041133533"><ele>140.25</ele><time>2026-04-18T12:54:36.999Z</time></trkpt><trkpt lat="43.30639576133832" lon="10.767045573022543"><ele>140.0</ele><time>2026-04-18T12:54:37.999Z</time></trkpt><trkpt lat="43.30629138833437" lon="10.767107149910974"><ele>140.8</ele><time>2026-04-18T12:54:38.999Z</time></trkpt><trkpt lat="43.30619717923924" lon="10.76717934132264"><ele>141.6</ele><time>2026-04-18T12:54:39.999Z</time></trkpt><trkpt lat="43.30611874598741" lon="10.76726695811911"><ele>142.4</ele><time>2026-04-18T12:54:40.999Z</time></trkpt><trkpt lat="43.30603687258322" lon="10.767322996800376"><ele>143.2</ele><time>2026-04-18T12:54:41.998Z</time></trkpt><trkpt lat="43.30596133868346" lon="10.767366189380327"><ele>144.0</ele><time>2026-04-18T12:54:42.998Z</time></trkpt><trkpt lat="43.30589066765076" lon="10.76738594025184"><ele>144.0</ele><time>2026-04-18T12:54:43.998Z</time></trkpt><trkpt lat="43.30581575110178" lon="10.76739723052046"><ele>144.0</ele><time>2026-04-18T12:54:44.998Z</time></trkpt><trkpt lat="43.30573783640916" lon="10.767400499475844"><ele>144.0</ele><time>2026-04-18T12:54:45.998Z</time></trkpt><trkpt lat="43.30565802583747" lon="10.767398230755338"><ele>144.0</ele><time>2026-04-18T12:54:46.998Z</time></trkpt><trkpt lat="43.30557580272273" lon="10.767392981662587"><ele>144.0</ele><time>2026-04-18T12:54:47.998Z</time></trkpt><trkpt lat="43.30549309773351" lon="10.767384273953073"><ele>144.0</ele><time>2026-04-18T12:54:48.998Z</time></trkpt><trkpt lat="43.305411238554626" lon="10.767358263490335"><ele>144.66666666666666</ele><time>2026-04-18T12:54:49.998Z</time></trkpt><trkpt lat="43.30532534555077" lon="10.76736171367129"><ele>145.33333333333334</ele><time>2026-04-18T12:54:50.998Z</time></trkpt><trkpt lat="43.3052403717035" lon="10.76737015365722"><ele>146.0</ele><time>2026-04-18T12:54:51.998Z</time></trkpt><trkpt lat="43.30515757305154" lon="10.767378896962992"><ele>146.66666666666669</ele><time>2026-04-18T12:54:52.998Z</time></trkpt><trkpt lat="43.305079406254464" lon="10.767416042859516"><ele>147.33333333333334</ele><time>2026-04-18T12:54:53.998Z</time></trkpt><trkpt lat="43.305000973338956" lon="10.76741806928619"><ele>148.0</ele><time>2026-04-18T12:54:54.998Z</time></trkpt><trkpt lat="43.30492530361655" lon="10.76738225984981"><ele>148.0</ele><time>2026-04-18T12:54:55.998Z</time></trkpt><trkpt lat="43.30484750423949" lon="10.76736674335964"><ele>148.0</ele><time>2026-04-18T12:54:56.998Z</time></trkpt><trkpt lat="43.304775221548496" lon="10.767342073786903"><ele>148.0</ele><time>2026-04-18T12:54:57.998Z</time></trkpt><trkpt lat="43.30469943366797" lon="10.767314811040633"><ele>148.0</ele><time>2026-04-18T12:54:58.998Z</time></trkpt><trkpt lat="43.30462154129606" lon="10.76728344898156"><ele>148.0</ele><time>2026-04-18T12:54:59.998Z</time></trkpt><trkpt lat="43.30453980938528" lon="10.767250980766763"><ele>148.0</ele><time>2026-04-18T12:55:00.998Z</time></trkpt><trkpt lat="43.30445517182252" lon="10.767216422120546"><ele>148.6</ele><time>2026-04-18T12:55:01.998Z</time></trkpt><trkpt lat="43.30436768388897" lon="10.767180719751094"><ele>149.20000000000002</ele><time>2026-04-18T12:55:02.999Z</time></trkpt><trkpt lat="43.30427544204471" lon="10.767143096905324"><ele>149.8</ele><time>2026-04-18T12:55:03.999Z</time></trkpt><trkpt lat="43.304179637909066" lon="10.76710417345712"><ele>150.4</ele><time>2026-04-18T12:55:04.999Z</time></trkpt><trkpt lat="43.30407800589829" lon="10.767072479512857"><ele>151.0</ele><time>2026-04-18T12:55:05.999Z</time></trkpt><trkpt lat="43.30396870421381" lon="10.76705442085493"><ele>151.75</ele><time>2026-04-18T12:55:06.999Z</time></trkpt><trkpt lat="43.30384786615452" lon="10.767054635294395"><ele>152.5</ele><time>2026-04-18T12:55:07.999Z</time></trkpt><trkpt lat="43.30372182609567" lon="10.767075635074434"><ele>153.25</ele><time>2026-04-18T12:55:08.999Z</time></trkpt><trkpt lat="43.30359199714204" lon="10.767116361303556"><ele>154.0</ele><time>2026-04-18T12:55:09.999Z</time></trkpt><trkpt lat="43.30346456808696" lon="10.767182443309895"><ele>154.0</ele><time>2026-04-18T12:55:10.999Z</time></trkpt><trkpt lat="43.3033269820549" lon="10.767208892423078"><ele>154.0</ele><time>2026-04-18T12:55:11.999Z</time></trkpt><trkpt lat="43.30319104774718" lon="10.767254135960645"><ele>154.0</ele><time>2026-04-18T12:55:12.999Z</time></trkpt><trkpt lat="43.30305427935914" lon="10.76730082436762"><ele>154.0</ele><time>2026-04-18T12:55:13.999Z</time></trkpt><trkpt lat="43.30291669644963" lon="10.767349012262708"><ele>154.25</ele><time>2026-04-18T12:55:14.999Z</time></trkpt><trkpt lat="43.30278102134021" lon="10.767396997205974"><ele>154.5</ele><time>2026-04-18T12:55:15.999Z</time></trkpt><trkpt lat="43.30264678472322" lon="10.767445116724607"><ele>154.75</ele><time>2026-04-18T12:55:16.999Z</time></trkpt><trkpt lat="43.3025184773622" lon="10.767493239481833"><ele>155.0</ele><time>2026-04-18T12:55:17.999Z</time></trkpt><trkpt lat="43.30239529247516" lon="10.767542767080805"><ele>155.0</ele><time>2026-04-18T12:55:18.999Z</time></trkpt><trkpt lat="43.302274718407126" lon="10.767587785374285"><ele>155.0</ele><time>2026-04-18T12:55:19.999Z</time></trkpt><trkpt lat="43.302152968695445" lon="10.767630061023958"><ele>155.0</ele><time>2026-04-18T12:55:20.999Z</time></trkpt><trkpt lat="43.302030289427705" lon="10.767673368511858"><ele>155.0</ele><time>2026-04-18T12:55:21.999Z</time></trkpt><trkpt lat="43.30190913293341" lon="10.767719066992555"><ele>154.75</ele><time>2026-04-18T12:55:22.999Z</time></trkpt><trkpt lat="43.30178866940523" lon="10.767766096153343"><ele>154.5</ele><time>2026-04-18T12:55:23.999Z</time></trkpt><trkpt lat="43.301669554246864" lon="10.767815097451889"><ele>154.25</ele><time>2026-04-18T12:55:24.999Z</time></trkpt><trkpt lat="43.30155085366144" lon="10.767862056468614"><ele>154.0</ele><time>2026-04-18T12:55:25.999Z</time></trkpt><trkpt lat="43.301433791681795" lon="10.767906921376733"><ele>154.75</ele><time>2026-04-18T12:55:26.999Z</time></trkpt><trkpt lat="43.30131725573752" lon="10.767948791276874"><ele>155.5</ele><time>2026-04-18T12:55:27.999Z</time></trkpt><trkpt lat="43.30120239943987" lon="10.767988362011796"><ele>156.25</ele><time>2026-04-18T12:55:28.999Z</time></trkpt><trkpt lat="43.30108826399097" lon="10.768030021429356"><ele>157.0</ele><time>2026-04-18T12:55:29.999Z</time></trkpt><trkpt lat="43.300975662302434" lon="10.768070936564962"><ele>157.0</ele><time>2026-04-18T12:55:30.999Z</time></trkpt><trkpt lat="43.30086546945875" lon="10.768111346455935"><ele>157.0</ele><time>2026-04-18T12:55:31.999Z</time></trkpt><trkpt lat="43.30075667402156" lon="10.768149602340022"><ele>157.0</ele><time>2026-04-18T12:55:32.999Z</time></trkpt><trkpt lat="43.30064897206239" lon="10.768186384637119"><ele>157.0</ele><time>2026-04-18T12:55:33.999Z</time></trkpt><trkpt lat="43.30054224650983" lon="10.768216540428561"><ele>157.0</ele><time>2026-04-18T12:55:34.999Z</time></trkpt><trkpt lat="43.300434343590446" lon="10.768238157121932"><ele>158.39999999999998</ele><time>2026-04-18T12:55:35.999Z</time></trkpt><trkpt lat="43.30032759065613" lon="10.76825379643423"><ele>159.79999999999998</ele><time>2026-04-18T12:55:36.999Z</time></trkpt><trkpt lat="43.30022124626951" lon="10.768262477067717"><ele>161.2</ele><time>2026-04-18T12:55:37.999Z</time></trkpt><trkpt lat="43.300118558314914" lon="10.768265104423524"><ele>162.6</ele><time>2026-04-18T12:55:38.999Z</time></trkpt><trkpt lat="43.30001731532954" lon="10.768265309643807"><ele>164.0</ele><time>2026-04-18T12:55:39.999Z</time></trkpt><trkpt lat="43.29991827147266" lon="10.768263335330138"><ele>164.0</ele><time>2026-04-18T12:55:40.999Z</time></trkpt><trkpt lat="43.2998205476286" lon="10.768257110294146"><ele>164.0</ele><time>2026-04-18T12:55:41.999Z</time></trkpt><trkpt lat="43.299726365750516" lon="10.768242910162607"><ele>164.0</ele><time>2026-04-18T12:55:42.999Z</time></trkpt><trkpt lat="43.299633483799354" lon="10.768220563190502"><ele>164.0</ele><time>2026-04-18T12:55:43.999Z</time></trkpt><trkpt lat="43.29954141513592" lon="10.76819115839933"><ele>164.0</ele><time>2026-04-18T12:55:44.999Z</time></trkpt><trkpt lat="43.299448213836655" lon="10.76816120878219"><ele>165.2</ele><time>2026-04-18T12:55:45.999Z</time></trkpt><trkpt lat="43.29935367353256" lon="10.768132657020756"><ele>166.39999999999998</ele><time>2026-04-18T12:55:46.999Z</time></trkpt><trkpt lat="43.299258709434845" lon="10.768104275866705"><ele>167.6</ele><time>2026-04-18T12:55:47.999Z</time></trkpt><trkpt lat="43.29916450555671" lon="10.768072327043363"><ele>168.8</ele><time>2026-04-18T12:55:48.999Z</time></trkpt><trkpt lat="43.299068338057" lon="10.76803661412877"><ele>170.0</ele><time>2026-04-18T12:55:49.999Z</time></trkpt><trkpt lat="43.298970207189434" lon="10.767995941837844"><ele>172.0</ele><time>2026-04-18T12:55:50.999Z</time></trkpt><trkpt lat="43.298869142547005" lon="10.767955019917324"><ele>174.0</ele><time>2026-04-18T12:55:51.999Z</time></trkpt><trkpt lat="43.29876522536545" lon="10.767910995024094"><ele>176.0</ele><time>2026-04-18T12:55:52.999Z</time></trkpt><trkpt lat="43.29866050288874" lon="10.76786598180369"><ele>178.0</ele><time>2026-04-18T12:55:53.999Z</time></trkpt><trkpt lat="43.29855676984592" lon="10.767819565709106"><ele>180.0</ele><time>2026-04-18T12:55:54.999Z</time></trkpt><trkpt lat="43.29845466444804" lon="10.767771485464333"><ele>180.0</ele><time>2026-04-18T12:55:55.999Z</time></trkpt><trkpt lat="43.298354196228225" lon="10.767721618912079"><ele>180.0</ele><time>2026-04-18T12:55:56.999Z</time></trkpt><trkpt lat="43.29825552235916" lon="10.76767386470765"><ele>180.0</ele><time>2026-04-18T12:55:57.999Z</time></trkpt><trkpt lat="43.298156290789805" lon="10.767641562520339"><ele>180.0</ele><time>2026-04-18T12:55:58.999Z</time></trkpt><trkpt lat="43.29805860663081" lon="10.76763189764205"><ele>180.0</ele><time>2026-04-18T12:55:59.999Z</time></trkpt><trkpt lat="43.297962428210425" lon="10.767642273328732"><ele>181.6</ele><time>2026-04-18T12:56:00.999Z</time></trkpt><trkpt lat="43.297868235904346" lon="10.767667328739085"><ele>183.2</ele><time>2026-04-18T12:56:01.999Z</time></trkpt><trkpt lat="43.297775515982686" lon="10.767696739305215"><ele>184.8</ele><time>2026-04-18T12:56:02.999Z</time></trkpt><trkpt lat="43.29768171470341" lon="10.767724837010052"><ele>186.4</ele><time>2026-04-18T12:56:03.999Z</time></trkpt><trkpt lat="43.29758631525603" lon="10.76776160315199"><ele>188.0</ele><time>2026-04-18T12:56:04.999Z</time></trkpt><trkpt lat="43.29748346863485" lon="10.767786769659406"><ele>188.0</ele><time>2026-04-18T12:56:05.999Z</time></trkpt><trkpt lat="43.29738627872929" lon="10.767852054603486"><ele>188.0</ele><time>2026-04-18T12:56:06.999Z</time></trkpt><trkpt lat="43.29730088419395" lon="10.767954071029534"><ele>188.0</ele><time>2026-04-18T12:56:08Z</time></trkpt><trkpt lat="43.29721313193619" lon="10.76803763600551"><ele>188.0</ele><time>2026-04-18T12:56:09Z</time></trkpt><trkpt lat="43.29712918502007" lon="10.768121726055693"><ele>188.0</ele><time>2026-04-18T12:56:10Z</time></trkpt><trkpt lat="43.29704929756009" lon="10.76820240237349"><ele>190.4</ele><time>2026-04-18T12:56:11Z</time></trkpt><trkpt lat="43.29696999683319" lon="10.768272047601231"><ele>192.8</ele><time>2026-04-18T12:56:12Z</time></trkpt><trkpt lat="43.2968843093064" lon="10.768335432638766"><ele>195.2</ele><time>2026-04-18T12:56:13Z</time></trkpt><trkpt lat="43.296794020268685" lon="10.768382417025691"><ele>197.6</ele><time>2026-04-18T12:56:14Z</time></trkpt><trkpt lat="43.29669642892818" lon="10.768389729469977"><ele>200.0</ele><time>2026-04-18T12:56:15Z</time></trkpt><trkpt lat="43.296600370947765" lon="10.76840835386769"><ele>200.0</ele><time>2026-04-18T12:56:16Z</time></trkpt><trkpt lat="43.296500293780674" lon="10.768412302007782"><ele>200.0</ele><time>2026-04-18T12:56:17Z</time></trkpt><trkpt lat="43.296394140434664" lon="10.768424177688988"><ele>200.0</ele><time>2026-04-18T12:56:18Z</time></trkpt><trkpt lat="43.29628598202727" lon="10.768413894374124"><ele>200.0</ele><time>2026-04-18T12:56:19Z</time></trkpt><trkpt lat="43.2961816585167" lon="10.768403072394069"><ele>200.0</ele><time>2026-04-18T12:56:20Z</time></trkpt><trkpt lat="43.29607657769958" lon="10.768391842354957"><ele>200.8</ele><time>2026-04-18T12:56:21Z</time></trkpt><trkpt lat="43.29597409312965" lon="10.768381737038096"><ele>201.6</ele><time>2026-04-18T12:56:22Z</time></trkpt><trkpt lat="43.29587242331075" lon="10.768374576159033"><ele>202.39999999999998</ele><time>2026-04-18T12:56:23Z</time></trkpt><trkpt lat="43.29577054018664" lon="10.768372359929266"><ele>203.2</ele><time>2026-04-18T12:56:24Z</time></trkpt><trkpt lat="43.29567004945605" lon="10.768373358155767"><ele>204.0</ele><time>2026-04-18T12:56:25Z</time></trkpt><trkpt lat="43.29556588320399" lon="10.768384803357632"><ele>205.0</ele><time>2026-04-18T12:56:26Z</time></trkpt><trkpt lat="43.295458518580396" lon="10.768408101008163"><ele>206.0</ele><time>2026-04-18T12:56:27Z</time></trkpt><trkpt lat="43.29534941090323" lon="10.768437753991586"><ele>207.0</ele><time>2026-04-18T12:56:28Z</time></trkpt><trkpt lat="43.29523855089677" lon="10.768467747590691"><ele>208.0</ele><time>2026-04-18T12:56:29Z</time></trkpt><trkpt lat="43.29513104507833" lon="10.768494896423478"><ele>209.0</ele><time>2026-04-18T12:56:30Z</time></trkpt><trkpt lat="43.29502157280362" lon="10.768494492259416"><ele>209.0</ele><time>2026-04-18T12:56:31Z</time></trkpt><trkpt lat="43.294914888901786" lon="10.768504694207016"><ele>209.0</ele><time>2026-04-18T12:56:32Z</time></trkpt><trkpt lat="43.29480856032919" lon="10.768510132029231"><ele>209.0</ele><time>2026-04-18T12:56:33Z</time></trkpt><trkpt lat="43.294705874526244" lon="10.768500355212117"><ele>209.0</ele><time>2026-04-18T12:56:34Z</time></trkpt><trkpt lat="43.294602107313345" lon="10.768480479312489"><ele>209.0</ele><time>2026-04-18T12:56:35Z</time></trkpt><trkpt lat="43.29450042875951" lon="10.768457167344609"><ele>210.0</ele><time>2026-04-18T12:56:36Z</time></trkpt><trkpt lat="43.294398201193566" lon="10.768461638442135"><ele>211.0</ele><time>2026-04-18T12:56:37Z</time></trkpt><trkpt lat="43.29429247828141" lon="10.768465397259295"><ele>211.99999999999997</ele><time>2026-04-18T12:56:38Z</time></trkpt><trkpt lat="43.294183820062464" lon="10.768493067469896"><ele>213.0</ele><time>2026-04-18T12:56:39Z</time></trkpt><trkpt lat="43.29406959669868" lon="10.768525824654741"><ele>214.0</ele><time>2026-04-18T12:56:40Z</time></trkpt><trkpt lat="43.293951982560905" lon="10.76855450629667"><ele>209.5</ele><time>2026-04-18T12:56:41Z</time></trkpt><trkpt lat="43.29383469103971" lon="10.768576521171534"><ele>205.0</ele><time>2026-04-18T12:56:42Z</time></trkpt><trkpt lat="43.293721345179236" lon="10.768591829561347"><ele>200.5</ele><time>2026-04-18T12:56:43Z</time></trkpt><trkpt lat="43.29360829026219" lon="10.768574882845892"><ele>196.0</ele><time>2026-04-18T12:56:44Z</time></trkpt><trkpt lat="43.29349304343903" lon="10.768586778339397"><ele>196.0</ele><time>2026-04-18T12:56:45Z</time></trkpt><trkpt lat="43.2933819635445" lon="10.768611759258969"><ele>196.0</ele><time>2026-04-18T12:56:46Z</time></trkpt><trkpt lat="43.293271545520014" lon="10.768649242217634"><ele>196.0</ele><time>2026-04-18T12:56:47Z</time></trkpt><trkpt lat="43.29315243455011" lon="10.768637692463797"><ele>196.0</ele><time>2026-04-18T12:56:47.999Z</time></trkpt><trkpt lat="43.29302971231991" lon="10.768609489514862"><ele>196.25</ele><time>2026-04-18T12:56:48.999Z</time></trkpt><trkpt lat="43.2928987876761" lon="10.768566989819119"><ele>196.5</ele><time>2026-04-18T12:56:49.999Z</time></trkpt><trkpt lat="43.292761003526735" lon="10.768519428693596"><ele>196.75</ele><time>2026-04-18T12:56:50.999Z</time></trkpt><trkpt lat="43.29262147719891" lon="10.768454566350103"><ele>197.0</ele><time>2026-04-18T12:56:51.999Z</time></trkpt><trkpt lat="43.292480580132356" lon="10.76840145480826"><ele>199.5</ele><time>2026-04-18T12:56:52.999Z</time></trkpt><trkpt lat="43.2923449340324" lon="10.768347716824188"><ele>202.0</ele><time>2026-04-18T12:56:53.999Z</time></trkpt><trkpt lat="43.292213808247595" lon="10.76829362087362"><ele>204.5</ele><time>2026-04-18T12:56:54.999Z</time></trkpt><trkpt lat="43.29208741620642" lon="10.768241251381665"><ele>207.0</ele><time>2026-04-18T12:56:55.999Z</time></trkpt><trkpt lat="43.291961787218746" lon="10.768192074989889"><ele>207.0</ele><time>2026-04-18T12:56:56.999Z</time></trkpt><trkpt lat="43.29183416721476" lon="10.768153280834971"><ele>207.0</ele><time>2026-04-18T12:56:57.999Z</time></trkpt><trkpt lat="43.29170141126087" lon="10.76812778486943"><ele>207.0</ele><time>2026-04-18T12:56:58.999Z</time></trkpt><trkpt lat="43.29156603851102" lon="10.76811313280165"><ele>207.0</ele><time>2026-04-18T12:56:59.999Z</time></trkpt><trkpt lat="43.291424013975124" lon="10.768105569899893"><ele>208.0</ele><time>2026-04-18T12:57:00.999Z</time></trkpt><trkpt lat="43.2912782128221" lon="10.768100832706152"><ele>209.0</ele><time>2026-04-18T12:57:01.999Z</time></trkpt><trkpt lat="43.29113279321717" lon="10.768096178657677"><ele>210.0</ele><time>2026-04-18T12:57:02.999Z</time></trkpt><trkpt lat="43.29098750736979" lon="10.768093094832498"><ele>211.0</ele><time>2026-04-18T12:57:03.999Z</time></trkpt><trkpt lat="43.29084462931205" lon="10.768089714130964"><ele>211.0</ele><time>2026-04-18T12:57:04.999Z</time></trkpt><trkpt lat="43.290703343116355" lon="10.768087586889788"><ele>211.0</ele><time>2026-04-18T12:57:05.999Z</time></trkpt><trkpt lat="43.29056546231778" lon="10.768085997781615"><ele>211.0</ele><time>2026-04-18T12:57:06.999Z</time></trkpt><trkpt lat="43.290428669981" lon="10.768084325198226"><ele>211.0</ele><time>2026-04-18T12:57:07.999Z</time></trkpt><trkpt lat="43.29029466524" lon="10.768081153768534"><ele>213.5</ele><time>2026-04-18T12:57:08.999Z</time></trkpt><trkpt lat="43.29016034859113" lon="10.768078698637277"><ele>216.0</ele><time>2026-04-18T12:57:09.999Z</time></trkpt><trkpt lat="43.29002618136894" lon="10.768076272359794"><ele>218.5</ele><time>2026-04-18T12:57:10.999Z</time></trkpt><trkpt lat="43.28989418855621" lon="10.768073357834274"><ele>221.0</ele><time>2026-04-18T12:57:11.999Z</time></trkpt><trkpt lat="43.2897634485164" lon="10.768069438720712"><ele>223.5</ele><time>2026-04-18T12:57:12.999Z</time></trkpt><trkpt lat="43.289632690942156" lon="10.768065645936094"><ele>226.0</ele><time>2026-04-18T12:57:13.999Z</time></trkpt><trkpt lat="43.289502051834035" lon="10.768061802647676"><ele>228.5</ele><time>2026-04-18T12:57:14.999Z</time></trkpt><trkpt lat="43.28937096708325" lon="10.768058731444086"><ele>231.0</ele><time>2026-04-18T12:57:15.999Z</time></trkpt><trkpt lat="43.28924161830283" lon="10.768057490271175"><ele>231.0</ele><time>2026-04-18T12:57:16.999Z</time></trkpt><trkpt lat="43.28911908225259" lon="10.768058929682194"><ele>231.00000000000003</ele><time>2026-04-18T12:57:17.999Z</time></trkpt><trkpt lat="43.28900614448251" lon="10.768064238174464"><ele>231.00000000000003</ele><time>2026-04-18T12:57:18.999Z</time></trkpt><trkpt lat="43.28890447806785" lon="10.768067239572897"><ele>231.0</ele><time>2026-04-18T12:57:19.999Z</time></trkpt><trkpt lat="43.28881093050082" lon="10.768063125036985"><ele>231.0</ele><time>2026-04-18T12:57:20.999Z</time></trkpt><trkpt lat="43.28872331223467" lon="10.76804286611599"><ele>232.20000000000002</ele><time>2026-04-18T12:57:21.999Z</time></trkpt><trkpt lat="43.28863709645498" lon="10.768004923675427"><ele>233.40000000000003</ele><time>2026-04-18T12:57:22.999Z</time></trkpt><trkpt lat="43.28855626998529" lon="10.767945026657236"><ele>234.6</ele><time>2026-04-18T12:57:23.999Z</time></trkpt><trkpt lat="43.28848234539945" lon="10.767866910140466"><ele>235.8</ele><time>2026-04-18T12:57:24.999Z</time></trkpt><trkpt lat="43.288413560523956" lon="10.767783157073687"><ele>237.0</ele><time>2026-04-18T12:57:25.999Z</time></trkpt><trkpt lat="43.28834179007696" lon="10.76769718882142"><ele>239.6</ele><time>2026-04-18T12:57:26.999Z</time></trkpt><trkpt lat="43.28827585576409" lon="10.767605808933784"><ele>242.2</ele><time>2026-04-18T12:57:27.999Z</time></trkpt><trkpt lat="43.28821623620099" lon="10.767504053096484"><ele>244.8</ele><time>2026-04-18T12:57:28.999Z</time></trkpt><trkpt lat="43.288162771220534" lon="10.767394023078598"><ele>247.4</ele><time>2026-04-18T12:57:29.999Z</time></trkpt><trkpt lat="43.288119985935296" lon="10.7672729864308"><ele>250.0</ele><time>2026-04-18T12:57:30.999Z</time></trkpt><trkpt lat="43.28808485676818" lon="10.767141218587874"><ele>250.0</ele><time>2026-04-18T12:57:31.999Z</time></trkpt><trkpt lat="43.28805826069578" lon="10.766999615937644"><ele>250.0</ele><time>2026-04-18T12:57:32.999Z</time></trkpt><trkpt lat="43.28803246002315" lon="10.766856349556228"><ele>250.0</ele><time>2026-04-18T12:57:33.999Z</time></trkpt><trkpt lat="43.287992737361826" lon="10.76671795260596"><ele>250.0</ele><time>2026-04-18T12:57:34.999Z</time></trkpt><trkpt lat="43.28793784789098" lon="10.766587546590019"><ele>250.0</ele><time>2026-04-18T12:57:35.999Z</time></trkpt><trkpt lat="43.287870772192676" lon="10.766463701065081"><ele>253.75</ele><time>2026-04-18T12:57:36.999Z</time></trkpt><trkpt lat="43.28779451990301" lon="10.766350090145904"><ele>257.5</ele><time>2026-04-18T12:57:38Z</time></trkpt><trkpt lat="43.287701374065094" lon="10.766241310356133"><ele>261.25</ele><time>2026-04-18T12:57:39Z</time></trkpt><trkpt lat="43.28760023004697" lon="10.766146581350649"><ele>265.0</ele><time>2026-04-18T12:57:40Z</time></trkpt><trkpt lat="43.28749468890678" lon="10.766060300957513"><ele>267.25</ele><time>2026-04-18T12:57:41Z</time></trkpt><trkpt lat="43.28739058761742" lon="10.765974771661716"><ele>269.5</ele><time>2026-04-18T12:57:42Z</time></trkpt><trkpt lat="43.28728817232482" lon="10.76589269331007"><ele>271.75</ele><time>2026-04-18T12:57:43Z</time></trkpt><trkpt lat="43.28718364208995" lon="10.76581921579142"><ele>274.0</ele><time>2026-04-18T12:57:44Z</time></trkpt><trkpt lat="43.287083379684915" lon="10.765755527033273"><ele>275.0</ele><time>2026-04-18T12:57:45Z</time></trkpt><trkpt lat="43.28698420710398" lon="10.765705304313814"><ele>276.0</ele><time>2026-04-18T12:57:46Z</time></trkpt><trkpt lat="43.28688028915685" lon="10.765666309346638"><ele>277.0</ele><time>2026-04-18T12:57:47Z</time></trkpt><trkpt lat="43.286773701350235" lon="10.765638011644505"><ele>278.0</ele><time>2026-04-18T12:57:48Z</time></trkpt><trkpt lat="43.2866717746589" lon="10.765614437217737"><ele>279.0</ele><time>2026-04-18T12:57:49Z</time></trkpt><trkpt lat="43.286562928018384" lon="10.7655907539071"><ele>279.0</ele><time>2026-04-18T12:57:50Z</time></trkpt><trkpt lat="43.28645246346587" lon="10.765567959704143"><ele>279.0</ele><time>2026-04-18T12:57:51Z</time></trkpt><trkpt lat="43.28633916469035" lon="10.765549231574093"><ele>279.0</ele><time>2026-04-18T12:57:52Z</time></trkpt><trkpt lat="43.28622242350107" lon="10.765541966444284"><ele>279.0</ele><time>2026-04-18T12:57:53Z</time></trkpt><trkpt lat="43.28610418519967" lon="10.765552986023797"><ele>279.75</ele><time>2026-04-18T12:57:54Z</time></trkpt><trkpt lat="43.28598410010064" lon="10.7655700471981"><ele>280.5</ele><time>2026-04-18T12:57:55Z</time></trkpt><trkpt lat="43.28586800378724" lon="10.765580563100542"><ele>281.25</ele><time>2026-04-18T12:57:56Z</time></trkpt><trkpt lat="43.28574820916265" lon="10.765577621163242"><ele>282.0</ele><time>2026-04-18T12:57:57Z</time></trkpt><trkpt lat="43.28562701653164" lon="10.765558692066934"><ele>282.25</ele><time>2026-04-18T12:57:58Z</time></trkpt><trkpt lat="43.28550274225239" lon="10.765534091538187"><ele>282.5</ele><time>2026-04-18T12:57:59Z</time></trkpt><trkpt lat="43.2853743447782" lon="10.765505702537107"><ele>282.75</ele><time>2026-04-18T12:58:00Z</time></trkpt><trkpt lat="43.285246770553194" lon="10.765466525714565"><ele>283.0</ele><time>2026-04-18T12:58:01Z</time></trkpt><trkpt lat="43.2851163758766" lon="10.765428069577133"><ele>283.0</ele><time>2026-04-18T12:58:02Z</time></trkpt><trkpt lat="43.28498641601933" lon="10.765386414994243"><ele>283.0</ele><time>2026-04-18T12:58:03Z</time></trkpt><trkpt lat="43.28485952172112" lon="10.765349429371424"><ele>283.0</ele><time>2026-04-18T12:58:04Z</time></trkpt><trkpt lat="43.284742407286494" lon="10.765312917744703"><ele>283.0</ele><time>2026-04-18T12:58:05Z</time></trkpt><trkpt lat="43.284631262544075" lon="10.765276182350448"><ele>285.5</ele><time>2026-04-18T12:58:06Z</time></trkpt><trkpt lat="43.2845212169282" lon="10.765235972067334"><ele>288.0</ele><time>2026-04-18T12:58:07Z</time></trkpt><trkpt lat="43.284412348185306" lon="10.76519232882355"><ele>290.5</ele><time>2026-04-18T12:58:08Z</time></trkpt><trkpt lat="43.28430161526917" lon="10.765146983213107"><ele>293.0</ele><time>2026-04-18T12:58:09Z</time></trkpt><trkpt lat="43.28419040124172" lon="10.765111984820907"><ele>295.4</ele><time>2026-04-18T12:58:10Z</time></trkpt><trkpt lat="43.28407651173183" lon="10.765097161775227"><ele>297.8</ele><time>2026-04-18T12:58:11Z</time></trkpt><trkpt lat="43.283962603736555" lon="10.765098450373477"><ele>300.2</ele><time>2026-04-18T12:58:12Z</time></trkpt><trkpt lat="43.283853375454854" lon="10.76510923086957"><ele>302.6</ele><time>2026-04-18T12:58:13Z</time></trkpt><trkpt lat="43.283746552528015" lon="10.76511524170787"><ele>305.0</ele><time>2026-04-18T12:58:14Z</time></trkpt><trkpt lat="43.28364947355187" lon="10.765096214331217"><ele>305.5</ele><time>2026-04-18T12:58:15Z</time></trkpt><trkpt lat="43.28355492775202" lon="10.765091307657057"><ele>306.0</ele><time>2026-04-18T12:58:16Z</time></trkpt><trkpt lat="43.28346293704009" lon="10.765095505976797"><ele>306.5</ele><time>2026-04-18T12:58:17Z</time></trkpt><trkpt lat="43.2833785223964" lon="10.765116952292127"><ele>307.0</ele><time>2026-04-18T12:58:18Z</time></trkpt><trkpt lat="43.28331685921304" lon="10.76519738905448"><ele>307.5</ele><time>2026-04-18T12:58:19Z</time></trkpt><trkpt lat="43.28326763561405" lon="10.765285978968498"><ele>308.0</ele><time>2026-04-18T12:58:20Z</time></trkpt><trkpt lat="43.28323831214179" lon="10.765384906139046"><ele>308.0</ele><time>2026-04-18T12:58:21Z</time></trkpt><trkpt lat="43.2832250773896" lon="10.765497771913918"><ele>308.0</ele><time>2026-04-18T12:58:22Z</time></trkpt><trkpt lat="43.283235515522584" lon="10.765621139517668"><ele>308.0</ele><time>2026-04-18T12:58:23Z</time></trkpt><trkpt lat="43.283243426293964" lon="10.765748618505038"><ele>308.0</ele><time>2026-04-18T12:58:24Z</time></trkpt><trkpt lat="43.28324767303753" lon="10.765877699781786"><ele>308.0</ele><time>2026-04-18T12:58:25Z</time></trkpt><trkpt lat="43.28325677424127" lon="10.76600939464978"><ele>309.8</ele><time>2026-04-18T12:58:26Z</time></trkpt><trkpt lat="43.28328270636331" lon="10.766148056434744"><ele>311.6</ele><time>2026-04-18T12:58:27Z</time></trkpt><trkpt lat="43.28332249538344" lon="10.76628433884595"><ele>313.4</ele><time>2026-04-18T12:58:28Z</time></trkpt><trkpt lat="43.28337119384853" lon="10.76641756752617"><ele>315.2</ele><time>2026-04-18T12:58:29Z</time></trkpt><trkpt lat="43.283424140738155" lon="10.766547615599915"><ele>317.0</ele><time>2026-04-18T12:58:30Z</time></trkpt><trkpt lat="43.283477796134875" lon="10.76667274068443"><ele>317.0</ele><time>2026-04-18T12:58:31Z</time></trkpt><trkpt lat="43.283516228297586" lon="10.766793278337662"><ele>317.0</ele><time>2026-04-18T12:58:32Z</time></trkpt><trkpt lat="43.28353342771101" lon="10.766918986601093"><ele>317.0</ele><time>2026-04-18T12:58:33Z</time></trkpt><trkpt lat="43.28353094682398" lon="10.767046860294915"><ele>317.0</ele><time>2026-04-18T12:58:34Z</time></trkpt><trkpt lat="43.28351139513892" lon="10.76718045633634"><ele>317.0</ele><time>2026-04-18T12:58:35Z</time></trkpt><trkpt lat="43.28349244620549" lon="10.767325655833979"><ele>317.0</ele><time>2026-04-18T12:58:36Z</time></trkpt><trkpt lat="43.28347590749404" lon="10.767481907034924"><ele>317.0</ele><time>2026-04-18T12:58:37Z</time></trkpt><trkpt lat="43.28346175827085" lon="10.767637670699623"><ele>317.0</ele><time>2026-04-18T12:58:38Z</time></trkpt><trkpt lat="43.283446546302194" lon="10.767790928857172"><ele>317.0</ele><time>2026-04-18T12:58:39Z</time></trkpt><trkpt lat="43.283422710712294" lon="10.767942146245895"><ele>316.2</ele><time>2026-04-18T12:58:40Z</time></trkpt><trkpt lat="43.28338341603901" lon="10.76807971800683"><ele>315.4</ele><time>2026-04-18T12:58:41Z</time></trkpt><trkpt lat="43.283321821050144" lon="10.768198506649199"><ele>314.6</ele><time>2026-04-18T12:58:42Z</time></trkpt><trkpt lat="43.28324552826076" lon="10.768301394015333"><ele>313.8</ele><time>2026-04-18T12:58:43Z</time></trkpt><trkpt lat="43.28316140552818" lon="10.768391436387635"><ele>313.0</ele><time>2026-04-18T12:58:44Z</time></trkpt><trkpt lat="43.28306970784807" lon="10.768457236550612"><ele>313.8</ele><time>2026-04-18T12:58:45Z</time></trkpt><trkpt lat="43.282974612964885" lon="10.768503339490222"><ele>314.6</ele><time>2026-04-18T12:58:46Z</time></trkpt><trkpt lat="43.282873996764266" lon="10.76853891027879"><ele>315.4</ele><time>2026-04-18T12:58:47Z</time></trkpt><trkpt lat="43.28277300709024" lon="10.768561957951245"><ele>316.2</ele><time>2026-04-18T12:58:48Z</time></trkpt><trkpt lat="43.28266748038724" lon="10.768581062269407"><ele>317.0</ele><time>2026-04-18T12:58:49Z</time></trkpt><trkpt lat="43.282558262509795" lon="10.76861132709368"><ele>317.0</ele><time>2026-04-18T12:58:50Z</time></trkpt><trkpt lat="43.28245058788834" lon="10.768653779118411"><ele>317.0</ele><time>2026-04-18T12:58:51Z</time></trkpt><trkpt lat="43.2823463979228" lon="10.76871755416701"><ele>317.0</ele><time>2026-04-18T12:58:52Z</time></trkpt><trkpt lat="43.28224636778828" lon="10.768796030311064"><ele>317.0</ele><time>2026-04-18T12:58:53Z</time></trkpt><trkpt lat="43.28216495610245" lon="10.768920083850997"><ele>321.5</ele><time>2026-04-18T12:58:53.999Z</time></trkpt><trkpt lat="43.28209108556861" lon="10.76903360393247"><ele>326.0</ele><time>2026-04-18T12:58:54.999Z</time></trkpt><trkpt lat="43.28200168728983" lon="10.76913245410242"><ele>330.5</ele><time>2026-04-18T12:58:55.999Z</time></trkpt><trkpt lat="43.281928856213625" lon="10.769253677147736"><ele>335.0</ele><time>2026-04-18T12:58:56.999Z</time></trkpt><trkpt lat="43.28184361617963" lon="10.769357155492367"><ele>335.4</ele><time>2026-04-18T12:58:57.999Z</time></trkpt><trkpt lat="43.28175567266708" lon="10.769443000418889"><ele>335.8</ele><time>2026-04-18T12:58:58.999Z</time></trkpt><trkpt lat="43.28165381322811" lon="10.769477345182258"><ele>336.20000000000005</ele><time>2026-04-18T12:58:59.999Z</time></trkpt><trkpt lat="43.28155319997743" lon="10.769510723766139"><ele>336.6</ele><time>2026-04-18T12:59:00.999Z</time></trkpt><trkpt lat="43.28144712561646" lon="10.769532314116248"><ele>337.0</ele><time>2026-04-18T12:59:01.999Z</time></trkpt><trkpt lat="43.28133849107778" lon="10.769578152680653"><ele>337.0</ele><time>2026-04-18T12:59:02.999Z</time></trkpt><trkpt lat="43.28122569863131" lon="10.769606230807005"><ele>337.0</ele><time>2026-04-18T12:59:03.999Z</time></trkpt><trkpt lat="43.28111346807806" lon="10.769637544258648"><ele>337.0</ele><time>2026-04-18T12:59:04.999Z</time></trkpt><trkpt lat="43.28100474259609" lon="10.769668064583298"><ele>337.0</ele><time>2026-04-18T12:59:05.999Z</time></trkpt><trkpt lat="43.280916717728815" lon="10.769762164589263"><ele>337.0</ele><time>2026-04-18T12:59:06.999Z</time></trkpt><trkpt lat="43.280836516716654" lon="10.769857725509274"><ele>337.0</ele><time>2026-04-18T12:59:07.999Z</time></trkpt><trkpt lat="43.28077127834479" lon="10.769962335456094"><ele>337.0</ele><time>2026-04-18T12:59:08.999Z</time></trkpt><trkpt lat="43.280722368829444" lon="10.77008586843248"><ele>337.0</ele><time>2026-04-18T12:59:09.999Z</time></trkpt><trkpt lat="43.28068955236879" lon="10.770218426405302"><ele>337.0</ele><time>2026-04-18T12:59:10.999Z</time></trkpt><trkpt lat="43.280668621419125" lon="10.770355174125095"><ele>336.40000000000003</ele><time>2026-04-18T12:59:11.999Z</time></trkpt><trkpt lat="43.280667247193925" lon="10.770500307313474"><ele>335.8</ele><time>2026-04-18T12:59:12.999Z</time></trkpt><trkpt lat="43.28068369440871" lon="10.770647395694155"><ele>335.2</ele><time>2026-04-18T12:59:13.999Z</time></trkpt><trkpt lat="43.2807067516335" lon="10.770802275484634"><ele>334.6</ele><time>2026-04-18T12:59:14.999Z</time></trkpt><trkpt lat="43.280722972032635" lon="10.770962514057086"><ele>334.0</ele><time>2026-04-18T12:59:15.999Z</time></trkpt><trkpt lat="43.28072512252843" lon="10.771122676924099"><ele>334.0</ele><time>2026-04-18T12:59:16.999Z</time></trkpt><trkpt lat="43.280723179563665" lon="10.77128306355639"><ele>334.0</ele><time>2026-04-18T12:59:17.999Z</time></trkpt><trkpt lat="43.280724062167884" lon="10.771445265166918"><ele>334.0</ele><time>2026-04-18T12:59:18.999Z</time></trkpt><trkpt lat="43.28074943034725" lon="10.771606126197302"><ele>334.0</ele><time>2026-04-18T12:59:19.999Z</time></trkpt><trkpt lat="43.28080010640135" lon="10.771753422887015"><ele>337.75</ele><time>2026-04-18T12:59:20.999Z</time></trkpt><trkpt lat="43.28087917099478" lon="10.771871848127821"><ele>341.5</ele><time>2026-04-18T12:59:21.999Z</time></trkpt><trkpt lat="43.280977626392236" lon="10.771966677411044"><ele>345.25</ele><time>2026-04-18T12:59:22.999Z</time></trkpt><trkpt lat="43.28107323836329" lon="10.77205615771716"><ele>349.0</ele><time>2026-04-18T12:59:23.999Z</time></trkpt><trkpt lat="43.28116065856462" lon="10.772142035140757"><ele>349.0</ele><time>2026-04-18T12:59:24.999Z</time></trkpt><trkpt lat="43.28123020965225" lon="10.772242297063402"><ele>349.0</ele><time>2026-04-18T12:59:25.999Z</time></trkpt><trkpt lat="43.28128185641061" lon="10.772351897421064"><ele>349.0</ele><time>2026-04-18T12:59:26.999Z</time></trkpt><trkpt lat="43.28132266365336" lon="10.772461231805831"><ele>349.0</ele><time>2026-04-18T12:59:27.999Z</time></trkpt><trkpt lat="43.281349693627824" lon="10.77257144852862"><ele>349.0</ele><time>2026-04-18T12:59:28.999Z</time></trkpt><trkpt lat="43.281378347376275" lon="10.772685084642085"><ele>352.0</ele><time>2026-04-18T12:59:29.999Z</time></trkpt><trkpt lat="43.28140616942977" lon="10.77279808833515"><ele>355.0</ele><time>2026-04-18T12:59:30.999Z</time></trkpt><trkpt lat="43.28141650642623" lon="10.772919855066133"><ele>358.0</ele><time>2026-04-18T12:59:32Z</time></trkpt><trkpt lat="43.28140415091672" lon="10.773044518730892"><ele>361.0</ele><time>2026-04-18T12:59:33Z</time></trkpt><trkpt lat="43.28136836979514" lon="10.773165265496464"><ele>364.0</ele><time>2026-04-18T12:59:34Z</time></trkpt><trkpt lat="43.28133919444091" lon="10.773287866095599"><ele>364.0</ele><time>2026-04-18T12:59:35Z</time></trkpt><trkpt lat="43.28133437473202" lon="10.77342344913521"><ele>364.0</ele><time>2026-04-18T12:59:36Z</time></trkpt><trkpt lat="43.2813616575149" lon="10.773561375328535"><ele>364.0</ele><time>2026-04-18T12:59:37Z</time></trkpt><trkpt lat="43.281414667392276" lon="10.773686229537848"><ele>364.0</ele><time>2026-04-18T12:59:38Z</time></trkpt><trkpt lat="43.281472751828" lon="10.773804178089954"><ele>364.0</ele><time>2026-04-18T12:59:39Z</time></trkpt><trkpt lat="43.28150878650047" lon="10.773928225429302"><ele>365.2</ele><time>2026-04-18T12:59:40Z</time></trkpt><trkpt lat="43.281492493889566" lon="10.774047670346697"><ele>366.4</ele><time>2026-04-18T12:59:41Z</time></trkpt><trkpt lat="43.281469076916494" lon="10.774158245904868"><ele>367.6</ele><time>2026-04-18T12:59:42Z</time></trkpt><trkpt lat="43.28145935198225" lon="10.774279254698579"><ele>368.8</ele><time>2026-04-18T12:59:43Z</time></trkpt><trkpt lat="43.28142700565259" lon="10.774399904180282"><ele>370.0</ele><time>2026-04-18T12:59:44Z</time></trkpt><trkpt lat="43.2813960865993" lon="10.77452496800304"><ele>370.0</ele><time>2026-04-18T12:59:45Z</time></trkpt><trkpt lat="43.28136603367799" lon="10.774651182613335"><ele>370.0</ele><time>2026-04-18T12:59:46Z</time></trkpt><trkpt lat="43.281336274591865" lon="10.774779422768805"><ele>370.0</ele><time>2026-04-18T12:59:47Z</time></trkpt><trkpt lat="43.281308269031825" lon="10.774906932235217"><ele>370.0</ele><time>2026-04-18T12:59:48Z</time></trkpt><trkpt lat="43.28127997252242" lon="10.775032960176302"><ele>370.0</ele><time>2026-04-18T12:59:49Z</time></trkpt><trkpt lat="43.28125108509526" lon="10.77515804674717"><ele>370.0</ele><time>2026-04-18T12:59:50Z</time></trkpt><trkpt lat="43.28122244115693" lon="10.775281910498352"><ele>370.0</ele><time>2026-04-18T12:59:51Z</time></trkpt><trkpt lat="43.28119925810738" lon="10.775406200337672"><ele>370.0</ele><time>2026-04-18T12:59:52Z</time></trkpt><trkpt lat="43.28117423104045" lon="10.775528353491447"><ele>370.0</ele><time>2026-04-18T12:59:53Z</time></trkpt><trkpt lat="43.2811376135161" lon="10.775648136993116"><ele>370.0</ele><time>2026-04-18T12:59:54Z</time></trkpt><trkpt lat="43.281107997252995" lon="10.775774941553856"><ele>370.0</ele><time>2026-04-18T12:59:55Z</time></trkpt><trkpt lat="43.28109100852253" lon="10.77591406145025"><ele>370.0</ele><time>2026-04-18T12:59:56Z</time></trkpt><trkpt lat="43.28108691735123" lon="10.776055329783267"><ele>370.0</ele><time>2026-04-18T12:59:57Z</time></trkpt><trkpt lat="43.28108327283315" lon="10.776202955824676"><ele>370.0</ele><time>2026-04-18T12:59:58Z</time></trkpt><trkpt lat="43.28107552937775" lon="10.776345792055233"><ele>370.0</ele><time>2026-04-18T12:59:59Z</time></trkpt><trkpt lat="43.28106164349945" lon="10.776489460792252"><ele>371.0</ele><time>2026-04-18T13:00:00Z</time></trkpt><trkpt lat="43.28104673596483" lon="10.776635194589439"><ele>372.0</ele><time>2026-04-18T13:00:01Z</time></trkpt><trkpt lat="43.281032471699994" lon="10.77678243571559"><ele>373.0</ele><time>2026-04-18T13:00:02Z</time></trkpt><trkpt lat="43.281020134673646" lon="10.77693111864826"><ele>374.0</ele><time>2026-04-18T13:00:03Z</time></trkpt><trkpt lat="43.281016411228705" lon="10.777081760804458"><ele>375.0</ele><time>2026-04-18T13:00:04Z</time></trkpt><trkpt lat="43.28101722222906" lon="10.77723080399495"><ele>376.8</ele><time>2026-04-18T13:00:05Z</time></trkpt><trkpt lat="43.28102261091775" lon="10.777380393806613"><ele>378.6</ele><time>2026-04-18T13:00:06Z</time></trkpt><trkpt lat="43.28103420373711" lon="10.777531116626587"><ele>380.4</ele><time>2026-04-18T13:00:07Z</time></trkpt><trkpt lat="43.28105316158681" lon="10.777677464212417"><ele>382.2</ele><time>2026-04-18T13:00:08Z</time></trkpt><trkpt lat="43.28108202303348" lon="10.777824623429408"><ele>384.0</ele><time>2026-04-18T13:00:09Z</time></trkpt><trkpt lat="43.281114061580716" lon="10.77796620298735"><ele>385.79999999999995</ele><time>2026-04-18T13:00:10Z</time></trkpt><trkpt lat="43.28114577490142" lon="10.778115783556268"><ele>387.59999999999997</ele><time>2026-04-18T13:00:11Z</time></trkpt><trkpt lat="43.28117214484275" lon="10.778263570624045"><ele>389.4</ele><time>2026-04-18T13:00:12Z</time></trkpt><trkpt lat="43.281198285537634" lon="10.778412477057328"><ele>391.2</ele><time>2026-04-18T13:00:13Z</time></trkpt><trkpt lat="43.28121058846926" lon="10.778562695391384"><ele>393.0</ele><time>2026-04-18T13:00:14Z</time></trkpt><trkpt lat="43.281237193908844" lon="10.778710375331"><ele>392.59999999999997</ele><time>2026-04-18T13:00:15Z</time></trkpt><trkpt lat="43.28125542174774" lon="10.778860889465898"><ele>392.2</ele><time>2026-04-18T13:00:16Z</time></trkpt><trkpt lat="43.28126039693119" lon="10.779009746277776"><ele>391.8</ele><time>2026-04-18T13:00:17Z</time></trkpt><trkpt lat="43.281266011811695" lon="10.779159609553364"><ele>391.4</ele><time>2026-04-18T13:00:18Z</time></trkpt><trkpt lat="43.281273469458164" lon="10.779310866619143"><ele>391.0</ele><time>2026-04-18T13:00:19Z</time></trkpt><trkpt lat="43.2812877374579" lon="10.779462007643518"><ele>391.0</ele><time>2026-04-18T13:00:20Z</time></trkpt><trkpt lat="43.28130608250866" lon="10.779612318981286"><ele>391.0</ele><time>2026-04-18T13:00:21Z</time></trkpt><trkpt lat="43.281333925866704" lon="10.77975609000701"><ele>391.0</ele><time>2026-04-18T13:00:22Z</time></trkpt><trkpt lat="43.28136273975445" lon="10.77989409214216"><ele>391.0</ele><time>2026-04-18T13:00:23Z</time></trkpt><trkpt lat="43.28139757572139" lon="10.78002192876949"><ele>391.0</ele><time>2026-04-18T13:00:24Z</time></trkpt><trkpt lat="43.28143501063883" lon="10.780137581191557"><ele>391.8</ele><time>2026-04-18T13:00:25Z</time></trkpt><trkpt lat="43.28152672165625" lon="10.780330885841282"><ele>392.6</ele><time>2026-04-18T13:00:27Z</time></trkpt><trkpt lat="43.281577168491125" lon="10.780408745933975"><ele>393.4</ele><time>2026-04-18T13:00:28Z</time></trkpt><trkpt lat="43.28162419526341" lon="10.780479389704483"><ele>394.2</ele><time>2026-04-18T13:00:29Z</time></trkpt><trkpt lat="43.28166259222969" lon="10.780556934512937"><ele>395.0</ele><time>2026-04-18T13:00:30Z</time></trkpt><trkpt lat="43.28169693787718" lon="10.780647834608946"><ele>394.99999999999994</ele><time>2026-04-18T13:00:31Z</time></trkpt><trkpt lat="43.28172995213692" lon="10.780750040137587"><ele>395.0</ele><time>2026-04-18T13:00:32Z</time></trkpt><trkpt lat="43.28176171082935" lon="10.780850957119299"><ele>395.0</ele><time>2026-04-18T13:00:33Z</time></trkpt><trkpt lat="43.281792170957594" lon="10.78094080654564"><ele>395.0</ele><time>2026-04-18T13:00:34Z</time></trkpt><trkpt lat="43.28182333451794" lon="10.781021774425136"><ele>394.99999999999994</ele><time>2026-04-18T13:00:35Z</time></trkpt><trkpt lat="43.28189454547047" lon="10.78113801428981"><ele>395.0</ele><time>2026-04-18T13:00:37Z</time></trkpt><trkpt lat="43.281950142616154" lon="10.781193710351143"><ele>394.7142857142857</ele><time>2026-04-18T13:00:39Z</time></trkpt><trkpt lat="43.282001933146084" lon="10.781276986642926"><ele>394.42857142857144</ele><time>2026-04-18T13:00:42Z</time></trkpt><trkpt lat="43.28205347914181" lon="10.781353336568836"><ele>394.14285714285717</ele><time>2026-04-18T13:00:45Z</time></trkpt><trkpt lat="43.28211333493698" lon="10.781414850376228"><ele>393.8571428571429</ele><time>2026-04-18T13:00:48Z</time></trkpt><trkpt lat="43.2821753305037" lon="10.781454354480669"><ele>393.57142857142856</ele><time>2026-04-18T13:00:51Z</time></trkpt><trkpt lat="43.28224832405821" lon="10.781477059400213"><ele>393.28571428571433</ele><time>2026-04-18T13:00:54Z</time></trkpt><trkpt lat="43.28231793798534" lon="10.781444110043283"><ele>393.0</ele><time>2026-04-18T13:00:57.001Z</time></trkpt><trkpt lat="43.28236742091341" lon="10.781347582356357"><ele>393.8333333333333</ele><time>2026-04-18T13:01:00.999Z</time></trkpt><trkpt lat="43.282404676215414" lon="10.781267692286981"><ele>394.66666666666663</ele><time>2026-04-18T13:01:02.999Z</time></trkpt><trkpt lat="43.28243021610993" lon="10.78116736700848"><ele>395.5</ele><time>2026-04-18T13:01:05.999Z</time></trkpt><trkpt lat="43.28246091184456" lon="10.781057976149413"><ele>396.3333333333333</ele><time>2026-04-18T13:01:08.999Z</time></trkpt><trkpt lat="43.28249738503335" lon="10.780973557266481"><ele>397.16666666666663</ele><time>2026-04-18T13:01:10.999Z</time></trkpt><trkpt lat="43.28254052048586" lon="10.780878273495208"><ele>398.0</ele><time>2026-04-18T13:01:12.999Z</time></trkpt><trkpt lat="43.28261454484561" lon="10.780823498620043"><ele>396.0</ele><time>2026-04-18T13:01:14.999Z</time></trkpt><trkpt lat="43.282702596544965" lon="10.780784316335868"><ele>394.0</ele><time>2026-04-18T13:01:16.999Z</time></trkpt><trkpt lat="43.28281878812397" lon="10.780757043507677"><ele>392.0</ele><time>2026-04-18T13:01:18.999Z</time></trkpt><trkpt lat="43.2829507157252" lon="10.780738820988239"><ele>390.0</ele><time>2026-04-18T13:01:20.999Z</time></trkpt><trkpt lat="43.28301704025149" lon="10.780734079908978"><ele>388.0</ele><time>2026-04-18T13:01:21.999Z</time></trkpt><trkpt lat="43.28308417327381" lon="10.780767597387637"><ele>386.00000000000006</ele><time>2026-04-18T13:01:22.999Z</time></trkpt><trkpt lat="43.28316751805325" lon="10.780776453980538"><ele>384.0</ele><time>2026-04-18T13:01:23.999Z</time></trkpt><trkpt lat="43.28325799104701" lon="10.780775144449697"><ele>382.0</ele><time>2026-04-18T13:01:24.999Z</time></trkpt><trkpt lat="43.283340956969475" lon="10.780766502455178"><ele>380.0</ele><time>2026-04-18T13:01:25.999Z</time></trkpt><trkpt lat="43.2834103609664" lon="10.780733757258849"><ele>378.0</ele><time>2026-04-18T13:01:26.999Z</time></trkpt><trkpt lat="43.28348166464945" lon="10.780729163939744"><ele>376.0</ele><time>2026-04-18T13:01:27.999Z</time></trkpt><trkpt lat="43.283550343619815" lon="10.780719099997114"><ele>376.0</ele><time>2026-04-18T13:01:28.999Z</time></trkpt><trkpt lat="43.2836164455712" lon="10.78071841690966"><ele>376.0</ele><time>2026-04-18T13:01:29.999Z</time></trkpt><trkpt lat="43.2836827973378" lon="10.780733488258067"><ele>376.0</ele><time>2026-04-18T13:01:30.999Z</time></trkpt><trkpt lat="43.28374628548635" lon="10.780763115979868"><ele>376.0</ele><time>2026-04-18T13:01:31.999Z</time></trkpt><trkpt lat="43.28386292079977" lon="10.78082345186307"><ele>376.0</ele><time>2026-04-18T13:01:33.999Z</time></trkpt><trkpt lat="43.283931975240264" lon="10.780831627493168"><ele>376.0</ele><time>2026-04-18T13:01:34.999Z</time></trkpt><trkpt lat="43.28400196299665" lon="10.780852739184024"><ele>374.5</ele><time>2026-04-18T13:01:35.999Z</time></trkpt><trkpt lat="43.284075858120026" lon="10.780829547250946"><ele>373.0</ele><time>2026-04-18T13:01:36.999Z</time></trkpt><trkpt lat="43.2841448656701" lon="10.780778644902405"><ele>371.5</ele><time>2026-04-18T13:01:38Z</time></trkpt><trkpt lat="43.28421260217505" lon="10.780706331453784"><ele>370.0</ele><time>2026-04-18T13:01:39Z</time></trkpt><trkpt lat="43.284258633527536" lon="10.780621448352443"><ele>368.5</ele><time>2026-04-18T13:01:40Z</time></trkpt><trkpt lat="43.28431776074464" lon="10.780562115356243"><ele>367.0</ele><time>2026-04-18T13:01:41Z</time></trkpt><trkpt lat="43.284375202366505" lon="10.780513518259967"><ele>367.0</ele><time>2026-04-18T13:01:42Z</time></trkpt><trkpt lat="43.28449069753848" lon="10.780457208568587"><ele>367.0</ele><time>2026-04-18T13:01:44Z</time></trkpt><trkpt lat="43.28455512026889" lon="10.780463054736023"><ele>367.0</ele><time>2026-04-18T13:01:45Z</time></trkpt><trkpt lat="43.28461393772895" lon="10.78049568043495"><ele>367.0</ele><time>2026-04-18T13:01:46Z</time></trkpt><trkpt lat="43.2846705685877" lon="10.78054921373052"><ele>367.0</ele><time>2026-04-18T13:01:47Z</time></trkpt><trkpt lat="43.28471429095274" lon="10.780620269145137"><ele>367.0</ele><time>2026-04-18T13:01:48Z</time></trkpt><trkpt lat="43.28475363187727" lon="10.780709366634918"><ele>367.16666666666663</ele><time>2026-04-18T13:01:49Z</time></trkpt><trkpt lat="43.284787872037136" lon="10.780810811736815"><ele>367.3333333333333</ele><time>2026-04-18T13:01:50Z</time></trkpt><trkpt lat="43.284814745425095" lon="10.780908985491543"><ele>367.5</ele><time>2026-04-18T13:01:51Z</time></trkpt><trkpt lat="43.28484833698565" lon="10.781003723388194"><ele>367.6666666666667</ele><time>2026-04-18T13:01:52Z</time></trkpt><trkpt lat="43.284886821501246" lon="10.781099354992131"><ele>367.83333333333337</ele><time>2026-04-18T13:01:53Z</time></trkpt><trkpt lat="43.28492297404983" lon="10.781189237941913"><ele>368.0</ele><time>2026-04-18T13:01:54Z</time></trkpt><trkpt lat="43.28495734263911" lon="10.781277427992507"><ele>368.0</ele><time>2026-04-18T13:01:55Z</time></trkpt><trkpt lat="43.28501565427523" lon="10.781414306326328"><ele>368.0</ele><time>2026-04-18T13:01:57Z</time></trkpt><trkpt lat="43.285105865491296" lon="10.781455287119948"><ele>368.0</ele><time>2026-04-18T13:01:59Z</time></trkpt><trkpt lat="43.28520518126432" lon="10.781435908655679"><ele>368.0</ele><time>2026-04-18T13:02:01Z</time></trkpt><trkpt lat="43.285276600734946" lon="10.781328994013597"><ele>368.0</ele><time>2026-04-18T13:02:03Z</time></trkpt><trkpt lat="43.285368766663254" lon="10.781241791786046"><ele>368.0</ele><time>2026-04-18T13:02:05Z</time></trkpt><trkpt lat="43.28546204826102" lon="10.781114430232497"><ele>368.0</ele><time>2026-04-18T13:02:07Z</time></trkpt><trkpt lat="43.285528603276695" lon="10.781070708267183"><ele>368.0</ele><time>2026-04-18T13:02:08Z</time></trkpt><trkpt lat="43.28559072806214" lon="10.781008286523255"><ele>368.0</ele><time>2026-04-18T13:02:09Z</time></trkpt><trkpt lat="43.285656309163755" lon="10.780942727725622"><ele>368.0</ele><time>2026-04-18T13:02:10Z</time></trkpt><trkpt lat="43.285725587574255" lon="10.780871168228074"><ele>365.59999999999997</ele><time>2026-04-18T13:02:11.001Z</time></trkpt><trkpt lat="43.28580076885729" lon="10.780800991429459"><ele>363.2</ele><time>2026-04-18T13:02:12.001Z</time></trkpt><trkpt lat="43.285879865545496" lon="10.780735709950735"><ele>360.8</ele><time>2026-04-18T13:02:13.001Z</time></trkpt><trkpt lat="43.285963617429175" lon="10.780673438573789"><ele>358.4</ele><time>2026-04-18T13:02:14.001Z</time></trkpt><trkpt lat="43.286048972365364" lon="10.78061553954641"><ele>356.0</ele><time>2026-04-18T13:02:15.001Z</time></trkpt><trkpt lat="43.28613483863603" lon="10.780560538149162"><ele>356.0</ele><time>2026-04-18T13:02:16.001Z</time></trkpt><trkpt lat="43.2862167511748" lon="10.780510950693063"><ele>356.0</ele><time>2026-04-18T13:02:17.001Z</time></trkpt><trkpt lat="43.286295693459046" lon="10.780462399787977"><ele>356.0</ele><time>2026-04-18T13:02:18.001Z</time></trkpt><trkpt lat="43.28637031574756" lon="10.78040122050558"><ele>356.0</ele><time>2026-04-18T13:02:19.001Z</time></trkpt><trkpt lat="43.286435863798665" lon="10.7803274465736"><ele>356.0</ele><time>2026-04-18T13:02:20.001Z</time></trkpt><trkpt lat="43.28649396992953" lon="10.780233971082865"><ele>356.0</ele><time>2026-04-18T13:02:21.001Z</time></trkpt><trkpt lat="43.28653996100543" lon="10.780128991775795"><ele>352.6</ele><time>2026-04-18T13:02:22.001Z</time></trkpt><trkpt lat="43.28658215313606" lon="10.78001661467992"><ele>349.20000000000005</ele><time>2026-04-18T13:02:23.001Z</time></trkpt><trkpt lat="43.286626378533505" lon="10.779902908807754"><ele>345.79999999999995</ele><time>2026-04-18T13:02:24.001Z</time></trkpt><trkpt lat="43.28667224602815" lon="10.779787228149472"><ele>342.4</ele><time>2026-04-18T13:02:25.001Z</time></trkpt><trkpt lat="43.286720590204396" lon="10.779668640919802"><ele>339.0</ele><time>2026-04-18T13:02:26.001Z</time></trkpt><trkpt lat="43.28677067272706" lon="10.779548553703005"><ele>339.0</ele><time>2026-04-18T13:02:27.001Z</time></trkpt><trkpt lat="43.286823294697044" lon="10.779427006193455"><ele>339.0</ele><time>2026-04-18T13:02:28.001Z</time></trkpt><trkpt lat="43.28687406829339" lon="10.77931634284483"><ele>339.0</ele><time>2026-04-18T13:02:29.001Z</time></trkpt><trkpt lat="43.286916627159165" lon="10.77921227948106"><ele>339.0</ele><time>2026-04-18T13:02:30.001Z</time></trkpt><trkpt lat="43.28696483968763" lon="10.779131441996046"><ele>339.0</ele><time>2026-04-18T13:02:31.001Z</time></trkpt><trkpt lat="43.28698689014539" lon="10.779037692804396"><ele>339.0</ele><time>2026-04-18T13:02:32.001Z</time></trkpt><trkpt lat="43.28702473648675" lon="10.778956682276537"><ele>337.57142857142856</ele><time>2026-04-18T13:02:33.001Z</time></trkpt><trkpt lat="43.28705989433421" lon="10.778871776004713"><ele>336.14285714285717</ele><time>2026-04-18T13:02:34.001Z</time></trkpt><trkpt lat="43.287096666874184" lon="10.778785858752828"><ele>334.7142857142857</ele><time>2026-04-18T13:02:35.001Z</time></trkpt><trkpt lat="43.287126560254706" lon="10.77869109423301"><ele>333.2857142857143</ele><time>2026-04-18T13:02:36.001Z</time></trkpt><trkpt lat="43.2871483526922" lon="10.778593545288132"><ele>331.8571428571429</ele><time>2026-04-18T13:02:37.001Z</time></trkpt><trkpt lat="43.28716739417861" lon="10.778497726134354"><ele>330.42857142857144</ele><time>2026-04-18T13:02:38.001Z</time></trkpt><trkpt lat="43.28718554529342" lon="10.778398559198909"><ele>329.0</ele><time>2026-04-18T13:02:39.001Z</time></trkpt><trkpt lat="43.28720399332625" lon="10.778297875477719"><ele>327.1666666666667</ele><time>2026-04-18T13:02:40.001Z</time></trkpt><trkpt lat="43.28721704147493" lon="10.778193351727408"><ele>325.33333333333337</ele><time>2026-04-18T13:02:41.001Z</time></trkpt><trkpt lat="43.28722710686247" lon="10.77809059868819"><ele>323.5</ele><time>2026-04-18T13:02:42.001Z</time></trkpt><trkpt lat="43.287233502602156" lon="10.778000283147422"><ele>321.6666666666667</ele><time>2026-04-18T13:02:43.001Z</time></trkpt><trkpt lat="43.28723809759391" lon="10.777913705446021"><ele>319.8333333333333</ele><time>2026-04-18T13:02:44.001Z</time></trkpt><trkpt lat="43.28725756434294" lon="10.77780013917263"><ele>318.0</ele><time>2026-04-18T13:02:46.001Z</time></trkpt><trkpt lat="43.287288156978086" lon="10.77767767741676"><ele>316.3333333333333</ele><time>2026-04-18T13:02:48.001Z</time></trkpt><trkpt lat="43.287331768318985" lon="10.777581001173369"><ele>314.6666666666667</ele><time>2026-04-18T13:02:50.001Z</time></trkpt><trkpt lat="43.28740353462142" lon="10.777513911585768"><ele>313.0</ele><time>2026-04-18T13:02:52.001Z</time></trkpt><trkpt lat="43.28749734717484" lon="10.77748887567915"><ele>311.33333333333337</ele><time>2026-04-18T13:02:54.001Z</time></trkpt><trkpt lat="43.287593097335886" lon="10.777495386395687"><ele>309.6666666666667</ele><time>2026-04-18T13:02:56.002Z</time></trkpt><trkpt lat="43.287674605062" lon="10.777541915854538"><ele>308.0</ele><time>2026-04-18T13:02:58.002Z</time></trkpt><trkpt lat="43.2877765307142" lon="10.777635711077544"><ele>307.4</ele><time>2026-04-18T13:03:00.002Z</time></trkpt><trkpt lat="43.28786747774158" lon="10.777723664349686"><ele>306.8</ele><time>2026-04-18T13:03:02.002Z</time></trkpt><trkpt lat="43.28795346625095" lon="10.777811400761589"><ele>306.2</ele><time>2026-04-18T13:03:04.002Z</time></trkpt><trkpt lat="43.2880253305212" lon="10.777871243775955"><ele>305.6</ele><time>2026-04-18T13:03:06Z</time></trkpt><trkpt lat="43.288095107308266" lon="10.777904579140511"><ele>305.0</ele><time>2026-04-18T13:03:08Z</time></trkpt><trkpt lat="43.28816944881431" lon="10.777907465128607"><ele>305.0</ele><time>2026-04-18T13:03:10Z</time></trkpt><trkpt lat="43.288241658348426" lon="10.777914457926661"><ele>305.0</ele><time>2026-04-18T13:03:12Z</time></trkpt><trkpt lat="43.288310187538116" lon="10.777931813160382"><ele>305.0</ele><time>2026-04-18T13:03:14Z</time></trkpt><trkpt lat="43.288383535317955" lon="10.777976058252978"><ele>305.0</ele><time>2026-04-18T13:03:16Z</time></trkpt><trkpt lat="43.288505503674514" lon="10.778057168259213"><ele>305.0</ele><time>2026-04-18T13:03:18Z</time></trkpt><trkpt lat="43.288587821961535" lon="10.778102792699517"><ele>305.0</ele><time>2026-04-18T13:03:19Z</time></trkpt><trkpt lat="43.28867590868138" lon="10.778145742724021"><ele>305.0</ele><time>2026-04-18T13:03:20Z</time></trkpt><trkpt lat="43.28876097824242" lon="10.778191097630542"><ele>305.0</ele><time>2026-04-18T13:03:21Z</time></trkpt><trkpt lat="43.28885217398727" lon="10.778238276509727"><ele>305.0</ele><time>2026-04-18T13:03:22Z</time></trkpt><trkpt lat="43.288945842547996" lon="10.778282817588522"><ele>305.0</ele><time>2026-04-18T13:03:23Z</time></trkpt><trkpt lat="43.28903327473493" lon="10.778327477447894"><ele>305.0</ele><time>2026-04-18T13:03:24Z</time></trkpt><trkpt lat="43.2891136926864" lon="10.778368999600916"><ele>306.1666666666667</ele><time>2026-04-18T13:03:25Z</time></trkpt><trkpt lat="43.28918834620368" lon="10.778412556544684"><ele>307.33333333333337</ele><time>2026-04-18T13:03:26Z</time></trkpt><trkpt lat="43.289249798868624" lon="10.778470478958088"><ele>308.5</ele><time>2026-04-18T13:03:27Z</time></trkpt><trkpt lat="43.289304372689806" lon="10.778542098146087"><ele>309.6666666666667</ele><time>2026-04-18T13:03:28Z</time></trkpt><trkpt lat="43.289355209564846" lon="10.77861941168796"><ele>310.8333333333333</ele><time>2026-04-18T13:03:29Z</time></trkpt><trkpt lat="43.28940554190878" lon="10.77869571885776"><ele>312.0</ele><time>2026-04-18T13:03:30Z</time></trkpt><trkpt lat="43.28945514366839" lon="10.778763629613467"><ele>312.0</ele><time>2026-04-18T13:03:31Z</time></trkpt><trkpt lat="43.289513407197425" lon="10.778806905174841"><ele>312.0</ele><time>2026-04-18T13:03:32Z</time></trkpt><trkpt lat="43.2895799893318" lon="10.778841939084755"><ele>312.0</ele><time>2026-04-18T13:03:33.001Z</time></trkpt><trkpt lat="43.289660867240826" lon="10.778857490707097"><ele>312.0</ele><time>2026-04-18T13:03:34.001Z</time></trkpt><trkpt lat="43.28974710517596" lon="10.77885104521202"><ele>312.0</ele><time>2026-04-18T13:03:35.001Z</time></trkpt><trkpt lat="43.28982971083149" lon="10.77883699850283"><ele>312.0</ele><time>2026-04-18T13:03:36.001Z</time></trkpt><trkpt lat="43.28991495111597" lon="10.778810652337983"><ele>311.3333333333333</ele><time>2026-04-18T13:03:37.001Z</time></trkpt><trkpt lat="43.290002985924886" lon="10.778823268689091"><ele>310.6666666666667</ele><time>2026-04-18T13:03:38.001Z</time></trkpt><trkpt lat="43.29008943408732" lon="10.778852947016071"><ele>310.0</ele><time>2026-04-18T13:03:39.001Z</time></trkpt><trkpt lat="43.29017106000903" lon="10.778899516563174"><ele>309.33333333333337</ele><time>2026-04-18T13:03:40.001Z</time></trkpt><trkpt lat="43.29022758147566" lon="10.77898058429321"><ele>308.6666666666667</ele><time>2026-04-18T13:03:41.001Z</time></trkpt><trkpt lat="43.29027330633268" lon="10.779057955778871"><ele>308.0</ele><time>2026-04-18T13:03:42.001Z</time></trkpt><trkpt lat="43.29032502714236" lon="10.779134428367744"><ele>308.0</ele><time>2026-04-18T13:03:43.001Z</time></trkpt><trkpt lat="43.290397246390796" lon="10.779223103435326"><ele>308.0</ele><time>2026-04-18T13:03:44.001Z</time></trkpt><trkpt lat="43.29045689820277" lon="10.779317658519451"><ele>308.0</ele><time>2026-04-18T13:03:45.001Z</time></trkpt><trkpt lat="43.29052702267184" lon="10.779404512132635"><ele>308.0</ele><time>2026-04-18T13:03:46.001Z</time></trkpt><trkpt lat="43.29058878773379" lon="10.779492895606452"><ele>308.0</ele><time>2026-04-18T13:03:47.001Z</time></trkpt><trkpt lat="43.29066198413491" lon="10.779555922464608"><ele>307.83333333333337</ele><time>2026-04-18T13:03:48.001Z</time></trkpt><trkpt lat="43.290717610261524" lon="10.779641901731297"><ele>307.6666666666667</ele><time>2026-04-18T13:03:49.001Z</time></trkpt><trkpt lat="43.29077865923779" lon="10.779719021093952"><ele>307.5</ele><time>2026-04-18T13:03:50.001Z</time></trkpt><trkpt lat="43.29083627031375" lon="10.779772420541986"><ele>307.3333333333333</ele><time>2026-04-18T13:03:51.001Z</time></trkpt><trkpt lat="43.290877475783525" lon="10.779848054931389"><ele>307.16666666666663</ele><time>2026-04-18T13:03:52.001Z</time></trkpt><trkpt lat="43.29096687638983" lon="10.779963691575862"><ele>307.0</ele><time>2026-04-18T13:03:54.001Z</time></trkpt><trkpt lat="43.29102142980343" lon="10.780011432318917"><ele>307.0</ele><time>2026-04-18T13:03:55.001Z</time></trkpt><trkpt lat="43.29110072744509" lon="10.780116317565945"><ele>307.0</ele><time>2026-04-18T13:03:57.001Z</time></trkpt><trkpt lat="43.29118499812241" lon="10.780204620561124"><ele>307.0</ele><time>2026-04-18T13:03:59.001Z</time></trkpt><trkpt lat="43.291269910744276" lon="10.780278075345379"><ele>307.0</ele><time>2026-04-18T13:04:01.001Z</time></trkpt><trkpt lat="43.29138160228948" lon="10.780298017189104"><ele>307.0</ele><time>2026-04-18T13:04:03.001Z</time></trkpt><trkpt lat="43.29148958079187" lon="10.780296683499579"><ele>304.4</ele><time>2026-04-18T13:04:05.001Z</time></trkpt><trkpt lat="43.291555074358165" lon="10.7803030500502"><ele>301.79999999999995</ele><time>2026-04-18T13:04:06.001Z</time></trkpt><trkpt lat="43.291621940087545" lon="10.780290996315989"><ele>299.2</ele><time>2026-04-18T13:04:07.001Z</time></trkpt><trkpt lat="43.29173426835633" lon="10.78027974491654"><ele>296.59999999999997</ele><time>2026-04-18T13:04:09.001Z</time></trkpt><trkpt lat="43.29182938559752" lon="10.780395893650116"><ele>294.0</ele><time>2026-04-18T13:04:11.001Z</time></trkpt><trkpt lat="43.291869364915954" lon="10.780486805971044"><ele>294.0</ele><time>2026-04-18T13:04:12.001Z</time></trkpt><trkpt lat="43.291899506830696" lon="10.780595138062528"><ele>294.0</ele><time>2026-04-18T13:04:13.001Z</time></trkpt><trkpt lat="43.29192352963019" lon="10.780717934245908"><ele>294.0</ele><time>2026-04-18T13:04:14.001Z</time></trkpt><trkpt lat="43.29193898436439" lon="10.780845324654612"><ele>294.0</ele><time>2026-04-18T13:04:15.001Z</time></trkpt><trkpt lat="43.29195084363019" lon="10.780974937108864"><ele>294.0</ele><time>2026-04-18T13:04:16.001Z</time></trkpt><trkpt lat="43.29195822448532" lon="10.78110149238671"><ele>294.6666666666667</ele><time>2026-04-18T13:04:17.001Z</time></trkpt><trkpt lat="43.291960599209666" lon="10.781224117219978"><ele>295.3333333333333</ele><time>2026-04-18T13:04:18.001Z</time></trkpt><trkpt lat="43.29196404206239" lon="10.78133767552313"><ele>296.0</ele><time>2026-04-18T13:04:19.001Z</time></trkpt><trkpt lat="43.2919747088254" lon="10.781446378465551"><ele>296.66666666666663</ele><time>2026-04-18T13:04:20.001Z</time></trkpt><trkpt lat="43.29199852677031" lon="10.781545736761673"><ele>297.3333333333333</ele><time>2026-04-18T13:04:21.001Z</time></trkpt><trkpt lat="43.292030264160914" lon="10.781641643241686"><ele>298.0</ele><time>2026-04-18T13:04:22.001Z</time></trkpt><trkpt lat="43.29206913929746" lon="10.781734867315768"><ele>298.0</ele><time>2026-04-18T13:04:23.001Z</time></trkpt><trkpt lat="43.292112104205415" lon="10.781828418334458"><ele>298.0</ele><time>2026-04-18T13:04:24.001Z</time></trkpt><trkpt lat="43.29215029391153" lon="10.781931830110214"><ele>298.0</ele><time>2026-04-18T13:04:25.001Z</time></trkpt><trkpt lat="43.2921756880175" lon="10.782041283419588"><ele>298.0</ele><time>2026-04-18T13:04:26.001Z</time></trkpt><trkpt lat="43.2921825758948" lon="10.782151323754876"><ele>298.0</ele><time>2026-04-18T13:04:27.001Z</time></trkpt><trkpt lat="43.292172624314084" lon="10.78225812990093"><ele>298.0</ele><time>2026-04-18T13:04:28.001Z</time></trkpt><trkpt lat="43.292147447090294" lon="10.782361563638254"><ele>298.5</ele><time>2026-04-18T13:04:29.001Z</time></trkpt><trkpt lat="43.29211745025575" lon="10.782463844844745"><ele>299.0</ele><time>2026-04-18T13:04:30.001Z</time></trkpt><trkpt lat="43.29208440833423" lon="10.782572218904924"><ele>299.5</ele><time>2026-04-18T13:04:31.001Z</time></trkpt><trkpt lat="43.292050985212285" lon="10.782680966058178"><ele>300.0</ele><time>2026-04-18T13:04:32.001Z</time></trkpt><trkpt lat="43.292013248595275" lon="10.782784950302515"><ele>300.5</ele><time>2026-04-18T13:04:33.001Z</time></trkpt><trkpt lat="43.29196690978193" lon="10.782877433933315"><ele>301.0</ele><time>2026-04-18T13:04:34.001Z</time></trkpt><trkpt lat="43.29192568075057" lon="10.78296737476231"><ele>300.8333333333333</ele><time>2026-04-18T13:04:35.001Z</time></trkpt><trkpt lat="43.29190628322307" lon="10.783066068415943"><ele>300.66666666666663</ele><time>2026-04-18T13:04:36.001Z</time></trkpt><trkpt lat="43.29190958669103" lon="10.78317151299179"><ele>300.5</ele><time>2026-04-18T13:04:37.001Z</time></trkpt><trkpt lat="43.29192920781549" lon="10.783272556938256"><ele>300.3333333333333</ele><time>2026-04-18T13:04:38.001Z</time></trkpt><trkpt lat="43.29195158843344" lon="10.783380223161956"><ele>300.1666666666667</ele><time>2026-04-18T13:04:39.001Z</time></trkpt><trkpt lat="43.29197071618227" lon="10.783493577151239"><ele>300.0</ele><time>2026-04-18T13:04:40.001Z</time></trkpt><trkpt lat="43.291983141926266" lon="10.783599602946179"><ele>300.0</ele><time>2026-04-18T13:04:41.001Z</time></trkpt><trkpt lat="43.292000225041654" lon="10.783699085792504"><ele>300.0</ele><time>2026-04-18T13:04:42.001Z</time></trkpt><trkpt lat="43.29202140255249" lon="10.78379924011793"><ele>300.0</ele><time>2026-04-18T13:04:43.001Z</time></trkpt><trkpt lat="43.291995765971976" lon="10.783949483858688"><ele>300.0</ele><time>2026-04-18T13:04:45.001Z</time></trkpt><trkpt lat="43.291947607974244" lon="10.784114661406312"><ele>300.0</ele><time>2026-04-18T13:04:47.002Z</time></trkpt><trkpt lat="43.2919121829693" lon="10.784189295550574"><ele>300.0</ele><time>2026-04-18T13:04:48.002Z</time></trkpt><trkpt lat="43.29187002839419" lon="10.784340846158269"><ele>300.0</ele><time>2026-04-18T13:04:50.002Z</time></trkpt><trkpt lat="43.291912231356136" lon="10.784508695859685"><ele>300.0</ele><time>2026-04-18T13:04:52.002Z</time></trkpt><trkpt lat="43.291981711269564" lon="10.784572819120411"><ele>300.0</ele><time>2026-04-18T13:04:53.002Z</time></trkpt><trkpt lat="43.29205697405606" lon="10.784644470470932"><ele>300.0</ele><time>2026-04-18T13:04:54.002Z</time></trkpt><trkpt lat="43.292139445980496" lon="10.78469748428299"><ele>298.1666666666667</ele><time>2026-04-18T13:04:55.002Z</time></trkpt><trkpt lat="43.2922268546087" lon="10.784725379758106"><ele>296.3333333333333</ele><time>2026-04-18T13:04:56.002Z</time></trkpt><trkpt lat="43.292306869848325" lon="10.784770757558318"><ele>294.5</ele><time>2026-04-18T13:04:57.002Z</time></trkpt><trkpt lat="43.29238202594568" lon="10.78482766418296"><ele>292.66666666666663</ele><time>2026-04-18T13:04:58.002Z</time></trkpt><trkpt lat="43.2924644247535" lon="10.784845816798548"><ele>290.8333333333333</ele><time>2026-04-18T13:04:59.002Z</time></trkpt><trkpt lat="43.292545975029704" lon="10.784859562131786"><ele>289.0</ele><time>2026-04-18T13:05:00.002Z</time></trkpt><trkpt lat="43.292615786136864" lon="10.784867729789397"><ele>287.4</ele><time>2026-04-18T13:05:01.002Z</time></trkpt><trkpt lat="43.292680754635974" lon="10.784875330879126"><ele>285.79999999999995</ele><time>2026-04-18T13:05:02.002Z</time></trkpt><trkpt lat="43.29278476070443" lon="10.784899256883355"><ele>284.20000000000005</ele><time>2026-04-18T13:05:04.002Z</time></trkpt><trkpt lat="43.292872626951265" lon="10.784930685149131"><ele>282.6</ele><time>2026-04-18T13:05:06.002Z</time></trkpt><trkpt lat="43.29293876656622" lon="10.785032119323647"><ele>281.0</ele><time>2026-04-18T13:05:08.002Z</time></trkpt><trkpt lat="43.29298871010733" lon="10.785133545885227"><ele>280.1666666666667</ele><time>2026-04-18T13:05:10.002Z</time></trkpt><trkpt lat="43.29302029688235" lon="10.785247515371951"><ele>279.33333333333337</ele><time>2026-04-18T13:05:12.001Z</time></trkpt><trkpt lat="43.293027495229936" lon="10.785337335443552"><ele>278.5</ele><time>2026-04-18T13:05:15.001Z</time></trkpt><trkpt lat="43.29303808682932" lon="10.78545318097805"><ele>277.6666666666667</ele><time>2026-04-18T13:05:29.001Z</time></trkpt><trkpt lat="43.29305151455673" lon="10.785571925091299"><ele>276.8333333333333</ele><time>2026-04-18T13:05:31.001Z</time></trkpt><trkpt lat="43.29306412939439" lon="10.785708685086064"><ele>276.0</ele><time>2026-04-18T13:05:33.001Z</time></trkpt><trkpt lat="43.29307345661297" lon="10.785843321225647"><ele>276.0</ele><time>2026-04-18T13:05:35.001Z</time></trkpt><trkpt lat="43.29307932625858" lon="10.785942302599933"><ele>276.0</ele><time>2026-04-18T13:05:37.001Z</time></trkpt><trkpt lat="43.29309250354431" lon="10.78603931391735"><ele>276.0</ele><time>2026-04-18T13:05:39.001Z</time></trkpt><trkpt lat="43.293123372160466" lon="10.786143867845245"><ele>276.0</ele><time>2026-04-18T13:05:41.001Z</time></trkpt><trkpt lat="43.29317228188923" lon="10.786256489696521"><ele>276.0</ele><time>2026-04-18T13:05:43.001Z</time></trkpt><trkpt lat="43.293230131220156" lon="10.78638762425006"><ele>276.0</ele><time>2026-04-18T13:05:45.001Z</time></trkpt><trkpt lat="43.29330903070617" lon="10.78649574649844"><ele>272.8333333333333</ele><time>2026-04-18T13:05:47.001Z</time></trkpt><trkpt lat="43.29340232621694" lon="10.78659425410648"><ele>269.6666666666667</ele><time>2026-04-18T13:05:49.001Z</time></trkpt><trkpt lat="43.29345482614839" lon="10.786655823369557"><ele>266.5</ele><time>2026-04-18T13:05:50.001Z</time></trkpt><trkpt lat="43.29351645103338" lon="10.786715493616134"><ele>263.33333333333337</ele><time>2026-04-18T13:05:51.001Z</time></trkpt><trkpt lat="43.29358051684058" lon="10.786771423030658"><ele>260.1666666666667</ele><time>2026-04-18T13:05:52.001Z</time></trkpt><trkpt lat="43.29364252859727" lon="10.78682329785171"><ele>257.0</ele><time>2026-04-18T13:05:53.001Z</time></trkpt><trkpt lat="43.293702487414265" lon="10.786871985526234"><ele>256.1666666666667</ele><time>2026-04-18T13:05:54.001Z</time></trkpt><trkpt lat="43.293763774235835" lon="10.78692433203256"><ele>255.33333333333334</ele><time>2026-04-18T13:05:55.001Z</time></trkpt><trkpt lat="43.29382290098874" lon="10.786984535255074"><ele>254.5</ele><time>2026-04-18T13:05:56.001Z</time></trkpt><trkpt lat="43.2938833395485" lon="10.787045227835264"><ele>253.66666666666669</ele><time>2026-04-18T13:05:57.001Z</time></trkpt><trkpt lat="43.29394202825021" lon="10.7871045917805"><ele>252.83333333333334</ele><time>2026-04-18T13:05:58.001Z</time></trkpt><trkpt lat="43.29399669920022" lon="10.787156952848745"><ele>252.0</ele><time>2026-04-18T13:05:59.001Z</time></trkpt><trkpt lat="43.29405602179492" lon="10.78725333487927"><ele>252.0</ele><time>2026-04-18T13:06:01.001Z</time></trkpt><trkpt lat="43.294041144183296" lon="10.787357897571601"><ele>252.0</ele><time>2026-04-18T13:06:04.001Z</time></trkpt><trkpt lat="43.29397734810839" lon="10.787425122894275"><ele>252.0</ele><time>2026-04-18T13:06:06.001Z</time></trkpt><trkpt lat="43.293913200616515" lon="10.787499204276072"><ele>252.0</ele><time>2026-04-18T13:06:08.001Z</time></trkpt><trkpt lat="43.293833463697425" lon="10.78759924489586"><ele>252.0</ele><time>2026-04-18T13:06:10.001Z</time></trkpt><trkpt lat="43.293787508265794" lon="10.787659311148257"><ele>252.0</ele><time>2026-04-18T13:06:11.001Z</time></trkpt><trkpt lat="43.29372522521819" lon="10.787705871669763"><ele>251.57142857142856</ele><time>2026-04-18T13:06:12.001Z</time></trkpt><trkpt lat="43.29368672640774" lon="10.787786723892586"><ele>251.14285714285714</ele><time>2026-04-18T13:06:13.001Z</time></trkpt><trkpt lat="43.29363593149151" lon="10.787850084667353"><ele>250.71428571428572</ele><time>2026-04-18T13:06:14.001Z</time></trkpt><trkpt lat="43.29358855404544" lon="10.787911619913062"><ele>250.28571428571428</ele><time>2026-04-18T13:06:15.001Z</time></trkpt><trkpt lat="43.29354464767304" lon="10.787974345379924"><ele>249.85714285714283</ele><time>2026-04-18T13:06:16.001Z</time></trkpt><trkpt lat="43.293500419249185" lon="10.7880466433011"><ele>249.42857142857142</ele><time>2026-04-18T13:06:17.001Z</time></trkpt><trkpt lat="43.29346672557398" lon="10.788128432097047"><ele>249.0</ele><time>2026-04-18T13:06:18.001Z</time></trkpt><trkpt lat="43.29342221471899" lon="10.788279523632003"><ele>249.0</ele><time>2026-04-18T13:06:20.001Z</time></trkpt><trkpt lat="43.293355416561795" lon="10.788397487377264"><ele>248.99999999999997</ele><time>2026-04-18T13:06:22.001Z</time></trkpt><trkpt lat="43.29330394699382" lon="10.788522646350934"><ele>248.99999999999997</ele><time>2026-04-18T13:06:24.001Z</time></trkpt><trkpt lat="43.29325465127982" lon="10.78864421442806"><ele>249.0</ele><time>2026-04-18T13:06:26.001Z</time></trkpt><trkpt lat="43.293212298899334" lon="10.788769355772724"><ele>249.0</ele><time>2026-04-18T13:06:28.001Z</time></trkpt><trkpt lat="43.29316543676538" lon="10.7888944028269"><ele>248.5</ele><time>2026-04-18T13:06:30.001Z</time></trkpt><trkpt lat="43.293120506257516" lon="10.789051873777977"><ele>248.0</ele><time>2026-04-18T13:06:32.001Z</time></trkpt><trkpt lat="43.29309473460142" lon="10.789144649315391"><ele>247.5</ele><time>2026-04-18T13:06:33.001Z</time></trkpt><trkpt lat="43.29306903684735" lon="10.789245203832413"><ele>247.0</ele><time>2026-04-18T13:06:34.001Z</time></trkpt><trkpt lat="43.2930455576132" lon="10.789345061477304"><ele>246.5</ele><time>2026-04-18T13:06:35.001Z</time></trkpt><trkpt lat="43.293024505026295" lon="10.78944365077542"><ele>246.0</ele><time>2026-04-18T13:06:36.001Z</time></trkpt><trkpt lat="43.29299731082696" lon="10.789540175150886"><ele>248.83333333333334</ele><time>2026-04-18T13:06:37.001Z</time></trkpt><trkpt lat="43.29297252873579" lon="10.789630059987662"><ele>251.66666666666669</ele><time>2026-04-18T13:06:38.001Z</time></trkpt><trkpt lat="43.29294613039518" lon="10.789711031503971"><ele>254.5</ele><time>2026-04-18T13:06:39.001Z</time></trkpt><trkpt lat="43.29289610911688" lon="10.789768692437567"><ele>257.33333333333337</ele><time>2026-04-18T13:06:40.002Z</time></trkpt><trkpt lat="43.29280888322205" lon="10.789885550298157"><ele>260.1666666666667</ele><time>2026-04-18T13:06:42.002Z</time></trkpt><trkpt lat="43.29271235914835" lon="10.789965229179616"><ele>263.0</ele><time>2026-04-18T13:06:44.002Z</time></trkpt><trkpt lat="43.292610639036134" lon="10.790038425489701"><ele>263.0</ele><time>2026-04-18T13:06:46.002Z</time></trkpt><trkpt lat="43.29256813842774" lon="10.790102928388515"><ele>263.0</ele><time>2026-04-18T13:06:47.002Z</time></trkpt><trkpt lat="43.2925258024378" lon="10.790168713500911"><ele>263.0</ele><time>2026-04-18T13:06:48.002Z</time></trkpt><trkpt lat="43.29247902254118" lon="10.790232611750461"><ele>263.0</ele><time>2026-04-18T13:06:49.002Z</time></trkpt><trkpt lat="43.292428727770435" lon="10.790301311135245"><ele>263.0</ele><time>2026-04-18T13:06:50.002Z</time></trkpt><trkpt lat="43.292381693465195" lon="10.790365556922566"><ele>263.0</ele><time>2026-04-18T13:06:51.002Z</time></trkpt><trkpt lat="43.29229918031082" lon="10.790483933021456"><ele>265.5</ele><time>2026-04-18T13:06:53.002Z</time></trkpt><trkpt lat="43.292233907338" lon="10.790585710654353"><ele>268.0</ele><time>2026-04-18T13:06:55.002Z</time></trkpt><trkpt lat="43.292199629660836" lon="10.790732111098542"><ele>270.5</ele><time>2026-04-18T13:06:57.002Z</time></trkpt><trkpt lat="43.29220292871111" lon="10.790819105833796"><ele>273.0</ele><time>2026-04-18T13:06:58.002Z</time></trkpt><trkpt lat="43.292212801970635" lon="10.790911456848571"><ele>275.5</ele><time>2026-04-18T13:06:59.002Z</time></trkpt><trkpt lat="43.29222753515899" lon="10.791001386006446"><ele>278.0</ele><time>2026-04-18T13:07:00.002Z</time></trkpt><trkpt lat="43.2922438081654" lon="10.79109163778784"><ele>272.8</ele><time>2026-04-18T13:07:01.002Z</time></trkpt><trkpt lat="43.29226164445782" lon="10.791176287849122"><ele>267.6</ele><time>2026-04-18T13:07:02.002Z</time></trkpt><trkpt lat="43.29227658833347" lon="10.791337251883219"><ele>262.4</ele><time>2026-04-18T13:07:04.002Z</time></trkpt><trkpt lat="43.29229201170415" lon="10.791475395396583"><ele>257.2</ele><time>2026-04-18T13:07:06.002Z</time></trkpt><trkpt lat="43.2922883896955" lon="10.7916355992515"><ele>252.0</ele><time>2026-04-18T13:07:08.002Z</time></trkpt><trkpt lat="43.292289445370706" lon="10.791739079170629"><ele>253.6</ele><time>2026-04-18T13:07:09.002Z</time></trkpt><trkpt lat="43.29223724463908" lon="10.791830365447337"><ele>255.2</ele><time>2026-04-18T13:07:10.002Z</time></trkpt><trkpt lat="43.29218719980164" lon="10.791931833108041"><ele>256.8</ele><time>2026-04-18T13:07:11.002Z</time></trkpt><trkpt lat="43.29213411531118" lon="10.792036059470938"><ele>258.4</ele><time>2026-04-18T13:07:12.002Z</time></trkpt><trkpt lat="43.2920931750535" lon="10.792157441181192"><ele>260.0</ele><time>2026-04-18T13:07:13.002Z</time></trkpt><trkpt lat="43.29205559905481" lon="10.792269625372308"><ele>260.0</ele><time>2026-04-18T13:07:14.002Z</time></trkpt><trkpt lat="43.292032405668785" lon="10.792364138865171"><ele>260.0</ele><time>2026-04-18T13:07:15.002Z</time></trkpt><trkpt lat="43.29200040592983" lon="10.792512749832639"><ele>260.0</ele><time>2026-04-18T13:07:17.002Z</time></trkpt><trkpt lat="43.29197278796999" lon="10.792618888479875"><ele>260.0</ele><time>2026-04-18T13:07:19.001Z</time></trkpt><trkpt lat="43.29194854731059" lon="10.792718394550343"><ele>260.0</ele><time>2026-04-18T13:07:21.001Z</time></trkpt><trkpt lat="43.29200015657382" lon="10.792816195774387"><ele>260.0</ele><time>2026-04-18T13:07:23.001Z</time></trkpt><trkpt lat="43.29205494749871" lon="10.792895977103672"><ele>257.4</ele><time>2026-04-18T13:07:25.001Z</time></trkpt><trkpt lat="43.29210624039545" lon="10.792976196803323"><ele>254.8</ele><time>2026-04-18T13:07:28.001Z</time></trkpt><trkpt lat="43.29216536257912" lon="10.793077020149939"><ele>252.2</ele><time>2026-04-18T13:08:13.001Z</time></trkpt><trkpt lat="43.29223208844161" lon="10.793187872834046"><ele>249.6</ele><time>2026-04-18T13:08:15.001Z</time></trkpt><trkpt lat="43.29230659530704" lon="10.793311492157391"><ele>247.0</ele><time>2026-04-18T13:08:17.001Z</time></trkpt><trkpt lat="43.292358427941025" lon="10.793363400507113"><ele>246.99999999999997</ele><time>2026-04-18T13:08:18.001Z</time></trkpt><trkpt lat="43.292398532193296" lon="10.793440512400993"><ele>247.0</ele><time>2026-04-18T13:08:19.001Z</time></trkpt><trkpt lat="43.292440990945416" lon="10.793527563779913"><ele>247.0</ele><time>2026-04-18T13:08:20.001Z</time></trkpt><trkpt lat="43.292482142077894" lon="10.79362353883161"><ele>247.0</ele><time>2026-04-18T13:08:21.001Z</time></trkpt><trkpt lat="43.292522499247035" lon="10.79372207652124"><ele>246.99999999999997</ele><time>2026-04-18T13:08:22.001Z</time></trkpt><trkpt lat="43.292570635616734" lon="10.793808425127818"><ele>247.0</ele><time>2026-04-18T13:08:23.001Z</time></trkpt><trkpt lat="43.292632072598956" lon="10.7938657706195"><ele>246.0</ele><time>2026-04-18T13:08:24.001Z</time></trkpt><trkpt lat="43.29269120252322" lon="10.793903335581263"><ele>245.0</ele><time>2026-04-18T13:08:25.001Z</time></trkpt><trkpt lat="43.29275255650021" lon="10.794017373555205"><ele>244.0</ele><time>2026-04-18T13:08:27.001Z</time></trkpt><trkpt lat="43.292723516037015" lon="10.79411470342065"><ele>243.0</ele><time>2026-04-18T13:08:29.001Z</time></trkpt><trkpt lat="43.29263211776565" lon="10.794140331645862"><ele>242.0</ele><time>2026-04-18T13:08:31.001Z</time></trkpt><trkpt lat="43.29250235964201" lon="10.794129423265998"><ele>242.00000000000003</ele><time>2026-04-18T13:08:33.001Z</time></trkpt><trkpt lat="43.2924238017341" lon="10.794125630085293"><ele>242.0</ele><time>2026-04-18T13:08:34.001Z</time></trkpt><trkpt lat="43.292341682276444" lon="10.794121623295647"><ele>242.0</ele><time>2026-04-18T13:08:35.001Z</time></trkpt><trkpt lat="43.292257007592646" lon="10.794109906496143"><ele>242.0</ele><time>2026-04-18T13:08:36.001Z</time></trkpt><trkpt lat="43.29217114027908" lon="10.794078406383917"><ele>242.00000000000003</ele><time>2026-04-18T13:08:37.001Z</time></trkpt><trkpt lat="43.292083333094745" lon="10.794033697862629"><ele>242.0</ele><time>2026-04-18T13:08:38.001Z</time></trkpt><trkpt lat="43.291997559319746" lon="10.793975709655298"><ele>240.83333333333334</ele><time>2026-04-18T13:08:39.002Z</time></trkpt><trkpt lat="43.29191191653356" lon="10.793910612470677"><ele>239.66666666666669</ele><time>2026-04-18T13:08:40.002Z</time></trkpt><trkpt lat="43.2918271364463" lon="10.793862893356868"><ele>238.5</ele><time>2026-04-18T13:08:41.002Z</time></trkpt><trkpt lat="43.29173452272417" lon="10.793830749068272"><ele>237.33333333333331</ele><time>2026-04-18T13:08:42.002Z</time></trkpt><trkpt lat="43.291653141855384" lon="10.793810232435998"><ele>236.16666666666666</ele><time>2026-04-18T13:08:43.002Z</time></trkpt><trkpt lat="43.29158144362794" lon="10.79379528312016"><ele>235.0</ele><time>2026-04-18T13:08:44.002Z</time></trkpt><trkpt lat="43.29147947438852" lon="10.793825628263454"><ele>234.99999999999997</ele><time>2026-04-18T13:08:46.002Z</time></trkpt><trkpt lat="43.29142704632037" lon="10.793926595987438"><ele>235.0</ele><time>2026-04-18T13:08:48.002Z</time></trkpt><trkpt lat="43.291485907753355" lon="10.79401419168189"><ele>235.0</ele><time>2026-04-18T13:08:49.002Z</time></trkpt><trkpt lat="43.291547431381794" lon="10.794065944309535"><ele>235.0</ele><time>2026-04-18T13:08:50.002Z</time></trkpt><trkpt lat="43.29161541479018" lon="10.794110267228245"><ele>234.99999999999997</ele><time>2026-04-18T13:08:51.002Z</time></trkpt><trkpt lat="43.291677877140245" lon="10.794179520195478"><ele>235.0</ele><time>2026-04-18T13:08:52.002Z</time></trkpt><trkpt lat="43.291733531233255" lon="10.794278946572259"><ele>232.2</ele><time>2026-04-18T13:08:53.002Z</time></trkpt><trkpt lat="43.29177553652832" lon="10.794398872051072"><ele>229.4</ele><time>2026-04-18T13:08:54.002Z</time></trkpt><trkpt lat="43.29182041611828" lon="10.7945207481692"><ele>226.60000000000002</ele><time>2026-04-18T13:08:55.002Z</time></trkpt><trkpt lat="43.29187435600905" lon="10.794641913348746"><ele>223.8</ele><time>2026-04-18T13:08:56.002Z</time></trkpt><trkpt lat="43.291942903036734" lon="10.794758039074265"><ele>221.0</ele><time>2026-04-18T13:08:57.002Z</time></trkpt><trkpt lat="43.29202827967571" lon="10.794860042744146"><ele>221.0</ele><time>2026-04-18T13:08:58.002Z</time></trkpt><trkpt lat="43.2921312305835" lon="10.794942765851344"><ele>221.0</ele><time>2026-04-18T13:08:59.002Z</time></trkpt><trkpt lat="43.29223994584233" lon="10.795017862642258"><ele>221.0</ele><time>2026-04-18T13:09:00.002Z</time></trkpt><trkpt lat="43.29234981537704" lon="10.795094925654825"><ele>221.0</ele><time>2026-04-18T13:09:01.002Z</time></trkpt><trkpt lat="43.29246228321481" lon="10.795171388185459"><ele>218.25</ele><time>2026-04-18T13:09:02.002Z</time></trkpt><trkpt lat="43.292571245696095" lon="10.79524978551032"><ele>215.5</ele><time>2026-04-18T13:09:03.002Z</time></trkpt><trkpt lat="43.292665223970836" lon="10.7953443882178"><ele>212.75</ele><time>2026-04-18T13:09:04.002Z</time></trkpt><trkpt lat="43.29274114848447" lon="10.795458466279559"><ele>210.0</ele><time>2026-04-18T13:09:05.002Z</time></trkpt><trkpt lat="43.292802403047105" lon="10.795580766387065"><ele>210.0</ele><time>2026-04-18T13:09:06.002Z</time></trkpt><trkpt lat="43.29286454181471" lon="10.795696777036659"><ele>210.0</ele><time>2026-04-18T13:09:07.002Z</time></trkpt><trkpt lat="43.2929251434531" lon="10.795810298875956"><ele>210.0</ele><time>2026-04-18T13:09:08.002Z</time></trkpt><trkpt lat="43.292988048328105" lon="10.79590641227792"><ele>210.0</ele><time>2026-04-18T13:09:09.002Z</time></trkpt><trkpt lat="43.293053607383975" lon="10.79598526894599"><ele>210.0</ele><time>2026-04-18T13:09:10.002Z</time></trkpt><trkpt lat="43.29313223916652" lon="10.796037944292998"><ele>210.4</ele><time>2026-04-18T13:09:11.002Z</time></trkpt><trkpt lat="43.29322516284201" lon="10.796054862142865"><ele>210.8</ele><time>2026-04-18T13:09:12.002Z</time></trkpt><trkpt lat="43.29332150102549" lon="10.79603600249159"><ele>211.2</ele><time>2026-04-18T13:09:13.002Z</time></trkpt><trkpt lat="43.29341527771442" lon="10.795982372993494"><ele>211.6</ele><time>2026-04-18T13:09:14.002Z</time></trkpt><trkpt lat="43.29349792616773" lon="10.795904710597599"><ele>212.0</ele><time>2026-04-18T13:09:15.002Z</time></trkpt><trkpt lat="43.293572774214994" lon="10.795821621736067"><ele>212.00000000000003</ele><time>2026-04-18T13:09:16.002Z</time></trkpt><trkpt lat="43.29364389893099" lon="10.795767679084094"><ele>212.0</ele><time>2026-04-18T13:09:17.002Z</time></trkpt><trkpt lat="43.29371440174796" lon="10.795750175903233"><ele>212.0</ele><time>2026-04-18T13:09:18.002Z</time></trkpt><trkpt lat="43.293789143510494" lon="10.795776111153156"><ele>212.0</ele><time>2026-04-18T13:09:19.002Z</time></trkpt><trkpt lat="43.2938564076065" lon="10.795847827557134"><ele>212.00000000000003</ele><time>2026-04-18T13:09:20.002Z</time></trkpt><trkpt lat="43.29389362434844" lon="10.795966348486177"><ele>212.0</ele><time>2026-04-18T13:09:21.002Z</time></trkpt><trkpt lat="43.29395719071782" lon="10.79607781742202"><ele>209.6</ele><time>2026-04-18T13:09:22.002Z</time></trkpt><trkpt lat="43.294013690088434" lon="10.79620139033344"><ele>207.2</ele><time>2026-04-18T13:09:23.002Z</time></trkpt><trkpt lat="43.29407925529347" lon="10.796319745921718"><ele>204.8</ele><time>2026-04-18T13:09:24.002Z</time></trkpt><trkpt lat="43.29415437537788" lon="10.796427206792396"><ele>202.4</ele><time>2026-04-18T13:09:25.002Z</time></trkpt><trkpt lat="43.29423939935178" lon="10.796518497440552"><ele>200.0</ele><time>2026-04-18T13:09:26.002Z</time></trkpt><trkpt lat="43.29432914719966" lon="10.796598726731665"><ele>200.0</ele><time>2026-04-18T13:09:27.002Z</time></trkpt><trkpt lat="43.29442621726462" lon="10.796651733203035"><ele>200.0</ele><time>2026-04-18T13:09:28.002Z</time></trkpt><trkpt lat="43.29452850433272" lon="10.796675659147708"><ele>200.0</ele><time>2026-04-18T13:09:29.002Z</time></trkpt><trkpt lat="43.2946329882057" lon="10.79667455418166"><ele>200.0</ele><time>2026-04-18T13:09:30.002Z</time></trkpt><trkpt lat="43.29473883779279" lon="10.796650723257653"><ele>200.0</ele><time>2026-04-18T13:09:31.002Z</time></trkpt><trkpt lat="43.29484770478471" lon="10.796666608571128"><ele>198.6</ele><time>2026-04-18T13:09:32.002Z</time></trkpt><trkpt lat="43.294947152734466" lon="10.796706698574255"><ele>197.2</ele><time>2026-04-18T13:09:33.002Z</time></trkpt><trkpt lat="43.29504586546605" lon="10.796745766549407"><ele>195.8</ele><time>2026-04-18T13:09:34.002Z</time></trkpt><trkpt lat="43.29514193602988" lon="10.796741787682857"><ele>194.4</ele><time>2026-04-18T13:09:35.002Z</time></trkpt><trkpt lat="43.29522839147426" lon="10.796705474752477"><ele>193.0</ele><time>2026-04-18T13:09:36.002Z</time></trkpt><trkpt lat="43.295310897613774" lon="10.796634197133173"><ele>193.0</ele><time>2026-04-18T13:09:37.002Z</time></trkpt><trkpt lat="43.29539124960588" lon="10.796550474589138"><ele>193.0</ele><time>2026-04-18T13:09:38.002Z</time></trkpt><trkpt lat="43.29546309990305" lon="10.796448539379996"><ele>193.0</ele><time>2026-04-18T13:09:39.002Z</time></trkpt><trkpt lat="43.29553119493939" lon="10.796342921743038"><ele>193.0</ele><time>2026-04-18T13:09:40.002Z</time></trkpt><trkpt lat="43.29554983716633" lon="10.796206031609811"><ele>193.0</ele><time>2026-04-18T13:09:41.002Z</time></trkpt><trkpt lat="43.29557123322468" lon="10.796101128845477"><ele>191.66666666666666</ele><time>2026-04-18T13:09:42.002Z</time></trkpt><trkpt lat="43.29561730795146" lon="10.79602885094595"><ele>190.33333333333331</ele><time>2026-04-18T13:09:43.002Z</time></trkpt><trkpt lat="43.295687610606535" lon="10.795997384541796"><ele>189.0</ele><time>2026-04-18T13:09:44.002Z</time></trkpt><trkpt lat="43.29576642007167" lon="10.796050478905732"><ele>187.66666666666666</ele><time>2026-04-18T13:09:45.002Z</time></trkpt><trkpt lat="43.29585429265428" lon="10.796074455998971"><ele>186.33333333333331</ele><time>2026-04-18T13:09:46.002Z</time></trkpt><trkpt lat="43.29595583102698" lon="10.796065465373738"><ele>185.0</ele><time>2026-04-18T13:09:47.002Z</time></trkpt><trkpt lat="43.29605723868432" lon="10.795991275941015"><ele>185.0</ele><time>2026-04-18T13:09:48.002Z</time></trkpt><trkpt lat="43.29616777156146" lon="10.79593775171621"><ele>185.0</ele><time>2026-04-18T13:09:49.002Z</time></trkpt><trkpt lat="43.296287282898646" lon="10.795900026004006"><ele>185.0</ele><time>2026-04-18T13:09:50.002Z</time></trkpt><trkpt lat="43.2964136643727" lon="10.7958834140759"><ele>185.0</ele><time>2026-04-18T13:09:51.002Z</time></trkpt><trkpt lat="43.29652834837785" lon="10.795879080129145"><ele>182.4</ele><time>2026-04-18T13:09:52.002Z</time></trkpt><trkpt lat="43.29662616957519" lon="10.795843803892632"><ele>179.8</ele><time>2026-04-18T13:09:53.002Z</time></trkpt><trkpt lat="43.2967097808587" lon="10.79575897668875"><ele>177.2</ele><time>2026-04-18T13:09:54.002Z</time></trkpt><trkpt lat="43.2967762593201" lon="10.795631503640791"><ele>174.6</ele><time>2026-04-18T13:09:55.002Z</time></trkpt><trkpt lat="43.2968169841581" lon="10.795482157642358"><ele>172.0</ele><time>2026-04-18T13:09:56.002Z</time></trkpt><trkpt lat="43.296862297203155" lon="10.7953526572141"><ele>172.0</ele><time>2026-04-18T13:09:57.002Z</time></trkpt><trkpt lat="43.29691973277686" lon="10.795265205109514"><ele>172.0</ele><time>2026-04-18T13:09:58.002Z</time></trkpt><trkpt lat="43.29699038676551" lon="10.795216091958158"><ele>172.0</ele><time>2026-04-18T13:09:59.002Z</time></trkpt><trkpt lat="43.297073672135426" lon="10.795220033101009"><ele>172.0</ele><time>2026-04-18T13:10:00.002Z</time></trkpt><trkpt lat="43.29715586899007" lon="10.795244055865263"><ele>172.0</ele><time>2026-04-18T13:10:01.002Z</time></trkpt><trkpt lat="43.29724917322879" lon="10.795270791231562"><ele>172.0</ele><time>2026-04-18T13:10:02.002Z</time></trkpt><trkpt lat="43.29735035728155" lon="10.795295427519884"><ele>169.6</ele><time>2026-04-18T13:10:03.002Z</time></trkpt><trkpt lat="43.29745579546901" lon="10.795304614035"><ele>167.2</ele><time>2026-04-18T13:10:04.002Z</time></trkpt><trkpt lat="43.29756288160676" lon="10.795306071345435"><ele>164.8</ele><time>2026-04-18T13:10:05.002Z</time></trkpt><trkpt lat="43.29767043572142" lon="10.795300758873134"><ele>162.4</ele><time>2026-04-18T13:10:06.002Z</time></trkpt><trkpt lat="43.29777563204755" lon="10.795292758682775"><ele>160.0</ele><time>2026-04-18T13:10:07.002Z</time></trkpt><trkpt lat="43.29788019077095" lon="10.795262669127386"><ele>160.0</ele><time>2026-04-18T13:10:08.002Z</time></trkpt><trkpt lat="43.297983991487754" lon="10.79528053440383"><ele>160.0</ele><time>2026-04-18T13:10:09.002Z</time></trkpt><trkpt lat="43.29807690476832" lon="10.795286856571614"><ele>160.0</ele><time>2026-04-18T13:10:10.002Z</time></trkpt><trkpt lat="43.298164002777376" lon="10.795347650809418"><ele>160.0</ele><time>2026-04-18T13:10:11.002Z</time></trkpt><trkpt lat="43.29822472823821" lon="10.795454881924446"><ele>160.0</ele><time>2026-04-18T13:10:12.002Z</time></trkpt><trkpt lat="43.29828174516667" lon="10.795561602793018"><ele>160.4</ele><time>2026-04-18T13:10:13.002Z</time></trkpt><trkpt lat="43.29833966511805" lon="10.795671982882464"><ele>160.8</ele><time>2026-04-18T13:10:14.002Z</time></trkpt><trkpt lat="43.29838634636339" lon="10.795783547726005"><ele>161.2</ele><time>2026-04-18T13:10:15.002Z</time></trkpt><trkpt lat="43.298414695702604" lon="10.795905942930814"><ele>161.6</ele><time>2026-04-18T13:10:16.002Z</time></trkpt><trkpt lat="43.29841179286047" lon="10.796034642941265"><ele>162.0</ele><time>2026-04-18T13:10:17.002Z</time></trkpt><trkpt lat="43.2984046001668" lon="10.79617556728933"><ele>160.79999999999998</ele><time>2026-04-18T13:10:18.002Z</time></trkpt><trkpt lat="43.298398224237616" lon="10.796322905224185"><ele>159.6</ele><time>2026-04-18T13:10:19.002Z</time></trkpt><trkpt lat="43.29840989161033" lon="10.796475122755623"><ele>158.39999999999998</ele><time>2026-04-18T13:10:20.002Z</time></trkpt><trkpt lat="43.29840530267394" lon="10.796627063467897"><ele>157.2</ele><time>2026-04-18T13:10:21.002Z</time></trkpt><trkpt lat="43.298405004412864" lon="10.796767093077706"><ele>156.0</ele><time>2026-04-18T13:10:22.002Z</time></trkpt><trkpt lat="43.298413395103516" lon="10.796895335579023"><ele>154.0</ele><time>2026-04-18T13:10:23.002Z</time></trkpt><trkpt lat="43.2984462613855" lon="10.797024204344833"><ele>152.0</ele><time>2026-04-18T13:10:24.002Z</time></trkpt><trkpt lat="43.298505068741285" lon="10.797144335711431"><ele>150.0</ele><time>2026-04-18T13:10:25.002Z</time></trkpt><trkpt lat="43.29856807742897" lon="10.797273275400816"><ele>148.0</ele><time>2026-04-18T13:10:26.002Z</time></trkpt><trkpt lat="43.29864407640615" lon="10.797391124616446"><ele>146.0</ele><time>2026-04-18T13:10:27.002Z</time></trkpt><trkpt lat="43.29871961569713" lon="10.797505272300576"><ele>146.0</ele><time>2026-04-18T13:10:28.002Z</time></trkpt><trkpt lat="43.2987882100417" lon="10.79761273545393"><ele>146.0</ele><time>2026-04-18T13:10:29.002Z</time></trkpt><trkpt lat="43.29885155916155" lon="10.79771480106933"><ele>146.0</ele><time>2026-04-18T13:10:30.002Z</time></trkpt><trkpt lat="43.2988809821321" lon="10.797839912862598"><ele>146.0</ele><time>2026-04-18T13:10:31.002Z</time></trkpt><trkpt lat="43.29888201317312" lon="10.797967308789605"><ele>146.0</ele><time>2026-04-18T13:10:32.002Z</time></trkpt><trkpt lat="43.29889451986356" lon="10.798087728355204"><ele>146.0</ele><time>2026-04-18T13:10:33.002Z</time></trkpt><trkpt lat="43.29893472736409" lon="10.798200957602619"><ele>146.0</ele><time>2026-04-18T13:10:34.002Z</time></trkpt><trkpt lat="43.298965734784424" lon="10.798325476494288"><ele>146.0</ele><time>2026-04-18T13:10:35.002Z</time></trkpt><trkpt lat="43.29902825191293" lon="10.798439686065715"><ele>146.0</ele><time>2026-04-18T13:10:36.002Z</time></trkpt><trkpt lat="43.29909214012638" lon="10.798556752266897"><ele>146.0</ele><time>2026-04-18T13:10:37.002Z</time></trkpt><trkpt lat="43.29915824653644" lon="10.79868336594011"><ele>146.0</ele><time>2026-04-18T13:10:38.002Z</time></trkpt><trkpt lat="43.299226101372454" lon="10.798815207220501"><ele>146.0</ele><time>2026-04-18T13:10:39.002Z</time></trkpt><trkpt lat="43.299300065214325" lon="10.798940238505208"><ele>146.0</ele><time>2026-04-18T13:10:40.002Z</time></trkpt><trkpt lat="43.299343523795294" lon="10.799087801889538"><ele>146.0</ele><time>2026-04-18T13:10:41.002Z</time></trkpt><trkpt lat="43.2994010200881" lon="10.799222466606139"><ele>144.5</ele><time>2026-04-18T13:10:42.002Z</time></trkpt><trkpt lat="43.29942522345559" lon="10.799376233121516"><ele>143.0</ele><time>2026-04-18T13:10:43.002Z</time></trkpt><trkpt lat="43.29941231716609" lon="10.799533122212065"><ele>141.5</ele><time>2026-04-18T13:10:44.002Z</time></trkpt><trkpt lat="43.29942797620512" lon="10.79969163537059"><ele>140.0</ele><time>2026-04-18T13:10:45.002Z</time></trkpt><trkpt lat="43.299417813180185" lon="10.799850662424282"><ele>140.0</ele><time>2026-04-18T13:10:46.002Z</time></trkpt><trkpt lat="43.29943234754471" lon="10.800001228947538"><ele>140.0</ele><time>2026-04-18T13:10:47.002Z</time></trkpt><trkpt lat="43.299458844514675" lon="10.800131361266043"><ele>140.0</ele><time>2026-04-18T13:10:48.002Z</time></trkpt><trkpt lat="43.299448674193854" lon="10.800256637040752"><ele>140.0</ele><time>2026-04-18T13:10:49.002Z</time></trkpt><trkpt lat="43.29941706199985" lon="10.800374815596726"><ele>140.0</ele><time>2026-04-18T13:10:50.002Z</time></trkpt><trkpt lat="43.29936531897778" lon="10.800478480868163"><ele>139.6</ele><time>2026-04-18T13:10:51.002Z</time></trkpt><trkpt lat="43.299317606786865" lon="10.800576823173301"><ele>139.2</ele><time>2026-04-18T13:10:52.002Z</time></trkpt><trkpt lat="43.29927812058944" lon="10.80068915729931"><ele>138.8</ele><time>2026-04-18T13:10:53.002Z</time></trkpt><trkpt lat="43.299298448067766" lon="10.80081705414889"><ele>138.4</ele><time>2026-04-18T13:10:54.002Z</time></trkpt><trkpt lat="43.29933473776697" lon="10.800918783749896"><ele>138.0</ele><time>2026-04-18T13:10:55.002Z</time></trkpt><trkpt lat="43.29940514635841" lon="10.80103718034492"><ele>137.66666666666666</ele><time>2026-04-18T13:10:57.002Z</time></trkpt><trkpt lat="43.29949065697979" lon="10.801103977306687"><ele>137.33333333333334</ele><time>2026-04-18T13:10:59.002Z</time></trkpt><trkpt lat="43.29955355214427" lon="10.801141132285496"><ele>137.0</ele><time>2026-04-18T13:11:01.002Z</time></trkpt><trkpt lat="43.29963716369071" lon="10.80118039714968"><ele>136.66666666666669</ele><time>2026-04-18T13:11:11.002Z</time></trkpt><trkpt lat="43.299702613137235" lon="10.801232319808044"><ele>136.33333333333334</ele><time>2026-04-18T13:11:15.002Z</time></trkpt><trkpt lat="43.2997879331875" lon="10.80124531335624"><ele>136.0</ele><time>2026-04-18T13:11:17.002Z</time></trkpt><trkpt lat="43.29986819243928" lon="10.801279184487838"><ele>137.6</ele><time>2026-04-18T13:11:19.002Z</time></trkpt><trkpt lat="43.29994162190547" lon="10.801298493794175"><ele>139.2</ele><time>2026-04-18T13:11:29.002Z</time></trkpt><trkpt lat="43.30003170633332" lon="10.80132359120581"><ele>140.8</ele><time>2026-04-18T13:11:31.002Z</time></trkpt><trkpt lat="43.30015878412356" lon="10.801349745911487"><ele>142.4</ele><time>2026-04-18T13:11:33.002Z</time></trkpt><trkpt lat="43.30023460031737" lon="10.80135209425306"><ele>144.0</ele><time>2026-04-18T13:11:34.002Z</time></trkpt><trkpt lat="43.300315722851884" lon="10.801346301441571"><ele>144.0</ele><time>2026-04-18T13:11:35.002Z</time></trkpt><trkpt lat="43.30040261204646" lon="10.801333866094831"><ele>144.0</ele><time>2026-04-18T13:11:36.002Z</time></trkpt><trkpt lat="43.30049454650038" lon="10.801321000757524"><ele>144.0</ele><time>2026-04-18T13:11:37.002Z</time></trkpt><trkpt lat="43.300589935474676" lon="10.801339142293997"><ele>144.0</ele><time>2026-04-18T13:11:38.002Z</time></trkpt><trkpt lat="43.30069063617779" lon="10.801343601628854"><ele>144.0</ele><time>2026-04-18T13:11:39.002Z</time></trkpt><trkpt lat="43.300776896115536" lon="10.80142570122092"><ele>143.75</ele><time>2026-04-18T13:11:40.002Z</time></trkpt><trkpt lat="43.300874978972715" lon="10.80149370438498"><ele>143.5</ele><time>2026-04-18T13:11:41.002Z</time></trkpt><trkpt lat="43.300961136353145" lon="10.801602806165121"><ele>143.25</ele><time>2026-04-18T13:11:42.002Z</time></trkpt><trkpt lat="43.30105721001082" lon="10.801709877119613"><ele>143.0</ele><time>2026-04-18T13:11:43.002Z</time></trkpt><trkpt lat="43.30115688320116" lon="10.80181445059293"><ele>142.5</ele><time>2026-04-18T13:11:44.002Z</time></trkpt><trkpt lat="43.301256648138924" lon="10.801918000886621"><ele>142.0</ele><time>2026-04-18T13:11:45.002Z</time></trkpt><trkpt lat="43.30135640690643" lon="10.802018231113014"><ele>141.5</ele><time>2026-04-18T13:11:46.002Z</time></trkpt><trkpt lat="43.30145771199374" lon="10.802114143669508"><ele>141.0</ele><time>2026-04-18T13:11:47.002Z</time></trkpt><trkpt lat="43.301560681532784" lon="10.802207320288389"><ele>140.75</ele><time>2026-04-18T13:11:48.002Z</time></trkpt><trkpt lat="43.301661859009734" lon="10.802301281871598"><ele>140.5</ele><time>2026-04-18T13:11:49.002Z</time></trkpt><trkpt lat="43.30176209410585" lon="10.802393623303225"><ele>140.25</ele><time>2026-04-18T13:11:50.002Z</time></trkpt><trkpt lat="43.301857477254615" lon="10.802480828777224"><ele>140.0</ele><time>2026-04-18T13:11:51.002Z</time></trkpt><trkpt lat="43.301946113532665" lon="10.802559597323024"><ele>140.0</ele><time>2026-04-18T13:11:52.002Z</time></trkpt><trkpt lat="43.30203109022209" lon="10.802635904294767"><ele>140.0</ele><time>2026-04-18T13:11:53.002Z</time></trkpt><trkpt lat="43.30211468242981" lon="10.802710924247236"><ele>140.0</ele><time>2026-04-18T13:11:54.002Z</time></trkpt><trkpt lat="43.30219642813517" lon="10.802784574430804"><ele>140.0</ele><time>2026-04-18T13:11:55.002Z</time></trkpt><trkpt lat="43.30227729267481" lon="10.802855156131807"><ele>140.0</ele><time>2026-04-18T13:11:56.002Z</time></trkpt><trkpt lat="43.30235766234112" lon="10.802910228292054"><ele>138.8</ele><time>2026-04-18T13:11:57.002Z</time></trkpt><trkpt lat="43.30244453935926" lon="10.802950829682581"><ele>137.6</ele><time>2026-04-18T13:11:58.002Z</time></trkpt><trkpt lat="43.302534651196225" lon="10.80297118554371"><ele>136.4</ele><time>2026-04-18T13:11:59.002Z</time></trkpt><trkpt lat="43.30262694716357" lon="10.802974867169622"><ele>135.2</ele><time>2026-04-18T13:12:00.002Z</time></trkpt><trkpt lat="43.30272018980372" lon="10.802957797161428"><ele>134.0</ele><time>2026-04-18T13:12:01.002Z</time></trkpt><trkpt lat="43.30281934441981" lon="10.802935867022024"><ele>134.0</ele><time>2026-04-18T13:12:02.002Z</time></trkpt><trkpt lat="43.302910730179406" lon="10.802866255186249"><ele>134.0</ele><time>2026-04-18T13:12:03.002Z</time></trkpt><trkpt lat="43.302985870411426" lon="10.802765669123403"><ele>134.0</ele><time>2026-04-18T13:12:04.002Z</time></trkpt><trkpt lat="43.303077101629555" lon="10.802697512184782"><ele>134.0</ele><time>2026-04-18T13:12:05.002Z</time></trkpt><trkpt lat="43.30317954567816" lon="10.802654636151292"><ele>134.0</ele><time>2026-04-18T13:12:06.002Z</time></trkpt><trkpt lat="43.30328954701165" lon="10.802642939458533"><ele>133.6</ele><time>2026-04-18T13:12:07.002Z</time></trkpt><trkpt lat="43.303398082561664" lon="10.802655720090161"><ele>133.2</ele><time>2026-04-18T13:12:08.002Z</time></trkpt><trkpt lat="43.30348982693243" lon="10.802692793251284"><ele>132.79999999999998</ele><time>2026-04-18T13:12:09.002Z</time></trkpt><trkpt lat="43.30356442035617" lon="10.80275298243122"><ele>132.4</ele><time>2026-04-18T13:12:10.002Z</time></trkpt><trkpt lat="43.30362537216285" lon="10.802840562651593"><ele>132.0</ele><time>2026-04-18T13:12:11.002Z</time></trkpt><trkpt lat="43.303672546538834" lon="10.8029503922961"><ele>131.5</ele><time>2026-04-18T13:12:12.002Z</time></trkpt><trkpt lat="43.30370102646569" lon="10.803081116206647"><ele>131.0</ele><time>2026-04-18T13:12:13.002Z</time></trkpt><trkpt lat="43.303723263214174" lon="10.803228710764397"><ele>130.5</ele><time>2026-04-18T13:12:14.002Z</time></trkpt><trkpt lat="43.303751541668746" lon="10.8033890469471"><ele>130.0</ele><time>2026-04-18T13:12:15.002Z</time></trkpt><trkpt lat="43.30378229632634" lon="10.803561116118084"><ele>128.25</ele><time>2026-04-18T13:12:16.002Z</time></trkpt><trkpt lat="43.30381333890568" lon="10.803744192242146"><ele>126.5</ele><time>2026-04-18T13:12:17.002Z</time></trkpt><trkpt lat="43.30384542824873" lon="10.80393800648037"><ele>124.75</ele><time>2026-04-18T13:12:18.002Z</time></trkpt><trkpt lat="43.30388115921459" lon="10.804135475422003"><ele>123.0</ele><time>2026-04-18T13:12:19.002Z</time></trkpt><trkpt lat="43.30391878409836" lon="10.804332763517833"><ele>118.0</ele><time>2026-04-18T13:12:20.002Z</time></trkpt><trkpt lat="43.303957426692286" lon="10.80452776314454"><ele>113.0</ele><time>2026-04-18T13:12:21.002Z</time></trkpt><trkpt lat="43.30399645470916" lon="10.804711796437592"><ele>108.0</ele><time>2026-04-18T13:12:22.002Z</time></trkpt><trkpt lat="43.30403263135278" lon="10.804884809905875"><ele>103.0</ele><time>2026-04-18T13:12:23.002Z</time></trkpt><trkpt lat="43.30406205623828" lon="10.805047853248203"><ele>102.4</ele><time>2026-04-18T13:12:24.002Z</time></trkpt><trkpt lat="43.30408212632096" lon="10.805200252446006"><ele>101.80000000000001</ele><time>2026-04-18T13:12:25.002Z</time></trkpt><trkpt lat="43.30409482350949" lon="10.80534566214496"><ele>101.2</ele><time>2026-04-18T13:12:26.002Z</time></trkpt><trkpt lat="43.30409899756557" lon="10.805490347792746"><ele>100.6</ele><time>2026-04-18T13:12:27.002Z</time></trkpt><trkpt lat="43.30409706730534" lon="10.805635155098711"><ele>100.0</ele><time>2026-04-18T13:12:28.002Z</time></trkpt><trkpt lat="43.30408161045351" lon="10.805782961083866"><ele>100.0</ele><time>2026-04-18T13:12:29.002Z</time></trkpt><trkpt lat="43.30405103385355" lon="10.80592921591002"><ele>100.0</ele><time>2026-04-18T13:12:30.002Z</time></trkpt><trkpt lat="43.30400031532093" lon="10.806068270218427"><ele>100.0</ele><time>2026-04-18T13:12:31.002Z</time></trkpt><trkpt lat="43.30391360565782" lon="10.806175527424394"><ele>100.0</ele><time>2026-04-18T13:12:32.002Z</time></trkpt><trkpt lat="43.30383047739231" lon="10.806291874799843"><ele>100.0</ele><time>2026-04-18T13:12:33.002Z</time></trkpt><trkpt lat="43.303741889256564" lon="10.806413597975213"><ele>100.0</ele><time>2026-04-18T13:12:34.002Z</time></trkpt><trkpt lat="43.30366329670152" lon="10.806555987656271"><ele>100.0</ele><time>2026-04-18T13:12:35.002Z</time></trkpt><trkpt lat="43.30356813834361" lon="10.806684816915624"><ele>100.0</ele><time>2026-04-18T13:12:36.002Z</time></trkpt><trkpt lat="43.30346318947016" lon="10.806806531795926"><ele>99.75</ele><time>2026-04-18T13:12:37.002Z</time></trkpt><trkpt lat="43.3033685210916" lon="10.806940897559278"><ele>99.5</ele><time>2026-04-18T13:12:38.002Z</time></trkpt><trkpt lat="43.3032765295503" lon="10.807068686482861"><ele>99.25</ele><time>2026-04-18T13:12:39.002Z</time></trkpt><trkpt lat="43.303187198196675" lon="10.807192038691872"><ele>99.0</ele><time>2026-04-18T13:12:40.002Z</time></trkpt><trkpt lat="43.30310114884064" lon="10.807309644633417"><ele>99.6</ele><time>2026-04-18T13:12:41.002Z</time></trkpt><trkpt lat="43.303016964205334" lon="10.807423281492412"><ele>100.2</ele><time>2026-04-18T13:12:42.002Z</time></trkpt><trkpt lat="43.302937592984975" lon="10.807534344022834"><ele>100.8</ele><time>2026-04-18T13:12:43.002Z</time></trkpt><trkpt lat="43.30286579324471" lon="10.807648988483491"><ele>101.39999999999999</ele><time>2026-04-18T13:12:44.002Z</time></trkpt><trkpt lat="43.302802949680924" lon="10.807766973113848"><ele>102.0</ele><time>2026-04-18T13:12:45.002Z</time></trkpt><trkpt lat="43.30274824144401" lon="10.807888111330044"><ele>102.0</ele><time>2026-04-18T13:12:46.002Z</time></trkpt><trkpt lat="43.30270288001079" lon="10.808016742443744"><ele>102.0</ele><time>2026-04-18T13:12:47.002Z</time></trkpt><trkpt lat="43.302657495344526" lon="10.808145957275997"><ele>102.0</ele><time>2026-04-18T13:12:48.002Z</time></trkpt><trkpt lat="43.302611881320544" lon="10.808276056179805"><ele>102.0</ele><time>2026-04-18T13:12:49.002Z</time></trkpt><trkpt lat="43.30256889638744" lon="10.808406874677734"><ele>102.0</ele><time>2026-04-18T13:12:50.002Z</time></trkpt><trkpt lat="43.302524372279144" lon="10.808536811696545"><ele>102.0</ele><time>2026-04-18T13:12:51.002Z</time></trkpt><trkpt lat="43.302480959172065" lon="10.808665476451809"><ele>102.0</ele><time>2026-04-18T13:12:52.002Z</time></trkpt><trkpt lat="43.30244446917147" lon="10.808775106515998"><ele>102.0</ele><time>2026-04-18T13:12:53.002Z</time></trkpt><trkpt lat="43.30241203864833" lon="10.808867391249786"><ele>102.0</ele><time>2026-04-18T13:12:54.002Z</time></trkpt><trkpt lat="43.30235744108498" lon="10.809010740039575"><ele>102.0</ele><time>2026-04-18T13:12:56.002Z</time></trkpt><trkpt lat="43.302296861427486" lon="10.809157587138122"><ele>103.39999999999999</ele><time>2026-04-18T13:12:58.002Z</time></trkpt><trkpt lat="43.30224488962738" lon="10.809262787754921"><ele>104.8</ele><time>2026-04-18T13:13:00.002Z</time></trkpt><trkpt lat="43.30209566233784" lon="10.809138686692114"><ele>106.2</ele><time>2026-04-18T13:13:02.002Z</time></trkpt><trkpt lat="43.30204058702095" lon="10.809072846447046"><ele>107.6</ele><time>2026-04-18T13:13:03.002Z</time></trkpt><trkpt lat="43.301986094693305" lon="10.809000019281259"><ele>109.0</ele><time>2026-04-18T13:13:04.002Z</time></trkpt><trkpt lat="43.301929018437434" lon="10.808923738051941"><ele>109.0</ele><time>2026-04-18T13:13:05.002Z</time></trkpt><trkpt lat="43.30186480280015" lon="10.80884954416108"><ele>109.0</ele><time>2026-04-18T13:13:06.002Z</time></trkpt><trkpt lat="43.301799014414534" lon="10.80877231563814"><ele>109.0</ele><time>2026-04-18T13:13:07.002Z</time></trkpt><trkpt lat="43.30172751172184" lon="10.808693630077398"><ele>109.0</ele><time>2026-04-18T13:13:08.002Z</time></trkpt><trkpt lat="43.301651893112" lon="10.808613248280825"><ele>109.0</ele><time>2026-04-18T13:13:09.002Z</time></trkpt><trkpt lat="43.30157397308123" lon="10.808530420103564"><ele>108.33333333333334</ele><time>2026-04-18T13:13:10.002Z</time></trkpt><trkpt lat="43.301495690311114" lon="10.80844720634774"><ele>107.66666666666667</ele><time>2026-04-18T13:13:11.002Z</time></trkpt><trkpt lat="43.301413264478484" lon="10.808386554582823"><ele>107.0</ele><time>2026-04-18T13:13:12.002Z</time></trkpt><trkpt lat="43.30134786767442" lon="10.80831543708459"><ele>106.33333333333334</ele><time>2026-04-18T13:13:13.002Z</time></trkpt><trkpt lat="43.30128127451118" lon="10.808269369901959"><ele>105.66666666666667</ele><time>2026-04-18T13:13:14.002Z</time></trkpt><trkpt lat="43.30121571802244" lon="10.808231507515021"><ele>105.0</ele><time>2026-04-18T13:13:15.002Z</time></trkpt><trkpt lat="43.301149438182364" lon="10.808277077914221"><ele>106.33333333333333</ele><time>2026-04-18T13:13:16.002Z</time></trkpt><trkpt lat="43.301128968856155" lon="10.80836105928179"><ele>107.66666666666666</ele><time>2026-04-18T13:13:17.002Z</time></trkpt><trkpt lat="43.30114927997459" lon="10.808444196932017"><ele>109.0</ele><time>2026-04-18T13:13:18.002Z</time></trkpt><trkpt lat="43.30117967206592" lon="10.808590447416544"><ele>110.33333333333333</ele><time>2026-04-18T13:13:20.002Z</time></trkpt><trkpt lat="43.30123272425344" lon="10.80875597798922"><ele>111.66666666666666</ele><time>2026-04-18T13:13:22.002Z</time></trkpt><trkpt lat="43.30122779060594" lon="10.808860843901194"><ele>113.0</ele><time>2026-04-18T13:13:23.002Z</time></trkpt><trkpt lat="43.301206582106836" lon="10.80895328906861"><ele>113.66666666666666</ele><time>2026-04-18T13:13:24.002Z</time></trkpt><trkpt lat="43.30117081375055" lon="10.809036327656457"><ele>114.33333333333333</ele><time>2026-04-18T13:13:25.002Z</time></trkpt><trkpt lat="43.30111392466178" lon="10.809093913881552"><ele>115.0</ele><time>2026-04-18T13:13:26.002Z</time></trkpt><trkpt lat="43.301049798752665" lon="10.80915737748994"><ele>115.66666666666666</ele><time>2026-04-18T13:13:27.002Z</time></trkpt><trkpt lat="43.30097614361692" lon="10.809222596390775"><ele>116.33333333333333</ele><time>2026-04-18T13:13:28.002Z</time></trkpt><trkpt lat="43.30090335737501" lon="10.8092927121903"><ele>117.0</ele><time>2026-04-18T13:13:29.002Z</time></trkpt><trkpt lat="43.30083105311442" lon="10.809371945808717"><ele>117.0</ele><time>2026-04-18T13:13:30.002Z</time></trkpt><trkpt lat="43.30076294686981" lon="10.809452715094565"><ele>116.99999999999999</ele><time>2026-04-18T13:13:31.002Z</time></trkpt><trkpt lat="43.30069728756007" lon="10.809535600579522"><ele>116.99999999999999</ele><time>2026-04-18T13:13:32.002Z</time></trkpt><trkpt lat="43.30063263184213" lon="10.809623411888133"><ele>117.0</ele><time>2026-04-18T13:13:33.002Z</time></trkpt><trkpt lat="43.3005696306949" lon="10.809717862162755"><ele>117.0</ele><time>2026-04-18T13:13:34.002Z</time></trkpt><trkpt lat="43.30051490892139" lon="10.80981640341137"><ele>119.66666666666667</ele><time>2026-04-18T13:13:35.003Z</time></trkpt><trkpt lat="43.30049264265123" lon="10.809929339763213"><ele>122.33333333333334</ele><time>2026-04-18T13:13:36.003Z</time></trkpt><trkpt lat="43.3004694309853" lon="10.810030138982516"><ele>125.0</ele><time>2026-04-18T13:13:37.003Z</time></trkpt><trkpt lat="43.30044123547883" lon="10.810129775218657"><ele>127.66666666666667</ele><time>2026-04-18T13:13:38.003Z</time></trkpt><trkpt lat="43.30042860362805" lon="10.810238787655333"><ele>130.33333333333334</ele><time>2026-04-18T13:13:39.003Z</time></trkpt><trkpt lat="43.300426276255486" lon="10.810349391693773"><ele>133.0</ele><time>2026-04-18T13:13:40.003Z</time></trkpt><trkpt lat="43.30044088677769" lon="10.810457763416093"><ele>133.4</ele><time>2026-04-18T13:13:41.002Z</time></trkpt><trkpt lat="43.30042811862477" lon="10.810563876797117"><ele>133.8</ele><time>2026-04-18T13:13:42.002Z</time></trkpt><trkpt lat="43.3004184612121" lon="10.810655967492075"><ele>134.2</ele><time>2026-04-18T13:13:43.002Z</time></trkpt><trkpt lat="43.300335426208775" lon="10.810755315776442"><ele>134.6</ele><time>2026-04-18T13:13:45.002Z</time></trkpt><trkpt lat="43.300246209703296" lon="10.810713768133608"><ele>135.0</ele><time>2026-04-18T13:13:47.002Z</time></trkpt><trkpt lat="43.30015797158344" lon="10.810612098342352"><ele>135.0</ele><time>2026-04-18T13:13:49.002Z</time></trkpt><trkpt lat="43.300118239715005" lon="10.810532289108735"><ele>135.0</ele><time>2026-04-18T13:13:50.002Z</time></trkpt><trkpt lat="43.30008056919458" lon="10.810445695715446"><ele>135.0</ele><time>2026-04-18T13:13:51.002Z</time></trkpt><trkpt lat="43.300040747457814" lon="10.810346342491531"><ele>135.0</ele><time>2026-04-18T13:13:52.002Z</time></trkpt><trkpt lat="43.30001912794545" lon="10.810232840940472"><ele>135.0</ele><time>2026-04-18T13:13:53.002Z</time></trkpt><trkpt lat="43.299976654502565" lon="10.810116504004883"><ele>135.0</ele><time>2026-04-18T13:13:54.002Z</time></trkpt><trkpt lat="43.29991582275292" lon="10.81001621594281"><ele>134.6</ele><time>2026-04-18T13:13:55.002Z</time></trkpt><trkpt lat="43.29983938350601" lon="10.80993340012987"><ele>134.2</ele><time>2026-04-18T13:13:56.002Z</time></trkpt><trkpt lat="43.299803014163366" lon="10.809805594072245"><ele>133.8</ele><time>2026-04-18T13:13:57.002Z</time></trkpt><trkpt lat="43.29976222666693" lon="10.80967917839041"><ele>133.4</ele><time>2026-04-18T13:13:58.002Z</time></trkpt><trkpt lat="43.29971456035363" lon="10.80957215853349"><ele>133.0</ele><time>2026-04-18T13:13:59.002Z</time></trkpt><trkpt lat="43.29967837284679" lon="10.809473726403986"><ele>133.5</ele><time>2026-04-18T13:14:00.002Z</time></trkpt><trkpt lat="43.29964344487185" lon="10.809373384208511"><ele>134.0</ele><time>2026-04-18T13:14:01.002Z</time></trkpt><trkpt lat="43.299577000021166" lon="10.809304213749563"><ele>134.5</ele><time>2026-04-18T13:14:02.002Z</time></trkpt><trkpt lat="43.29949527669987" lon="10.809268845789115"><ele>135.0</ele><time>2026-04-18T13:14:03.002Z</time></trkpt><trkpt lat="43.29940686834493" lon="10.809279790169503"><ele>135.5</ele><time>2026-04-18T13:14:04.002Z</time></trkpt><trkpt lat="43.29932050826378" lon="10.809307785563167"><ele>136.0</ele><time>2026-04-18T13:14:05.001Z</time></trkpt><trkpt lat="43.29922937557695" lon="10.80933917469615"><ele>137.2</ele><time>2026-04-18T13:14:06.001Z</time></trkpt><trkpt lat="43.29913909388971" lon="10.809370270746246"><ele>138.39999999999998</ele><time>2026-04-18T13:14:07.001Z</time></trkpt><trkpt lat="43.29904431095176" lon="10.809402917187256"><ele>139.6</ele><time>2026-04-18T13:14:08.001Z</time></trkpt><trkpt lat="43.29894427370914" lon="10.809437815099328"><ele>140.79999999999998</ele><time>2026-04-18T13:14:09.001Z</time></trkpt><trkpt lat="43.298838310971924" lon="10.809478138831802"><ele>142.0</ele><time>2026-04-18T13:14:10.001Z</time></trkpt><trkpt lat="43.29872688174034" lon="10.809521125176387"><ele>142.25</ele><time>2026-04-18T13:14:11.001Z</time></trkpt><trkpt lat="43.29861051818515" lon="10.809562514997708"><ele>142.5</ele><time>2026-04-18T13:14:12.001Z</time></trkpt><trkpt lat="43.29849350481478" lon="10.809607957217446"><ele>142.75</ele><time>2026-04-18T13:14:13.001Z</time></trkpt><trkpt lat="43.29837648284157" lon="10.809659305318117"><ele>143.0</ele><time>2026-04-18T13:14:14.001Z</time></trkpt><trkpt lat="43.298259562045786" lon="10.809714166409261"><ele>143.0</ele><time>2026-04-18T13:14:15.001Z</time></trkpt><trkpt lat="43.298138556642165" lon="10.809776508436933"><ele>143.0</ele><time>2026-04-18T13:14:16.001Z</time></trkpt><trkpt lat="43.29801477219897" lon="10.809840392472001"><ele>143.0</ele><time>2026-04-18T13:14:17.001Z</time></trkpt><trkpt lat="43.2978872830054" lon="10.809909576118056"><ele>143.0</ele><time>2026-04-18T13:14:18.001Z</time></trkpt><trkpt lat="43.297759486840796" lon="10.809981709838038"><ele>142.75</ele><time>2026-04-18T13:14:19.001Z</time></trkpt><trkpt lat="43.29762813918853" lon="10.810051547761292"><ele>142.5</ele><time>2026-04-18T13:14:20.001Z</time></trkpt><trkpt lat="43.29749571208717" lon="10.810121252528166"><ele>142.25</ele><time>2026-04-18T13:14:21.001Z</time></trkpt><trkpt lat="43.2973666620527" lon="10.810189119301054"><ele>142.0</ele><time>2026-04-18T13:14:22.001Z</time></trkpt><trkpt lat="43.297238442197326" lon="10.810254079221714"><ele>143.75</ele><time>2026-04-18T13:14:23.001Z</time></trkpt><trkpt lat="43.297110242553956" lon="10.810319378394952"><ele>145.5</ele><time>2026-04-18T13:14:24.001Z</time></trkpt><trkpt lat="43.296985719582246" lon="10.810386604947164"><ele>147.25</ele><time>2026-04-18T13:14:25.001Z</time></trkpt><trkpt lat="43.296862503991974" lon="10.810453125670872"><ele>149.0</ele><time>2026-04-18T13:14:26.001Z</time></trkpt><trkpt lat="43.29674011350613" lon="10.810519200941933"><ele>149.0</ele><time>2026-04-18T13:14:27.001Z</time></trkpt><trkpt lat="43.296618973544454" lon="10.810584073270556"><ele>149.0</ele><time>2026-04-18T13:14:28.001Z</time></trkpt><trkpt lat="43.296497021058165" lon="10.810649322295863"><ele>149.0</ele><time>2026-04-18T13:14:29.001Z</time></trkpt><trkpt lat="43.29637500753277" lon="10.810714603989275"><ele>149.0</ele><time>2026-04-18T13:14:30.001Z</time></trkpt><trkpt lat="43.29625207415301" lon="10.81078021816199"><ele>149.0</ele><time>2026-04-18T13:14:31.001Z</time></trkpt><trkpt lat="43.29612938593455" lon="10.810844772583936"><ele>149.0</ele><time>2026-04-18T13:14:32.001Z</time></trkpt><trkpt lat="43.29600543255055" lon="10.810904147501306"><ele>149.0</ele><time>2026-04-18T13:14:33.001Z</time></trkpt><trkpt lat="43.295878150459295" lon="10.810952490319709"><ele>149.0</ele><time>2026-04-18T13:14:34.001Z</time></trkpt><trkpt lat="43.295748423275114" lon="10.810976595686764"><ele>149.0</ele><time>2026-04-18T13:14:35.001Z</time></trkpt><trkpt lat="43.295614656417534" lon="10.810979926453982"><ele>149.0</ele><time>2026-04-18T13:14:36.001Z</time></trkpt><trkpt lat="43.29547660972332" lon="10.810972355242269"><ele>149.0</ele><time>2026-04-18T13:14:37.001Z</time></trkpt><trkpt lat="43.295338733918264" lon="10.81096132631346"><ele>149.0</ele><time>2026-04-18T13:14:38.001Z</time></trkpt><trkpt lat="43.295199022616025" lon="10.810948067586382"><ele>149.5</ele><time>2026-04-18T13:14:39.001Z</time></trkpt><trkpt lat="43.29505804091753" lon="10.810940691790963"><ele>150.0</ele><time>2026-04-18T13:14:40.001Z</time></trkpt><trkpt lat="43.29492020218386" lon="10.8109308530473"><ele>150.5</ele><time>2026-04-18T13:14:41.001Z</time></trkpt><trkpt lat="43.294782878079715" lon="10.810918334803423"><ele>151.0</ele><time>2026-04-18T13:14:42.001Z</time></trkpt><trkpt lat="43.294646671851275" lon="10.810902365374087"><ele>151.0</ele><time>2026-04-18T13:14:43.001Z</time></trkpt><trkpt lat="43.294512819574756" lon="10.810887035185413"><ele>151.0</ele><time>2026-04-18T13:14:44.001Z</time></trkpt><trkpt lat="43.294385229279406" lon="10.810877708356301"><ele>151.0</ele><time>2026-04-18T13:14:45.001Z</time></trkpt><trkpt lat="43.294259873116644" lon="10.810891443488401"><ele>151.0</ele><time>2026-04-18T13:14:46.001Z</time></trkpt><trkpt lat="43.294144417971474" lon="10.810933767870646"><ele>150.4</ele><time>2026-04-18T13:14:47.001Z</time></trkpt><trkpt lat="43.29404891414618" lon="10.811027440996634"><ele>149.8</ele><time>2026-04-18T13:14:48.001Z</time></trkpt><trkpt lat="43.29395374292336" lon="10.81110513369248"><ele>149.20000000000002</ele><time>2026-04-18T13:14:49.001Z</time></trkpt><trkpt lat="43.293878112332976" lon="10.811200317951611"><ele>148.6</ele><time>2026-04-18T13:14:50.001Z</time></trkpt><trkpt lat="43.293797185869856" lon="10.811273548915628"><ele>148.0</ele><time>2026-04-18T13:14:51.001Z</time></trkpt><trkpt lat="43.29370905333491" lon="10.81130652495891"><ele>149.83333333333334</ele><time>2026-04-18T13:14:52.001Z</time></trkpt><trkpt lat="43.29362631070927" lon="10.811278806023717"><ele>151.66666666666669</ele><time>2026-04-18T13:14:53.001Z</time></trkpt><trkpt lat="43.293556189937426" lon="10.811225112360347"><ele>153.5</ele><time>2026-04-18T13:14:54.001Z</time></trkpt><trkpt lat="43.29348451307657" lon="10.811171704124085"><ele>155.33333333333334</ele><time>2026-04-18T13:14:55.001Z</time></trkpt><trkpt lat="43.293411501146046" lon="10.811110358485351"><ele>157.16666666666666</ele><time>2026-04-18T13:14:56.001Z</time></trkpt><trkpt lat="43.293328318333735" lon="10.81105695578681"><ele>159.0</ele><time>2026-04-18T13:14:57.001Z</time></trkpt><trkpt lat="43.29324313769115" lon="10.811014340220353"><ele>159.0</ele><time>2026-04-18T13:14:58.001Z</time></trkpt><trkpt lat="43.29315517503979" lon="10.81098141794088"><ele>159.0</ele><time>2026-04-18T13:14:59.001Z</time></trkpt><trkpt lat="43.293068028131906" lon="10.81094944482146"><ele>159.0</ele><time>2026-04-18T13:15:00.001Z</time></trkpt><trkpt lat="43.29298150570771" lon="10.810917700885067"><ele>159.0</ele><time>2026-04-18T13:15:01.001Z</time></trkpt><trkpt lat="43.29289653637703" lon="10.810884566737762"><ele>159.0</ele><time>2026-04-18T13:15:02.001Z</time></trkpt><trkpt lat="43.29281204650463" lon="10.810846698759608"><ele>159.0</ele><time>2026-04-18T13:15:03.001Z</time></trkpt><trkpt lat="43.29272603580513" lon="10.810808286581354"><ele>161.2</ele><time>2026-04-18T13:15:04.001Z</time></trkpt><trkpt lat="43.29263953566496" lon="10.810776583767488"><ele>163.4</ele><time>2026-04-18T13:15:05.001Z</time></trkpt><trkpt lat="43.29255196791724" lon="10.810752130954253"><ele>165.6</ele><time>2026-04-18T13:15:06.001Z</time></trkpt><trkpt lat="43.29246201490971" lon="10.810759552578759"><ele>167.8</ele><time>2026-04-18T13:15:07.001Z</time></trkpt><trkpt lat="43.292372533976746" lon="10.81073080383362"><ele>170.0</ele><time>2026-04-18T13:15:08.001Z</time></trkpt><trkpt lat="43.29227954561224" lon="10.810729670371503"><ele>172.0</ele><time>2026-04-18T13:15:09.001Z</time></trkpt><trkpt lat="43.29218566083963" lon="10.810729304382377"><ele>174.0</ele><time>2026-04-18T13:15:10.001Z</time></trkpt><trkpt lat="43.29209018452252" lon="10.810729304384553"><ele>176.0</ele><time>2026-04-18T13:15:11.001Z</time></trkpt><trkpt lat="43.2919939330751" lon="10.810729304385148"><ele>178.0</ele><time>2026-04-18T13:15:12.001Z</time></trkpt><trkpt lat="43.291904176453265" lon="10.81072930438684"><ele>180.0</ele><time>2026-04-18T13:15:13.001Z</time></trkpt><trkpt lat="43.29182526044024" lon="10.810719588320469"><ele>180.0</ele><time>2026-04-18T13:15:14.001Z</time></trkpt><trkpt lat="43.291754283609805" lon="10.810690013358519"><ele>180.0</ele><time>2026-04-18T13:15:15.001Z</time></trkpt><trkpt lat="43.29168808911187" lon="10.810648739663465"><ele>180.0</ele><time>2026-04-18T13:15:16.001Z</time></trkpt><trkpt lat="43.29162898587767" lon="10.810593247919654"><ele>180.0</ele><time>2026-04-18T13:15:17.001Z</time></trkpt><trkpt lat="43.29157622875074" lon="10.810524525009734"><ele>180.0</ele><time>2026-04-18T13:15:18.001Z</time></trkpt><trkpt lat="43.29153170357046" lon="10.810448713137214"><ele>180.0</ele><time>2026-04-18T13:15:19.001Z</time></trkpt><trkpt lat="43.291486945983344" lon="10.810362617238443"><ele>180.0</ele><time>2026-04-18T13:15:20.001Z</time></trkpt><trkpt lat="43.291439947312696" lon="10.810266508610347"><ele>181.66666666666666</ele><time>2026-04-18T13:15:21.001Z</time></trkpt><trkpt lat="43.29139281704335" lon="10.810168445570936"><ele>183.33333333333334</ele><time>2026-04-18T13:15:22.001Z</time></trkpt><trkpt lat="43.29134500717604" lon="10.810068968286108"><ele>185.0</ele><time>2026-04-18T13:15:23.001Z</time></trkpt><trkpt lat="43.29128724444119" lon="10.809967881306777"><ele>186.66666666666669</ele><time>2026-04-18T13:15:24.001Z</time></trkpt><trkpt lat="43.29122309731229" lon="10.809880491276319"><ele>188.33333333333334</ele><time>2026-04-18T13:15:25.001Z</time></trkpt><trkpt lat="43.29116780901393" lon="10.809805712367542"><ele>190.0</ele><time>2026-04-18T13:15:26.001Z</time></trkpt><trkpt lat="43.29112605438877" lon="10.809640065742926"><ele>190.0</ele><time>2026-04-18T13:15:28.001Z</time></trkpt><trkpt lat="43.29110940264015" lon="10.80954719001635"><ele>190.0</ele><time>2026-04-18T13:15:29.001Z</time></trkpt><trkpt lat="43.291095167361945" lon="10.809453010746594"><ele>190.0</ele><time>2026-04-18T13:15:30.001Z</time></trkpt><trkpt lat="43.29108138205391" lon="10.809354638247667"><ele>190.0</ele><time>2026-04-18T13:15:31.001Z</time></trkpt><trkpt lat="43.291068220003424" lon="10.809253093014048"><ele>190.0</ele><time>2026-04-18T13:15:32.001Z</time></trkpt><trkpt lat="43.29106366336188" lon="10.809153315727091"><ele>190.0</ele><time>2026-04-18T13:15:33.001Z</time></trkpt><trkpt lat="43.29107927841685" lon="10.809056808781389"><ele>190.0</ele><time>2026-04-18T13:15:34.001Z</time></trkpt><trkpt lat="43.29110452669251" lon="10.808955490918002"><ele>190.16666666666669</ele><time>2026-04-18T13:15:35.001Z</time></trkpt><trkpt lat="43.29112916795717" lon="10.808851953117827"><ele>190.33333333333334</ele><time>2026-04-18T13:15:36.001Z</time></trkpt><trkpt lat="43.29115603471978" lon="10.808751291103478"><ele>190.5</ele><time>2026-04-18T13:15:37.001Z</time></trkpt><trkpt lat="43.29118745727341" lon="10.808652954627266"><ele>190.66666666666666</ele><time>2026-04-18T13:15:38.001Z</time></trkpt><trkpt lat="43.291234537079916" lon="10.808570229824069"><ele>190.83333333333331</ele><time>2026-04-18T13:15:39.001Z</time></trkpt><trkpt lat="43.291281476595906" lon="10.808485954322592"><ele>191.0</ele><time>2026-04-18T13:15:40.001Z</time></trkpt><trkpt lat="43.29133342068426" lon="10.808417877252369"><ele>191.71428571428572</ele><time>2026-04-18T13:15:41.001Z</time></trkpt><trkpt lat="43.29135551913679" lon="10.808330912330067"><ele>192.42857142857142</ele><time>2026-04-18T13:15:42.001Z</time></trkpt><trkpt lat="43.291356099525615" lon="10.808239916401845"><ele>193.14285714285714</ele><time>2026-04-18T13:15:43.001Z</time></trkpt><trkpt lat="43.29133883127832" lon="10.808149084040346"><ele>193.85714285714286</ele><time>2026-04-18T13:15:44.002Z</time></trkpt><trkpt lat="43.29131084720732" lon="10.808060278125495"><ele>194.57142857142856</ele><time>2026-04-18T13:15:45.002Z</time></trkpt><trkpt lat="43.2912840163158" lon="10.807967755753545"><ele>195.28571428571428</ele><time>2026-04-18T13:15:46.002Z</time></trkpt><trkpt lat="43.29125777531359" lon="10.807867220535758"><ele>196.0</ele><time>2026-04-18T13:15:47.002Z</time></trkpt><trkpt lat="43.2912343958038" lon="10.807759188147218"><ele>196.66666666666666</ele><time>2026-04-18T13:15:48.001Z</time></trkpt><trkpt lat="43.29123157927251" lon="10.807637229167172"><ele>197.33333333333331</ele><time>2026-04-18T13:15:49.001Z</time></trkpt><trkpt lat="43.29121357341094" lon="10.807515796729804"><ele>198.0</ele><time>2026-04-18T13:15:50.001Z</time></trkpt><trkpt lat="43.291195528335734" lon="10.807394099688315"><ele>198.66666666666669</ele><time>2026-04-18T13:15:51.001Z</time></trkpt><trkpt lat="43.29117685722845" lon="10.807274306465157"><ele>199.33333333333334</ele><time>2026-04-18T13:15:52.001Z</time></trkpt><trkpt lat="43.29114165557095" lon="10.807163335317874"><ele>200.0</ele><time>2026-04-18T13:15:53.001Z</time></trkpt><trkpt lat="43.29112386013382" lon="10.807055814401469"><ele>200.00000000000003</ele><time>2026-04-18T13:15:54.001Z</time></trkpt><trkpt lat="43.29110338027778" lon="10.80694896668539"><ele>200.0</ele><time>2026-04-18T13:15:55.001Z</time></trkpt><trkpt lat="43.291076521565664" lon="10.806844993368715"><ele>200.0</ele><time>2026-04-18T13:15:56.001Z</time></trkpt><trkpt lat="43.29103956885093" lon="10.80674565157434"><ele>200.0</ele><time>2026-04-18T13:15:57.001Z</time></trkpt><trkpt lat="43.29099064037885" lon="10.806650709439243"><ele>200.00000000000003</ele><time>2026-04-18T13:15:58.001Z</time></trkpt><trkpt lat="43.29093801684889" lon="10.806570343084266"><ele>200.0</ele><time>2026-04-18T13:15:59.001Z</time></trkpt><trkpt lat="43.29088294414016" lon="10.806506455272217"><ele>200.00000000000003</ele><time>2026-04-18T13:16:00.001Z</time></trkpt><trkpt lat="43.29082645553584" lon="10.806465700816894"><ele>200.0</ele><time>2026-04-18T13:16:01.001Z</time></trkpt><trkpt lat="43.290735338264724" lon="10.806450391588879"><ele>200.0</ele><time>2026-04-18T13:16:03.001Z</time></trkpt><trkpt lat="43.29068084178444" lon="10.806500940416262"><ele>200.0</ele><time>2026-04-18T13:16:17.001Z</time></trkpt><trkpt lat="43.290654948844704" lon="10.806599047809108"><ele>200.00000000000003</ele><time>2026-04-18T13:16:21.001Z</time></trkpt><trkpt lat="43.29065711570505" lon="10.806718862285566"><ele>200.0</ele><time>2026-04-18T13:16:23.001Z</time></trkpt><trkpt lat="43.29067267416754" lon="10.80688472053244"><ele>200.00000000000003</ele><time>2026-04-18T13:16:25.001Z</time></trkpt><trkpt lat="43.29068214953764" lon="10.806983313613935"><ele>200.0</ele><time>2026-04-18T13:16:26.001Z</time></trkpt><trkpt lat="43.29069087579741" lon="10.807089463410783"><ele>200.0</ele><time>2026-04-18T13:16:27.001Z</time></trkpt><trkpt lat="43.290665235194226" lon="10.807195560573403"><ele>200.0</ele><time>2026-04-18T13:16:28.001Z</time></trkpt><trkpt lat="43.29064750100168" lon="10.807305845310452"><ele>200.00000000000003</ele><time>2026-04-18T13:16:29.001Z</time></trkpt><trkpt lat="43.290628600406386" lon="10.807420080284391"><ele>200.0</ele><time>2026-04-18T13:16:30.001Z</time></trkpt><trkpt lat="43.2906109093424" lon="10.80753455439191"><ele>200.00000000000003</ele><time>2026-04-18T13:16:31.001Z</time></trkpt><trkpt lat="43.290593348954175" lon="10.80764818342929"><ele>200.0</ele><time>2026-04-18T13:16:32.001Z</time></trkpt><trkpt lat="43.29057276326725" lon="10.807757927655436"><ele>200.0</ele><time>2026-04-18T13:16:33.001Z</time></trkpt><trkpt lat="43.29054895614286" lon="10.807866528290527"><ele>200.0</ele><time>2026-04-18T13:16:34.001Z</time></trkpt><trkpt lat="43.29051997249529" lon="10.807971273131034"><ele>200.00000000000003</ele><time>2026-04-18T13:16:35.001Z</time></trkpt><trkpt lat="43.29047893012881" lon="10.808067471831626"><ele>200.0</ele><time>2026-04-18T13:16:36.001Z</time></trkpt><trkpt lat="43.29042941170821" lon="10.808157379359455"><ele>202.16666666666669</ele><time>2026-04-18T13:16:37.001Z</time></trkpt><trkpt lat="43.2903747868057" lon="10.808241450980134"><ele>204.33333333333334</ele><time>2026-04-18T13:16:38.001Z</time></trkpt><trkpt lat="43.290313985352206" lon="10.808312069984167"><ele>206.5</ele><time>2026-04-18T13:16:39.001Z</time></trkpt><trkpt lat="43.29024809512547" lon="10.808387209176717"><ele>208.66666666666669</ele><time>2026-04-18T13:16:40.001Z</time></trkpt><trkpt lat="43.29018283196896" lon="10.808468289398585"><ele>210.83333333333334</ele><time>2026-04-18T13:16:41.001Z</time></trkpt><trkpt lat="43.29012573772534" lon="10.808566776651624"><ele>213.0</ele><time>2026-04-18T13:16:42.001Z</time></trkpt><trkpt lat="43.29008497112698" lon="10.808675074889477"><ele>213.0</ele><time>2026-04-18T13:16:43.001Z</time></trkpt><trkpt lat="43.290052400799944" lon="10.80878231108225"><ele>213.0</ele><time>2026-04-18T13:16:44.001Z</time></trkpt><trkpt lat="43.29003023456266" lon="10.8088965073531"><ele>213.0</ele><time>2026-04-18T13:16:45.001Z</time></trkpt><trkpt lat="43.29001038760367" lon="10.809011269845707"><ele>213.0</ele><time>2026-04-18T13:16:46.001Z</time></trkpt><trkpt lat="43.28999245524373" lon="10.809126064335576"><ele>213.0</ele><time>2026-04-18T13:16:47.001Z</time></trkpt><trkpt lat="43.289977222427176" lon="10.809236783937259"><ele>213.0</ele><time>2026-04-18T13:16:48.001Z</time></trkpt><trkpt lat="43.28996257808676" lon="10.809336532831827"><ele>212.42857142857142</ele><time>2026-04-18T13:16:49.001Z</time></trkpt><trkpt lat="43.289932515496275" lon="10.809413360782257"><ele>211.85714285714286</ele><time>2026-04-18T13:16:50.001Z</time></trkpt><trkpt lat="43.289888119640274" lon="10.809479945309555"><ele>211.28571428571428</ele><time>2026-04-18T13:16:51.001Z</time></trkpt><trkpt lat="43.28983027179629" lon="10.80951762506839"><ele>210.71428571428572</ele><time>2026-04-18T13:16:52.001Z</time></trkpt><trkpt lat="43.289765116373175" lon="10.809553362440536"><ele>210.14285714285714</ele><time>2026-04-18T13:16:53.001Z</time></trkpt><trkpt lat="43.28969674192563" lon="10.809585564818924"><ele>209.57142857142856</ele><time>2026-04-18T13:16:54.001Z</time></trkpt><trkpt lat="43.28962625564502" lon="10.809639551960258"><ele>209.0</ele><time>2026-04-18T13:16:55.001Z</time></trkpt><trkpt lat="43.289561539411615" lon="10.809723367103505"><ele>212.00000000000003</ele><time>2026-04-18T13:16:56.001Z</time></trkpt><trkpt lat="43.28951217662427" lon="10.809816288796828"><ele>215.0</ele><time>2026-04-18T13:16:57.001Z</time></trkpt><trkpt lat="43.28946092404571" lon="10.809908851876045"><ele>218.0</ele><time>2026-04-18T13:16:58.001Z</time></trkpt><trkpt lat="43.28940709679673" lon="10.810003982142494"><ele>221.0</ele><time>2026-04-18T13:16:59.001Z</time></trkpt><trkpt lat="43.28935500453005" lon="10.810104720641615"><ele>224.00000000000003</ele><time>2026-04-18T13:17:00.001Z</time></trkpt><trkpt lat="43.28931316653613" lon="10.810209378114653"><ele>227.0</ele><time>2026-04-18T13:17:01.001Z</time></trkpt><trkpt lat="43.28929366619477" lon="10.810322867375953"><ele>227.0</ele><time>2026-04-18T13:17:02.001Z</time></trkpt><trkpt lat="43.28933627130481" lon="10.81043276324206"><ele>227.00000000000003</ele><time>2026-04-18T13:17:03.001Z</time></trkpt><trkpt lat="43.289361735924295" lon="10.810523779443903"><ele>227.0</ele><time>2026-04-18T13:17:04.001Z</time></trkpt><trkpt lat="43.28938371582006" lon="10.81061202637662"><ele>227.0</ele><time>2026-04-18T13:17:05.001Z</time></trkpt><trkpt lat="43.28937566206505" lon="10.810705944652376"><ele>227.00000000000003</ele><time>2026-04-18T13:17:06.001Z</time></trkpt><trkpt lat="43.289365599633136" lon="10.810792210021432"><ele>227.0</ele><time>2026-04-18T13:17:07.001Z</time></trkpt><trkpt lat="43.28933998668308" lon="10.810879023985024"><ele>227.0</ele><time>2026-04-18T13:17:08.001Z</time></trkpt><trkpt lat="43.28930634622269" lon="10.810972257366542"><ele>226.83333333333334</ele><time>2026-04-18T13:17:09.001Z</time></trkpt><trkpt lat="43.28926803197455" lon="10.811074413316518"><ele>226.66666666666669</ele><time>2026-04-18T13:17:10.001Z</time></trkpt><trkpt lat="43.28922815130961" lon="10.811181285844198"><ele>226.5</ele><time>2026-04-18T13:17:11.001Z</time></trkpt><trkpt lat="43.289187527099266" lon="10.811291558650977"><ele>226.33333333333331</ele><time>2026-04-18T13:17:12.001Z</time></trkpt><trkpt lat="43.28914663813666" lon="10.811402549977533"><ele>226.16666666666666</ele><time>2026-04-18T13:17:13.001Z</time></trkpt><trkpt lat="43.2891077383419" lon="10.811508141840722"><ele>226.0</ele><time>2026-04-18T13:17:14.001Z</time></trkpt><trkpt lat="43.28907259881282" lon="10.81160352681806"><ele>225.99999999999997</ele><time>2026-04-18T13:17:15.001Z</time></trkpt><trkpt lat="43.289038951456725" lon="10.811684346110026"><ele>226.0</ele><time>2026-04-18T13:17:16.001Z</time></trkpt><trkpt lat="43.28895713161475" lon="10.811770914936531"><ele>226.0</ele><time>2026-04-18T13:17:18.001Z</time></trkpt><trkpt lat="43.288873487502066" lon="10.811737110116521"><ele>226.0</ele><time>2026-04-18T13:17:20.001Z</time></trkpt><trkpt lat="43.28886406103376" lon="10.811577213117733"><ele>225.99999999999997</ele><time>2026-04-18T13:17:22.001Z</time></trkpt><trkpt lat="43.28888713851457" lon="10.81149291005337"><ele>226.0</ele><time>2026-04-18T13:17:23.001Z</time></trkpt><trkpt lat="43.288905835903364" lon="10.811398161444995"><ele>225.99999999999997</ele><time>2026-04-18T13:17:24.001Z</time></trkpt><trkpt lat="43.288923524406826" lon="10.811293644929604"><ele>226.0</ele><time>2026-04-18T13:17:25.001Z</time></trkpt><trkpt lat="43.28893482609625" lon="10.811186661819018"><ele>226.0</ele><time>2026-04-18T13:17:26.001Z</time></trkpt><trkpt lat="43.28892918428614" lon="10.811075569672623"><ele>226.0</ele><time>2026-04-18T13:17:27.001Z</time></trkpt><trkpt lat="43.28890721110998" lon="10.810959792775622"><ele>225.99999999999997</ele><time>2026-04-18T13:17:28.001Z</time></trkpt><trkpt lat="43.2888784026461" lon="10.81083827911524"><ele>226.0</ele><time>2026-04-18T13:17:29.001Z</time></trkpt><trkpt lat="43.28884461474996" lon="10.810708597490132"><ele>229.20000000000002</ele><time>2026-04-18T13:17:30.001Z</time></trkpt><trkpt lat="43.288812300483" lon="10.810575194664183"><ele>232.40000000000003</ele><time>2026-04-18T13:17:31.001Z</time></trkpt><trkpt lat="43.28877672423589" lon="10.810443775356575"><ele>235.6</ele><time>2026-04-18T13:17:32.001Z</time></trkpt><trkpt lat="43.28874365154595" lon="10.810312828066566"><ele>238.8</ele><time>2026-04-18T13:17:33.001Z</time></trkpt><trkpt lat="43.2887178250106" lon="10.810176128811054"><ele>242.0</ele><time>2026-04-18T13:17:34.001Z</time></trkpt><trkpt lat="43.288707028973754" lon="10.810034333881875"><ele>243.0</ele><time>2026-04-18T13:17:35.001Z</time></trkpt><trkpt lat="43.288733313069855" lon="10.809898168906829"><ele>244.0</ele><time>2026-04-18T13:17:36.001Z</time></trkpt><trkpt lat="43.2887540393031" lon="10.809763481741065"><ele>245.0</ele><time>2026-04-18T13:17:37.001Z</time></trkpt><trkpt lat="43.28875989451405" lon="10.80962697739216"><ele>246.0</ele><time>2026-04-18T13:17:38.001Z</time></trkpt><trkpt lat="43.288780310872724" lon="10.809497294888349"><ele>247.0</ele><time>2026-04-18T13:17:39.001Z</time></trkpt><trkpt lat="43.28879033798354" lon="10.809365532124875"><ele>247.71428571428572</ele><time>2026-04-18T13:17:40.001Z</time></trkpt><trkpt lat="43.288790187060115" lon="10.80924149027643"><ele>248.42857142857142</ele><time>2026-04-18T13:17:41.001Z</time></trkpt><trkpt lat="43.28877972317535" lon="10.80912911956104"><ele>249.14285714285714</ele><time>2026-04-18T13:17:42.001Z</time></trkpt><trkpt lat="43.2887471340736" lon="10.809036013068443"><ele>249.85714285714286</ele><time>2026-04-18T13:17:43.001Z</time></trkpt><trkpt lat="43.28869444495567" lon="10.808975810195498"><ele>250.57142857142856</ele><time>2026-04-18T13:17:44.001Z</time></trkpt><trkpt lat="43.28863061514849" lon="10.808963837290761"><ele>251.28571428571428</ele><time>2026-04-18T13:17:45.001Z</time></trkpt><trkpt lat="43.28857873709974" lon="10.809013003755004"><ele>252.0</ele><time>2026-04-18T13:17:46.001Z</time></trkpt><trkpt lat="43.288519688870444" lon="10.80915497229822"><ele>252.0</ele><time>2026-04-18T13:17:48.001Z</time></trkpt><trkpt lat="43.288495187606756" lon="10.809240515650808"><ele>252.0</ele><time>2026-04-18T13:17:49.001Z</time></trkpt><trkpt lat="43.28847106022044" lon="10.809337344282897"><ele>252.0</ele><time>2026-04-18T13:17:50.001Z</time></trkpt><trkpt lat="43.28844441499068" lon="10.809444971922932"><ele>252.0</ele><time>2026-04-18T13:17:51.001Z</time></trkpt><trkpt lat="43.28841534074103" lon="10.809562411178316"><ele>252.0</ele><time>2026-04-18T13:17:52.001Z</time></trkpt><trkpt lat="43.28838483172252" lon="10.809689014416826"><ele>252.0</ele><time>2026-04-18T13:17:53.001Z</time></trkpt><trkpt lat="43.28835482610091" lon="10.80982555375391"><ele>251.0</ele><time>2026-04-18T13:17:54.001Z</time></trkpt><trkpt lat="43.288326666004664" lon="10.809970269089227"><ele>250.0</ele><time>2026-04-18T13:17:55.001Z</time></trkpt><trkpt lat="43.28830678857045" lon="10.810122078461472"><ele>249.0</ele><time>2026-04-18T13:17:56.001Z</time></trkpt><trkpt lat="43.28829428581427" lon="10.810275997520282"><ele>248.0</ele><time>2026-04-18T13:17:57.001Z</time></trkpt><trkpt lat="43.28828506281533" lon="10.810431212704692"><ele>247.0</ele><time>2026-04-18T13:17:58.001Z</time></trkpt><trkpt lat="43.28827744717092" lon="10.81057755696658"><ele>246.0</ele><time>2026-04-18T13:17:59.001Z</time></trkpt><trkpt lat="43.288272601562056" lon="10.81071789227295"><ele>245.0</ele><time>2026-04-18T13:18:00.001Z</time></trkpt><trkpt lat="43.2882850074645" lon="10.810854572710735"><ele>244.0</ele><time>2026-04-18T13:18:01.001Z</time></trkpt><trkpt lat="43.2882407836611" lon="10.810978764964924"><ele>243.0</ele><time>2026-04-18T13:18:02.001Z</time></trkpt><trkpt lat="43.28819431952431" lon="10.811097166340328"><ele>242.0</ele><time>2026-04-18T13:18:03.001Z</time></trkpt><trkpt lat="43.28813670390435" lon="10.811209656560514"><ele>243.6</ele><time>2026-04-18T13:18:04.001Z</time></trkpt><trkpt lat="43.28806526148737" lon="10.81130656983068"><ele>245.2</ele><time>2026-04-18T13:18:05.001Z</time></trkpt><trkpt lat="43.2879821254729" lon="10.811390453611908"><ele>246.8</ele><time>2026-04-18T13:18:06.001Z</time></trkpt><trkpt lat="43.28789465018401" lon="10.811473734932635"><ele>248.4</ele><time>2026-04-18T13:18:07.001Z</time></trkpt><trkpt lat="43.28780343687122" lon="10.811551870445381"><ele>250.0</ele><time>2026-04-18T13:18:08.001Z</time></trkpt><trkpt lat="43.28772532456605" lon="10.811646459944374"><ele>250.0</ele><time>2026-04-18T13:18:09.001Z</time></trkpt><trkpt lat="43.287635954201136" lon="10.811705745278687"><ele>250.0</ele><time>2026-04-18T13:18:10.001Z</time></trkpt><trkpt lat="43.28753587175645" lon="10.811712854586728"><ele>250.0</ele><time>2026-04-18T13:18:11.001Z</time></trkpt><trkpt lat="43.28743859417521" lon="10.811738336563579"><ele>250.0</ele><time>2026-04-18T13:18:12.001Z</time></trkpt><trkpt lat="43.287340673546296" lon="10.811770171972059"><ele>250.0</ele><time>2026-04-18T13:18:13.001Z</time></trkpt><trkpt lat="43.287256915873535" lon="10.811845236567082"><ele>252.8</ele><time>2026-04-18T13:18:14.001Z</time></trkpt><trkpt lat="43.287168805654034" lon="10.811908965727671"><ele>255.6</ele><time>2026-04-18T13:18:15.001Z</time></trkpt><trkpt lat="43.28707797405786" lon="10.811965916807493"><ele>258.4</ele><time>2026-04-18T13:18:16.001Z</time></trkpt><trkpt lat="43.28700384971948" lon="10.812045664611867"><ele>261.2</ele><time>2026-04-18T13:18:17.001Z</time></trkpt><trkpt lat="43.28693936302132" lon="10.812139896087551"><ele>264.0</ele><time>2026-04-18T13:18:18.001Z</time></trkpt><trkpt lat="43.28688922486691" lon="10.812248595619321"><ele>264.0</ele><time>2026-04-18T13:18:19.001Z</time></trkpt><trkpt lat="43.286856181151066" lon="10.812371577573568"><ele>264.0</ele><time>2026-04-18T13:18:20.001Z</time></trkpt><trkpt lat="43.28685701027304" lon="10.812502922833565"><ele>264.0</ele><time>2026-04-18T13:18:21.001Z</time></trkpt><trkpt lat="43.28687301437811" lon="10.812628507356287"><ele>264.0</ele><time>2026-04-18T13:18:22.001Z</time></trkpt><trkpt lat="43.28690217454382" lon="10.812756210833356"><ele>264.0</ele><time>2026-04-18T13:18:23.001Z</time></trkpt><trkpt lat="43.286933511076256" lon="10.812882865933824"><ele>263.5</ele><time>2026-04-18T13:18:24.001Z</time></trkpt><trkpt lat="43.286965666539594" lon="10.813002608921588"><ele>263.0</ele><time>2026-04-18T13:18:25.001Z</time></trkpt><trkpt lat="43.28699504924996" lon="10.81310979813952"><ele>262.5</ele><time>2026-04-18T13:18:26.001Z</time></trkpt><trkpt lat="43.28702507022424" lon="10.813208941816422"><ele>262.0</ele><time>2026-04-18T13:18:27.001Z</time></trkpt><trkpt lat="43.28701098895475" lon="10.81331498025283"><ele>261.5</ele><time>2026-04-18T13:18:28.001Z</time></trkpt><trkpt lat="43.2869587055909" lon="10.813396457833635"><ele>261.0</ele><time>2026-04-18T13:18:29.001Z</time></trkpt><trkpt lat="43.28689744723566" lon="10.813466596298142"><ele>259.8</ele><time>2026-04-18T13:18:30.001Z</time></trkpt><trkpt lat="43.28683750272973" lon="10.813546168821633"><ele>258.6</ele><time>2026-04-18T13:18:31.001Z</time></trkpt><trkpt lat="43.286769509507984" lon="10.813627676812233"><ele>257.4</ele><time>2026-04-18T13:18:32.001Z</time></trkpt><trkpt lat="43.28669588295544" lon="10.813711890354885"><ele>256.2</ele><time>2026-04-18T13:18:33.001Z</time></trkpt><trkpt lat="43.28661553488534" lon="10.81379260585314"><ele>255.0</ele><time>2026-04-18T13:18:34.001Z</time></trkpt><trkpt lat="43.28652746544623" lon="10.813870785739903"><ele>255.0</ele><time>2026-04-18T13:18:35.001Z</time></trkpt><trkpt lat="43.28644246580301" lon="10.813945889298477"><ele>255.0</ele><time>2026-04-18T13:18:36Z</time></trkpt><trkpt lat="43.286359726347236" lon="10.814022043914646"><ele>255.0</ele><time>2026-04-18T13:18:37Z</time></trkpt><trkpt lat="43.286293332330544" lon="10.81413481259379"><ele>255.0</ele><time>2026-04-18T13:18:38Z</time></trkpt><trkpt lat="43.286256402596834" lon="10.814264071627482"><ele>255.0</ele><time>2026-04-18T13:18:39Z</time></trkpt><trkpt lat="43.2862245977759" lon="10.814381669463176"><ele>256.8333333333333</ele><time>2026-04-18T13:18:40Z</time></trkpt><trkpt lat="43.2861907092593" lon="10.814495291167162"><ele>258.6666666666667</ele><time>2026-04-18T13:18:41Z</time></trkpt><trkpt lat="43.286148329222996" lon="10.814593700448226"><ele>260.5</ele><time>2026-04-18T13:18:42Z</time></trkpt><trkpt lat="43.28609017277615" lon="10.814668707378303"><ele>262.33333333333337</ele><time>2026-04-18T13:18:43Z</time></trkpt><trkpt lat="43.28601553035937" lon="10.814714156190645"><ele>264.1666666666667</ele><time>2026-04-18T13:18:44Z</time></trkpt><trkpt lat="43.28593563060736" lon="10.814746052941222"><ele>266.0</ele><time>2026-04-18T13:18:45Z</time></trkpt><trkpt lat="43.28584885457031" lon="10.814773700545945"><ele>266.0</ele><time>2026-04-18T13:18:46Z</time></trkpt><trkpt lat="43.285756433603325" lon="10.814801372861861"><ele>266.0</ele><time>2026-04-18T13:18:47Z</time></trkpt><trkpt lat="43.285665965319346" lon="10.814828460460403"><ele>266.0</ele><time>2026-04-18T13:18:48Z</time></trkpt><trkpt lat="43.28556975928055" lon="10.814858596823191"><ele>266.0</ele><time>2026-04-18T13:18:49Z</time></trkpt><trkpt lat="43.285477323616995" lon="10.814903771321045"><ele>266.0</ele><time>2026-04-18T13:18:50Z</time></trkpt><trkpt lat="43.28538936456875" lon="10.814966597057516"><ele>267.2</ele><time>2026-04-18T13:18:51Z</time></trkpt><trkpt lat="43.28530515964576" lon="10.815054811231319"><ele>268.40000000000003</ele><time>2026-04-18T13:18:52Z</time></trkpt><trkpt lat="43.2852209034837" lon="10.815148244842993"><ele>269.6</ele><time>2026-04-18T13:18:53Z</time></trkpt><trkpt lat="43.285135182524655" lon="10.815244789298829"><ele>270.8</ele><time>2026-04-18T13:18:54Z</time></trkpt><trkpt lat="43.28505181590748" lon="10.81534299078289"><ele>272.0</ele><time>2026-04-18T13:18:55Z</time></trkpt><trkpt lat="43.28497232279153" lon="10.81543882376074"><ele>272.0</ele><time>2026-04-18T13:18:56Z</time></trkpt><trkpt lat="43.28489751954018" lon="10.815530840832235"><ele>272.0</ele><time>2026-04-18T13:18:57Z</time></trkpt><trkpt lat="43.28482902061041" lon="10.815615769389668"><ele>272.0</ele><time>2026-04-18T13:18:58Z</time></trkpt><trkpt lat="43.28476498276566" lon="10.815692793429971"><ele>272.0</ele><time>2026-04-18T13:18:59Z</time></trkpt><trkpt lat="43.28470549882981" lon="10.815756688542374"><ele>272.0</ele><time>2026-04-18T13:19:00Z</time></trkpt><trkpt lat="43.28465850529711" lon="10.815828348889358"><ele>272.0</ele><time>2026-04-18T13:19:01Z</time></trkpt><trkpt lat="43.28459744554588" lon="10.815853982444224"><ele>273.8</ele><time>2026-04-18T13:19:02Z</time></trkpt><trkpt lat="43.28449612185153" lon="10.815914227145136"><ele>275.6</ele><time>2026-04-18T13:19:04Z</time></trkpt><trkpt lat="43.28441159788459" lon="10.815918553785094"><ele>277.40000000000003</ele><time>2026-04-18T13:19:06Z</time></trkpt><trkpt lat="43.2843428486848" lon="10.815828225546372"><ele>279.2</ele><time>2026-04-18T13:19:08Z</time></trkpt><trkpt lat="43.2842556535347" lon="10.815703560654486"><ele>281.0</ele><time>2026-04-18T13:19:10Z</time></trkpt><trkpt lat="43.284195453377926" lon="10.815643133140322"><ele>281.0</ele><time>2026-04-18T13:19:11Z</time></trkpt><trkpt lat="43.2841432387407" lon="10.815565299737225"><ele>281.0</ele><time>2026-04-18T13:19:12Z</time></trkpt><trkpt lat="43.28409006100161" lon="10.8154820990975"><ele>281.0</ele><time>2026-04-18T13:19:13Z</time></trkpt><trkpt lat="43.284029939755776" lon="10.815402301693114"><ele>281.0</ele><time>2026-04-18T13:19:14Z</time></trkpt><trkpt lat="43.283968698046976" lon="10.815320574839333"><ele>281.0</ele><time>2026-04-18T13:19:15Z</time></trkpt><trkpt lat="43.283913414126374" lon="10.815223892753759"><ele>281.0</ele><time>2026-04-18T13:19:16Z</time></trkpt><trkpt lat="43.283829010302846" lon="10.815168608299858"><ele>280.6</ele><time>2026-04-18T13:19:17Z</time></trkpt><trkpt lat="43.283732179929174" lon="10.815150523198172"><ele>280.20000000000005</ele><time>2026-04-18T13:19:18Z</time></trkpt><trkpt lat="43.28363536537254" lon="10.815170586169808"><ele>279.79999999999995</ele><time>2026-04-18T13:19:19Z</time></trkpt><trkpt lat="43.28353974803475" lon="10.815203282402186"><ele>279.4</ele><time>2026-04-18T13:19:20Z</time></trkpt><trkpt lat="43.28345123219625" lon="10.815241530657913"><ele>279.0</ele><time>2026-04-18T13:19:21Z</time></trkpt><trkpt lat="43.283367336391144" lon="10.815274752684056"><ele>279.0</ele><time>2026-04-18T13:19:22Z</time></trkpt><trkpt lat="43.28329046154415" lon="10.815297261782547"><ele>279.0</ele><time>2026-04-18T13:19:23Z</time></trkpt><trkpt lat="43.28321809645002" lon="10.815313024173316"><ele>279.0</ele><time>2026-04-18T13:19:24Z</time></trkpt><trkpt lat="43.28317072126481" lon="10.815246886172746"><ele>279.0</ele><time>2026-04-18T13:19:25Z</time></trkpt><trkpt lat="43.28314978785372" lon="10.815111982522625"><ele>279.0</ele><time>2026-04-18T13:19:27Z</time></trkpt><trkpt lat="43.28321197843606" lon="10.8150772818669"><ele>279.0</ele><time>2026-04-18T13:19:28Z</time></trkpt><trkpt lat="43.283264043041996" lon="10.815028268959"><ele>281.1666666666667</ele><time>2026-04-18T13:19:29Z</time></trkpt><trkpt lat="43.28332229833768" lon="10.814968600655252"><ele>283.3333333333333</ele><time>2026-04-18T13:19:30Z</time></trkpt><trkpt lat="43.28337857429485" lon="10.814883839281507"><ele>285.5</ele><time>2026-04-18T13:19:31Z</time></trkpt><trkpt lat="43.28345086254241" lon="10.814810836307025"><ele>287.66666666666663</ele><time>2026-04-18T13:19:32Z</time></trkpt><trkpt lat="43.28353142538803" lon="10.814733757205929"><ele>289.8333333333333</ele><time>2026-04-18T13:19:33Z</time></trkpt><trkpt lat="43.28361616590744" lon="10.814650918544586"><ele>292.0</ele><time>2026-04-18T13:19:34Z</time></trkpt><trkpt lat="43.28370261680276" lon="10.814566230288241"><ele>292.0</ele><time>2026-04-18T13:19:35Z</time></trkpt><trkpt lat="43.283789024980244" lon="10.814481904294924"><ele>292.0</ele><time>2026-04-18T13:19:36Z</time></trkpt><trkpt lat="43.283885076705566" lon="10.814430306563537"><ele>292.0</ele><time>2026-04-18T13:19:37Z</time></trkpt><trkpt lat="43.28397637049904" lon="10.814374401112389"><ele>292.0</ele><time>2026-04-18T13:19:38Z</time></trkpt><trkpt lat="43.28405744965336" lon="10.814292809257097"><ele>292.0</ele><time>2026-04-18T13:19:39Z</time></trkpt><trkpt lat="43.28413423537922" lon="10.81422864146894"><ele>293.0</ele><time>2026-04-18T13:19:40Z</time></trkpt><trkpt lat="43.284199051417104" lon="10.814141370555811"><ele>294.0</ele><time>2026-04-18T13:19:41Z</time></trkpt><trkpt lat="43.284266599325704" lon="10.814042148139304"><ele>295.0</ele><time>2026-04-18T13:19:42Z</time></trkpt><trkpt lat="43.28431631220426" lon="10.813924406009642"><ele>296.0</ele><time>2026-04-18T13:19:43Z</time></trkpt><trkpt lat="43.28436056859549" lon="10.813812841396446"><ele>297.0</ele><time>2026-04-18T13:19:44Z</time></trkpt><trkpt lat="43.28439936653714" lon="10.81370481516147"><ele>297.0</ele><time>2026-04-18T13:19:45Z</time></trkpt><trkpt lat="43.28442504799476" lon="10.813583637325994"><ele>297.0</ele><time>2026-04-18T13:19:46Z</time></trkpt><trkpt lat="43.284413364669895" lon="10.81345266536943"><ele>297.0</ele><time>2026-04-18T13:19:47Z</time></trkpt><trkpt lat="43.284410176780646" lon="10.813325246824785"><ele>297.0</ele><time>2026-04-18T13:19:48Z</time></trkpt><trkpt lat="43.28440526205058" lon="10.813196584880838"><ele>297.0</ele><time>2026-04-18T13:19:49Z</time></trkpt><trkpt lat="43.284400089335975" lon="10.813068879353391"><ele>299.0</ele><time>2026-04-18T13:19:50Z</time></trkpt><trkpt lat="43.284391665606506" lon="10.81294147085566"><ele>301.0</ele><time>2026-04-18T13:19:51Z</time></trkpt><trkpt lat="43.28439363305982" lon="10.812818199752131"><ele>303.0</ele><time>2026-04-18T13:19:52Z</time></trkpt><trkpt lat="43.284411560346534" lon="10.812695575375379"><ele>305.0</ele><time>2026-04-18T13:19:53Z</time></trkpt><trkpt lat="43.284446395646164" lon="10.81258018031479"><ele>307.0</ele><time>2026-04-18T13:19:54Z</time></trkpt><trkpt lat="43.28448950781562" lon="10.812467967876742"><ele>310.6</ele><time>2026-04-18T13:19:55Z</time></trkpt><trkpt lat="43.28454006362506" lon="10.812354986144156"><ele>314.2</ele><time>2026-04-18T13:19:56Z</time></trkpt><trkpt lat="43.28458197389972" lon="10.812237471306549"><ele>317.8</ele><time>2026-04-18T13:19:57Z</time></trkpt><trkpt lat="43.28460385798616" lon="10.812114959502557"><ele>321.4</ele><time>2026-04-18T13:19:58Z</time></trkpt><trkpt lat="43.28461634596949" lon="10.811986412313262"><ele>325.0</ele><time>2026-04-18T13:19:59Z</time></trkpt><trkpt lat="43.28462191540874" lon="10.811852477800086"><ele>320.6</ele><time>2026-04-18T13:20:00Z</time></trkpt><trkpt lat="43.28463265973964" lon="10.811710577432784"><ele>316.2</ele><time>2026-04-18T13:20:01Z</time></trkpt><trkpt lat="43.28466528387041" lon="10.81157647539066"><ele>311.8</ele><time>2026-04-18T13:20:02Z</time></trkpt><trkpt lat="43.284697138609296" lon="10.811441148365123"><ele>307.4</ele><time>2026-04-18T13:20:03Z</time></trkpt><trkpt lat="43.28473075213944" lon="10.811305364643795"><ele>303.0</ele><time>2026-04-18T13:20:04Z</time></trkpt><trkpt lat="43.284763799954284" lon="10.811167584207196"><ele>303.0</ele><time>2026-04-18T13:20:05Z</time></trkpt><trkpt lat="43.28479194990082" lon="10.811027382910623"><ele>303.0</ele><time>2026-04-18T13:20:06Z</time></trkpt><trkpt lat="43.28483731028868" lon="10.810898500671321"><ele>303.0</ele><time>2026-04-18T13:20:07Z</time></trkpt><trkpt lat="43.284864588597024" lon="10.810766302139388"><ele>303.0</ele><time>2026-04-18T13:20:08Z</time></trkpt><trkpt lat="43.28492119650585" lon="10.81065524975102"><ele>303.0</ele><time>2026-04-18T13:20:09Z</time></trkpt><trkpt lat="43.284987778251796" lon="10.810551935834935"><ele>305.8</ele><time>2026-04-18T13:20:10Z</time></trkpt><trkpt lat="43.285051780180275" lon="10.81044861764754"><ele>308.6</ele><time>2026-04-18T13:20:11Z</time></trkpt><trkpt lat="43.28509934115614" lon="10.810335270741566"><ele>311.4</ele><time>2026-04-18T13:20:12Z</time></trkpt><trkpt lat="43.28513039540194" lon="10.81020882028553"><ele>314.2</ele><time>2026-04-18T13:20:13Z</time></trkpt><trkpt lat="43.285157644705585" lon="10.810078850264485"><ele>317.0</ele><time>2026-04-18T13:20:14Z</time></trkpt><trkpt lat="43.285175256465166" lon="10.809942484641383"><ele>320.0</ele><time>2026-04-18T13:20:15Z</time></trkpt><trkpt lat="43.285189953589075" lon="10.809809127583762"><ele>323.0</ele><time>2026-04-18T13:20:16Z</time></trkpt><trkpt lat="43.28518968520073" lon="10.809673724036761"><ele>326.0</ele><time>2026-04-18T13:20:17Z</time></trkpt><trkpt lat="43.28517357456905" lon="10.809536418288996"><ele>329.0</ele><time>2026-04-18T13:20:18Z</time></trkpt><trkpt lat="43.28514779390643" lon="10.80939987091651"><ele>332.0</ele><time>2026-04-18T13:20:19Z</time></trkpt><trkpt lat="43.28511724228463" lon="10.809269758300792"><ele>332.0</ele><time>2026-04-18T13:20:20Z</time></trkpt><trkpt lat="43.28508411534339" lon="10.80914011364961"><ele>332.0</ele><time>2026-04-18T13:20:21Z</time></trkpt><trkpt lat="43.285050270712304" lon="10.809010031830672"><ele>332.0</ele><time>2026-04-18T13:20:22Z</time></trkpt><trkpt lat="43.285008351206194" lon="10.808885395437331"><ele>332.0</ele><time>2026-04-18T13:20:23Z</time></trkpt><trkpt lat="43.284958582954026" lon="10.808767715285153"><ele>332.0</ele><time>2026-04-18T13:20:24Z</time></trkpt><trkpt lat="43.284898714543644" lon="10.808658977345198"><ele>332.0</ele><time>2026-04-18T13:20:25Z</time></trkpt><trkpt lat="43.28484418976054" lon="10.808551903909539"><ele>332.0</ele><time>2026-04-18T13:20:26Z</time></trkpt><trkpt lat="43.2847912233332" lon="10.808451699955652"><ele>332.0</ele><time>2026-04-18T13:20:27Z</time></trkpt><trkpt lat="43.284753632818024" lon="10.808349071776778"><ele>332.0</ele><time>2026-04-18T13:20:28Z</time></trkpt><trkpt lat="43.28473602481248" lon="10.80823241125293"><ele>332.0</ele><time>2026-04-18T13:20:29Z</time></trkpt><trkpt lat="43.284737091340546" lon="10.808117534333286"><ele>332.0</ele><time>2026-04-18T13:20:30Z</time></trkpt><trkpt lat="43.28476563308509" lon="10.807999776831615"><ele>330.8</ele><time>2026-04-18T13:20:31Z</time></trkpt><trkpt lat="43.28481486345745" lon="10.807888027682093"><ele>329.6</ele><time>2026-04-18T13:20:32Z</time></trkpt><trkpt lat="43.28482689735966" lon="10.807757391753002"><ele>328.40000000000003</ele><time>2026-04-18T13:20:33Z</time></trkpt><trkpt lat="43.28485859594425" lon="10.807630495723597"><ele>327.20000000000005</ele><time>2026-04-18T13:20:34Z</time></trkpt><trkpt lat="43.28487876130383" lon="10.80749705862137"><ele>326.0</ele><time>2026-04-18T13:20:35Z</time></trkpt><trkpt lat="43.28488594345683" lon="10.807361056679557"><ele>326.0</ele><time>2026-04-18T13:20:36Z</time></trkpt><trkpt lat="43.28487261359701" lon="10.807225031405777"><ele>326.0</ele><time>2026-04-18T13:20:37Z</time></trkpt><trkpt lat="43.28484118525111" lon="10.807084831420205"><ele>326.0</ele><time>2026-04-18T13:20:38Z</time></trkpt><trkpt lat="43.28480167193795" lon="10.806948775695343"><ele>326.0</ele><time>2026-04-18T13:20:39Z</time></trkpt><trkpt lat="43.28476759480283" lon="10.80680991092779"><ele>326.0</ele><time>2026-04-18T13:20:40Z</time></trkpt><trkpt lat="43.28473700120681" lon="10.806674898106763"><ele>326.0</ele><time>2026-04-18T13:20:41Z</time></trkpt><trkpt lat="43.28471930427289" lon="10.80654381773699"><ele>326.0</ele><time>2026-04-18T13:20:42Z</time></trkpt><trkpt lat="43.2847530890329" lon="10.806420044603641"><ele>326.0</ele><time>2026-04-18T13:20:43Z</time></trkpt><trkpt lat="43.28478249852861" lon="10.806288809498293"><ele>326.0</ele><time>2026-04-18T13:20:44Z</time></trkpt><trkpt lat="43.28480692494719" lon="10.80614194440768"><ele>326.0</ele><time>2026-04-18T13:20:45Z</time></trkpt><trkpt lat="43.28483886131249" lon="10.806003830602458"><ele>327.20000000000005</ele><time>2026-04-18T13:20:46Z</time></trkpt><trkpt lat="43.284878095604824" lon="10.805875595619296"><ele>328.40000000000003</ele><time>2026-04-18T13:20:47Z</time></trkpt><trkpt lat="43.2848941826264" lon="10.805745228511425"><ele>329.6</ele><time>2026-04-18T13:20:48Z</time></trkpt><trkpt lat="43.28488683194959" lon="10.805605735742114"><ele>330.8</ele><time>2026-04-18T13:20:49Z</time></trkpt><trkpt lat="43.284850944767506" lon="10.805479238968013"><ele>332.0</ele><time>2026-04-18T13:20:50Z</time></trkpt><trkpt lat="43.28482932192691" lon="10.805345618499645"><ele>332.0</ele><time>2026-04-18T13:20:51Z</time></trkpt><trkpt lat="43.284829074311055" lon="10.805207814542968"><ele>332.0</ele><time>2026-04-18T13:20:52Z</time></trkpt><trkpt lat="43.28484816509065" lon="10.805073376621761"><ele>332.0</ele><time>2026-04-18T13:20:53Z</time></trkpt><trkpt lat="43.284864361955194" lon="10.80494100733376"><ele>332.0</ele><time>2026-04-18T13:20:54Z</time></trkpt><trkpt lat="43.28487360662909" lon="10.80480499014112"><ele>332.0</ele><time>2026-04-18T13:20:55Z</time></trkpt><trkpt lat="43.28486750402202" lon="10.804676907416388"><ele>333.0</ele><time>2026-04-18T13:20:56Z</time></trkpt><trkpt lat="43.28489104824282" lon="10.804562773827232"><ele>334.0</ele><time>2026-04-18T13:20:57Z</time></trkpt><trkpt lat="43.28491048471092" lon="10.804456653795881"><ele>335.0</ele><time>2026-04-18T13:20:58Z</time></trkpt><trkpt lat="43.28494811476242" lon="10.804363251679742"><ele>336.0</ele><time>2026-04-18T13:20:59Z</time></trkpt><trkpt lat="43.284999043900854" lon="10.80427881223376"><ele>337.0</ele><time>2026-04-18T13:21:00Z</time></trkpt><trkpt lat="43.28504223521559" lon="10.804179964116122"><ele>338.0</ele><time>2026-04-18T13:21:01Z</time></trkpt><trkpt lat="43.28506653686848" lon="10.804071887716804"><ele>339.0</ele><time>2026-04-18T13:21:02Z</time></trkpt><trkpt lat="43.28510535120073" lon="10.803984495359195"><ele>340.0</ele><time>2026-04-18T13:21:03Z</time></trkpt><trkpt lat="43.28511265049667" lon="10.803885502733733"><ele>341.0</ele><time>2026-04-18T13:21:04Z</time></trkpt><trkpt lat="43.285093932183294" lon="10.80377879130295"><ele>342.0</ele><time>2026-04-18T13:21:05Z</time></trkpt><trkpt lat="43.28504632247219" lon="10.803680799745802"><ele>343.0</ele><time>2026-04-18T13:21:06Z</time></trkpt><trkpt lat="43.28497843728419" lon="10.803607884353179"><ele>344.0</ele><time>2026-04-18T13:21:07Z</time></trkpt><trkpt lat="43.284914732311954" lon="10.803543919573764"><ele>343.1666666666667</ele><time>2026-04-18T13:21:08Z</time></trkpt><trkpt lat="43.28485786609661" lon="10.803479162511092"><ele>342.33333333333337</ele><time>2026-04-18T13:21:09Z</time></trkpt><trkpt lat="43.28481188682301" lon="10.803396155543853"><ele>341.5</ele><time>2026-04-18T13:21:10Z</time></trkpt><trkpt lat="43.284758916371885" lon="10.80331896756282"><ele>340.6666666666667</ele><time>2026-04-18T13:21:11Z</time></trkpt><trkpt lat="43.28467369214373" lon="10.80327082206219"><ele>339.8333333333333</ele><time>2026-04-18T13:21:12Z</time></trkpt><trkpt lat="43.284587654163346" lon="10.803295755398022"><ele>339.0</ele><time>2026-04-18T13:21:13Z</time></trkpt><trkpt lat="43.28454898376983" lon="10.803378846490002"><ele>339.8333333333333</ele><time>2026-04-18T13:21:14Z</time></trkpt><trkpt lat="43.28456945864487" lon="10.803531011735894"><ele>340.6666666666667</ele><time>2026-04-18T13:21:16Z</time></trkpt><trkpt lat="43.284629006577205" lon="10.803575689067348"><ele>341.5</ele><time>2026-04-18T13:21:17Z</time></trkpt><trkpt lat="43.284695461706676" lon="10.803608796395466"><ele>342.33333333333337</ele><time>2026-04-18T13:21:18Z</time></trkpt><trkpt lat="43.284757444388454" lon="10.80366850502697"><ele>343.1666666666667</ele><time>2026-04-18T13:21:19Z</time></trkpt><trkpt lat="43.2847711396513" lon="10.80377070423294"><ele>344.0</ele><time>2026-04-18T13:21:20Z</time></trkpt><trkpt lat="43.284741551732004" lon="10.803918775098595"><ele>349.0</ele><time>2026-04-18T13:21:22Z</time></trkpt><trkpt lat="43.284672819542" lon="10.804052283437"><ele>354.0</ele><time>2026-04-18T13:21:24Z</time></trkpt><trkpt lat="43.28463498870861" lon="10.804139424830618"><ele>359.0</ele><time>2026-04-18T13:21:25Z</time></trkpt><trkpt lat="43.28460264522294" lon="10.804241242172056"><ele>364.0</ele><time>2026-04-18T13:21:26Z</time></trkpt><trkpt lat="43.284589408983145" lon="10.804361464184957"><ele>369.0</ele><time>2026-04-18T13:21:27Z</time></trkpt><trkpt lat="43.28455589431718" lon="10.804475991908513"><ele>369.0</ele><time>2026-04-18T13:21:28Z</time></trkpt><trkpt lat="43.28452172650378" lon="10.804594600410683"><ele>369.0</ele><time>2026-04-18T13:21:29Z</time></trkpt><trkpt lat="43.28448392937718" lon="10.804705851880643"><ele>369.0</ele><time>2026-04-18T13:21:30Z</time></trkpt><trkpt lat="43.28442208112777" lon="10.8047876710237"><ele>369.0</ele><time>2026-04-18T13:21:31Z</time></trkpt><trkpt lat="43.28434057666813" lon="10.804819397726243"><ele>369.0</ele><time>2026-04-18T13:21:32Z</time></trkpt><trkpt lat="43.28426293921679" lon="10.804885875267448"><ele>369.0</ele><time>2026-04-18T13:21:33Z</time></trkpt><trkpt lat="43.28418781622151" lon="10.804966187880751"><ele>369.0</ele><time>2026-04-18T13:21:34Z</time></trkpt><trkpt lat="43.28411978832852" lon="10.805053741338309"><ele>369.0</ele><time>2026-04-18T13:21:35Z</time></trkpt><trkpt lat="43.284066481529166" lon="10.805171182820843"><ele>369.0</ele><time>2026-04-18T13:21:36Z</time></trkpt><trkpt lat="43.28406657039283" lon="10.805310756466959"><ele>369.0</ele><time>2026-04-18T13:21:37Z</time></trkpt><trkpt lat="43.28403301226704" lon="10.805434989277348"><ele>369.0</ele><time>2026-04-18T13:21:38Z</time></trkpt><trkpt lat="43.28395568711786" lon="10.80551800635403"><ele>372.2</ele><time>2026-04-18T13:21:39Z</time></trkpt><trkpt lat="43.28387457590046" lon="10.805585659931058"><ele>375.4</ele><time>2026-04-18T13:21:40Z</time></trkpt><trkpt lat="43.28379882619311" lon="10.805666184601405"><ele>378.6</ele><time>2026-04-18T13:21:41Z</time></trkpt><trkpt lat="43.28372095311045" lon="10.805749888232876"><ele>381.8</ele><time>2026-04-18T13:21:42Z</time></trkpt><trkpt lat="43.28364424757362" lon="10.80585481927016"><ele>385.0</ele><time>2026-04-18T13:21:43Z</time></trkpt><trkpt lat="43.283590647757336" lon="10.805961653777583"><ele>386.6</ele><time>2026-04-18T13:21:44Z</time></trkpt><trkpt lat="43.28355560629167" lon="10.806078785289802"><ele>388.2</ele><time>2026-04-18T13:21:45Z</time></trkpt><trkpt lat="43.28353857001235" lon="10.80619667318111"><ele>389.79999999999995</ele><time>2026-04-18T13:21:46Z</time></trkpt><trkpt lat="43.28355351997342" lon="10.80633078777265"><ele>391.4</ele><time>2026-04-18T13:21:47Z</time></trkpt><trkpt lat="43.28360832163401" lon="10.806447861110593"><ele>393.0</ele><time>2026-04-18T13:21:48Z</time></trkpt><trkpt lat="43.28367345512856" lon="10.806538964939506"><ele>393.0</ele><time>2026-04-18T13:21:49Z</time></trkpt><trkpt lat="43.28372987873568" lon="10.806632215745115"><ele>393.0</ele><time>2026-04-18T13:21:50Z</time></trkpt><trkpt lat="43.283788364045" lon="10.806734868793084"><ele>393.0</ele><time>2026-04-18T13:21:51Z</time></trkpt><trkpt lat="43.283848074704146" lon="10.80684025694309"><ele>393.0</ele><time>2026-04-18T13:21:52Z</time></trkpt><trkpt lat="43.28390492214866" lon="10.806949321934843"><ele>393.0</ele><time>2026-04-18T13:21:53Z</time></trkpt><trkpt lat="43.28395611086995" lon="10.807059788124695"><ele>394.0</ele><time>2026-04-18T13:21:54Z</time></trkpt><trkpt lat="43.2839855625299" lon="10.807170816159429"><ele>395.0</ele><time>2026-04-18T13:21:55Z</time></trkpt><trkpt lat="43.284002488119555" lon="10.80727837527949"><ele>396.0</ele><time>2026-04-18T13:21:56Z</time></trkpt><trkpt lat="43.28399376464311" lon="10.807372012155055"><ele>397.0</ele><time>2026-04-18T13:21:57Z</time></trkpt><trkpt lat="43.28390897564009" lon="10.807443712903073"><ele>398.0</ele><time>2026-04-18T13:21:59Z</time></trkpt><trkpt lat="43.28378641638532" lon="10.807452123165074"><ele>397.99999999999994</ele><time>2026-04-18T13:22:01Z</time></trkpt><trkpt lat="43.28370814103944" lon="10.807431018860692"><ele>398.0</ele><time>2026-04-18T13:22:02Z</time></trkpt><trkpt lat="43.283618099317465" lon="10.80741015690762"><ele>398.0</ele><time>2026-04-18T13:22:03Z</time></trkpt><trkpt lat="43.28353199619626" lon="10.807418437975066"><ele>398.0</ele><time>2026-04-18T13:22:04Z</time></trkpt><trkpt lat="43.2834612869894" lon="10.80744238108867"><ele>397.99999999999994</ele><time>2026-04-18T13:22:05Z</time></trkpt><trkpt lat="43.28339875290662" lon="10.80749540495853"><ele>398.0</ele><time>2026-04-18T13:22:06Z</time></trkpt><trkpt lat="43.28339780346118" lon="10.807610369263083"><ele>399.66666666666663</ele><time>2026-04-18T13:22:07Z</time></trkpt><trkpt lat="43.283415440741706" lon="10.807698059540071"><ele>401.3333333333333</ele><time>2026-04-18T13:22:08Z</time></trkpt><trkpt lat="43.28344093903201" lon="10.807799750272272"><ele>403.0</ele><time>2026-04-18T13:22:09Z</time></trkpt><trkpt lat="43.2834881224402" lon="10.807896996311666"><ele>404.66666666666663</ele><time>2026-04-18T13:22:10Z</time></trkpt><trkpt lat="43.283544597151895" lon="10.807996071446995"><ele>406.3333333333333</ele><time>2026-04-18T13:22:11Z</time></trkpt><trkpt lat="43.28360197611163" lon="10.808099807527292"><ele>408.0</ele><time>2026-04-18T13:22:12Z</time></trkpt><trkpt lat="43.283652605575675" lon="10.808212484414696"><ele>408.0</ele><time>2026-04-18T13:22:13Z</time></trkpt><trkpt lat="43.28370218344766" lon="10.808335634971638"><ele>408.0</ele><time>2026-04-18T13:22:14Z</time></trkpt><trkpt lat="43.28373846403952" lon="10.808460512554731"><ele>408.0</ele><time>2026-04-18T13:22:15Z</time></trkpt><trkpt lat="43.28375337587009" lon="10.808574090369682"><ele>408.0</ele><time>2026-04-18T13:22:16Z</time></trkpt><trkpt lat="43.28375094251534" lon="10.808676264437048"><ele>408.0</ele><time>2026-04-18T13:22:17Z</time></trkpt><trkpt lat="43.28373763847011" lon="10.808780178584538"><ele>408.0</ele><time>2026-04-18T13:22:18Z</time></trkpt><trkpt lat="43.28371865850792" lon="10.808891302731842"><ele>408.59999999999997</ele><time>2026-04-18T13:22:19Z</time></trkpt><trkpt lat="43.28369939052384" lon="10.809009320907036"><ele>409.2</ele><time>2026-04-18T13:22:20Z</time></trkpt><trkpt lat="43.28369084911425" lon="10.809133202315792"><ele>409.8</ele><time>2026-04-18T13:22:21Z</time></trkpt><trkpt lat="43.28370606931905" lon="10.809263813324312"><ele>410.4</ele><time>2026-04-18T13:22:22Z</time></trkpt><trkpt lat="43.2837574835921" lon="10.809385123025267"><ele>411.0</ele><time>2026-04-18T13:22:23Z</time></trkpt><trkpt lat="43.283820551652326" lon="10.809487883109568"><ele>411.0</ele><time>2026-04-18T13:22:24Z</time></trkpt><trkpt lat="43.28388382388817" lon="10.809576766335436"><ele>411.0</ele><time>2026-04-18T13:22:25Z</time></trkpt><trkpt lat="43.28393641036854" lon="10.809666261612096"><ele>411.0</ele><time>2026-04-18T13:22:26Z</time></trkpt><trkpt lat="43.283963705007196" lon="10.809753191336737"><ele>411.0</ele><time>2026-04-18T13:22:27Z</time></trkpt><trkpt lat="43.283974221638815" lon="10.809838949620481"><ele>411.0</ele><time>2026-04-18T13:22:28Z</time></trkpt><trkpt lat="43.28397402517044" lon="10.809929827636779"><ele>411.0</ele><time>2026-04-18T13:22:29Z</time></trkpt><trkpt lat="43.28395239109473" lon="10.810015038418365"><ele>411.0</ele><time>2026-04-18T13:22:30Z</time></trkpt><trkpt lat="43.28391465229229" lon="10.810092041449062"><ele>411.0</ele><time>2026-04-18T13:22:31Z</time></trkpt><trkpt lat="43.28386691414536" lon="10.810151140912332"><ele>411.0</ele><time>2026-04-18T13:22:32Z</time></trkpt><trkpt lat="43.28381263187574" lon="10.810196345557099"><ele>411.0</ele><time>2026-04-18T13:22:33Z</time></trkpt><trkpt lat="43.283751865353004" lon="10.810233801897812"><ele>411.0</ele><time>2026-04-18T13:22:34Z</time></trkpt><trkpt lat="43.2836811447739" lon="10.810270258091522"><ele>411.0</ele><time>2026-04-18T13:22:35Z</time></trkpt><trkpt lat="43.2835951270715" lon="10.810318452590534"><ele>411.0</ele><time>2026-04-18T13:22:36Z</time></trkpt><trkpt lat="43.28350665128303" lon="10.810348371445595"><ele>410.6666666666667</ele><time>2026-04-18T13:22:37Z</time></trkpt><trkpt lat="43.283417247876116" lon="10.810345132936881"><ele>410.33333333333337</ele><time>2026-04-18T13:22:38Z</time></trkpt><trkpt lat="43.28333160197052" lon="10.810349812005711"><ele>410.0</ele><time>2026-04-18T13:22:39Z</time></trkpt><trkpt lat="43.28324944466219" lon="10.810342932880621"><ele>409.6666666666667</ele><time>2026-04-18T13:22:40Z</time></trkpt><trkpt lat="43.283168166468386" lon="10.810323020238409"><ele>409.33333333333337</ele><time>2026-04-18T13:22:41Z</time></trkpt><trkpt lat="43.28310168073755" lon="10.810233794091552"><ele>409.0</ele><time>2026-04-18T13:22:42Z</time></trkpt><trkpt lat="43.283036003175205" lon="10.8101501811113"><ele>409.0</ele><time>2026-04-18T13:22:43Z</time></trkpt><trkpt lat="43.282974579046474" lon="10.810059272863336"><ele>409.0</ele><time>2026-04-18T13:22:44Z</time></trkpt><trkpt lat="43.28291338149427" lon="10.809966279008536"><ele>409.0</ele><time>2026-04-18T13:22:45Z</time></trkpt><trkpt lat="43.282857109717774" lon="10.809873509754311"><ele>409.0</ele><time>2026-04-18T13:22:46Z</time></trkpt><trkpt lat="43.28279987015271" lon="10.809775442523776"><ele>409.0</ele><time>2026-04-18T13:22:47Z</time></trkpt><trkpt lat="43.28273039238399" lon="10.809688994058268"><ele>409.0</ele><time>2026-04-18T13:22:48Z</time></trkpt><trkpt lat="43.28263979879348" lon="10.809634051036298"><ele>409.0</ele><time>2026-04-18T13:22:49Z</time></trkpt><trkpt lat="43.28254613546602" lon="10.809613011524382"><ele>409.0</ele><time>2026-04-18T13:22:50Z</time></trkpt><trkpt lat="43.28244775461565" lon="10.809610845062455"><ele>409.0</ele><time>2026-04-18T13:22:51Z</time></trkpt><trkpt lat="43.28235967819799" lon="10.809638009950152"><ele>409.0</ele><time>2026-04-18T13:22:52Z</time></trkpt><trkpt lat="43.28229240087192" lon="10.809676475943913"><ele>409.0</ele><time>2026-04-18T13:22:53Z</time></trkpt><trkpt lat="43.28218853705007" lon="10.80970843999185"><ele>409.0</ele><time>2026-04-18T13:22:55Z</time></trkpt><trkpt lat="43.282210886942224" lon="10.809607181154746"><ele>409.0</ele><time>2026-04-18T13:22:58Z</time></trkpt><trkpt lat="43.282302312319736" lon="10.809505930811927"><ele>409.0</ele><time>2026-04-18T13:23:01Z</time></trkpt><trkpt lat="43.28237656159652" lon="10.809456517592087"><ele>409.0</ele><time>2026-04-18T13:23:02Z</time></trkpt><trkpt lat="43.2824635976501" lon="10.809466466466047"><ele>409.00000000000006</ele><time>2026-04-18T13:23:03Z</time></trkpt><trkpt lat="43.28253946006362" lon="10.809474591174936"><ele>409.0</ele><time>2026-04-18T13:23:04Z</time></trkpt><trkpt lat="43.282616923958884" lon="10.80948350184289"><ele>409.0</ele><time>2026-04-18T13:23:05Z</time></trkpt><trkpt lat="43.28269367227199" lon="10.809500675244454"><ele>409.0</ele><time>2026-04-18T13:23:06Z</time></trkpt><trkpt lat="43.28277724672549" lon="10.809513677760533"><ele>409.00000000000006</ele><time>2026-04-18T13:23:07Z</time></trkpt><trkpt lat="43.28286513102666" lon="10.809539118567065"><ele>409.0</ele><time>2026-04-18T13:23:08Z</time></trkpt><trkpt lat="43.28294491457608" lon="10.809576573887684"><ele>409.00000000000006</ele><time>2026-04-18T13:23:09Z</time></trkpt><trkpt lat="43.28301446245961" lon="10.80959801216687"><ele>409.0</ele><time>2026-04-18T13:23:10Z</time></trkpt><trkpt lat="43.28308776035467" lon="10.809599159887131"><ele>409.0</ele><time>2026-04-18T13:23:11Z</time></trkpt><trkpt lat="43.283188981944875" lon="10.809537718982902"><ele>409.0</ele><time>2026-04-18T13:23:13Z</time></trkpt><trkpt lat="43.28319716071884" lon="10.80937512273418"><ele>409.00000000000006</ele><time>2026-04-18T13:23:15Z</time></trkpt><trkpt lat="43.28317504230472" lon="10.809285265363297"><ele>409.0</ele><time>2026-04-18T13:23:16Z</time></trkpt><trkpt lat="43.28314773520273" lon="10.809202209987792"><ele>410.00000000000006</ele><time>2026-04-18T13:23:17Z</time></trkpt><trkpt lat="43.283117182727345" lon="10.809113518514419"><ele>411.0</ele><time>2026-04-18T13:23:18Z</time></trkpt><trkpt lat="43.2830788459478" lon="10.809018566743234"><ele>412.0</ele><time>2026-04-18T13:23:19Z</time></trkpt><trkpt lat="43.283041441144945" lon="10.808925864628444"><ele>413.0</ele><time>2026-04-18T13:23:20Z</time></trkpt><trkpt lat="43.28300571549091" lon="10.808837323848602"><ele>414.00000000000006</ele><time>2026-04-18T13:23:21Z</time></trkpt><trkpt lat="43.28295256938124" lon="10.808757334018972"><ele>415.0</ele><time>2026-04-18T13:23:22Z</time></trkpt><trkpt lat="43.28289526717945" lon="10.808703464127658"><ele>417.33333333333337</ele><time>2026-04-18T13:23:23Z</time></trkpt><trkpt lat="43.2827706271608" lon="10.808693978060585"><ele>419.6666666666667</ele><time>2026-04-18T13:23:25Z</time></trkpt><trkpt lat="43.28271033966318" lon="10.808770146345784"><ele>422.0</ele><time>2026-04-18T13:23:26Z</time></trkpt><trkpt lat="43.28264474610413" lon="10.80881011509817"><ele>424.33333333333337</ele><time>2026-04-18T13:23:27Z</time></trkpt><trkpt lat="43.28257316272507" lon="10.808810020722483"><ele>426.6666666666667</ele><time>2026-04-18T13:23:28Z</time></trkpt><trkpt lat="43.28249570925161" lon="10.808815531900494"><ele>429.0</ele><time>2026-04-18T13:23:29Z</time></trkpt><trkpt lat="43.282417062465875" lon="10.808816608736484"><ele>429.0</ele><time>2026-04-18T13:23:30Z</time></trkpt><trkpt lat="43.2823328709359" lon="10.80881397222539"><ele>429.0</ele><time>2026-04-18T13:23:31Z</time></trkpt><trkpt lat="43.282252285108015" lon="10.808806607747371"><ele>429.0</ele><time>2026-04-18T13:23:32Z</time></trkpt><trkpt lat="43.28217630572821" lon="10.808791551555245"><ele>429.0</ele><time>2026-04-18T13:23:33Z</time></trkpt><trkpt lat="43.28210357344598" lon="10.808777413754257"><ele>429.0</ele><time>2026-04-18T13:23:34Z</time></trkpt><trkpt lat="43.28203514684528" lon="10.808764112909612"><ele>429.0</ele><time>2026-04-18T13:23:35Z</time></trkpt><trkpt lat="43.28196989383985" lon="10.808751476654828"><ele>428.8333333333333</ele><time>2026-04-18T13:23:36Z</time></trkpt><trkpt lat="43.281902408481905" lon="10.80876161818811"><ele>428.66666666666663</ele><time>2026-04-18T13:23:37Z</time></trkpt><trkpt lat="43.28183689266551" lon="10.808741411662455"><ele>428.5</ele><time>2026-04-18T13:23:38Z</time></trkpt><trkpt lat="43.28178030347016" lon="10.808694205476405"><ele>428.3333333333333</ele><time>2026-04-18T13:23:39Z</time></trkpt><trkpt lat="43.28167646317882" lon="10.808615536164726"><ele>428.16666666666663</ele><time>2026-04-18T13:23:41Z</time></trkpt><trkpt lat="43.281629452595965" lon="10.808474947297128"><ele>428.0</ele><time>2026-04-18T13:23:43Z</time></trkpt><trkpt lat="43.28167413030165" lon="10.808360192971053"><ele>427.99999999999994</ele><time>2026-04-18T13:23:45Z</time></trkpt><trkpt lat="43.28173913140818" lon="10.808315911548986"><ele>428.0</ele><time>2026-04-18T13:23:47Z</time></trkpt><trkpt lat="43.28169653138723" lon="10.80839911785022"><ele>428.0</ele><time>2026-04-18T13:24:52Z</time></trkpt><trkpt lat="43.281662579238436" lon="10.808478654284805"><ele>428.0</ele><time>2026-04-18T13:24:54Z</time></trkpt><trkpt lat="43.28164337263401" lon="10.808561687985245"><ele>427.99999999999994</ele><time>2026-04-18T13:24:57Z</time></trkpt><trkpt lat="43.28165615076116" lon="10.808665048541975"><ele>428.0</ele><time>2026-04-18T13:25:01Z</time></trkpt><trkpt lat="43.28175128288855" lon="10.808713171979116"><ele>427.99999999999994</ele><time>2026-04-18T13:25:02Z</time></trkpt><trkpt lat="43.28170754113721" lon="10.808646268078038"><ele>428.0</ele><time>2026-04-18T13:25:12Z</time></trkpt><trkpt lat="43.28164776865221" lon="10.808605997612478"><ele>428.0</ele><time>2026-04-18T13:25:18Z</time></trkpt><trkpt lat="43.28156584083951" lon="10.808561937212962"><ele>428.0</ele><time>2026-04-18T13:25:21Z</time></trkpt><trkpt lat="43.28151946771028" lon="10.808475798024288"><ele>427.99999999999994</ele><time>2026-04-18T13:25:23Z</time></trkpt><trkpt lat="43.281435406838035" lon="10.808394269161399"><ele>428.0</ele><time>2026-04-18T13:25:25Z</time></trkpt><trkpt lat="43.28132938042017" lon="10.808309034468472"><ele>429.4</ele><time>2026-04-18T13:25:27Z</time></trkpt><trkpt lat="43.28121285264148" lon="10.808246529386286"><ele>430.79999999999995</ele><time>2026-04-18T13:25:29Z</time></trkpt><trkpt lat="43.28114862978749" lon="10.808237665025297"><ele>432.2</ele><time>2026-04-18T13:25:30Z</time></trkpt><trkpt lat="43.28103177732937" lon="10.808223051648312"><ele>433.6</ele><time>2026-04-18T13:25:32Z</time></trkpt><trkpt lat="43.280930705314844" lon="10.808213705510175"><ele>435.0</ele><time>2026-04-18T13:25:34Z</time></trkpt><trkpt lat="43.280831366537484" lon="10.808211708744155"><ele>435.0</ele><time>2026-04-18T13:25:36Z</time></trkpt><trkpt lat="43.2807065002234" lon="10.808217634986068"><ele>435.0</ele><time>2026-04-18T13:25:38Z</time></trkpt><trkpt lat="43.280638098692904" lon="10.808252808582436"><ele>435.0</ele><time>2026-04-18T13:25:39Z</time></trkpt><trkpt lat="43.28056995193095" lon="10.808263639074424"><ele>435.0</ele><time>2026-04-18T13:25:40Z</time></trkpt><trkpt lat="43.280457906188865" lon="10.808312623977272"><ele>435.0</ele><time>2026-04-18T13:25:42Z</time></trkpt><trkpt lat="43.280402832091916" lon="10.808362097406825"><ele>435.42857142857144</ele><time>2026-04-18T13:25:43Z</time></trkpt><trkpt lat="43.28034253052292" lon="10.80840892679283"><ele>435.8571428571429</ele><time>2026-04-18T13:25:44Z</time></trkpt><trkpt lat="43.28028889545541" lon="10.80845675626168"><ele>436.28571428571433</ele><time>2026-04-18T13:25:45Z</time></trkpt><trkpt lat="43.28022359482594" lon="10.80845720961101"><ele>436.7142857142857</ele><time>2026-04-18T13:25:46Z</time></trkpt><trkpt lat="43.28015989096162" lon="10.808465482343205"><ele>437.1428571428571</ele><time>2026-04-18T13:25:47Z</time></trkpt><trkpt lat="43.28009526829716" lon="10.808471965270895"><ele>437.5714285714286</ele><time>2026-04-18T13:25:48Z</time></trkpt><trkpt lat="43.28003464013918" lon="10.808497961376508"><ele>438.0</ele><time>2026-04-18T13:25:49Z</time></trkpt><trkpt lat="43.27991923489944" lon="10.808514581979562"><ele>436.8333333333333</ele><time>2026-04-18T13:25:51Z</time></trkpt><trkpt lat="43.279817523598076" lon="10.808569191043754"><ele>435.66666666666663</ele><time>2026-04-18T13:25:53Z</time></trkpt><trkpt lat="43.27973134324579" lon="10.808670820652367"><ele>434.5</ele><time>2026-04-18T13:25:55Z</time></trkpt><trkpt lat="43.27968761395777" lon="10.80873527908392"><ele>433.3333333333333</ele><time>2026-04-18T13:25:56Z</time></trkpt><trkpt lat="43.279641661827704" lon="10.808799710609433"><ele>432.16666666666663</ele><time>2026-04-18T13:25:57Z</time></trkpt><trkpt lat="43.279579901278794" lon="10.808836942448025"><ele>431.0</ele><time>2026-04-18T13:25:58Z</time></trkpt><trkpt lat="43.27953407843182" lon="10.808906812867134"><ele>434.4</ele><time>2026-04-18T13:25:59Z</time></trkpt><trkpt lat="43.27943307498645" lon="10.808994728076566"><ele>437.8</ele><time>2026-04-18T13:26:01Z</time></trkpt><trkpt lat="43.27935718945849" lon="10.80905693746846"><ele>441.19999999999993</ele><time>2026-04-18T13:26:03Z</time></trkpt><trkpt lat="43.27926313838681" lon="10.809042536506507"><ele>444.59999999999997</ele><time>2026-04-18T13:26:06Z</time></trkpt><trkpt lat="43.27919756057799" lon="10.808981215752612"><ele>448.0</ele><time>2026-04-18T13:26:08Z</time></trkpt><trkpt lat="43.27914485538172" lon="10.808904699148865"><ele>448.0</ele><time>2026-04-18T13:26:10Z</time></trkpt><trkpt lat="43.279109723207256" lon="10.808816417450695"><ele>447.99999999999994</ele><time>2026-04-18T13:26:12Z</time></trkpt><trkpt lat="43.27909615884702" lon="10.808716735519731"><ele>447.99999999999994</ele><time>2026-04-18T13:26:14Z</time></trkpt><trkpt lat="43.27909363965859" lon="10.808583526634441"><ele>448.0</ele><time>2026-04-18T13:26:16Z</time></trkpt><trkpt lat="43.27908567974046" lon="10.808421981060652"><ele>448.0</ele><time>2026-04-18T13:26:18Z</time></trkpt><trkpt lat="43.27904671043143" lon="10.80825823390043"><ele>448.00000000000006</ele><time>2026-04-18T13:26:20Z</time></trkpt><trkpt lat="43.27904743872965" lon="10.808163912456507"><ele>448.0</ele><time>2026-04-18T13:26:21Z</time></trkpt><trkpt lat="43.2790325233459" lon="10.808066360159849"><ele>448.0</ele><time>2026-04-18T13:26:22Z</time></trkpt><trkpt lat="43.2790093333961" lon="10.807969493168109"><ele>448.0</ele><time>2026-04-18T13:26:23Z</time></trkpt><trkpt lat="43.278973451640034" lon="10.80787314053706"><ele>448.00000000000006</ele><time>2026-04-18T13:26:24Z</time></trkpt><trkpt lat="43.278921043664575" lon="10.807792036348113"><ele>448.0</ele><time>2026-04-18T13:26:25Z</time></trkpt><trkpt lat="43.27884498093486" lon="10.807736155384804"><ele>448.00000000000006</ele><time>2026-04-18T13:26:26Z</time></trkpt><trkpt lat="43.278777492295966" lon="10.807705713945674"><ele>448.0</ele><time>2026-04-18T13:26:27Z</time></trkpt><trkpt lat="43.27871442863773" lon="10.807682864168564"><ele>448.0</ele><time>2026-04-18T13:26:28Z</time></trkpt><trkpt lat="43.278602545976234" lon="10.807635199086928"><ele>448.0</ele><time>2026-04-18T13:26:30Z</time></trkpt><trkpt lat="43.278501619510564" lon="10.807539571753459"><ele>448.00000000000006</ele><time>2026-04-18T13:26:32Z</time></trkpt><trkpt lat="43.27845716322106" lon="10.807468891221628"><ele>448.0</ele><time>2026-04-18T13:26:33Z</time></trkpt><trkpt lat="43.27842191074194" lon="10.8073902625506"><ele>450.33333333333337</ele><time>2026-04-18T13:26:34Z</time></trkpt><trkpt lat="43.278389916845434" lon="10.80730600077466"><ele>452.6666666666667</ele><time>2026-04-18T13:26:35Z</time></trkpt><trkpt lat="43.27835711182779" lon="10.807222637562138"><ele>455.0</ele><time>2026-04-18T13:26:36Z</time></trkpt><trkpt lat="43.27832937697928" lon="10.80712345365022"><ele>457.33333333333337</ele><time>2026-04-18T13:26:37Z</time></trkpt><trkpt lat="43.27830047013221" lon="10.807013075178743"><ele>459.6666666666667</ele><time>2026-04-18T13:26:38Z</time></trkpt><trkpt lat="43.27825791909973" lon="10.806901629289534"><ele>462.0</ele><time>2026-04-18T13:26:39Z</time></trkpt><trkpt lat="43.27819651133461" lon="10.806810337307212"><ele>462.6</ele><time>2026-04-18T13:26:40Z</time></trkpt><trkpt lat="43.2781138827076" lon="10.806757922677509"><ele>463.20000000000005</ele><time>2026-04-18T13:26:41Z</time></trkpt><trkpt lat="43.27802208549357" lon="10.806764035853451"><ele>463.8</ele><time>2026-04-18T13:26:42Z</time></trkpt><trkpt lat="43.277905120957286" lon="10.806759658184625"><ele>464.4</ele><time>2026-04-18T13:26:44Z</time></trkpt><trkpt lat="43.27779602887082" lon="10.806752498559632"><ele>465.0</ele><time>2026-04-18T13:26:46Z</time></trkpt><trkpt lat="43.27769756915797" lon="10.806724256023326"><ele>465.4</ele><time>2026-04-18T13:26:48Z</time></trkpt><trkpt lat="43.277620232427196" lon="10.806662217918987"><ele>465.8</ele><time>2026-04-18T13:26:50Z</time></trkpt><trkpt lat="43.277561713169455" lon="10.806574104956436"><ele>466.20000000000005</ele><time>2026-04-18T13:26:52Z</time></trkpt><trkpt lat="43.277476222223356" lon="10.806494679519698"><ele>466.6</ele><time>2026-04-18T13:26:54Z</time></trkpt><trkpt lat="43.27740565311095" lon="10.806342577716118"><ele>467.0</ele><time>2026-04-18T13:26:56Z</time></trkpt><trkpt lat="43.27735893390689" lon="10.806260078947274"><ele>466.99999999999994</ele><time>2026-04-18T13:26:57Z</time></trkpt><trkpt lat="43.27732355258158" lon="10.806180070763201"><ele>467.0</ele><time>2026-04-18T13:26:58Z</time></trkpt><trkpt lat="43.277287885571766" lon="10.806095085966351"><ele>466.99999999999994</ele><time>2026-04-18T13:26:59Z</time></trkpt><trkpt lat="43.277253562185216" lon="10.80600903576963"><ele>466.99999999999994</ele><time>2026-04-18T13:27:00Z</time></trkpt><trkpt lat="43.27721834944172" lon="10.805920956713669"><ele>467.0</ele><time>2026-04-18T13:27:01Z</time></trkpt><trkpt lat="43.27718126637244" lon="10.805833590454448"><ele>466.99999999999994</ele><time>2026-04-18T13:27:02Z</time></trkpt><trkpt lat="43.27713964614783" lon="10.805746798681124"><ele>466.99999999999994</ele><time>2026-04-18T13:27:03Z</time></trkpt><trkpt lat="43.277100872651715" lon="10.805667114235636"><ele>467.49999999999994</ele><time>2026-04-18T13:27:04Z</time></trkpt><trkpt lat="43.277064299657184" lon="10.805591133924509"><ele>468.0</ele><time>2026-04-18T13:27:05Z</time></trkpt><trkpt lat="43.27702067117454" lon="10.805516321692924"><ele>468.5</ele><time>2026-04-18T13:27:06Z</time></trkpt><trkpt lat="43.276974183403645" lon="10.805457320517183"><ele>469.0</ele><time>2026-04-18T13:27:07Z</time></trkpt><trkpt lat="43.276854700396214" lon="10.805407621434908"><ele>469.49999999999994</ele><time>2026-04-18T13:27:09Z</time></trkpt><trkpt lat="43.2767873029795" lon="10.805459277046952"><ele>470.0</ele><time>2026-04-18T13:27:10Z</time></trkpt><trkpt lat="43.276694425070126" lon="10.805518413158921"><ele>470.0</ele><time>2026-04-18T13:27:12Z</time></trkpt><trkpt lat="43.2766326116318" lon="10.805551425267675"><ele>469.99999999999994</ele><time>2026-04-18T13:27:13Z</time></trkpt><trkpt lat="43.276563734791644" lon="10.805573976098545"><ele>470.0</ele><time>2026-04-18T13:27:14Z</time></trkpt><trkpt lat="43.27649130566687" lon="10.805581734169746"><ele>470.0</ele><time>2026-04-18T13:27:15Z</time></trkpt><trkpt lat="43.27641416025106" lon="10.80558873703342"><ele>469.99999999999994</ele><time>2026-04-18T13:27:16Z</time></trkpt><trkpt lat="43.2763391124526" lon="10.805585588250315"><ele>470.0</ele><time>2026-04-18T13:27:17Z</time></trkpt><trkpt lat="43.276267950094294" lon="10.805579218222551"><ele>470.0</ele><time>2026-04-18T13:27:18Z</time></trkpt><trkpt lat="43.27620527281171" lon="10.805565589182885"><ele>469.0</ele><time>2026-04-18T13:27:19Z</time></trkpt><trkpt lat="43.27611375695683" lon="10.805517239408557"><ele>468.0</ele><time>2026-04-18T13:27:21Z</time></trkpt><trkpt lat="43.2760345588435" lon="10.805441802464536"><ele>467.0</ele><time>2026-04-18T13:27:23Z</time></trkpt><trkpt lat="43.275968568893425" lon="10.805332325622166"><ele>466.0</ele><time>2026-04-18T13:27:25Z</time></trkpt><trkpt lat="43.27590547456553" lon="10.805225782790068"><ele>465.0</ele><time>2026-04-18T13:27:28Z</time></trkpt><trkpt lat="43.27586149871469" lon="10.805129070858472"><ele>465.0</ele><time>2026-04-18T13:27:30Z</time></trkpt><trkpt lat="43.27578242088161" lon="10.804994218652217"><ele>465.0</ele><time>2026-04-18T13:27:32Z</time></trkpt><trkpt lat="43.27570865293883" lon="10.804936674555563"><ele>465.0</ele><time>2026-04-18T13:27:33Z</time></trkpt><trkpt lat="43.27563390333783" lon="10.804893238901592"><ele>465.0</ele><time>2026-04-18T13:27:34Z</time></trkpt><trkpt lat="43.27557159771006" lon="10.804862562534993"><ele>465.0</ele><time>2026-04-18T13:27:35Z</time></trkpt><trkpt lat="43.27546400330008" lon="10.804829155453948"><ele>465.0</ele><time>2026-04-18T13:27:37Z</time></trkpt><trkpt lat="43.27535343454984" lon="10.80482089756159"><ele>465.0</ele><time>2026-04-18T13:27:39Z</time></trkpt><trkpt lat="43.27524122272738" lon="10.804855165741328"><ele>465.0</ele><time>2026-04-18T13:27:41Z</time></trkpt><trkpt lat="43.27513031087953" lon="10.804883203609519"><ele>465.0</ele><time>2026-04-18T13:27:43Z</time></trkpt><trkpt lat="43.27506618615594" lon="10.804905915575722"><ele>465.0</ele><time>2026-04-18T13:27:44Z</time></trkpt><trkpt lat="43.27499863890694" lon="10.804928791852614"><ele>465.0</ele><time>2026-04-18T13:27:45Z</time></trkpt><trkpt lat="43.27492920605516" lon="10.8049517049371"><ele>465.0</ele><time>2026-04-18T13:27:46Z</time></trkpt><trkpt lat="43.274857478030654" lon="10.804975375457433"><ele>465.0</ele><time>2026-04-18T13:27:47Z</time></trkpt><trkpt lat="43.27478589249898" lon="10.804998998937055"><ele>465.0</ele><time>2026-04-18T13:27:48Z</time></trkpt><trkpt lat="43.27471346453234" lon="10.805023401941739"><ele>465.0</ele><time>2026-04-18T13:27:49Z</time></trkpt><trkpt lat="43.27464215662895" lon="10.805048322634228"><ele>465.0</ele><time>2026-04-18T13:27:50Z</time></trkpt><trkpt lat="43.27456201712493" lon="10.805078221123733"><ele>463.4</ele><time>2026-04-18T13:27:51Z</time></trkpt><trkpt lat="43.27447435609928" lon="10.805108807395346"><ele>461.8</ele><time>2026-04-18T13:27:52Z</time></trkpt><trkpt lat="43.2743826676221" lon="10.805137768076305"><ele>460.20000000000005</ele><time>2026-04-18T13:27:53Z</time></trkpt><trkpt lat="43.27429304037666" lon="10.805161307803044"><ele>458.6</ele><time>2026-04-18T13:27:54Z</time></trkpt><trkpt lat="43.274196264892005" lon="10.805182428879187"><ele>457.0</ele><time>2026-04-18T13:27:55Z</time></trkpt><trkpt lat="43.274096585653865" lon="10.805201486053907"><ele>455.5</ele><time>2026-04-18T13:27:56Z</time></trkpt><trkpt lat="43.273989045901985" lon="10.805218401358918"><ele>454.0</ele><time>2026-04-18T13:27:57Z</time></trkpt><trkpt lat="43.27387447644029" lon="10.805234344912181"><ele>452.5</ele><time>2026-04-18T13:27:58Z</time></trkpt><trkpt lat="43.273751722240384" lon="10.805270020791385"><ele>451.0</ele><time>2026-04-18T13:27:59Z</time></trkpt><trkpt lat="43.27362509333549" lon="10.805275829250867"><ele>451.0</ele><time>2026-04-18T13:28:00Z</time></trkpt><trkpt lat="43.27350773227973" lon="10.805291315351802"><ele>451.0</ele><time>2026-04-18T13:28:01Z</time></trkpt><trkpt lat="43.27339534019881" lon="10.805307459662885"><ele>451.0</ele><time>2026-04-18T13:28:02Z</time></trkpt><trkpt lat="43.27329402156909" lon="10.805292382951537"><ele>451.0</ele><time>2026-04-18T13:28:03Z</time></trkpt><trkpt lat="43.273200299691126" lon="10.805298361855764"><ele>451.0</ele><time>2026-04-18T13:28:04Z</time></trkpt><trkpt lat="43.27311184988804" lon="10.805324455297338"><ele>450.83333333333337</ele><time>2026-04-18T13:28:05Z</time></trkpt><trkpt lat="43.273024358780575" lon="10.80532285885384"><ele>450.6666666666667</ele><time>2026-04-18T13:28:06Z</time></trkpt><trkpt lat="43.272936756390976" lon="10.805331916429964"><ele>450.5</ele><time>2026-04-18T13:28:07Z</time></trkpt><trkpt lat="43.27284923813543" lon="10.80534139703038"><ele>450.33333333333337</ele><time>2026-04-18T13:28:08Z</time></trkpt><trkpt lat="43.27276389308327" lon="10.805354747604033"><ele>450.1666666666667</ele><time>2026-04-18T13:28:09Z</time></trkpt><trkpt lat="43.27267729850203" lon="10.805373985493647"><ele>450.0</ele><time>2026-04-18T13:28:10Z</time></trkpt><trkpt lat="43.272590681893675" lon="10.80539919633713"><ele>450.0</ele><time>2026-04-18T13:28:11Z</time></trkpt><trkpt lat="43.27250365232177" lon="10.805422985582682"><ele>450.0</ele><time>2026-04-18T13:28:12Z</time></trkpt><trkpt lat="43.27241773317789" lon="10.805449034653941"><ele>450.0</ele><time>2026-04-18T13:28:13Z</time></trkpt><trkpt lat="43.27233249839427" lon="10.805479132821334"><ele>450.0</ele><time>2026-04-18T13:28:13.999Z</time></trkpt><trkpt lat="43.27224859822665" lon="10.805514989801638"><ele>450.0</ele><time>2026-04-18T13:28:14.999Z</time></trkpt><trkpt lat="43.2721669540712" lon="10.805556035852847"><ele>450.0</ele><time>2026-04-18T13:28:15.999Z</time></trkpt><trkpt lat="43.27208597555117" lon="10.805596212109792"><ele>450.0</ele><time>2026-04-18T13:28:16.999Z</time></trkpt><trkpt lat="43.27200459002708" lon="10.805637507961567"><ele>450.0</ele><time>2026-04-18T13:28:17.999Z</time></trkpt><trkpt lat="43.27192461100324" lon="10.805681178518542"><ele>450.0</ele><time>2026-04-18T13:28:18.999Z</time></trkpt><trkpt lat="43.27184580196098" lon="10.805721289890563"><ele>450.0</ele><time>2026-04-18T13:28:19.999Z</time></trkpt><trkpt lat="43.27176556187939" lon="10.805752708258975"><ele>450.0</ele><time>2026-04-18T13:28:20.999Z</time></trkpt><trkpt lat="43.2716824069001" lon="10.805774778436266"><ele>450.0</ele><time>2026-04-18T13:28:21.999Z</time></trkpt><trkpt lat="43.2716026975341" lon="10.805784288408859"><ele>450.00000000000006</ele><time>2026-04-18T13:28:22.999Z</time></trkpt><trkpt lat="43.27152644729677" lon="10.805787042250092"><ele>450.0</ele><time>2026-04-18T13:28:23.999Z</time></trkpt><trkpt lat="43.271450459531486" lon="10.805792407785006"><ele>450.00000000000006</ele><time>2026-04-18T13:28:24.999Z</time></trkpt><trkpt lat="43.27137602570719" lon="10.805793332659158"><ele>450.00000000000006</ele><time>2026-04-18T13:28:25.999Z</time></trkpt><trkpt lat="43.271303461440645" lon="10.805792604475297"><ele>450.0</ele><time>2026-04-18T13:28:26.999Z</time></trkpt><trkpt lat="43.27123333690041" lon="10.805791019116077"><ele>450.00000000000006</ele><time>2026-04-18T13:28:27.999Z</time></trkpt><trkpt lat="43.27116372349895" lon="10.805791149445712"><ele>450.00000000000006</ele><time>2026-04-18T13:28:28.999Z</time></trkpt><trkpt lat="43.27109308751874" lon="10.805797373735093"><ele>450.1666666666667</ele><time>2026-04-18T13:28:29.999Z</time></trkpt><trkpt lat="43.271018382517695" lon="10.805807916823783"><ele>450.33333333333337</ele><time>2026-04-18T13:28:30.999Z</time></trkpt><trkpt lat="43.27094106802423" lon="10.80582234766032"><ele>450.5</ele><time>2026-04-18T13:28:31.999Z</time></trkpt><trkpt lat="43.27086338181487" lon="10.8058389669513"><ele>450.6666666666667</ele><time>2026-04-18T13:28:32.999Z</time></trkpt><trkpt lat="43.27078593073838" lon="10.805851600716421"><ele>450.83333333333337</ele><time>2026-04-18T13:28:33.999Z</time></trkpt><trkpt lat="43.270707241027814" lon="10.805860201393608"><ele>451.0</ele><time>2026-04-18T13:28:34.999Z</time></trkpt><trkpt lat="43.27062806237977" lon="10.805865030922984"><ele>451.1666666666667</ele><time>2026-04-18T13:28:35.999Z</time></trkpt><trkpt lat="43.270549323042495" lon="10.805871210667371"><ele>451.33333333333337</ele><time>2026-04-18T13:28:36.999Z</time></trkpt><trkpt lat="43.27046916356004" lon="10.80587822090575"><ele>451.5</ele><time>2026-04-18T13:28:37.999Z</time></trkpt><trkpt lat="43.27038970533945" lon="10.805864322748564"><ele>451.66666666666663</ele><time>2026-04-18T13:28:38.999Z</time></trkpt><trkpt lat="43.270308089074966" lon="10.805875414603157"><ele>451.8333333333333</ele><time>2026-04-18T13:28:39.999Z</time></trkpt><trkpt lat="43.27022482534375" lon="10.80590973568952"><ele>452.0</ele><time>2026-04-18T13:28:40.999Z</time></trkpt><trkpt lat="43.27013813526305" lon="10.805923844891323"><ele>451.99999999999994</ele><time>2026-04-18T13:28:41.999Z</time></trkpt><trkpt lat="43.27005062211372" lon="10.80593334909873"><ele>452.0</ele><time>2026-04-18T13:28:42.999Z</time></trkpt><trkpt lat="43.26996282533079" lon="10.805940853399308"><ele>452.0</ele><time>2026-04-18T13:28:43.999Z</time></trkpt><trkpt lat="43.269876766651784" lon="10.805947512224183"><ele>452.0</ele><time>2026-04-18T13:28:44.999Z</time></trkpt><trkpt lat="43.269793026201484" lon="10.805954462957779"><ele>451.99999999999994</ele><time>2026-04-18T13:28:45.999Z</time></trkpt><trkpt lat="43.26971060266129" lon="10.805961080948471"><ele>452.0</ele><time>2026-04-18T13:28:46.999Z</time></trkpt><trkpt lat="43.26963061412938" lon="10.805960430068284"><ele>452.8333333333333</ele><time>2026-04-18T13:28:47.999Z</time></trkpt><trkpt lat="43.269554400695824" lon="10.80594959857167"><ele>453.66666666666663</ele><time>2026-04-18T13:28:48.999Z</time></trkpt><trkpt lat="43.26947854440348" lon="10.805925549137815"><ele>454.5</ele><time>2026-04-18T13:28:49.999Z</time></trkpt><trkpt lat="43.26940493040396" lon="10.805882128577247"><ele>455.33333333333337</ele><time>2026-04-18T13:28:50.999Z</time></trkpt><trkpt lat="43.26933196431063" lon="10.805828020778193"><ele>456.1666666666667</ele><time>2026-04-18T13:28:51.999Z</time></trkpt><trkpt lat="43.269257557065714" lon="10.805768982301426"><ele>457.0</ele><time>2026-04-18T13:28:52.999Z</time></trkpt><trkpt lat="43.26918418270077" lon="10.805710244203729"><ele>457.00000000000006</ele><time>2026-04-18T13:28:53.999Z</time></trkpt><trkpt lat="43.26910699856458" lon="10.805663543685544"><ele>457.0</ele><time>2026-04-18T13:28:54.999Z</time></trkpt><trkpt lat="43.269027386350686" lon="10.805622775071866"><ele>457.0</ele><time>2026-04-18T13:28:55.999Z</time></trkpt><trkpt lat="43.268947019572956" lon="10.805598918257196"><ele>457.0</ele><time>2026-04-18T13:28:56.999Z</time></trkpt><trkpt lat="43.268868804358846" lon="10.805593334152343"><ele>457.00000000000006</ele><time>2026-04-18T13:28:58Z</time></trkpt><trkpt lat="43.26879060901203" lon="10.805599979184413"><ele>457.0</ele><time>2026-04-18T13:28:59Z</time></trkpt><trkpt lat="43.26871380978472" lon="10.805610395949943"><ele>457.00000000000006</ele><time>2026-04-18T13:29:00Z</time></trkpt><trkpt lat="43.26864015041943" lon="10.805623548655303"><ele>457.0</ele><time>2026-04-18T13:29:01Z</time></trkpt><trkpt lat="43.26856473856901" lon="10.805640557173158"><ele>457.0</ele><time>2026-04-18T13:29:02Z</time></trkpt><trkpt lat="43.26848937424092" lon="10.805654296302873"><ele>457.0</ele><time>2026-04-18T13:29:03Z</time></trkpt><trkpt lat="43.268415443513554" lon="10.805663767886614"><ele>457.00000000000006</ele><time>2026-04-18T13:29:04Z</time></trkpt><trkpt lat="43.26834017263508" lon="10.805670877925193"><ele>457.0</ele><time>2026-04-18T13:29:05Z</time></trkpt><trkpt lat="43.26826127335718" lon="10.805671294292155"><ele>457.00000000000006</ele><time>2026-04-18T13:29:06Z</time></trkpt><trkpt lat="43.268179911923404" lon="10.805669056315736"><ele>457.0</ele><time>2026-04-18T13:29:07Z</time></trkpt><trkpt lat="43.268094311244994" lon="10.805658303235193"><ele>457.0</ele><time>2026-04-18T13:29:08Z</time></trkpt><trkpt lat="43.2680058496586" lon="10.805639214008227"><ele>457.0</ele><time>2026-04-18T13:29:09Z</time></trkpt><trkpt lat="43.2679183982342" lon="10.8056126891599"><ele>457.00000000000006</ele><time>2026-04-18T13:29:10Z</time></trkpt><trkpt lat="43.26783291244498" lon="10.805579204538898"><ele>457.0</ele><time>2026-04-18T13:29:11Z</time></trkpt><trkpt lat="43.26775008068913" lon="10.80554093024181"><ele>457.1666666666667</ele><time>2026-04-18T13:29:12Z</time></trkpt><trkpt lat="43.26766682536156" lon="10.805504078646932"><ele>457.33333333333337</ele><time>2026-04-18T13:29:13Z</time></trkpt><trkpt lat="43.26758605437505" lon="10.805462555564548"><ele>457.5</ele><time>2026-04-18T13:29:14Z</time></trkpt><trkpt lat="43.26751183532547" lon="10.805422871312306"><ele>457.66666666666663</ele><time>2026-04-18T13:29:15Z</time></trkpt><trkpt lat="43.26744675348303" lon="10.80538534216828"><ele>457.8333333333333</ele><time>2026-04-18T13:29:16Z</time></trkpt><trkpt lat="43.26738666947428" lon="10.805351533142828"><ele>458.0</ele><time>2026-04-18T13:29:17Z</time></trkpt><trkpt lat="43.26732279314357" lon="10.805321686566618"><ele>457.49999999999994</ele><time>2026-04-18T13:29:18Z</time></trkpt><trkpt lat="43.26725120187684" lon="10.805296342688566"><ele>457.0</ele><time>2026-04-18T13:29:19Z</time></trkpt><trkpt lat="43.26717276336028" lon="10.80527426771544"><ele>456.5</ele><time>2026-04-18T13:29:20Z</time></trkpt><trkpt lat="43.26708870673078" lon="10.805256091528706"><ele>456.0</ele><time>2026-04-18T13:29:21Z</time></trkpt><trkpt lat="43.26699913989642" lon="10.805236065773668"><ele>455.49999999999994</ele><time>2026-04-18T13:29:22Z</time></trkpt><trkpt lat="43.26691017513903" lon="10.805203655834314"><ele>455.0</ele><time>2026-04-18T13:29:23Z</time></trkpt><trkpt lat="43.26681648966158" lon="10.805156804067588"><ele>455.0</ele><time>2026-04-18T13:29:24Z</time></trkpt><trkpt lat="43.26672207669203" lon="10.805100268776311"><ele>455.0</ele><time>2026-04-18T13:29:25Z</time></trkpt><trkpt lat="43.266626812743965" lon="10.805035704051056"><ele>455.0</ele><time>2026-04-18T13:29:26Z</time></trkpt><trkpt lat="43.26653355273911" lon="10.804964242756034"><ele>455.0</ele><time>2026-04-18T13:29:27Z</time></trkpt><trkpt lat="43.26644113034186" lon="10.804888831208757"><ele>455.0</ele><time>2026-04-18T13:29:28Z</time></trkpt><trkpt lat="43.266347975858785" lon="10.804809726980126"><ele>458.0</ele><time>2026-04-18T13:29:29Z</time></trkpt><trkpt lat="43.266255930442675" lon="10.804723203219083"><ele>461.0</ele><time>2026-04-18T13:29:30Z</time></trkpt><trkpt lat="43.26616838997157" lon="10.804636822199376"><ele>464.0</ele><time>2026-04-18T13:29:31Z</time></trkpt><trkpt lat="43.2660856523794" lon="10.80455143679578"><ele>467.0</ele><time>2026-04-18T13:29:32Z</time></trkpt><trkpt lat="43.26601110569863" lon="10.804467680017607"><ele>470.0</ele><time>2026-04-18T13:29:33Z</time></trkpt><trkpt lat="43.26594370477138" lon="10.804396944586165"><ele>470.0</ele><time>2026-04-18T13:29:34Z</time></trkpt><trkpt lat="43.26588034519036" lon="10.804337349479503"><ele>469.99999999999994</ele><time>2026-04-18T13:29:35Z</time></trkpt><trkpt lat="43.26582002824907" lon="10.804288738565836"><ele>470.0</ele><time>2026-04-18T13:29:36Z</time></trkpt><trkpt lat="43.26575983046219" lon="10.804246541917907"><ele>470.0</ele><time>2026-04-18T13:29:37Z</time></trkpt><trkpt lat="43.2657006919754" lon="10.804203499257946"><ele>469.99999999999994</ele><time>2026-04-18T13:29:38Z</time></trkpt><trkpt lat="43.26563917436007" lon="10.804161270772756"><ele>470.0</ele><time>2026-04-18T13:29:39Z</time></trkpt><trkpt lat="43.26557926163944" lon="10.804112022238554"><ele>470.0</ele><time>2026-04-18T13:29:40Z</time></trkpt><trkpt lat="43.26553988052337" lon="10.804029579714841"><ele>470.6</ele><time>2026-04-18T13:29:41Z</time></trkpt><trkpt lat="43.26549700065024" lon="10.80395843116682"><ele>471.2</ele><time>2026-04-18T13:29:42Z</time></trkpt><trkpt lat="43.26546112563169" lon="10.803884585973508"><ele>471.79999999999995</ele><time>2026-04-18T13:29:43Z</time></trkpt><trkpt lat="43.26542383308495" lon="10.803733821175717"><ele>472.4</ele><time>2026-04-18T13:29:45Z</time></trkpt><trkpt lat="43.26536107070408" lon="10.803588397808065"><ele>473.0</ele><time>2026-04-18T13:29:47Z</time></trkpt><trkpt lat="43.26525257306977" lon="10.803524059200933"><ele>472.99999999999994</ele><time>2026-04-18T13:29:49Z</time></trkpt><trkpt lat="43.265182067711706" lon="10.803508378950148"><ele>473.0</ele><time>2026-04-18T13:29:50Z</time></trkpt><trkpt lat="43.265103918978205" lon="10.803479691687489"><ele>473.0</ele><time>2026-04-18T13:29:51Z</time></trkpt><trkpt lat="43.265013679165236" lon="10.8034743914044"><ele>473.0</ele><time>2026-04-18T13:29:52Z</time></trkpt><trkpt lat="43.26492271652376" lon="10.803475344275325"><ele>472.99999999999994</ele><time>2026-04-18T13:29:53Z</time></trkpt><trkpt lat="43.264827968642585" lon="10.803496779968208"><ele>473.0</ele><time>2026-04-18T13:29:54Z</time></trkpt><trkpt lat="43.26472985567339" lon="10.80348685210301"><ele>474.0</ele><time>2026-04-18T13:29:55Z</time></trkpt><trkpt lat="43.264630564326204" lon="10.8034902380827"><ele>474.99999999999994</ele><time>2026-04-18T13:29:56Z</time></trkpt><trkpt lat="43.264532172314475" lon="10.803502867593842"><ele>475.99999999999994</ele><time>2026-04-18T13:29:57Z</time></trkpt><trkpt lat="43.264431591820106" lon="10.803518512391513"><ele>477.0</ele><time>2026-04-18T13:29:58Z</time></trkpt><trkpt lat="43.264334170735424" lon="10.803533220345232"><ele>478.0</ele><time>2026-04-18T13:29:59Z</time></trkpt><trkpt lat="43.26423491570101" lon="10.803536024112177"><ele>478.00000000000006</ele><time>2026-04-18T13:30:00Z</time></trkpt><trkpt lat="43.26414875469825" lon="10.803522437512191"><ele>478.0</ele><time>2026-04-18T13:30:01Z</time></trkpt><trkpt lat="43.26408371124196" lon="10.803456508014326"><ele>478.0</ele><time>2026-04-18T13:30:02Z</time></trkpt><trkpt lat="43.26401987205674" lon="10.80339657084982"><ele>478.0</ele><time>2026-04-18T13:30:03Z</time></trkpt><trkpt lat="43.263966502034265" lon="10.803333620175495"><ele>478.00000000000006</ele><time>2026-04-18T13:30:04Z</time></trkpt><trkpt lat="43.26391141555128" lon="10.803269844940916"><ele>478.0</ele><time>2026-04-18T13:30:05Z</time></trkpt><trkpt lat="43.2638612244517" lon="10.803211216651073"><ele>475.83333333333337</ele><time>2026-04-18T13:30:06Z</time></trkpt><trkpt lat="43.2638153833743" lon="10.803146537570777"><ele>473.6666666666667</ele><time>2026-04-18T13:30:07Z</time></trkpt><trkpt lat="43.263747388250806" lon="10.80304767455531"><ele>471.5</ele><time>2026-04-18T13:30:09Z</time></trkpt><trkpt lat="43.263705089660256" lon="10.802979185163263"><ele>469.33333333333337</ele><time>2026-04-18T13:30:12Z</time></trkpt><trkpt lat="43.26366127573189" lon="10.802891988733604"><ele>467.1666666666667</ele><time>2026-04-18T13:30:17Z</time></trkpt><trkpt lat="43.263630004241065" lon="10.80279906930962"><ele>465.0</ele><time>2026-04-18T13:30:19.999Z</time></trkpt><trkpt lat="43.263602704050975" lon="10.80268491132801"><ele>465.2</ele><time>2026-04-18T13:30:21.999Z</time></trkpt><trkpt lat="43.2635898644474" lon="10.802558432762625"><ele>465.4</ele><time>2026-04-18T13:30:23.999Z</time></trkpt><trkpt lat="43.26359181334629" lon="10.80243542671692"><ele>465.6</ele><time>2026-04-18T13:30:25.999Z</time></trkpt><trkpt lat="43.26360313865916" lon="10.802282192062204"><ele>465.8</ele><time>2026-04-18T13:30:27.999Z</time></trkpt><trkpt lat="43.2636087750593" lon="10.802106495110392"><ele>466.0</ele><time>2026-04-18T13:30:29.999Z</time></trkpt><trkpt lat="43.26362535239134" lon="10.80201019436168"><ele>466.00000000000006</ele><time>2026-04-18T13:30:30.999Z</time></trkpt><trkpt lat="43.26364217077871" lon="10.801907082322947"><ele>466.0</ele><time>2026-04-18T13:30:31.999Z</time></trkpt><trkpt lat="43.26368175425524" lon="10.801803115800375"><ele>466.0</ele><time>2026-04-18T13:30:32.999Z</time></trkpt><trkpt lat="43.263713542203675" lon="10.801692186253076"><ele>466.0</ele><time>2026-04-18T13:30:33.999Z</time></trkpt><trkpt lat="43.263748355496574" lon="10.801584130430227"><ele>466.00000000000006</ele><time>2026-04-18T13:30:34.999Z</time></trkpt><trkpt lat="43.2637855627184" lon="10.80148616672112"><ele>466.0</ele><time>2026-04-18T13:30:35.999Z</time></trkpt><trkpt lat="43.26382769429442" lon="10.801393397759986"><ele>466.0</ele><time>2026-04-18T13:30:36.999Z</time></trkpt><trkpt lat="43.26387039446572" lon="10.801291905139788"><ele>466.0</ele><time>2026-04-18T13:30:37.999Z</time></trkpt><trkpt lat="43.26390574075079" lon="10.801181865612016"><ele>466.0</ele><time>2026-04-18T13:30:38.999Z</time></trkpt><trkpt lat="43.26392849593065" lon="10.801053096139299"><ele>466.0</ele><time>2026-04-18T13:30:39.999Z</time></trkpt><trkpt lat="43.26391911050069" lon="10.800926143740748"><ele>466.0</ele><time>2026-04-18T13:30:40.999Z</time></trkpt><trkpt lat="43.26387404696953" lon="10.800811762808605"><ele>465.50000000000006</ele><time>2026-04-18T13:30:41.999Z</time></trkpt><trkpt lat="43.2638208381194" lon="10.800724989895183"><ele>465.0</ele><time>2026-04-18T13:30:42.999Z</time></trkpt><trkpt lat="43.26375713698329" lon="10.800658943600007"><ele>464.5</ele><time>2026-04-18T13:30:43.999Z</time></trkpt><trkpt lat="43.263683335575294" lon="10.800611628496952"><ele>464.0</ele><time>2026-04-18T13:30:44.999Z</time></trkpt><trkpt lat="43.26362285256778" lon="10.800525582444322"><ele>463.50000000000006</ele><time>2026-04-18T13:30:45.999Z</time></trkpt><trkpt lat="43.26355379990036" lon="10.800452255181513"><ele>463.0</ele><time>2026-04-18T13:30:46.999Z</time></trkpt><trkpt lat="43.26348281878619" lon="10.800377321868753"><ele>463.0</ele><time>2026-04-18T13:30:47.999Z</time></trkpt><trkpt lat="43.26340918954262" lon="10.800300128570896"><ele>462.99999999999994</ele><time>2026-04-18T13:30:48.999Z</time></trkpt><trkpt lat="43.26333018295177" lon="10.800219635976337"><ele>462.99999999999994</ele><time>2026-04-18T13:30:49.999Z</time></trkpt><trkpt lat="43.26324749374411" lon="10.800137710248922"><ele>463.0</ele><time>2026-04-18T13:30:50.999Z</time></trkpt><trkpt lat="43.26316003489306" lon="10.800055700004398"><ele>463.0</ele><time>2026-04-18T13:30:51.999Z</time></trkpt><trkpt lat="43.263068121905846" lon="10.79997066460705"><ele>464.2</ele><time>2026-04-18T13:30:52.999Z</time></trkpt><trkpt lat="43.26297743771853" lon="10.799889403227324"><ele>465.4</ele><time>2026-04-18T13:30:53.999Z</time></trkpt><trkpt lat="43.26287681611809" lon="10.79981986287113"><ele>466.59999999999997</ele><time>2026-04-18T13:30:54.999Z</time></trkpt><trkpt lat="43.2627862450966" lon="10.79972977145293"><ele>467.79999999999995</ele><time>2026-04-18T13:30:55.999Z</time></trkpt><trkpt lat="43.26269832671899" lon="10.799643747229357"><ele>469.0</ele><time>2026-04-18T13:30:56.999Z</time></trkpt><trkpt lat="43.26262009339905" lon="10.799566614749912"><ele>469.00000000000006</ele><time>2026-04-18T13:30:57.999Z</time></trkpt><trkpt lat="43.2625658100944" lon="10.799477546142771"><ele>469.0</ele><time>2026-04-18T13:30:58.999Z</time></trkpt><trkpt lat="43.2625042134385" lon="10.79941145576462"><ele>469.0</ele><time>2026-04-18T13:30:59.999Z</time></trkpt><trkpt lat="43.26244802798187" lon="10.79934014903842"><ele>469.0</ele><time>2026-04-18T13:31:00.999Z</time></trkpt><trkpt lat="43.26240569604538" lon="10.79926222344621"><ele>469.00000000000006</ele><time>2026-04-18T13:31:01.999Z</time></trkpt><trkpt lat="43.26236632016395" lon="10.799159436140997"><ele>469.0</ele><time>2026-04-18T13:31:02.999Z</time></trkpt><trkpt lat="43.26233277433267" lon="10.79904687451822"><ele>470.2</ele><time>2026-04-18T13:31:03.999Z</time></trkpt><trkpt lat="43.26230003002906" lon="10.79891924738835"><ele>471.4</ele><time>2026-04-18T13:31:04.999Z</time></trkpt><trkpt lat="43.26226607437102" lon="10.79878608066071"><ele>472.6</ele><time>2026-04-18T13:31:05.999Z</time></trkpt><trkpt lat="43.2622322686338" lon="10.798651166773462"><ele>473.8</ele><time>2026-04-18T13:31:06.999Z</time></trkpt><trkpt lat="43.26219913467693" lon="10.798506993662853"><ele>475.0</ele><time>2026-04-18T13:31:07.999Z</time></trkpt><trkpt lat="43.262167532557115" lon="10.79836948606375"><ele>477.8</ele><time>2026-04-18T13:31:08.999Z</time></trkpt><trkpt lat="43.26213620816327" lon="10.798233187101573"><ele>480.6</ele><time>2026-04-18T13:31:09.999Z</time></trkpt><trkpt lat="43.26210405416769" lon="10.798094860310252"><ele>483.4</ele><time>2026-04-18T13:31:10.999Z</time></trkpt><trkpt lat="43.262072864598004" lon="10.797963758730042"><ele>486.2</ele><time>2026-04-18T13:31:11.999Z</time></trkpt><trkpt lat="43.2620426768582" lon="10.797836868778374"><ele>489.0</ele><time>2026-04-18T13:31:12.999Z</time></trkpt><trkpt lat="43.26201325466477" lon="10.797715147724809"><ele>488.6</ele><time>2026-04-18T13:31:13.999Z</time></trkpt><trkpt lat="43.26198437069807" lon="10.797597380038436"><ele>488.2</ele><time>2026-04-18T13:31:15Z</time></trkpt><trkpt lat="43.26195293134352" lon="10.797477473314892"><ele>487.80000000000007</ele><time>2026-04-18T13:31:16Z</time></trkpt><trkpt lat="43.26191837572868" lon="10.797350624100943"><ele>487.40000000000003</ele><time>2026-04-18T13:31:17Z</time></trkpt><trkpt lat="43.26188277662292" lon="10.797225817117527"><ele>487.0</ele><time>2026-04-18T13:31:18Z</time></trkpt><trkpt lat="43.26184594664231" lon="10.797103897935513"><ele>487.00000000000006</ele><time>2026-04-18T13:31:19Z</time></trkpt><trkpt lat="43.261812019833634" lon="10.796991588454352"><ele>487.0</ele><time>2026-04-18T13:31:20Z</time></trkpt><trkpt lat="43.26177342198994" lon="10.79690389129327"><ele>487.0</ele><time>2026-04-18T13:31:21Z</time></trkpt><trkpt lat="43.26175623636479" lon="10.79680892686903"><ele>487.0</ele><time>2026-04-18T13:31:22Z</time></trkpt><trkpt lat="43.26172477279071" lon="10.796716332932416"><ele>487.00000000000006</ele><time>2026-04-18T13:31:23Z</time></trkpt><trkpt lat="43.261683365919986" lon="10.796621987678984"><ele>487.0</ele><time>2026-04-18T13:31:24Z</time></trkpt><trkpt lat="43.261654908920235" lon="10.796508225941869"><ele>485.83333333333337</ele><time>2026-04-18T13:31:25Z</time></trkpt><trkpt lat="43.26162296536649" lon="10.796401672730054"><ele>484.6666666666667</ele><time>2026-04-18T13:31:26Z</time></trkpt><trkpt lat="43.26159079860364" lon="10.796295674975914"><ele>483.5</ele><time>2026-04-18T13:31:27Z</time></trkpt><trkpt lat="43.261555630820084" lon="10.796183802263386"><ele>482.33333333333337</ele><time>2026-04-18T13:31:28Z</time></trkpt><trkpt lat="43.26151828913368" lon="10.796072717539221"><ele>481.1666666666667</ele><time>2026-04-18T13:31:29Z</time></trkpt><trkpt lat="43.26148304353005" lon="10.795967868319078"><ele>480.0</ele><time>2026-04-18T13:31:30Z</time></trkpt><trkpt lat="43.26143708987957" lon="10.795874620703866"><ele>479.5</ele><time>2026-04-18T13:31:31Z</time></trkpt><trkpt lat="43.26140990034443" lon="10.79576983412239"><ele>479.0</ele><time>2026-04-18T13:31:32Z</time></trkpt><trkpt lat="43.26137637811313" lon="10.795667104812152"><ele>478.5</ele><time>2026-04-18T13:31:33Z</time></trkpt><trkpt lat="43.26133559127637" lon="10.795560217005388"><ele>478.0</ele><time>2026-04-18T13:31:34Z</time></trkpt><trkpt lat="43.26129281163191" lon="10.795454657349936"><ele>477.5</ele><time>2026-04-18T13:31:35Z</time></trkpt><trkpt lat="43.261243601660006" lon="10.795347549472469"><ele>477.0</ele><time>2026-04-18T13:31:36Z</time></trkpt><trkpt lat="43.261189996801214" lon="10.795241694406524"><ele>475.40000000000003</ele><time>2026-04-18T13:31:37Z</time></trkpt><trkpt lat="43.26113171815494" lon="10.795132510290525"><ele>473.80000000000007</ele><time>2026-04-18T13:31:38Z</time></trkpt><trkpt lat="43.26106891899996" lon="10.795021176824795"><ele>472.2</ele><time>2026-04-18T13:31:39Z</time></trkpt><trkpt lat="43.2610054390876" lon="10.794907920376321"><ele>470.6</ele><time>2026-04-18T13:31:40Z</time></trkpt><trkpt lat="43.26094253906391" lon="10.794793180911398"><ele>469.0</ele><time>2026-04-18T13:31:41Z</time></trkpt><trkpt lat="43.260880454255975" lon="10.79467329803499"><ele>469.0</ele><time>2026-04-18T13:31:42Z</time></trkpt><trkpt lat="43.26082059843107" lon="10.794553295932882"><ele>469.0</ele><time>2026-04-18T13:31:43Z</time></trkpt><trkpt lat="43.26077807539518" lon="10.79441765797483"><ele>469.0</ele><time>2026-04-18T13:31:44Z</time></trkpt><trkpt lat="43.26072251126972" lon="10.794292663361048"><ele>469.0</ele><time>2026-04-18T13:31:45Z</time></trkpt><trkpt lat="43.260668235132165" lon="10.794167900451466"><ele>469.0</ele><time>2026-04-18T13:31:46Z</time></trkpt><trkpt lat="43.2606142634062" lon="10.794040657093234"><ele>467.0</ele><time>2026-04-18T13:31:47Z</time></trkpt><trkpt lat="43.26056405739282" lon="10.79391454941292"><ele>465.0</ele><time>2026-04-18T13:31:48Z</time></trkpt><trkpt lat="43.26051740331097" lon="10.793786115303615"><ele>463.0</ele><time>2026-04-18T13:31:49Z</time></trkpt><trkpt lat="43.26047421817014" lon="10.793655213364126"><ele>461.0</ele><time>2026-04-18T13:31:50Z</time></trkpt><trkpt lat="43.26043176474979" lon="10.793526529865238"><ele>459.0</ele><time>2026-04-18T13:31:51Z</time></trkpt><trkpt lat="43.26038116624657" lon="10.793402249650699"><ele>459.0</ele><time>2026-04-18T13:31:52Z</time></trkpt><trkpt lat="43.26034086576366" lon="10.793272236731783"><ele>459.0</ele><time>2026-04-18T13:31:53Z</time></trkpt><trkpt lat="43.26029602662487" lon="10.793148558630334"><ele>459.0</ele><time>2026-04-18T13:31:54Z</time></trkpt><trkpt lat="43.2602473535671" lon="10.793030321729006"><ele>459.0</ele><time>2026-04-18T13:31:55Z</time></trkpt><trkpt lat="43.26019624680066" lon="10.792910718501027"><ele>459.0</ele><time>2026-04-18T13:31:56Z</time></trkpt><trkpt lat="43.260143800183165" lon="10.7927931107291"><ele>459.0</ele><time>2026-04-18T13:31:57Z</time></trkpt><trkpt lat="43.26009055517642" lon="10.792677045822208"><ele>459.0</ele><time>2026-04-18T13:31:58Z</time></trkpt><trkpt lat="43.26003220342014" lon="10.79256510096474"><ele>459.0</ele><time>2026-04-18T13:31:59Z</time></trkpt><trkpt lat="43.25996884889578" lon="10.792449718871072"><ele>459.0</ele><time>2026-04-18T13:32:00Z</time></trkpt><trkpt lat="43.25990449557626" lon="10.792328778711834"><ele>459.0</ele><time>2026-04-18T13:32:01Z</time></trkpt><trkpt lat="43.25983572208094" lon="10.792202962081575"><ele>458.75</ele><time>2026-04-18T13:32:02Z</time></trkpt><trkpt lat="43.25976222312467" lon="10.792074236708272"><ele>458.5</ele><time>2026-04-18T13:32:03Z</time></trkpt><trkpt lat="43.25968373151865" lon="10.791948552465573"><ele>458.25</ele><time>2026-04-18T13:32:04Z</time></trkpt><trkpt lat="43.259604655858496" lon="10.79182415684423"><ele>458.0</ele><time>2026-04-18T13:32:05Z</time></trkpt><trkpt lat="43.25952268320713" lon="10.79170456822839"><ele>458.0</ele><time>2026-04-18T13:32:06Z</time></trkpt><trkpt lat="43.25944043067288" lon="10.791584598964766"><ele>458.0</ele><time>2026-04-18T13:32:07Z</time></trkpt><trkpt lat="43.25936310070534" lon="10.791455609061105"><ele>458.0</ele><time>2026-04-18T13:32:08Z</time></trkpt><trkpt lat="43.259290226312196" lon="10.79132185887326"><ele>458.0</ele><time>2026-04-18T13:32:09Z</time></trkpt><trkpt lat="43.259218197183266" lon="10.791184281788153"><ele>458.0</ele><time>2026-04-18T13:32:10Z</time></trkpt><trkpt lat="43.25916304046177" lon="10.791033403028363"><ele>458.0</ele><time>2026-04-18T13:32:11Z</time></trkpt><trkpt lat="43.259098782826904" lon="10.790894432617415"><ele>458.0</ele><time>2026-04-18T13:32:12Z</time></trkpt><trkpt lat="43.259038505922874" lon="10.790758331264497"><ele>458.0</ele><time>2026-04-18T13:32:13Z</time></trkpt><trkpt lat="43.25897184712783" lon="10.790634787496833"><ele>457.79999999999995</ele><time>2026-04-18T13:32:14Z</time></trkpt><trkpt lat="43.258931684373735" lon="10.79049563313632"><ele>457.59999999999997</ele><time>2026-04-18T13:32:15Z</time></trkpt><trkpt lat="43.25887999702894" lon="10.7903685226213"><ele>457.40000000000003</ele><time>2026-04-18T13:32:16Z</time></trkpt><trkpt lat="43.25883049212047" lon="10.790241574668578"><ele>457.20000000000005</ele><time>2026-04-18T13:32:17Z</time></trkpt><trkpt lat="43.25878388664785" lon="10.790115770520218"><ele>457.0</ele><time>2026-04-18T13:32:18Z</time></trkpt><trkpt lat="43.25873917475495" lon="10.789987785681014"><ele>457.0</ele><time>2026-04-18T13:32:19Z</time></trkpt><trkpt lat="43.25869685357315" lon="10.789862238879135"><ele>457.00000000000006</ele><time>2026-04-18T13:32:20Z</time></trkpt><trkpt lat="43.25865804151218" lon="10.789736580211356"><ele>457.00000000000006</ele><time>2026-04-18T13:32:21Z</time></trkpt><trkpt lat="43.25861933165881" lon="10.789603448002293"><ele>457.0</ele><time>2026-04-18T13:32:22Z</time></trkpt><trkpt lat="43.258584402093945" lon="10.789469043711469"><ele>457.0</ele><time>2026-04-18T13:32:23Z</time></trkpt><trkpt lat="43.25855211126554" lon="10.789335191691698"><ele>456.6</ele><time>2026-04-18T13:32:24Z</time></trkpt><trkpt lat="43.25852280058297" lon="10.789199750182558"><ele>456.20000000000005</ele><time>2026-04-18T13:32:25Z</time></trkpt><trkpt lat="43.25849639748229" lon="10.789059159633545"><ele>455.8</ele><time>2026-04-18T13:32:25.998Z</time></trkpt><trkpt lat="43.258475010662366" lon="10.788914859583919"><ele>455.4</ele><time>2026-04-18T13:32:26.998Z</time></trkpt><trkpt lat="43.25846004858618" lon="10.788768258476038"><ele>455.0</ele><time>2026-04-18T13:32:27.998Z</time></trkpt><trkpt lat="43.25845237717171" lon="10.78861635075441"><ele>455.0</ele><time>2026-04-18T13:32:28.998Z</time></trkpt><trkpt lat="43.2584484966663" lon="10.788464612929463"><ele>455.0</ele><time>2026-04-18T13:32:29.998Z</time></trkpt><trkpt lat="43.25844545605528" lon="10.788310360183006"><ele>455.0</ele><time>2026-04-18T13:32:30.998Z</time></trkpt><trkpt lat="43.25844296544324" lon="10.788156670744781"><ele>455.0</ele><time>2026-04-18T13:32:31.998Z</time></trkpt><trkpt lat="43.25844379249479" lon="10.787998621474944"><ele>455.0</ele><time>2026-04-18T13:32:32.998Z</time></trkpt><trkpt lat="43.258444606742856" lon="10.787843018069177"><ele>455.0</ele><time>2026-04-18T13:32:33.998Z</time></trkpt><trkpt lat="43.25844141651669" lon="10.787697420358636"><ele>455.0</ele><time>2026-04-18T13:32:34.998Z</time></trkpt><trkpt lat="43.25842773831662" lon="10.78756749740863"><ele>455.0</ele><time>2026-04-18T13:32:35.998Z</time></trkpt><trkpt lat="43.25840241337708" lon="10.787445034808783"><ele>455.0</ele><time>2026-04-18T13:32:36.998Z</time></trkpt><trkpt lat="43.258364194740516" lon="10.787332258186943"><ele>455.4</ele><time>2026-04-18T13:32:37.998Z</time></trkpt><trkpt lat="43.25830553687501" lon="10.787230536178473"><ele>455.8</ele><time>2026-04-18T13:32:38.998Z</time></trkpt><trkpt lat="43.25823322723798" lon="10.787151093466257"><ele>456.20000000000005</ele><time>2026-04-18T13:32:39.999Z</time></trkpt><trkpt lat="43.25814913787991" lon="10.78708986100278"><ele>456.6</ele><time>2026-04-18T13:32:40.999Z</time></trkpt><trkpt lat="43.25807609285373" lon="10.787025173148432"><ele>457.0</ele><time>2026-04-18T13:32:41.999Z</time></trkpt><trkpt lat="43.25799687408571" lon="10.786959934081148"><ele>455.20000000000005</ele><time>2026-04-18T13:32:42.999Z</time></trkpt><trkpt lat="43.257916465122996" lon="10.786892853854566"><ele>453.40000000000003</ele><time>2026-04-18T13:32:43.999Z</time></trkpt><trkpt lat="43.257838887345514" lon="10.78682331038385"><ele>451.59999999999997</ele><time>2026-04-18T13:32:44.999Z</time></trkpt><trkpt lat="43.25776375948659" lon="10.786748950781844"><ele>449.79999999999995</ele><time>2026-04-18T13:32:45.999Z</time></trkpt><trkpt lat="43.25769318035533" lon="10.78667054910927"><ele>448.0</ele><time>2026-04-18T13:32:46.999Z</time></trkpt><trkpt lat="43.257620932104594" lon="10.786584246008209"><ele>448.0</ele><time>2026-04-18T13:32:47.999Z</time></trkpt><trkpt lat="43.25754742735977" lon="10.786495377720826"><ele>447.99999999999994</ele><time>2026-04-18T13:32:48.999Z</time></trkpt><trkpt lat="43.257473373144684" lon="10.7864011405398"><ele>447.99999999999994</ele><time>2026-04-18T13:32:49.999Z</time></trkpt><trkpt lat="43.25740103818225" lon="10.786305003982164"><ele>448.0</ele><time>2026-04-18T13:32:50.999Z</time></trkpt><trkpt lat="43.25732969633259" lon="10.786206095429234"><ele>448.0</ele><time>2026-04-18T13:32:51.999Z</time></trkpt><trkpt lat="43.257266501796295" lon="10.786119341578269"><ele>446.00000000000006</ele><time>2026-04-18T13:32:52.999Z</time></trkpt><trkpt lat="43.2572226117884" lon="10.786045397531817"><ele>444.0</ele><time>2026-04-18T13:32:53.999Z</time></trkpt><trkpt lat="43.25718706038314" lon="10.78590399644016"><ele>442.0</ele><time>2026-04-18T13:32:55.999Z</time></trkpt><trkpt lat="43.25719287052983" lon="10.785739296411446"><ele>440.0</ele><time>2026-04-18T13:32:57.999Z</time></trkpt><trkpt lat="43.257200201520504" lon="10.785649233228101"><ele>438.00000000000006</ele><time>2026-04-18T13:32:58.999Z</time></trkpt><trkpt lat="43.257211975336304" lon="10.785545538598695"><ele>436.0</ele><time>2026-04-18T13:32:59.999Z</time></trkpt><trkpt lat="43.25721837772614" lon="10.785426523022695"><ele>436.00000000000006</ele><time>2026-04-18T13:33:00.999Z</time></trkpt><trkpt lat="43.25721643021889" lon="10.785296092057052"><ele>436.0</ele><time>2026-04-18T13:33:01.999Z</time></trkpt><trkpt lat="43.2571896243325" lon="10.785169831847375"><ele>436.0</ele><time>2026-04-18T13:33:02.999Z</time></trkpt><trkpt lat="43.25712856690774" lon="10.785073939440455"><ele>436.0</ele><time>2026-04-18T13:33:03.999Z</time></trkpt><trkpt lat="43.25708531586296" lon="10.784991659211943"><ele>436.00000000000006</ele><time>2026-04-18T13:33:04.999Z</time></trkpt><trkpt lat="43.2570432907896" lon="10.784911713835257"><ele>436.0</ele><time>2026-04-18T13:33:05.999Z</time></trkpt><trkpt lat="43.257004676837674" lon="10.78483825564053"><ele>436.8</ele><time>2026-04-18T13:33:06.999Z</time></trkpt><trkpt lat="43.256944626178246" lon="10.784693177626519"><ele>437.6</ele><time>2026-04-18T13:33:08.999Z</time></trkpt><trkpt lat="43.256893114544205" lon="10.784526936141091"><ele>438.4</ele><time>2026-04-18T13:33:10.999Z</time></trkpt><trkpt lat="43.256866225349086" lon="10.784421687063997"><ele>439.2</ele><time>2026-04-18T13:33:11.999Z</time></trkpt><trkpt lat="43.25683967689466" lon="10.78430892271442"><ele>440.0</ele><time>2026-04-18T13:33:12.999Z</time></trkpt><trkpt lat="43.25681649787318" lon="10.784186973239482"><ele>440.8</ele><time>2026-04-18T13:33:13.999Z</time></trkpt><trkpt lat="43.25679909187273" lon="10.784063738635854"><ele>441.6</ele><time>2026-04-18T13:33:14.999Z</time></trkpt><trkpt lat="43.256787021740635" lon="10.783939732709857"><ele>442.4</ele><time>2026-04-18T13:33:15.999Z</time></trkpt><trkpt lat="43.25677382703596" lon="10.783809015842213"><ele>443.2</ele><time>2026-04-18T13:33:16.999Z</time></trkpt><trkpt lat="43.25676070268912" lon="10.783678996037423"><ele>444.0</ele><time>2026-04-18T13:33:17.999Z</time></trkpt><trkpt lat="43.25674738642665" lon="10.783547074989603"><ele>445.0</ele><time>2026-04-18T13:33:18.999Z</time></trkpt><trkpt lat="43.256734105067146" lon="10.783426546340884"><ele>446.0</ele><time>2026-04-18T13:33:19.999Z</time></trkpt><trkpt lat="43.256713099139105" lon="10.783304961188769"><ele>447.0</ele><time>2026-04-18T13:33:20.999Z</time></trkpt><trkpt lat="43.25667344063398" lon="10.783178814415653"><ele>448.0</ele><time>2026-04-18T13:33:21.999Z</time></trkpt><trkpt lat="43.25659952103287" lon="10.78306862608871"><ele>449.0</ele><time>2026-04-18T13:33:22.999Z</time></trkpt><trkpt lat="43.25649125093713" lon="10.783035887339086"><ele>449.3333333333333</ele><time>2026-04-18T13:33:23.999Z</time></trkpt><trkpt lat="43.25640390142375" lon="10.78303840990419"><ele>449.66666666666663</ele><time>2026-04-18T13:33:24.999Z</time></trkpt><trkpt lat="43.25632333949157" lon="10.783037518527244"><ele>450.0</ele><time>2026-04-18T13:33:25.999Z</time></trkpt><trkpt lat="43.25624483780148" lon="10.783036739129884"><ele>450.33333333333337</ele><time>2026-04-18T13:33:27Z</time></trkpt><trkpt lat="43.25616659940834" lon="10.783034870369791"><ele>450.6666666666667</ele><time>2026-04-18T13:33:28Z</time></trkpt><trkpt lat="43.256090710270385" lon="10.783030910071405"><ele>451.0</ele><time>2026-04-18T13:33:29Z</time></trkpt><trkpt lat="43.25601607206384" lon="10.783027015092989"><ele>451.00000000000006</ele><time>2026-04-18T13:33:30Z</time></trkpt><trkpt lat="43.255944752186096" lon="10.783014434208262"><ele>451.0</ele><time>2026-04-18T13:33:31Z</time></trkpt><trkpt lat="43.25587769159986" lon="10.782990807243964"><ele>451.0</ele><time>2026-04-18T13:33:32Z</time></trkpt><trkpt lat="43.255769629191455" lon="10.782886858446357"><ele>451.0</ele><time>2026-04-18T13:33:34Z</time></trkpt><trkpt lat="43.255710636170356" lon="10.782818451410197"><ele>451.00000000000006</ele><time>2026-04-18T13:33:35Z</time></trkpt><trkpt lat="43.2556465892949" lon="10.78274363644736"><ele>451.0</ele><time>2026-04-18T13:33:36Z</time></trkpt><trkpt lat="43.25558798247528" lon="10.782672625297598"><ele>451.00000000000006</ele><time>2026-04-18T13:33:37Z</time></trkpt><trkpt lat="43.25552561295249" lon="10.782591554723217"><ele>451.0</ele><time>2026-04-18T13:33:38Z</time></trkpt><trkpt lat="43.25547092711073" lon="10.782513876904126"><ele>451.0</ele><time>2026-04-18T13:33:39Z</time></trkpt><trkpt lat="43.25541999813021" lon="10.78243556849084"><ele>451.0</ele><time>2026-04-18T13:33:40Z</time></trkpt><trkpt lat="43.25536584464533" lon="10.78228841273725"><ele>451.00000000000006</ele><time>2026-04-18T13:33:42Z</time></trkpt><trkpt lat="43.25535334098622" lon="10.782203410335336"><ele>451.0</ele><time>2026-04-18T13:33:43Z</time></trkpt><trkpt lat="43.25532818994038" lon="10.782108864069784"><ele>451.00000000000006</ele><time>2026-04-18T13:33:44Z</time></trkpt><trkpt lat="43.25532228107249" lon="10.78200975443799"><ele>451.0</ele><time>2026-04-18T13:33:45Z</time></trkpt><trkpt lat="43.25530855149648" lon="10.78190869708445"><ele>451.0</ele><time>2026-04-18T13:33:46Z</time></trkpt><trkpt lat="43.25528069679997" lon="10.78180808777851"><ele>451.0</ele><time>2026-04-18T13:33:47Z</time></trkpt><trkpt lat="43.255240979992685" lon="10.781708485432848"><ele>451.00000000000006</ele><time>2026-04-18T13:33:48Z</time></trkpt><trkpt lat="43.25519547159817" lon="10.78161986343395"><ele>451.0</ele><time>2026-04-18T13:33:49Z</time></trkpt><trkpt lat="43.255158960243186" lon="10.781514911705337"><ele>452.1666666666667</ele><time>2026-04-18T13:33:50Z</time></trkpt><trkpt lat="43.25510179347206" lon="10.781422637279958"><ele>453.33333333333337</ele><time>2026-04-18T13:33:51Z</time></trkpt><trkpt lat="43.255035734610985" lon="10.781337942020897"><ele>454.5</ele><time>2026-04-18T13:33:52Z</time></trkpt><trkpt lat="43.25495525776998" lon="10.781276547391279"><ele>455.66666666666663</ele><time>2026-04-18T13:33:53Z</time></trkpt><trkpt lat="43.25488408798306" lon="10.781201853761237"><ele>456.8333333333333</ele><time>2026-04-18T13:33:54Z</time></trkpt><trkpt lat="43.25480842286946" lon="10.781143356782126"><ele>458.0</ele><time>2026-04-18T13:33:55Z</time></trkpt><trkpt lat="43.25472370161202" lon="10.781115810240552"><ele>457.99999999999994</ele><time>2026-04-18T13:33:56Z</time></trkpt><trkpt lat="43.25463697299883" lon="10.781089282253586"><ele>458.0</ele><time>2026-04-18T13:33:57Z</time></trkpt><trkpt lat="43.254549545684974" lon="10.781120813098765"><ele>458.0</ele><time>2026-04-18T13:33:58Z</time></trkpt><trkpt lat="43.25447386379265" lon="10.781158922881831"><ele>458.0</ele><time>2026-04-18T13:33:59Z</time></trkpt><trkpt lat="43.25439627485614" lon="10.781197522989672"><ele>457.99999999999994</ele><time>2026-04-18T13:34:00Z</time></trkpt><trkpt lat="43.2543222298492" lon="10.781230841071727"><ele>458.0</ele><time>2026-04-18T13:34:01Z</time></trkpt><trkpt lat="43.25425180640381" lon="10.781246897291025"><ele>457.99999999999994</ele><time>2026-04-18T13:34:02Z</time></trkpt><trkpt lat="43.254173514545535" lon="10.781237234180317"><ele>458.0</ele><time>2026-04-18T13:34:03Z</time></trkpt><trkpt lat="43.254096333807" lon="10.781197448234614"><ele>458.0</ele><time>2026-04-18T13:34:04Z</time></trkpt><trkpt lat="43.254014229291066" lon="10.781152852488237"><ele>458.0</ele><time>2026-04-18T13:34:05Z</time></trkpt><trkpt lat="43.25393844915428" lon="10.78108166987128"><ele>457.99999999999994</ele><time>2026-04-18T13:34:06Z</time></trkpt><trkpt lat="43.25386169713376" lon="10.781006068765613"><ele>458.0</ele><time>2026-04-18T13:34:07Z</time></trkpt><trkpt lat="43.25379116572329" lon="10.780908231860884"><ele>458.66666666666663</ele><time>2026-04-18T13:34:08Z</time></trkpt><trkpt lat="43.25372197933297" lon="10.780821366090112"><ele>459.3333333333333</ele><time>2026-04-18T13:34:09Z</time></trkpt><trkpt lat="43.253661749042095" lon="10.780734613708711"><ele>460.0</ele><time>2026-04-18T13:34:10Z</time></trkpt><trkpt lat="43.25361732724891" lon="10.780637208531369"><ele>460.66666666666663</ele><time>2026-04-18T13:34:11Z</time></trkpt><trkpt lat="43.25358612186072" lon="10.780526746775026"><ele>461.3333333333333</ele><time>2026-04-18T13:34:12Z</time></trkpt><trkpt lat="43.25355448835213" lon="10.78041103204713"><ele>462.0</ele><time>2026-04-18T13:34:13Z</time></trkpt><trkpt lat="43.25351264552913" lon="10.780293782549665"><ele>464.40000000000003</ele><time>2026-04-18T13:34:14Z</time></trkpt><trkpt lat="43.253462075552626" lon="10.780182383095623"><ele>466.80000000000007</ele><time>2026-04-18T13:34:15Z</time></trkpt><trkpt lat="43.25338733675765" lon="10.780098875892204"><ele>469.2</ele><time>2026-04-18T13:34:16Z</time></trkpt><trkpt lat="43.2533364918197" lon="10.779990759956618"><ele>471.6</ele><time>2026-04-18T13:34:17Z</time></trkpt><trkpt lat="43.25326915867417" lon="10.779897757769268"><ele>474.0</ele><time>2026-04-18T13:34:18Z</time></trkpt><trkpt lat="43.25319730084573" lon="10.779807123200882"><ele>474.0</ele><time>2026-04-18T13:34:19Z</time></trkpt><trkpt lat="43.253122496419955" lon="10.779720796950121"><ele>474.0</ele><time>2026-04-18T13:34:20Z</time></trkpt><trkpt lat="43.25304418814515" lon="10.779637353192962"><ele>474.0</ele><time>2026-04-18T13:34:21Z</time></trkpt><trkpt lat="43.252954856936604" lon="10.779570907277662"><ele>474.0</ele><time>2026-04-18T13:34:22Z</time></trkpt><trkpt lat="43.25287594446931" lon="10.779489366143892"><ele>474.0</ele><time>2026-04-18T13:34:23Z</time></trkpt><trkpt lat="43.252795856324965" lon="10.779407581435677"><ele>474.2</ele><time>2026-04-18T13:34:24Z</time></trkpt><trkpt lat="43.252711929384446" lon="10.779331151943056"><ele>474.4</ele><time>2026-04-18T13:34:25Z</time></trkpt><trkpt lat="43.25263533153056" lon="10.779242643476435"><ele>474.6</ele><time>2026-04-18T13:34:26Z</time></trkpt><trkpt lat="43.252552889675584" lon="10.779170470419334"><ele>474.8</ele><time>2026-04-18T13:34:27Z</time></trkpt><trkpt lat="43.252460200429496" lon="10.77911899982259"><ele>475.0</ele><time>2026-04-18T13:34:28Z</time></trkpt><trkpt lat="43.252376456853" lon="10.779042136236221"><ele>473.2</ele><time>2026-04-18T13:34:29Z</time></trkpt><trkpt lat="43.25228780305865" lon="10.778966267111059"><ele>471.4</ele><time>2026-04-18T13:34:30Z</time></trkpt><trkpt lat="43.252194052039385" lon="10.778886585740944"><ele>469.6</ele><time>2026-04-18T13:34:31Z</time></trkpt><trkpt lat="43.25209639348559" lon="10.778807160872303"><ele>467.8</ele><time>2026-04-18T13:34:31.999Z</time></trkpt><trkpt lat="43.251994817158256" lon="10.778725247499148"><ele>466.0</ele><time>2026-04-18T13:34:32.998Z</time></trkpt><trkpt lat="43.251897875060266" lon="10.778622235831957"><ele>466.0</ele><time>2026-04-18T13:34:33.999Z</time></trkpt><trkpt lat="43.251790643425906" lon="10.778536225808836"><ele>466.0</ele><time>2026-04-18T13:34:34.999Z</time></trkpt><trkpt lat="43.25168176150062" lon="10.778454350210287"><ele>466.0</ele><time>2026-04-18T13:34:35.999Z</time></trkpt><trkpt lat="43.251565607111715" lon="10.778395026719306"><ele>466.0</ele><time>2026-04-18T13:34:36.999Z</time></trkpt><trkpt lat="43.25145923412168" lon="10.778315086306876"><ele>467.5</ele><time>2026-04-18T13:34:37.999Z</time></trkpt><trkpt lat="43.25135091235429" lon="10.778244059127491"><ele>469.0</ele><time>2026-04-18T13:34:38.999Z</time></trkpt><trkpt lat="43.25124232112053" lon="10.778177932246804"><ele>470.5</ele><time>2026-04-18T13:34:39.999Z</time></trkpt><trkpt lat="43.251139987344104" lon="10.778109497876033"><ele>472.0</ele><time>2026-04-18T13:34:40.999Z</time></trkpt><trkpt lat="43.2510545764948" lon="10.778031076024607"><ele>472.00000000000006</ele><time>2026-04-18T13:34:41.999Z</time></trkpt><trkpt lat="43.2509746244573" lon="10.777987656831558"><ele>472.0</ele><time>2026-04-18T13:34:42.999Z</time></trkpt><trkpt lat="43.250902821051106" lon="10.777976075927167"><ele>472.0</ele><time>2026-04-18T13:34:43.999Z</time></trkpt><trkpt lat="43.25083333053922" lon="10.777938489115627"><ele>472.0</ele><time>2026-04-18T13:34:44.999Z</time></trkpt><trkpt lat="43.25075605277641" lon="10.777948397952755"><ele>472.00000000000006</ele><time>2026-04-18T13:34:45.999Z</time></trkpt><trkpt lat="43.250679714613256" lon="10.778007580461306"><ele>472.0</ele><time>2026-04-18T13:34:46.999Z</time></trkpt><trkpt lat="43.250597320645646" lon="10.778040070869858"><ele>472.6666666666667</ele><time>2026-04-18T13:34:47.999Z</time></trkpt><trkpt lat="43.25051321815864" lon="10.778074597361497"><ele>473.33333333333337</ele><time>2026-04-18T13:34:48.999Z</time></trkpt><trkpt lat="43.25042761931193" lon="10.778102532168703"><ele>474.0</ele><time>2026-04-18T13:34:49.999Z</time></trkpt><trkpt lat="43.25033469435465" lon="10.778103138625017"><ele>474.66666666666663</ele><time>2026-04-18T13:34:50.999Z</time></trkpt><trkpt lat="43.25024494947307" lon="10.778090348585994"><ele>475.3333333333333</ele><time>2026-04-18T13:34:51.999Z</time></trkpt><trkpt lat="43.25015923869353" lon="10.778079276255177"><ele>476.0</ele><time>2026-04-18T13:34:52.999Z</time></trkpt><trkpt lat="43.25007717394395" lon="10.778081176480388"><ele>476.0</ele><time>2026-04-18T13:34:53.999Z</time></trkpt><trkpt lat="43.250004454825074" lon="10.778096634800278"><ele>476.0</ele><time>2026-04-18T13:34:54.999Z</time></trkpt><trkpt lat="43.2498983729098" lon="10.778019106578707"><ele>476.0</ele><time>2026-04-18T13:34:56.999Z</time></trkpt><trkpt lat="43.24980048213357" lon="10.777941102470214"><ele>476.0</ele><time>2026-04-18T13:34:58.999Z</time></trkpt><trkpt lat="43.24970990189225" lon="10.777848630883755"><ele>476.0</ele><time>2026-04-18T13:35:00.999Z</time></trkpt><trkpt lat="43.24961858791284" lon="10.777736755151698"><ele>479.66666666666663</ele><time>2026-04-18T13:35:02.999Z</time></trkpt><trkpt lat="43.24952881502494" lon="10.777620109278923"><ele>483.3333333333333</ele><time>2026-04-18T13:35:04.999Z</time></trkpt><trkpt lat="43.249479580115015" lon="10.77755737524748"><ele>487.0</ele><time>2026-04-18T13:35:05.999Z</time></trkpt><trkpt lat="43.249427374506546" lon="10.777496018096022"><ele>490.66666666666663</ele><time>2026-04-18T13:35:06.999Z</time></trkpt><trkpt lat="43.24937800041805" lon="10.777432919587826"><ele>494.3333333333333</ele><time>2026-04-18T13:35:07.999Z</time></trkpt><trkpt lat="43.24932778643727" lon="10.777362330208044"><ele>498.0</ele><time>2026-04-18T13:35:08.999Z</time></trkpt><trkpt lat="43.24928009685114" lon="10.77728631688093"><ele>498.0</ele><time>2026-04-18T13:35:09.999Z</time></trkpt><trkpt lat="43.24925161004895" lon="10.777199986778045"><ele>497.99999999999994</ele><time>2026-04-18T13:35:10.999Z</time></trkpt><trkpt lat="43.24922308649792" lon="10.777107121609982"><ele>498.0</ele><time>2026-04-18T13:35:11.999Z</time></trkpt><trkpt lat="43.24920206934734" lon="10.77701059941511"><ele>498.0</ele><time>2026-04-18T13:35:12.999Z</time></trkpt><trkpt lat="43.24917782721674" lon="10.776914102752809"><ele>497.99999999999994</ele><time>2026-04-18T13:35:13.999Z</time></trkpt><trkpt lat="43.24913653799031" lon="10.776832186747999"><ele>498.0</ele><time>2026-04-18T13:35:14.999Z</time></trkpt><trkpt lat="43.24912276010809" lon="10.776737245724789"><ele>498.0</ele><time>2026-04-18T13:35:16Z</time></trkpt><trkpt lat="43.24909850978945" lon="10.776650822186374"><ele>497.2857142857143</ele><time>2026-04-18T13:35:17Z</time></trkpt><trkpt lat="43.24905900874434" lon="10.776574363414769"><ele>496.57142857142856</ele><time>2026-04-18T13:35:18Z</time></trkpt><trkpt lat="43.24900878049093" lon="10.776510228105694"><ele>495.85714285714283</ele><time>2026-04-18T13:35:19Z</time></trkpt><trkpt lat="43.24897411138246" lon="10.776435316253435"><ele>495.1428571428571</ele><time>2026-04-18T13:35:20Z</time></trkpt><trkpt lat="43.24891422635922" lon="10.776368389670333"><ele>494.42857142857144</ele><time>2026-04-18T13:35:21Z</time></trkpt><trkpt lat="43.248855027408446" lon="10.776308472708381"><ele>493.71428571428567</ele><time>2026-04-18T13:35:22Z</time></trkpt><trkpt lat="43.248806049751714" lon="10.776253628374098"><ele>493.0</ele><time>2026-04-18T13:35:23Z</time></trkpt><trkpt lat="43.248725266260784" lon="10.776124519404283"><ele>495.0</ele><time>2026-04-18T13:35:25Z</time></trkpt><trkpt lat="43.24865199133121" lon="10.775993180036979"><ele>496.99999999999994</ele><time>2026-04-18T13:35:27Z</time></trkpt><trkpt lat="43.2485810701705" lon="10.775883394514661"><ele>498.99999999999994</ele><time>2026-04-18T13:35:29Z</time></trkpt><trkpt lat="43.24853061341124" lon="10.775826555685352"><ele>501.0</ele><time>2026-04-18T13:35:30Z</time></trkpt><trkpt lat="43.24842696106395" lon="10.775759758395825"><ele>503.0</ele><time>2026-04-18T13:35:32Z</time></trkpt><trkpt lat="43.248303313638296" lon="10.775786030627925"><ele>503.0</ele><time>2026-04-18T13:35:34Z</time></trkpt><trkpt lat="43.248196747040666" lon="10.775849776140584"><ele>502.99999999999994</ele><time>2026-04-18T13:35:36Z</time></trkpt><trkpt lat="43.24809563313026" lon="10.775912537024208"><ele>502.99999999999994</ele><time>2026-04-18T13:35:38Z</time></trkpt><trkpt lat="43.24798935425494" lon="10.775967822730998"><ele>503.0</ele><time>2026-04-18T13:35:40Z</time></trkpt><trkpt lat="43.24792684290328" lon="10.775995409352747"><ele>503.0</ele><time>2026-04-18T13:35:41Z</time></trkpt><trkpt lat="43.24785144418637" lon="10.775980998520966"><ele>503.3333333333333</ele><time>2026-04-18T13:35:42Z</time></trkpt><trkpt lat="43.24777935170664" lon="10.77595705331833"><ele>503.66666666666663</ele><time>2026-04-18T13:35:43Z</time></trkpt><trkpt lat="43.24771561729803" lon="10.775897535573607"><ele>504.0</ele><time>2026-04-18T13:35:44Z</time></trkpt><trkpt lat="43.24763753158781" lon="10.775867786741609"><ele>504.33333333333337</ele><time>2026-04-18T13:35:45Z</time></trkpt><trkpt lat="43.247550535556314" lon="10.775863145282944"><ele>504.6666666666667</ele><time>2026-04-18T13:35:46Z</time></trkpt><trkpt lat="43.24746020080607" lon="10.775893988304263"><ele>505.0</ele><time>2026-04-18T13:35:47Z</time></trkpt><trkpt lat="43.247374374278216" lon="10.775956310345887"><ele>508.50000000000006</ele><time>2026-04-18T13:35:48Z</time></trkpt><trkpt lat="43.24730256153463" lon="10.776031438103386"><ele>512.0</ele><time>2026-04-18T13:35:49Z</time></trkpt><trkpt lat="43.24721712943397" lon="10.776077441269504"><ele>515.5</ele><time>2026-04-18T13:35:50Z</time></trkpt><trkpt lat="43.247134186189115" lon="10.776127779745512"><ele>519.0</ele><time>2026-04-18T13:35:51Z</time></trkpt><trkpt lat="43.24704935479769" lon="10.776169025481494"><ele>522.5</ele><time>2026-04-18T13:35:52Z</time></trkpt><trkpt lat="43.24696796345774" lon="10.77614932734012"><ele>526.0</ele><time>2026-04-18T13:35:53Z</time></trkpt><trkpt lat="43.246896386331244" lon="10.77613777625667"><ele>526.0</ele><time>2026-04-18T13:35:54Z</time></trkpt><trkpt lat="43.246835339944916" lon="10.776101879786825"><ele>526.0</ele><time>2026-04-18T13:35:55Z</time></trkpt><trkpt lat="43.24677520792474" lon="10.776056919654948"><ele>526.0</ele><time>2026-04-18T13:35:56Z</time></trkpt><trkpt lat="43.24672311641191" lon="10.775992550497495"><ele>526.0</ele><time>2026-04-18T13:35:57Z</time></trkpt><trkpt lat="43.24666654866401" lon="10.775910953761343"><ele>526.0</ele><time>2026-04-18T13:35:58Z</time></trkpt><trkpt lat="43.24660502124938" lon="10.775822604177733"><ele>526.0</ele><time>2026-04-18T13:35:59Z</time></trkpt><trkpt lat="43.24652977446863" lon="10.775735443301114"><ele>524.0</ele><time>2026-04-18T13:36:00Z</time></trkpt><trkpt lat="43.24645148413675" lon="10.775661392828512"><ele>522.0</ele><time>2026-04-18T13:36:01Z</time></trkpt><trkpt lat="43.246377220739575" lon="10.77559258051095"><ele>520.0</ele><time>2026-04-18T13:36:02Z</time></trkpt><trkpt lat="43.24631045246019" lon="10.7755170262958"><ele>518.0</ele><time>2026-04-18T13:36:03Z</time></trkpt><trkpt lat="43.24625540029523" lon="10.775426135034849"><ele>516.0</ele><time>2026-04-18T13:36:04Z</time></trkpt><trkpt lat="43.24620988711372" lon="10.77531796552689"><ele>514.0</ele><time>2026-04-18T13:36:05Z</time></trkpt><trkpt lat="43.2461618725508" lon="10.775210905366599"><ele>512.2</ele><time>2026-04-18T13:36:06Z</time></trkpt><trkpt lat="43.24610509401274" lon="10.775123113859307"><ele>510.4</ele><time>2026-04-18T13:36:07Z</time></trkpt><trkpt lat="43.24605130711744" lon="10.775041582575328"><ele>508.6</ele><time>2026-04-18T13:36:08Z</time></trkpt><trkpt lat="43.2459974676951" lon="10.774980308519895"><ele>506.8</ele><time>2026-04-18T13:36:09Z</time></trkpt><trkpt lat="43.245884220677254" lon="10.774977844629705"><ele>505.0</ele><time>2026-04-18T13:36:11Z</time></trkpt><trkpt lat="43.24577144727891" lon="10.775042727787941"><ele>505.0</ele><time>2026-04-18T13:36:13Z</time></trkpt><trkpt lat="43.245661840077744" lon="10.775070869935849"><ele>505.0</ele><time>2026-04-18T13:36:15Z</time></trkpt><trkpt lat="43.24557873176288" lon="10.77510308649931"><ele>505.0</ele><time>2026-04-18T13:36:18Z</time></trkpt><trkpt lat="43.24548295315189" lon="10.775092407007559"><ele>505.0</ele><time>2026-04-18T13:36:21Z</time></trkpt><trkpt lat="43.245392616439254" lon="10.775054844819337"><ele>505.0</ele><time>2026-04-18T13:36:23Z</time></trkpt><trkpt lat="43.245287893336915" lon="10.774969090932512"><ele>504.6666666666667</ele><time>2026-04-18T13:36:25Z</time></trkpt><trkpt lat="43.24522070200794" lon="10.774900947558297"><ele>504.33333333333337</ele><time>2026-04-18T13:36:26Z</time></trkpt><trkpt lat="43.24515096080242" lon="10.774857114353622"><ele>504.0</ele><time>2026-04-18T13:36:27Z</time></trkpt><trkpt lat="43.24508325950936" lon="10.774814563040845"><ele>503.66666666666663</ele><time>2026-04-18T13:36:28Z</time></trkpt><trkpt lat="43.24501177892142" lon="10.774769636459974"><ele>503.3333333333333</ele><time>2026-04-18T13:36:29Z</time></trkpt><trkpt lat="43.24493547448153" lon="10.774721677933554"><ele>503.0</ele><time>2026-04-18T13:36:30Z</time></trkpt><trkpt lat="43.24485133648104" lon="10.774668795929895"><ele>501.79999999999995</ele><time>2026-04-18T13:36:31Z</time></trkpt><trkpt lat="43.24476736111561" lon="10.774613979820183"><ele>500.59999999999997</ele><time>2026-04-18T13:36:32Z</time></trkpt><trkpt lat="43.244685442856344" lon="10.774558001108142"><ele>499.40000000000003</ele><time>2026-04-18T13:36:33Z</time></trkpt><trkpt lat="43.244599144046674" lon="10.774521345407441"><ele>498.20000000000005</ele><time>2026-04-18T13:36:34Z</time></trkpt><trkpt lat="43.244517928921866" lon="10.774457410872847"><ele>497.0</ele><time>2026-04-18T13:36:35Z</time></trkpt><trkpt lat="43.244436017986025" lon="10.774398761323262"><ele>497.8</ele><time>2026-04-18T13:36:36Z</time></trkpt><trkpt lat="43.24435230718541" lon="10.77434065492022"><ele>498.6</ele><time>2026-04-18T13:36:37Z</time></trkpt><trkpt lat="43.2442680665079" lon="10.774282654800546"><ele>499.40000000000003</ele><time>2026-04-18T13:36:37.999Z</time></trkpt><trkpt lat="43.24418483330387" lon="10.774215764135098"><ele>500.20000000000005</ele><time>2026-04-18T13:36:38.999Z</time></trkpt><trkpt lat="43.244112847108966" lon="10.774126314989406"><ele>501.0</ele><time>2026-04-18T13:36:39.999Z</time></trkpt><trkpt lat="43.24407091129476" lon="10.774011474330294"><ele>501.0</ele><time>2026-04-18T13:36:40.999Z</time></trkpt><trkpt lat="43.24403822008758" lon="10.773892968461455"><ele>501.0</ele><time>2026-04-18T13:36:41.999Z</time></trkpt><trkpt lat="43.24402332538564" lon="10.773771597528356"><ele>501.0</ele><time>2026-04-18T13:36:42.999Z</time></trkpt><trkpt lat="43.24400631632141" lon="10.773643095149366"><ele>501.0</ele><time>2026-04-18T13:36:43.999Z</time></trkpt><trkpt lat="43.24398357896671" lon="10.773517501371197"><ele>501.0</ele><time>2026-04-18T13:36:44.999Z</time></trkpt><trkpt lat="43.243949623185884" lon="10.773397590703137"><ele>501.3333333333333</ele><time>2026-04-18T13:36:45.999Z</time></trkpt><trkpt lat="43.24390724550521" lon="10.773290141352565"><ele>501.66666666666663</ele><time>2026-04-18T13:36:46.999Z</time></trkpt><trkpt lat="43.24384536276415" lon="10.773189559265234"><ele>502.0</ele><time>2026-04-18T13:36:47.999Z</time></trkpt><trkpt lat="43.243768581094216" lon="10.773118544993185"><ele>502.3333333333333</ele><time>2026-04-18T13:36:48.999Z</time></trkpt><trkpt lat="43.24370724557439" lon="10.773054319331747"><ele>502.66666666666663</ele><time>2026-04-18T13:36:49.999Z</time></trkpt><trkpt lat="43.243673793999605" lon="10.7729673487452"><ele>503.0</ele><time>2026-04-18T13:36:50.999Z</time></trkpt><trkpt lat="43.24364810069354" lon="10.772869840826399"><ele>502.99999999999994</ele><time>2026-04-18T13:36:51.999Z</time></trkpt><trkpt lat="43.24363115532266" lon="10.772764183484755"><ele>503.0</ele><time>2026-04-18T13:36:52.999Z</time></trkpt><trkpt lat="43.24362980216234" lon="10.772649604220454"><ele>503.0</ele><time>2026-04-18T13:36:53.999Z</time></trkpt><trkpt lat="43.243626947464065" lon="10.772524145205082"><ele>503.0</ele><time>2026-04-18T13:36:54.999Z</time></trkpt><trkpt lat="43.24361036988192" lon="10.772394998680072"><ele>502.99999999999994</ele><time>2026-04-18T13:36:55.999Z</time></trkpt><trkpt lat="43.243622025365994" lon="10.772259028868081"><ele>503.0</ele><time>2026-04-18T13:36:56.999Z</time></trkpt><trkpt lat="43.24362790167146" lon="10.772124280968852"><ele>502.99999999999994</ele><time>2026-04-18T13:36:57.999Z</time></trkpt><trkpt lat="43.24363348068902" lon="10.771994597187293"><ele>503.0</ele><time>2026-04-18T13:36:58.999Z</time></trkpt><trkpt lat="43.243657288511116" lon="10.771868172551807"><ele>503.0</ele><time>2026-04-18T13:36:59.999Z</time></trkpt><trkpt lat="43.243660453862084" lon="10.771754220703324"><ele>503.0</ele><time>2026-04-18T13:37:00.999Z</time></trkpt><trkpt lat="43.243631603396516" lon="10.771653182747796"><ele>502.99999999999994</ele><time>2026-04-18T13:37:01.999Z</time></trkpt><trkpt lat="43.243613327009754" lon="10.77155648581891"><ele>503.0</ele><time>2026-04-18T13:37:02.999Z</time></trkpt><trkpt lat="43.243566095144416" lon="10.77147659324827"><ele>502.99999999999994</ele><time>2026-04-18T13:37:03.999Z</time></trkpt><trkpt lat="43.243469016093506" lon="10.771431132735461"><ele>503.0</ele><time>2026-04-18T13:37:04.999Z</time></trkpt><trkpt lat="43.243380434378054" lon="10.771420722274033"><ele>503.0</ele><time>2026-04-18T13:37:05.999Z</time></trkpt><trkpt lat="43.243301654976676" lon="10.771428089799711"><ele>503.0</ele><time>2026-04-18T13:37:06.999Z</time></trkpt><trkpt lat="43.24323617661621" lon="10.771428469328583"><ele>502.99999999999994</ele><time>2026-04-18T13:37:07.999Z</time></trkpt><trkpt lat="43.243136357688854" lon="10.771370323932077"><ele>503.0</ele><time>2026-04-18T13:37:09.999Z</time></trkpt><trkpt lat="43.24308849266093" lon="10.771211546613586"><ele>503.49999999999994</ele><time>2026-04-18T13:37:11.999Z</time></trkpt><trkpt lat="43.24306402270483" lon="10.771106720021045"><ele>504.0</ele><time>2026-04-18T13:37:12.999Z</time></trkpt><trkpt lat="43.24304379373638" lon="10.77100367179554"><ele>504.5</ele><time>2026-04-18T13:37:13.999Z</time></trkpt><trkpt lat="43.243024188142655" lon="10.770891732992755"><ele>505.0</ele><time>2026-04-18T13:37:14.999Z</time></trkpt><trkpt lat="43.243005613148185" lon="10.77077525884595"><ele>505.49999999999994</ele><time>2026-04-18T13:37:16Z</time></trkpt><trkpt lat="43.24298833637399" lon="10.770663787064905"><ele>506.0</ele><time>2026-04-18T13:37:17Z</time></trkpt><trkpt lat="43.24297106013113" lon="10.770555811790103"><ele>505.99999999999994</ele><time>2026-04-18T13:37:18Z</time></trkpt><trkpt lat="43.24294541173768" lon="10.770458298092796"><ele>506.0</ele><time>2026-04-18T13:37:19Z</time></trkpt><trkpt lat="43.24290923614574" lon="10.770370707768427"><ele>506.0</ele><time>2026-04-18T13:37:20Z</time></trkpt><trkpt lat="43.242865243192654" lon="10.770288467644823"><ele>506.0</ele><time>2026-04-18T13:37:21Z</time></trkpt><trkpt lat="43.242824942873476" lon="10.770211058731086"><ele>505.99999999999994</ele><time>2026-04-18T13:37:22Z</time></trkpt><trkpt lat="43.24277102133065" lon="10.770136048311361"><ele>506.0</ele><time>2026-04-18T13:37:23Z</time></trkpt><trkpt lat="43.2427322800823" lon="10.770038775519152"><ele>503.66666666666663</ele><time>2026-04-18T13:37:24Z</time></trkpt><trkpt lat="43.24269708764144" lon="10.76993457303344"><ele>501.3333333333333</ele><time>2026-04-18T13:37:25Z</time></trkpt><trkpt lat="43.24267096687521" lon="10.769832134222058"><ele>499.0</ele><time>2026-04-18T13:37:26Z</time></trkpt><trkpt lat="43.24265270982886" lon="10.769722183214625"><ele>496.66666666666663</ele><time>2026-04-18T13:37:27Z</time></trkpt><trkpt lat="43.2426402187894" lon="10.769617170857588"><ele>494.3333333333333</ele><time>2026-04-18T13:37:28Z</time></trkpt><trkpt lat="43.24262701778125" lon="10.769518504433117"><ele>492.0</ele><time>2026-04-18T13:37:29Z</time></trkpt><trkpt lat="43.24261801015691" lon="10.769429704269372"><ele>490.0</ele><time>2026-04-18T13:37:30Z</time></trkpt><trkpt lat="43.24261057820023" lon="10.769281882769063"><ele>488.0</ele><time>2026-04-18T13:37:32Z</time></trkpt><trkpt lat="43.2425700119134" lon="10.769203610878742"><ele>486.0</ele><time>2026-04-18T13:37:34Z</time></trkpt><trkpt lat="43.242538395891664" lon="10.769114747603863"><ele>484.0</ele><time>2026-04-18T13:42:01.001Z</time></trkpt><trkpt lat="43.24248367658422" lon="10.769068323022454"><ele>482.0</ele><time>2026-04-18T13:42:04.001Z</time></trkpt><trkpt lat="43.24241680768595" lon="10.769035154058685"><ele>480.0</ele><time>2026-04-18T13:42:06.001Z</time></trkpt><trkpt lat="43.242335327371414" lon="10.76900183464814"><ele>480.2</ele><time>2026-04-18T13:42:08.001Z</time></trkpt><trkpt lat="43.242242862609416" lon="10.768970488926461"><ele>480.4</ele><time>2026-04-18T13:42:10.001Z</time></trkpt><trkpt lat="43.24213614927263" lon="10.768934313488266"><ele>480.6</ele><time>2026-04-18T13:42:12.001Z</time></trkpt><trkpt lat="43.24201520109439" lon="10.76889109378183"><ele>480.8</ele><time>2026-04-18T13:42:14.001Z</time></trkpt><trkpt lat="43.241950174222545" lon="10.768864623024559"><ele>481.0</ele><time>2026-04-18T13:42:15.001Z</time></trkpt><trkpt lat="43.24188425457498" lon="10.76883623030567"><ele>481.00000000000006</ele><time>2026-04-18T13:42:16.001Z</time></trkpt><trkpt lat="43.241819970975975" lon="10.768807947587701"><ele>481.0</ele><time>2026-04-18T13:42:17.001Z</time></trkpt><trkpt lat="43.2417568202686" lon="10.7687791122474"><ele>481.0</ele><time>2026-04-18T13:42:18.001Z</time></trkpt><trkpt lat="43.24169323046971" lon="10.768752538934855"><ele>481.0</ele><time>2026-04-18T13:42:19.001Z</time></trkpt><trkpt lat="43.24162340323837" lon="10.768750174413922"><ele>481.00000000000006</ele><time>2026-04-18T13:42:20.001Z</time></trkpt><trkpt lat="43.24152278918114" lon="10.76877491979332"><ele>481.0</ele><time>2026-04-18T13:42:22.002Z</time></trkpt><trkpt lat="43.24143093451541" lon="10.768793264176013"><ele>479.50000000000006</ele><time>2026-04-18T13:42:24.002Z</time></trkpt><trkpt lat="43.24134372026423" lon="10.768775794602508"><ele>478.0</ele><time>2026-04-18T13:42:27.002Z</time></trkpt><trkpt lat="43.24126785791519" lon="10.7687535126492"><ele>476.5</ele><time>2026-04-18T13:42:29.002Z</time></trkpt><trkpt lat="43.241160839118365" lon="10.768708863670652"><ele>475.0</ele><time>2026-04-18T13:42:31.002Z</time></trkpt><trkpt lat="43.2411002784875" lon="10.768675000298906"><ele>473.50000000000006</ele><time>2026-04-18T13:42:32.002Z</time></trkpt><trkpt lat="43.2410333775003" lon="10.768638373512484"><ele>472.0</ele><time>2026-04-18T13:42:33.002Z</time></trkpt><trkpt lat="43.24096696250467" lon="10.76859934167674"><ele>472.00000000000006</ele><time>2026-04-18T13:42:34.002Z</time></trkpt><trkpt lat="43.24090679507901" lon="10.768564045361105"><ele>472.0</ele><time>2026-04-18T13:42:35.002Z</time></trkpt><trkpt lat="43.2408469919876" lon="10.768531186539558"><ele>472.0</ele><time>2026-04-18T13:42:36.002Z</time></trkpt><trkpt lat="43.240747634605746" lon="10.768484720896373"><ele>472.0</ele><time>2026-04-18T13:42:38.002Z</time></trkpt><trkpt lat="43.240669030412874" lon="10.768443999565411"><ele>472.00000000000006</ele><time>2026-04-18T13:42:40.002Z</time></trkpt><trkpt lat="43.24061103416968" lon="10.768399584692405"><ele>472.0</ele><time>2026-04-18T13:42:44.002Z</time></trkpt><trkpt lat="43.24068255419802" lon="10.768244270135854"><ele>470.0</ele><time>2026-04-18T13:42:49.002Z</time></trkpt><trkpt lat="43.24069164982977" lon="10.768113682453988"><ele>468.00000000000006</ele><time>2026-04-18T13:42:51.002Z</time></trkpt><trkpt lat="43.24069279112372" lon="10.767938044816121"><ele>466.00000000000006</ele><time>2026-04-18T13:42:53.002Z</time></trkpt><trkpt lat="43.240700020280244" lon="10.767826634168664"><ele>464.0</ele><time>2026-04-18T13:42:54.002Z</time></trkpt><trkpt lat="43.24071355157436" lon="10.767700986521852"><ele>462.0</ele><time>2026-04-18T13:42:55.002Z</time></trkpt><trkpt lat="43.240734819632344" lon="10.767560807086289"><ele>461.8</ele><time>2026-04-18T13:42:56.002Z</time></trkpt><trkpt lat="43.240757072503136" lon="10.767407998988254"><ele>461.6</ele><time>2026-04-18T13:42:57.002Z</time></trkpt><trkpt lat="43.24078180664015" lon="10.767254417708386"><ele>461.40000000000003</ele><time>2026-04-18T13:42:58.002Z</time></trkpt><trkpt lat="43.24080141086558" lon="10.767104378370583"><ele>461.20000000000005</ele><time>2026-04-18T13:42:59.002Z</time></trkpt><trkpt lat="43.240810713906534" lon="10.766956732829023"><ele>461.0</ele><time>2026-04-18T13:43:00.002Z</time></trkpt><trkpt lat="43.24081347858495" lon="10.766817741482967"><ele>460.99999999999994</ele><time>2026-04-18T13:43:01.002Z</time></trkpt><trkpt lat="43.240825760476916" lon="10.766691087951841"><ele>461.0</ele><time>2026-04-18T13:43:02.002Z</time></trkpt><trkpt lat="43.240850145540435" lon="10.76657459906022"><ele>461.0</ele><time>2026-04-18T13:43:03.001Z</time></trkpt><trkpt lat="43.2408754763983" lon="10.766464179550969"><ele>461.0</ele><time>2026-04-18T13:43:04.001Z</time></trkpt><trkpt lat="43.240899457801135" lon="10.766368375513851"><ele>460.99999999999994</ele><time>2026-04-18T13:43:05.001Z</time></trkpt><trkpt lat="43.240909511304814" lon="10.766273978951746"><ele>461.0</ele><time>2026-04-18T13:43:06.001Z</time></trkpt><trkpt lat="43.240958124525825" lon="10.766129961635087"><ele>461.66666666666663</ele><time>2026-04-18T13:43:08.001Z</time></trkpt><trkpt lat="43.241007996285475" lon="10.766006462751566"><ele>462.3333333333333</ele><time>2026-04-18T13:43:10.001Z</time></trkpt><trkpt lat="43.24102964972717" lon="10.765879362388798"><ele>463.0</ele><time>2026-04-18T13:43:12.001Z</time></trkpt><trkpt lat="43.2410364907315" lon="10.765729248775461"><ele>463.66666666666663</ele><time>2026-04-18T13:43:14.001Z</time></trkpt><trkpt lat="43.24102935426853" lon="10.765641136713771"><ele>464.3333333333333</ele><time>2026-04-18T13:43:15.001Z</time></trkpt><trkpt lat="43.24101255526387" lon="10.765547707934878"><ele>465.0</ele><time>2026-04-18T13:43:16.001Z</time></trkpt><trkpt lat="43.24098153193168" lon="10.76545638895285"><ele>465.0</ele><time>2026-04-18T13:43:17.001Z</time></trkpt><trkpt lat="43.24095182993799" lon="10.765370905198278"><ele>465.0</ele><time>2026-04-18T13:43:18.001Z</time></trkpt><trkpt lat="43.24092576137448" lon="10.76528498305001"><ele>465.0</ele><time>2026-04-18T13:43:19.001Z</time></trkpt><trkpt lat="43.240910412916904" lon="10.76513154548744"><ele>465.0</ele><time>2026-04-18T13:43:21.001Z</time></trkpt><trkpt lat="43.240916599622864" lon="10.764953344871104"><ele>465.0</ele><time>2026-04-18T13:43:23.001Z</time></trkpt><trkpt lat="43.24090236510303" lon="10.76486008223639"><ele>465.0</ele><time>2026-04-18T13:43:24.001Z</time></trkpt><trkpt lat="43.24087738861768" lon="10.764779764717199"><ele>463.6</ele><time>2026-04-18T13:43:25.001Z</time></trkpt><trkpt lat="43.24083393501055" lon="10.764651389352144"><ele>462.2</ele><time>2026-04-18T13:43:27.001Z</time></trkpt><trkpt lat="43.24075913302847" lon="10.764553827598649"><ele>460.79999999999995</ele><time>2026-04-18T13:43:29.001Z</time></trkpt><trkpt lat="43.24068544056399" lon="10.764444890547937"><ele>459.4</ele><time>2026-04-18T13:43:31.001Z</time></trkpt><trkpt lat="43.24064620144764" lon="10.764321236627529"><ele>458.0</ele><time>2026-04-18T13:43:33.001Z</time></trkpt><trkpt lat="43.2406138384078" lon="10.764204747586737"><ele>460.49999999999994</ele><time>2026-04-18T13:43:35.001Z</time></trkpt><trkpt lat="43.240586912396125" lon="10.764112063747966"><ele>463.0</ele><time>2026-04-18T13:43:37.001Z</time></trkpt><trkpt lat="43.24054054848976" lon="10.764030079281229"><ele>465.5</ele><time>2026-04-18T13:43:40.001Z</time></trkpt><trkpt lat="43.24047544768637" lon="10.76397081036154"><ele>468.0</ele><time>2026-04-18T13:43:44.001Z</time></trkpt><trkpt lat="43.24041537462688" lon="10.763933244673188"><ele>470.49999999999994</ele><time>2026-04-18T13:43:46.001Z</time></trkpt><trkpt lat="43.240337640429026" lon="10.763896688392082"><ele>473.0</ele><time>2026-04-18T13:43:48.001Z</time></trkpt><trkpt lat="43.2402615701662" lon="10.763851963366776"><ele>473.0</ele><time>2026-04-18T13:43:50.001Z</time></trkpt><trkpt lat="43.24018313691683" lon="10.763788726555793"><ele>472.99999999999994</ele><time>2026-04-18T13:43:52.001Z</time></trkpt><trkpt lat="43.24014161154863" lon="10.76370922423931"><ele>472.99999999999994</ele><time>2026-04-18T13:43:54.001Z</time></trkpt><trkpt lat="43.24012105109863" lon="10.763604619767639"><ele>473.0</ele><time>2026-04-18T13:43:56.001Z</time></trkpt><trkpt lat="43.24020553356146" lon="10.763512256519284"><ele>473.0</ele><time>2026-04-18T13:43:58.001Z</time></trkpt><trkpt lat="43.2403018204186" lon="10.76346298691045"><ele>472.2</ele><time>2026-04-18T13:44:00.001Z</time></trkpt><trkpt lat="43.240392689468955" lon="10.763413881072653"><ele>471.4</ele><time>2026-04-18T13:44:02.001Z</time></trkpt><trkpt lat="43.240485183490954" lon="10.763334784666608"><ele>470.59999999999997</ele><time>2026-04-18T13:44:04.001Z</time></trkpt><trkpt lat="43.24057901745192" lon="10.763241900278306"><ele>469.79999999999995</ele><time>2026-04-18T13:44:06.001Z</time></trkpt><trkpt lat="43.24069581975772" lon="10.763180319660497"><ele>469.0</ele><time>2026-04-18T13:44:08.001Z</time></trkpt><trkpt lat="43.24075438453722" lon="10.763146377726578"><ele>468.33333333333337</ele><time>2026-04-18T13:44:09.001Z</time></trkpt><trkpt lat="43.24081832742669" lon="10.763115357586402"><ele>467.6666666666667</ele><time>2026-04-18T13:44:10.001Z</time></trkpt><trkpt lat="43.24085699460203" lon="10.763028938721561"><ele>467.0</ele><time>2026-04-18T13:44:11.001Z</time></trkpt><trkpt lat="43.24090108528622" lon="10.762948420347632"><ele>466.33333333333337</ele><time>2026-04-18T13:44:12.001Z</time></trkpt><trkpt lat="43.24094398766487" lon="10.762864801615466"><ele>465.6666666666667</ele><time>2026-04-18T13:44:13.001Z</time></trkpt><trkpt lat="43.24099327495987" lon="10.762791994092183"><ele>465.0</ele><time>2026-04-18T13:44:14.001Z</time></trkpt><trkpt lat="43.24107755667256" lon="10.762691854342354"><ele>465.0</ele><time>2026-04-18T13:44:16.001Z</time></trkpt><trkpt lat="43.241148240237635" lon="10.762607575200693"><ele>465.0</ele><time>2026-04-18T13:44:18.001Z</time></trkpt><trkpt lat="43.24114999370555" lon="10.762449526758145"><ele>465.0</ele><time>2026-04-18T13:44:20.001Z</time></trkpt><trkpt lat="43.24114672698663" lon="10.762353180730866"><ele>465.0</ele><time>2026-04-18T13:44:21.001Z</time></trkpt><trkpt lat="43.24114041945715" lon="10.762250163013846"><ele>465.0</ele><time>2026-04-18T13:44:22.001Z</time></trkpt><trkpt lat="43.24113770279365" lon="10.762135249201782"><ele>465.0</ele><time>2026-04-18T13:44:23.001Z</time></trkpt><trkpt lat="43.24114999467644" lon="10.762019551997628"><ele>465.0</ele><time>2026-04-18T13:44:24.001Z</time></trkpt><trkpt lat="43.24118063982658" lon="10.761912479566629"><ele>465.0</ele><time>2026-04-18T13:44:25.001Z</time></trkpt><trkpt lat="43.24122347997553" lon="10.761814983779797"><ele>465.0</ele><time>2026-04-18T13:44:26.001Z</time></trkpt><trkpt lat="43.2412718421296" lon="10.76171926810841"><ele>465.0</ele><time>2026-04-18T13:44:27.001Z</time></trkpt><trkpt lat="43.24131631414943" lon="10.761629208130019"><ele>465.0</ele><time>2026-04-18T13:44:28.001Z</time></trkpt><trkpt lat="43.241364128358526" lon="10.761556576528324"><ele>465.0</ele><time>2026-04-18T13:44:29.001Z</time></trkpt><trkpt lat="43.24145170808517" lon="10.761486949336186"><ele>465.5</ele><time>2026-04-18T13:44:31.001Z</time></trkpt><trkpt lat="43.24151672889191" lon="10.76143714296952"><ele>466.0</ele><time>2026-04-18T13:44:33.001Z</time></trkpt><trkpt lat="43.241555027515275" lon="10.761319402260549"><ele>466.5</ele><time>2026-04-18T13:44:35.001Z</time></trkpt><trkpt lat="43.24151241959363" lon="10.76117885570889"><ele>467.0</ele><time>2026-04-18T13:44:37.001Z</time></trkpt><trkpt lat="43.24145471391579" lon="10.761143606221276"><ele>467.5</ele><time>2026-04-18T13:44:38.001Z</time></trkpt><trkpt lat="43.24140925382032" lon="10.76101161388987"><ele>468.0</ele><time>2026-04-18T13:44:40.001Z</time></trkpt><trkpt lat="43.24135568805679" lon="10.760892853121511"><ele>468.0</ele><time>2026-04-18T13:44:42.002Z</time></trkpt><trkpt lat="43.24128923023346" lon="10.76077862949895"><ele>468.0</ele><time>2026-04-18T13:44:44.002Z</time></trkpt><trkpt lat="43.24122082876842" lon="10.760652176204928"><ele>468.0</ele><time>2026-04-18T13:44:46.002Z</time></trkpt><trkpt lat="43.241204793499406" lon="10.760568069742325"><ele>468.0</ele><time>2026-04-18T13:44:47.002Z</time></trkpt><trkpt lat="43.24119159129525" lon="10.760474070358006"><ele>468.0</ele><time>2026-04-18T13:44:48.002Z</time></trkpt><trkpt lat="43.24118087204848" lon="10.760377815611326"><ele>468.0</ele><time>2026-04-18T13:44:49.002Z</time></trkpt><trkpt lat="43.24119309567581" lon="10.760277580088536"><ele>465.2</ele><time>2026-04-18T13:44:50.002Z</time></trkpt><trkpt lat="43.24120084994503" lon="10.76018343867843"><ele>462.4</ele><time>2026-04-18T13:44:51.002Z</time></trkpt><trkpt lat="43.24120771279336" lon="10.76009471885125"><ele>459.59999999999997</ele><time>2026-04-18T13:44:52.002Z</time></trkpt><trkpt lat="43.241206661519385" lon="10.75994407498749"><ele>456.79999999999995</ele><time>2026-04-18T13:44:54.002Z</time></trkpt><trkpt lat="43.24118908372482" lon="10.759802593559604"><ele>454.0</ele><time>2026-04-18T13:44:56.002Z</time></trkpt><trkpt lat="43.24121761229352" lon="10.759656181547093"><ele>454.0</ele><time>2026-04-18T13:44:58.002Z</time></trkpt><trkpt lat="43.24125384709642" lon="10.759489991701848"><ele>454.0</ele><time>2026-04-18T13:45:00Z</time></trkpt><trkpt lat="43.24124495966892" lon="10.759403609856374"><ele>454.0</ele><time>2026-04-18T13:45:01Z</time></trkpt><trkpt lat="43.241212277820004" lon="10.759247861803555"><ele>454.0</ele><time>2026-04-18T13:45:03Z</time></trkpt><trkpt lat="43.24116728385412" lon="10.759127701593783"><ele>454.0</ele><time>2026-04-18T13:45:05Z</time></trkpt><trkpt lat="43.24113833314547" lon="10.759036599073495"><ele>454.00000000000006</ele><time>2026-04-18T13:45:07Z</time></trkpt><trkpt lat="43.24117320522079" lon="10.758955384011472"><ele>454.0</ele><time>2026-04-18T13:45:10Z</time></trkpt><trkpt lat="43.24124644295794" lon="10.758981153907033"><ele>454.0</ele><time>2026-04-18T13:45:13Z</time></trkpt><trkpt lat="43.241287891760024" lon="10.759083898223897"><ele>454.0</ele><time>2026-04-18T13:45:15Z</time></trkpt><trkpt lat="43.241319100665294" lon="10.759229327371797"><ele>454.00000000000006</ele><time>2026-04-18T13:45:17Z</time></trkpt><trkpt lat="43.24133835979843" lon="10.759311732449774"><ele>454.0</ele><time>2026-04-18T13:45:18Z</time></trkpt><trkpt lat="43.241362191971994" lon="10.759403702707436"><ele>454.00000000000006</ele><time>2026-04-18T13:45:19Z</time></trkpt><trkpt lat="43.24138904009334" lon="10.759504681206202"><ele>454.0</ele><time>2026-04-18T13:45:20Z</time></trkpt><trkpt lat="43.24143424072763" lon="10.759602844151107"><ele>454.0</ele><time>2026-04-18T13:45:21Z</time></trkpt><trkpt lat="43.24145484150811" lon="10.75971412859176"><ele>454.0</ele><time>2026-04-18T13:45:22Z</time></trkpt><trkpt lat="43.24148820601006" lon="10.759822146144616"><ele>454.00000000000006</ele><time>2026-04-18T13:45:23Z</time></trkpt><trkpt lat="43.24152785975603" lon="10.759926628324996"><ele>454.0</ele><time>2026-04-18T13:45:24Z</time></trkpt><trkpt lat="43.241563695268866" lon="10.760030810224272"><ele>452.6</ele><time>2026-04-18T13:45:25Z</time></trkpt><trkpt lat="43.241586256747894" lon="10.760121552871604"><ele>451.2</ele><time>2026-04-18T13:45:26Z</time></trkpt><trkpt lat="43.24161601208577" lon="10.760199445871608"><ele>449.80000000000007</ele><time>2026-04-18T13:45:27Z</time></trkpt><trkpt lat="43.24169004658051" lon="10.760258436256535"><ele>448.40000000000003</ele><time>2026-04-18T13:45:28Z</time></trkpt><trkpt lat="43.24180673350246" lon="10.760233744761733"><ele>447.0</ele><time>2026-04-18T13:45:30Z</time></trkpt><trkpt lat="43.24192140984161" lon="10.760209236195056"><ele>445.6</ele><time>2026-04-18T13:45:32Z</time></trkpt><trkpt lat="43.24197886382827" lon="10.760165109226397"><ele>444.20000000000005</ele><time>2026-04-18T13:45:33Z</time></trkpt><trkpt lat="43.24207219514848" lon="10.760085156934018"><ele>442.8</ele><time>2026-04-18T13:45:35Z</time></trkpt><trkpt lat="43.24216039784748" lon="10.760004272667887"><ele>441.4</ele><time>2026-04-18T13:45:37Z</time></trkpt><trkpt lat="43.242232530754876" lon="10.759875119929267"><ele>440.0</ele><time>2026-04-18T13:45:39Z</time></trkpt><trkpt lat="43.24232038347756" lon="10.759758136283452"><ele>439.99999999999994</ele><time>2026-04-18T13:45:41Z</time></trkpt><trkpt lat="43.24237659881633" lon="10.759700100050415"><ele>440.0</ele><time>2026-04-18T13:45:42Z</time></trkpt><trkpt lat="43.242440304904875" lon="10.75965171015659"><ele>440.0</ele><time>2026-04-18T13:45:43Z</time></trkpt><trkpt lat="43.24251209645355" lon="10.759632886425173"><ele>440.0</ele><time>2026-04-18T13:45:44Z</time></trkpt><trkpt lat="43.24257249241404" lon="10.759605449772472"><ele>440.0</ele><time>2026-04-18T13:45:45Z</time></trkpt><trkpt lat="43.24263670826909" lon="10.759588031184117"><ele>439.99999999999994</ele><time>2026-04-18T13:45:46Z</time></trkpt><trkpt lat="43.24270214798146" lon="10.759585362691753"><ele>440.0</ele><time>2026-04-18T13:45:47Z</time></trkpt><trkpt lat="43.24276681177878" lon="10.759590227633366"><ele>439.99999999999994</ele><time>2026-04-18T13:45:48Z</time></trkpt><trkpt lat="43.24283784034541" lon="10.759602886212926"><ele>440.0</ele><time>2026-04-18T13:45:49Z</time></trkpt><trkpt lat="43.24291058662418" lon="10.759616313734652"><ele>440.0</ele><time>2026-04-18T13:45:50Z</time></trkpt><trkpt lat="43.24297946691145" lon="10.759671150122589"><ele>440.0</ele><time>2026-04-18T13:45:51Z</time></trkpt><trkpt lat="43.24303875649545" lon="10.759754069091716"><ele>439.99999999999994</ele><time>2026-04-18T13:45:52Z</time></trkpt><trkpt lat="43.243113552781445" lon="10.7598172431013"><ele>440.0</ele><time>2026-04-18T13:45:53Z</time></trkpt><trkpt lat="43.243199733951016" lon="10.75985277454538"><ele>437.8</ele><time>2026-04-18T13:45:54Z</time></trkpt><trkpt lat="43.24327613747086" lon="10.759927917305468"><ele>435.6</ele><time>2026-04-18T13:45:55Z</time></trkpt><trkpt lat="43.24336651864297" lon="10.759974169894363"><ele>433.4</ele><time>2026-04-18T13:45:56Z</time></trkpt><trkpt lat="43.243461626531" lon="10.760004249891088"><ele>431.2</ele><time>2026-04-18T13:45:57Z</time></trkpt><trkpt lat="43.24355763462965" lon="10.760042391690174"><ele>429.0</ele><time>2026-04-18T13:45:58Z</time></trkpt><trkpt lat="43.24364716848875" lon="10.760093475563968"><ele>429.0</ele><time>2026-04-18T13:45:59Z</time></trkpt><trkpt lat="43.24373667961043" lon="10.760159135131602"><ele>429.0</ele><time>2026-04-18T13:46:00Z</time></trkpt><trkpt lat="43.243825522009224" lon="10.760228077443083"><ele>429.0</ele><time>2026-04-18T13:46:01Z</time></trkpt><trkpt lat="43.243909857141595" lon="10.760295755038342"><ele>429.0</ele><time>2026-04-18T13:46:02Z</time></trkpt><trkpt lat="43.243999494433204" lon="10.760341200867408"><ele>429.0</ele><time>2026-04-18T13:46:03.001Z</time></trkpt><trkpt lat="43.244077427222855" lon="10.760398217627442"><ele>427.1666666666667</ele><time>2026-04-18T13:46:04.001Z</time></trkpt><trkpt lat="43.24415124259125" lon="10.760462693730588"><ele>425.33333333333337</ele><time>2026-04-18T13:46:05.001Z</time></trkpt><trkpt lat="43.244237297219975" lon="10.76048183751423"><ele>423.5</ele><time>2026-04-18T13:46:06.001Z</time></trkpt><trkpt lat="43.244318809386165" lon="10.760492262460986"><ele>421.6666666666667</ele><time>2026-04-18T13:46:07.001Z</time></trkpt><trkpt lat="43.24440250204663" lon="10.760455588056406"><ele>419.83333333333337</ele><time>2026-04-18T13:46:08.001Z</time></trkpt><trkpt lat="43.24447186751624" lon="10.760437123598667"><ele>418.0</ele><time>2026-04-18T13:46:09.001Z</time></trkpt><trkpt lat="43.244533327773986" lon="10.760414880152746"><ele>418.0</ele><time>2026-04-18T13:46:10.001Z</time></trkpt><trkpt lat="43.24463591041538" lon="10.760387348754241"><ele>418.0</ele><time>2026-04-18T13:46:12.001Z</time></trkpt><trkpt lat="43.24473428594934" lon="10.760353542471236"><ele>418.0</ele><time>2026-04-18T13:46:14.001Z</time></trkpt><trkpt lat="43.244810573018164" lon="10.760256704978856"><ele>418.0</ele><time>2026-04-18T13:46:16.001Z</time></trkpt><trkpt lat="43.24486073509964" lon="10.760159126579486"><ele>418.0</ele><time>2026-04-18T13:46:18.001Z</time></trkpt><trkpt lat="43.244892284159995" lon="10.760078695868005"><ele>421.0</ele><time>2026-04-18T13:46:20.001Z</time></trkpt><trkpt lat="43.244908828380005" lon="10.759983397203024"><ele>424.0</ele><time>2026-04-18T13:46:26.001Z</time></trkpt><trkpt lat="43.244928927356206" lon="10.759852280103903"><ele>426.99999999999994</ele><time>2026-04-18T13:46:29.001Z</time></trkpt><trkpt lat="43.244948217823904" lon="10.759721586268478"><ele>430.0</ele><time>2026-04-18T13:46:31.001Z</time></trkpt><trkpt lat="43.24497474513347" lon="10.759576659253042"><ele>433.0</ele><time>2026-04-18T13:46:33.001Z</time></trkpt><trkpt lat="43.244995733720046" lon="10.759413390562484"><ele>433.4285714285714</ele><time>2026-04-18T13:46:35.001Z</time></trkpt><trkpt lat="43.24500610858082" lon="10.759326448018161"><ele>433.85714285714283</ele><time>2026-04-18T13:46:36.001Z</time></trkpt><trkpt lat="43.24504380373895" lon="10.759247859896142"><ele>434.2857142857143</ele><time>2026-04-18T13:46:37.001Z</time></trkpt><trkpt lat="43.24505622481921" lon="10.759155863954579"><ele>434.71428571428567</ele><time>2026-04-18T13:46:38.001Z</time></trkpt><trkpt lat="43.245096931736036" lon="10.75908023322981"><ele>435.14285714285717</ele><time>2026-04-18T13:46:39.001Z</time></trkpt><trkpt lat="43.24513756621999" lon="10.759007566449995"><ele>435.57142857142856</ele><time>2026-04-18T13:46:40.001Z</time></trkpt><trkpt lat="43.24517867887557" lon="10.758935403204537"><ele>436.0</ele><time>2026-04-18T13:46:41.001Z</time></trkpt><trkpt lat="43.24523637357677" lon="10.758883376629942"><ele>436.0</ele><time>2026-04-18T13:46:42.001Z</time></trkpt><trkpt lat="43.24528953425971" lon="10.758827478414315"><ele>436.0</ele><time>2026-04-18T13:46:43.001Z</time></trkpt><trkpt lat="43.245343278436145" lon="10.758765871588933"><ele>436.0</ele><time>2026-04-18T13:46:44.001Z</time></trkpt><trkpt lat="43.24539937166059" lon="10.758703416587684"><ele>436.0</ele><time>2026-04-18T13:46:45.001Z</time></trkpt><trkpt lat="43.24545761545521" lon="10.758641289469821"><ele>436.0</ele><time>2026-04-18T13:46:46.001Z</time></trkpt><trkpt lat="43.24549888020498" lon="10.758565625056459"><ele>436.0</ele><time>2026-04-18T13:46:47.001Z</time></trkpt><trkpt lat="43.245551956321236" lon="10.758510922178885"><ele>436.0</ele><time>2026-04-18T13:46:48.001Z</time></trkpt><trkpt lat="43.24560806264501" lon="10.75845824738398"><ele>438.33333333333337</ele><time>2026-04-18T13:46:49.001Z</time></trkpt><trkpt lat="43.24563591674531" lon="10.758364523440434"><ele>440.6666666666667</ele><time>2026-04-18T13:46:50.001Z</time></trkpt><trkpt lat="43.245640297927544" lon="10.758269767205068"><ele>443.0</ele><time>2026-04-18T13:46:51.001Z</time></trkpt><trkpt lat="43.245641982711106" lon="10.758181032835784"><ele>445.33333333333337</ele><time>2026-04-18T13:46:52.001Z</time></trkpt><trkpt lat="43.24566368591798" lon="10.758024543949329"><ele>447.6666666666667</ele><time>2026-04-18T13:46:54.001Z</time></trkpt><trkpt lat="43.245699800774574" lon="10.757865109594233"><ele>450.0</ele><time>2026-04-18T13:46:56.001Z</time></trkpt><trkpt lat="43.24572618575428" lon="10.757780329512611"><ele>450.7142857142858</ele><time>2026-04-18T13:46:57.001Z</time></trkpt><trkpt lat="43.24575785726339" lon="10.757698210264897"><ele>451.42857142857144</ele><time>2026-04-18T13:46:58.001Z</time></trkpt><trkpt lat="43.24579183660864" lon="10.75762101281056"><ele>452.14285714285717</ele><time>2026-04-18T13:46:59.001Z</time></trkpt><trkpt lat="43.24582794136731" lon="10.757544749356285"><ele>452.8571428571429</ele><time>2026-04-18T13:47:00.001Z</time></trkpt><trkpt lat="43.24586717062281" lon="10.757469354488604"><ele>453.57142857142856</ele><time>2026-04-18T13:47:01.001Z</time></trkpt><trkpt lat="43.24590929969886" lon="10.757394061567277"><ele>454.2857142857143</ele><time>2026-04-18T13:47:02.001Z</time></trkpt><trkpt lat="43.24595422067189" lon="10.757317198159194"><ele>455.0</ele><time>2026-04-18T13:47:03.001Z</time></trkpt><trkpt lat="43.24599952666284" lon="10.757241101529056"><ele>455.0</ele><time>2026-04-18T13:47:04.001Z</time></trkpt><trkpt lat="43.24604709363062" lon="10.75716994695817"><ele>455.0</ele><time>2026-04-18T13:47:05.001Z</time></trkpt><trkpt lat="43.24609595766524" lon="10.757108145792815"><ele>455.0</ele><time>2026-04-18T13:47:05.999Z</time></trkpt><trkpt lat="43.24619372264325" lon="10.757011989725333"><ele>455.0</ele><time>2026-04-18T13:47:07.999Z</time></trkpt><trkpt lat="43.2462965547979" lon="10.756950851548426"><ele>455.0</ele><time>2026-04-18T13:47:09.999Z</time></trkpt><trkpt lat="43.24642631230631" lon="10.756907353332393"><ele>456.16666666666663</ele><time>2026-04-18T13:47:11.999Z</time></trkpt><trkpt lat="43.24650289816208" lon="10.756886634105147"><ele>457.3333333333333</ele><time>2026-04-18T13:47:12.999Z</time></trkpt><trkpt lat="43.24657682171895" lon="10.756848446948617"><ele>458.5</ele><time>2026-04-18T13:47:13.999Z</time></trkpt><trkpt lat="43.246651760439384" lon="10.756838269062936"><ele>459.66666666666663</ele><time>2026-04-18T13:47:14.999Z</time></trkpt><trkpt lat="43.24672203805805" lon="10.756817507696901"><ele>460.8333333333333</ele><time>2026-04-18T13:47:15.999Z</time></trkpt><trkpt lat="43.246791965413934" lon="10.756785585664478"><ele>462.0</ele><time>2026-04-18T13:47:16.999Z</time></trkpt><trkpt lat="43.24686902617867" lon="10.756786498963487"><ele>462.0</ele><time>2026-04-18T13:47:17.999Z</time></trkpt><trkpt lat="43.24694540139314" lon="10.75676376696883"><ele>462.0</ele><time>2026-04-18T13:47:18.999Z</time></trkpt><trkpt lat="43.24702168645652" lon="10.756737631481817"><ele>462.0</ele><time>2026-04-18T13:47:19.999Z</time></trkpt><trkpt lat="43.24709411120911" lon="10.756685399380185"><ele>462.0</ele><time>2026-04-18T13:47:20.999Z</time></trkpt><trkpt lat="43.24716798259487" lon="10.756659788416165"><ele>462.0</ele><time>2026-04-18T13:47:21.999Z</time></trkpt><trkpt lat="43.24723430925498" lon="10.756635643181424"><ele>462.0</ele><time>2026-04-18T13:47:22.999Z</time></trkpt><trkpt lat="43.24730560302266" lon="10.756497661632695"><ele>462.0</ele><time>2026-04-18T13:47:24.999Z</time></trkpt><trkpt lat="43.24728719636211" lon="10.756394510893875"><ele>462.0</ele><time>2026-04-18T13:47:25.999Z</time></trkpt><trkpt lat="43.247250826404304" lon="10.756311196886639"><ele>462.0</ele><time>2026-04-18T13:47:26.999Z</time></trkpt><trkpt lat="43.247197980713004" lon="10.756224569505784"><ele>462.0</ele><time>2026-04-18T13:47:27.999Z</time></trkpt><trkpt lat="43.24715942237626" lon="10.756152689691739"><ele>462.0</ele><time>2026-04-18T13:47:28.999Z</time></trkpt><trkpt lat="43.24710722878065" lon="10.756034573922888"><ele>462.0</ele><time>2026-04-18T13:47:30.999Z</time></trkpt><trkpt lat="43.247108505859934" lon="10.755904486714984"><ele>461.0</ele><time>2026-04-18T13:47:32.999Z</time></trkpt><trkpt lat="43.24718215161038" lon="10.75579876624035"><ele>460.0</ele><time>2026-04-18T13:47:34.999Z</time></trkpt><trkpt lat="43.247227583528435" lon="10.75572750036797"><ele>459.0</ele><time>2026-04-18T13:47:35.999Z</time></trkpt><trkpt lat="43.24727955775853" lon="10.755671778009644"><ele>458.0</ele><time>2026-04-18T13:47:36.999Z</time></trkpt><trkpt lat="43.24733862307454" lon="10.755613197147703"><ele>457.0</ele><time>2026-04-18T13:47:37.999Z</time></trkpt><trkpt lat="43.24739665890271" lon="10.755542436865088"><ele>456.0</ele><time>2026-04-18T13:47:38.999Z</time></trkpt><trkpt lat="43.247459351248466" lon="10.755464184088341"><ele>458.20000000000005</ele><time>2026-04-18T13:47:39.999Z</time></trkpt><trkpt lat="43.247530113981995" lon="10.755389470206374"><ele>460.40000000000003</ele><time>2026-04-18T13:47:40.999Z</time></trkpt><trkpt lat="43.247621612205684" lon="10.755348653748474"><ele>462.6</ele><time>2026-04-18T13:47:41.999Z</time></trkpt><trkpt lat="43.247706473989275" lon="10.755280166847784"><ele>464.8</ele><time>2026-04-18T13:47:42.999Z</time></trkpt><trkpt lat="43.247770887632" lon="10.755187076345312"><ele>467.0</ele><time>2026-04-18T13:47:43.999Z</time></trkpt><trkpt lat="43.24782703224924" lon="10.75509026323583"><ele>467.0</ele><time>2026-04-18T13:47:45Z</time></trkpt><trkpt lat="43.2478888637466" lon="10.755000324653201"><ele>467.00000000000006</ele><time>2026-04-18T13:47:46Z</time></trkpt><trkpt lat="43.247945844475105" lon="10.754904320398792"><ele>467.00000000000006</ele><time>2026-04-18T13:47:47Z</time></trkpt><trkpt lat="43.24800255436505" lon="10.754805178742119"><ele>467.0</ele><time>2026-04-18T13:47:48Z</time></trkpt><trkpt lat="43.24805724014316" lon="10.754705932267498"><ele>467.0</ele><time>2026-04-18T13:47:49Z</time></trkpt><trkpt lat="43.24811212579206" lon="10.754603593891295"><ele>467.6</ele><time>2026-04-18T13:47:50Z</time></trkpt><trkpt lat="43.248158657622746" lon="10.754491357751492"><ele>468.20000000000005</ele><time>2026-04-18T13:47:51Z</time></trkpt><trkpt lat="43.24819852699683" lon="10.754378675411111"><ele>468.8</ele><time>2026-04-18T13:47:52Z</time></trkpt><trkpt lat="43.24823395638748" lon="10.754264157401499"><ele>469.4</ele><time>2026-04-18T13:47:53Z</time></trkpt><trkpt lat="43.24826215891769" lon="10.754143912152967"><ele>470.0</ele><time>2026-04-18T13:47:54Z</time></trkpt><trkpt lat="43.24828620622884" lon="10.754023176771764"><ele>470.0</ele><time>2026-04-18T13:47:55Z</time></trkpt><trkpt lat="43.248286818509065" lon="10.753891567679592"><ele>470.0</ele><time>2026-04-18T13:47:56Z</time></trkpt><trkpt lat="43.248309449201415" lon="10.753767300924565"><ele>470.0</ele><time>2026-04-18T13:47:57Z</time></trkpt><trkpt lat="43.248329757016904" lon="10.753641367230788"><ele>470.0</ele><time>2026-04-18T13:47:58Z</time></trkpt><trkpt lat="43.24837587042959" lon="10.753528140266715"><ele>470.0</ele><time>2026-04-18T13:47:59Z</time></trkpt><trkpt lat="43.24840817305584" lon="10.753408540457981"><ele>471.8333333333333</ele><time>2026-04-18T13:48:00Z</time></trkpt><trkpt lat="43.24842783100789" lon="10.753285653982845"><ele>473.66666666666663</ele><time>2026-04-18T13:48:01Z</time></trkpt><trkpt lat="43.248465240763444" lon="10.753177413013129"><ele>475.5</ele><time>2026-04-18T13:48:02Z</time></trkpt><trkpt lat="43.248498552103605" lon="10.753068641712613"><ele>477.33333333333337</ele><time>2026-04-18T13:48:03Z</time></trkpt><trkpt lat="43.24852670716819" lon="10.752955630492265"><ele>479.1666666666667</ele><time>2026-04-18T13:48:04Z</time></trkpt><trkpt lat="43.248535124859615" lon="10.752826765624851"><ele>481.0</ele><time>2026-04-18T13:48:05Z</time></trkpt><trkpt lat="43.248558948424495" lon="10.75270059827803"><ele>482.33333333333337</ele><time>2026-04-18T13:48:06Z</time></trkpt><trkpt lat="43.248568820205584" lon="10.75257133232229"><ele>483.6666666666667</ele><time>2026-04-18T13:48:07Z</time></trkpt><trkpt lat="43.24857552335676" lon="10.752449491527335"><ele>485.0</ele><time>2026-04-18T13:48:08Z</time></trkpt><trkpt lat="43.24857888018646" lon="10.75233670550906"><ele>486.33333333333337</ele><time>2026-04-18T13:48:09Z</time></trkpt><trkpt lat="43.24857353483211" lon="10.752228752998482"><ele>487.6666666666667</ele><time>2026-04-18T13:48:10Z</time></trkpt><trkpt lat="43.24857629286598" lon="10.752117991914249"><ele>489.0</ele><time>2026-04-18T13:48:11Z</time></trkpt><trkpt lat="43.24857586215359" lon="10.752004320657615"><ele>489.0</ele><time>2026-04-18T13:48:12Z</time></trkpt><trkpt lat="43.24856953280795" lon="10.751887887838096"><ele>489.0</ele><time>2026-04-18T13:48:13Z</time></trkpt><trkpt lat="43.24855164207805" lon="10.75176965871973"><ele>489.0</ele><time>2026-04-18T13:48:14Z</time></trkpt><trkpt lat="43.24852692337807" lon="10.751654566040957"><ele>489.0</ele><time>2026-04-18T13:48:15Z</time></trkpt><trkpt lat="43.248502446517776" lon="10.751540300926775"><ele>489.0</ele><time>2026-04-18T13:48:16Z</time></trkpt><trkpt lat="43.24850638332038" lon="10.751420395157052"><ele>489.0</ele><time>2026-04-18T13:48:17Z</time></trkpt><trkpt lat="43.24852632398143" lon="10.751298416314501"><ele>488.2</ele><time>2026-04-18T13:48:18Z</time></trkpt><trkpt lat="43.24855464037955" lon="10.751169725765791"><ele>487.4</ele><time>2026-04-18T13:48:19Z</time></trkpt><trkpt lat="43.24858067184818" lon="10.75103504644627"><ele>486.6</ele><time>2026-04-18T13:48:20Z</time></trkpt><trkpt lat="43.24860765351899" lon="10.750895247978209"><ele>485.8</ele><time>2026-04-18T13:48:21Z</time></trkpt><trkpt lat="43.24864713416777" lon="10.750759152415906"><ele>485.0</ele><time>2026-04-18T13:48:22Z</time></trkpt><trkpt lat="43.24867065445937" lon="10.750616008581515"><ele>485.0</ele><time>2026-04-18T13:48:23Z</time></trkpt><trkpt lat="43.24868479523709" lon="10.750471009902178"><ele>485.0</ele><time>2026-04-18T13:48:24Z</time></trkpt><trkpt lat="43.24867433615024" lon="10.750326148853413"><ele>485.0</ele><time>2026-04-18T13:48:25Z</time></trkpt><trkpt lat="43.24867488295486" lon="10.750190754585784"><ele>485.0</ele><time>2026-04-18T13:48:26Z</time></trkpt><trkpt lat="43.2486895578921" lon="10.750063776511322"><ele>485.0</ele><time>2026-04-18T13:48:27Z</time></trkpt><trkpt lat="43.24868640746805" lon="10.749945832670353"><ele>484.99999999999994</ele><time>2026-04-18T13:48:28Z</time></trkpt><trkpt lat="43.24868718572414" lon="10.74984031082856"><ele>485.0</ele><time>2026-04-18T13:48:29Z</time></trkpt><trkpt lat="43.248688509162186" lon="10.749739318686318"><ele>485.0</ele><time>2026-04-18T13:48:30Z</time></trkpt><trkpt lat="43.2486892990118" lon="10.749639816196762"><ele>485.0</ele><time>2026-04-18T13:48:31Z</time></trkpt><trkpt lat="43.24868615121574" lon="10.749534962324468"><ele>484.99999999999994</ele><time>2026-04-18T13:48:32Z</time></trkpt><trkpt lat="43.248659885260444" lon="10.749425535956663"><ele>485.0</ele><time>2026-04-18T13:48:33Z</time></trkpt><trkpt lat="43.24864135904543" lon="10.749303092037005"><ele>485.2</ele><time>2026-04-18T13:48:34Z</time></trkpt><trkpt lat="43.248632051614216" lon="10.749168065750158"><ele>485.4</ele><time>2026-04-18T13:48:35Z</time></trkpt><trkpt lat="43.248608036693135" lon="10.749033235448103"><ele>485.6</ele><time>2026-04-18T13:48:36Z</time></trkpt><trkpt lat="43.2485666801965" lon="10.748902796677415"><ele>485.8</ele><time>2026-04-18T13:48:37Z</time></trkpt><trkpt lat="43.24854122385793" lon="10.748771615110249"><ele>486.0</ele><time>2026-04-18T13:48:38Z</time></trkpt><trkpt lat="43.2485019969942" lon="10.748644308540566"><ele>486.6666666666667</ele><time>2026-04-18T13:48:39Z</time></trkpt><trkpt lat="43.24846988374094" lon="10.74851968471554"><ele>487.33333333333337</ele><time>2026-04-18T13:48:40Z</time></trkpt><trkpt lat="43.248424496997345" lon="10.748422330735618"><ele>488.0</ele><time>2026-04-18T13:48:41Z</time></trkpt><trkpt lat="43.248407150940984" lon="10.748329668589918"><ele>488.6666666666667</ele><time>2026-04-18T13:48:42Z</time></trkpt><trkpt lat="43.2484051181949" lon="10.748243155028637"><ele>489.33333333333337</ele><time>2026-04-18T13:48:43Z</time></trkpt><trkpt lat="43.248451497277514" lon="10.748179021346656"><ele>490.0</ele><time>2026-04-18T13:48:44Z</time></trkpt><trkpt lat="43.24855555421872" lon="10.748207940362562"><ele>490.00000000000006</ele><time>2026-04-18T13:48:46Z</time></trkpt><trkpt lat="43.248662535209604" lon="10.748249238831582"><ele>490.0</ele><time>2026-04-18T13:48:48Z</time></trkpt><trkpt lat="43.24872608057386" lon="10.748294285010486"><ele>490.0</ele><time>2026-04-18T13:48:49Z</time></trkpt><trkpt lat="43.2488007303661" lon="10.748339251924891"><ele>490.0</ele><time>2026-04-18T13:48:50Z</time></trkpt><trkpt lat="43.248879910761325" lon="10.748390558396684"><ele>490.00000000000006</ele><time>2026-04-18T13:48:51Z</time></trkpt><trkpt lat="43.24894889110613" lon="10.748472476224752"><ele>490.0</ele><time>2026-04-18T13:48:52Z</time></trkpt><trkpt lat="43.24901584622999" lon="10.748544384266848"><ele>490.83333333333337</ele><time>2026-04-18T13:48:53Z</time></trkpt><trkpt lat="43.24908211384917" lon="10.74862593188065"><ele>491.6666666666667</ele><time>2026-04-18T13:48:54Z</time></trkpt><trkpt lat="43.24916510364853" lon="10.748688105589185"><ele>492.5</ele><time>2026-04-18T13:48:55Z</time></trkpt><trkpt lat="43.24925549278455" lon="10.74872142770468"><ele>493.33333333333337</ele><time>2026-04-18T13:48:56Z</time></trkpt><trkpt lat="43.2493376016767" lon="10.748768026402985"><ele>494.1666666666667</ele><time>2026-04-18T13:48:57Z</time></trkpt><trkpt lat="43.24941592112381" lon="10.748795623120513"><ele>495.0</ele><time>2026-04-18T13:48:58Z</time></trkpt><trkpt lat="43.24949683077905" lon="10.748810060820272"><ele>495.0</ele><time>2026-04-18T13:48:59Z</time></trkpt><trkpt lat="43.24957891073158" lon="10.748815878941665"><ele>495.0</ele><time>2026-04-18T13:49:00Z</time></trkpt><trkpt lat="43.24966783199353" lon="10.74883037387749"><ele>495.0</ele><time>2026-04-18T13:49:01Z</time></trkpt><trkpt lat="43.249758090006324" lon="10.748802060272006"><ele>495.0</ele><time>2026-04-18T13:49:02Z</time></trkpt><trkpt lat="43.24984681700417" lon="10.748773529517743"><ele>495.0</ele><time>2026-04-18T13:49:03Z</time></trkpt><trkpt lat="43.249939202715076" lon="10.748748311395666"><ele>494.4</ele><time>2026-04-18T13:49:04Z</time></trkpt><trkpt lat="43.25002979768244" lon="10.748698007837437"><ele>493.8</ele><time>2026-04-18T13:49:05Z</time></trkpt><trkpt lat="43.250121765363275" lon="10.74865640886917"><ele>493.20000000000005</ele><time>2026-04-18T13:49:06Z</time></trkpt><trkpt lat="43.250215200675264" lon="10.748617690561822"><ele>492.6</ele><time>2026-04-18T13:49:07Z</time></trkpt><trkpt lat="43.2502788165135" lon="10.748507588587419"><ele>492.0</ele><time>2026-04-18T13:49:08Z</time></trkpt><trkpt lat="43.25035643046823" lon="10.748429606835904"><ele>492.0</ele><time>2026-04-18T13:49:09Z</time></trkpt><trkpt lat="43.25045133108146" lon="10.748401034689614"><ele>492.00000000000006</ele><time>2026-04-18T13:49:10Z</time></trkpt><trkpt lat="43.25053532960946" lon="10.748328171412345"><ele>492.00000000000006</ele><time>2026-04-18T13:49:11Z</time></trkpt><trkpt lat="43.25061982740378" lon="10.748277415087527"><ele>492.0</ele><time>2026-04-18T13:49:11.998Z</time></trkpt><trkpt lat="43.25068895802755" lon="10.748206248186598"><ele>492.0</ele><time>2026-04-18T13:49:12.998Z</time></trkpt><trkpt lat="43.2507354621374" lon="10.748107705443228"><ele>492.0</ele><time>2026-04-18T13:49:13.998Z</time></trkpt><trkpt lat="43.250793658423056" lon="10.748003207946278"><ele>492.00000000000006</ele><time>2026-04-18T13:49:14.998Z</time></trkpt><trkpt lat="43.25081745770891" lon="10.74787966820117"><ele>492.00000000000006</ele><time>2026-04-18T13:49:15.998Z</time></trkpt><trkpt lat="43.25082330635797" lon="10.74774347563306"><ele>492.0</ele><time>2026-04-18T13:49:16.998Z</time></trkpt><trkpt lat="43.2508684363847" lon="10.747612920674287"><ele>492.0</ele><time>2026-04-18T13:49:17.998Z</time></trkpt><trkpt lat="43.25091923996711" lon="10.747477703337045"><ele>492.0</ele><time>2026-04-18T13:49:18.998Z</time></trkpt><trkpt lat="43.250987232892854" lon="10.747350711241417"><ele>492.00000000000006</ele><time>2026-04-18T13:49:19.998Z</time></trkpt><trkpt lat="43.25107320053694" lon="10.747250758675431"><ele>492.00000000000006</ele><time>2026-04-18T13:49:20.998Z</time></trkpt><trkpt lat="43.251149081864874" lon="10.747139722862464"><ele>492.0</ele><time>2026-04-18T13:49:21.998Z</time></trkpt><trkpt lat="43.25120809686444" lon="10.747013834131781"><ele>492.0</ele><time>2026-04-18T13:49:22.998Z</time></trkpt><trkpt lat="43.25128317485363" lon="10.746913751353002"><ele>492.40000000000003</ele><time>2026-04-18T13:49:23.998Z</time></trkpt><trkpt lat="43.2513471794924" lon="10.746803642609525"><ele>492.80000000000007</ele><time>2026-04-18T13:49:24.998Z</time></trkpt><trkpt lat="43.25141562488272" lon="10.746701068083752"><ele>493.2</ele><time>2026-04-18T13:49:25.998Z</time></trkpt><trkpt lat="43.25146750586746" lon="10.746586658280892"><ele>493.6</ele><time>2026-04-18T13:49:26.998Z</time></trkpt><trkpt lat="43.25151108322534" lon="10.746480654088897"><ele>494.0</ele><time>2026-04-18T13:49:27.998Z</time></trkpt><trkpt lat="43.251553544292136" lon="10.746398409138786"><ele>494.0</ele><time>2026-04-18T13:49:28.998Z</time></trkpt><trkpt lat="43.2516558799995" lon="10.746324386915445"><ele>494.0</ele><time>2026-04-18T13:49:30.998Z</time></trkpt><trkpt lat="43.25176801084686" lon="10.746338286479206"><ele>494.0</ele><time>2026-04-18T13:49:32.999Z</time></trkpt><trkpt lat="43.25180387781185" lon="10.746422544853667"><ele>494.0</ele><time>2026-04-18T13:49:33.999Z</time></trkpt><trkpt lat="43.25185342156798" lon="10.746506300558375"><ele>494.0</ele><time>2026-04-18T13:49:34.999Z</time></trkpt><trkpt lat="43.251915513299586" lon="10.746589707003572"><ele>493.99999999999994</ele><time>2026-04-18T13:49:35.999Z</time></trkpt><trkpt lat="43.251963572541" lon="10.746693334453916"><ele>494.0</ele><time>2026-04-18T13:49:36.999Z</time></trkpt><trkpt lat="43.25201144671743" lon="10.746794664469538"><ele>494.0</ele><time>2026-04-18T13:49:37.999Z</time></trkpt><trkpt lat="43.252046803390826" lon="10.746904902518295"><ele>494.0</ele><time>2026-04-18T13:49:38.999Z</time></trkpt><trkpt lat="43.25209660861702" lon="10.747003044369334"><ele>493.99999999999994</ele><time>2026-04-18T13:49:39.999Z</time></trkpt><trkpt lat="43.25216400991119" lon="10.747084605766952"><ele>494.0</ele><time>2026-04-18T13:49:40.999Z</time></trkpt><trkpt lat="43.25223926169303" lon="10.747145992896764"><ele>494.66666666666663</ele><time>2026-04-18T13:49:41.999Z</time></trkpt><trkpt lat="43.25231561606172" lon="10.747197206827728"><ele>495.3333333333333</ele><time>2026-04-18T13:49:42.999Z</time></trkpt><trkpt lat="43.252394007969" lon="10.74723674491949"><ele>496.0</ele><time>2026-04-18T13:49:43.999Z</time></trkpt><trkpt lat="43.25247261483929" lon="10.74725649026072"><ele>496.66666666666663</ele><time>2026-04-18T13:49:44.999Z</time></trkpt><trkpt lat="43.252560386933695" lon="10.747254771055612"><ele>497.3333333333333</ele><time>2026-04-18T13:49:45.999Z</time></trkpt><trkpt lat="43.25264052864437" lon="10.747234259696148"><ele>498.0</ele><time>2026-04-18T13:49:46.999Z</time></trkpt><trkpt lat="43.25272344894391" lon="10.747210278711561"><ele>498.0</ele><time>2026-04-18T13:49:47.999Z</time></trkpt><trkpt lat="43.2527979107588" lon="10.747201811056453"><ele>498.0</ele><time>2026-04-18T13:49:48.999Z</time></trkpt><trkpt lat="43.25289375420035" lon="10.747198724517144"><ele>498.0</ele><time>2026-04-18T13:49:50.999Z</time></trkpt><trkpt lat="43.25294839564096" lon="10.747269250420322"><ele>498.0</ele><time>2026-04-18T13:49:52.999Z</time></trkpt><trkpt lat="43.25299278277653" lon="10.74743679886528"><ele>498.0</ele><time>2026-04-18T13:49:54.999Z</time></trkpt><trkpt lat="43.25301341717459" lon="10.747534482422182"><ele>498.0</ele><time>2026-04-18T13:49:55.999Z</time></trkpt><trkpt lat="43.25303921397565" lon="10.747642587601606"><ele>498.5</ele><time>2026-04-18T13:49:56.999Z</time></trkpt><trkpt lat="43.25306426440051" lon="10.74775113014048"><ele>499.0</ele><time>2026-04-18T13:49:57.999Z</time></trkpt><trkpt lat="43.2530883590403" lon="10.747861685980332"><ele>499.5</ele><time>2026-04-18T13:49:58.999Z</time></trkpt><trkpt lat="43.25311440280852" lon="10.747958381351047"><ele>500.0</ele><time>2026-04-18T13:49:59.999Z</time></trkpt><trkpt lat="43.25315403234749" lon="10.748045150544943"><ele>500.5</ele><time>2026-04-18T13:50:00.999Z</time></trkpt><trkpt lat="43.253203537858994" lon="10.74811634065224"><ele>501.0</ele><time>2026-04-18T13:50:01.999Z</time></trkpt><trkpt lat="43.25327294305123" lon="10.748178176959764"><ele>498.57142857142856</ele><time>2026-04-18T13:50:02.999Z</time></trkpt><trkpt lat="43.25334136492959" lon="10.748224948640082"><ele>496.1428571428571</ele><time>2026-04-18T13:50:03.999Z</time></trkpt><trkpt lat="43.25341661781178" lon="10.748250633274274"><ele>493.71428571428567</ele><time>2026-04-18T13:50:04.999Z</time></trkpt><trkpt lat="43.2534899753338" lon="10.748255003528245"><ele>491.2857142857143</ele><time>2026-04-18T13:50:05.999Z</time></trkpt><trkpt lat="43.253558529984446" lon="10.748291083578676"><ele>488.8571428571428</ele><time>2026-04-18T13:50:06.999Z</time></trkpt><trkpt lat="43.2536257184595" lon="10.74833213102872"><ele>486.4285714285714</ele><time>2026-04-18T13:50:07.999Z</time></trkpt><trkpt lat="43.25368330587039" lon="10.748382179617469"><ele>484.0</ele><time>2026-04-18T13:50:08.999Z</time></trkpt><trkpt lat="43.25371572375529" lon="10.748529355330444"><ele>484.6666666666667</ele><time>2026-04-18T13:50:10.999Z</time></trkpt><trkpt lat="43.25373254292048" lon="10.748683226196212"><ele>485.33333333333337</ele><time>2026-04-18T13:50:12.999Z</time></trkpt><trkpt lat="43.253744659930604" lon="10.748773861985658"><ele>486.0</ele><time>2026-04-18T13:50:13.999Z</time></trkpt><trkpt lat="43.25376506579663" lon="10.748860726318908"><ele>486.66666666666663</ele><time>2026-04-18T13:50:14.999Z</time></trkpt><trkpt lat="43.253766817187504" lon="10.748954153910072"><ele>487.3333333333333</ele><time>2026-04-18T13:50:15.999Z</time></trkpt><trkpt lat="43.25377753195842" lon="10.749050040085326"><ele>488.0</ele><time>2026-04-18T13:50:16.999Z</time></trkpt><trkpt lat="43.253797027554405" lon="10.749149513444953"><ele>487.99999999999994</ele><time>2026-04-18T13:50:17.999Z</time></trkpt><trkpt lat="43.25382423045025" lon="10.74924247078021"><ele>488.0</ele><time>2026-04-18T13:50:19Z</time></trkpt><trkpt lat="43.25386949716496" lon="10.749331656003642"><ele>488.0</ele><time>2026-04-18T13:50:20Z</time></trkpt><trkpt lat="43.2539159645874" lon="10.749428794222105"><ele>488.0</ele><time>2026-04-18T13:50:21Z</time></trkpt><trkpt lat="43.25397008756019" lon="10.749525323614428"><ele>487.99999999999994</ele><time>2026-04-18T13:50:22Z</time></trkpt><trkpt lat="43.254035572081385" lon="10.749611046570594"><ele>488.0</ele><time>2026-04-18T13:50:23Z</time></trkpt><trkpt lat="43.25409943835781" lon="10.749683245192026"><ele>487.71428571428567</ele><time>2026-04-18T13:50:24Z</time></trkpt><trkpt lat="43.254152790695784" lon="10.749733110256319"><ele>487.42857142857144</ele><time>2026-04-18T13:50:25Z</time></trkpt><trkpt lat="43.25421101751093" lon="10.74978505087882"><ele>487.1428571428571</ele><time>2026-04-18T13:50:26Z</time></trkpt><trkpt lat="43.25426675503815" lon="10.74983438788459"><ele>486.85714285714283</ele><time>2026-04-18T13:50:27Z</time></trkpt><trkpt lat="43.25433118989977" lon="10.749884165862008"><ele>486.57142857142856</ele><time>2026-04-18T13:50:28Z</time></trkpt><trkpt lat="43.25439888325454" lon="10.749925262857829"><ele>486.2857142857143</ele><time>2026-04-18T13:50:29Z</time></trkpt><trkpt lat="43.254463590602455" lon="10.749954543093061"><ele>486.0</ele><time>2026-04-18T13:50:30Z</time></trkpt><trkpt lat="43.25453094783968" lon="10.749973768208287"><ele>486.0</ele><time>2026-04-18T13:50:31Z</time></trkpt><trkpt lat="43.254607293430226" lon="10.749981652981619"><ele>486.0</ele><time>2026-04-18T13:50:32Z</time></trkpt><trkpt lat="43.2546901798909" lon="10.749960255557118"><ele>486.0</ele><time>2026-04-18T13:50:33Z</time></trkpt><trkpt lat="43.25476702077196" lon="10.749925594466754"><ele>486.0</ele><time>2026-04-18T13:50:34Z</time></trkpt><trkpt lat="43.254843734281216" lon="10.749928879664127"><ele>486.0</ele><time>2026-04-18T13:50:35Z</time></trkpt><trkpt lat="43.254922849456186" lon="10.749942059461754"><ele>486.0</ele><time>2026-04-18T13:50:36Z</time></trkpt><trkpt lat="43.25499625790224" lon="10.75000012980516"><ele>484.42857142857144</ele><time>2026-04-18T13:50:37Z</time></trkpt><trkpt lat="43.25506398957943" lon="10.75001669175118"><ele>482.8571428571429</ele><time>2026-04-18T13:50:38Z</time></trkpt><trkpt lat="43.25513698153911" lon="10.749981487454047"><ele>481.28571428571433</ele><time>2026-04-18T13:50:39Z</time></trkpt><trkpt lat="43.25520433089199" lon="10.749965214222687"><ele>479.7142857142857</ele><time>2026-04-18T13:50:40Z</time></trkpt><trkpt lat="43.255274337122756" lon="10.749939183704484"><ele>478.1428571428572</ele><time>2026-04-18T13:50:41Z</time></trkpt><trkpt lat="43.255339752923476" lon="10.749905585935116"><ele>476.5714285714286</ele><time>2026-04-18T13:50:42Z</time></trkpt><trkpt lat="43.255404114888655" lon="10.749879939743492"><ele>475.0</ele><time>2026-04-18T13:50:43Z</time></trkpt><trkpt lat="43.25552093841813" lon="10.749859709391613"><ele>475.00000000000006</ele><time>2026-04-18T13:50:45Z</time></trkpt><trkpt lat="43.25560323939708" lon="10.749930689861106"><ele>475.0</ele><time>2026-04-18T13:50:47Z</time></trkpt><trkpt lat="43.25568439282556" lon="10.750045131256375"><ele>475.0</ele><time>2026-04-18T13:50:49Z</time></trkpt><trkpt lat="43.25572701822916" lon="10.750121321292918"><ele>475.0</ele><time>2026-04-18T13:50:50Z</time></trkpt><trkpt lat="43.255770697105326" lon="10.750202381146607"><ele>475.00000000000006</ele><time>2026-04-18T13:50:51Z</time></trkpt><trkpt lat="43.25581877984146" lon="10.750283253949291"><ele>475.0</ele><time>2026-04-18T13:50:52Z</time></trkpt><trkpt lat="43.255871098152625" lon="10.750364651034738"><ele>474.33333333333337</ele><time>2026-04-18T13:50:53Z</time></trkpt><trkpt lat="43.25594050588454" lon="10.750452399906665"><ele>473.6666666666667</ele><time>2026-04-18T13:50:54Z</time></trkpt><trkpt lat="43.256021785296845" lon="10.750502525667986"><ele>473.0</ele><time>2026-04-18T13:50:55Z</time></trkpt><trkpt lat="43.256113660197386" lon="10.750459057748063"><ele>472.33333333333337</ele><time>2026-04-18T13:50:56Z</time></trkpt><trkpt lat="43.256189838618546" lon="10.750481762948205"><ele>471.6666666666667</ele><time>2026-04-18T13:50:57Z</time></trkpt><trkpt lat="43.256253546409326" lon="10.750530429715822"><ele>471.0</ele><time>2026-04-18T13:50:58Z</time></trkpt><trkpt lat="43.25628705998099" lon="10.750620359437663"><ele>471.0</ele><time>2026-04-18T13:50:59Z</time></trkpt><trkpt lat="43.25633022133887" lon="10.750707180721415"><ele>471.0</ele><time>2026-04-18T13:51:00Z</time></trkpt><trkpt lat="43.25637023596125" lon="10.750799066838875"><ele>471.0</ele><time>2026-04-18T13:51:01Z</time></trkpt><trkpt lat="43.25641514874535" lon="10.7508997410507"><ele>471.0</ele><time>2026-04-18T13:51:02Z</time></trkpt><trkpt lat="43.25646370225017" lon="10.75099899756795"><ele>471.0</ele><time>2026-04-18T13:51:03Z</time></trkpt><trkpt lat="43.25652096476238" lon="10.751086842312803"><ele>471.0</ele><time>2026-04-18T13:51:04Z</time></trkpt><trkpt lat="43.256569488924306" lon="10.751178851979654"><ele>469.6666666666667</ele><time>2026-04-18T13:51:05Z</time></trkpt><trkpt lat="43.25660972833509" lon="10.751280884008025"><ele>468.33333333333337</ele><time>2026-04-18T13:51:06Z</time></trkpt><trkpt lat="43.25665831484612" lon="10.751373950838204"><ele>467.0</ele><time>2026-04-18T13:51:07Z</time></trkpt><trkpt lat="43.25670763754445" lon="10.751469314346132"><ele>465.6666666666667</ele><time>2026-04-18T13:51:08Z</time></trkpt><trkpt lat="43.25675405933898" lon="10.751555817239103"><ele>464.33333333333337</ele><time>2026-04-18T13:51:09Z</time></trkpt><trkpt lat="43.25681148656021" lon="10.751643907640673"><ele>463.0</ele><time>2026-04-18T13:51:10Z</time></trkpt><trkpt lat="43.25687098065262" lon="10.751723965018227"><ele>463.00000000000006</ele><time>2026-04-18T13:51:11Z</time></trkpt><trkpt lat="43.25693437407702" lon="10.75180254356113"><ele>463.0</ele><time>2026-04-18T13:51:12Z</time></trkpt><trkpt lat="43.25700125596797" lon="10.751877943109411"><ele>463.0</ele><time>2026-04-18T13:51:13Z</time></trkpt><trkpt lat="43.25706918525592" lon="10.751949034797555"><ele>463.0</ele><time>2026-04-18T13:51:14Z</time></trkpt><trkpt lat="43.25714589891974" lon="10.752017030328513"><ele>463.00000000000006</ele><time>2026-04-18T13:51:15Z</time></trkpt><trkpt lat="43.25722733648363" lon="10.752082792660671"><ele>463.0</ele><time>2026-04-18T13:51:16Z</time></trkpt><trkpt lat="43.257310634950315" lon="10.75214942364161"><ele>462.59999999999997</ele><time>2026-04-18T13:51:17Z</time></trkpt><trkpt lat="43.25739611935959" lon="10.752216453819543"><ele>462.19999999999993</ele><time>2026-04-18T13:51:17.998Z</time></trkpt><trkpt lat="43.25748059635524" lon="10.752277763500183"><ele>461.8</ele><time>2026-04-18T13:51:18.998Z</time></trkpt><trkpt lat="43.257571569102915" lon="10.752313586291079"><ele>461.4</ele><time>2026-04-18T13:51:19.998Z</time></trkpt><trkpt lat="43.257643962825895" lon="10.752384944167899"><ele>461.0</ele><time>2026-04-18T13:51:20.998Z</time></trkpt><trkpt lat="43.25772294056166" lon="10.752427416865569"><ele>460.99999999999994</ele><time>2026-04-18T13:51:21.998Z</time></trkpt><trkpt lat="43.25780463191632" lon="10.752455278482808"><ele>461.0</ele><time>2026-04-18T13:51:22.998Z</time></trkpt><trkpt lat="43.25788952825195" lon="10.752456368200766"><ele>461.0</ele><time>2026-04-18T13:51:23.998Z</time></trkpt><trkpt lat="43.25797470437752" lon="10.7524456945065"><ele>461.0</ele><time>2026-04-18T13:51:24.998Z</time></trkpt><trkpt lat="43.258062168522244" lon="10.752435857625644"><ele>460.99999999999994</ele><time>2026-04-18T13:51:25.998Z</time></trkpt><trkpt lat="43.25815068355675" lon="10.752417470704376"><ele>461.0</ele><time>2026-04-18T13:51:26.998Z</time></trkpt><trkpt lat="43.25823874668135" lon="10.752424044863902"><ele>461.8333333333333</ele><time>2026-04-18T13:51:27.998Z</time></trkpt><trkpt lat="43.258323492642305" lon="10.752387573314738"><ele>462.66666666666663</ele><time>2026-04-18T13:51:28.998Z</time></trkpt><trkpt lat="43.25840612377198" lon="10.752368543289192"><ele>463.5</ele><time>2026-04-18T13:51:29.998Z</time></trkpt><trkpt lat="43.258488082255624" lon="10.752338417269167"><ele>464.33333333333337</ele><time>2026-04-18T13:51:30.998Z</time></trkpt><trkpt lat="43.258569839150525" lon="10.752294459418838"><ele>465.1666666666667</ele><time>2026-04-18T13:51:31.998Z</time></trkpt><trkpt lat="43.25865390269779" lon="10.752246433278204"><ele>466.0</ele><time>2026-04-18T13:51:32.999Z</time></trkpt><trkpt lat="43.258737121881644" lon="10.752197557233943"><ele>466.0</ele><time>2026-04-18T13:51:33.999Z</time></trkpt><trkpt lat="43.25881100660798" lon="10.752122704527125"><ele>466.0</ele><time>2026-04-18T13:51:34.999Z</time></trkpt><trkpt lat="43.25889030843804" lon="10.752066058806049"><ele>466.0</ele><time>2026-04-18T13:51:35.999Z</time></trkpt><trkpt lat="43.25897476337483" lon="10.752015163476887"><ele>466.0</ele><time>2026-04-18T13:51:36.999Z</time></trkpt><trkpt lat="43.259060067879446" lon="10.751988766653932"><ele>466.0</ele><time>2026-04-18T13:51:37.999Z</time></trkpt><trkpt lat="43.259149720426" lon="10.752014006552331"><ele>465.83333333333337</ele><time>2026-04-18T13:51:38.999Z</time></trkpt><trkpt lat="43.25923753102343" lon="10.752032359325097"><ele>465.6666666666667</ele><time>2026-04-18T13:51:39.999Z</time></trkpt><trkpt lat="43.25932848673317" lon="10.752056976175506"><ele>465.5</ele><time>2026-04-18T13:51:40.999Z</time></trkpt><trkpt lat="43.25941842127845" lon="10.752044355214641"><ele>465.33333333333337</ele><time>2026-04-18T13:51:41.999Z</time></trkpt><trkpt lat="43.25950459623315" lon="10.75205391997979"><ele>465.1666666666667</ele><time>2026-04-18T13:51:42.999Z</time></trkpt><trkpt lat="43.25957293642952" lon="10.75207684306391"><ele>465.0</ele><time>2026-04-18T13:51:43.999Z</time></trkpt><trkpt lat="43.25962678036134" lon="10.752124341999359"><ele>465.0</ele><time>2026-04-18T13:51:44.999Z</time></trkpt><trkpt lat="43.259661355169804" lon="10.752199334228973"><ele>465.0</ele><time>2026-04-18T13:51:45.999Z</time></trkpt><trkpt lat="43.259704698184905" lon="10.75235782834693"><ele>465.0</ele><time>2026-04-18T13:51:47.999Z</time></trkpt><trkpt lat="43.25968034134924" lon="10.752468264647769"><ele>465.0</ele><time>2026-04-18T13:51:48.999Z</time></trkpt><trkpt lat="43.259644244643724" lon="10.752580787144508"><ele>465.0</ele><time>2026-04-18T13:51:49.999Z</time></trkpt><trkpt lat="43.259594734628195" lon="10.752687020983254"><ele>463.3333333333333</ele><time>2026-04-18T13:51:50.999Z</time></trkpt><trkpt lat="43.25954319852513" lon="10.752784593099527"><ele>461.66666666666663</ele><time>2026-04-18T13:51:51.999Z</time></trkpt><trkpt lat="43.259499693165345" lon="10.752888764699062"><ele>460.0</ele><time>2026-04-18T13:51:52.999Z</time></trkpt><trkpt lat="43.25947378369556" lon="10.753006346705563"><ele>458.3333333333333</ele><time>2026-04-18T13:51:53.999Z</time></trkpt><trkpt lat="43.259462743928935" lon="10.753105819416632"><ele>456.66666666666663</ele><time>2026-04-18T13:51:54.999Z</time></trkpt><trkpt lat="43.2594742188158" lon="10.753208898533476"><ele>455.0</ele><time>2026-04-18T13:51:55.999Z</time></trkpt><trkpt lat="43.25948093731266" lon="10.753307830430238"><ele>454.99999999999994</ele><time>2026-04-18T13:51:56.999Z</time></trkpt><trkpt lat="43.2595024701595" lon="10.753401671397162"><ele>455.0</ele><time>2026-04-18T13:51:57.999Z</time></trkpt><trkpt lat="43.259540216113045" lon="10.753487941843282"><ele>455.0</ele><time>2026-04-18T13:51:58.999Z</time></trkpt><trkpt lat="43.259576994426" lon="10.753575620613612"><ele>455.0</ele><time>2026-04-18T13:51:59.999Z</time></trkpt><trkpt lat="43.25963088806494" lon="10.753652143119979"><ele>454.99999999999994</ele><time>2026-04-18T13:52:00.999Z</time></trkpt><trkpt lat="43.25968969572531" lon="10.753727659090575"><ele>455.0</ele><time>2026-04-18T13:52:01.999Z</time></trkpt><trkpt lat="43.25975920129301" lon="10.753788860649667"><ele>455.49999999999994</ele><time>2026-04-18T13:52:02.999Z</time></trkpt><trkpt lat="43.25981472402388" lon="10.753871313633868"><ele>456.0</ele><time>2026-04-18T13:52:03.999Z</time></trkpt><trkpt lat="43.259877911893774" lon="10.753943715865768"><ele>456.5</ele><time>2026-04-18T13:52:04.999Z</time></trkpt><trkpt lat="43.25994980726523" lon="10.75399595650075"><ele>457.0</ele><time>2026-04-18T13:52:05.999Z</time></trkpt><trkpt lat="43.2600283224538" lon="10.754036715200627"><ele>457.49999999999994</ele><time>2026-04-18T13:52:06.999Z</time></trkpt><trkpt lat="43.260102682990066" lon="10.754099987413037"><ele>458.0</ele><time>2026-04-18T13:52:08Z</time></trkpt><trkpt lat="43.26018357097494" lon="10.754141639553952"><ele>457.99999999999994</ele><time>2026-04-18T13:52:09Z</time></trkpt><trkpt lat="43.260264175468066" lon="10.75418095577312"><ele>458.0</ele><time>2026-04-18T13:52:10Z</time></trkpt><trkpt lat="43.260345813636356" lon="10.754208644980148"><ele>458.0</ele><time>2026-04-18T13:52:11Z</time></trkpt><trkpt lat="43.2604258167648" lon="10.75421924967211"><ele>458.0</ele><time>2026-04-18T13:52:12Z</time></trkpt><trkpt lat="43.26050973465361" lon="10.754208345050749"><ele>457.99999999999994</ele><time>2026-04-18T13:52:13Z</time></trkpt><trkpt lat="43.260589108677515" lon="10.754186856443829"><ele>458.0</ele><time>2026-04-18T13:52:14Z</time></trkpt><trkpt lat="43.26066531144815" lon="10.754158835915407"><ele>457.99999999999994</ele><time>2026-04-18T13:52:15Z</time></trkpt><trkpt lat="43.26074228999263" lon="10.754114226024173"><ele>458.0</ele><time>2026-04-18T13:52:16Z</time></trkpt><trkpt lat="43.26081205871919" lon="10.754060017486504"><ele>458.0</ele><time>2026-04-18T13:52:17Z</time></trkpt><trkpt lat="43.260880873537985" lon="10.754018267984527"><ele>458.0</ele><time>2026-04-18T13:52:18Z</time></trkpt><trkpt lat="43.26093492140472" lon="10.753948452449231"><ele>457.99999999999994</ele><time>2026-04-18T13:52:19Z</time></trkpt><trkpt lat="43.260974970909245" lon="10.753867823807424"><ele>458.0</ele><time>2026-04-18T13:52:20Z</time></trkpt><trkpt lat="43.2609953650958" lon="10.753779223275991"><ele>458.0</ele><time>2026-04-18T13:52:21Z</time></trkpt><trkpt lat="43.2610533983752" lon="10.753646865597284"><ele>457.99999999999994</ele><time>2026-04-18T13:52:23Z</time></trkpt><trkpt lat="43.261165813222775" lon="10.753625143398645"><ele>457.99999999999994</ele><time>2026-04-18T13:52:25Z</time></trkpt><trkpt lat="43.26128835747595" lon="10.753593587809672"><ele>458.0</ele><time>2026-04-18T13:52:27Z</time></trkpt><trkpt lat="43.26135308438217" lon="10.75356258934573"><ele>458.0</ele><time>2026-04-18T13:52:28Z</time></trkpt><trkpt lat="43.26141801792001" lon="10.75351395886605"><ele>459.3333333333333</ele><time>2026-04-18T13:52:29Z</time></trkpt><trkpt lat="43.26147456235348" lon="10.753439235489687"><ele>460.66666666666663</ele><time>2026-04-18T13:52:30Z</time></trkpt><trkpt lat="43.26153356252731" lon="10.753360947088707"><ele>462.0</ele><time>2026-04-18T13:52:31Z</time></trkpt><trkpt lat="43.26159210616821" lon="10.753280927099418"><ele>463.33333333333337</ele><time>2026-04-18T13:52:32Z</time></trkpt><trkpt lat="43.26164834789212" lon="10.753213071812032"><ele>464.6666666666667</ele><time>2026-04-18T13:52:33Z</time></trkpt><trkpt lat="43.261697854042275" lon="10.753151680975881"><ele>466.0</ele><time>2026-04-18T13:52:34Z</time></trkpt><trkpt lat="43.2617857411228" lon="10.75310198254562"><ele>466.00000000000006</ele><time>2026-04-18T13:52:36Z</time></trkpt><trkpt lat="43.26187097823279" lon="10.753079449424739"><ele>466.0</ele><time>2026-04-18T13:52:38Z</time></trkpt><trkpt lat="43.2619549777207" lon="10.753095946671332"><ele>466.0</ele><time>2026-04-18T13:52:40Z</time></trkpt><trkpt lat="43.26205987620215" lon="10.753158420993017"><ele>466.0</ele><time>2026-04-18T13:52:42Z</time></trkpt><trkpt lat="43.26210950792484" lon="10.753221241634257"><ele>466.00000000000006</ele><time>2026-04-18T13:52:43Z</time></trkpt><trkpt lat="43.26217120607733" lon="10.753268153068126"><ele>466.0</ele><time>2026-04-18T13:52:44Z</time></trkpt><trkpt lat="43.26223636740815" lon="10.753309438189243"><ele>464.8</ele><time>2026-04-18T13:52:45Z</time></trkpt><trkpt lat="43.262306485076216" lon="10.753329472006067"><ele>463.6</ele><time>2026-04-18T13:52:46Z</time></trkpt><trkpt lat="43.26238046273542" lon="10.753321212341909"><ele>462.4</ele><time>2026-04-18T13:52:47Z</time></trkpt><trkpt lat="43.262443583407425" lon="10.75328547778966"><ele>461.2</ele><time>2026-04-18T13:52:48Z</time></trkpt><trkpt lat="43.262553765753275" lon="10.753206506707155"><ele>460.0</ele><time>2026-04-18T13:52:50Z</time></trkpt><trkpt lat="43.262671844541174" lon="10.753227032475241"><ele>460.00000000000006</ele><time>2026-04-18T13:52:52Z</time></trkpt><trkpt lat="43.26272697827017" lon="10.753275797658699"><ele>460.0</ele><time>2026-04-18T13:52:53Z</time></trkpt><trkpt lat="43.262785877750076" lon="10.753337930271842"><ele>460.0</ele><time>2026-04-18T13:52:54Z</time></trkpt><trkpt lat="43.26284945711865" lon="10.753400986443072"><ele>460.0</ele><time>2026-04-18T13:52:55Z</time></trkpt><trkpt lat="43.26291941718945" lon="10.753449823749119"><ele>460.00000000000006</ele><time>2026-04-18T13:52:56Z</time></trkpt><trkpt lat="43.262988952658745" lon="10.753510006268357"><ele>460.0</ele><time>2026-04-18T13:52:57Z</time></trkpt><trkpt lat="43.263068052164485" lon="10.753551501153254"><ele>457.6666666666667</ele><time>2026-04-18T13:52:58Z</time></trkpt><trkpt lat="43.26314884210146" lon="10.753575577147087"><ele>455.33333333333337</ele><time>2026-04-18T13:52:59Z</time></trkpt><trkpt lat="43.26323890127019" lon="10.753586000968502"><ele>453.0</ele><time>2026-04-18T13:53:00Z</time></trkpt><trkpt lat="43.263326368566695" lon="10.753590933068661"><ele>450.66666666666663</ele><time>2026-04-18T13:53:01Z</time></trkpt><trkpt lat="43.2634035811694" lon="10.753577904623794"><ele>448.3333333333333</ele><time>2026-04-18T13:53:02Z</time></trkpt><trkpt lat="43.26348032167877" lon="10.753611034531394"><ele>446.0</ele><time>2026-04-18T13:53:03Z</time></trkpt><trkpt lat="43.263548242071145" lon="10.753634559742752"><ele>445.99999999999994</ele><time>2026-04-18T13:53:04Z</time></trkpt><trkpt lat="43.263600223299456" lon="10.753752506464583"><ele>446.0</ele><time>2026-04-18T13:53:05Z</time></trkpt><trkpt lat="43.26364329473547" lon="10.75384127693632"><ele>446.0</ele><time>2026-04-18T13:53:06Z</time></trkpt><trkpt lat="43.26366415147006" lon="10.753940811069338"><ele>446.0</ele><time>2026-04-18T13:53:07Z</time></trkpt><trkpt lat="43.263685523310045" lon="10.75404030643317"><ele>445.99999999999994</ele><time>2026-04-18T13:53:08Z</time></trkpt><trkpt lat="43.26370809911438" lon="10.754146270696573"><ele>446.0</ele><time>2026-04-18T13:53:09Z</time></trkpt><trkpt lat="43.26373563923755" lon="10.754248041638004"><ele>446.0</ele><time>2026-04-18T13:53:10Z</time></trkpt><trkpt lat="43.26376944485579" lon="10.754347268627193"><ele>446.0</ele><time>2026-04-18T13:53:11.001Z</time></trkpt><trkpt lat="43.26381660401867" lon="10.754437217944268"><ele>446.0</ele><time>2026-04-18T13:53:12.001Z</time></trkpt><trkpt lat="43.26385324572871" lon="10.754529894706172"><ele>446.0</ele><time>2026-04-18T13:53:13.001Z</time></trkpt><trkpt lat="43.26389319860003" lon="10.75461409790151"><ele>446.0</ele><time>2026-04-18T13:53:14.001Z</time></trkpt><trkpt lat="43.26393647157607" lon="10.754689701571804"><ele>446.0</ele><time>2026-04-18T13:53:15.001Z</time></trkpt><trkpt lat="43.26398547918111" lon="10.754750695892358"><ele>446.0</ele><time>2026-04-18T13:53:16.001Z</time></trkpt><trkpt lat="43.26403845315864" lon="10.754797450439831"><ele>447.3333333333333</ele><time>2026-04-18T13:53:17.001Z</time></trkpt><trkpt lat="43.26415015248389" lon="10.75488183608315"><ele>448.66666666666663</ele><time>2026-04-18T13:53:19.001Z</time></trkpt><trkpt lat="43.26422039294867" lon="10.754909865741885"><ele>450.0</ele><time>2026-04-18T13:53:20.001Z</time></trkpt><trkpt lat="43.26429703139153" lon="10.754931875354897"><ele>451.33333333333337</ele><time>2026-04-18T13:53:21.001Z</time></trkpt><trkpt lat="43.26437910728851" lon="10.754943459540153"><ele>452.6666666666667</ele><time>2026-04-18T13:53:22.001Z</time></trkpt><trkpt lat="43.26446472434294" lon="10.754943251120114"><ele>454.0</ele><time>2026-04-18T13:53:22.999Z</time></trkpt><trkpt lat="43.264543986067444" lon="10.754947284145773"><ele>454.0</ele><time>2026-04-18T13:53:23.999Z</time></trkpt><trkpt lat="43.264625513937844" lon="10.754964830523376"><ele>454.0</ele><time>2026-04-18T13:53:24.999Z</time></trkpt><trkpt lat="43.264712666290706" lon="10.75499057344163"><ele>454.0</ele><time>2026-04-18T13:53:25.999Z</time></trkpt><trkpt lat="43.26479945672128" lon="10.755044665231795"><ele>454.0</ele><time>2026-04-18T13:53:26.999Z</time></trkpt><trkpt lat="43.26488577638206" lon="10.755113643216566"><ele>454.0</ele><time>2026-04-18T13:53:27.999Z</time></trkpt><trkpt lat="43.26498015985905" lon="10.755140025339086"><ele>455.50000000000006</ele><time>2026-04-18T13:53:28.999Z</time></trkpt><trkpt lat="43.26506822741202" lon="10.755139029901473"><ele>457.0</ele><time>2026-04-18T13:53:29.999Z</time></trkpt><trkpt lat="43.26514683504838" lon="10.755115186596639"><ele>458.5</ele><time>2026-04-18T13:53:30.999Z</time></trkpt><trkpt lat="43.26522536005303" lon="10.755113920605439"><ele>460.0</ele><time>2026-04-18T13:53:31.999Z</time></trkpt><trkpt lat="43.26530880421477" lon="10.755086981255026"><ele>461.50000000000006</ele><time>2026-04-18T13:53:32.999Z</time></trkpt><trkpt lat="43.26539277290495" lon="10.755051437654481"><ele>463.0</ele><time>2026-04-18T13:53:33.999Z</time></trkpt><trkpt lat="43.26547011246355" lon="10.755020995194114"><ele>463.00000000000006</ele><time>2026-04-18T13:53:34.999Z</time></trkpt><trkpt lat="43.26554976507314" lon="10.755007790289957"><ele>463.0</ele><time>2026-04-18T13:53:35.999Z</time></trkpt><trkpt lat="43.265632396250766" lon="10.755007546298266"><ele>463.0</ele><time>2026-04-18T13:53:36.999Z</time></trkpt><trkpt lat="43.265716292117304" lon="10.755023524774025"><ele>463.0</ele><time>2026-04-18T13:53:37.999Z</time></trkpt><trkpt lat="43.265801557762096" lon="10.755029141506181"><ele>463.00000000000006</ele><time>2026-04-18T13:53:38.999Z</time></trkpt><trkpt lat="43.265887077839466" lon="10.755002863867578"><ele>463.0</ele><time>2026-04-18T13:53:39.999Z</time></trkpt><trkpt lat="43.265967941667164" lon="10.754971210972915"><ele>461.00000000000006</ele><time>2026-04-18T13:53:40.999Z</time></trkpt><trkpt lat="43.26604523556753" lon="10.754923087512719"><ele>459.0</ele><time>2026-04-18T13:53:41.999Z</time></trkpt><trkpt lat="43.26612780678162" lon="10.754884920216504"><ele>457.0</ele><time>2026-04-18T13:53:42.999Z</time></trkpt><trkpt lat="43.266212170391135" lon="10.754895991899204"><ele>455.0</ele><time>2026-04-18T13:53:43.999Z</time></trkpt><trkpt lat="43.26629540248461" lon="10.754903421419815"><ele>453.00000000000006</ele><time>2026-04-18T13:53:44.999Z</time></trkpt><trkpt lat="43.26637414912025" lon="10.75492928426467"><ele>451.0</ele><time>2026-04-18T13:53:45.999Z</time></trkpt><trkpt lat="43.26645223967235" lon="10.75497280465135"><ele>449.20000000000005</ele><time>2026-04-18T13:53:46.999Z</time></trkpt><trkpt lat="43.26653511092734" lon="10.755026563883185"><ele>447.40000000000003</ele><time>2026-04-18T13:53:48Z</time></trkpt><trkpt lat="43.266609193780546" lon="10.755097649511713"><ele>445.6</ele><time>2026-04-18T13:53:49Z</time></trkpt><trkpt lat="43.266688650614704" lon="10.755166114019767"><ele>443.8</ele><time>2026-04-18T13:53:50Z</time></trkpt><trkpt lat="43.26677132262514" lon="10.755233610759232"><ele>442.0</ele><time>2026-04-18T13:53:51Z</time></trkpt><trkpt lat="43.26686449253879" lon="10.755274627357322"><ele>442.0</ele><time>2026-04-18T13:53:52Z</time></trkpt><trkpt lat="43.26695560399672" lon="10.755328302384314"><ele>442.00000000000006</ele><time>2026-04-18T13:53:53Z</time></trkpt><trkpt lat="43.26704608224785" lon="10.755377550993503"><ele>442.00000000000006</ele><time>2026-04-18T13:53:54Z</time></trkpt><trkpt lat="43.26713481055727" lon="10.755424650410184"><ele>442.0</ele><time>2026-04-18T13:53:55Z</time></trkpt><trkpt lat="43.26722249318427" lon="10.755459803384737"><ele>442.0</ele><time>2026-04-18T13:53:56Z</time></trkpt><trkpt lat="43.26731471480371" lon="10.755475102786077"><ele>442.00000000000006</ele><time>2026-04-18T13:53:57Z</time></trkpt><trkpt lat="43.267406706741156" lon="10.755468787332754"><ele>442.0</ele><time>2026-04-18T13:53:58Z</time></trkpt><trkpt lat="43.26749267883316" lon="10.755444617958592"><ele>442.0</ele><time>2026-04-18T13:53:59Z</time></trkpt><trkpt lat="43.26756857170781" lon="10.75541069790689"><ele>442.0</ele><time>2026-04-18T13:54:00Z</time></trkpt><trkpt lat="43.26765276859112" lon="10.755354313979025"><ele>442.00000000000006</ele><time>2026-04-18T13:54:01Z</time></trkpt><trkpt lat="43.26771634885652" lon="10.755281913504856"><ele>442.0</ele><time>2026-04-18T13:54:02Z</time></trkpt><trkpt lat="43.267780422731406" lon="10.755204629001259"><ele>441.40000000000003</ele><time>2026-04-18T13:54:03Z</time></trkpt><trkpt lat="43.267834935789395" lon="10.755128586402048"><ele>440.80000000000007</ele><time>2026-04-18T13:54:04Z</time></trkpt><trkpt lat="43.267899705215974" lon="10.755075479691339"><ele>440.2</ele><time>2026-04-18T13:54:05Z</time></trkpt><trkpt lat="43.26796096374798" lon="10.755025075639969"><ele>439.6</ele><time>2026-04-18T13:54:06Z</time></trkpt><trkpt lat="43.268073822231536" lon="10.755059076127562"><ele>439.0</ele><time>2026-04-18T13:54:08Z</time></trkpt><trkpt lat="43.268156024204465" lon="10.755175646195829"><ele>439.6666666666667</ele><time>2026-04-18T13:54:10Z</time></trkpt><trkpt lat="43.2681933568706" lon="10.755251189389835"><ele>440.33333333333337</ele><time>2026-04-18T13:54:11Z</time></trkpt><trkpt lat="43.26824464995246" lon="10.755317200039011"><ele>441.0</ele><time>2026-04-18T13:54:12Z</time></trkpt><trkpt lat="43.26828665226829" lon="10.755400503886065"><ele>441.66666666666663</ele><time>2026-04-18T13:54:13Z</time></trkpt><trkpt lat="43.26832156942316" lon="10.75549925829234"><ele>442.3333333333333</ele><time>2026-04-18T13:54:14Z</time></trkpt><trkpt lat="43.26839236643428" lon="10.755564630267559"><ele>443.0</ele><time>2026-04-18T13:54:15Z</time></trkpt><trkpt lat="43.268454931583015" lon="10.755647899049901"><ele>443.0</ele><time>2026-04-18T13:54:16Z</time></trkpt><trkpt lat="43.26852384124254" lon="10.755728255413574"><ele>442.99999999999994</ele><time>2026-04-18T13:54:17Z</time></trkpt><trkpt lat="43.268594784828814" lon="10.755812018452652"><ele>442.99999999999994</ele><time>2026-04-18T13:54:18Z</time></trkpt><trkpt lat="43.26866892359934" lon="10.755890049934907"><ele>443.0</ele><time>2026-04-18T13:54:19Z</time></trkpt><trkpt lat="43.268731506479" lon="10.755991015407751"><ele>443.0</ele><time>2026-04-18T13:54:20Z</time></trkpt><trkpt lat="43.26881613821877" lon="10.756061251769873"><ele>442.4</ele><time>2026-04-18T13:54:21Z</time></trkpt><trkpt lat="43.26889013319627" lon="10.756149668861777"><ele>441.79999999999995</ele><time>2026-04-18T13:54:22Z</time></trkpt><trkpt lat="43.26896203008416" lon="10.756234362436981"><ele>441.2</ele><time>2026-04-18T13:54:23Z</time></trkpt><trkpt lat="43.26903762372101" lon="10.756308610677962"><ele>440.6</ele><time>2026-04-18T13:54:24Z</time></trkpt><trkpt lat="43.26910411946345" lon="10.756399067655092"><ele>440.0</ele><time>2026-04-18T13:54:25Z</time></trkpt><trkpt lat="43.269182635365375" lon="10.756460324766808"><ele>440.0</ele><time>2026-04-18T13:54:26Z</time></trkpt><trkpt lat="43.2692680570579" lon="10.756500302772789"><ele>440.0</ele><time>2026-04-18T13:54:27Z</time></trkpt><trkpt lat="43.26934710740238" lon="10.756561880318644"><ele>440.0</ele><time>2026-04-18T13:54:28Z</time></trkpt><trkpt lat="43.26942558216787" lon="10.756627230873416"><ele>440.0</ele><time>2026-04-18T13:54:29Z</time></trkpt><trkpt lat="43.2695059696746" lon="10.75669142609171"><ele>440.0</ele><time>2026-04-18T13:54:30Z</time></trkpt><trkpt lat="43.2695876707697" lon="10.756747410232101"><ele>439.99999999999994</ele><time>2026-04-18T13:54:31Z</time></trkpt><trkpt lat="43.26966917725648" lon="10.756793907149726"><ele>440.0</ele><time>2026-04-18T13:54:32Z</time></trkpt><trkpt lat="43.26974743221361" lon="10.756826205171974"><ele>440.0</ele><time>2026-04-18T13:54:33Z</time></trkpt><trkpt lat="43.26982508169226" lon="10.756842534640585"><ele>440.0</ele><time>2026-04-18T13:54:34Z</time></trkpt><trkpt lat="43.26990280623505" lon="10.75685169504983"><ele>439.99999999999994</ele><time>2026-04-18T13:54:35Z</time></trkpt><trkpt lat="43.26998090216101" lon="10.75684662745801"><ele>440.0</ele><time>2026-04-18T13:54:36Z</time></trkpt><trkpt lat="43.27006001566819" lon="10.75684752848356"><ele>440.1428571428571</ele><time>2026-04-18T13:54:37Z</time></trkpt><trkpt lat="43.270139195661436" lon="10.756856140021823"><ele>440.2857142857143</ele><time>2026-04-18T13:54:38Z</time></trkpt><trkpt lat="43.27021665325075" lon="10.756870012639464"><ele>440.42857142857144</ele><time>2026-04-18T13:54:39Z</time></trkpt><trkpt lat="43.27029056275173" lon="10.75688545587724"><ele>440.57142857142856</ele><time>2026-04-18T13:54:40Z</time></trkpt><trkpt lat="43.270357818303026" lon="10.756931612713654"><ele>440.7142857142857</ele><time>2026-04-18T13:54:41Z</time></trkpt><trkpt lat="43.27042502592479" lon="10.756960363089314"><ele>440.85714285714283</ele><time>2026-04-18T13:54:42Z</time></trkpt><trkpt lat="43.270490569970306" lon="10.756994598585695"><ele>441.0</ele><time>2026-04-18T13:54:43.001Z</time></trkpt><trkpt lat="43.270556828051845" lon="10.757022417669017"><ele>442.7142857142857</ele><time>2026-04-18T13:54:44.001Z</time></trkpt><trkpt lat="43.27062027780529" lon="10.757069873529323"><ele>444.42857142857144</ele><time>2026-04-18T13:54:45.001Z</time></trkpt><trkpt lat="43.270678778750735" lon="10.75712203932563"><ele>446.1428571428571</ele><time>2026-04-18T13:54:46.001Z</time></trkpt><trkpt lat="43.27073389259473" lon="10.757178798462139"><ele>447.85714285714283</ele><time>2026-04-18T13:54:47.001Z</time></trkpt><trkpt lat="43.27077456984474" lon="10.757252913605116"><ele>449.57142857142856</ele><time>2026-04-18T13:54:48.001Z</time></trkpt><trkpt lat="43.27079776237797" lon="10.757335600961191"><ele>451.2857142857142</ele><time>2026-04-18T13:54:49.001Z</time></trkpt><trkpt lat="43.2707776311053" lon="10.757418374700043"><ele>452.99999999999994</ele><time>2026-04-18T13:54:50.001Z</time></trkpt><trkpt lat="43.27077870688735" lon="10.757582529781699"><ele>453.75</ele><time>2026-04-18T13:54:52.001Z</time></trkpt><trkpt lat="43.2707609855259" lon="10.757747766012521"><ele>454.5</ele><time>2026-04-18T13:54:54.001Z</time></trkpt><trkpt lat="43.270787580324104" lon="10.757904533882419"><ele>455.25</ele><time>2026-04-18T13:54:56.001Z</time></trkpt><trkpt lat="43.27084167231771" lon="10.758054565062316"><ele>456.0</ele><time>2026-04-18T13:54:58.001Z</time></trkpt><trkpt lat="43.27090873623511" lon="10.758196107225052"><ele>456.0</ele><time>2026-04-18T13:55:00.001Z</time></trkpt><trkpt lat="43.27093602357405" lon="10.758276624699263"><ele>456.0</ele><time>2026-04-18T13:55:01.001Z</time></trkpt><trkpt lat="43.27095658530896" lon="10.758362626519675"><ele>456.0</ele><time>2026-04-18T13:55:02.001Z</time></trkpt><trkpt lat="43.27094295271238" lon="10.758537379715925"><ele>456.0</ele><time>2026-04-18T13:55:04.001Z</time></trkpt><trkpt lat="43.270921881886835" lon="10.75862754850227"><ele>456.0</ele><time>2026-04-18T13:55:05.001Z</time></trkpt><trkpt lat="43.27089949254156" lon="10.758716970912321"><ele>456.0</ele><time>2026-04-18T13:55:06.001Z</time></trkpt><trkpt lat="43.27087311072671" lon="10.758890818952478"><ele>456.57142857142856</ele><time>2026-04-18T13:55:08.001Z</time></trkpt><trkpt lat="43.27086778877321" lon="10.758979998409933"><ele>457.1428571428571</ele><time>2026-04-18T13:55:09.001Z</time></trkpt><trkpt lat="43.270848265663886" lon="10.75907122864992"><ele>457.71428571428567</ele><time>2026-04-18T13:55:10.001Z</time></trkpt><trkpt lat="43.27081458924982" lon="10.759158072451692"><ele>458.2857142857142</ele><time>2026-04-18T13:55:11.001Z</time></trkpt><trkpt lat="43.27077615241563" lon="10.759235498244681"><ele>458.85714285714283</ele><time>2026-04-18T13:55:12.001Z</time></trkpt><trkpt lat="43.27074632925627" lon="10.759313076451352"><ele>459.42857142857133</ele><time>2026-04-18T13:55:13.001Z</time></trkpt><trkpt lat="43.27074167098423" lon="10.759399909489142"><ele>459.99999999999994</ele><time>2026-04-18T13:55:14.001Z</time></trkpt><trkpt lat="43.27075353753238" lon="10.759486005512484"><ele>460.2</ele><time>2026-04-18T13:55:15.001Z</time></trkpt><trkpt lat="43.27081718112715" lon="10.759631023682664"><ele>460.4</ele><time>2026-04-18T13:55:17.001Z</time></trkpt><trkpt lat="43.2708527524908" lon="10.759765959256923"><ele>460.6</ele><time>2026-04-18T13:55:19.001Z</time></trkpt><trkpt lat="43.27084321532601" lon="10.759895369361507"><ele>460.8</ele><time>2026-04-18T13:55:21.001Z</time></trkpt><trkpt lat="43.27082558730972" lon="10.760024446760829"><ele>461.0</ele><time>2026-04-18T13:55:23.001Z</time></trkpt><trkpt lat="43.27082272279841" lon="10.760162924046071"><ele>462.20000000000005</ele><time>2026-04-18T13:55:25.001Z</time></trkpt><trkpt lat="43.270813354397205" lon="10.760311076333826"><ele>463.40000000000003</ele><time>2026-04-18T13:55:27.001Z</time></trkpt><trkpt lat="43.27077392670778" lon="10.760387513107803"><ele>464.6</ele><time>2026-04-18T13:55:28.001Z</time></trkpt><trkpt lat="43.2707728519709" lon="10.760546695248804"><ele>465.8</ele><time>2026-04-18T13:55:29.998Z</time></trkpt><trkpt lat="43.270772408257386" lon="10.7607011589946"><ele>467.0</ele><time>2026-04-18T13:55:31.998Z</time></trkpt><trkpt lat="43.27076842375477" lon="10.760858178040984"><ele>467.0</ele><time>2026-04-18T13:55:33.998Z</time></trkpt><trkpt lat="43.270759206825396" lon="10.761001242617036"><ele>467.00000000000006</ele><time>2026-04-18T13:55:35.998Z</time></trkpt><trkpt lat="43.27076830717815" lon="10.761124852954561"><ele>467.00000000000006</ele><time>2026-04-18T13:55:37.998Z</time></trkpt><trkpt lat="43.270847094799194" lon="10.761214817578203"><ele>467.0</ele><time>2026-04-18T13:55:39.998Z</time></trkpt><trkpt lat="43.270932955720916" lon="10.761280330753335"><ele>467.0</ele><time>2026-04-18T13:55:41.998Z</time></trkpt><trkpt lat="43.27103424765422" lon="10.761312613543174"><ele>465.8</ele><time>2026-04-18T13:55:43.998Z</time></trkpt><trkpt lat="43.27114484974404" lon="10.761312162811976"><ele>464.6</ele><time>2026-04-18T13:55:45.998Z</time></trkpt><trkpt lat="43.27125924304108" lon="10.761307674776354"><ele>463.40000000000003</ele><time>2026-04-18T13:55:47.999Z</time></trkpt><trkpt lat="43.27132103529002" lon="10.761330418262911"><ele>462.20000000000005</ele><time>2026-04-18T13:55:48.999Z</time></trkpt><trkpt lat="43.27143736688667" lon="10.761290549276405"><ele>461.0</ele><time>2026-04-18T13:55:50.999Z</time></trkpt><trkpt lat="43.27154805971361" lon="10.761251471200676"><ele>460.3333333333333</ele><time>2026-04-18T13:55:52.999Z</time></trkpt><trkpt lat="43.271632772682736" lon="10.761173614040507"><ele>459.66666666666663</ele><time>2026-04-18T13:55:54.999Z</time></trkpt><trkpt lat="43.27167088358363" lon="10.761058481162376"><ele>459.0</ele><time>2026-04-18T13:55:56.999Z</time></trkpt><trkpt lat="43.271702001880406" lon="10.760929737193614"><ele>458.33333333333337</ele><time>2026-04-18T13:55:58.999Z</time></trkpt><trkpt lat="43.27173247122999" lon="10.760832345036494"><ele>457.6666666666667</ele><time>2026-04-18T13:56:00.999Z</time></trkpt><trkpt lat="43.271750251631815" lon="10.760729447768668"><ele>457.0</ele><time>2026-04-18T13:56:02.999Z</time></trkpt><trkpt lat="43.27177271097965" lon="10.760615295917212"><ele>460.00000000000006</ele><time>2026-04-18T13:56:04.999Z</time></trkpt><trkpt lat="43.27179459127974" lon="10.760503870922198"><ele>463.0</ele><time>2026-04-18T13:56:06.999Z</time></trkpt><trkpt lat="43.271821971914235" lon="10.76039342509005"><ele>466.0</ele><time>2026-04-18T13:56:08.999Z</time></trkpt><trkpt lat="43.27189274384725" lon="10.76032325323013"><ele>469.0</ele><time>2026-04-18T13:56:10.999Z</time></trkpt><trkpt lat="43.271934373314444" lon="10.760254212964844"><ele>472.00000000000006</ele><time>2026-04-18T13:56:13.999Z</time></trkpt><trkpt lat="43.2718925920381" lon="10.760323504330547"><ele>475.0</ele><time>2026-04-18T13:56:22Z</time></trkpt><trkpt lat="43.27183602969214" lon="10.76041108227213"><ele>475.0</ele><time>2026-04-18T13:56:25Z</time></trkpt><trkpt lat="43.27180145415776" lon="10.760494218971592"><ele>475.0</ele><time>2026-04-18T13:56:29Z</time></trkpt><trkpt lat="43.27138352466317" lon="10.760353716567687"><ele>473.8571428571429</ele><time>2026-04-18T13:56:46Z</time></trkpt><trkpt lat="43.27131392169918" lon="10.76032349388916"><ele>472.7142857142858</ele><time>2026-04-18T13:56:49Z</time></trkpt><trkpt lat="43.27125328566535" lon="10.760288198955832"><ele>471.57142857142856</ele><time>2026-04-18T13:56:53Z</time></trkpt><trkpt lat="43.27118979479557" lon="10.760300114060337"><ele>470.42857142857144</ele><time>2026-04-18T13:57:15.001Z</time></trkpt><trkpt lat="43.27127159157375" lon="10.760319261600788"><ele>469.2857142857143</ele><time>2026-04-18T13:57:50.998Z</time></trkpt><trkpt lat="43.27133728405013" lon="10.76032940852227"><ele>468.1428571428571</ele><time>2026-04-18T13:58:26.999Z</time></trkpt><trkpt lat="43.27141966705998" lon="10.760328000296179"><ele>466.99999999999994</ele><time>2026-04-18T13:58:43Z</time></trkpt><trkpt lat="43.271381831100754" lon="10.760413173879272"><ele>466.99999999999994</ele><time>2026-04-18T13:59:51.998Z</time></trkpt><trkpt lat="43.271336965514074" lon="10.760484351330179"><ele>467.0</ele><time>2026-04-18T13:59:57.999Z</time></trkpt><trkpt lat="43.27131973713764" lon="10.76057124900275"><ele>466.99999999999994</ele><time>2026-04-18T14:00:02.999Z</time></trkpt><trkpt lat="43.27131235069987" lon="10.760662876089533"><ele>466.99999999999994</ele><time>2026-04-18T14:00:06.999Z</time></trkpt><trkpt lat="43.27131432049538" lon="10.760770111504069"><ele>467.0</ele><time>2026-04-18T14:00:10.999Z</time></trkpt><trkpt lat="43.27132928503219" lon="10.76086784969627"><ele>466.99999999999994</ele><time>2026-04-18T14:00:54Z</time></trkpt><trkpt lat="43.2713573284459" lon="10.76078492229513"><ele>466.99999999999994</ele><time>2026-04-18T14:02:38.001Z</time></trkpt><trkpt lat="43.27131239042964" lon="10.760639006269287"><ele>466.99999999999994</ele><time>2026-04-18T14:03:14.003Z</time></trkpt><trkpt lat="43.27131976404015" lon="10.760549643632999"><ele>467.0</ele><time>2026-04-18T14:03:20.003Z</time></trkpt><trkpt lat="43.27133876948567" lon="10.760465053481951"><ele>467.0</ele><time>2026-04-18T14:03:26.003Z</time></trkpt><trkpt lat="43.271377880928846" lon="10.760394488676187"><ele>467.0</ele><time>2026-04-18T14:03:50.004Z</time></trkpt><trkpt lat="43.27145631326181" lon="10.760363121225456"><ele>466.99999999999994</ele><time>2026-04-18T14:03:54.004Z</time></trkpt><trkpt lat="43.27152697019751" lon="10.76042247308805"><ele>467.0</ele><time>2026-04-18T14:03:57.004Z</time></trkpt><trkpt lat="43.271605002268" lon="10.760495659643983"><ele>468.3333333333333</ele><time>2026-04-18T14:04:00.003Z</time></trkpt><trkpt lat="43.27169658799359" lon="10.760522036601945"><ele>469.66666666666663</ele><time>2026-04-18T14:04:03.003Z</time></trkpt><trkpt lat="43.271756600491514" lon="10.760494602639339"><ele>471.0</ele><time>2026-04-18T14:04:05.003Z</time></trkpt><trkpt lat="43.27180322385576" lon="10.760433171389913"><ele>472.33333333333337</ele><time>2026-04-18T14:04:07.003Z</time></trkpt><trkpt lat="43.271840372008846" lon="10.760347145502456"><ele>473.6666666666667</ele><time>2026-04-18T14:04:09.003Z</time></trkpt><trkpt lat="43.271890616100535" lon="10.760259166785412"><ele>475.0</ele><time>2026-04-18T14:04:11.003Z</time></trkpt><trkpt lat="43.27194799928077" lon="10.760181582612397"><ele>475.6</ele><time>2026-04-18T14:04:13.003Z</time></trkpt><trkpt lat="43.27201189547056" lon="10.760107825230104"><ele>476.2</ele><time>2026-04-18T14:04:15.003Z</time></trkpt><trkpt lat="43.27208965548602" lon="10.760057496189768"><ele>476.79999999999995</ele><time>2026-04-18T14:04:17.003Z</time></trkpt><trkpt lat="43.27218401362996" lon="10.760041361233126"><ele>477.4</ele><time>2026-04-18T14:04:19.003Z</time></trkpt><trkpt lat="43.27229152103702" lon="10.760042996358774"><ele>478.0</ele><time>2026-04-18T14:04:21.003Z</time></trkpt><trkpt lat="43.27240474848521" lon="10.76007572805778"><ele>478.83333333333337</ele><time>2026-04-18T14:04:23.003Z</time></trkpt><trkpt lat="43.27252559115319" lon="10.760124539055536"><ele>479.6666666666667</ele><time>2026-04-18T14:04:25.003Z</time></trkpt><trkpt lat="43.27258691118534" lon="10.760147531406348"><ele>480.5</ele><time>2026-04-18T14:04:26.003Z</time></trkpt><trkpt lat="43.27265099554484" lon="10.760169324559735"><ele>481.33333333333337</ele><time>2026-04-18T14:04:27.003Z</time></trkpt><trkpt lat="43.272717813625576" lon="10.760172647428153"><ele>482.1666666666667</ele><time>2026-04-18T14:04:28.003Z</time></trkpt><trkpt lat="43.27278192025558" lon="10.760159399790782"><ele>483.0</ele><time>2026-04-18T14:04:29.003Z</time></trkpt><trkpt lat="43.27284428211331" lon="10.760135515877122"><ele>483.0</ele><time>2026-04-18T14:04:30.003Z</time></trkpt><trkpt lat="43.27290315052733" lon="10.76009084717612"><ele>483.0</ele><time>2026-04-18T14:04:31.003Z</time></trkpt><trkpt lat="43.272956327460754" lon="10.760042676960099"><ele>483.0</ele><time>2026-04-18T14:04:32.003Z</time></trkpt><trkpt lat="43.27300516620796" lon="10.75998751472483"><ele>483.0</ele><time>2026-04-18T14:04:33.003Z</time></trkpt><trkpt lat="43.273049651161905" lon="10.759924983312862"><ele>483.0</ele><time>2026-04-18T14:04:34.003Z</time></trkpt><trkpt lat="43.27309422225241" lon="10.759863659282509"><ele>483.0</ele><time>2026-04-18T14:04:35.003Z</time></trkpt><trkpt lat="43.273139577120375" lon="10.759801858617289"><ele>483.0</ele><time>2026-04-18T14:04:36.003Z</time></trkpt><trkpt lat="43.273186275421445" lon="10.759739563929621"><ele>483.1666666666667</ele><time>2026-04-18T14:04:37.003Z</time></trkpt><trkpt lat="43.27323222033277" lon="10.759679447245897"><ele>483.33333333333337</ele><time>2026-04-18T14:04:38.003Z</time></trkpt><trkpt lat="43.27327882617503" lon="10.759619989256672"><ele>483.5</ele><time>2026-04-18T14:04:39.003Z</time></trkpt><trkpt lat="43.2733248982955" lon="10.759559859376006"><ele>483.6666666666667</ele><time>2026-04-18T14:04:40.003Z</time></trkpt><trkpt lat="43.273371280909736" lon="10.759496027531256"><ele>483.83333333333337</ele><time>2026-04-18T14:04:41.003Z</time></trkpt><trkpt lat="43.273451772655406" lon="10.759382071282728"><ele>484.0</ele><time>2026-04-18T14:04:43.003Z</time></trkpt><trkpt lat="43.273528999231786" lon="10.759331607067526"><ele>484.00000000000006</ele><time>2026-04-18T14:04:45.003Z</time></trkpt><trkpt lat="43.27361952769985" lon="10.759304425074808"><ele>484.0</ele><time>2026-04-18T14:04:47.003Z</time></trkpt><trkpt lat="43.27372023499737" lon="10.75923651133527"><ele>484.0</ele><time>2026-04-18T14:04:49.003Z</time></trkpt><trkpt lat="43.27377909718094" lon="10.759205229750092"><ele>484.0</ele><time>2026-04-18T14:04:50.003Z</time></trkpt><trkpt lat="43.27384602490045" lon="10.759179735258284"><ele>484.00000000000006</ele><time>2026-04-18T14:04:51.003Z</time></trkpt><trkpt lat="43.27391665614147" lon="10.75916056540335"><ele>484.0</ele><time>2026-04-18T14:04:52.003Z</time></trkpt><trkpt lat="43.27399154725529" lon="10.759137667555517"><ele>485.57142857142856</ele><time>2026-04-18T14:04:53.003Z</time></trkpt><trkpt lat="43.27406398078072" lon="10.759113419156552"><ele>487.1428571428571</ele><time>2026-04-18T14:04:54.003Z</time></trkpt><trkpt lat="43.27413731170858" lon="10.75908582587087"><ele>488.71428571428567</ele><time>2026-04-18T14:04:55.003Z</time></trkpt><trkpt lat="43.274205254782196" lon="10.759057375786504"><ele>490.2857142857142</ele><time>2026-04-18T14:04:56.003Z</time></trkpt><trkpt lat="43.2742703902688" lon="10.759024284295322"><ele>491.85714285714283</ele><time>2026-04-18T14:04:57.003Z</time></trkpt><trkpt lat="43.27433140451953" lon="10.758991654291195"><ele>493.42857142857133</ele><time>2026-04-18T14:04:58.003Z</time></trkpt><trkpt lat="43.27438723858172" lon="10.758942233580054"><ele>494.99999999999994</ele><time>2026-04-18T14:04:59.003Z</time></trkpt><trkpt lat="43.274448166526994" lon="10.758911748357816"><ele>495.0</ele><time>2026-04-18T14:05:00.003Z</time></trkpt><trkpt lat="43.274514532082335" lon="10.758894248739528"><ele>495.0</ele><time>2026-04-18T14:05:01.003Z</time></trkpt><trkpt lat="43.274580872020756" lon="10.75892970630687"><ele>495.0</ele><time>2026-04-18T14:05:02.003Z</time></trkpt><trkpt lat="43.27464522701546" lon="10.75895383727513"><ele>495.0</ele><time>2026-04-18T14:05:03.003Z</time></trkpt><trkpt lat="43.27471307188732" lon="10.758982642949082"><ele>495.0</ele><time>2026-04-18T14:05:04.003Z</time></trkpt><trkpt lat="43.274789475603896" lon="10.758998106170614"><ele>495.0</ele><time>2026-04-18T14:05:05.003Z</time></trkpt><trkpt lat="43.27489261373342" lon="10.758958283038895"><ele>494.6</ele><time>2026-04-18T14:05:07.003Z</time></trkpt><trkpt lat="43.274964101857435" lon="10.758893256422656"><ele>494.2</ele><time>2026-04-18T14:05:09.003Z</time></trkpt><trkpt lat="43.275048433872016" lon="10.758783394496556"><ele>493.79999999999995</ele><time>2026-04-18T14:05:11.003Z</time></trkpt><trkpt lat="43.27512818867271" lon="10.758673602706432"><ele>493.4</ele><time>2026-04-18T14:05:13.003Z</time></trkpt><trkpt lat="43.27522957490904" lon="10.75861179870262"><ele>493.0</ele><time>2026-04-18T14:05:15.003Z</time></trkpt><trkpt lat="43.275331775862284" lon="10.758652104765938"><ele>493.00000000000006</ele><time>2026-04-18T14:05:17.003Z</time></trkpt><trkpt lat="43.275433637597516" lon="10.758730893962715"><ele>493.0</ele><time>2026-04-18T14:05:19.003Z</time></trkpt><trkpt lat="43.27549052792916" lon="10.758771317662525"><ele>493.0</ele><time>2026-04-18T14:05:20.003Z</time></trkpt><trkpt lat="43.27555767993591" lon="10.758784089722406"><ele>493.0</ele><time>2026-04-18T14:05:21.003Z</time></trkpt><trkpt lat="43.27562324719195" lon="10.75881030717762"><ele>493.00000000000006</ele><time>2026-04-18T14:05:22.003Z</time></trkpt><trkpt lat="43.27569099247497" lon="10.758833928398058"><ele>493.0</ele><time>2026-04-18T14:05:23.003Z</time></trkpt><trkpt lat="43.27576207885169" lon="10.758847998831994"><ele>492.42857142857144</ele><time>2026-04-18T14:05:24.003Z</time></trkpt><trkpt lat="43.275837617253096" lon="10.758865451794895"><ele>491.8571428571429</ele><time>2026-04-18T14:05:25.004Z</time></trkpt><trkpt lat="43.27590489105987" lon="10.758833722548687"><ele>491.28571428571433</ele><time>2026-04-18T14:05:26.004Z</time></trkpt><trkpt lat="43.27596056083787" lon="10.758771973946406"><ele>490.7142857142857</ele><time>2026-04-18T14:05:27.004Z</time></trkpt><trkpt lat="43.27599718879739" lon="10.758695519213294"><ele>490.1428571428572</ele><time>2026-04-18T14:05:28.004Z</time></trkpt><trkpt lat="43.27599984784525" lon="10.758598280009913"><ele>489.5714285714286</ele><time>2026-04-18T14:05:29.004Z</time></trkpt><trkpt lat="43.27602721206004" lon="10.758511291722877"><ele>489.0</ele><time>2026-04-18T14:05:30.004Z</time></trkpt><trkpt lat="43.27603636025555" lon="10.758411475550197"><ele>489.0</ele><time>2026-04-18T14:05:31.004Z</time></trkpt><trkpt lat="43.27604375298201" lon="10.758308901698731"><ele>489.0</ele><time>2026-04-18T14:05:32.004Z</time></trkpt><trkpt lat="43.27604988333918" lon="10.758199799152063"><ele>489.0</ele><time>2026-04-18T14:05:33.004Z</time></trkpt><trkpt lat="43.276055804747735" lon="10.7580872923552"><ele>489.0</ele><time>2026-04-18T14:05:34.004Z</time></trkpt><trkpt lat="43.27606616055046" lon="10.757975445249418"><ele>489.0</ele><time>2026-04-18T14:05:35.004Z</time></trkpt><trkpt lat="43.27607690118519" lon="10.757860907837788"><ele>489.0</ele><time>2026-04-18T14:05:36.004Z</time></trkpt><trkpt lat="43.2760903063088" lon="10.757754817139732"><ele>489.0</ele><time>2026-04-18T14:05:37.004Z</time></trkpt><trkpt lat="43.27610537002281" lon="10.757649369941069"><ele>489.0</ele><time>2026-04-18T14:05:38.004Z</time></trkpt><trkpt lat="43.27613860779112" lon="10.757559344548193"><ele>489.0</ele><time>2026-04-18T14:05:39.004Z</time></trkpt><trkpt lat="43.27618536560005" lon="10.757468158210536"><ele>489.0</ele><time>2026-04-18T14:05:40.004Z</time></trkpt><trkpt lat="43.276232621547514" lon="10.757374621872005"><ele>489.0</ele><time>2026-04-18T14:05:41.004Z</time></trkpt><trkpt lat="43.276280656637475" lon="10.757274428526499"><ele>489.0</ele><time>2026-04-18T14:05:42.004Z</time></trkpt><trkpt lat="43.2763241118539" lon="10.757172988921969"><ele>489.0</ele><time>2026-04-18T14:05:43.004Z</time></trkpt><trkpt lat="43.276367833714446" lon="10.75708861040045"><ele>489.0</ele><time>2026-04-18T14:05:44.004Z</time></trkpt><trkpt lat="43.27642210300285" lon="10.757025022673448"><ele>489.0</ele><time>2026-04-18T14:05:45.004Z</time></trkpt><trkpt lat="43.27649322653055" lon="10.756991861978568"><ele>489.0</ele><time>2026-04-18T14:05:46.004Z</time></trkpt><trkpt lat="43.27657345406523" lon="10.756986771196432"><ele>489.0</ele><time>2026-04-18T14:05:47.004Z</time></trkpt><trkpt lat="43.27666369177303" lon="10.75698485819241"><ele>489.0</ele><time>2026-04-18T14:05:48.004Z</time></trkpt><trkpt lat="43.2767593218586" lon="10.756981274989393"><ele>488.0</ele><time>2026-04-18T14:05:49.004Z</time></trkpt><trkpt lat="43.27685911943094" lon="10.756960663826101"><ele>487.0</ele><time>2026-04-18T14:05:50.004Z</time></trkpt><trkpt lat="43.27695760812006" lon="10.756922909714756"><ele>486.0</ele><time>2026-04-18T14:05:51.004Z</time></trkpt><trkpt lat="43.277057544644855" lon="10.756887596852128"><ele>485.0</ele><time>2026-04-18T14:05:52.004Z</time></trkpt><trkpt lat="43.2771565082944" lon="10.756852464223522"><ele>484.0</ele><time>2026-04-18T14:05:53.004Z</time></trkpt><trkpt lat="43.27725745574941" lon="10.756814138045714"><ele>482.2</ele><time>2026-04-18T14:05:54.004Z</time></trkpt><trkpt lat="43.277356426891906" lon="10.756773837040935"><ele>480.4</ele><time>2026-04-18T14:05:55.004Z</time></trkpt><trkpt lat="43.27744711623573" lon="10.756734954206857"><ele>478.6</ele><time>2026-04-18T14:05:56.004Z</time></trkpt><trkpt lat="43.277531062696255" lon="10.756690186884056"><ele>476.8</ele><time>2026-04-18T14:05:57.004Z</time></trkpt><trkpt lat="43.277600217442824" lon="10.756593260595618"><ele>475.0</ele><time>2026-04-18T14:05:58.004Z</time></trkpt><trkpt lat="43.277683696058766" lon="10.756520811198241"><ele>475.0</ele><time>2026-04-18T14:05:59.003Z</time></trkpt><trkpt lat="43.277749995714615" lon="10.756416551824564"><ele>475.0</ele><time>2026-04-18T14:06:00.003Z</time></trkpt><trkpt lat="43.27780831972706" lon="10.756308453606094"><ele>475.0</ele><time>2026-04-18T14:06:01.003Z</time></trkpt><trkpt lat="43.27786219658915" lon="10.756193812354367"><ele>475.0</ele><time>2026-04-18T14:06:02.003Z</time></trkpt><trkpt lat="43.27791047184101" lon="10.756074171608692"><ele>475.0</ele><time>2026-04-18T14:06:03.003Z</time></trkpt><trkpt lat="43.27795256113979" lon="10.7559562140982"><ele>475.4</ele><time>2026-04-18T14:06:04.003Z</time></trkpt><trkpt lat="43.27799293415068" lon="10.755852934127027"><ele>475.8</ele><time>2026-04-18T14:06:05.003Z</time></trkpt><trkpt lat="43.27803271095079" lon="10.755767421329029"><ele>476.20000000000005</ele><time>2026-04-18T14:06:06.003Z</time></trkpt><trkpt lat="43.278128574167766" lon="10.755650856516093"><ele>476.6</ele><time>2026-04-18T14:06:08.003Z</time></trkpt><trkpt lat="43.27824577124125" lon="10.75565363372504"><ele>477.0</ele><time>2026-04-18T14:06:10.003Z</time></trkpt><trkpt lat="43.27830791331063" lon="10.755680231436592"><ele>475.3333333333333</ele><time>2026-04-18T14:06:11.003Z</time></trkpt><trkpt lat="43.278402391382166" lon="10.755792492814152"><ele>473.66666666666663</ele><time>2026-04-18T14:06:13.003Z</time></trkpt><trkpt lat="43.278456616335994" lon="10.75586133937135"><ele>472.0</ele><time>2026-04-18T14:06:14.003Z</time></trkpt><trkpt lat="43.2784955222696" lon="10.755956402964939"><ele>470.3333333333333</ele><time>2026-04-18T14:06:15.003Z</time></trkpt><trkpt lat="43.278522646478564" lon="10.756065273601621"><ele>468.66666666666663</ele><time>2026-04-18T14:06:16.003Z</time></trkpt><trkpt lat="43.278564576794956" lon="10.756165367709295"><ele>467.0</ele><time>2026-04-18T14:06:17.003Z</time></trkpt><trkpt lat="43.27860544187574" lon="10.75626291880429"><ele>466.6</ele><time>2026-04-18T14:06:18.003Z</time></trkpt><trkpt lat="43.27864628793332" lon="10.75635318388004"><ele>466.20000000000005</ele><time>2026-04-18T14:06:19.003Z</time></trkpt><trkpt lat="43.27868608177744" lon="10.756432856364604"><ele>465.8</ele><time>2026-04-18T14:06:20.003Z</time></trkpt><trkpt lat="43.27878037530526" lon="10.756532554468563"><ele>465.4</ele><time>2026-04-18T14:06:22.003Z</time></trkpt><trkpt lat="43.27889556403053" lon="10.756544452721567"><ele>465.0</ele><time>2026-04-18T14:06:24.003Z</time></trkpt><trkpt lat="43.27895456667784" lon="10.756494040020444"><ele>464.42857142857144</ele><time>2026-04-18T14:06:25.003Z</time></trkpt><trkpt lat="43.278992401219035" lon="10.756411905514598"><ele>463.8571428571429</ele><time>2026-04-18T14:06:26.002Z</time></trkpt><trkpt lat="43.27902428852351" lon="10.756333353790449"><ele>463.28571428571433</ele><time>2026-04-18T14:06:27.002Z</time></trkpt><trkpt lat="43.27905547566838" lon="10.75624280126652"><ele>462.7142857142857</ele><time>2026-04-18T14:06:28.002Z</time></trkpt><trkpt lat="43.2790853737772" lon="10.756150855745512"><ele>462.1428571428572</ele><time>2026-04-18T14:06:29.002Z</time></trkpt><trkpt lat="43.2791144491705" lon="10.756061440295133"><ele>461.5714285714286</ele><time>2026-04-18T14:06:30.002Z</time></trkpt><trkpt lat="43.27912878424398" lon="10.755967305835268"><ele>461.0</ele><time>2026-04-18T14:06:31.002Z</time></trkpt><trkpt lat="43.27917164524485" lon="10.755801163892604"><ele>460.99999999999994</ele><time>2026-04-18T14:06:33.002Z</time></trkpt><trkpt lat="43.27919581164056" lon="10.755712869516948"><ele>461.0</ele><time>2026-04-18T14:06:34.002Z</time></trkpt><trkpt lat="43.27916834456716" lon="10.755615423202903"><ele>461.0</ele><time>2026-04-18T14:06:35.002Z</time></trkpt><trkpt lat="43.27915210789797" lon="10.755513415341854"><ele>461.0</ele><time>2026-04-18T14:06:36.002Z</time></trkpt><trkpt lat="43.27915186942364" lon="10.7554016338738"><ele>460.99999999999994</ele><time>2026-04-18T14:06:37.002Z</time></trkpt><trkpt lat="43.27913854809554" lon="10.755290277818725"><ele>461.0</ele><time>2026-04-18T14:06:38.002Z</time></trkpt><trkpt lat="43.279128271030665" lon="10.755191710342386"><ele>460.49999999999994</ele><time>2026-04-18T14:06:39.002Z</time></trkpt><trkpt lat="43.27913606669515" lon="10.755020607214421"><ele>460.0</ele><time>2026-04-18T14:06:41.002Z</time></trkpt><trkpt lat="43.279152481273314" lon="10.754936499426773"><ele>459.5</ele><time>2026-04-18T14:06:42.002Z</time></trkpt><trkpt lat="43.27921284697617" lon="10.754883981523275"><ele>459.0</ele><time>2026-04-18T14:06:43.002Z</time></trkpt><trkpt lat="43.27927041999186" lon="10.754822152877034"><ele>458.49999999999994</ele><time>2026-04-18T14:06:44.002Z</time></trkpt><trkpt lat="43.27933193162453" lon="10.75475514000104"><ele>458.0</ele><time>2026-04-18T14:06:45.002Z</time></trkpt><trkpt lat="43.27939454153674" lon="10.754683359101223"><ele>457.99999999999994</ele><time>2026-04-18T14:06:46.002Z</time></trkpt><trkpt lat="43.279457250749886" lon="10.754605701825867"><ele>458.0</ele><time>2026-04-18T14:06:47.002Z</time></trkpt><trkpt lat="43.27951212137398" lon="10.754509051249048"><ele>458.0</ele><time>2026-04-18T14:06:48.002Z</time></trkpt><trkpt lat="43.27955179441225" lon="10.754398484840022"><ele>458.0</ele><time>2026-04-18T14:06:49.002Z</time></trkpt><trkpt lat="43.27957161581099" lon="10.754282922346096"><ele>457.99999999999994</ele><time>2026-04-18T14:06:50.002Z</time></trkpt><trkpt lat="43.2795853071637" lon="10.754171347084881"><ele>458.0</ele><time>2026-04-18T14:06:51.002Z</time></trkpt><trkpt lat="43.279594574633734" lon="10.754052746629753"><ele>457.4</ele><time>2026-04-18T14:06:52.002Z</time></trkpt><trkpt lat="43.27960984059483" lon="10.753934925105673"><ele>456.79999999999995</ele><time>2026-04-18T14:06:53.002Z</time></trkpt><trkpt lat="43.27963686652187" lon="10.75381702605044"><ele>456.2</ele><time>2026-04-18T14:06:54.002Z</time></trkpt><trkpt lat="43.27966710695343" lon="10.753696106793416"><ele>455.6</ele><time>2026-04-18T14:06:55.003Z</time></trkpt><trkpt lat="43.279701032589365" lon="10.753578942289831"><ele>455.0</ele><time>2026-04-18T14:06:56.003Z</time></trkpt><trkpt lat="43.279738029593574" lon="10.753460320782526"><ele>455.66666666666663</ele><time>2026-04-18T14:06:57.003Z</time></trkpt><trkpt lat="43.27977335185638" lon="10.753347752917428"><ele>456.3333333333333</ele><time>2026-04-18T14:06:58.003Z</time></trkpt><trkpt lat="43.279804186984855" lon="10.753238935362008"><ele>457.0</ele><time>2026-04-18T14:06:59.003Z</time></trkpt><trkpt lat="43.279830513617945" lon="10.753125723278263"><ele>457.66666666666663</ele><time>2026-04-18T14:07:00.003Z</time></trkpt><trkpt lat="43.279844664620875" lon="10.75300535269229"><ele>458.3333333333333</ele><time>2026-04-18T14:07:01.003Z</time></trkpt><trkpt lat="43.279840695992654" lon="10.752887270477789"><ele>459.0</ele><time>2026-04-18T14:07:02.003Z</time></trkpt><trkpt lat="43.2798655461534" lon="10.752781872570775"><ele>457.8333333333333</ele><time>2026-04-18T14:07:03.003Z</time></trkpt><trkpt lat="43.27988142131424" lon="10.752687615222866"><ele>456.66666666666663</ele><time>2026-04-18T14:07:04.003Z</time></trkpt><trkpt lat="43.27993777789094" lon="10.7525494442212"><ele>455.5</ele><time>2026-04-18T14:07:06.003Z</time></trkpt><trkpt lat="43.27998162881658" lon="10.752479892162178"><ele>454.3333333333333</ele><time>2026-04-18T14:07:07.003Z</time></trkpt><trkpt lat="43.28005574061929" lon="10.7524394273983"><ele>453.16666666666663</ele><time>2026-04-18T14:07:08.003Z</time></trkpt><trkpt lat="43.280135383214066" lon="10.752428446733694"><ele>452.0</ele><time>2026-04-18T14:07:09.003Z</time></trkpt><trkpt lat="43.280212949177084" lon="10.752406568920433"><ele>451.99999999999994</ele><time>2026-04-18T14:07:10.003Z</time></trkpt><trkpt lat="43.28029131180098" lon="10.752366980448327"><ele>452.0</ele><time>2026-04-18T14:07:11.003Z</time></trkpt><trkpt lat="43.28037405606272" lon="10.752345308850813"><ele>452.0</ele><time>2026-04-18T14:07:12.003Z</time></trkpt><trkpt lat="43.28045473606891" lon="10.75230122313649"><ele>452.0</ele><time>2026-04-18T14:07:13.003Z</time></trkpt><trkpt lat="43.28054240064642" lon="10.752285819794064"><ele>451.99999999999994</ele><time>2026-04-18T14:07:14.003Z</time></trkpt><trkpt lat="43.28062389295498" lon="10.752253553636788"><ele>452.0</ele><time>2026-04-18T14:07:15.003Z</time></trkpt><trkpt lat="43.28069245493911" lon="10.75223180874396"><ele>451.8</ele><time>2026-04-18T14:07:16.003Z</time></trkpt><trkpt lat="43.280801201904424" lon="10.752185849843372"><ele>451.6</ele><time>2026-04-18T14:07:18.003Z</time></trkpt><trkpt lat="43.28092608094234" lon="10.75217260174579"><ele>451.40000000000003</ele><time>2026-04-18T14:07:20.003Z</time></trkpt><trkpt lat="43.28099203396925" lon="10.75218417774533"><ele>451.20000000000005</ele><time>2026-04-18T14:07:21.003Z</time></trkpt><trkpt lat="43.28106276145328" lon="10.752176247314154"><ele>451.0</ele><time>2026-04-18T14:07:22.003Z</time></trkpt><trkpt lat="43.28113607721955" lon="10.752163286386171"><ele>451.0</ele><time>2026-04-18T14:07:23.003Z</time></trkpt><trkpt lat="43.28121204260241" lon="10.75215050106463"><ele>451.0</ele><time>2026-04-18T14:07:24.003Z</time></trkpt><trkpt lat="43.28128639723656" lon="10.75214046871974"><ele>451.0</ele><time>2026-04-18T14:07:25.003Z</time></trkpt><trkpt lat="43.28135488117409" lon="10.75213167470606"><ele>451.0</ele><time>2026-04-18T14:07:26.003Z</time></trkpt><trkpt lat="43.28142172020755" lon="10.752114720440305"><ele>451.0</ele><time>2026-04-18T14:07:27.003Z</time></trkpt><trkpt lat="43.281485956532336" lon="10.752085128173801"><ele>451.0</ele><time>2026-04-18T14:07:28.003Z</time></trkpt><trkpt lat="43.28154196745604" lon="10.752041779569108"><ele>451.0</ele><time>2026-04-18T14:07:29.003Z</time></trkpt><trkpt lat="43.28163178164236" lon="10.751933453090883"><ele>449.20000000000005</ele><time>2026-04-18T14:07:31.003Z</time></trkpt><trkpt lat="43.28166693428275" lon="10.751860447802846"><ele>447.40000000000003</ele><time>2026-04-18T14:07:32.003Z</time></trkpt><trkpt lat="43.281712304244294" lon="10.751722492508241"><ele>445.6</ele><time>2026-04-18T14:07:34.003Z</time></trkpt><trkpt lat="43.28174173979488" lon="10.751588964586979"><ele>443.8</ele><time>2026-04-18T14:07:36.003Z</time></trkpt><trkpt lat="43.281770111557144" lon="10.751435575587722"><ele>442.0</ele><time>2026-04-18T14:07:38.003Z</time></trkpt><trkpt lat="43.28177986258056" lon="10.751280034102226"><ele>442.00000000000006</ele><time>2026-04-18T14:07:40.003Z</time></trkpt><trkpt lat="43.28177969503137" lon="10.75114988226479"><ele>442.0</ele><time>2026-04-18T14:07:42.003Z</time></trkpt><trkpt lat="43.281783404955206" lon="10.751042831088053"><ele>442.0</ele><time>2026-04-18T14:07:44.003Z</time></trkpt><trkpt lat="43.28179858708503" lon="10.750932853098"><ele>442.0</ele><time>2026-04-18T14:07:46.003Z</time></trkpt><trkpt lat="43.28181010237105" lon="10.750815126624437"><ele>442.00000000000006</ele><time>2026-04-18T14:07:48.003Z</time></trkpt><trkpt lat="43.28180750328008" lon="10.750691833978575"><ele>442.0</ele><time>2026-04-18T14:07:50.003Z</time></trkpt><trkpt lat="43.28177471026432" lon="10.750586592023573"><ele>441.28571428571433</ele><time>2026-04-18T14:07:52.003Z</time></trkpt><trkpt lat="43.28173616577026" lon="10.750501444665343"><ele>440.57142857142856</ele><time>2026-04-18T14:07:54.003Z</time></trkpt><trkpt lat="43.2816973049176" lon="10.750427975217308"><ele>439.8571428571429</ele><time>2026-04-18T14:07:56.003Z</time></trkpt><trkpt lat="43.28165690884929" lon="10.750353569060819"><ele>439.14285714285717</ele><time>2026-04-18T14:07:58.003Z</time></trkpt><trkpt lat="43.28162044240986" lon="10.750269564772625"><ele>438.42857142857144</ele><time>2026-04-18T14:08:00.003Z</time></trkpt><trkpt lat="43.28159621815035" lon="10.75017214740875"><ele>437.7142857142857</ele><time>2026-04-18T14:08:02.003Z</time></trkpt><trkpt lat="43.28157864082927" lon="10.750066113181164"><ele>437.0</ele><time>2026-04-18T14:08:04.003Z</time></trkpt><trkpt lat="43.2816145361855" lon="10.749919408096446"><ele>436.0</ele><time>2026-04-18T14:08:06.002Z</time></trkpt><trkpt lat="43.281654224137" lon="10.749774457431352"><ele>435.00000000000006</ele><time>2026-04-18T14:08:08.002Z</time></trkpt><trkpt lat="43.28170925308955" lon="10.749643811425361"><ele>434.00000000000006</ele><time>2026-04-18T14:08:10.002Z</time></trkpt><trkpt lat="43.28176512517326" lon="10.749529212557032"><ele>433.0</ele><time>2026-04-18T14:08:12.002Z</time></trkpt><trkpt lat="43.281813588929595" lon="10.749406944124406"><ele>432.0</ele><time>2026-04-18T14:08:14.002Z</time></trkpt><trkpt lat="43.281856464596075" lon="10.74929427699631"><ele>431.8333333333333</ele><time>2026-04-18T14:08:16.002Z</time></trkpt><trkpt lat="43.28191380389782" lon="10.749213383390476"><ele>431.66666666666663</ele><time>2026-04-18T14:08:19.002Z</time></trkpt><trkpt lat="43.28197198291248" lon="10.74917701308443"><ele>431.5</ele><time>2026-04-18T14:08:21.002Z</time></trkpt><trkpt lat="43.28205247329366" lon="10.749165726149668"><ele>431.3333333333333</ele><time>2026-04-18T14:08:23.002Z</time></trkpt><trkpt lat="43.28214219408688" lon="10.749148817456224"><ele>431.16666666666663</ele><time>2026-04-18T14:08:25.002Z</time></trkpt><trkpt lat="43.28223044176345" lon="10.749132784153469"><ele>431.0</ele><time>2026-04-18T14:08:27.002Z</time></trkpt><trkpt lat="43.28233471787352" lon="10.749076457860832"><ele>430.99999999999994</ele><time>2026-04-18T14:08:29.002Z</time></trkpt><trkpt lat="43.28240481673931" lon="10.748959091069372"><ele>431.0</ele><time>2026-04-18T14:08:31.002Z</time></trkpt><trkpt lat="43.28241053426115" lon="10.748870656070451"><ele>431.0</ele><time>2026-04-18T14:08:32.002Z</time></trkpt><trkpt lat="43.282395773827766" lon="10.748776489273851"><ele>431.0</ele><time>2026-04-18T14:08:33.002Z</time></trkpt><trkpt lat="43.282361456247386" lon="10.748646556296633"><ele>430.99999999999994</ele><time>2026-04-18T14:08:35.002Z</time></trkpt><trkpt lat="43.28233929535972" lon="10.748555053206449"><ele>431.0</ele><time>2026-04-18T14:08:37.002Z</time></trkpt><trkpt lat="43.28233702444675" lon="10.748441211275914"><ele>428.66666666666663</ele><time>2026-04-18T14:08:40.002Z</time></trkpt><trkpt lat="43.282378444443935" lon="10.74834307413459"><ele>426.3333333333333</ele><time>2026-04-18T14:09:03.002Z</time></trkpt><trkpt lat="43.282418929016686" lon="10.748258607988104"><ele>424.0</ele><time>2026-04-18T14:09:05.002Z</time></trkpt><trkpt lat="43.28246446726178" lon="10.748174001627659"><ele>421.66666666666663</ele><time>2026-04-18T14:09:07.002Z</time></trkpt><trkpt lat="43.28252268091932" lon="10.748076182529333"><ele>419.3333333333333</ele><time>2026-04-18T14:09:09.002Z</time></trkpt><trkpt lat="43.282595723618485" lon="10.74799012391067"><ele>417.0</ele><time>2026-04-18T14:09:11.002Z</time></trkpt><trkpt lat="43.28269235585865" lon="10.747921115245616"><ele>417.0</ele><time>2026-04-18T14:09:13.002Z</time></trkpt><trkpt lat="43.28278120264264" lon="10.747829204499732"><ele>417.0</ele><time>2026-04-18T14:09:15.002Z</time></trkpt><trkpt lat="43.2828429823468" lon="10.747738832348483"><ele>417.0</ele><time>2026-04-18T14:09:17.002Z</time></trkpt><trkpt lat="43.28288676042473" lon="10.747647608998658"><ele>417.0</ele><time>2026-04-18T14:09:19.002Z</time></trkpt><trkpt lat="43.28296736510031" lon="10.74766351102095"><ele>417.0</ele><time>2026-04-18T14:09:21.002Z</time></trkpt><trkpt lat="43.28304783441075" lon="10.747609018528191"><ele>416.40000000000003</ele><time>2026-04-18T14:09:23.002Z</time></trkpt><trkpt lat="43.28310633142893" lon="10.747493827026354"><ele>415.8</ele><time>2026-04-18T14:09:25.002Z</time></trkpt><trkpt lat="43.283147266088925" lon="10.747340893873773"><ele>415.2</ele><time>2026-04-18T14:09:27.002Z</time></trkpt><trkpt lat="43.283185640446064" lon="10.747226741881764"><ele>414.6</ele><time>2026-04-18T14:09:29.002Z</time></trkpt><trkpt lat="43.283264406899264" lon="10.747156225295598"><ele>414.0</ele><time>2026-04-18T14:09:31.002Z</time></trkpt><trkpt lat="43.283372099528265" lon="10.74712303525872"><ele>414.0</ele><time>2026-04-18T14:09:33.002Z</time></trkpt><trkpt lat="43.283479914906735" lon="10.747107392471749"><ele>414.0</ele><time>2026-04-18T14:09:35.002Z</time></trkpt><trkpt lat="43.28358298856793" lon="10.747115429421036"><ele>414.0</ele><time>2026-04-18T14:09:37.002Z</time></trkpt><trkpt lat="43.28367496011605" lon="10.747117557472537"><ele>414.0</ele><time>2026-04-18T14:09:39.002Z</time></trkpt><trkpt lat="43.283753809646875" lon="10.747033046706399"><ele>414.0</ele><time>2026-04-18T14:09:41.002Z</time></trkpt><trkpt lat="43.28377878172112" lon="10.746940463239604"><ele>411.6</ele><time>2026-04-18T14:09:44.002Z</time></trkpt><trkpt lat="43.283774021454064" lon="10.746840527592076"><ele>409.2</ele><time>2026-04-18T14:09:46.002Z</time></trkpt><trkpt lat="43.28368805898035" lon="10.74675888917957"><ele>406.8</ele><time>2026-04-18T14:09:48.002Z</time></trkpt><trkpt lat="43.28360676664339" lon="10.746707735635995"><ele>404.40000000000003</ele><time>2026-04-18T14:09:50.002Z</time></trkpt><trkpt lat="43.28351298130728" lon="10.746623142035089"><ele>402.0</ele><time>2026-04-18T14:09:52.002Z</time></trkpt><trkpt lat="43.28343699260442" lon="10.746512202262254"><ele>402.0</ele><time>2026-04-18T14:09:54.002Z</time></trkpt><trkpt lat="43.283401285448534" lon="10.746423645817517"><ele>402.0</ele><time>2026-04-18T14:09:56.002Z</time></trkpt><trkpt lat="43.283384974338276" lon="10.746292614389391"><ele>402.0</ele><time>2026-04-18T14:09:58.002Z</time></trkpt><trkpt lat="43.283397315185866" lon="10.74619995734114"><ele>402.0</ele><time>2026-04-18T14:09:59.002Z</time></trkpt><trkpt lat="43.28341782759794" lon="10.74604391710451"><ele>402.0</ele><time>2026-04-18T14:10:01.002Z</time></trkpt><trkpt lat="43.28347149153478" lon="10.745908402094472"><ele>400.20000000000005</ele><time>2026-04-18T14:10:03.002Z</time></trkpt><trkpt lat="43.28354711627446" lon="10.745792205062594"><ele>398.4</ele><time>2026-04-18T14:10:05.002Z</time></trkpt><trkpt lat="43.283617154929594" lon="10.745663281004681"><ele>396.6</ele><time>2026-04-18T14:10:07.002Z</time></trkpt><trkpt lat="43.28368772362666" lon="10.74554622582942"><ele>394.79999999999995</ele><time>2026-04-18T14:10:09.002Z</time></trkpt><trkpt lat="43.28373718095014" lon="10.745418444846733"><ele>393.0</ele><time>2026-04-18T14:10:11.001Z</time></trkpt><trkpt lat="43.283759074367865" lon="10.745275231614183"><ele>392.2</ele><time>2026-04-18T14:10:13.001Z</time></trkpt><trkpt lat="43.28373754660207" lon="10.745124803992725"><ele>391.4</ele><time>2026-04-18T14:10:15.001Z</time></trkpt><trkpt lat="43.28370357448504" lon="10.74497360419549"><ele>390.59999999999997</ele><time>2026-04-18T14:10:17.001Z</time></trkpt><trkpt lat="43.283660374364224" lon="10.744839001264559"><ele>389.79999999999995</ele><time>2026-04-18T14:10:19.001Z</time></trkpt><trkpt lat="43.28360534050122" lon="10.74470318421653"><ele>389.0</ele><time>2026-04-18T14:10:21.001Z</time></trkpt><trkpt lat="43.28354360760567" lon="10.74455166573958"><ele>388.99999999999994</ele><time>2026-04-18T14:10:23.001Z</time></trkpt><trkpt lat="43.28351024545442" lon="10.744470354764099"><ele>389.0</ele><time>2026-04-18T14:10:24.001Z</time></trkpt><trkpt lat="43.28347492925413" lon="10.74438505824939"><ele>389.0</ele><time>2026-04-18T14:10:25.001Z</time></trkpt><trkpt lat="43.283435852490896" lon="10.74429760240655"><ele>389.0</ele><time>2026-04-18T14:10:26.001Z</time></trkpt><trkpt lat="43.283391515895936" lon="10.744208533343327"><ele>388.99999999999994</ele><time>2026-04-18T14:10:27.001Z</time></trkpt><trkpt lat="43.28334669279556" lon="10.744123036014946"><ele>389.0</ele><time>2026-04-18T14:10:28.001Z</time></trkpt><trkpt lat="43.28329617000255" lon="10.744030351437292"><ele>388.49999999999994</ele><time>2026-04-18T14:10:29.001Z</time></trkpt><trkpt lat="43.2832451878504" lon="10.743937284555502"><ele>388.0</ele><time>2026-04-18T14:10:30.001Z</time></trkpt><trkpt lat="43.2831950561711" lon="10.743845770153477"><ele>387.5</ele><time>2026-04-18T14:10:31.001Z</time></trkpt><trkpt lat="43.28314663217276" lon="10.74375897717625"><ele>387.0</ele><time>2026-04-18T14:10:32.001Z</time></trkpt><trkpt lat="43.28309650944801" lon="10.743671633799115"><ele>386.49999999999994</ele><time>2026-04-18T14:10:33.001Z</time></trkpt><trkpt lat="43.28305450476271" lon="10.74359230548013"><ele>386.0</ele><time>2026-04-18T14:10:34.001Z</time></trkpt><trkpt lat="43.28302058235065" lon="10.743513561346159"><ele>383.0</ele><time>2026-04-18T14:10:35.001Z</time></trkpt><trkpt lat="43.28299143689324" lon="10.743361280574945"><ele>380.0</ele><time>2026-04-18T14:10:37.001Z</time></trkpt><trkpt lat="43.28297884028348" lon="10.743187924510378"><ele>377.0</ele><time>2026-04-18T14:10:39.001Z</time></trkpt><trkpt lat="43.28297161318641" lon="10.743096818175863"><ele>374.0</ele><time>2026-04-18T14:10:40.001Z</time></trkpt><trkpt lat="43.28296329027991" lon="10.742960655953484"><ele>371.0</ele><time>2026-04-18T14:10:42.001Z</time></trkpt><trkpt lat="43.283026092046086" lon="10.74286853706363"><ele>370.83333333333337</ele><time>2026-04-18T14:10:45.001Z</time></trkpt><trkpt lat="43.28311548078448" lon="10.742860809617559"><ele>370.6666666666667</ele><time>2026-04-18T14:10:47.001Z</time></trkpt><trkpt lat="43.28320488768612" lon="10.742825884092866"><ele>370.5</ele><time>2026-04-18T14:10:49.001Z</time></trkpt><trkpt lat="43.28327051753058" lon="10.742751177035402"><ele>370.3333333333333</ele><time>2026-04-18T14:10:51.001Z</time></trkpt><trkpt lat="43.28333002255114" lon="10.742675595769196"><ele>370.16666666666663</ele><time>2026-04-18T14:10:53.001Z</time></trkpt><trkpt lat="43.28339105500252" lon="10.742613790873095"><ele>370.0</ele><time>2026-04-18T14:10:55.001Z</time></trkpt><trkpt lat="43.28347045934725" lon="10.7425860120851"><ele>370.0</ele><time>2026-04-18T14:10:57.001Z</time></trkpt><trkpt lat="43.28355491470042" lon="10.7426026962596"><ele>370.0</ele><time>2026-04-18T14:10:59.001Z</time></trkpt><trkpt lat="43.28363903145072" lon="10.74267276759798"><ele>370.0</ele><time>2026-04-18T14:11:01.001Z</time></trkpt><trkpt lat="43.28371841012756" lon="10.74277287178805"><ele>370.0</ele><time>2026-04-18T14:11:03.001Z</time></trkpt><trkpt lat="43.283800451176305" lon="10.742865421103462"><ele>370.0</ele><time>2026-04-18T14:11:05.001Z</time></trkpt><trkpt lat="43.28390769937265" lon="10.742930051141164"><ele>370.8</ele><time>2026-04-18T14:11:07.001Z</time></trkpt><trkpt lat="43.28397440878998" lon="10.742939256078634"><ele>371.6</ele><time>2026-04-18T14:11:08.001Z</time></trkpt><trkpt lat="43.28403731006782" lon="10.742943100788697"><ele>372.4</ele><time>2026-04-18T14:11:09.001Z</time></trkpt><trkpt lat="43.28416658182457" lon="10.742936012099124"><ele>373.2</ele><time>2026-04-18T14:11:11.001Z</time></trkpt><trkpt lat="43.2842770619168" lon="10.743002648118782"><ele>374.0</ele><time>2026-04-18T14:11:13.001Z</time></trkpt><trkpt lat="43.2843755502867" lon="10.74306628730173"><ele>374.0</ele><time>2026-04-18T14:11:15.001Z</time></trkpt><trkpt lat="43.284475272913255" lon="10.743073023042031"><ele>374.0</ele><time>2026-04-18T14:11:17.001Z</time></trkpt><trkpt lat="43.28458415485889" lon="10.743067857147064"><ele>374.0</ele><time>2026-04-18T14:11:19.001Z</time></trkpt><trkpt lat="43.28468044086982" lon="10.743049061326122"><ele>374.0</ele><time>2026-04-18T14:11:21.001Z</time></trkpt><trkpt lat="43.28477841792341" lon="10.743023092554584"><ele>374.0</ele><time>2026-04-18T14:11:23.001Z</time></trkpt><trkpt lat="43.28488983189381" lon="10.743008284607066"><ele>372.6666666666667</ele><time>2026-04-18T14:11:25.001Z</time></trkpt><trkpt lat="43.28500475776615" lon="10.743064262252613"><ele>371.33333333333337</ele><time>2026-04-18T14:11:27.001Z</time></trkpt><trkpt lat="43.285048905116014" lon="10.743139107808132"><ele>370.0</ele><time>2026-04-18T14:11:28.001Z</time></trkpt><trkpt lat="43.28510257120375" lon="10.743204696699788"><ele>368.6666666666667</ele><time>2026-04-18T14:11:29.001Z</time></trkpt><trkpt lat="43.285173569330155" lon="10.743255350100457"><ele>367.3333333333333</ele><time>2026-04-18T14:11:30.001Z</time></trkpt><trkpt lat="43.285238606758476" lon="10.743314928520004"><ele>366.0</ele><time>2026-04-18T14:11:31.001Z</time></trkpt><trkpt lat="43.28530264725719" lon="10.74335913865592"><ele>366.0</ele><time>2026-04-18T14:11:32.001Z</time></trkpt><trkpt lat="43.2853705897124" lon="10.74338331165487"><ele>366.0</ele><time>2026-04-18T14:11:33.001Z</time></trkpt><trkpt lat="43.28547927770505" lon="10.743411956095958"><ele>366.0</ele><time>2026-04-18T14:11:35.001Z</time></trkpt><trkpt lat="43.285580993547" lon="10.743442392916103"><ele>366.0</ele><time>2026-04-18T14:11:37.001Z</time></trkpt><trkpt lat="43.28562507203421" lon="10.743505119848614"><ele>366.0</ele><time>2026-04-18T14:11:38.001Z</time></trkpt><trkpt lat="43.28566543616222" lon="10.743580031123905"><ele>366.0</ele><time>2026-04-18T14:11:39.001Z</time></trkpt><trkpt lat="43.285668734005974" lon="10.743667447268479"><ele>366.20000000000005</ele><time>2026-04-18T14:11:40.001Z</time></trkpt><trkpt lat="43.28570252642351" lon="10.74378735855192"><ele>366.40000000000003</ele><time>2026-04-18T14:11:42.001Z</time></trkpt><trkpt lat="43.285748461160495" lon="10.743884562794918"><ele>366.6</ele><time>2026-04-18T14:11:44.001Z</time></trkpt><trkpt lat="43.28578950818315" lon="10.74398058631451"><ele>366.8</ele><time>2026-04-18T14:11:46.001Z</time></trkpt><trkpt lat="43.28587863986478" lon="10.74394922910324"><ele>367.0</ele><time>2026-04-18T14:11:48.002Z</time></trkpt><trkpt lat="43.28590387139147" lon="10.743808973649596"><ele>367.0</ele><time>2026-04-18T14:11:50.002Z</time></trkpt><trkpt lat="43.2859196789422" lon="10.743648160075569"><ele>367.0</ele><time>2026-04-18T14:11:52.002Z</time></trkpt><trkpt lat="43.2859180510007" lon="10.743517270314273"><ele>367.0</ele><time>2026-04-18T14:11:54.002Z</time></trkpt><trkpt lat="43.2859180510033" lon="10.743387902277059"><ele>367.0</ele><time>2026-04-18T14:11:56.002Z</time></trkpt><trkpt lat="43.285924077058034" lon="10.743252271420394"><ele>367.0</ele><time>2026-04-18T14:11:58.002Z</time></trkpt><trkpt lat="43.28598967919106" lon="10.74314288456161"><ele>365.85714285714283</ele><time>2026-04-18T14:12:00.002Z</time></trkpt><trkpt lat="43.286037868180955" lon="10.743083790791708"><ele>364.7142857142857</ele><time>2026-04-18T14:12:01.002Z</time></trkpt><trkpt lat="43.28608847204335" lon="10.743022879750281"><ele>363.57142857142856</ele><time>2026-04-18T14:12:02.002Z</time></trkpt><trkpt lat="43.286138197661344" lon="10.742954450792762"><ele>362.42857142857144</ele><time>2026-04-18T14:12:03.002Z</time></trkpt><trkpt lat="43.28618051548871" lon="10.742864697291223"><ele>361.28571428571433</ele><time>2026-04-18T14:12:04.002Z</time></trkpt><trkpt lat="43.28621364233389" lon="10.74277881650059"><ele>360.14285714285717</ele><time>2026-04-18T14:12:05.002Z</time></trkpt><trkpt lat="43.286241734606214" lon="10.742691957419511"><ele>359.0</ele><time>2026-04-18T14:12:06.002Z</time></trkpt><trkpt lat="43.28626357558449" lon="10.742608600765704"><ele>360.33333333333337</ele><time>2026-04-18T14:12:07.002Z</time></trkpt><trkpt lat="43.28629217625742" lon="10.742479014252519"><ele>361.6666666666667</ele><time>2026-04-18T14:12:09.002Z</time></trkpt><trkpt lat="43.28629784731757" lon="10.742356851890174"><ele>363.0</ele><time>2026-04-18T14:12:11.002Z</time></trkpt><trkpt lat="43.28633029569154" lon="10.742242204706061"><ele>364.3333333333333</ele><time>2026-04-18T14:12:13.002Z</time></trkpt><trkpt lat="43.28635319979331" lon="10.742143132375398"><ele>365.66666666666663</ele><time>2026-04-18T14:12:15.002Z</time></trkpt><trkpt lat="43.28640024811398" lon="10.742030095638672"><ele>367.0</ele><time>2026-04-18T14:12:17Z</time></trkpt><trkpt lat="43.2864465836922" lon="10.741881848085088"><ele>364.0</ele><time>2026-04-18T14:12:19Z</time></trkpt><trkpt lat="43.286481670701896" lon="10.741807138204923"><ele>361.0</ele><time>2026-04-18T14:12:20Z</time></trkpt><trkpt lat="43.28651064347462" lon="10.741722737631935"><ele>358.0</ele><time>2026-04-18T14:12:21Z</time></trkpt><trkpt lat="43.28653787735665" lon="10.74162928745595"><ele>355.0</ele><time>2026-04-18T14:12:22Z</time></trkpt><trkpt lat="43.2865622870851" lon="10.74153809959297"><ele>352.0</ele><time>2026-04-18T14:12:23Z</time></trkpt><trkpt lat="43.28661323418149" lon="10.741397059643432"><ele>349.0</ele><time>2026-04-18T14:12:25Z</time></trkpt><trkpt lat="43.286670493678336" lon="10.741325188390354"><ele>349.0</ele><time>2026-04-18T14:12:27Z</time></trkpt><trkpt lat="43.286712259979474" lon="10.74122359116483"><ele>349.0</ele><time>2026-04-18T14:12:29Z</time></trkpt><trkpt lat="43.28674307640843" lon="10.74109428533826"><ele>349.0</ele><time>2026-04-18T14:12:31Z</time></trkpt><trkpt lat="43.28678515357189" lon="10.740946473647213"><ele>349.0</ele><time>2026-04-18T14:12:33Z</time></trkpt><trkpt lat="43.286834689472144" lon="10.740782944840365"><ele>349.0</ele><time>2026-04-18T14:12:35Z</time></trkpt><trkpt lat="43.28686149241351" lon="10.740698285183111"><ele>345.8333333333333</ele><time>2026-04-18T14:12:36Z</time></trkpt><trkpt lat="43.2868907165243" lon="10.740610488287738"><ele>342.66666666666663</ele><time>2026-04-18T14:12:37Z</time></trkpt><trkpt lat="43.286922737914786" lon="10.740518380684536"><ele>339.5</ele><time>2026-04-18T14:12:38Z</time></trkpt><trkpt lat="43.286952271232686" lon="10.74043449786073"><ele>336.3333333333333</ele><time>2026-04-18T14:12:39Z</time></trkpt><trkpt lat="43.28698290953462" lon="10.740356877801565"><ele>333.1666666666667</ele><time>2026-04-18T14:12:40Z</time></trkpt><trkpt lat="43.287014303785384" lon="10.740280910974757"><ele>330.0</ele><time>2026-04-18T14:12:41Z</time></trkpt><trkpt lat="43.287089108089475" lon="10.740150339546453"><ele>331.3333333333333</ele><time>2026-04-18T14:12:43.001Z</time></trkpt><trkpt lat="43.287170942643634" lon="10.740062612801113"><ele>332.6666666666667</ele><time>2026-04-18T14:12:45.001Z</time></trkpt><trkpt lat="43.287231048662555" lon="10.739996156783379"><ele>334.0</ele><time>2026-04-18T14:12:47.001Z</time></trkpt><trkpt lat="43.28727529183316" lon="10.73990923572574"><ele>335.33333333333337</ele><time>2026-04-18T14:12:49.001Z</time></trkpt><trkpt lat="43.28732215811592" lon="10.739810720859746"><ele>336.6666666666667</ele><time>2026-04-18T14:12:51.001Z</time></trkpt><trkpt lat="43.287380254807736" lon="10.739695260669137"><ele>338.0</ele><time>2026-04-18T14:12:53.001Z</time></trkpt><trkpt lat="43.287417709440994" lon="10.739543763898652"><ele>338.0</ele><time>2026-04-18T14:12:55.001Z</time></trkpt><trkpt lat="43.287495498089626" lon="10.739421209553367"><ele>338.0</ele><time>2026-04-18T14:12:57.001Z</time></trkpt><trkpt lat="43.28758501366295" lon="10.739351587616182"><ele>338.0</ele><time>2026-04-18T14:12:59.001Z</time></trkpt><trkpt lat="43.28768352167379" lon="10.739363800708462"><ele>338.0</ele><time>2026-04-18T14:13:01.001Z</time></trkpt><trkpt lat="43.28778277122079" lon="10.739399970767728"><ele>338.0</ele><time>2026-04-18T14:13:03.001Z</time></trkpt><trkpt lat="43.28786344490275" lon="10.739512911348735"><ele>338.0</ele><time>2026-04-18T14:13:05.001Z</time></trkpt><trkpt lat="43.28793130827836" lon="10.739631907736122"><ele>338.0</ele><time>2026-04-18T14:13:07.001Z</time></trkpt><trkpt lat="43.28799056780927" lon="10.739693758551565"><ele>338.0</ele><time>2026-04-18T14:13:09.001Z</time></trkpt><trkpt lat="43.288071284478626" lon="10.739726146569094"><ele>338.0</ele><time>2026-04-18T14:13:11.001Z</time></trkpt><trkpt lat="43.28814058706423" lon="10.739567021212828"><ele>338.0</ele><time>2026-04-18T14:13:13.001Z</time></trkpt><trkpt lat="43.288159469012626" lon="10.73941872087422"><ele>336.6666666666667</ele><time>2026-04-18T14:13:15.001Z</time></trkpt><trkpt lat="43.28819884957721" lon="10.739262562954083"><ele>335.33333333333337</ele><time>2026-04-18T14:13:17.001Z</time></trkpt><trkpt lat="43.28822877836526" lon="10.739182835456525"><ele>334.0</ele><time>2026-04-18T14:13:18.001Z</time></trkpt><trkpt lat="43.28826530023373" lon="10.73910204038735"><ele>332.6666666666667</ele><time>2026-04-18T14:13:19.001Z</time></trkpt><trkpt lat="43.28830543918746" lon="10.739019374708079"><ele>331.3333333333333</ele><time>2026-04-18T14:13:20.001Z</time></trkpt><trkpt lat="43.288349327749906" lon="10.738936007061364"><ele>330.0</ele><time>2026-04-18T14:13:21.001Z</time></trkpt><trkpt lat="43.28839649787484" lon="10.738852205711096"><ele>330.0</ele><time>2026-04-18T14:13:22.001Z</time></trkpt><trkpt lat="43.28843374268403" lon="10.738761412523667"><ele>330.0</ele><time>2026-04-18T14:13:23.001Z</time></trkpt><trkpt lat="43.28849536746957" lon="10.73868665811212"><ele>330.0</ele><time>2026-04-18T14:13:24.001Z</time></trkpt><trkpt lat="43.28855926088715" lon="10.738618141480803"><ele>330.0</ele><time>2026-04-18T14:13:25.001Z</time></trkpt><trkpt lat="43.2886272878409" lon="10.738554875516376"><ele>330.0</ele><time>2026-04-18T14:13:26.001Z</time></trkpt><trkpt lat="43.28870894927462" lon="10.738515697603411"><ele>330.0</ele><time>2026-04-18T14:13:27.001Z</time></trkpt><trkpt lat="43.28878855793474" lon="10.73847072327291"><ele>329.5</ele><time>2026-04-18T14:13:28.001Z</time></trkpt><trkpt lat="43.28886606660173" lon="10.73842862534174"><ele>329.0</ele><time>2026-04-18T14:13:29.001Z</time></trkpt><trkpt lat="43.28894809254503" lon="10.738389713749818"><ele>328.5</ele><time>2026-04-18T14:13:30.001Z</time></trkpt><trkpt lat="43.289022375848674" lon="10.73834780111728"><ele>328.0</ele><time>2026-04-18T14:13:31.001Z</time></trkpt><trkpt lat="43.2890772271847" lon="10.73830397576995"><ele>327.5</ele><time>2026-04-18T14:13:32.001Z</time></trkpt><trkpt lat="43.28917255901379" lon="10.738203265181935"><ele>327.0</ele><time>2026-04-18T14:13:34.001Z</time></trkpt><trkpt lat="43.289284516281015" lon="10.738122498683266"><ele>327.0</ele><time>2026-04-18T14:13:36.001Z</time></trkpt><trkpt lat="43.28934607524932" lon="10.738088194570034"><ele>327.0</ele><time>2026-04-18T14:13:37.001Z</time></trkpt><trkpt lat="43.289409895063635" lon="10.738053629470473"><ele>327.0</ele><time>2026-04-18T14:13:38.001Z</time></trkpt><trkpt lat="43.28951370556499" lon="10.737997405173966"><ele>327.0</ele><time>2026-04-18T14:13:40.001Z</time></trkpt><trkpt lat="43.28957089397205" lon="10.737951935725581"><ele>327.0</ele><time>2026-04-18T14:13:41.001Z</time></trkpt><trkpt lat="43.2896232684579" lon="10.73788284402309"><ele>327.0</ele><time>2026-04-18T14:13:42.001Z</time></trkpt><trkpt lat="43.28966680707458" lon="10.737815130361827"><ele>327.0</ele><time>2026-04-18T14:13:43.001Z</time></trkpt><trkpt lat="43.2897108579316" lon="10.737752029968416"><ele>327.0</ele><time>2026-04-18T14:13:44.001Z</time></trkpt><trkpt lat="43.289760610300085" lon="10.737690437700332"><ele>327.0</ele><time>2026-04-18T14:13:45.001Z</time></trkpt><trkpt lat="43.28981470321545" lon="10.737628533209982"><ele>327.0</ele><time>2026-04-18T14:13:46.001Z</time></trkpt><trkpt lat="43.28987133010548" lon="10.737565000323896"><ele>327.0</ele><time>2026-04-18T14:13:47.001Z</time></trkpt><trkpt lat="43.28992780600038" lon="10.737501654562005"><ele>327.0</ele><time>2026-04-18T14:13:48.001Z</time></trkpt><trkpt lat="43.28998704782978" lon="10.737436053177593"><ele>327.0</ele><time>2026-04-18T14:13:49.001Z</time></trkpt><trkpt lat="43.290039627973485" lon="10.737377828628292"><ele>325.0</ele><time>2026-04-18T14:13:50.001Z</time></trkpt><trkpt lat="43.29010814597445" lon="10.737267405221914"><ele>323.0</ele><time>2026-04-18T14:13:52.001Z</time></trkpt><trkpt lat="43.29018016600885" lon="10.737176472546475"><ele>321.0</ele><time>2026-04-18T14:13:54.001Z</time></trkpt><trkpt lat="43.29025205461711" lon="10.73705897126954"><ele>319.0</ele><time>2026-04-18T14:13:56.001Z</time></trkpt><trkpt lat="43.290310195961084" lon="10.736944532958809"><ele>317.0</ele><time>2026-04-18T14:13:58.001Z</time></trkpt><trkpt lat="43.29035276015258" lon="10.736800106957212"><ele>314.6666666666667</ele><time>2026-04-18T14:14:00.001Z</time></trkpt><trkpt lat="43.29038293259172" lon="10.736644897111308"><ele>312.33333333333337</ele><time>2026-04-18T14:14:02.001Z</time></trkpt><trkpt lat="43.29040410478197" lon="10.736555269322677"><ele>310.0</ele><time>2026-04-18T14:14:03.001Z</time></trkpt><trkpt lat="43.290397012207556" lon="10.736456313835788"><ele>307.6666666666667</ele><time>2026-04-18T14:14:04.001Z</time></trkpt><trkpt lat="43.29037926542439" lon="10.736357756790968"><ele>305.3333333333333</ele><time>2026-04-18T14:14:05.001Z</time></trkpt><trkpt lat="43.29035017537426" lon="10.736249768762594"><ele>303.0</ele><time>2026-04-18T14:14:06.001Z</time></trkpt><trkpt lat="43.29031438261699" lon="10.736152921514138"><ele>303.0</ele><time>2026-04-18T14:14:07.001Z</time></trkpt><trkpt lat="43.290279523672865" lon="10.736074265421635"><ele>303.0</ele><time>2026-04-18T14:14:08.001Z</time></trkpt><trkpt lat="43.2902432073464" lon="10.736003463207792"><ele>303.0</ele><time>2026-04-18T14:14:09.001Z</time></trkpt><trkpt lat="43.29019421328297" lon="10.735942838017687"><ele>303.0</ele><time>2026-04-18T14:14:10.001Z</time></trkpt><trkpt lat="43.290137318896214" lon="10.735904936557771"><ele>303.0</ele><time>2026-04-18T14:14:11.001Z</time></trkpt><trkpt lat="43.29001101723646" lon="10.735855640981201"><ele>303.0</ele><time>2026-04-18T14:14:13.001Z</time></trkpt><trkpt lat="43.289941845566254" lon="10.735847993765747"><ele>303.0</ele><time>2026-04-18T14:14:14.001Z</time></trkpt><trkpt lat="43.289811776710636" lon="10.73582856068096"><ele>303.0</ele><time>2026-04-18T14:14:16.001Z</time></trkpt><trkpt lat="43.289736200771806" lon="10.735803678495373"><ele>303.0</ele><time>2026-04-18T14:14:17.001Z</time></trkpt><trkpt lat="43.28965513431104" lon="10.735778830186034"><ele>303.0</ele><time>2026-04-18T14:14:18.001Z</time></trkpt><trkpt lat="43.289573404643555" lon="10.735764796004867"><ele>303.0</ele><time>2026-04-18T14:14:19.001Z</time></trkpt><trkpt lat="43.28949263222519" lon="10.735739511169484"><ele>300.3333333333333</ele><time>2026-04-18T14:14:20.001Z</time></trkpt><trkpt lat="43.28941475916156" lon="10.735696466722084"><ele>297.6666666666667</ele><time>2026-04-18T14:14:21.001Z</time></trkpt><trkpt lat="43.28934395817811" lon="10.735646680094572"><ele>295.0</ele><time>2026-04-18T14:14:22Z</time></trkpt><trkpt lat="43.28925388144087" lon="10.735526552251777"><ele>292.33333333333337</ele><time>2026-04-18T14:14:24Z</time></trkpt><trkpt lat="43.2892167698136" lon="10.735420857487108"><ele>289.6666666666667</ele><time>2026-04-18T14:14:26Z</time></trkpt><trkpt lat="43.289208255326045" lon="10.735331945093204"><ele>287.0</ele><time>2026-04-18T14:14:35Z</time></trkpt><trkpt lat="43.289214556983914" lon="10.735243769884788"><ele>287.8</ele><time>2026-04-18T14:14:39Z</time></trkpt><trkpt lat="43.2892240469334" lon="10.735137512278532"><ele>288.6</ele><time>2026-04-18T14:14:44Z</time></trkpt><trkpt lat="43.28922985973855" lon="10.735021253413128"><ele>289.40000000000003</ele><time>2026-04-18T14:15:08.001Z</time></trkpt><trkpt lat="43.28923333512228" lon="10.734892087374265"><ele>290.2</ele><time>2026-04-18T14:15:10.001Z</time></trkpt><trkpt lat="43.289224675681176" lon="10.734750805968563"><ele>291.0</ele><time>2026-04-18T14:15:12.001Z</time></trkpt><trkpt lat="43.28918160504912" lon="10.734603125628988"><ele>291.0</ele><time>2026-04-18T14:15:14.001Z</time></trkpt><trkpt lat="43.289126601545966" lon="10.734480108134631"><ele>291.0</ele><time>2026-04-18T14:15:16.001Z</time></trkpt><trkpt lat="43.28911218997614" lon="10.734389634551771"><ele>291.0</ele><time>2026-04-18T14:15:18.001Z</time></trkpt><trkpt lat="43.289159550560555" lon="10.734273628537544"><ele>291.0</ele><time>2026-04-18T14:15:21.001Z</time></trkpt><trkpt lat="43.28923508338623" lon="10.73417980881935"><ele>291.0</ele><time>2026-04-18T14:15:23.001Z</time></trkpt><trkpt lat="43.28932271375432" lon="10.734082255543118"><ele>289.57142857142856</ele><time>2026-04-18T14:15:25.001Z</time></trkpt><trkpt lat="43.28937377474732" lon="10.734027433476372"><ele>288.1428571428571</ele><time>2026-04-18T14:15:26.001Z</time></trkpt><trkpt lat="43.289425048959785" lon="10.733970599072087"><ele>286.7142857142857</ele><time>2026-04-18T14:15:27.001Z</time></trkpt><trkpt lat="43.28947507011776" lon="10.73391354988155"><ele>285.2857142857143</ele><time>2026-04-18T14:15:28.001Z</time></trkpt><trkpt lat="43.289524468462105" lon="10.733856844177607"><ele>283.8571428571429</ele><time>2026-04-18T14:15:29.001Z</time></trkpt><trkpt lat="43.28957621492796" lon="10.733796023382896"><ele>282.42857142857144</ele><time>2026-04-18T14:15:30.001Z</time></trkpt><trkpt lat="43.28961202228138" lon="10.73370981626665"><ele>281.0</ele><time>2026-04-18T14:15:31.001Z</time></trkpt><trkpt lat="43.289666547079" lon="10.733649865828303"><ele>281.0</ele><time>2026-04-18T14:15:32.001Z</time></trkpt><trkpt lat="43.289699027419445" lon="10.733572613563966"><ele>281.0</ele><time>2026-04-18T14:15:33.001Z</time></trkpt><trkpt lat="43.28976526401532" lon="10.733439744833808"><ele>281.0</ele><time>2026-04-18T14:15:35.001Z</time></trkpt><trkpt lat="43.28985235536337" lon="10.733369752688597"><ele>281.0</ele><time>2026-04-18T14:15:37.001Z</time></trkpt><trkpt lat="43.2899651044864" lon="10.733342115379845"><ele>281.0</ele><time>2026-04-18T14:15:39.001Z</time></trkpt><trkpt lat="43.290091320448454" lon="10.733348779292848"><ele>281.14285714285717</ele><time>2026-04-18T14:15:41.001Z</time></trkpt><trkpt lat="43.290154676331646" lon="10.73335516702236"><ele>281.2857142857143</ele><time>2026-04-18T14:15:42.001Z</time></trkpt><trkpt lat="43.29022029914205" lon="10.73336677133129"><ele>281.42857142857144</ele><time>2026-04-18T14:15:43.001Z</time></trkpt><trkpt lat="43.29028518744375" lon="10.733382077381284"><ele>281.57142857142856</ele><time>2026-04-18T14:15:44.001Z</time></trkpt><trkpt lat="43.29034893143154" lon="10.733400850611233"><ele>281.7142857142857</ele><time>2026-04-18T14:15:45.001Z</time></trkpt><trkpt lat="43.29041726844411" lon="10.733408125936396"><ele>281.8571428571429</ele><time>2026-04-18T14:15:46.001Z</time></trkpt><trkpt lat="43.29047617878419" lon="10.733453993722927"><ele>282.0</ele><time>2026-04-18T14:15:47.001Z</time></trkpt><trkpt lat="43.29057025684354" lon="10.733541808393511"><ele>283.2</ele><time>2026-04-18T14:15:49.001Z</time></trkpt><trkpt lat="43.290621865693616" lon="10.733672974170727"><ele>284.4</ele><time>2026-04-18T14:15:51.001Z</time></trkpt><trkpt lat="43.29064599765784" lon="10.733839593000068"><ele>285.6</ele><time>2026-04-18T14:15:53.001Z</time></trkpt><trkpt lat="43.29069051386946" lon="10.73400050792424"><ele>286.8</ele><time>2026-04-18T14:15:55.001Z</time></trkpt><trkpt lat="43.290745307867134" lon="10.73405239360995"><ele>288.0</ele><time>2026-04-18T14:15:56.001Z</time></trkpt><trkpt lat="43.29081795566534" lon="10.734082900563639"><ele>288.0</ele><time>2026-04-18T14:15:57.001Z</time></trkpt><trkpt lat="43.29088529833694" lon="10.734100603874465"><ele>288.0</ele><time>2026-04-18T14:15:58.001Z</time></trkpt><trkpt lat="43.29096370968919" lon="10.734106694791258"><ele>288.0</ele><time>2026-04-18T14:15:59.001Z</time></trkpt><trkpt lat="43.29103565907681" lon="10.734096948162481"><ele>288.0</ele><time>2026-04-18T14:16:00.001Z</time></trkpt><trkpt lat="43.2911043321334" lon="10.734102533126533"><ele>288.0</ele><time>2026-04-18T14:16:01.001Z</time></trkpt><trkpt lat="43.29122029232143" lon="10.734143468656386"><ele>288.0</ele><time>2026-04-18T14:16:03.001Z</time></trkpt><trkpt lat="43.29133596156775" lon="10.734226029167381"><ele>288.0</ele><time>2026-04-18T14:16:05.001Z</time></trkpt><trkpt lat="43.29140924755845" lon="10.734335315113748"><ele>288.0</ele><time>2026-04-18T14:16:07.001Z</time></trkpt><trkpt lat="43.291483571732435" lon="10.734471450131947"><ele>288.0</ele><time>2026-04-18T14:16:09.001Z</time></trkpt><trkpt lat="43.29154857562082" lon="10.734621153278441"><ele>288.0</ele><time>2026-04-18T14:16:11.001Z</time></trkpt><trkpt lat="43.291567484119184" lon="10.734771336523142"><ele>287.6</ele><time>2026-04-18T14:16:13.001Z</time></trkpt><trkpt lat="43.29158754737791" lon="10.734892859246722"><ele>287.20000000000005</ele><time>2026-04-18T14:16:17.001Z</time></trkpt><trkpt lat="43.29163520469913" lon="10.734996825274298"><ele>286.8</ele><time>2026-04-18T14:16:20.001Z</time></trkpt><trkpt lat="43.291717731709596" lon="10.735046152377127"><ele>286.40000000000003</ele><time>2026-04-18T14:16:22.001Z</time></trkpt><trkpt lat="43.29179996558787" lon="10.735015609551434"><ele>286.0</ele><time>2026-04-18T14:16:24.001Z</time></trkpt><trkpt lat="43.29184742544874" lon="10.73486967255279"><ele>286.0</ele><time>2026-04-18T14:16:26.001Z</time></trkpt><trkpt lat="43.291931262533765" lon="10.734810596058782"><ele>286.0</ele><time>2026-04-18T14:16:28Z</time></trkpt><trkpt lat="43.292016998943524" lon="10.734748652763928"><ele>286.0</ele><time>2026-04-18T14:16:30Z</time></trkpt><trkpt lat="43.292092913457836" lon="10.734595788736446"><ele>286.0</ele><time>2026-04-18T14:16:32Z</time></trkpt><trkpt lat="43.29211562492024" lon="10.734499964670498"><ele>286.0</ele><time>2026-04-18T14:16:33Z</time></trkpt><trkpt lat="43.29213905593839" lon="10.734406222260386"><ele>286.0</ele><time>2026-04-18T14:16:34Z</time></trkpt><trkpt lat="43.29215837169434" lon="10.734315116577777"><ele>286.0</ele><time>2026-04-18T14:16:35Z</time></trkpt><trkpt lat="43.2921938029712" lon="10.734159823919281"><ele>286.0</ele><time>2026-04-18T14:16:37Z</time></trkpt><trkpt lat="43.29223734243765" lon="10.73402510407564"><ele>286.0</ele><time>2026-04-18T14:16:39Z</time></trkpt><trkpt lat="43.29227523235826" lon="10.7338836075272"><ele>286.0</ele><time>2026-04-18T14:16:41Z</time></trkpt><trkpt lat="43.29229042728084" lon="10.733730393517341"><ele>286.0</ele><time>2026-04-18T14:16:43Z</time></trkpt><trkpt lat="43.29230032293759" lon="10.733596823045541"><ele>286.0</ele><time>2026-04-18T14:16:45Z</time></trkpt><trkpt lat="43.29230763124132" lon="10.733481810953457"><ele>286.0</ele><time>2026-04-18T14:16:47Z</time></trkpt><trkpt lat="43.29230351095161" lon="10.733389875072398"><ele>286.0</ele><time>2026-04-18T14:16:50Z</time></trkpt><trkpt lat="43.29231857296862" lon="10.733275672250969"><ele>286.0</ele><time>2026-04-18T14:16:54Z</time></trkpt><trkpt lat="43.29234654826652" lon="10.733162050665936"><ele>286.0</ele><time>2026-04-18T14:16:56Z</time></trkpt><trkpt lat="43.29237193287647" lon="10.733027981444954"><ele>282.8</ele><time>2026-04-18T14:16:58Z</time></trkpt><trkpt lat="43.29247471218133" lon="10.73296214426993"><ele>279.6</ele><time>2026-04-18T14:17:00Z</time></trkpt><trkpt lat="43.29258185749205" lon="10.733004564769576"><ele>276.4</ele><time>2026-04-18T14:17:02Z</time></trkpt><trkpt lat="43.29267757174169" lon="10.733008670509612"><ele>273.2</ele><time>2026-04-18T14:17:04Z</time></trkpt><trkpt lat="43.29274163669254" lon="10.733011418603303"><ele>270.0</ele><time>2026-04-18T14:17:06Z</time></trkpt><trkpt lat="43.292902477510836" lon="10.733018529441923"><ele>270.0</ele><time>2026-04-18T14:17:10Z</time></trkpt><trkpt lat="43.292983779576545" lon="10.73302466969266"><ele>270.0</ele><time>2026-04-18T14:17:12Z</time></trkpt><trkpt lat="43.293182356736175" lon="10.732909078117187"><ele>270.0</ele><time>2026-04-18T14:17:16Z</time></trkpt><trkpt lat="43.293139072997" lon="10.732771199015712"><ele>270.0</ele><time>2026-04-18T14:17:17Z</time></trkpt><trkpt lat="43.29313410120704" lon="10.732628579285786"><ele>269.5</ele><time>2026-04-18T14:17:19Z</time></trkpt><trkpt lat="43.29311424839357" lon="10.732522558254587"><ele>269.0</ele><time>2026-04-18T14:17:21Z</time></trkpt><trkpt lat="43.29311093484154" lon="10.732418010752308"><ele>268.5</ele><time>2026-04-18T14:17:23Z</time></trkpt><trkpt lat="43.29314148050354" lon="10.732313044369999"><ele>268.0</ele><time>2026-04-18T14:17:25Z</time></trkpt><trkpt lat="43.293146281698455" lon="10.732183838476278"><ele>267.5</ele><time>2026-04-18T14:17:27.001Z</time></trkpt><trkpt lat="43.293171077997705" lon="10.732076118115488"><ele>267.0</ele><time>2026-04-18T14:17:29.001Z</time></trkpt><trkpt lat="43.2931604153685" lon="10.731966048095103"><ele>264.8</ele><time>2026-04-18T14:17:31.001Z</time></trkpt><trkpt lat="43.29314784537554" lon="10.731841569099874"><ele>262.6</ele><time>2026-04-18T14:17:33.001Z</time></trkpt><trkpt lat="43.29308598531935" lon="10.731740893346819"><ele>260.40000000000003</ele><time>2026-04-18T14:17:35.001Z</time></trkpt><trkpt lat="43.29303411873958" lon="10.731636668395273"><ele>258.2</ele><time>2026-04-18T14:17:37.001Z</time></trkpt><trkpt lat="43.29299351064628" lon="10.731521885002948"><ele>256.0</ele><time>2026-04-18T14:17:39.001Z</time></trkpt><trkpt lat="43.29296576000492" lon="10.73139702978201"><ele>256.0</ele><time>2026-04-18T14:17:41.001Z</time></trkpt><trkpt lat="43.292993323029734" lon="10.731276461472543"><ele>256.0</ele><time>2026-04-18T14:17:43.001Z</time></trkpt><trkpt lat="43.29306234471656" lon="10.731161788635207"><ele>256.0</ele><time>2026-04-18T14:17:45.001Z</time></trkpt><trkpt lat="43.29312070834628" lon="10.731058484447749"><ele>256.0</ele><time>2026-04-18T14:17:47.001Z</time></trkpt><trkpt lat="43.29315747963871" lon="10.730917993479919"><ele>256.0</ele><time>2026-04-18T14:17:49.001Z</time></trkpt><trkpt lat="43.293224534771895" lon="10.730781386707914"><ele>256.2</ele><time>2026-04-18T14:17:51.001Z</time></trkpt><trkpt lat="43.29326945619318" lon="10.730632070692465"><ele>256.40000000000003</ele><time>2026-04-18T14:17:53.001Z</time></trkpt><trkpt lat="43.29329969448761" lon="10.730502724403447"><ele>256.6</ele><time>2026-04-18T14:17:55.001Z</time></trkpt><trkpt lat="43.293321191301665" lon="10.730410770734792"><ele>256.8</ele><time>2026-04-18T14:17:57.001Z</time></trkpt><trkpt lat="43.2933534353603" lon="10.730304671889519"><ele>257.0</ele><time>2026-04-18T14:18:00.001Z</time></trkpt><trkpt lat="43.29340019182197" lon="10.7301923106564"><ele>254.2</ele><time>2026-04-18T14:18:03.001Z</time></trkpt><trkpt lat="43.293456288643604" lon="10.730104956610887"><ele>251.39999999999998</ele><time>2026-04-18T14:18:05.001Z</time></trkpt><trkpt lat="43.2935386300815" lon="10.730030802606482"><ele>248.60000000000002</ele><time>2026-04-18T14:18:07.001Z</time></trkpt><trkpt lat="43.29363607380034" lon="10.72998250736338"><ele>245.8</ele><time>2026-04-18T14:18:09.001Z</time></trkpt><trkpt lat="43.2937427013712" lon="10.729937781520702"><ele>243.0</ele><time>2026-04-18T14:18:11.001Z</time></trkpt><trkpt lat="43.293863208865545" lon="10.72989069491492"><ele>244.83333333333334</ele><time>2026-04-18T14:18:13.001Z</time></trkpt><trkpt lat="43.2939420035845" lon="10.72986132582151"><ele>246.66666666666669</ele><time>2026-04-18T14:18:15.001Z</time></trkpt><trkpt lat="43.294004283287904" lon="10.729840139745688"><ele>248.5</ele><time>2026-04-18T14:18:17.001Z</time></trkpt><trkpt lat="43.29409214273464" lon="10.729784591465101"><ele>250.33333333333334</ele><time>2026-04-18T14:18:20.001Z</time></trkpt><trkpt lat="43.29417055088037" lon="10.729765201339578"><ele>252.16666666666669</ele><time>2026-04-18T14:18:22.001Z</time></trkpt><trkpt lat="43.29424899283597" lon="10.729711522903433"><ele>254.0</ele><time>2026-04-18T14:18:24.001Z</time></trkpt><trkpt lat="43.2943101542176" lon="10.729678219323239"><ele>254.0</ele><time>2026-04-18T14:18:26.001Z</time></trkpt><trkpt lat="43.294404705173456" lon="10.729631479084707"><ele>253.99999999999997</ele><time>2026-04-18T14:18:29.001Z</time></trkpt><trkpt lat="43.29448270547819" lon="10.729619649050033"><ele>253.99999999999997</ele><time>2026-04-18T14:18:32.001Z</time></trkpt><trkpt lat="43.294578530446444" lon="10.729754716343116"><ele>254.0</ele><time>2026-04-18T14:18:38.999Z</time></trkpt><trkpt lat="43.2946220956782" lon="10.729818983399324"><ele>254.0</ele><time>2026-04-18T14:18:42Z</time></trkpt><trkpt lat="43.29473695458659" lon="10.729768649490534"><ele>252.0</ele><time>2026-04-18T14:18:46Z</time></trkpt><trkpt lat="43.294776570509036" lon="10.7296381550589"><ele>249.99999999999997</ele><time>2026-04-18T14:18:48Z</time></trkpt><trkpt lat="43.294782458914376" lon="10.72949615110838"><ele>247.99999999999997</ele><time>2026-04-18T14:18:50Z</time></trkpt><trkpt lat="43.29478561174881" lon="10.729360169454484"><ele>246.0</ele><time>2026-04-18T14:18:52Z</time></trkpt><trkpt lat="43.294854052294895" lon="10.729298363916763"><ele>244.0</ele><time>2026-04-18T14:18:53Z</time></trkpt><trkpt lat="43.29493257600917" lon="10.729240660861871"><ele>244.0</ele><time>2026-04-18T14:18:54Z</time></trkpt><trkpt lat="43.2950114091862" lon="10.729178207041603"><ele>243.99999999999997</ele><time>2026-04-18T14:18:55Z</time></trkpt><trkpt lat="43.295096557350966" lon="10.72911723303614"><ele>243.99999999999997</ele><time>2026-04-18T14:18:56Z</time></trkpt><trkpt lat="43.29518362586863" lon="10.729062877529955"><ele>244.0</ele><time>2026-04-18T14:18:57Z</time></trkpt><trkpt lat="43.295259221241096" lon="10.728995155448004"><ele>244.0</ele><time>2026-04-18T14:18:58Z</time></trkpt><trkpt lat="43.29533881476432" lon="10.728926405251128"><ele>244.0</ele><time>2026-04-18T14:18:59Z</time></trkpt><trkpt lat="43.29541625589579" lon="10.728847436243143"><ele>243.99999999999997</ele><time>2026-04-18T14:19:00Z</time></trkpt><trkpt lat="43.29548385953637" lon="10.728740301501217"><ele>243.99999999999997</ele><time>2026-04-18T14:19:01Z</time></trkpt><trkpt lat="43.29553771673237" lon="10.728624975284168"><ele>244.0</ele><time>2026-04-18T14:19:02Z</time></trkpt><trkpt lat="43.29558977275578" lon="10.728516484125375"><ele>244.0</ele><time>2026-04-18T14:19:03Z</time></trkpt><trkpt lat="43.29563734641416" lon="10.72843785374659"><ele>239.39999999999998</ele><time>2026-04-18T14:19:04Z</time></trkpt><trkpt lat="43.29569812015304" lon="10.728329650812475"><ele>234.79999999999998</ele><time>2026-04-18T14:19:06Z</time></trkpt><trkpt lat="43.2957658246478" lon="10.728209508112663"><ele>230.20000000000002</ele><time>2026-04-18T14:19:08Z</time></trkpt><trkpt lat="43.29582999302839" lon="10.728061588484914"><ele>225.60000000000002</ele><time>2026-04-18T14:19:10Z</time></trkpt><trkpt lat="43.295859647566196" lon="10.727980381073364"><ele>221.0</ele><time>2026-04-18T14:19:11Z</time></trkpt><trkpt lat="43.29587187432268" lon="10.727892119878662"><ele>221.00000000000003</ele><time>2026-04-18T14:19:12Z</time></trkpt><trkpt lat="43.29587574059412" lon="10.727799211275391"><ele>221.0</ele><time>2026-04-18T14:19:13Z</time></trkpt><trkpt lat="43.29585758437735" lon="10.727709483392829"><ele>221.0</ele><time>2026-04-18T14:19:14Z</time></trkpt><trkpt lat="43.2958118594881" lon="10.727628628864394"><ele>221.0</ele><time>2026-04-18T14:19:15Z</time></trkpt><trkpt lat="43.295757858095456" lon="10.727548433614102"><ele>221.00000000000003</ele><time>2026-04-18T14:19:16Z</time></trkpt><trkpt lat="43.295698275432045" lon="10.727473862804814"><ele>221.0</ele><time>2026-04-18T14:19:17Z</time></trkpt><trkpt lat="43.2956438435871" lon="10.727381803979474"><ele>223.83333333333334</ele><time>2026-04-18T14:19:18Z</time></trkpt><trkpt lat="43.29557238627128" lon="10.72733093516887"><ele>226.66666666666669</ele><time>2026-04-18T14:19:19Z</time></trkpt><trkpt lat="43.295519927665836" lon="10.727269350021734"><ele>229.5</ele><time>2026-04-18T14:19:20Z</time></trkpt><trkpt lat="43.29542645630358" lon="10.727169684998715"><ele>232.33333333333331</ele><time>2026-04-18T14:19:22Z</time></trkpt><trkpt lat="43.29536474367379" lon="10.727067591283042"><ele>235.16666666666666</ele><time>2026-04-18T14:19:24Z</time></trkpt><trkpt lat="43.29533829077806" lon="10.726956935398675"><ele>238.0</ele><time>2026-04-18T14:19:26Z</time></trkpt><trkpt lat="43.29539925636228" lon="10.726901850007804"><ele>234.42857142857142</ele><time>2026-04-18T14:19:27Z</time></trkpt><trkpt lat="43.295454803731474" lon="10.726845379631682"><ele>230.85714285714286</ele><time>2026-04-18T14:19:28Z</time></trkpt><trkpt lat="43.29551376183753" lon="10.726782670635954"><ele>227.28571428571428</ele><time>2026-04-18T14:19:29Z</time></trkpt><trkpt lat="43.295582017034306" lon="10.726726960146708"><ele>223.71428571428572</ele><time>2026-04-18T14:19:30Z</time></trkpt><trkpt lat="43.29565147816488" lon="10.726699477104408"><ele>220.14285714285714</ele><time>2026-04-18T14:19:31Z</time></trkpt><trkpt lat="43.29571576050347" lon="10.726722599053078"><ele>216.57142857142856</ele><time>2026-04-18T14:19:32Z</time></trkpt><trkpt lat="43.29578765867463" lon="10.726772709614016"><ele>213.0</ele><time>2026-04-18T14:19:33Z</time></trkpt><trkpt lat="43.29586918448229" lon="10.726817268894322"><ele>213.60000000000002</ele><time>2026-04-18T14:19:34Z</time></trkpt><trkpt lat="43.29595113605158" lon="10.726881607107389"><ele>214.20000000000002</ele><time>2026-04-18T14:19:35Z</time></trkpt><trkpt lat="43.29601710550304" lon="10.726970142229073"><ele>214.8</ele><time>2026-04-18T14:19:36Z</time></trkpt><trkpt lat="43.29610483739245" lon="10.727046542538705"><ele>215.4</ele><time>2026-04-18T14:19:38Z</time></trkpt><trkpt lat="43.29619914949616" lon="10.727137527141954"><ele>216.0</ele><time>2026-04-18T14:19:40Z</time></trkpt><trkpt lat="43.29625648925748" lon="10.727175990866781"><ele>216.0</ele><time>2026-04-18T14:19:41Z</time></trkpt><trkpt lat="43.29635650936335" lon="10.727213522460227"><ele>216.0</ele><time>2026-04-18T14:19:43Z</time></trkpt><trkpt lat="43.29640700748842" lon="10.727144891072518"><ele>216.0</ele><time>2026-04-18T14:19:44Z</time></trkpt><trkpt lat="43.296386050245594" lon="10.727016347210066"><ele>216.0</ele><time>2026-04-18T14:19:45Z</time></trkpt><trkpt lat="43.296373852756595" lon="10.72692470705754"><ele>216.0</ele><time>2026-04-18T14:19:46Z</time></trkpt><trkpt lat="43.29638803403047" lon="10.7268248180584"><ele>216.0</ele><time>2026-04-18T14:19:47Z</time></trkpt><trkpt lat="43.29640356904814" lon="10.726717725203995"><ele>212.20000000000002</ele><time>2026-04-18T14:19:48.001Z</time></trkpt><trkpt lat="43.29643732960488" lon="10.726600875557551"><ele>208.40000000000003</ele><time>2026-04-18T14:19:49.001Z</time></trkpt><trkpt lat="43.296483802113144" lon="10.726475177997223"><ele>204.6</ele><time>2026-04-18T14:19:50.001Z</time></trkpt><trkpt lat="43.29652563238181" lon="10.726356585565059"><ele>200.8</ele><time>2026-04-18T14:19:51.001Z</time></trkpt><trkpt lat="43.29655599359826" lon="10.726251066728802"><ele>197.0</ele><time>2026-04-18T14:19:52.001Z</time></trkpt><trkpt lat="43.2965636833433" lon="10.726145270721398"><ele>197.00000000000003</ele><time>2026-04-18T14:19:53.001Z</time></trkpt><trkpt lat="43.29651096578095" lon="10.726047593604871"><ele>197.0</ele><time>2026-04-18T14:19:54.001Z</time></trkpt><trkpt lat="43.29645747503441" lon="10.725966665866867"><ele>197.0</ele><time>2026-04-18T14:19:55.001Z</time></trkpt><trkpt lat="43.296406451776456" lon="10.725880147276229"><ele>197.0</ele><time>2026-04-18T14:19:56.001Z</time></trkpt><trkpt lat="43.2963791672314" lon="10.725772281389107"><ele>197.00000000000003</ele><time>2026-04-18T14:19:57.001Z</time></trkpt><trkpt lat="43.296369634410276" lon="10.725659172676814"><ele>197.0</ele><time>2026-04-18T14:19:58.001Z</time></trkpt><trkpt lat="43.29641569744281" lon="10.725558740279167"><ele>195.39999999999998</ele><time>2026-04-18T14:19:59.001Z</time></trkpt><trkpt lat="43.29645735360132" lon="10.72545210239265"><ele>193.79999999999998</ele><time>2026-04-18T14:20:00.001Z</time></trkpt><trkpt lat="43.29650843927383" lon="10.725340613060531"><ele>192.2</ele><time>2026-04-18T14:20:01.001Z</time></trkpt><trkpt lat="43.29657082276288" lon="10.725230487789068"><ele>190.6</ele><time>2026-04-18T14:20:02.001Z</time></trkpt><trkpt lat="43.2966362073843" lon="10.725114655334215"><ele>189.0</ele><time>2026-04-18T14:20:03.001Z</time></trkpt><trkpt lat="43.29674306249994" lon="10.725068423796028"><ele>188.0</ele><time>2026-04-18T14:20:04.001Z</time></trkpt><trkpt lat="43.29683804078739" lon="10.724980217497436"><ele>187.0</ele><time>2026-04-18T14:20:05.001Z</time></trkpt><trkpt lat="43.29694735473899" lon="10.72493539299439"><ele>186.0</ele><time>2026-04-18T14:20:06.001Z</time></trkpt><trkpt lat="43.297056148066595" lon="10.724890835019268"><ele>185.0</ele><time>2026-04-18T14:20:07.001Z</time></trkpt><trkpt lat="43.29716502100922" lon="10.724845249819332"><ele>185.0</ele><time>2026-04-18T14:20:08.001Z</time></trkpt><trkpt lat="43.29727614930575" lon="10.724833935272132"><ele>185.0</ele><time>2026-04-18T14:20:09.001Z</time></trkpt><trkpt lat="43.297372765572675" lon="10.72479438451301"><ele>185.0</ele><time>2026-04-18T14:20:10.001Z</time></trkpt><trkpt lat="43.29745941770748" lon="10.724758684898225"><ele>185.0</ele><time>2026-04-18T14:20:11.001Z</time></trkpt><trkpt lat="43.29753234309815" lon="10.724728640536624"><ele>185.0</ele><time>2026-04-18T14:20:12.001Z</time></trkpt><trkpt lat="43.2975916526625" lon="10.724686128344876"><ele>185.0</ele><time>2026-04-18T14:20:13.001Z</time></trkpt><trkpt lat="43.29770548552616" lon="10.724667931320674"><ele>185.0</ele><time>2026-04-18T14:20:15.001Z</time></trkpt><trkpt lat="43.29777228961502" lon="10.724552221702233"><ele>185.0</ele><time>2026-04-18T14:20:17.001Z</time></trkpt><trkpt lat="43.29769709203893" lon="10.724435571540111"><ele>185.0</ele><time>2026-04-18T14:20:18.001Z</time></trkpt><trkpt lat="43.29765620769992" lon="10.724362132985268"><ele>185.0</ele><time>2026-04-18T14:20:19.001Z</time></trkpt><trkpt lat="43.29761680839065" lon="10.724279854505046"><ele>185.0</ele><time>2026-04-18T14:20:20.001Z</time></trkpt><trkpt lat="43.297570486977136" lon="10.724188112604363"><ele>185.0</ele><time>2026-04-18T14:20:21.001Z</time></trkpt><trkpt lat="43.297518863498404" lon="10.72408762259512"><ele>185.4</ele><time>2026-04-18T14:20:22.001Z</time></trkpt><trkpt lat="43.29746538144747" lon="10.723979696311266"><ele>185.8</ele><time>2026-04-18T14:20:23.001Z</time></trkpt><trkpt lat="43.29740922347752" lon="10.723871352606928"><ele>186.2</ele><time>2026-04-18T14:20:24.001Z</time></trkpt><trkpt lat="43.2973591466734" lon="10.72376408500954"><ele>186.6</ele><time>2026-04-18T14:20:25.001Z</time></trkpt><trkpt lat="43.29733121817937" lon="10.723644880647571"><ele>187.0</ele><time>2026-04-18T14:20:26.001Z</time></trkpt><trkpt lat="43.29729063737504" lon="10.723543482278261"><ele>187.5</ele><time>2026-04-18T14:20:27.001Z</time></trkpt><trkpt lat="43.297295600718066" lon="10.723416771097362"><ele>188.0</ele><time>2026-04-18T14:20:28.001Z</time></trkpt><trkpt lat="43.297304831945766" lon="10.72329167998131"><ele>188.5</ele><time>2026-04-18T14:20:29.001Z</time></trkpt><trkpt lat="43.29729790376427" lon="10.723168150872178"><ele>189.0</ele><time>2026-04-18T14:20:30.001Z</time></trkpt><trkpt lat="43.29727175952458" lon="10.723057984986362"><ele>189.5</ele><time>2026-04-18T14:20:31.001Z</time></trkpt><trkpt lat="43.29723948409133" lon="10.722963441684561"><ele>190.0</ele><time>2026-04-18T14:20:32.001Z</time></trkpt><trkpt lat="43.297202709758494" lon="10.722862484634696"><ele>190.0</ele><time>2026-04-18T14:20:33.001Z</time></trkpt><trkpt lat="43.29715408192826" lon="10.722751677451557"><ele>190.0</ele><time>2026-04-18T14:20:34.001Z</time></trkpt><trkpt lat="43.29708525921195" lon="10.722647042519855"><ele>190.0</ele><time>2026-04-18T14:20:35.001Z</time></trkpt><trkpt lat="43.297002177795946" lon="10.72255620686803"><ele>190.0</ele><time>2026-04-18T14:20:36.001Z</time></trkpt><trkpt lat="43.29691879260225" lon="10.72247456526121"><ele>190.0</ele><time>2026-04-18T14:20:37.001Z</time></trkpt><trkpt lat="43.29683834786372" lon="10.72240997921365"><ele>188.2</ele><time>2026-04-18T14:20:38.001Z</time></trkpt><trkpt lat="43.29678288427475" lon="10.722320122391134"><ele>186.4</ele><time>2026-04-18T14:20:39.001Z</time></trkpt><trkpt lat="43.29675196600038" lon="10.722205008040802"><ele>184.60000000000002</ele><time>2026-04-18T14:20:39.999Z</time></trkpt><trkpt lat="43.296722685597" lon="10.722069685189789"><ele>182.8</ele><time>2026-04-18T14:20:40.999Z</time></trkpt><trkpt lat="43.29668364726486" lon="10.721932381849703"><ele>181.0</ele><time>2026-04-18T14:20:41.999Z</time></trkpt><trkpt lat="43.296657352332026" lon="10.72179144895278"><ele>179.8</ele><time>2026-04-18T14:20:42.999Z</time></trkpt><trkpt lat="43.29663602994925" lon="10.721659052600465"><ele>178.60000000000002</ele><time>2026-04-18T14:20:43.999Z</time></trkpt><trkpt lat="43.29660426751676" lon="10.721542030606152"><ele>177.4</ele><time>2026-04-18T14:20:44.999Z</time></trkpt><trkpt lat="43.296585426459906" lon="10.721432392442507"><ele>176.2</ele><time>2026-04-18T14:20:45.999Z</time></trkpt><trkpt lat="43.29661666015542" lon="10.72135026952431"><ele>175.0</ele><time>2026-04-18T14:20:46.999Z</time></trkpt><trkpt lat="43.29671204715074" lon="10.721236696951175"><ele>175.0</ele><time>2026-04-18T14:20:48.999Z</time></trkpt><trkpt lat="43.29676128061663" lon="10.721154541739557"><ele>175.0</ele><time>2026-04-18T14:20:49.999Z</time></trkpt><trkpt lat="43.29682228447279" lon="10.721073780856008"><ele>175.0</ele><time>2026-04-18T14:20:50.999Z</time></trkpt><trkpt lat="43.296889312488084" lon="10.72098677909383"><ele>175.0</ele><time>2026-04-18T14:20:51.999Z</time></trkpt><trkpt lat="43.2969612370401" lon="10.720894850162198"><ele>175.0</ele><time>2026-04-18T14:20:52.999Z</time></trkpt><trkpt lat="43.29703781029319" lon="10.720795842254946"><ele>176.0</ele><time>2026-04-18T14:20:53.999Z</time></trkpt><trkpt lat="43.29712994930147" lon="10.720707972221774"><ele>177.0</ele><time>2026-04-18T14:20:54.999Z</time></trkpt><trkpt lat="43.297203050351435" lon="10.720583007303118"><ele>178.0</ele><time>2026-04-18T14:20:55.999Z</time></trkpt><trkpt lat="43.29729075707226" lon="10.720474391367848"><ele>179.0</ele><time>2026-04-18T14:20:56.999Z</time></trkpt><trkpt lat="43.29737611278743" lon="10.720364924762844"><ele>178.2</ele><time>2026-04-18T14:20:57.999Z</time></trkpt><trkpt lat="43.29746074138812" lon="10.720258299802733"><ele>177.39999999999998</ele><time>2026-04-18T14:20:59Z</time></trkpt><trkpt lat="43.2975438254413" lon="10.72015401171124"><ele>176.6</ele><time>2026-04-18T14:21:00Z</time></trkpt><trkpt lat="43.29762418336258" lon="10.720052788312632"><ele>175.8</ele><time>2026-04-18T14:21:01Z</time></trkpt><trkpt lat="43.29769910705969" lon="10.71996398306096"><ele>175.0</ele><time>2026-04-18T14:21:02Z</time></trkpt><trkpt lat="43.29776001893629" lon="10.719891401058625"><ele>175.0</ele><time>2026-04-18T14:21:03Z</time></trkpt><trkpt lat="43.29781685931016" lon="10.719821997045669"><ele>175.0</ele><time>2026-04-18T14:21:04Z</time></trkpt><trkpt lat="43.29786503376818" lon="10.719764503885594"><ele>175.0</ele><time>2026-04-18T14:21:05Z</time></trkpt><trkpt lat="43.29792769508877" lon="10.7196192365564"><ele>175.0</ele><time>2026-04-18T14:21:07Z</time></trkpt><trkpt lat="43.29793160327433" lon="10.719528044118048"><ele>175.0</ele><time>2026-04-18T14:21:08Z</time></trkpt><trkpt lat="43.2978630478231" lon="10.719373915831374"><ele>174.16666666666669</ele><time>2026-04-18T14:21:10Z</time></trkpt><trkpt lat="43.29780797376681" lon="10.719311761416117"><ele>173.33333333333334</ele><time>2026-04-18T14:21:11Z</time></trkpt><trkpt lat="43.29776959574334" lon="10.719222212047995"><ele>172.5</ele><time>2026-04-18T14:21:12Z</time></trkpt><trkpt lat="43.29771110300312" lon="10.719138100543034"><ele>171.66666666666666</ele><time>2026-04-18T14:21:13Z</time></trkpt><trkpt lat="43.29764048265402" lon="10.719068777192463"><ele>170.83333333333331</ele><time>2026-04-18T14:21:14Z</time></trkpt><trkpt lat="43.29759763006768" lon="10.718968886560912"><ele>170.0</ele><time>2026-04-18T14:21:15Z</time></trkpt><trkpt lat="43.29755304449549" lon="10.718898905063043"><ele>170.0</ele><time>2026-04-18T14:21:16Z</time></trkpt><trkpt lat="43.29750927759332" lon="10.718830051582355"><ele>170.0</ele><time>2026-04-18T14:21:17Z</time></trkpt><trkpt lat="43.29745025743224" lon="10.718767801448012"><ele>170.0</ele><time>2026-04-18T14:21:18Z</time></trkpt><trkpt lat="43.29740260256242" lon="10.718687448966271"><ele>170.0</ele><time>2026-04-18T14:21:19Z</time></trkpt><trkpt lat="43.2973618519879" lon="10.718593082269672"><ele>170.0</ele><time>2026-04-18T14:21:20Z</time></trkpt><trkpt lat="43.29730412416954" lon="10.718512777871597"><ele>170.0</ele><time>2026-04-18T14:21:21Z</time></trkpt><trkpt lat="43.297246265634996" lon="10.718433255477766"><ele>170.16666666666666</ele><time>2026-04-18T14:21:22Z</time></trkpt><trkpt lat="43.297189469906364" lon="10.718356233610056"><ele>170.33333333333331</ele><time>2026-04-18T14:21:23Z</time></trkpt><trkpt lat="43.297135068563804" lon="10.71828246753471"><ele>170.5</ele><time>2026-04-18T14:21:24Z</time></trkpt><trkpt lat="43.297078315603464" lon="10.718203211723369"><ele>170.66666666666666</ele><time>2026-04-18T14:21:25Z</time></trkpt><trkpt lat="43.297023161508086" lon="10.71811460828591"><ele>170.83333333333334</ele><time>2026-04-18T14:21:26Z</time></trkpt><trkpt lat="43.296976838932665" lon="10.718025220683279"><ele>171.0</ele><time>2026-04-18T14:21:27Z</time></trkpt><trkpt lat="43.29693300132786" lon="10.717932182492637"><ele>170.99999999999997</ele><time>2026-04-18T14:21:28Z</time></trkpt><trkpt lat="43.29687518060629" lon="10.717840289099222"><ele>171.0</ele><time>2026-04-18T14:21:29Z</time></trkpt><trkpt lat="43.29684211026664" lon="10.71775074358137"><ele>171.0</ele><time>2026-04-18T14:21:30Z</time></trkpt><trkpt lat="43.296813800126586" lon="10.717663652547172"><ele>171.0</ele><time>2026-04-18T14:21:31Z</time></trkpt><trkpt lat="43.296792190409704" lon="10.717572850950672"><ele>171.0</ele><time>2026-04-18T14:21:32Z</time></trkpt><trkpt lat="43.29680265144173" lon="10.71747454663556"><ele>170.99999999999997</ele><time>2026-04-18T14:21:33Z</time></trkpt><trkpt lat="43.296813299166956" lon="10.717370551148942"><ele>171.0</ele><time>2026-04-18T14:21:34Z</time></trkpt><trkpt lat="43.296827579400556" lon="10.717255089990289"><ele>170.5</ele><time>2026-04-18T14:21:35Z</time></trkpt><trkpt lat="43.296833995694605" lon="10.717135171472208"><ele>170.0</ele><time>2026-04-18T14:21:36Z</time></trkpt><trkpt lat="43.29683588726835" lon="10.717013886340055"><ele>169.5</ele><time>2026-04-18T14:21:37Z</time></trkpt><trkpt lat="43.29683635084371" lon="10.716896446885272"><ele>169.0</ele><time>2026-04-18T14:21:38Z</time></trkpt><trkpt lat="43.29683744078055" lon="10.716774763337762"><ele>168.5</ele><time>2026-04-18T14:21:39Z</time></trkpt><trkpt lat="43.296843021584486" lon="10.716653138994868"><ele>168.0</ele><time>2026-04-18T14:21:40Z</time></trkpt><trkpt lat="43.29685110775155" lon="10.716531193952246"><ele>167.0</ele><time>2026-04-18T14:21:41Z</time></trkpt><trkpt lat="43.296846745656886" lon="10.716404917036588"><ele>166.0</ele><time>2026-04-18T14:21:42Z</time></trkpt><trkpt lat="43.29686362723188" lon="10.716275814547792"><ele>165.0</ele><time>2026-04-18T14:21:43Z</time></trkpt><trkpt lat="43.29687892402681" lon="10.716142506850055"><ele>164.0</ele><time>2026-04-18T14:21:44Z</time></trkpt><trkpt lat="43.29689946528718" lon="10.716003666691755"><ele>163.0</ele><time>2026-04-18T14:21:45Z</time></trkpt><trkpt lat="43.29691131434494" lon="10.715871784869517"><ele>162.66666666666669</ele><time>2026-04-18T14:21:46Z</time></trkpt><trkpt lat="43.29692349592068" lon="10.715731031121441"><ele>162.33333333333334</ele><time>2026-04-18T14:21:47Z</time></trkpt><trkpt lat="43.29694168703631" lon="10.715610205271831"><ele>162.0</ele><time>2026-04-18T14:21:48Z</time></trkpt><trkpt lat="43.296962766488654" lon="10.715498989952065"><ele>161.66666666666666</ele><time>2026-04-18T14:21:49Z</time></trkpt><trkpt lat="43.29698050455873" lon="10.715392965314543"><ele>161.33333333333331</ele><time>2026-04-18T14:21:50Z</time></trkpt><trkpt lat="43.29699216275444" lon="10.71529073184599"><ele>161.0</ele><time>2026-04-18T14:21:51Z</time></trkpt><trkpt lat="43.2969932913662" lon="10.715186828541459"><ele>160.16666666666666</ele><time>2026-04-18T14:21:52Z</time></trkpt><trkpt lat="43.296976998315024" lon="10.715090947875424"><ele>159.33333333333331</ele><time>2026-04-18T14:21:53Z</time></trkpt><trkpt lat="43.296944685284856" lon="10.714998731342575"><ele>158.5</ele><time>2026-04-18T14:21:54Z</time></trkpt><trkpt lat="43.29689879206683" lon="10.714898103204593"><ele>157.66666666666666</ele><time>2026-04-18T14:21:55Z</time></trkpt><trkpt lat="43.296843991196724" lon="10.714804312372497"><ele>156.83333333333334</ele><time>2026-04-18T14:21:56Z</time></trkpt><trkpt lat="43.29679892631363" lon="10.714711712878692"><ele>156.0</ele><time>2026-04-18T14:21:57Z</time></trkpt><trkpt lat="43.29676294110723" lon="10.714612240464005"><ele>156.0</ele><time>2026-04-18T14:21:58Z</time></trkpt><trkpt lat="43.296728470472644" lon="10.714495076273456"><ele>156.0</ele><time>2026-04-18T14:21:59.001Z</time></trkpt><trkpt lat="43.2966931822083" lon="10.714369081056322"><ele>156.0</ele><time>2026-04-18T14:22:00.001Z</time></trkpt><trkpt lat="43.29666351048797" lon="10.714236542571706"><ele>156.0</ele><time>2026-04-18T14:22:01.001Z</time></trkpt><trkpt lat="43.29663906087537" lon="10.714095594843398"><ele>156.0</ele><time>2026-04-18T14:22:02.001Z</time></trkpt><trkpt lat="43.29660406266384" lon="10.713952782242018"><ele>155.25</ele><time>2026-04-18T14:22:03.001Z</time></trkpt><trkpt lat="43.29658658686974" lon="10.713818882432628"><ele>154.5</ele><time>2026-04-18T14:22:04.001Z</time></trkpt><trkpt lat="43.29654454675054" lon="10.713549049363037"><ele>153.75</ele><time>2026-04-18T14:22:06.001Z</time></trkpt><trkpt lat="43.29652934370754" lon="10.713411379901885"><ele>153.0</ele><time>2026-04-18T14:22:07.001Z</time></trkpt><trkpt lat="43.296519485899275" lon="10.713271376562203"><ele>152.16666666666666</ele><time>2026-04-18T14:22:08.001Z</time></trkpt><trkpt lat="43.29648260485832" lon="10.71315286559925"><ele>151.33333333333334</ele><time>2026-04-18T14:22:09.001Z</time></trkpt><trkpt lat="43.29646654077445" lon="10.713042560935582"><ele>150.5</ele><time>2026-04-18T14:22:10.001Z</time></trkpt><trkpt lat="43.296473517916915" lon="10.712922649533818"><ele>149.66666666666669</ele><time>2026-04-18T14:22:11.001Z</time></trkpt><trkpt lat="43.296481890841434" lon="10.712815858788968"><ele>148.83333333333334</ele><time>2026-04-18T14:22:12.001Z</time></trkpt><trkpt lat="43.296487709083735" lon="10.712696670761535"><ele>148.0</ele><time>2026-04-18T14:22:13.001Z</time></trkpt><trkpt lat="43.29647958331754" lon="10.712580057139826"><ele>146.6</ele><time>2026-04-18T14:22:14.001Z</time></trkpt><trkpt lat="43.29649183946715" lon="10.712487259358863"><ele>145.20000000000002</ele><time>2026-04-18T14:22:15.001Z</time></trkpt><trkpt lat="43.296483339746956" lon="10.712378545975815"><ele>143.8</ele><time>2026-04-18T14:22:16.001Z</time></trkpt><trkpt lat="43.29647659836463" lon="10.712282693178063"><ele>142.4</ele><time>2026-04-18T14:22:17.001Z</time></trkpt><trkpt lat="43.29645100881403" lon="10.712123122540683"><ele>141.0</ele><time>2026-04-18T14:22:19.001Z</time></trkpt><trkpt lat="43.29635069333561" lon="10.712014106241622"><ele>138.2</ele><time>2026-04-18T14:22:21.001Z</time></trkpt><trkpt lat="43.29625908833739" lon="10.712016855528883"><ele>135.39999999999998</ele><time>2026-04-18T14:22:22.001Z</time></trkpt><trkpt lat="43.29617182710377" lon="10.712038002152108"><ele>132.6</ele><time>2026-04-18T14:22:23.001Z</time></trkpt><trkpt lat="43.29607796854737" lon="10.712062927670075"><ele>129.79999999999998</ele><time>2026-04-18T14:22:24.001Z</time></trkpt><trkpt lat="43.29597641896066" lon="10.712093006618694"><ele>127.0</ele><time>2026-04-18T14:22:25.001Z</time></trkpt><trkpt lat="43.295875795014624" lon="10.71212342032705"><ele>127.0</ele><time>2026-04-18T14:22:26.001Z</time></trkpt><trkpt lat="43.29577935015997" lon="10.712149478459486"><ele>126.99999999999999</ele><time>2026-04-18T14:22:27.001Z</time></trkpt><trkpt lat="43.29569195168486" lon="10.712167483913795"><ele>126.99999999999999</ele><time>2026-04-18T14:22:28.001Z</time></trkpt><trkpt lat="43.29560153559794" lon="10.712177303411163"><ele>127.0</ele><time>2026-04-18T14:22:29.001Z</time></trkpt><trkpt lat="43.295503418794816" lon="10.712196209727155"><ele>127.0</ele><time>2026-04-18T14:22:30.001Z</time></trkpt><trkpt lat="43.29540561409517" lon="10.712151434123927"><ele>123.6</ele><time>2026-04-18T14:22:31.001Z</time></trkpt><trkpt lat="43.295311376337146" lon="10.7121147118975"><ele>120.19999999999999</ele><time>2026-04-18T14:22:32.001Z</time></trkpt><trkpt lat="43.2952241655005" lon="10.712060462018831"><ele>116.8</ele><time>2026-04-18T14:22:33.001Z</time></trkpt><trkpt lat="43.29514558956399" lon="10.711986411751086"><ele>113.4</ele><time>2026-04-18T14:22:34.001Z</time></trkpt><trkpt lat="43.29508029026813" lon="10.711916715078123"><ele>110.0</ele><time>2026-04-18T14:22:35.001Z</time></trkpt><trkpt lat="43.295025977916204" lon="10.711839914065317"><ele>109.83333333333333</ele><time>2026-04-18T14:22:36.001Z</time></trkpt><trkpt lat="43.295011505083025" lon="10.711733140603624"><ele>109.66666666666666</ele><time>2026-04-18T14:22:37.001Z</time></trkpt><trkpt lat="43.295023609053935" lon="10.71162065754442"><ele>109.5</ele><time>2026-04-18T14:22:38.001Z</time></trkpt><trkpt lat="43.29504549493629" lon="10.711510487128516"><ele>109.33333333333334</ele><time>2026-04-18T14:22:39.001Z</time></trkpt><trkpt lat="43.295054234571055" lon="10.711400300767874"><ele>109.16666666666667</ele><time>2026-04-18T14:22:40.001Z</time></trkpt><trkpt lat="43.2950422557105" lon="10.711293415631856"><ele>109.0</ele><time>2026-04-18T14:22:41.001Z</time></trkpt><trkpt lat="43.2949954254687" lon="10.711187537854025"><ele>109.0</ele><time>2026-04-18T14:22:42.001Z</time></trkpt><trkpt lat="43.29493626590218" lon="10.711086824365601"><ele>109.0</ele><time>2026-04-18T14:22:43.001Z</time></trkpt><trkpt lat="43.29486972977711" lon="10.71100665729782"><ele>109.0</ele><time>2026-04-18T14:22:44.001Z</time></trkpt><trkpt lat="43.2947802115088" lon="10.710938037631754"><ele>109.0</ele><time>2026-04-18T14:22:45.001Z</time></trkpt><trkpt lat="43.29468947726052" lon="10.710879943654204"><ele>109.0</ele><time>2026-04-18T14:22:45.999Z</time></trkpt><trkpt lat="43.29460836493197" lon="10.710811484716196"><ele>107.6</ele><time>2026-04-18T14:22:46.999Z</time></trkpt><trkpt lat="43.29452803779696" lon="10.710714643564517"><ele>106.2</ele><time>2026-04-18T14:22:47.999Z</time></trkpt><trkpt lat="43.29444656262457" lon="10.710614572671544"><ele>104.8</ele><time>2026-04-18T14:22:48.999Z</time></trkpt><trkpt lat="43.294366183394665" lon="10.710511896014895"><ele>103.39999999999999</ele><time>2026-04-18T14:22:49.999Z</time></trkpt><trkpt lat="43.2942852853042" lon="10.71040353888582"><ele>102.0</ele><time>2026-04-18T14:22:50.999Z</time></trkpt><trkpt lat="43.294211256534766" lon="10.7103046085913"><ele>101.0</ele><time>2026-04-18T14:22:51.999Z</time></trkpt><trkpt lat="43.294138969674115" lon="10.71021020118885"><ele>100.0</ele><time>2026-04-18T14:22:52.999Z</time></trkpt><trkpt lat="43.294070443808515" lon="10.710124601393625"><ele>99.0</ele><time>2026-04-18T14:22:53.999Z</time></trkpt><trkpt lat="43.29400362095156" lon="10.710041605640756"><ele>98.0</ele><time>2026-04-18T14:22:54.999Z</time></trkpt><trkpt lat="43.293955721132114" lon="10.709954275230286"><ele>97.0</ele><time>2026-04-18T14:22:55.999Z</time></trkpt><trkpt lat="43.29392866768732" lon="10.709851017967498"><ele>96.0</ele><time>2026-04-18T14:22:56.999Z</time></trkpt><trkpt lat="43.29392023110501" lon="10.709729109354"><ele>96.0</ele><time>2026-04-18T14:22:57.999Z</time></trkpt><trkpt lat="43.29393495263308" lon="10.709601546769212"><ele>96.0</ele><time>2026-04-18T14:22:58.999Z</time></trkpt><trkpt lat="43.29395385114658" lon="10.70946518575925"><ele>96.0</ele><time>2026-04-18T14:22:59.999Z</time></trkpt><trkpt lat="43.293955707474815" lon="10.709331687010947"><ele>96.0</ele><time>2026-04-18T14:23:00.999Z</time></trkpt><trkpt lat="43.29394185182873" lon="10.709198341425067"><ele>96.0</ele><time>2026-04-18T14:23:01.999Z</time></trkpt><trkpt lat="43.29392537929825" lon="10.709054348713632"><ele>93.19999999999999</ele><time>2026-04-18T14:23:02.999Z</time></trkpt><trkpt lat="43.29390841458267" lon="10.708919613362195"><ele>90.39999999999999</ele><time>2026-04-18T14:23:03.999Z</time></trkpt><trkpt lat="43.29389237900352" lon="10.708798831784144"><ele>87.6</ele><time>2026-04-18T14:23:04.999Z</time></trkpt><trkpt lat="43.29387680159523" lon="10.708680323716893"><ele>84.8</ele><time>2026-04-18T14:23:05.999Z</time></trkpt><trkpt lat="43.29385575547187" lon="10.708552906422328"><ele>82.0</ele><time>2026-04-18T14:23:06.999Z</time></trkpt><trkpt lat="43.29382364579652" lon="10.70842112582261"><ele>80.0</ele><time>2026-04-18T14:23:07.999Z</time></trkpt><trkpt lat="43.293793538616754" lon="10.708295712460677"><ele>78.0</ele><time>2026-04-18T14:23:08.999Z</time></trkpt><trkpt lat="43.29376996209345" lon="10.708180062229113"><ele>76.0</ele><time>2026-04-18T14:23:09.999Z</time></trkpt><trkpt lat="43.2937373749203" lon="10.708053244116428"><ele>74.0</ele><time>2026-04-18T14:23:10.999Z</time></trkpt><trkpt lat="43.29370025181822" lon="10.707939120900418"><ele>72.0</ele><time>2026-04-18T14:23:11.999Z</time></trkpt><trkpt lat="43.293653838431105" lon="10.707842514990073"><ele>72.0</ele><time>2026-04-18T14:23:13Z</time></trkpt><trkpt lat="43.2935929685603" lon="10.70776438962729"><ele>72.0</ele><time>2026-04-18T14:23:14Z</time></trkpt><trkpt lat="43.2935246323838" lon="10.707699997498462"><ele>72.0</ele><time>2026-04-18T14:23:15Z</time></trkpt><trkpt lat="43.293441903254816" lon="10.707652525687049"><ele>72.0</ele><time>2026-04-18T14:23:16Z</time></trkpt><trkpt lat="43.293354516814695" lon="10.707604234517724"><ele>72.0</ele><time>2026-04-18T14:23:17Z</time></trkpt><trkpt lat="43.293260954276484" lon="10.707553969961992"><ele>71.0</ele><time>2026-04-18T14:23:18Z</time></trkpt><trkpt lat="43.29316588383939" lon="10.707503045264911"><ele>70.0</ele><time>2026-04-18T14:23:19Z</time></trkpt><trkpt lat="43.29306810160472" lon="10.707454316302558"><ele>69.0</ele><time>2026-04-18T14:23:20Z</time></trkpt><trkpt lat="43.29297331162153" lon="10.707401797205703"><ele>68.0</ele><time>2026-04-18T14:23:21Z</time></trkpt><trkpt lat="43.292885544451806" lon="10.70735047469406"><ele>67.0</ele><time>2026-04-18T14:23:22Z</time></trkpt><trkpt lat="43.29279199570223" lon="10.70729265352392"><ele>67.0</ele><time>2026-04-18T14:23:23Z</time></trkpt><trkpt lat="43.29269717352973" lon="10.707249539422243"><ele>67.0</ele><time>2026-04-18T14:23:24Z</time></trkpt><trkpt lat="43.29260609306581" lon="10.707205986798071"><ele>67.0</ele><time>2026-04-18T14:23:25Z</time></trkpt><trkpt lat="43.29251850632825" lon="10.707162280786541"><ele>67.0</ele><time>2026-04-18T14:23:26Z</time></trkpt><trkpt lat="43.29235711003853" lon="10.707083265249743"><ele>67.0</ele><time>2026-04-18T14:23:28Z</time></trkpt><trkpt lat="43.292287335278765" lon="10.707030428766966"><ele>67.0</ele><time>2026-04-18T14:23:29Z</time></trkpt><trkpt lat="43.29222430092985" lon="10.706953852862181"><ele>67.0</ele><time>2026-04-18T14:23:30Z</time></trkpt><trkpt lat="43.29217397345507" lon="10.706858297187441"><ele>67.0</ele><time>2026-04-18T14:23:31Z</time></trkpt><trkpt lat="43.29214746582437" lon="10.706738221737707"><ele>67.0</ele><time>2026-04-18T14:23:32Z</time></trkpt><trkpt lat="43.29215391774315" lon="10.70660799138626"><ele>67.0</ele><time>2026-04-18T14:23:33Z</time></trkpt><trkpt lat="43.292192726079364" lon="10.706479120724152"><ele>66.75</ele><time>2026-04-18T14:23:34Z</time></trkpt><trkpt lat="43.2922653694057" lon="10.706359760916598"><ele>66.5</ele><time>2026-04-18T14:23:35Z</time></trkpt><trkpt lat="43.29234517393141" lon="10.706249518362664"><ele>66.25</ele><time>2026-04-18T14:23:36Z</time></trkpt><trkpt lat="43.29242241150803" lon="10.706120544547415"><ele>66.0</ele><time>2026-04-18T14:23:37Z</time></trkpt><trkpt lat="43.29250192772967" lon="10.705984926388659"><ele>66.39999999999999</ele><time>2026-04-18T14:23:38Z</time></trkpt><trkpt lat="43.292581064055305" lon="10.705858287974005"><ele>66.8</ele><time>2026-04-18T14:23:39Z</time></trkpt><trkpt lat="43.2926461940541" lon="10.705747733588082"><ele>67.19999999999999</ele><time>2026-04-18T14:23:40Z</time></trkpt><trkpt lat="43.292704412639395" lon="10.705648642349113"><ele>67.6</ele><time>2026-04-18T14:23:41Z</time></trkpt><trkpt lat="43.292753964011794" lon="10.705563479241196"><ele>68.0</ele><time>2026-04-18T14:23:42Z</time></trkpt><trkpt lat="43.29279543475874" lon="10.705492030681837"><ele>68.0</ele><time>2026-04-18T14:23:43Z</time></trkpt><trkpt lat="43.29285081156513" lon="10.705396426175087"><ele>68.0</ele><time>2026-04-18T14:23:45Z</time></trkpt><trkpt lat="43.292900009165756" lon="10.705312612848621"><ele>68.0</ele><time>2026-04-18T14:23:47Z</time></trkpt><trkpt lat="43.292971348754506" lon="10.70518482917858"><ele>68.0</ele><time>2026-04-18T14:23:49Z</time></trkpt><trkpt lat="43.29301055542776" lon="10.70510680016011"><ele>68.0</ele><time>2026-04-18T14:23:50Z</time></trkpt><trkpt lat="43.29305009832359" lon="10.705018077019998"><ele>68.0</ele><time>2026-04-18T14:23:51Z</time></trkpt><trkpt lat="43.29308721589563" lon="10.704920044293631"><ele>67.2</ele><time>2026-04-18T14:23:52Z</time></trkpt><trkpt lat="43.29311766809987" lon="10.704809372542082"><ele>66.4</ele><time>2026-04-18T14:23:53Z</time></trkpt><trkpt lat="43.29314695772206" lon="10.704687701483635"><ele>65.60000000000001</ele><time>2026-04-18T14:23:54Z</time></trkpt><trkpt lat="43.2931770684012" lon="10.704556264793005"><ele>64.8</ele><time>2026-04-18T14:23:55Z</time></trkpt><trkpt lat="43.293211608851315" lon="10.704422885916815"><ele>64.0</ele><time>2026-04-18T14:23:56Z</time></trkpt><trkpt lat="43.29324567648095" lon="10.704281270596104"><ele>64.0</ele><time>2026-04-18T14:23:57Z</time></trkpt><trkpt lat="43.29328008082712" lon="10.704135588153159"><ele>64.0</ele><time>2026-04-18T14:23:58Z</time></trkpt><trkpt lat="43.293317240655234" lon="10.703989321502837"><ele>64.0</ele><time>2026-04-18T14:23:59Z</time></trkpt><trkpt lat="43.29335368496769" lon="10.703840943424195"><ele>64.0</ele><time>2026-04-18T14:24:00Z</time></trkpt><trkpt lat="43.29339083869947" lon="10.70368962409116"><ele>63.5</ele><time>2026-04-18T14:24:01Z</time></trkpt><trkpt lat="43.29342651069621" lon="10.703538280605304"><ele>63.0</ele><time>2026-04-18T14:24:02Z</time></trkpt><trkpt lat="43.29346161816166" lon="10.703388666480997"><ele>62.5</ele><time>2026-04-18T14:24:03Z</time></trkpt><trkpt lat="43.29349633886387" lon="10.703238254857496"><ele>62.0</ele><time>2026-04-18T14:24:04Z</time></trkpt><trkpt lat="43.29353135187046" lon="10.703087479336904"><ele>62.0</ele><time>2026-04-18T14:24:05Z</time></trkpt><trkpt lat="43.2935690475004" lon="10.70294049286232"><ele>62.0</ele><time>2026-04-18T14:24:06Z</time></trkpt><trkpt lat="43.293604632415715" lon="10.70279430373136"><ele>62.0</ele><time>2026-04-18T14:24:07.001Z</time></trkpt><trkpt lat="43.29364459610677" lon="10.702645969442324"><ele>62.0</ele><time>2026-04-18T14:24:08.001Z</time></trkpt><trkpt lat="43.29368388837894" lon="10.702498381649484"><ele>61.8</ele><time>2026-04-18T14:24:09.001Z</time></trkpt><trkpt lat="43.29371975839368" lon="10.702351228862716"><ele>61.6</ele><time>2026-04-18T14:24:10.001Z</time></trkpt><trkpt lat="43.293754479853526" lon="10.702204524338313"><ele>61.39999999999999</ele><time>2026-04-18T14:24:11.001Z</time></trkpt><trkpt lat="43.29379093699592" lon="10.702059207876642"><ele>61.199999999999996</ele><time>2026-04-18T14:24:12.001Z</time></trkpt><trkpt lat="43.293827580839476" lon="10.701915888003848"><ele>61.0</ele><time>2026-04-18T14:24:13.001Z</time></trkpt><trkpt lat="43.2938473120479" lon="10.701769187545148"><ele>61.4</ele><time>2026-04-18T14:24:14.001Z</time></trkpt><trkpt lat="43.29384903500885" lon="10.70162395644819"><ele>61.8</ele><time>2026-04-18T14:24:15.001Z</time></trkpt><trkpt lat="43.29382847140974" lon="10.701475574419266"><ele>62.199999999999996</ele><time>2026-04-18T14:24:16.001Z</time></trkpt><trkpt lat="43.29380362842199" lon="10.70132734499526"><ele>62.599999999999994</ele><time>2026-04-18T14:24:17.001Z</time></trkpt><trkpt lat="43.293781156009835" lon="10.701174805864436"><ele>63.0</ele><time>2026-04-18T14:24:18.001Z</time></trkpt><trkpt lat="43.293759421938816" lon="10.701019810266391"><ele>63.5</ele><time>2026-04-18T14:24:19.001Z</time></trkpt><trkpt lat="43.29373589890007" lon="10.700859535936774"><ele>64.0</ele><time>2026-04-18T14:24:20.001Z</time></trkpt><trkpt lat="43.29371167870516" lon="10.70069508531694"><ele>64.5</ele><time>2026-04-18T14:24:21.001Z</time></trkpt><trkpt lat="43.29368755685134" lon="10.700533693926113"><ele>65.0</ele><time>2026-04-18T14:24:22.001Z</time></trkpt><trkpt lat="43.293664215579604" lon="10.700377964867739"><ele>64.4</ele><time>2026-04-18T14:24:23.001Z</time></trkpt><trkpt lat="43.293643650206285" lon="10.70022610042646"><ele>63.8</ele><time>2026-04-18T14:24:24.001Z</time></trkpt><trkpt lat="43.293623832079525" lon="10.700079875442041"><ele>63.2</ele><time>2026-04-18T14:24:25.001Z</time></trkpt><trkpt lat="43.29360605196816" lon="10.699937659158739"><ele>62.6</ele><time>2026-04-18T14:24:26.001Z</time></trkpt><trkpt lat="43.293584183630045" lon="10.699800231080134"><ele>62.0</ele><time>2026-04-18T14:24:27.001Z</time></trkpt><trkpt lat="43.29356683747457" lon="10.699663175198058"><ele>62.00000000000001</ele><time>2026-04-18T14:24:28.001Z</time></trkpt><trkpt lat="43.293559212427034" lon="10.699536980908551"><ele>62.0</ele><time>2026-04-18T14:24:29.001Z</time></trkpt><trkpt lat="43.293550134743796" lon="10.699420161443518"><ele>62.0</ele><time>2026-04-18T14:24:30.001Z</time></trkpt><trkpt lat="43.29354467094328" lon="10.699307807708927"><ele>62.0</ele><time>2026-04-18T14:24:31.001Z</time></trkpt><trkpt lat="43.2935393699621" lon="10.699187737848968"><ele>62.00000000000001</ele><time>2026-04-18T14:24:32.001Z</time></trkpt><trkpt lat="43.29352079276354" lon="10.69906535139929"><ele>62.0</ele><time>2026-04-18T14:24:33.001Z</time></trkpt><trkpt lat="43.2935239943414" lon="10.698942803652596"><ele>61.16666666666667</ele><time>2026-04-18T14:24:34.001Z</time></trkpt><trkpt lat="43.29352093158344" lon="10.698837668959346"><ele>60.333333333333336</ele><time>2026-04-18T14:24:35.001Z</time></trkpt><trkpt lat="43.29352235687398" lon="10.698746464821022"><ele>59.5</ele><time>2026-04-18T14:24:36.001Z</time></trkpt><trkpt lat="43.293524235080646" lon="10.698608161000712"><ele>58.66666666666667</ele><time>2026-04-18T14:24:38.001Z</time></trkpt><trkpt lat="43.29354842940474" lon="10.698487989604255"><ele>57.833333333333336</ele><time>2026-04-18T14:24:45.001Z</time></trkpt><trkpt lat="43.29364643259791" lon="10.698430958942811"><ele>57.0</ele><time>2026-04-18T14:24:47.001Z</time></trkpt><trkpt lat="43.293718643806464" lon="10.69839934425115"><ele>55.8</ele><time>2026-04-18T14:24:48.001Z</time></trkpt><trkpt lat="43.29379876778769" lon="10.698353598210286"><ele>54.6</ele><time>2026-04-18T14:24:49.001Z</time></trkpt><trkpt lat="43.2938819417789" lon="10.698298185790287"><ele>53.4</ele><time>2026-04-18T14:24:50.001Z</time></trkpt><trkpt lat="43.29397231114479" lon="10.698223507058499"><ele>52.199999999999996</ele><time>2026-04-18T14:24:51.001Z</time></trkpt><trkpt lat="43.29406993998288" lon="10.698143264291868"><ele>51.0</ele><time>2026-04-18T14:24:51.999Z</time></trkpt><trkpt lat="43.29417099159982" lon="10.698058665516548"><ele>51.0</ele><time>2026-04-18T14:24:52.999Z</time></trkpt><trkpt lat="43.294277786782395" lon="10.697960021683746"><ele>51.0</ele><time>2026-04-18T14:24:53.999Z</time></trkpt><trkpt lat="43.29439009381989" lon="10.697858271163767"><ele>51.0</ele><time>2026-04-18T14:24:54.999Z</time></trkpt><trkpt lat="43.29450631412298" lon="10.697750947120388"><ele>51.0</ele><time>2026-04-18T14:24:55.999Z</time></trkpt><trkpt lat="43.29462541490946" lon="10.697640497491205"><ele>51.0</ele><time>2026-04-18T14:24:56.999Z</time></trkpt><trkpt lat="43.29474887088318" lon="10.697527875441152"><ele>51.0</ele><time>2026-04-18T14:24:57.999Z</time></trkpt><trkpt lat="43.29487330798013" lon="10.697412847928913"><ele>51.0</ele><time>2026-04-18T14:24:58.999Z</time></trkpt><trkpt lat="43.2950028928633" lon="10.697297287528734"><ele>51.0</ele><time>2026-04-18T14:24:59.999Z</time></trkpt><trkpt lat="43.29513170998879" lon="10.69717805903736"><ele>51.0</ele><time>2026-04-18T14:25:00.999Z</time></trkpt><trkpt lat="43.295265227358605" lon="10.697058579310767"><ele>51.0</ele><time>2026-04-18T14:25:01.999Z</time></trkpt><trkpt lat="43.29539923947424" lon="10.696937220648888"><ele>51.33333333333333</ele><time>2026-04-18T14:25:02.999Z</time></trkpt><trkpt lat="43.29553699268088" lon="10.696814113557128"><ele>51.666666666666664</ele><time>2026-04-18T14:25:03.999Z</time></trkpt><trkpt lat="43.29567712487315" lon="10.69668855168258"><ele>52.0</ele><time>2026-04-18T14:25:04.999Z</time></trkpt><trkpt lat="43.29581941713349" lon="10.696559210522707"><ele>52.0</ele><time>2026-04-18T14:25:05.999Z</time></trkpt><trkpt lat="43.29596223353069" lon="10.696427515441105"><ele>52.0</ele><time>2026-04-18T14:25:06.999Z</time></trkpt><trkpt lat="43.29610604321027" lon="10.696295862793034"><ele>52.0</ele><time>2026-04-18T14:25:07.999Z</time></trkpt><trkpt lat="43.29625176258824" lon="10.69616320683922"><ele>51.33333333333333</ele><time>2026-04-18T14:25:08.999Z</time></trkpt><trkpt lat="43.29639896475884" lon="10.696031799478153"><ele>50.66666666666667</ele><time>2026-04-18T14:25:09.999Z</time></trkpt><trkpt lat="43.2965474986539" lon="10.695896861255196"><ele>50.0</ele><time>2026-04-18T14:25:10.999Z</time></trkpt><trkpt lat="43.29669555280052" lon="10.695759841292915"><ele>50.0</ele><time>2026-04-18T14:25:11.999Z</time></trkpt><trkpt lat="43.29684622228378" lon="10.695622381226363"><ele>50.0</ele><time>2026-04-18T14:25:12.999Z</time></trkpt><trkpt lat="43.29699504879006" lon="10.695484221763907"><ele>50.0</ele><time>2026-04-18T14:25:13.999Z</time></trkpt><trkpt lat="43.29714434252422" lon="10.695345525415743"><ele>50.0</ele><time>2026-04-18T14:25:14.999Z</time></trkpt><trkpt lat="43.297296820205474" lon="10.695210605490193"><ele>50.0</ele><time>2026-04-18T14:25:15.999Z</time></trkpt><trkpt lat="43.2974497636373" lon="10.695075588898995"><ele>50.0</ele><time>2026-04-18T14:25:16.999Z</time></trkpt><trkpt lat="43.29760228405062" lon="10.69494025741319"><ele>50.0</ele><time>2026-04-18T14:25:17.999Z</time></trkpt><trkpt lat="43.297755696784485" lon="10.694805369778488"><ele>50.0</ele><time>2026-04-18T14:25:18.999Z</time></trkpt><trkpt lat="43.29790956198929" lon="10.694669996425423"><ele>50.0</ele><time>2026-04-18T14:25:20Z</time></trkpt><trkpt lat="43.298061565218376" lon="10.694533053304184"><ele>48.66666666666667</ele><time>2026-04-18T14:25:21Z</time></trkpt><trkpt lat="43.298213477692826" lon="10.694396723545458"><ele>47.333333333333336</ele><time>2026-04-18T14:25:22Z</time></trkpt><trkpt lat="43.29836296597381" lon="10.694253198424933"><ele>46.0</ele><time>2026-04-18T14:25:23Z</time></trkpt><trkpt lat="43.298514044449405" lon="10.694118942293374"><ele>46.0</ele><time>2026-04-18T14:25:24Z</time></trkpt><trkpt lat="43.298668039140104" lon="10.693981891588871"><ele>46.0</ele><time>2026-04-18T14:25:25Z</time></trkpt><trkpt lat="43.29881598920528" lon="10.693844494686484"><ele>46.0</ele><time>2026-04-18T14:25:26Z</time></trkpt><trkpt lat="43.29896677771578" lon="10.693708881369133"><ele>46.0</ele><time>2026-04-18T14:25:27Z</time></trkpt><trkpt lat="43.299119742451" lon="10.693575852726054"><ele>46.0</ele><time>2026-04-18T14:25:28Z</time></trkpt><trkpt lat="43.29926639559197" lon="10.693437539407562"><ele>46.0</ele><time>2026-04-18T14:25:29Z</time></trkpt><trkpt lat="43.299415639425895" lon="10.69330986864288"><ele>46.0</ele><time>2026-04-18T14:25:30Z</time></trkpt><trkpt lat="43.299565110013425" lon="10.69317762067962"><ele>46.0</ele><time>2026-04-18T14:25:31Z</time></trkpt><trkpt lat="43.29971502174624" lon="10.693043322545906"><ele>46.0</ele><time>2026-04-18T14:25:32Z</time></trkpt><trkpt lat="43.29986451568044" lon="10.692909660176511"><ele>46.333333333333336</ele><time>2026-04-18T14:25:33Z</time></trkpt><trkpt lat="43.30001471516084" lon="10.692778961714358"><ele>46.666666666666664</ele><time>2026-04-18T14:25:34Z</time></trkpt><trkpt lat="43.300168764520606" lon="10.69264297171676"><ele>47.0</ele><time>2026-04-18T14:25:35Z</time></trkpt><trkpt lat="43.30031427920667" lon="10.692505691596953"><ele>47.0</ele><time>2026-04-18T14:25:36Z</time></trkpt><trkpt lat="43.30045731267774" lon="10.692365948009066"><ele>47.0</ele><time>2026-04-18T14:25:37Z</time></trkpt><trkpt lat="43.300592566087" lon="10.692225495703523"><ele>47.0</ele><time>2026-04-18T14:25:38Z</time></trkpt><trkpt lat="43.30071788201462" lon="10.692073157724547"><ele>47.666666666666664</ele><time>2026-04-18T14:25:39Z</time></trkpt><trkpt lat="43.30084062513968" lon="10.691912855391198"><ele>48.33333333333333</ele><time>2026-04-18T14:25:40Z</time></trkpt><trkpt lat="43.300950700845924" lon="10.691737220909927"><ele>49.0</ele><time>2026-04-18T14:25:41Z</time></trkpt><trkpt lat="43.30106350338098" lon="10.69156497676604"><ele>49.0</ele><time>2026-04-18T14:25:42Z</time></trkpt><trkpt lat="43.301173006011375" lon="10.691386357105895"><ele>49.0</ele><time>2026-04-18T14:25:43Z</time></trkpt><trkpt lat="43.30128342405215" lon="10.691210233029196"><ele>49.0</ele><time>2026-04-18T14:25:44Z</time></trkpt><trkpt lat="43.30139178806883" lon="10.691031196564637"><ele>48.666666666666664</ele><time>2026-04-18T14:25:45Z</time></trkpt><trkpt lat="43.30149871078682" lon="10.690851682111823"><ele>48.33333333333333</ele><time>2026-04-18T14:25:46Z</time></trkpt><trkpt lat="43.30160456300817" lon="10.690672753926151"><ele>48.0</ele><time>2026-04-18T14:25:47Z</time></trkpt><trkpt lat="43.30170954046732" lon="10.690493046668097"><ele>48.0</ele><time>2026-04-18T14:25:48Z</time></trkpt><trkpt lat="43.301813556707835" lon="10.69031400997599"><ele>48.0</ele><time>2026-04-18T14:25:49Z</time></trkpt><trkpt lat="43.301922554428636" lon="10.690139711011641"><ele>48.0</ele><time>2026-04-18T14:25:50Z</time></trkpt><trkpt lat="43.302033360765066" lon="10.68996539829388"><ele>46.666666666666664</ele><time>2026-04-18T14:25:51Z</time></trkpt><trkpt lat="43.30214343832396" lon="10.689790611181872"><ele>45.33333333333333</ele><time>2026-04-18T14:25:52Z</time></trkpt><trkpt lat="43.30225666465102" lon="10.689621102628887"><ele>44.0</ele><time>2026-04-18T14:25:53Z</time></trkpt><trkpt lat="43.302375177775666" lon="10.689451179458251"><ele>44.666666666666664</ele><time>2026-04-18T14:25:54Z</time></trkpt><trkpt lat="43.30249924011191" lon="10.689288974675348"><ele>45.333333333333336</ele><time>2026-04-18T14:25:55Z</time></trkpt><trkpt lat="43.30262839767491" lon="10.689134510596979"><ele>46.0</ele><time>2026-04-18T14:25:56Z</time></trkpt><trkpt lat="43.30276295832803" lon="10.688983560101507"><ele>46.0</ele><time>2026-04-18T14:25:57Z</time></trkpt><trkpt lat="43.302895712835756" lon="10.68883831564476"><ele>46.0</ele><time>2026-04-18T14:25:58Z</time></trkpt><trkpt lat="43.30303074758621" lon="10.688692772285822"><ele>46.0</ele><time>2026-04-18T14:25:59Z</time></trkpt><trkpt lat="43.30316519124172" lon="10.688550732176582"><ele>46.0</ele><time>2026-04-18T14:26:00Z</time></trkpt><trkpt lat="43.303301618948026" lon="10.688409399360001"><ele>46.0</ele><time>2026-04-18T14:26:01Z</time></trkpt><trkpt lat="43.30343987580446" lon="10.688266587385966"><ele>46.0</ele><time>2026-04-18T14:26:02Z</time></trkpt><trkpt lat="43.30357720077359" lon="10.688124805770109"><ele>46.0</ele><time>2026-04-18T14:26:03Z</time></trkpt><trkpt lat="43.3037152464399" lon="10.68797814719546"><ele>46.0</ele><time>2026-04-18T14:26:04Z</time></trkpt><trkpt lat="43.303856515535045" lon="10.687829742972388"><ele>46.0</ele><time>2026-04-18T14:26:05Z</time></trkpt><trkpt lat="43.30400164447199" lon="10.68767894818388"><ele>46.66666666666667</ele><time>2026-04-18T14:26:06Z</time></trkpt><trkpt lat="43.304149608343714" lon="10.687524157338759"><ele>47.333333333333336</ele><time>2026-04-18T14:26:07Z</time></trkpt><trkpt lat="43.30429918683301" lon="10.687364840943486"><ele>48.0</ele><time>2026-04-18T14:26:08.001Z</time></trkpt><trkpt lat="43.30444938677217" lon="10.687203344643475"><ele>48.0</ele><time>2026-04-18T14:26:09.001Z</time></trkpt><trkpt lat="43.30459943192466" lon="10.68704193471915"><ele>48.0</ele><time>2026-04-18T14:26:10.001Z</time></trkpt><trkpt lat="43.30474770617597" lon="10.686881620686838"><ele>48.0</ele><time>2026-04-18T14:26:11.001Z</time></trkpt><trkpt lat="43.30489551134573" lon="10.686722602455328"><ele>47.333333333333336</ele><time>2026-04-18T14:26:12.001Z</time></trkpt><trkpt lat="43.305044056628645" lon="10.68656526564859"><ele>46.66666666666667</ele><time>2026-04-18T14:26:13.001Z</time></trkpt><trkpt lat="43.30519169958186" lon="10.686410437865467"><ele>46.0</ele><time>2026-04-18T14:26:14.001Z</time></trkpt><trkpt lat="43.305336854450324" lon="10.686256763235852"><ele>46.0</ele><time>2026-04-18T14:26:15.001Z</time></trkpt><trkpt lat="43.30547817949677" lon="10.68609915586157"><ele>46.0</ele><time>2026-04-18T14:26:16.001Z</time></trkpt><trkpt lat="43.30560907071958" lon="10.68593571652246"><ele>46.0</ele><time>2026-04-18T14:26:17.001Z</time></trkpt><trkpt lat="43.305731679910814" lon="10.685768545179231"><ele>45.66666666666667</ele><time>2026-04-18T14:26:18.001Z</time></trkpt><trkpt lat="43.305841061565154" lon="10.685586086207538"><ele>45.333333333333336</ele><time>2026-04-18T14:26:19.001Z</time></trkpt><trkpt lat="43.30594767184483" lon="10.685396470440164"><ele>45.0</ele><time>2026-04-18T14:26:20.001Z</time></trkpt><trkpt lat="43.30605285821214" lon="10.68520358146525"><ele>44.333333333333336</ele><time>2026-04-18T14:26:21.001Z</time></trkpt><trkpt lat="43.3061544904312" lon="10.68500902921215"><ele>43.66666666666667</ele><time>2026-04-18T14:26:22.001Z</time></trkpt><trkpt lat="43.3062592698947" lon="10.684817900735506"><ele>43.0</ele><time>2026-04-18T14:26:23.001Z</time></trkpt><trkpt lat="43.30636387600036" lon="10.684626638392988"><ele>43.333333333333336</ele><time>2026-04-18T14:26:24.001Z</time></trkpt><trkpt lat="43.306470619437626" lon="10.68443563101405"><ele>43.666666666666664</ele><time>2026-04-18T14:26:25.001Z</time></trkpt><trkpt lat="43.306576817440245" lon="10.684240314264775"><ele>44.0</ele><time>2026-04-18T14:26:26.001Z</time></trkpt><trkpt lat="43.30668363030165" lon="10.684043773111902"><ele>44.0</ele><time>2026-04-18T14:26:27.001Z</time></trkpt><trkpt lat="43.30679247230789" lon="10.68384612076406"><ele>44.0</ele><time>2026-04-18T14:26:28.001Z</time></trkpt><trkpt lat="43.3068991825174" lon="10.683642751303967"><ele>44.0</ele><time>2026-04-18T14:26:29.001Z</time></trkpt><trkpt lat="43.30700701048834" lon="10.68343948558957"><ele>43.666666666666664</ele><time>2026-04-18T14:26:30.001Z</time></trkpt><trkpt lat="43.3071167189834" lon="10.683236942328412"><ele>43.333333333333336</ele><time>2026-04-18T14:26:31.001Z</time></trkpt><trkpt lat="43.307227454571766" lon="10.683032564840317"><ele>43.0</ele><time>2026-04-18T14:26:32.001Z</time></trkpt><trkpt lat="43.30733852394994" lon="10.682827356667413"><ele>45.0</ele><time>2026-04-18T14:26:33.001Z</time></trkpt><trkpt lat="43.30744940936493" lon="10.682622858923118"><ele>47.0</ele><time>2026-04-18T14:26:34.001Z</time></trkpt><trkpt lat="43.307558106992964" lon="10.682420051350869"><ele>49.0</ele><time>2026-04-18T14:26:35.001Z</time></trkpt><trkpt lat="43.30766364374791" lon="10.682221272284218"><ele>49.0</ele><time>2026-04-18T14:26:36.001Z</time></trkpt><trkpt lat="43.30776697720005" lon="10.682025317858436"><ele>49.0</ele><time>2026-04-18T14:26:37.001Z</time></trkpt><trkpt lat="43.30787095082283" lon="10.681834371080816"><ele>49.0</ele><time>2026-04-18T14:26:38.001Z</time></trkpt><trkpt lat="43.30798208956043" lon="10.681651174035053"><ele>47.0</ele><time>2026-04-18T14:26:39.001Z</time></trkpt><trkpt lat="43.30810129694584" lon="10.68146972408891"><ele>45.0</ele><time>2026-04-18T14:26:40.001Z</time></trkpt><trkpt lat="43.308228319741126" lon="10.681293777397414"><ele>43.0</ele><time>2026-04-18T14:26:41.001Z</time></trkpt><trkpt lat="43.30836454725951" lon="10.68112156743264"><ele>43.0</ele><time>2026-04-18T14:26:42.001Z</time></trkpt><trkpt lat="43.30850479202739" lon="10.680949878517954"><ele>43.0</ele><time>2026-04-18T14:26:43.001Z</time></trkpt><trkpt lat="43.30864761610342" lon="10.680780472239352"><ele>43.0</ele><time>2026-04-18T14:26:44.001Z</time></trkpt><trkpt lat="43.30879062785438" lon="10.680612070119665"><ele>42.66666666666667</ele><time>2026-04-18T14:26:45.001Z</time></trkpt><trkpt lat="43.30893477126855" lon="10.680442518829311"><ele>42.333333333333336</ele><time>2026-04-18T14:26:46.001Z</time></trkpt><trkpt lat="43.30907845575701" lon="10.680271397233867"><ele>42.0</ele><time>2026-04-18T14:26:47.001Z</time></trkpt><trkpt lat="43.309222975296386" lon="10.680098550218954"><ele>41.333333333333336</ele><time>2026-04-18T14:26:48.001Z</time></trkpt><trkpt lat="43.30936903501879" lon="10.679926248463715"><ele>40.66666666666667</ele><time>2026-04-18T14:26:49.001Z</time></trkpt><trkpt lat="43.30951461518022" lon="10.679756214545092"><ele>40.0</ele><time>2026-04-18T14:26:50.001Z</time></trkpt><trkpt lat="43.30966187153213" lon="10.679585704013638"><ele>39.66666666666667</ele><time>2026-04-18T14:26:51.001Z</time></trkpt><trkpt lat="43.309809138705106" lon="10.679416434565592"><ele>39.333333333333336</ele><time>2026-04-18T14:26:52.001Z</time></trkpt><trkpt lat="43.30995702164803" lon="10.67924791218234"><ele>39.0</ele><time>2026-04-18T14:26:53.001Z</time></trkpt><trkpt lat="43.31010283956634" lon="10.679073499450011"><ele>39.0</ele><time>2026-04-18T14:26:54.001Z</time></trkpt><trkpt lat="43.3102475521707" lon="10.678897816100683"><ele>39.0</ele><time>2026-04-18T14:26:55.001Z</time></trkpt><trkpt lat="43.31039293663504" lon="10.67872126604975"><ele>39.0</ele><time>2026-04-18T14:26:56.001Z</time></trkpt><trkpt lat="43.31053870890902" lon="10.678545637955214"><ele>39.0</ele><time>2026-04-18T14:26:57.001Z</time></trkpt><trkpt lat="43.31068545882863" lon="10.67837204639871"><ele>39.0</ele><time>2026-04-18T14:26:57.999Z</time></trkpt><trkpt lat="43.31083270173969" lon="10.678199185238498"><ele>39.0</ele><time>2026-04-18T14:26:58.999Z</time></trkpt><trkpt lat="43.31097958177438" lon="10.67802395565776"><ele>39.0</ele><time>2026-04-18T14:26:59.999Z</time></trkpt><trkpt lat="43.31112797932201" lon="10.677848922042516"><ele>39.0</ele><time>2026-04-18T14:27:00.999Z</time></trkpt><trkpt lat="43.31127704376937" lon="10.67767587430828"><ele>39.0</ele><time>2026-04-18T14:27:01.999Z</time></trkpt><trkpt lat="43.311424275316504" lon="10.677499575911556"><ele>38.333333333333336</ele><time>2026-04-18T14:27:02.999Z</time></trkpt><trkpt lat="43.31157307129269" lon="10.677326071095806"><ele>37.66666666666667</ele><time>2026-04-18T14:27:03.999Z</time></trkpt><trkpt lat="43.311722522771674" lon="10.67715434705991"><ele>37.0</ele><time>2026-04-18T14:27:04.999Z</time></trkpt><trkpt lat="43.31186816709393" lon="10.676979523123187"><ele>37.333333333333336</ele><time>2026-04-18T14:27:05.999Z</time></trkpt><trkpt lat="43.312011686505464" lon="10.676806275084036"><ele>37.666666666666664</ele><time>2026-04-18T14:27:06.999Z</time></trkpt><trkpt lat="43.312153943686816" lon="10.676635153184604"><ele>38.0</ele><time>2026-04-18T14:27:07.999Z</time></trkpt><trkpt lat="43.31229411030202" lon="10.676467897475785"><ele>38.0</ele><time>2026-04-18T14:27:08.999Z</time></trkpt><trkpt lat="43.3124313072764" lon="10.676303915704992"><ele>38.0</ele><time>2026-04-18T14:27:09.999Z</time></trkpt><trkpt lat="43.31256758942339" lon="10.676145205627208"><ele>38.0</ele><time>2026-04-18T14:27:10.999Z</time></trkpt><trkpt lat="43.31270227546506" lon="10.675989836520479"><ele>38.33333333333333</ele><time>2026-04-18T14:27:12Z</time></trkpt><trkpt lat="43.31283076385473" lon="10.675834587307472"><ele>38.666666666666664</ele><time>2026-04-18T14:27:13Z</time></trkpt><trkpt lat="43.31296288890264" lon="10.675684012679245"><ele>39.0</ele><time>2026-04-18T14:27:14Z</time></trkpt><trkpt lat="43.313091099964616" lon="10.6755320883034"><ele>39.5</ele><time>2026-04-18T14:27:15Z</time></trkpt><trkpt lat="43.31321892355619" lon="10.675380842065929"><ele>40.0</ele><time>2026-04-18T14:27:16Z</time></trkpt><trkpt lat="43.313471924153" lon="10.675082293390949"><ele>40.333333333333336</ele><time>2026-04-18T14:27:18Z</time></trkpt><trkpt lat="43.31359858559834" lon="10.67493151070568"><ele>40.666666666666664</ele><time>2026-04-18T14:27:19Z</time></trkpt><trkpt lat="43.31372581747521" lon="10.674779897749996"><ele>41.0</ele><time>2026-04-18T14:27:20Z</time></trkpt><trkpt lat="43.31385000095268" lon="10.674624501497238"><ele>40.0</ele><time>2026-04-18T14:27:21Z</time></trkpt><trkpt lat="43.313979494355465" lon="10.67447536425136"><ele>39.0</ele><time>2026-04-18T14:27:22Z</time></trkpt><trkpt lat="43.314108964763484" lon="10.67432880128708"><ele>38.0</ele><time>2026-04-18T14:27:23Z</time></trkpt><trkpt lat="43.314239332648185" lon="10.674181292123679"><ele>38.0</ele><time>2026-04-18T14:27:24Z</time></trkpt><trkpt lat="43.31437127541512" lon="10.674034944867355"><ele>38.0</ele><time>2026-04-18T14:27:25Z</time></trkpt><trkpt lat="43.3145068329919" lon="10.67389158533692"><ele>38.0</ele><time>2026-04-18T14:27:26Z</time></trkpt><trkpt lat="43.314642153212056" lon="10.673748517183103"><ele>39.0</ele><time>2026-04-18T14:27:27Z</time></trkpt><trkpt lat="43.3147809927116" lon="10.673610661168386"><ele>40.0</ele><time>2026-04-18T14:27:28Z</time></trkpt><trkpt lat="43.31492338907935" lon="10.673476397610576"><ele>41.0</ele><time>2026-04-18T14:27:29Z</time></trkpt><trkpt lat="43.315068588019656" lon="10.673344029202024"><ele>41.0</ele><time>2026-04-18T14:27:30Z</time></trkpt><trkpt lat="43.315216715178266" lon="10.673214739414322"><ele>41.0</ele><time>2026-04-18T14:27:31Z</time></trkpt><trkpt lat="43.315365652812986" lon="10.673086276415138"><ele>41.0</ele><time>2026-04-18T14:27:32Z</time></trkpt><trkpt lat="43.315517821459586" lon="10.672955319446967"><ele>41.33333333333333</ele><time>2026-04-18T14:27:33Z</time></trkpt><trkpt lat="43.31567087327274" lon="10.672823655998492"><ele>41.666666666666664</ele><time>2026-04-18T14:27:34Z</time></trkpt><trkpt lat="43.31582545425257" lon="10.672690277171352"><ele>42.0</ele><time>2026-04-18T14:27:35Z</time></trkpt><trkpt lat="43.315978656661954" lon="10.672552401030565"><ele>41.333333333333336</ele><time>2026-04-18T14:27:36Z</time></trkpt><trkpt lat="43.31613337442584" lon="10.672413173523074"><ele>40.66666666666667</ele><time>2026-04-18T14:27:37Z</time></trkpt><trkpt lat="43.316291899965115" lon="10.672272454082727"><ele>40.0</ele><time>2026-04-18T14:27:38Z</time></trkpt><trkpt lat="43.31645320765115" lon="10.672133353532722"><ele>40.0</ele><time>2026-04-18T14:27:39Z</time></trkpt><trkpt lat="43.31661483524194" lon="10.67199285575208"><ele>40.0</ele><time>2026-04-18T14:27:40Z</time></trkpt><trkpt lat="43.31677759444889" lon="10.671850617157055"><ele>40.0</ele><time>2026-04-18T14:27:41Z</time></trkpt><trkpt lat="43.31694278321208" lon="10.67170794514734"><ele>39.66666666666667</ele><time>2026-04-18T14:27:42Z</time></trkpt><trkpt lat="43.31711046570928" lon="10.671566850880488"><ele>39.333333333333336</ele><time>2026-04-18T14:27:43Z</time></trkpt><trkpt lat="43.31727834388824" lon="10.671428158541794"><ele>39.0</ele><time>2026-04-18T14:27:44Z</time></trkpt><trkpt lat="43.31744813927939" lon="10.671294358452812"><ele>38.666666666666664</ele><time>2026-04-18T14:27:45Z</time></trkpt><trkpt lat="43.31761755119431" lon="10.671164651768033"><ele>38.33333333333333</ele><time>2026-04-18T14:27:46Z</time></trkpt><trkpt lat="43.31778802347326" lon="10.671038551371728"><ele>38.0</ele><time>2026-04-18T14:27:47Z</time></trkpt><trkpt lat="43.31795977787893" lon="10.670917762841894"><ele>37.33333333333333</ele><time>2026-04-18T14:27:48Z</time></trkpt><trkpt lat="43.31813654465566" lon="10.67080628314948"><ele>36.666666666666664</ele><time>2026-04-18T14:27:49Z</time></trkpt><trkpt lat="43.318315601608035" lon="10.670706051824897"><ele>36.0</ele><time>2026-04-18T14:27:50Z</time></trkpt><trkpt lat="43.31849839074863" lon="10.670608403951626"><ele>36.0</ele><time>2026-04-18T14:27:51Z</time></trkpt><trkpt lat="43.31868378503856" lon="10.67051617886128"><ele>36.0</ele><time>2026-04-18T14:27:52Z</time></trkpt><trkpt lat="43.31887253561567" lon="10.670431299777459"><ele>36.0</ele><time>2026-04-18T14:27:53.001Z</time></trkpt><trkpt lat="43.3190616384379" lon="10.670350400563706"><ele>36.0</ele><time>2026-04-18T14:27:54.001Z</time></trkpt><trkpt lat="43.319251136314016" lon="10.670278484112123"><ele>36.0</ele><time>2026-04-18T14:27:55.001Z</time></trkpt><trkpt lat="43.31944045898552" lon="10.670212235468632"><ele>36.0</ele><time>2026-04-18T14:27:56.001Z</time></trkpt><trkpt lat="43.319629414166556" lon="10.670149501227977"><ele>36.333333333333336</ele><time>2026-04-18T14:27:57.001Z</time></trkpt><trkpt lat="43.3198188093057" lon="10.67009072313897"><ele>36.66666666666667</ele><time>2026-04-18T14:27:58.001Z</time></trkpt><trkpt lat="43.32000471830749" lon="10.67003889515772"><ele>37.0</ele><time>2026-04-18T14:27:59.001Z</time></trkpt><trkpt lat="43.32019635625694" lon="10.669999650873068"><ele>37.0</ele><time>2026-04-18T14:28:00.001Z</time></trkpt><trkpt lat="43.32038454739526" lon="10.66996529372743"><ele>37.0</ele><time>2026-04-18T14:28:01.001Z</time></trkpt><trkpt lat="43.320575183305365" lon="10.669935339890817"><ele>37.0</ele><time>2026-04-18T14:28:02.001Z</time></trkpt><trkpt lat="43.320768436471916" lon="10.669912831286517"><ele>37.0</ele><time>2026-04-18T14:28:03.001Z</time></trkpt><trkpt lat="43.32095985202686" lon="10.66990244118554"><ele>37.0</ele><time>2026-04-18T14:28:04.001Z</time></trkpt><trkpt lat="43.32115022424813" lon="10.66989550278128"><ele>37.0</ele><time>2026-04-18T14:28:05.001Z</time></trkpt><trkpt lat="43.32134076664319" lon="10.669893826786442"><ele>37.0</ele><time>2026-04-18T14:28:06.001Z</time></trkpt><trkpt lat="43.321532580305316" lon="10.66989165061483"><ele>37.0</ele><time>2026-04-18T14:28:07.001Z</time></trkpt><trkpt lat="43.32172127490709" lon="10.669887306948986"><ele>37.0</ele><time>2026-04-18T14:28:08.001Z</time></trkpt><trkpt lat="43.321908490829365" lon="10.669885244759127"><ele>37.0</ele><time>2026-04-18T14:28:09.001Z</time></trkpt><trkpt lat="43.32209455380991" lon="10.669885736261618"><ele>37.0</ele><time>2026-04-18T14:28:10.001Z</time></trkpt><trkpt lat="43.32227985546344" lon="10.669886985723691"><ele>37.0</ele><time>2026-04-18T14:28:11.001Z</time></trkpt><trkpt lat="43.32246380406874" lon="10.669886326795545"><ele>37.333333333333336</ele><time>2026-04-18T14:28:12.001Z</time></trkpt><trkpt lat="43.32264618419463" lon="10.669882153377346"><ele>37.666666666666664</ele><time>2026-04-18T14:28:13.001Z</time></trkpt><trkpt lat="43.32282626483365" lon="10.669876652285092"><ele>38.0</ele><time>2026-04-18T14:28:14.001Z</time></trkpt><trkpt lat="43.323004581734054" lon="10.669874898169514"><ele>36.666666666666664</ele><time>2026-04-18T14:28:15.001Z</time></trkpt><trkpt lat="43.323183270728244" lon="10.669873511592826"><ele>35.333333333333336</ele><time>2026-04-18T14:28:16.001Z</time></trkpt><trkpt lat="43.323360487119366" lon="10.66987341757156"><ele>34.0</ele><time>2026-04-18T14:28:17.001Z</time></trkpt><trkpt lat="43.32353709091297" lon="10.66987215596748"><ele>34.0</ele><time>2026-04-18T14:28:18.001Z</time></trkpt><trkpt lat="43.323712763151015" lon="10.669871340536442"><ele>34.0</ele><time>2026-04-18T14:28:19.001Z</time></trkpt><trkpt lat="43.3238829150035" lon="10.669864928087845"><ele>34.0</ele><time>2026-04-18T14:28:20.001Z</time></trkpt><trkpt lat="43.32405429985781" lon="10.669861142556268"><ele>34.66666666666667</ele><time>2026-04-18T14:28:21.001Z</time></trkpt><trkpt lat="43.32422779392631" lon="10.669862998856752"><ele>35.333333333333336</ele><time>2026-04-18T14:28:22.001Z</time></trkpt><trkpt lat="43.324404342418724" lon="10.669871037347127"><ele>36.0</ele><time>2026-04-18T14:28:23.001Z</time></trkpt><trkpt lat="43.32458273752002" lon="10.669886322479993"><ele>36.0</ele><time>2026-04-18T14:28:24.001Z</time></trkpt><trkpt lat="43.32476231099165" lon="10.669911419248946"><ele>36.0</ele><time>2026-04-18T14:28:25.001Z</time></trkpt><trkpt lat="43.32494293811428" lon="10.669948307879636"><ele>36.0</ele><time>2026-04-18T14:28:26.001Z</time></trkpt><trkpt lat="43.32512761169699" lon="10.669986179977306"><ele>36.0</ele><time>2026-04-18T14:28:27.001Z</time></trkpt><trkpt lat="43.325311850816995" lon="10.6700229630492"><ele>36.0</ele><time>2026-04-18T14:28:28.001Z</time></trkpt><trkpt lat="43.32549781841504" lon="10.67006062748666"><ele>36.0</ele><time>2026-04-18T14:28:29.001Z</time></trkpt><trkpt lat="43.32568394989679" lon="10.670097607652393"><ele>36.0</ele><time>2026-04-18T14:28:30.001Z</time></trkpt><trkpt lat="43.325869293712444" lon="10.670135038480359"><ele>36.0</ele><time>2026-04-18T14:28:31.001Z</time></trkpt><trkpt lat="43.326054036260146" lon="10.67017367103325"><ele>36.0</ele><time>2026-04-18T14:28:32.001Z</time></trkpt><trkpt lat="43.326238667464644" lon="10.670213290571205"><ele>35.666666666666664</ele><time>2026-04-18T14:28:33.001Z</time></trkpt><trkpt lat="43.32642502258788" lon="10.670250488335995"><ele>35.33333333333333</ele><time>2026-04-18T14:28:34.001Z</time></trkpt><trkpt lat="43.32660749666621" lon="10.670285609932344"><ele>35.0</ele><time>2026-04-18T14:28:35.001Z</time></trkpt><trkpt lat="43.326786269975514" lon="10.670319506659007"><ele>35.666666666666664</ele><time>2026-04-18T14:28:36.001Z</time></trkpt><trkpt lat="43.326967512902826" lon="10.670354039987929"><ele>36.333333333333336</ele><time>2026-04-18T14:28:37.001Z</time></trkpt><trkpt lat="43.327147711975776" lon="10.670387849667257"><ele>37.0</ele><time>2026-04-18T14:28:38.001Z</time></trkpt><trkpt lat="43.327325707294825" lon="10.670423285769397"><ele>37.0</ele><time>2026-04-18T14:28:39.001Z</time></trkpt><trkpt lat="43.32749723589414" lon="10.670454874401813"><ele>37.0</ele><time>2026-04-18T14:28:40.001Z</time></trkpt><trkpt lat="43.327655615900035" lon="10.670484757172387"><ele>37.0</ele><time>2026-04-18T14:28:41.001Z</time></trkpt><trkpt lat="43.32780312685929" lon="10.670515394647433"><ele>37.0</ele><time>2026-04-18T14:28:42.001Z</time></trkpt><trkpt lat="43.32794105990384" lon="10.670544472780994"><ele>37.0</ele><time>2026-04-18T14:28:43.001Z</time></trkpt><trkpt lat="43.32807990661455" lon="10.670568846787665"><ele>37.0</ele><time>2026-04-18T14:28:44.001Z</time></trkpt><trkpt lat="43.32821466976922" lon="10.670592995840522"><ele>37.0</ele><time>2026-04-18T14:28:45.001Z</time></trkpt><trkpt lat="43.32834816981671" lon="10.67061772926091"><ele>36.800000000000004</ele><time>2026-04-18T14:28:46.001Z</time></trkpt><trkpt lat="43.32846037760267" lon="10.670640615710047"><ele>36.6</ele><time>2026-04-18T14:28:47.002Z</time></trkpt><trkpt lat="43.32856321282252" lon="10.67064500717941"><ele>36.400000000000006</ele><time>2026-04-18T14:28:48.002Z</time></trkpt><trkpt lat="43.32867093530583" lon="10.670630164973351"><ele>36.2</ele><time>2026-04-18T14:28:49.002Z</time></trkpt><trkpt lat="43.32876051287636" lon="10.670595956706466"><ele>36.0</ele><time>2026-04-18T14:28:50.002Z</time></trkpt><trkpt lat="43.32883828164802" lon="10.670557847768368"><ele>36.166666666666664</ele><time>2026-04-18T14:28:51.002Z</time></trkpt><trkpt lat="43.32891840112678" lon="10.670529422711882"><ele>36.333333333333336</ele><time>2026-04-18T14:28:52.002Z</time></trkpt><trkpt lat="43.32900027503865" lon="10.67053426114417"><ele>36.5</ele><time>2026-04-18T14:28:53.002Z</time></trkpt><trkpt lat="43.329081387698366" lon="10.670566052860774"><ele>36.66666666666667</ele><time>2026-04-18T14:28:54.002Z</time></trkpt><trkpt lat="43.32915832245396" lon="10.670603254928238"><ele>36.833333333333336</ele><time>2026-04-18T14:28:55.002Z</time></trkpt><trkpt lat="43.32923635631532" lon="10.670599228439388"><ele>37.0</ele><time>2026-04-18T14:28:56.002Z</time></trkpt><trkpt lat="43.329309849037585" lon="10.67055241482158"><ele>37.0</ele><time>2026-04-18T14:28:57.002Z</time></trkpt><trkpt lat="43.329355562480885" lon="10.670469651985904"><ele>37.0</ele><time>2026-04-18T14:28:58.002Z</time></trkpt><trkpt lat="43.32936391851933" lon="10.670361736437998"><ele>37.0</ele><time>2026-04-18T14:28:59.002Z</time></trkpt><trkpt lat="43.3293453243636" lon="10.670256197655887"><ele>37.0</ele><time>2026-04-18T14:29:00.002Z</time></trkpt><trkpt lat="43.32930324482905" lon="10.670160612314087"><ele>37.0</ele><time>2026-04-18T14:29:01.002Z</time></trkpt><trkpt lat="43.32924648571651" lon="10.670062005456609"><ele>37.0</ele><time>2026-04-18T14:29:02.002Z</time></trkpt><trkpt lat="43.32919995916756" lon="10.669949713509226"><ele>36.6</ele><time>2026-04-18T14:29:03.002Z</time></trkpt><trkpt lat="43.32917138285046" lon="10.669813312381901"><ele>36.2</ele><time>2026-04-18T14:29:03.998Z</time></trkpt><trkpt lat="43.32914706958429" lon="10.669666301055077"><ele>35.8</ele><time>2026-04-18T14:29:04.998Z</time></trkpt><trkpt lat="43.32912161770919" lon="10.669510408667934"><ele>35.4</ele><time>2026-04-18T14:29:05.998Z</time></trkpt><trkpt lat="43.32909122574706" lon="10.669351866074669"><ele>35.0</ele><time>2026-04-18T14:29:06.998Z</time></trkpt><trkpt lat="43.32906917787411" lon="10.66918077580104"><ele>34.75</ele><time>2026-04-18T14:29:07.998Z</time></trkpt><trkpt lat="43.329046988917" lon="10.669008488591205"><ele>34.5</ele><time>2026-04-18T14:29:08.998Z</time></trkpt><trkpt lat="43.329021213191" lon="10.668832650270613"><ele>34.25</ele><time>2026-04-18T14:29:09.998Z</time></trkpt><trkpt lat="43.32899576507888" lon="10.668668089417563"><ele>34.0</ele><time>2026-04-18T14:29:10.999Z</time></trkpt><trkpt lat="43.32897179718244" lon="10.668504876196039"><ele>34.5</ele><time>2026-04-18T14:29:11.999Z</time></trkpt><trkpt lat="43.32894653138877" lon="10.668338150509834"><ele>35.0</ele><time>2026-04-18T14:29:12.999Z</time></trkpt><trkpt lat="43.32892255644688" lon="10.66817296970913"><ele>35.5</ele><time>2026-04-18T14:29:13.999Z</time></trkpt><trkpt lat="43.328895910733706" lon="10.668005299683655"><ele>36.0</ele><time>2026-04-18T14:29:14.999Z</time></trkpt><trkpt lat="43.32887039925067" lon="10.667840905978503"><ele>36.2</ele><time>2026-04-18T14:29:15.999Z</time></trkpt><trkpt lat="43.328847093225605" lon="10.6676811273495"><ele>36.400000000000006</ele><time>2026-04-18T14:29:16.999Z</time></trkpt><trkpt lat="43.32882245076776" lon="10.667525773506876"><ele>36.6</ele><time>2026-04-18T14:29:17.999Z</time></trkpt><trkpt lat="43.32879842322841" lon="10.667378064685678"><ele>36.800000000000004</ele><time>2026-04-18T14:29:18.999Z</time></trkpt><trkpt lat="43.32877489142666" lon="10.667238810228937"><ele>37.0</ele><time>2026-04-18T14:29:19.999Z</time></trkpt><trkpt lat="43.32875262160071" lon="10.667132102700483"><ele>37.0</ele><time>2026-04-18T14:29:20.999Z</time></trkpt><trkpt lat="43.32868722235939" lon="10.667019570697422"><ele>37.0</ele><time>2026-04-18T14:29:22.999Z</time></trkpt><trkpt lat="43.32862006589473" lon="10.666971068239555"><ele>37.0</ele><time>2026-04-18T14:29:24.999Z</time></trkpt><trkpt lat="43.32861000428207" lon="10.666878885778155"><ele>37.0</ele><time>2026-04-18T14:29:26.999Z</time></trkpt><trkpt lat="43.3285978087672" lon="10.666782249876677"><ele>37.0</ele><time>2026-04-18T14:29:29.999Z</time></trkpt><trkpt lat="43.328579945339655" lon="10.666677331001418"><ele>37.0</ele><time>2026-04-18T14:32:24.001Z</time></trkpt><trkpt lat="43.32858835576624" lon="10.666580588915698"><ele>37.0</ele><time>2026-04-18T14:32:26.001Z</time></trkpt><trkpt lat="43.32862007561155" lon="10.666497155232323"><ele>37.0</ele><time>2026-04-18T14:32:31.001Z</time></trkpt><trkpt lat="43.32863928457755" lon="10.666394314914125"><ele>37.0</ele><time>2026-04-18T14:32:33.001Z</time></trkpt><trkpt lat="43.32862467488623" lon="10.666221240279853"><ele>37.0</ele><time>2026-04-18T14:32:35.002Z</time></trkpt><trkpt lat="43.3286061551529" lon="10.666114755426008"><ele>37.0</ele><time>2026-04-18T14:32:36.002Z</time></trkpt><trkpt lat="43.328590387343006" lon="10.665993797255114"><ele>37.0</ele><time>2026-04-18T14:32:37.002Z</time></trkpt><trkpt lat="43.328574215939675" lon="10.665861399004855"><ele>37.25</ele><time>2026-04-18T14:32:38.002Z</time></trkpt><trkpt lat="43.3285617912568" lon="10.665705614469081"><ele>37.5</ele><time>2026-04-18T14:32:39.002Z</time></trkpt><trkpt lat="43.328548596692436" lon="10.665543490280388"><ele>37.75</ele><time>2026-04-18T14:32:40.002Z</time></trkpt><trkpt lat="43.328534434629766" lon="10.665374701227142"><ele>38.0</ele><time>2026-04-18T14:32:41.002Z</time></trkpt><trkpt lat="43.328522520815596" lon="10.665192775146938"><ele>38.0</ele><time>2026-04-18T14:32:42.002Z</time></trkpt><trkpt lat="43.328511057417536" lon="10.665004800002066"><ele>38.0</ele><time>2026-04-18T14:32:43.002Z</time></trkpt><trkpt lat="43.32850064993097" lon="10.664808675059275"><ele>38.0</ele><time>2026-04-18T14:32:44.002Z</time></trkpt><trkpt lat="43.328489487350346" lon="10.664605798599492"><ele>38.0</ele><time>2026-04-18T14:32:45.002Z</time></trkpt><trkpt lat="43.3284790088006" lon="10.664396684062147"><ele>37.0</ele><time>2026-04-18T14:32:46.002Z</time></trkpt><trkpt lat="43.328474297343064" lon="10.664184283541646"><ele>36.0</ele><time>2026-04-18T14:32:47.002Z</time></trkpt><trkpt lat="43.32848597225857" lon="10.663973264137123"><ele>35.0</ele><time>2026-04-18T14:32:48.002Z</time></trkpt><trkpt lat="43.32851264843403" lon="10.663767442895264"><ele>35.0</ele><time>2026-04-18T14:32:49.002Z</time></trkpt><trkpt lat="43.328558206994764" lon="10.663564505882817"><ele>35.0</ele><time>2026-04-18T14:32:50.002Z</time></trkpt><trkpt lat="43.328617521371875" lon="10.6633662341212"><ele>35.0</ele><time>2026-04-18T14:32:51.002Z</time></trkpt><trkpt lat="43.328694224502065" lon="10.663177719003999"><ele>35.0</ele><time>2026-04-18T14:32:52.002Z</time></trkpt><trkpt lat="43.328786951865986" lon="10.663000304994418"><ele>35.0</ele><time>2026-04-18T14:32:53.002Z</time></trkpt><trkpt lat="43.32889689077828" lon="10.662839488053358"><ele>35.0</ele><time>2026-04-18T14:32:54.002Z</time></trkpt><trkpt lat="43.32902090182433" lon="10.662696743864315"><ele>35.0</ele><time>2026-04-18T14:32:55.002Z</time></trkpt><trkpt lat="43.32915957624532" lon="10.662575973685163"><ele>35.0</ele><time>2026-04-18T14:32:56.002Z</time></trkpt><trkpt lat="43.32930761864144" lon="10.662473910041028"><ele>35.0</ele><time>2026-04-18T14:32:57.002Z</time></trkpt><trkpt lat="43.32946407437981" lon="10.662387875108712"><ele>35.0</ele><time>2026-04-18T14:32:58.002Z</time></trkpt><trkpt lat="43.3296231183157" lon="10.662308070902464"><ele>35.0</ele><time>2026-04-18T14:32:59.002Z</time></trkpt><trkpt lat="43.32978623752509" lon="10.66223142014973"><ele>35.0</ele><time>2026-04-18T14:33:00.002Z</time></trkpt><trkpt lat="43.32995081071206" lon="10.662155949782415"><ele>35.33333333333333</ele><time>2026-04-18T14:33:01.002Z</time></trkpt><trkpt lat="43.33011812478741" lon="10.66207719430768"><ele>35.666666666666664</ele><time>2026-04-18T14:33:02.002Z</time></trkpt><trkpt lat="43.330288024989315" lon="10.661995189559951"><ele>36.0</ele><time>2026-04-18T14:33:03.002Z</time></trkpt><trkpt lat="43.3304610897435" lon="10.661910235472519"><ele>37.333333333333336</ele><time>2026-04-18T14:33:04.002Z</time></trkpt><trkpt lat="43.3306309931541" lon="10.661814183155085"><ele>38.66666666666667</ele><time>2026-04-18T14:33:05.002Z</time></trkpt><trkpt lat="43.330798766250815" lon="10.661705597549918"><ele>40.0</ele><time>2026-04-18T14:33:06.002Z</time></trkpt><trkpt lat="43.330965500084304" lon="10.661590155876421"><ele>40.0</ele><time>2026-04-18T14:33:07.002Z</time></trkpt><trkpt lat="43.331127643418455" lon="10.661461748446014"><ele>40.0</ele><time>2026-04-18T14:33:08.002Z</time></trkpt><trkpt lat="43.33128632899337" lon="10.661325666094505"><ele>40.0</ele><time>2026-04-18T14:33:09.002Z</time></trkpt><trkpt lat="43.33144143909327" lon="10.661183407022808"><ele>38.66666666666667</ele><time>2026-04-18T14:33:10.002Z</time></trkpt><trkpt lat="43.331592461871395" lon="10.661034089650375"><ele>37.333333333333336</ele><time>2026-04-18T14:33:11.002Z</time></trkpt><trkpt lat="43.3317386325604" lon="10.660875937694065"><ele>36.0</ele><time>2026-04-18T14:33:12.002Z</time></trkpt><trkpt lat="43.33187895013602" lon="10.660709906202362"><ele>36.0</ele><time>2026-04-18T14:33:13.002Z</time></trkpt><trkpt lat="43.33201216275079" lon="10.660535038820946"><ele>36.0</ele><time>2026-04-18T14:33:14.002Z</time></trkpt><trkpt lat="43.332141150280016" lon="10.660354533886615"><ele>36.0</ele><time>2026-04-18T14:33:15.002Z</time></trkpt><trkpt lat="43.33226141129898" lon="10.660165197635653"><ele>37.0</ele><time>2026-04-18T14:33:16.002Z</time></trkpt><trkpt lat="43.332376949493565" lon="10.659970355600313"><ele>38.0</ele><time>2026-04-18T14:33:17.002Z</time></trkpt><trkpt lat="43.33249125877488" lon="10.659774842511714"><ele>39.0</ele><time>2026-04-18T14:33:18.002Z</time></trkpt><trkpt lat="43.332601889018704" lon="10.659575796430852"><ele>37.666666666666664</ele><time>2026-04-18T14:33:19.001Z</time></trkpt><trkpt lat="43.33271364277764" lon="10.659377984753082"><ele>36.33333333333333</ele><time>2026-04-18T14:33:20.001Z</time></trkpt><trkpt lat="43.332824631650105" lon="10.659178184395346"><ele>35.0</ele><time>2026-04-18T14:33:21.001Z</time></trkpt><trkpt lat="43.332934456163514" lon="10.6589778933332"><ele>35.0</ele><time>2026-04-18T14:33:22.001Z</time></trkpt><trkpt lat="43.33304441283644" lon="10.658776706754205"><ele>35.0</ele><time>2026-04-18T14:33:23.001Z</time></trkpt><trkpt lat="43.33315509336771" lon="10.658573875130992"><ele>35.0</ele><time>2026-04-18T14:33:24.001Z</time></trkpt><trkpt lat="43.33326657766766" lon="10.658372712426553"><ele>34.0</ele><time>2026-04-18T14:33:25.001Z</time></trkpt><trkpt lat="43.33337887688444" lon="10.658169143671248"><ele>33.0</ele><time>2026-04-18T14:33:26.001Z</time></trkpt><trkpt lat="43.33349242248589" lon="10.657961878618702"><ele>32.0</ele><time>2026-04-18T14:33:27.001Z</time></trkpt><trkpt lat="43.33360653059152" lon="10.657751858500365"><ele>32.0</ele><time>2026-04-18T14:33:28.001Z</time></trkpt><trkpt lat="43.33372095041244" lon="10.657539036346094"><ele>32.0</ele><time>2026-04-18T14:33:29.001Z</time></trkpt><trkpt lat="43.333837757606325" lon="10.657325595908185"><ele>32.0</ele><time>2026-04-18T14:33:30.001Z</time></trkpt><trkpt lat="43.333956392664184" lon="10.657111451384255"><ele>32.33333333333333</ele><time>2026-04-18T14:33:31.001Z</time></trkpt><trkpt lat="43.33407453571261" lon="10.656895352002024"><ele>32.666666666666664</ele><time>2026-04-18T14:33:32.001Z</time></trkpt><trkpt lat="43.33419276189367" lon="10.656680307139093"><ele>33.0</ele><time>2026-04-18T14:33:33.001Z</time></trkpt><trkpt lat="43.33431164930829" lon="10.656464960331235"><ele>33.0</ele><time>2026-04-18T14:33:34.001Z</time></trkpt><trkpt lat="43.33443095906692" lon="10.656248377456324"><ele>33.0</ele><time>2026-04-18T14:33:35.001Z</time></trkpt><trkpt lat="43.33455004756521" lon="10.656029932719887"><ele>33.0</ele><time>2026-04-18T14:33:36.001Z</time></trkpt><trkpt lat="43.33466997131433" lon="10.655810344951021"><ele>33.0</ele><time>2026-04-18T14:33:37.001Z</time></trkpt><trkpt lat="43.33479171373027" lon="10.655585951935317"><ele>33.0</ele><time>2026-04-18T14:33:38.001Z</time></trkpt><trkpt lat="43.33491391821198" lon="10.65535756855671"><ele>33.0</ele><time>2026-04-18T14:33:39.001Z</time></trkpt><trkpt lat="43.33503588079348" lon="10.655128595867447"><ele>33.0</ele><time>2026-04-18T14:33:40.001Z</time></trkpt><trkpt lat="43.33515834192127" lon="10.65490110361412"><ele>33.0</ele><time>2026-04-18T14:33:41.001Z</time></trkpt><trkpt lat="43.33528046315522" lon="10.654674607936736"><ele>33.0</ele><time>2026-04-18T14:33:42.001Z</time></trkpt><trkpt lat="43.335400893098885" lon="10.654451987659908"><ele>32.0</ele><time>2026-04-18T14:33:43.001Z</time></trkpt><trkpt lat="43.33552149355723" lon="10.654236385208412"><ele>31.0</ele><time>2026-04-18T14:33:44.001Z</time></trkpt><trkpt lat="43.33564050231984" lon="10.654027652675342"><ele>30.0</ele><time>2026-04-18T14:33:45.001Z</time></trkpt><trkpt lat="43.33575458953166" lon="10.653830254482816"><ele>31.0</ele><time>2026-04-18T14:33:46.001Z</time></trkpt><trkpt lat="43.33586377342308" lon="10.65364659854419"><ele>32.0</ele><time>2026-04-18T14:33:47.001Z</time></trkpt><trkpt lat="43.33596595091536" lon="10.65347680933546"><ele>33.0</ele><time>2026-04-18T14:33:48.001Z</time></trkpt><trkpt lat="43.336058329766644" lon="10.653329792247238"><ele>33.0</ele><time>2026-04-18T14:33:49.001Z</time></trkpt><trkpt lat="43.33614216840429" lon="10.653203548779398"><ele>33.0</ele><time>2026-04-18T14:33:50.001Z</time></trkpt><trkpt lat="43.336217302093125" lon="10.653100409541285"><ele>33.0</ele><time>2026-04-18T14:33:51.001Z</time></trkpt><trkpt lat="43.336291159594985" lon="10.65302533774242"><ele>33.0</ele><time>2026-04-18T14:33:52.001Z</time></trkpt><trkpt lat="43.33637340809156" lon="10.65299045771358"><ele>33.0</ele><time>2026-04-18T14:33:53.001Z</time></trkpt><trkpt lat="43.33645383190143" lon="10.652966746402662"><ele>33.0</ele><time>2026-04-18T14:33:54.001Z</time></trkpt><trkpt lat="43.336520705065624" lon="10.652922257166466"><ele>33.0</ele><time>2026-04-18T14:33:55.001Z</time></trkpt><trkpt lat="43.336569749332966" lon="10.652847158403729"><ele>33.0</ele><time>2026-04-18T14:33:56.001Z</time></trkpt><trkpt lat="43.336617835981656" lon="10.65264721277251"><ele>33.0</ele><time>2026-04-18T14:33:58.001Z</time></trkpt><trkpt lat="43.336607432760964" lon="10.652534438160393"><ele>33.0</ele><time>2026-04-18T14:33:59.001Z</time></trkpt><trkpt lat="43.33667285289329" lon="10.652413380378068"><ele>33.0</ele><time>2026-04-18T14:34:00.001Z</time></trkpt><trkpt lat="43.3367312888957" lon="10.652301522696105"><ele>33.0</ele><time>2026-04-18T14:34:01.001Z</time></trkpt><trkpt lat="43.336800626767264" lon="10.652191039855932"><ele>33.0</ele><time>2026-04-18T14:34:02.001Z</time></trkpt><trkpt lat="43.336876839834325" lon="10.652076415509791"><ele>33.0</ele><time>2026-04-18T14:34:03.001Z</time></trkpt><trkpt lat="43.336961734305866" lon="10.6519562266063"><ele>33.0</ele><time>2026-04-18T14:34:04.001Z</time></trkpt><trkpt lat="43.33705086268056" lon="10.651829136592768"><ele>32.75</ele><time>2026-04-18T14:34:05.001Z</time></trkpt><trkpt lat="43.33714395326012" lon="10.651695303536597"><ele>32.5</ele><time>2026-04-18T14:34:06.001Z</time></trkpt><trkpt lat="43.33724034980043" lon="10.651554780120891"><ele>32.25</ele><time>2026-04-18T14:34:07.001Z</time></trkpt><trkpt lat="43.337341310195434" lon="10.65140937317892"><ele>32.0</ele><time>2026-04-18T14:34:08.001Z</time></trkpt><trkpt lat="43.337443303660095" lon="10.65125811925431"><ele>31.666666666666664</ele><time>2026-04-18T14:34:09.002Z</time></trkpt><trkpt lat="43.33754934714005" lon="10.651102895425772"><ele>31.333333333333336</ele><time>2026-04-18T14:34:10.002Z</time></trkpt><trkpt lat="43.337658839765844" lon="10.650944419901696"><ele>31.0</ele><time>2026-04-18T14:34:11.002Z</time></trkpt><trkpt lat="43.33776998951514" lon="10.650783070669881"><ele>31.0</ele><time>2026-04-18T14:34:12.002Z</time></trkpt><trkpt lat="43.337887650568724" lon="10.650640611196577"><ele>31.0</ele><time>2026-04-18T14:34:13.002Z</time></trkpt><trkpt lat="43.33799542598583" lon="10.650450016328824"><ele>31.0</ele><time>2026-04-18T14:34:14.002Z</time></trkpt><trkpt lat="43.338105189869204" lon="10.65028039588806"><ele>31.333333333333336</ele><time>2026-04-18T14:34:15.002Z</time></trkpt><trkpt lat="43.338216833458105" lon="10.650097701080472"><ele>31.666666666666664</ele><time>2026-04-18T14:34:16.002Z</time></trkpt><trkpt lat="43.338316304682905" lon="10.649913050262018"><ele>32.0</ele><time>2026-04-18T14:34:17.002Z</time></trkpt><trkpt lat="43.33841783996676" lon="10.649720924055005"><ele>32.0</ele><time>2026-04-18T14:34:18.002Z</time></trkpt><trkpt lat="43.33850965950473" lon="10.649516230091917"><ele>32.0</ele><time>2026-04-18T14:34:19.002Z</time></trkpt><trkpt lat="43.338599015057085" lon="10.649307554756954"><ele>32.0</ele><time>2026-04-18T14:34:20.002Z</time></trkpt><trkpt lat="43.33868277741371" lon="10.649099293240633"><ele>32.0</ele><time>2026-04-18T14:34:21.002Z</time></trkpt><trkpt lat="43.33876340460716" lon="10.648875945027019"><ele>32.0</ele><time>2026-04-18T14:34:22.002Z</time></trkpt><trkpt lat="43.3388387494493" lon="10.648644826999414"><ele>32.0</ele><time>2026-04-18T14:34:23.002Z</time></trkpt><trkpt lat="43.33890739401825" lon="10.648408342460433"><ele>32.0</ele><time>2026-04-18T14:34:24.002Z</time></trkpt><trkpt lat="43.33896876816764" lon="10.648162742463684"><ele>32.0</ele><time>2026-04-18T14:34:25.002Z</time></trkpt><trkpt lat="43.33903075396569" lon="10.647915288873346"><ele>32.0</ele><time>2026-04-18T14:34:26.002Z</time></trkpt><trkpt lat="43.339089810163884" lon="10.647664631235886"><ele>32.0</ele><time>2026-04-18T14:34:27.002Z</time></trkpt><trkpt lat="43.33915390179083" lon="10.647411807863783"><ele>32.0</ele><time>2026-04-18T14:34:28.002Z</time></trkpt><trkpt lat="43.339215920498425" lon="10.647157617304272"><ele>32.0</ele><time>2026-04-18T14:34:29.002Z</time></trkpt><trkpt lat="43.33927814863616" lon="10.64689698685112"><ele>32.0</ele><time>2026-04-18T14:34:30.002Z</time></trkpt><trkpt lat="43.33934174702124" lon="10.646632178550917"><ele>32.0</ele><time>2026-04-18T14:34:31.002Z</time></trkpt><trkpt lat="43.33940082210913" lon="10.646366693926723"><ele>32.0</ele><time>2026-04-18T14:34:32.002Z</time></trkpt><trkpt lat="43.33946239770715" lon="10.646105658038028"><ele>31.666666666666664</ele><time>2026-04-18T14:34:33.002Z</time></trkpt><trkpt lat="43.33952364156292" lon="10.64585180905131"><ele>31.333333333333336</ele><time>2026-04-18T14:34:34.002Z</time></trkpt><trkpt lat="43.3395818432737" lon="10.64560281322994"><ele>31.0</ele><time>2026-04-18T14:34:35.002Z</time></trkpt><trkpt lat="43.33963979510004" lon="10.645359534806195"><ele>31.0</ele><time>2026-04-18T14:34:36.002Z</time></trkpt><trkpt lat="43.339700113506645" lon="10.64511618862746"><ele>31.0</ele><time>2026-04-18T14:34:37.002Z</time></trkpt><trkpt lat="43.339761318732194" lon="10.644874403930254"><ele>31.0</ele><time>2026-04-18T14:34:38.002Z</time></trkpt><trkpt lat="43.33982305284267" lon="10.644629780240365"><ele>31.333333333333336</ele><time>2026-04-18T14:34:39.002Z</time></trkpt><trkpt lat="43.3398877251222" lon="10.644386992742486"><ele>31.666666666666664</ele><time>2026-04-18T14:34:40.002Z</time></trkpt><trkpt lat="43.33995931953412" lon="10.644144090905924"><ele>32.0</ele><time>2026-04-18T14:34:41.002Z</time></trkpt><trkpt lat="43.34003335948824" lon="10.643904085519432"><ele>32.0</ele><time>2026-04-18T14:34:42.002Z</time></trkpt><trkpt lat="43.340116861492255" lon="10.643670374900145"><ele>32.0</ele><time>2026-04-18T14:34:43.002Z</time></trkpt><trkpt lat="43.34021240201401" lon="10.643449865350284"><ele>32.0</ele><time>2026-04-18T14:34:44.002Z</time></trkpt><trkpt lat="43.34032005095774" lon="10.6432407092816"><ele>31.666666666666664</ele><time>2026-04-18T14:34:45.002Z</time></trkpt><trkpt lat="43.3404422994957" lon="10.643045708453851"><ele>31.333333333333336</ele><time>2026-04-18T14:34:46.002Z</time></trkpt><trkpt lat="43.34057468493851" lon="10.642858349135263"><ele>31.0</ele><time>2026-04-18T14:34:47.002Z</time></trkpt><trkpt lat="43.340717424908846" lon="10.642682384515336"><ele>30.666666666666668</ele><time>2026-04-18T14:34:48.002Z</time></trkpt><trkpt lat="43.340862169090165" lon="10.642504131720377"><ele>30.333333333333336</ele><time>2026-04-18T14:34:49.002Z</time></trkpt><trkpt lat="43.34100897613558" lon="10.642327844000805"><ele>30.0</ele><time>2026-04-18T14:34:50.002Z</time></trkpt><trkpt lat="43.34115878442897" lon="10.642150203857167"><ele>30.0</ele><time>2026-04-18T14:34:51.002Z</time></trkpt><trkpt lat="43.34130869273676" lon="10.641970441088487"><ele>30.0</ele><time>2026-04-18T14:34:52.002Z</time></trkpt><trkpt lat="43.34145840353262" lon="10.641793777654025"><ele>30.0</ele><time>2026-04-18T14:34:53.002Z</time></trkpt><trkpt lat="43.341608456436674" lon="10.641618262123737"><ele>30.666666666666664</ele><time>2026-04-18T14:34:54.002Z</time></trkpt><trkpt lat="43.341758101718554" lon="10.641438633064432"><ele>31.333333333333332</ele><time>2026-04-18T14:34:55.002Z</time></trkpt><trkpt lat="43.34191152752321" lon="10.64125815610048"><ele>32.0</ele><time>2026-04-18T14:34:56.002Z</time></trkpt><trkpt lat="43.3420651666388" lon="10.641075772483592"><ele>34.33333333333333</ele><time>2026-04-18T14:34:57.002Z</time></trkpt><trkpt lat="43.34221897775262" lon="10.64089207585541"><ele>36.666666666666664</ele><time>2026-04-18T14:34:58.002Z</time></trkpt><trkpt lat="43.34237426350471" lon="10.640709758957247"><ele>39.0</ele><time>2026-04-18T14:34:59.002Z</time></trkpt><trkpt lat="43.342528595271126" lon="10.640524314722352"><ele>39.0</ele><time>2026-04-18T14:35:00.002Z</time></trkpt><trkpt lat="43.34268022731118" lon="10.640338194361203"><ele>39.0</ele><time>2026-04-18T14:35:01.002Z</time></trkpt><trkpt lat="43.34282816522288" lon="10.640150000115348"><ele>39.0</ele><time>2026-04-18T14:35:02.002Z</time></trkpt><trkpt lat="43.34297272544199" lon="10.639959833441486"><ele>41.0</ele><time>2026-04-18T14:35:03.002Z</time></trkpt><trkpt lat="43.34311004366735" lon="10.639761435909026"><ele>43.0</ele><time>2026-04-18T14:35:04.003Z</time></trkpt><trkpt lat="43.34324185284615" lon="10.639564664254229"><ele>45.0</ele><time>2026-04-18T14:35:05.003Z</time></trkpt><trkpt lat="43.34337078802071" lon="10.63936764077465"><ele>41.0</ele><time>2026-04-18T14:35:06.003Z</time></trkpt><trkpt lat="43.343488530880464" lon="10.63917295686684"><ele>37.0</ele><time>2026-04-18T14:35:07.003Z</time></trkpt><trkpt lat="43.3436042336767" lon="10.638975029227167"><ele>33.0</ele><time>2026-04-18T14:35:08.003Z</time></trkpt><trkpt lat="43.34371410469322" lon="10.638768330443794"><ele>31.666666666666664</ele><time>2026-04-18T14:35:09.003Z</time></trkpt><trkpt lat="43.34381782375712" lon="10.638551436423846"><ele>30.333333333333332</ele><time>2026-04-18T14:35:10.003Z</time></trkpt><trkpt lat="43.3439164422821" lon="10.638326086881285"><ele>29.0</ele><time>2026-04-18T14:35:11.003Z</time></trkpt><trkpt lat="43.344016149473106" lon="10.638095033785929"><ele>31.0</ele><time>2026-04-18T14:35:12.003Z</time></trkpt><trkpt lat="43.34411894362779" lon="10.63786439713444"><ele>33.0</ele><time>2026-04-18T14:35:13.003Z</time></trkpt><trkpt lat="43.344313690724604" lon="10.637416529434416"><ele>33.0</ele><time>2026-04-18T14:35:15.003Z</time></trkpt><trkpt lat="43.34440872768404" lon="10.637199556495917"><ele>33.0</ele><time>2026-04-18T14:35:16.003Z</time></trkpt><trkpt lat="43.344499886496905" lon="10.6369944455853"><ele>33.0</ele><time>2026-04-18T14:35:17.003Z</time></trkpt><trkpt lat="43.34458308738117" lon="10.636814778137925"><ele>31.5</ele><time>2026-04-18T14:35:18.003Z</time></trkpt><trkpt lat="43.344671112872454" lon="10.636646537546415"><ele>30.0</ele><time>2026-04-18T14:35:19.003Z</time></trkpt><trkpt lat="43.344755418841594" lon="10.636489193069542"><ele>28.5</ele><time>2026-04-18T14:35:20.003Z</time></trkpt><trkpt lat="43.34484778067418" lon="10.636328597728406"><ele>27.0</ele><time>2026-04-18T14:35:21.003Z</time></trkpt><trkpt lat="43.34493585871468" lon="10.636175759836709"><ele>29.25</ele><time>2026-04-18T14:35:22.001Z</time></trkpt><trkpt lat="43.3450224873332" lon="10.636022359199849"><ele>31.5</ele><time>2026-04-18T14:35:23.001Z</time></trkpt><trkpt lat="43.345111584522485" lon="10.635877952710478"><ele>33.75</ele><time>2026-04-18T14:35:24.001Z</time></trkpt><trkpt lat="43.345195021808664" lon="10.635734023470315"><ele>36.0</ele><time>2026-04-18T14:35:25.001Z</time></trkpt><trkpt lat="43.34527686346925" lon="10.635589948997605"><ele>36.0</ele><time>2026-04-18T14:35:26.001Z</time></trkpt><trkpt lat="43.34535668423854" lon="10.635450500800783"><ele>36.0</ele><time>2026-04-18T14:35:27.001Z</time></trkpt><trkpt lat="43.3454351306734" lon="10.63531295477819"><ele>36.0</ele><time>2026-04-18T14:35:28.001Z</time></trkpt><trkpt lat="43.3455121326551" lon="10.635178695485981"><ele>36.0</ele><time>2026-04-18T14:35:29.001Z</time></trkpt><trkpt lat="43.34559335321107" lon="10.635061035458927"><ele>36.666666666666664</ele><time>2026-04-18T14:35:30.001Z</time></trkpt><trkpt lat="43.345664323943616" lon="10.634934323125247"><ele>37.333333333333336</ele><time>2026-04-18T14:35:31.001Z</time></trkpt><trkpt lat="43.34572626876853" lon="10.634826881159587"><ele>38.0</ele><time>2026-04-18T14:35:32.001Z</time></trkpt><trkpt lat="43.345781643452916" lon="10.6347500955919"><ele>38.66666666666667</ele><time>2026-04-18T14:35:33.001Z</time></trkpt><trkpt lat="43.34582421934546" lon="10.63468204251571"><ele>39.333333333333336</ele><time>2026-04-18T14:35:34.001Z</time></trkpt><trkpt lat="43.34587018760178" lon="10.63460837485098"><ele>40.0</ele><time>2026-04-18T14:35:36.001Z</time></trkpt><trkpt lat="43.34580754725304" lon="10.634673641889739"><ele>40.0</ele><time>2026-04-18T14:35:51.001Z</time></trkpt><trkpt lat="43.34575449519422" lon="10.63476358920563"><ele>40.0</ele><time>2026-04-18T14:36:00.001Z</time></trkpt><trkpt lat="43.3456761939547" lon="10.634897331735644"><ele>40.0</ele><time>2026-04-18T14:36:02.001Z</time></trkpt><trkpt lat="43.34563285336174" lon="10.634971437485431"><ele>40.0</ele><time>2026-04-18T14:36:03.001Z</time></trkpt><trkpt lat="43.34557685352143" lon="10.635067187316228"><ele>40.0</ele><time>2026-04-18T14:36:04.001Z</time></trkpt><trkpt lat="43.34544884281022" lon="10.635234359448734"><ele>39.0</ele><time>2026-04-18T14:36:05.001Z</time></trkpt><trkpt lat="43.345380247324556" lon="10.635351884180611"><ele>38.0</ele><time>2026-04-18T14:36:06.001Z</time></trkpt><trkpt lat="43.345307836496495" lon="10.63547679755623"><ele>37.0</ele><time>2026-04-18T14:36:07.001Z</time></trkpt><trkpt lat="43.3452332901287" lon="10.63561105613056"><ele>36.0</ele><time>2026-04-18T14:36:08.001Z</time></trkpt><trkpt lat="43.345153683181614" lon="10.63574821452742"><ele>36.0</ele><time>2026-04-18T14:36:09.001Z</time></trkpt><trkpt lat="43.34507062137053" lon="10.635890357952908"><ele>36.0</ele><time>2026-04-18T14:36:10.001Z</time></trkpt><trkpt lat="43.34498518628022" lon="10.636037860276689"><ele>36.0</ele><time>2026-04-18T14:36:11.001Z</time></trkpt><trkpt lat="43.34489872051602" lon="10.636191433995576"><ele>36.0</ele><time>2026-04-18T14:36:12.001Z</time></trkpt><trkpt lat="43.34481161059457" lon="10.636349665423756"><ele>35.25</ele><time>2026-04-18T14:36:13.001Z</time></trkpt><trkpt lat="43.344722730922335" lon="10.636512276753415"><ele>34.5</ele><time>2026-04-18T14:36:14.001Z</time></trkpt><trkpt lat="43.3446341356935" lon="10.636677204082446"><ele>33.75</ele><time>2026-04-18T14:36:15.001Z</time></trkpt><trkpt lat="43.34454853360912" lon="10.63684758806672"><ele>33.0</ele><time>2026-04-18T14:36:16.001Z</time></trkpt><trkpt lat="43.34446410663165" lon="10.63702144606459"><ele>33.0</ele><time>2026-04-18T14:36:17.001Z</time></trkpt><trkpt lat="43.34438164593412" lon="10.63720018691162"><ele>33.0</ele><time>2026-04-18T14:36:18.001Z</time></trkpt><trkpt lat="43.34429975947408" lon="10.63738278426899"><ele>33.0</ele><time>2026-04-18T14:36:19.001Z</time></trkpt><trkpt lat="43.34421822593506" lon="10.637571576212393"><ele>33.0</ele><time>2026-04-18T14:36:20.001Z</time></trkpt><trkpt lat="43.344133769751544" lon="10.63776312026453"><ele>33.0</ele><time>2026-04-18T14:36:21.001Z</time></trkpt><trkpt lat="43.344048346684836" lon="10.637958652843613"><ele>33.0</ele><time>2026-04-18T14:36:22.001Z</time></trkpt><trkpt lat="43.34396232065332" lon="10.638155885261579"><ele>33.0</ele><time>2026-04-18T14:36:23.001Z</time></trkpt><trkpt lat="43.34387606315519" lon="10.638353790175493"><ele>33.0</ele><time>2026-04-18T14:36:24.001Z</time></trkpt><trkpt lat="43.34378948959755" lon="10.6385529558106"><ele>33.0</ele><time>2026-04-18T14:36:25.001Z</time></trkpt><trkpt lat="43.343701525518846" lon="10.63874656385714"><ele>33.0</ele><time>2026-04-18T14:36:26.001Z</time></trkpt><trkpt lat="43.34360868239494" lon="10.638932171571653"><ele>33.0</ele><time>2026-04-18T14:36:27.001Z</time></trkpt><trkpt lat="43.343509935460496" lon="10.639111237643538"><ele>33.0</ele><time>2026-04-18T14:36:28.001Z</time></trkpt><trkpt lat="43.343405221088844" lon="10.639283755122683"><ele>33.0</ele><time>2026-04-18T14:36:29.001Z</time></trkpt><trkpt lat="43.34329547962044" lon="10.63945207321111"><ele>33.0</ele><time>2026-04-18T14:36:30.001Z</time></trkpt><trkpt lat="43.34318597920919" lon="10.639615835348367"><ele>33.0</ele><time>2026-04-18T14:36:31.001Z</time></trkpt><trkpt lat="43.34307186570508" lon="10.63978003527197"><ele>33.0</ele><time>2026-04-18T14:36:32.001Z</time></trkpt><trkpt lat="43.34295468635039" lon="10.639940154850368"><ele>33.0</ele><time>2026-04-18T14:36:33.001Z</time></trkpt><trkpt lat="43.34283488121208" lon="10.640098112177828"><ele>33.0</ele><time>2026-04-18T14:36:34.002Z</time></trkpt><trkpt lat="43.342710293358124" lon="10.64025653368935"><ele>35.0</ele><time>2026-04-18T14:36:35.002Z</time></trkpt><trkpt lat="43.34258161179737" lon="10.640413331618698"><ele>37.0</ele><time>2026-04-18T14:36:36.002Z</time></trkpt><trkpt lat="43.34245133094756" lon="10.64057207942864"><ele>39.0</ele><time>2026-04-18T14:36:37.002Z</time></trkpt><trkpt lat="43.34231835463955" lon="10.64073131401705"><ele>37.333333333333336</ele><time>2026-04-18T14:36:38.002Z</time></trkpt><trkpt lat="43.342186401532736" lon="10.6408918512195"><ele>35.66666666666667</ele><time>2026-04-18T14:36:39.002Z</time></trkpt><trkpt lat="43.34205425358993" lon="10.64105061762262"><ele>34.0</ele><time>2026-04-18T14:36:40.002Z</time></trkpt><trkpt lat="43.341922956450624" lon="10.641205834397198"><ele>34.0</ele><time>2026-04-18T14:36:41.002Z</time></trkpt><trkpt lat="43.34179349526793" lon="10.641358720106826"><ele>34.0</ele><time>2026-04-18T14:36:42.002Z</time></trkpt><trkpt lat="43.34166706296755" lon="10.64151006411064"><ele>34.0</ele><time>2026-04-18T14:36:43.002Z</time></trkpt><trkpt lat="43.3415400418584" lon="10.641660796964416"><ele>34.0</ele><time>2026-04-18T14:36:44.002Z</time></trkpt><trkpt lat="43.341414010819115" lon="10.64181277802135"><ele>34.0</ele><time>2026-04-18T14:36:45.002Z</time></trkpt><trkpt lat="43.341288315878785" lon="10.64196454619363"><ele>34.0</ele><time>2026-04-18T14:36:46.002Z</time></trkpt><trkpt lat="43.34116258613423" lon="10.642114686877175"><ele>32.66666666666667</ele><time>2026-04-18T14:36:47.002Z</time></trkpt><trkpt lat="43.34103837674201" lon="10.642264254725957"><ele>31.333333333333336</ele><time>2026-04-18T14:36:48.002Z</time></trkpt><trkpt lat="43.34091612369451" lon="10.6424138885828"><ele>30.0</ele><time>2026-04-18T14:36:49.002Z</time></trkpt><trkpt lat="43.340794695570644" lon="10.642559954917228"><ele>30.0</ele><time>2026-04-18T14:36:50.002Z</time></trkpt><trkpt lat="43.34067756385556" lon="10.642705862089784"><ele>30.0</ele><time>2026-04-18T14:36:51.002Z</time></trkpt><trkpt lat="43.340565932421036" lon="10.642853721230152"><ele>30.0</ele><time>2026-04-18T14:36:52.002Z</time></trkpt><trkpt lat="43.340459628698234" lon="10.643002330697179"><ele>30.25</ele><time>2026-04-18T14:36:53.002Z</time></trkpt><trkpt lat="43.34034869766323" lon="10.64313781930196"><ele>30.5</ele><time>2026-04-18T14:36:54.002Z</time></trkpt><trkpt lat="43.34025897836205" lon="10.643292568034495"><ele>30.75</ele><time>2026-04-18T14:36:55.002Z</time></trkpt><trkpt lat="43.34017663756235" lon="10.643448883104929"><ele>31.0</ele><time>2026-04-18T14:36:56.002Z</time></trkpt><trkpt lat="43.34011996597758" lon="10.643613546549187"><ele>31.200000000000003</ele><time>2026-04-18T14:36:57.002Z</time></trkpt><trkpt lat="43.3400620580047" lon="10.643754566739869"><ele>31.400000000000002</ele><time>2026-04-18T14:36:58.002Z</time></trkpt><trkpt lat="43.34001900579151" lon="10.643878813643372"><ele>31.6</ele><time>2026-04-18T14:36:59.002Z</time></trkpt><trkpt lat="43.339972233548835" lon="10.643971404470614"><ele>31.8</ele><time>2026-04-18T14:37:00.002Z</time></trkpt><trkpt lat="43.33994581376867" lon="10.64405441235258"><ele>32.0</ele><time>2026-04-18T14:37:01.002Z</time></trkpt><trkpt lat="43.34004733677192" lon="10.644192833108015"><ele>32.0</ele><time>2026-04-18T14:37:02.002Z</time></trkpt><trkpt lat="43.34010004308504" lon="10.644295933044225"><ele>32.0</ele><time>2026-04-18T14:37:03.002Z</time></trkpt><trkpt lat="43.34011985808785" lon="10.644429231414776"><ele>32.0</ele><time>2026-04-18T14:37:04.002Z</time></trkpt><trkpt lat="43.340133244686314" lon="10.644571737276582"><ele>32.0</ele><time>2026-04-18T14:37:05.002Z</time></trkpt><trkpt lat="43.3401500218908" lon="10.644711833715176"><ele>32.0</ele><time>2026-04-18T14:37:06.002Z</time></trkpt><trkpt lat="43.34016052831921" lon="10.644799566569876"><ele>31.8</ele><time>2026-04-18T14:37:07.002Z</time></trkpt><trkpt lat="43.34028954525846" lon="10.64484466467611"><ele>31.6</ele><time>2026-04-18T14:37:10.002Z</time></trkpt><trkpt lat="43.34038900380224" lon="10.64487139561429"><ele>31.400000000000002</ele><time>2026-04-18T14:37:12.002Z</time></trkpt><trkpt lat="43.340455448559" lon="10.644910209073613"><ele>31.200000000000003</ele><time>2026-04-18T14:37:13.002Z</time></trkpt><trkpt lat="43.340524134889606" lon="10.644968605271949"><ele>31.0</ele><time>2026-04-18T14:37:14.002Z</time></trkpt><trkpt lat="43.34060299382764" lon="10.645036591194204"><ele>31.4</ele><time>2026-04-18T14:37:15.002Z</time></trkpt><trkpt lat="43.340679935570726" lon="10.64512846675383"><ele>31.8</ele><time>2026-04-18T14:37:16.002Z</time></trkpt><trkpt lat="43.34076958863986" lon="10.645208897653552"><ele>32.199999999999996</ele><time>2026-04-18T14:37:17.002Z</time></trkpt><trkpt lat="43.340857934298505" lon="10.64529277085322"><ele>32.6</ele><time>2026-04-18T14:37:18.002Z</time></trkpt><trkpt lat="43.34094505935059" lon="10.64537947715296"><ele>33.0</ele><time>2026-04-18T14:37:19.002Z</time></trkpt><trkpt lat="43.34103554642716" lon="10.645468876674341"><ele>33.0</ele><time>2026-04-18T14:37:20.002Z</time></trkpt><trkpt lat="43.34112793853405" lon="10.64555613572569"><ele>33.0</ele><time>2026-04-18T14:37:21.002Z</time></trkpt><trkpt lat="43.341223501083164" lon="10.645645919643849"><ele>33.0</ele><time>2026-04-18T14:37:22.002Z</time></trkpt><trkpt lat="43.341320780200164" lon="10.645739985504775"><ele>33.0</ele><time>2026-04-18T14:37:23.002Z</time></trkpt><trkpt lat="43.34141871591446" lon="10.64583958833623"><ele>32.75</ele><time>2026-04-18T14:37:24.002Z</time></trkpt><trkpt lat="43.34151442790743" lon="10.645937602917495"><ele>32.5</ele><time>2026-04-18T14:37:25.002Z</time></trkpt><trkpt lat="43.34160866703853" lon="10.646030410279984"><ele>32.25</ele><time>2026-04-18T14:37:26.002Z</time></trkpt><trkpt lat="43.34170009167967" lon="10.6461181557527"><ele>32.0</ele><time>2026-04-18T14:37:27.002Z</time></trkpt><trkpt lat="43.34179069616637" lon="10.646199649299268"><ele>32.0</ele><time>2026-04-18T14:37:28Z</time></trkpt><trkpt lat="43.34188454113801" lon="10.646269627530426"><ele>32.0</ele><time>2026-04-18T14:37:29Z</time></trkpt><trkpt lat="43.34198751472879" lon="10.646329195059243"><ele>32.0</ele><time>2026-04-18T14:37:30Z</time></trkpt><trkpt lat="43.342095353584924" lon="10.646380734953267"><ele>32.0</ele><time>2026-04-18T14:37:31Z</time></trkpt><trkpt lat="43.34220911182892" lon="10.646425455936463"><ele>33.0</ele><time>2026-04-18T14:37:32Z</time></trkpt><trkpt lat="43.34232404286767" lon="10.6464652658481"><ele>34.0</ele><time>2026-04-18T14:37:33Z</time></trkpt><trkpt lat="43.34243828159973" lon="10.64650228070936"><ele>35.0</ele><time>2026-04-18T14:37:34Z</time></trkpt><trkpt lat="43.3425550230899" lon="10.646542657463009"><ele>36.0</ele><time>2026-04-18T14:37:35Z</time></trkpt><trkpt lat="43.342671652310074" lon="10.646586311055932"><ele>36.0</ele><time>2026-04-18T14:37:36Z</time></trkpt><trkpt lat="43.342790518458955" lon="10.646630802110643"><ele>36.0</ele><time>2026-04-18T14:37:37Z</time></trkpt><trkpt lat="43.342907607968336" lon="10.646668090300127"><ele>36.0</ele><time>2026-04-18T14:37:38Z</time></trkpt><trkpt lat="43.34303273401584" lon="10.646676842808292"><ele>36.0</ele><time>2026-04-18T14:37:39Z</time></trkpt><trkpt lat="43.34315758164579" lon="10.646688325883014"><ele>36.75</ele><time>2026-04-18T14:37:40Z</time></trkpt><trkpt lat="43.3432858677655" lon="10.646692353943907"><ele>37.5</ele><time>2026-04-18T14:37:41Z</time></trkpt><trkpt lat="43.34341411416742" lon="10.646711923704306"><ele>38.25</ele><time>2026-04-18T14:37:42Z</time></trkpt><trkpt lat="43.343541573066915" lon="10.64672003297454"><ele>39.0</ele><time>2026-04-18T14:37:43Z</time></trkpt><trkpt lat="43.34366755365558" lon="10.646722380392466"><ele>39.0</ele><time>2026-04-18T14:37:44Z</time></trkpt><trkpt lat="43.34379421552746" lon="10.646731215399916"><ele>39.0</ele><time>2026-04-18T14:37:45Z</time></trkpt><trkpt lat="43.3439210411824" lon="10.646757810961907"><ele>39.0</ele><time>2026-04-18T14:37:46Z</time></trkpt><trkpt lat="43.34404889928039" lon="10.646794792077563"><ele>39.0</ele><time>2026-04-18T14:37:47Z</time></trkpt><trkpt lat="43.3441765455972" lon="10.646834741110885"><ele>39.0</ele><time>2026-04-18T14:37:48Z</time></trkpt><trkpt lat="43.34430612845425" lon="10.64687126134372"><ele>39.0</ele><time>2026-04-18T14:37:49Z</time></trkpt><trkpt lat="43.34443588110775" lon="10.646903842161722"><ele>39.0</ele><time>2026-04-18T14:37:50Z</time></trkpt><trkpt lat="43.34456638514386" lon="10.646935175703907"><ele>39.0</ele><time>2026-04-18T14:37:51Z</time></trkpt><trkpt lat="43.34469155303672" lon="10.646969209067324"><ele>39.0</ele><time>2026-04-18T14:37:52Z</time></trkpt><trkpt lat="43.34481398631129" lon="10.647005524661951"><ele>39.0</ele><time>2026-04-18T14:37:53.001Z</time></trkpt><trkpt lat="43.344930791937344" lon="10.647042492171384"><ele>39.0</ele><time>2026-04-18T14:37:54.001Z</time></trkpt><trkpt lat="43.34504352904263" lon="10.647078763665995"><ele>39.0</ele><time>2026-04-18T14:37:55.001Z</time></trkpt><trkpt lat="43.34515341648355" lon="10.647119750766075"><ele>39.0</ele><time>2026-04-18T14:37:56.001Z</time></trkpt><trkpt lat="43.345262840193094" lon="10.647169861334737"><ele>39.0</ele><time>2026-04-18T14:37:57.001Z</time></trkpt><trkpt lat="43.345369791920305" lon="10.647216539237546"><ele>39.0</ele><time>2026-04-18T14:37:58.001Z</time></trkpt><trkpt lat="43.34547532279345" lon="10.647252517575659"><ele>39.0</ele><time>2026-04-18T14:37:59.001Z</time></trkpt><trkpt lat="43.345576882477786" lon="10.647279054960292"><ele>39.0</ele><time>2026-04-18T14:38:00.001Z</time></trkpt><trkpt lat="43.345671085856466" lon="10.647306913621984"><ele>39.8</ele><time>2026-04-18T14:38:01.001Z</time></trkpt><trkpt lat="43.345765176785974" lon="10.64733425183222"><ele>40.599999999999994</ele><time>2026-04-18T14:38:02.001Z</time></trkpt><trkpt lat="43.34586667180643" lon="10.647362569975359"><ele>41.4</ele><time>2026-04-18T14:38:03.001Z</time></trkpt><trkpt lat="43.345976158324284" lon="10.64739113770677"><ele>42.199999999999996</ele><time>2026-04-18T14:38:04.001Z</time></trkpt><trkpt lat="43.34608741411372" lon="10.647412966458608"><ele>43.0</ele><time>2026-04-18T14:38:05.001Z</time></trkpt><trkpt lat="43.34620523553775" lon="10.647432507060126"><ele>43.0</ele><time>2026-04-18T14:38:06.001Z</time></trkpt><trkpt lat="43.34631988445838" lon="10.647460975328654"><ele>43.0</ele><time>2026-04-18T14:38:07.001Z</time></trkpt><trkpt lat="43.34643815220264" lon="10.647498080342753"><ele>43.0</ele><time>2026-04-18T14:38:08.001Z</time></trkpt><trkpt lat="43.34655512707201" lon="10.647546429683699"><ele>43.0</ele><time>2026-04-18T14:38:09.001Z</time></trkpt><trkpt lat="43.34667064360549" lon="10.647598505060627"><ele>42.75</ele><time>2026-04-18T14:38:10.001Z</time></trkpt><trkpt lat="43.346787351031885" lon="10.647648164943936"><ele>42.5</ele><time>2026-04-18T14:38:11.001Z</time></trkpt><trkpt lat="43.34690686156219" lon="10.647696557614776"><ele>42.25</ele><time>2026-04-18T14:38:12.001Z</time></trkpt><trkpt lat="43.347028887353126" lon="10.647745408650074"><ele>42.0</ele><time>2026-04-18T14:38:13.001Z</time></trkpt><trkpt lat="43.347154232506654" lon="10.647795370935276"><ele>41.25</ele><time>2026-04-18T14:38:14.001Z</time></trkpt><trkpt lat="43.34728292409181" lon="10.647849581184357"><ele>40.5</ele><time>2026-04-18T14:38:15.001Z</time></trkpt><trkpt lat="43.34741459322579" lon="10.647902157780127"><ele>39.75</ele><time>2026-04-18T14:38:16.001Z</time></trkpt><trkpt lat="43.347548624707905" lon="10.647957770076502"><ele>39.0</ele><time>2026-04-18T14:38:17.001Z</time></trkpt><trkpt lat="43.34768462946945" lon="10.648013604054995"><ele>39.0</ele><time>2026-04-18T14:38:18.001Z</time></trkpt><trkpt lat="43.347821262809966" lon="10.648071127653601"><ele>39.0</ele><time>2026-04-18T14:38:19.001Z</time></trkpt><trkpt lat="43.34795963105846" lon="10.64812903749601"><ele>39.0</ele><time>2026-04-18T14:38:20.001Z</time></trkpt><trkpt lat="43.348097443257785" lon="10.648186697607827"><ele>39.0</ele><time>2026-04-18T14:38:21.001Z</time></trkpt><trkpt lat="43.34823536190721" lon="10.64824562314987"><ele>39.25</ele><time>2026-04-18T14:38:22.001Z</time></trkpt><trkpt lat="43.348372575028826" lon="10.648305629976544"><ele>39.5</ele><time>2026-04-18T14:38:23.001Z</time></trkpt><trkpt lat="43.34851180006007" lon="10.648362445594184"><ele>39.75</ele><time>2026-04-18T14:38:24.001Z</time></trkpt><trkpt lat="43.34865013207115" lon="10.64841939721735"><ele>40.0</ele><time>2026-04-18T14:38:25.001Z</time></trkpt><trkpt lat="43.3487875324548" lon="10.64848033341982"><ele>40.0</ele><time>2026-04-18T14:38:26.001Z</time></trkpt><trkpt lat="43.34892615207149" lon="10.648537164048953"><ele>40.0</ele><time>2026-04-18T14:38:27.001Z</time></trkpt><trkpt lat="43.34906394943824" lon="10.648593701178696"><ele>40.0</ele><time>2026-04-18T14:38:28.001Z</time></trkpt><trkpt lat="43.34920265929176" lon="10.648650118797923"><ele>40.0</ele><time>2026-04-18T14:38:29.001Z</time></trkpt><trkpt lat="43.34934457072494" lon="10.648707860010255"><ele>40.0</ele><time>2026-04-18T14:38:30.001Z</time></trkpt><trkpt lat="43.34948489913663" lon="10.648769902708848"><ele>40.0</ele><time>2026-04-18T14:38:31.001Z</time></trkpt><trkpt lat="43.349618678455485" lon="10.648830573323332"><ele>40.0</ele><time>2026-04-18T14:38:32.001Z</time></trkpt><trkpt lat="43.34974992785908" lon="10.648892499632158"><ele>40.0</ele><time>2026-04-18T14:38:33.001Z</time></trkpt><trkpt lat="43.3498801176823" lon="10.64895697841702"><ele>41.0</ele><time>2026-04-18T14:38:34.001Z</time></trkpt><trkpt lat="43.350015828075385" lon="10.649023021634429"><ele>42.0</ele><time>2026-04-18T14:38:35.001Z</time></trkpt><trkpt lat="43.35015434006806" lon="10.649092531077018"><ele>43.0</ele><time>2026-04-18T14:38:36.001Z</time></trkpt><trkpt lat="43.35029377239787" lon="10.64916344065024"><ele>44.0</ele><time>2026-04-18T14:38:37.001Z</time></trkpt><trkpt lat="43.35043409902737" lon="10.649235436439026"><ele>44.0</ele><time>2026-04-18T14:38:38.001Z</time></trkpt><trkpt lat="43.35057669819943" lon="10.649309693751741"><ele>44.0</ele><time>2026-04-18T14:38:39.001Z</time></trkpt><trkpt lat="43.350719269537976" lon="10.649382107605987"><ele>44.0</ele><time>2026-04-18T14:38:40.001Z</time></trkpt><trkpt lat="43.350861778698864" lon="10.649453345929553"><ele>44.25</ele><time>2026-04-18T14:38:41.001Z</time></trkpt><trkpt lat="43.35100194723011" lon="10.649525666500532"><ele>44.5</ele><time>2026-04-18T14:38:42.001Z</time></trkpt><trkpt lat="43.35114160299664" lon="10.649598545707336"><ele>44.75</ele><time>2026-04-18T14:38:43.001Z</time></trkpt><trkpt lat="43.351279960904186" lon="10.649669179155653"><ele>45.0</ele><time>2026-04-18T14:38:44.001Z</time></trkpt><trkpt lat="43.35141867392478" lon="10.64973965221419"><ele>45.0</ele><time>2026-04-18T14:38:45.001Z</time></trkpt><trkpt lat="43.35155766644434" lon="10.649808018089892"><ele>45.0</ele><time>2026-04-18T14:38:46.001Z</time></trkpt><trkpt lat="43.35169653149837" lon="10.649873489754778"><ele>45.0</ele><time>2026-04-18T14:38:47.001Z</time></trkpt><trkpt lat="43.351834450962485" lon="10.649938468326717"><ele>45.0</ele><time>2026-04-18T14:38:48.001Z</time></trkpt><trkpt lat="43.35197236381876" lon="10.650006593143448"><ele>45.0</ele><time>2026-04-18T14:38:49.001Z</time></trkpt><trkpt lat="43.352107815596604" lon="10.650076642504173"><ele>45.0</ele><time>2026-04-18T14:38:50.001Z</time></trkpt><trkpt lat="43.35224393988063" lon="10.650147100585237"><ele>45.0</ele><time>2026-04-18T14:38:51.001Z</time></trkpt><trkpt lat="43.35238146768983" lon="10.65021718707508"><ele>45.0</ele><time>2026-04-18T14:38:52.001Z</time></trkpt><trkpt lat="43.352521865025416" lon="10.650288480841718"><ele>45.333333333333336</ele><time>2026-04-18T14:38:53.001Z</time></trkpt><trkpt lat="43.35266427291097" lon="10.650359820758768"><ele>45.66666666666667</ele><time>2026-04-18T14:38:54.001Z</time></trkpt><trkpt lat="43.35280601175897" lon="10.650430263325152"><ele>46.0</ele><time>2026-04-18T14:38:55.001Z</time></trkpt><trkpt lat="43.35294644377899" lon="10.650499629549284"><ele>46.5</ele><time>2026-04-18T14:38:56.001Z</time></trkpt><trkpt lat="43.35308307446329" lon="10.650565390208389"><ele>47.0</ele><time>2026-04-18T14:38:57.001Z</time></trkpt><trkpt lat="43.35321527573582" lon="10.650633118407331"><ele>47.5</ele><time>2026-04-18T14:38:58.002Z</time></trkpt><trkpt lat="43.35334321401085" lon="10.650699776524421"><ele>48.0</ele><time>2026-04-18T14:38:59.002Z</time></trkpt><trkpt lat="43.35346850985484" lon="10.650764684771518"><ele>48.0</ele><time>2026-04-18T14:39:00.002Z</time></trkpt><trkpt lat="43.35359054487788" lon="10.650821435327435"><ele>48.0</ele><time>2026-04-18T14:39:01.002Z</time></trkpt><trkpt lat="43.35370946989268" lon="10.6508731656914"><ele>48.0</ele><time>2026-04-18T14:39:02.002Z</time></trkpt><trkpt lat="43.353822363952375" lon="10.65092306461583"><ele>48.0</ele><time>2026-04-18T14:39:03.002Z</time></trkpt><trkpt lat="43.35392307513751" lon="10.650964515010083"><ele>48.8</ele><time>2026-04-18T14:39:04.002Z</time></trkpt><trkpt lat="43.35402072456907" lon="10.650996396848665"><ele>49.599999999999994</ele><time>2026-04-18T14:39:05.002Z</time></trkpt><trkpt lat="43.354112836585884" lon="10.651028880861649"><ele>50.400000000000006</ele><time>2026-04-18T14:39:06.002Z</time></trkpt><trkpt lat="43.354205964531396" lon="10.651058693213974"><ele>51.2</ele><time>2026-04-18T14:39:07.002Z</time></trkpt><trkpt lat="43.35430058542981" lon="10.651085428501233"><ele>52.0</ele><time>2026-04-18T14:39:08.002Z</time></trkpt><trkpt lat="43.35439608232064" lon="10.651113182586533"><ele>51.8</ele><time>2026-04-18T14:39:09.002Z</time></trkpt><trkpt lat="43.354491515851606" lon="10.65114638367639"><ele>51.6</ele><time>2026-04-18T14:39:10.002Z</time></trkpt><trkpt lat="43.35458556480151" lon="10.65118023839003"><ele>51.4</ele><time>2026-04-18T14:39:11.002Z</time></trkpt><trkpt lat="43.35468175519427" lon="10.651213095210815"><ele>51.199999999999996</ele><time>2026-04-18T14:39:12.002Z</time></trkpt><trkpt lat="43.35477956992985" lon="10.651244276034683"><ele>51.0</ele><time>2026-04-18T14:39:13.002Z</time></trkpt><trkpt lat="43.354877823323854" lon="10.651278576192931"><ele>51.0</ele><time>2026-04-18T14:39:14.002Z</time></trkpt><trkpt lat="43.35497581640855" lon="10.651312451197867"><ele>51.0</ele><time>2026-04-18T14:39:15.002Z</time></trkpt><trkpt lat="43.35507440581391" lon="10.651346847158369"><ele>51.0</ele><time>2026-04-18T14:39:16.002Z</time></trkpt><trkpt lat="43.355169978123676" lon="10.651379811385798"><ele>51.0</ele><time>2026-04-18T14:39:17.002Z</time></trkpt><trkpt lat="43.35526401865748" lon="10.651413590703513"><ele>51.0</ele><time>2026-04-18T14:39:18.002Z</time></trkpt><trkpt lat="43.35535342636044" lon="10.651448594642407"><ele>51.0</ele><time>2026-04-18T14:39:19.002Z</time></trkpt><trkpt lat="43.355437334247824" lon="10.651484124886109"><ele>51.0</ele><time>2026-04-18T14:39:20.002Z</time></trkpt><trkpt lat="43.35551683924069" lon="10.651511340105282"><ele>51.0</ele><time>2026-04-18T14:39:21.002Z</time></trkpt><trkpt lat="43.3555908968883" lon="10.651531510013566"><ele>51.0</ele><time>2026-04-18T14:39:22.002Z</time></trkpt><trkpt lat="43.355658987041664" lon="10.6515528381359"><ele>51.0</ele><time>2026-04-18T14:39:23.002Z</time></trkpt><trkpt lat="43.35572185447389" lon="10.65157210588554"><ele>51.0</ele><time>2026-04-18T14:39:24.002Z</time></trkpt><trkpt lat="43.35583928318284" lon="10.651599557519528"><ele>52.25</ele><time>2026-04-18T14:39:26.002Z</time></trkpt><trkpt lat="43.35594434032714" lon="10.65162705361731"><ele>53.5</ele><time>2026-04-18T14:39:28.002Z</time></trkpt><trkpt lat="43.356050441493046" lon="10.651655920351482"><ele>54.75</ele><time>2026-04-18T14:39:30.002Z</time></trkpt><trkpt lat="43.35616570200316" lon="10.651694859295315"><ele>56.0</ele><time>2026-04-18T14:39:32.002Z</time></trkpt><trkpt lat="43.35628077107293" lon="10.651757923382"><ele>56.0</ele><time>2026-04-18T14:39:34.001Z</time></trkpt><trkpt lat="43.356337921943194" lon="10.651799145583807"><ele>56.0</ele><time>2026-04-18T14:39:35.001Z</time></trkpt><trkpt lat="43.35639730979173" lon="10.651843180943104"><ele>56.0</ele><time>2026-04-18T14:39:36.001Z</time></trkpt><trkpt lat="43.356459954127494" lon="10.651888333198654"><ele>56.0</ele><time>2026-04-18T14:39:37.001Z</time></trkpt><trkpt lat="43.35652402998162" lon="10.651937453768616"><ele>56.0</ele><time>2026-04-18T14:39:38.001Z</time></trkpt><trkpt lat="43.356591448534004" lon="10.65198362117668"><ele>56.0</ele><time>2026-04-18T14:39:39.001Z</time></trkpt><trkpt lat="43.356660331700695" lon="10.652027810709457"><ele>56.0</ele><time>2026-04-18T14:39:40.001Z</time></trkpt><trkpt lat="43.356729805211465" lon="10.652068076967646"><ele>55.833333333333336</ele><time>2026-04-18T14:39:41.001Z</time></trkpt><trkpt lat="43.35679990938108" lon="10.652111217464807"><ele>55.66666666666667</ele><time>2026-04-18T14:39:42.001Z</time></trkpt><trkpt lat="43.356871499273026" lon="10.652155818826172"><ele>55.5</ele><time>2026-04-18T14:39:43.001Z</time></trkpt><trkpt lat="43.35694196478933" lon="10.65220086355722"><ele>55.33333333333333</ele><time>2026-04-18T14:39:44Z</time></trkpt><trkpt lat="43.35701272779601" lon="10.65224304753039"><ele>55.166666666666664</ele><time>2026-04-18T14:39:45.001Z</time></trkpt><trkpt lat="43.35708271148219" lon="10.65228548346079"><ele>55.0</ele><time>2026-04-18T14:39:46.001Z</time></trkpt><trkpt lat="43.35715367721754" lon="10.6523296420263"><ele>55.83333333333333</ele><time>2026-04-18T14:39:47Z</time></trkpt><trkpt lat="43.35721349747309" lon="10.652395495906061"><ele>56.666666666666664</ele><time>2026-04-18T14:39:48Z</time></trkpt><trkpt lat="43.357286213989745" lon="10.652422906226393"><ele>57.5</ele><time>2026-04-18T14:39:49Z</time></trkpt><trkpt lat="43.357343716103756" lon="10.65249122972891"><ele>58.33333333333333</ele><time>2026-04-18T14:39:50Z</time></trkpt><trkpt lat="43.357411646235256" lon="10.652547657278598"><ele>59.166666666666664</ele><time>2026-04-18T14:39:51Z</time></trkpt><trkpt lat="43.357478041326296" lon="10.652586812843024"><ele>60.0</ele><time>2026-04-18T14:39:52Z</time></trkpt><trkpt lat="43.35755171543006" lon="10.652607465630625"><ele>60.0</ele><time>2026-04-18T14:39:53Z</time></trkpt><trkpt lat="43.357620448262345" lon="10.652652005426924"><ele>60.0</ele><time>2026-04-18T14:39:54Z</time></trkpt><trkpt lat="43.35769115192361" lon="10.652692046237659"><ele>60.0</ele><time>2026-04-18T14:39:55Z</time></trkpt><trkpt lat="43.35776413995259" lon="10.652724254384205"><ele>60.0</ele><time>2026-04-18T14:39:56Z</time></trkpt><trkpt lat="43.35783814369685" lon="10.652753116001191"><ele>60.0</ele><time>2026-04-18T14:39:57.001Z</time></trkpt><trkpt lat="43.35791155234748" lon="10.652785020462781"><ele>60.0</ele><time>2026-04-18T14:39:58.001Z</time></trkpt><trkpt lat="43.35798751775406" lon="10.652813835445516"><ele>59.333333333333336</ele><time>2026-04-18T14:39:59.001Z</time></trkpt><trkpt lat="43.35806309099261" lon="10.652839269467023"><ele>58.66666666666667</ele><time>2026-04-18T14:40:00.001Z</time></trkpt><trkpt lat="43.35814142025113" lon="10.652858619387898"><ele>58.0</ele><time>2026-04-18T14:40:01.001Z</time></trkpt><trkpt lat="43.35821910254019" lon="10.6528774794065"><ele>57.333333333333336</ele><time>2026-04-18T14:40:02.001Z</time></trkpt><trkpt lat="43.35829769812442" lon="10.652895652485599"><ele>56.66666666666667</ele><time>2026-04-18T14:40:03.001Z</time></trkpt><trkpt lat="43.358376426079005" lon="10.652912413255825"><ele>56.0</ele><time>2026-04-18T14:40:04.001Z</time></trkpt><trkpt lat="43.35845533297038" lon="10.652926538976748"><ele>56.00000000000001</ele><time>2026-04-18T14:40:05.001Z</time></trkpt><trkpt lat="43.35853314954969" lon="10.652937665910304"><ele>56.0</ele><time>2026-04-18T14:40:06.001Z</time></trkpt><trkpt lat="43.35861075556896" lon="10.652945456855276"><ele>56.0</ele><time>2026-04-18T14:40:07.001Z</time></trkpt><trkpt lat="43.35868502208164" lon="10.652952758530446"><ele>56.0</ele><time>2026-04-18T14:40:08.001Z</time></trkpt><trkpt lat="43.358757315668036" lon="10.652962523517068"><ele>56.00000000000001</ele><time>2026-04-18T14:40:09.001Z</time></trkpt><trkpt lat="43.358829390856734" lon="10.65297712686367"><ele>56.0</ele><time>2026-04-18T14:40:10.001Z</time></trkpt><trkpt lat="43.35890447397594" lon="10.652994056237194"><ele>56.833333333333336</ele><time>2026-04-18T14:40:11.001Z</time></trkpt><trkpt lat="43.35897952885982" lon="10.653014476651629"><ele>57.66666666666667</ele><time>2026-04-18T14:40:12.001Z</time></trkpt><trkpt lat="43.35905543693121" lon="10.653041851407284"><ele>58.5</ele><time>2026-04-18T14:40:13.001Z</time></trkpt><trkpt lat="43.3591264846153" lon="10.653077241193106"><ele>59.33333333333333</ele><time>2026-04-18T14:40:14.001Z</time></trkpt><trkpt lat="43.3591962540131" lon="10.653120242997808"><ele>60.166666666666664</ele><time>2026-04-18T14:40:15.001Z</time></trkpt><trkpt lat="43.35926739549385" lon="10.65316442800974"><ele>61.0</ele><time>2026-04-18T14:40:16.001Z</time></trkpt><trkpt lat="43.35933914306456" lon="10.65320210322841"><ele>60.99999999999999</ele><time>2026-04-18T14:40:17.001Z</time></trkpt><trkpt lat="43.35941301589995" lon="10.653234142436625"><ele>61.0</ele><time>2026-04-18T14:40:18.001Z</time></trkpt><trkpt lat="43.35948787917911" lon="10.653258380794295"><ele>60.99999999999999</ele><time>2026-04-18T14:40:19.001Z</time></trkpt><trkpt lat="43.35956147514428" lon="10.653277788949113"><ele>60.99999999999999</ele><time>2026-04-18T14:40:20.001Z</time></trkpt><trkpt lat="43.35963252237481" lon="10.653291521790397"><ele>61.0</ele><time>2026-04-18T14:40:21.001Z</time></trkpt><trkpt lat="43.35970079851255" lon="10.653304482909205"><ele>60.99999999999999</ele><time>2026-04-18T14:40:22.001Z</time></trkpt><trkpt lat="43.35976749023967" lon="10.653317443856169"><ele>60.99999999999999</ele><time>2026-04-18T14:40:23.001Z</time></trkpt><trkpt lat="43.359834519310695" lon="10.653329860582065"><ele>61.28571428571428</ele><time>2026-04-18T14:40:24.001Z</time></trkpt><trkpt lat="43.35990179877402" lon="10.653339801892127"><ele>61.57142857142857</ele><time>2026-04-18T14:40:25.001Z</time></trkpt><trkpt lat="43.359969483784816" lon="10.65335012396353"><ele>61.857142857142854</ele><time>2026-04-18T14:40:26.001Z</time></trkpt><trkpt lat="43.36003773875326" lon="10.65336442797721"><ele>62.14285714285714</ele><time>2026-04-18T14:40:27.001Z</time></trkpt><trkpt lat="43.36011022509101" lon="10.653380823476667"><ele>62.42857142857143</ele><time>2026-04-18T14:40:28.001Z</time></trkpt><trkpt lat="43.3601834459047" lon="10.653403293568843"><ele>62.714285714285715</ele><time>2026-04-18T14:40:29.001Z</time></trkpt><trkpt lat="43.360255855234094" lon="10.65343697101586"><ele>63.0</ele><time>2026-04-18T14:40:30.001Z</time></trkpt><trkpt lat="43.36032855425004" lon="10.653475536273762"><ele>63.0</ele><time>2026-04-18T14:40:31.001Z</time></trkpt><trkpt lat="43.360401865324555" lon="10.65351612834624"><ele>63.0</ele><time>2026-04-18T14:40:32.001Z</time></trkpt><trkpt lat="43.36047843341032" lon="10.653554717447586"><ele>63.0</ele><time>2026-04-18T14:40:33.001Z</time></trkpt><trkpt lat="43.360557039092406" lon="10.653591109510252"><ele>63.0</ele><time>2026-04-18T14:40:34.001Z</time></trkpt><trkpt lat="43.360634018682944" lon="10.653626271193648"><ele>63.0</ele><time>2026-04-18T14:40:35.001Z</time></trkpt><trkpt lat="43.360706472688435" lon="10.653662459134624"><ele>63.0</ele><time>2026-04-18T14:40:36.001Z</time></trkpt><trkpt lat="43.360769549305274" lon="10.653720163411478"><ele>63.14285714285714</ele><time>2026-04-18T14:40:37.001Z</time></trkpt><trkpt lat="43.360847319559326" lon="10.653726307145597"><ele>63.285714285714285</ele><time>2026-04-18T14:40:38.001Z</time></trkpt><trkpt lat="43.360917823962694" lon="10.653747504094301"><ele>63.42857142857143</ele><time>2026-04-18T14:40:39.001Z</time></trkpt><trkpt lat="43.36098325933262" lon="10.653775555310583"><ele>63.57142857142857</ele><time>2026-04-18T14:40:40.001Z</time></trkpt><trkpt lat="43.361045094676605" lon="10.65381381941091"><ele>63.71428571428571</ele><time>2026-04-18T14:40:41.001Z</time></trkpt><trkpt lat="43.36109975789771" lon="10.653862889852462"><ele>63.857142857142854</ele><time>2026-04-18T14:40:42.001Z</time></trkpt><trkpt lat="43.36115003538926" lon="10.653915592270055"><ele>64.0</ele><time>2026-04-18T14:40:43.001Z</time></trkpt><trkpt lat="43.361200963093" lon="10.653967079339822"><ele>63.99999999999999</ele><time>2026-04-18T14:40:44.001Z</time></trkpt><trkpt lat="43.361306778966195" lon="10.654059007980063"><ele>64.0</ele><time>2026-04-18T14:40:46.001Z</time></trkpt><trkpt lat="43.36136318575495" lon="10.654111368183433"><ele>64.0</ele><time>2026-04-18T14:40:47.001Z</time></trkpt><trkpt lat="43.36141937354745" lon="10.654171493402131"><ele>64.0</ele><time>2026-04-18T14:40:48.001Z</time></trkpt><trkpt lat="43.36147072059795" lon="10.65424380723627"><ele>63.99999999999999</ele><time>2026-04-18T14:40:49.001Z</time></trkpt><trkpt lat="43.36152020281186" lon="10.654322847002465"><ele>64.0</ele><time>2026-04-18T14:40:50.001Z</time></trkpt><trkpt lat="43.36157030973584" lon="10.654404380011355"><ele>64.66666666666666</ele><time>2026-04-18T14:40:51.001Z</time></trkpt><trkpt lat="43.36162181816122" lon="10.654483434835456"><ele>65.33333333333333</ele><time>2026-04-18T14:40:52.001Z</time></trkpt><trkpt lat="43.36167745220289" lon="10.654553645782068"><ele>66.0</ele><time>2026-04-18T14:40:53.001Z</time></trkpt><trkpt lat="43.36173897306046" lon="10.654615773144531"><ele>66.66666666666667</ele><time>2026-04-18T14:40:54.001Z</time></trkpt><trkpt lat="43.36180431581677" lon="10.654668397331742"><ele>67.33333333333334</ele><time>2026-04-18T14:40:55.001Z</time></trkpt><trkpt lat="43.36186674703526" lon="10.654738543275858"><ele>68.0</ele><time>2026-04-18T14:40:56.001Z</time></trkpt><trkpt lat="43.36194920699865" lon="10.654737137462032"><ele>68.0</ele><time>2026-04-18T14:40:57.001Z</time></trkpt><trkpt lat="43.36202572661238" lon="10.654757318889795"><ele>68.0</ele><time>2026-04-18T14:40:58.001Z</time></trkpt><trkpt lat="43.36210170772262" lon="10.654777673223432"><ele>68.0</ele><time>2026-04-18T14:40:59.001Z</time></trkpt><trkpt lat="43.36217220141486" lon="10.654813734171302"><ele>68.0</ele><time>2026-04-18T14:41:00.001Z</time></trkpt><trkpt lat="43.36224220871764" lon="10.654859501290822"><ele>68.0</ele><time>2026-04-18T14:41:01.001Z</time></trkpt><trkpt lat="43.362311590062966" lon="10.654901251092596"><ele>68.0</ele><time>2026-04-18T14:41:02.001Z</time></trkpt><trkpt lat="43.36238387955952" lon="10.654928234121078"><ele>69.85714285714285</ele><time>2026-04-18T14:41:03.001Z</time></trkpt><trkpt lat="43.362459599312054" lon="10.654931632683182"><ele>71.71428571428571</ele><time>2026-04-18T14:41:04.001Z</time></trkpt><trkpt lat="43.36253227766914" lon="10.654916495133643"><ele>73.57142857142857</ele><time>2026-04-18T14:41:05.001Z</time></trkpt><trkpt lat="43.36260559074939" lon="10.654898203513818"><ele>75.42857142857142</ele><time>2026-04-18T14:41:06.001Z</time></trkpt><trkpt lat="43.36267932895379" lon="10.654887715754676"><ele>77.28571428571428</ele><time>2026-04-18T14:41:07.001Z</time></trkpt><trkpt lat="43.3627537500534" lon="10.65487964223726"><ele>79.14285714285714</ele><time>2026-04-18T14:41:08.001Z</time></trkpt><trkpt lat="43.36282791901586" lon="10.654883266806696"><ele>81.0</ele><time>2026-04-18T14:41:09.001Z</time></trkpt><trkpt lat="43.36289721167701" lon="10.654908358103453"><ele>81.0</ele><time>2026-04-18T14:41:10.002Z</time></trkpt><trkpt lat="43.36296094100289" lon="10.654952146407986"><ele>81.0</ele><time>2026-04-18T14:41:11.002Z</time></trkpt><trkpt lat="43.363016507210254" lon="10.655009896321378"><ele>81.0</ele><time>2026-04-18T14:41:12.002Z</time></trkpt><trkpt lat="43.36306324994963" lon="10.655076095031903"><ele>81.0</ele><time>2026-04-18T14:41:13.002Z</time></trkpt><trkpt lat="43.363108410231874" lon="10.655138761172326"><ele>81.0</ele><time>2026-04-18T14:41:14.002Z</time></trkpt><trkpt lat="43.363227467070956" lon="10.655189569027593"><ele>81.0</ele><time>2026-04-18T14:41:16.002Z</time></trkpt><trkpt lat="43.36334807692434" lon="10.655191940643403"><ele>82.6</ele><time>2026-04-18T14:41:18.002Z</time></trkpt><trkpt lat="43.36346583118757" lon="10.655209301646511"><ele>84.19999999999999</ele><time>2026-04-18T14:41:20.002Z</time></trkpt><trkpt lat="43.36357696229704" lon="10.65526558578812"><ele>85.80000000000001</ele><time>2026-04-18T14:41:22.002Z</time></trkpt><trkpt lat="43.36369709731424" lon="10.655282994917743"><ele>87.4</ele><time>2026-04-18T14:41:24.002Z</time></trkpt><trkpt lat="43.36375093269849" lon="10.655236210344423"><ele>89.0</ele><time>2026-04-18T14:41:25.003Z</time></trkpt><trkpt lat="43.363783720915734" lon="10.65515284710036"><ele>88.99999999999999</ele><time>2026-04-18T14:41:26.002Z</time></trkpt><trkpt lat="43.36377407752055" lon="10.655059920872914"><ele>89.0</ele><time>2026-04-18T14:41:27.002Z</time></trkpt><trkpt lat="43.36376081390138" lon="10.654969035419555"><ele>89.0</ele><time>2026-04-18T14:41:28.002Z</time></trkpt><trkpt lat="43.36369380350472" lon="10.654910060859272"><ele>89.0</ele><time>2026-04-18T14:41:29.002Z</time></trkpt><trkpt lat="43.36365850386742" lon="10.654823459783657"><ele>89.0</ele><time>2026-04-18T14:41:30.002Z</time></trkpt><trkpt lat="43.36361753270741" lon="10.654748801860402"><ele>88.99999999999999</ele><time>2026-04-18T14:41:31.002Z</time></trkpt><trkpt lat="43.363581440408026" lon="10.654663062149435"><ele>89.0</ele><time>2026-04-18T14:41:32.002Z</time></trkpt><trkpt lat="43.363547972780694" lon="10.65458362364016"><ele>89.0</ele><time>2026-04-18T14:41:33.002Z</time></trkpt><trkpt lat="43.36349987244838" lon="10.654517773200379"><ele>89.0</ele><time>2026-04-18T14:41:34.002Z</time></trkpt><trkpt lat="43.36347481271255" lon="10.654432521536744"><ele>89.0</ele><time>2026-04-18T14:41:35.002Z</time></trkpt><trkpt lat="43.36340750772201" lon="10.654385186502223"><ele>89.0</ele><time>2026-04-18T14:41:36.002Z</time></trkpt><trkpt lat="43.36334426881524" lon="10.654344412348115"><ele>89.0</ele><time>2026-04-18T14:41:37.002Z</time></trkpt><trkpt lat="43.363261986793376" lon="10.654249688216355"><ele>89.0</ele><time>2026-04-18T14:41:39.002Z</time></trkpt><trkpt lat="43.36329005976351" lon="10.65412805358819"><ele>91.0</ele><time>2026-04-18T14:41:43Z</time></trkpt><trkpt lat="43.363390333750054" lon="10.654180606384385"><ele>93.0</ele><time>2026-04-18T14:41:45Z</time></trkpt><trkpt lat="43.36350043785648" lon="10.654237843486298"><ele>95.0</ele><time>2026-04-18T14:41:47Z</time></trkpt><trkpt lat="43.36357132865957" lon="10.654248850833808"><ele>97.0</ele><time>2026-04-18T14:41:48Z</time></trkpt><trkpt lat="43.36371027622038" lon="10.654290406064076"><ele>99.0</ele><time>2026-04-18T14:41:50Z</time></trkpt><trkpt lat="43.36377905899781" lon="10.654326496946796"><ele>99.0</ele><time>2026-04-18T14:41:51Z</time></trkpt><trkpt lat="43.363850427671494" lon="10.654356663984716"><ele>99.0</ele><time>2026-04-18T14:41:52Z</time></trkpt><trkpt lat="43.363923271084666" lon="10.654385658491371"><ele>99.0</ele><time>2026-04-18T14:41:53Z</time></trkpt><trkpt lat="43.363989563220834" lon="10.654443462254747"><ele>99.0</ele><time>2026-04-18T14:41:54Z</time></trkpt><trkpt lat="43.364056661412" lon="10.654503606603665"><ele>99.0</ele><time>2026-04-18T14:41:55Z</time></trkpt><trkpt lat="43.36411806585259" lon="10.654577982499298"><ele>99.0</ele><time>2026-04-18T14:41:56Z</time></trkpt><trkpt lat="43.36417461085739" lon="10.654664959864304"><ele>99.5</ele><time>2026-04-18T14:41:57Z</time></trkpt><trkpt lat="43.36423573401863" lon="10.654745919616674"><ele>100.0</ele><time>2026-04-18T14:41:58Z</time></trkpt><trkpt lat="43.364306164624914" lon="10.654811864346486"><ele>100.5</ele><time>2026-04-18T14:41:59Z</time></trkpt><trkpt lat="43.36438649221599" lon="10.65485924970099"><ele>101.0</ele><time>2026-04-18T14:42:00Z</time></trkpt><trkpt lat="43.3644687926731" lon="10.654896988311739"><ele>101.5</ele><time>2026-04-18T14:42:01Z</time></trkpt><trkpt lat="43.36454517216377" lon="10.65492235464095"><ele>102.0</ele><time>2026-04-18T14:42:02Z</time></trkpt><trkpt lat="43.364614801372525" lon="10.654932433736157"><ele>102.0</ele><time>2026-04-18T14:42:03Z</time></trkpt><trkpt lat="43.36468392113648" lon="10.654963125962842"><ele>102.0</ele><time>2026-04-18T14:42:04Z</time></trkpt><trkpt lat="43.36475771310492" lon="10.654976980871007"><ele>102.0</ele><time>2026-04-18T14:42:05Z</time></trkpt><trkpt lat="43.36483415113963" lon="10.655012098855659"><ele>102.0</ele><time>2026-04-18T14:42:06Z</time></trkpt><trkpt lat="43.364914498007835" lon="10.655020380300703"><ele>102.0</ele><time>2026-04-18T14:42:07Z</time></trkpt><trkpt lat="43.364990161242254" lon="10.655042281502386"><ele>102.0</ele><time>2026-04-18T14:42:08Z</time></trkpt><trkpt lat="43.36506729279144" lon="10.655045992258176"><ele>103.83333333333333</ele><time>2026-04-18T14:42:09Z</time></trkpt><trkpt lat="43.36513992413101" lon="10.65504316867147"><ele>105.66666666666666</ele><time>2026-04-18T14:42:10Z</time></trkpt><trkpt lat="43.36520950551035" lon="10.655011302105423"><ele>107.5</ele><time>2026-04-18T14:42:11Z</time></trkpt><trkpt lat="43.36527754474301" lon="10.654972226905997"><ele>109.33333333333333</ele><time>2026-04-18T14:42:12Z</time></trkpt><trkpt lat="43.36534869495375" lon="10.65492720708374"><ele>111.16666666666666</ele><time>2026-04-18T14:42:13Z</time></trkpt><trkpt lat="43.36542763911041" lon="10.654887495615073"><ele>113.0</ele><time>2026-04-18T14:42:14Z</time></trkpt><trkpt lat="43.36550778771574" lon="10.654854672060855"><ele>112.99999999999999</ele><time>2026-04-18T14:42:15Z</time></trkpt><trkpt lat="43.365588669287284" lon="10.654825854950898"><ele>113.0</ele><time>2026-04-18T14:42:16Z</time></trkpt><trkpt lat="43.36566977028204" lon="10.654800188911988"><ele>113.0</ele><time>2026-04-18T14:42:17Z</time></trkpt><trkpt lat="43.36575049850295" lon="10.654813622427643"><ele>113.0</ele><time>2026-04-18T14:42:18Z</time></trkpt><trkpt lat="43.365823014377746" lon="10.654821957324247"><ele>112.99999999999999</ele><time>2026-04-18T14:42:19Z</time></trkpt><trkpt lat="43.36589295361947" lon="10.654837751434503"><ele>113.0</ele><time>2026-04-18T14:42:20Z</time></trkpt><trkpt lat="43.36596031206401" lon="10.654849363572698"><ele>113.0</ele><time>2026-04-18T14:42:21Z</time></trkpt><trkpt lat="43.3660264276073" lon="10.654829868896513"><ele>113.0</ele><time>2026-04-18T14:42:22Z</time></trkpt><trkpt lat="43.3660930696157" lon="10.65482661468918"><ele>113.0</ele><time>2026-04-18T14:42:23Z</time></trkpt><trkpt lat="43.366136280242365" lon="10.654740069948529"><ele>113.0</ele><time>2026-04-18T14:42:24Z</time></trkpt><trkpt lat="43.36615964136365" lon="10.654650129058453"><ele>113.0</ele><time>2026-04-18T14:42:25Z</time></trkpt><trkpt lat="43.36615784325965" lon="10.654549183650904"><ele>113.0</ele><time>2026-04-18T14:42:26Z</time></trkpt><trkpt lat="43.36617376012926" lon="10.65445322179521"><ele>113.0</ele><time>2026-04-18T14:42:27Z</time></trkpt><trkpt lat="43.366173713636194" lon="10.654362160659401"><ele>113.71428571428572</ele><time>2026-04-18T14:42:28Z</time></trkpt><trkpt lat="43.36618649046748" lon="10.654276189389527"><ele>114.42857142857142</ele><time>2026-04-18T14:42:29Z</time></trkpt><trkpt lat="43.36621403952949" lon="10.654189575763851"><ele>115.14285714285714</ele><time>2026-04-18T14:42:30Z</time></trkpt><trkpt lat="43.366245152989734" lon="10.654099771219839"><ele>115.85714285714286</ele><time>2026-04-18T14:42:31.001Z</time></trkpt><trkpt lat="43.366279410445614" lon="10.65400501900068"><ele>116.57142857142858</ele><time>2026-04-18T14:42:32.001Z</time></trkpt><trkpt lat="43.36630988948414" lon="10.653902919046054"><ele>117.28571428571428</ele><time>2026-04-18T14:42:33.001Z</time></trkpt><trkpt lat="43.366336252030486" lon="10.65379324091997"><ele>118.0</ele><time>2026-04-18T14:42:34.001Z</time></trkpt><trkpt lat="43.36637820827495" lon="10.6536918834021"><ele>120.00000000000001</ele><time>2026-04-18T14:42:35.001Z</time></trkpt><trkpt lat="43.3663990222188" lon="10.65357843989655"><ele>122.0</ele><time>2026-04-18T14:42:36.001Z</time></trkpt><trkpt lat="43.36641395662295" lon="10.653474139334618"><ele>124.0</ele><time>2026-04-18T14:42:37.001Z</time></trkpt><trkpt lat="43.366452936897296" lon="10.653390892407034"><ele>126.0</ele><time>2026-04-18T14:42:38.001Z</time></trkpt><trkpt lat="43.36650678628359" lon="10.653333730905597"><ele>128.0</ele><time>2026-04-18T14:42:39.001Z</time></trkpt><trkpt lat="43.36663580817581" lon="10.653309417704152"><ele>130.0</ele><time>2026-04-18T14:42:41.001Z</time></trkpt><trkpt lat="43.366705192235976" lon="10.65330774350918"><ele>130.0</ele><time>2026-04-18T14:42:42.001Z</time></trkpt><trkpt lat="43.366781889266484" lon="10.653301468417174"><ele>130.0</ele><time>2026-04-18T14:42:43.001Z</time></trkpt><trkpt lat="43.36685871205846" lon="10.653294680564718"><ele>130.0</ele><time>2026-04-18T14:42:44.001Z</time></trkpt><trkpt lat="43.3669389270922" lon="10.653287592933005"><ele>130.0</ele><time>2026-04-18T14:42:45.001Z</time></trkpt><trkpt lat="43.36702047247642" lon="10.653259203424838"><ele>130.0</ele><time>2026-04-18T14:42:46.001Z</time></trkpt><trkpt lat="43.36710748755286" lon="10.653265892599663"><ele>130.0</ele><time>2026-04-18T14:42:47.001Z</time></trkpt><trkpt lat="43.36719091092183" lon="10.65322539000073"><ele>129.66666666666669</ele><time>2026-04-18T14:42:48.001Z</time></trkpt><trkpt lat="43.36727825892053" lon="10.653205048219558"><ele>129.33333333333334</ele><time>2026-04-18T14:42:49.001Z</time></trkpt><trkpt lat="43.36736441002841" lon="10.653175151102001"><ele>129.0</ele><time>2026-04-18T14:42:50.001Z</time></trkpt><trkpt lat="43.36745529455801" lon="10.653168746780123"><ele>128.66666666666666</ele><time>2026-04-18T14:42:51.001Z</time></trkpt><trkpt lat="43.36754371285705" lon="10.65313969933899"><ele>128.33333333333331</ele><time>2026-04-18T14:42:52.001Z</time></trkpt><trkpt lat="43.36762130393502" lon="10.653083817184347"><ele>128.0</ele><time>2026-04-18T14:42:53.001Z</time></trkpt><trkpt lat="43.36769852122425" lon="10.653045050899353"><ele>128.0</ele><time>2026-04-18T14:42:54.001Z</time></trkpt><trkpt lat="43.36776793944848" lon="10.653019208044425"><ele>127.99999999999999</ele><time>2026-04-18T14:42:55.001Z</time></trkpt><trkpt lat="43.367843351737605" lon="10.653029394278139"><ele>128.0</ele><time>2026-04-18T14:42:56.001Z</time></trkpt><trkpt lat="43.367915855711274" lon="10.653021562858674"><ele>128.0</ele><time>2026-04-18T14:42:57.001Z</time></trkpt><trkpt lat="43.367988325862036" lon="10.653044051440759"><ele>127.99999999999999</ele><time>2026-04-18T14:42:58.001Z</time></trkpt><trkpt lat="43.36805808866336" lon="10.653063109261879"><ele>128.0</ele><time>2026-04-18T14:42:59.001Z</time></trkpt><trkpt lat="43.36812695988717" lon="10.653045944146937"><ele>128.0</ele><time>2026-04-18T14:43:00.001Z</time></trkpt><trkpt lat="43.36821922602039" lon="10.652931220092078"><ele>128.57142857142856</ele><time>2026-04-18T14:43:02.001Z</time></trkpt><trkpt lat="43.368241148912375" lon="10.652845323400513"><ele>129.14285714285714</ele><time>2026-04-18T14:43:03.001Z</time></trkpt><trkpt lat="43.36828949547204" lon="10.652786522197692"><ele>129.71428571428572</ele><time>2026-04-18T14:43:04.001Z</time></trkpt><trkpt lat="43.36833790377591" lon="10.652722289947436"><ele>130.28571428571428</ele><time>2026-04-18T14:43:05.001Z</time></trkpt><trkpt lat="43.368390447991324" lon="10.652664811080898"><ele>130.85714285714286</ele><time>2026-04-18T14:43:06.001Z</time></trkpt><trkpt lat="43.36845013516385" lon="10.652603639717272"><ele>131.42857142857142</ele><time>2026-04-18T14:43:07.001Z</time></trkpt><trkpt lat="43.36849908366965" lon="10.652531994947699"><ele>132.0</ele><time>2026-04-18T14:43:08.001Z</time></trkpt><trkpt lat="43.368564989824925" lon="10.652497398479674"><ele>133.0</ele><time>2026-04-18T14:43:09.001Z</time></trkpt><trkpt lat="43.36864144726772" lon="10.652495914410627"><ele>134.0</ele><time>2026-04-18T14:43:10.001Z</time></trkpt><trkpt lat="43.368713964784305" lon="10.652515588348077"><ele>135.0</ele><time>2026-04-18T14:43:11.001Z</time></trkpt><trkpt lat="43.36877730510125" lon="10.652567745821074"><ele>136.0</ele><time>2026-04-18T14:43:12.001Z</time></trkpt><trkpt lat="43.368825632955144" lon="10.652650893855826"><ele>137.0</ele><time>2026-04-18T14:43:13.001Z</time></trkpt><trkpt lat="43.36886736290138" lon="10.652737284619553"><ele>138.0</ele><time>2026-04-18T14:43:14.001Z</time></trkpt><trkpt lat="43.36891350350367" lon="10.652823993245375"><ele>138.0</ele><time>2026-04-18T14:43:15.001Z</time></trkpt><trkpt lat="43.36897425327775" lon="10.652893173466946"><ele>138.0</ele><time>2026-04-18T14:43:16.001Z</time></trkpt><trkpt lat="43.36904524990872" lon="10.652939478823836"><ele>138.0</ele><time>2026-04-18T14:43:17.001Z</time></trkpt><trkpt lat="43.36911678699652" lon="10.652993685760936"><ele>138.0</ele><time>2026-04-18T14:43:18.001Z</time></trkpt><trkpt lat="43.36919713808321" lon="10.652986924607061"><ele>138.0</ele><time>2026-04-18T14:43:19.001Z</time></trkpt><trkpt lat="43.369278248939814" lon="10.652981916835369"><ele>138.0</ele><time>2026-04-18T14:43:20.001Z</time></trkpt><trkpt lat="43.36935832032774" lon="10.652967707816465"><ele>138.0</ele><time>2026-04-18T14:43:21.001Z</time></trkpt><trkpt lat="43.36944023246891" lon="10.652940979570861"><ele>138.0</ele><time>2026-04-18T14:43:22.001Z</time></trkpt><trkpt lat="43.369525132509246" lon="10.652924878139139"><ele>138.0</ele><time>2026-04-18T14:43:23.001Z</time></trkpt><trkpt lat="43.36960911225666" lon="10.652902666040447"><ele>138.0</ele><time>2026-04-18T14:43:24.001Z</time></trkpt><trkpt lat="43.36969408281279" lon="10.652886990565388"><ele>138.0</ele><time>2026-04-18T14:43:25.001Z</time></trkpt><trkpt lat="43.36977187146744" lon="10.652859427174176"><ele>138.0</ele><time>2026-04-18T14:43:26.001Z</time></trkpt><trkpt lat="43.36985064066502" lon="10.652809047857579"><ele>141.83333333333334</ele><time>2026-04-18T14:43:27.001Z</time></trkpt><trkpt lat="43.369924333894176" lon="10.65275733410238"><ele>145.66666666666666</ele><time>2026-04-18T14:43:28.001Z</time></trkpt><trkpt lat="43.36998680288336" lon="10.652702851721362"><ele>149.5</ele><time>2026-04-18T14:43:29.001Z</time></trkpt><trkpt lat="43.37004686080903" lon="10.652650494688825"><ele>153.33333333333331</ele><time>2026-04-18T14:43:30.001Z</time></trkpt><trkpt lat="43.37011750831162" lon="10.652623748650617"><ele>157.16666666666666</ele><time>2026-04-18T14:43:31.001Z</time></trkpt><trkpt lat="43.37019653220864" lon="10.65261562876003"><ele>161.0</ele><time>2026-04-18T14:43:32.001Z</time></trkpt><trkpt lat="43.37027852731367" lon="10.652637997615466"><ele>161.0</ele><time>2026-04-18T14:43:33.001Z</time></trkpt><trkpt lat="43.370361045161715" lon="10.652656247261744"><ele>161.0</ele><time>2026-04-18T14:43:34.001Z</time></trkpt><trkpt lat="43.37044287816851" lon="10.652673226200074"><ele>161.0</ele><time>2026-04-18T14:43:35.001Z</time></trkpt><trkpt lat="43.37052117098343" lon="10.652684702659233"><ele>161.0</ele><time>2026-04-18T14:43:36.002Z</time></trkpt><trkpt lat="43.37058984451086" lon="10.652684758844618"><ele>161.0</ele><time>2026-04-18T14:43:37.002Z</time></trkpt><trkpt lat="43.37070264931971" lon="10.652643696114616"><ele>161.0</ele><time>2026-04-18T14:43:39.002Z</time></trkpt><trkpt lat="43.370818397243404" lon="10.65256451327911"><ele>160.0</ele><time>2026-04-18T14:43:41.002Z</time></trkpt><trkpt lat="43.37086862502984" lon="10.65250938157535"><ele>159.0</ele><time>2026-04-18T14:43:42.002Z</time></trkpt><trkpt lat="43.37094500223734" lon="10.652404292199574"><ele>158.0</ele><time>2026-04-18T14:43:44.002Z</time></trkpt><trkpt lat="43.37095105232765" lon="10.652270719743944"><ele>157.0</ele><time>2026-04-18T14:43:46Z</time></trkpt><trkpt lat="43.37084427106699" lon="10.652189940278395"><ele>156.0</ele><time>2026-04-18T14:43:48Z</time></trkpt><trkpt lat="43.37077227402425" lon="10.652246655363975"><ele>156.0</ele><time>2026-04-18T14:43:49Z</time></trkpt><trkpt lat="43.37064438531412" lon="10.652268883951619"><ele>156.0</ele><time>2026-04-18T14:43:51Z</time></trkpt><trkpt lat="43.37061079426492" lon="10.652182725453988"><ele>156.0</ele><time>2026-04-18T14:43:52Z</time></trkpt><trkpt lat="43.37056791979461" lon="10.652116675840535"><ele>156.0</ele><time>2026-04-18T14:43:53Z</time></trkpt><trkpt lat="43.370513655590905" lon="10.6520461066572"><ele>156.0</ele><time>2026-04-18T14:43:54Z</time></trkpt><trkpt lat="43.37045808449318" lon="10.651990966410944"><ele>156.0</ele><time>2026-04-18T14:43:55Z</time></trkpt><trkpt lat="43.37038693873948" lon="10.65194986763426"><ele>156.71428571428572</ele><time>2026-04-18T14:43:56Z</time></trkpt><trkpt lat="43.37030915089625" lon="10.651942911698885"><ele>157.42857142857142</ele><time>2026-04-18T14:43:57Z</time></trkpt><trkpt lat="43.37023440522044" lon="10.651961247838672"><ele>158.14285714285714</ele><time>2026-04-18T14:43:58Z</time></trkpt><trkpt lat="43.370163314204284" lon="10.651994485872338"><ele>158.85714285714286</ele><time>2026-04-18T14:43:59Z</time></trkpt><trkpt lat="43.370096760639015" lon="10.652018823875414"><ele>159.57142857142856</ele><time>2026-04-18T14:44:00Z</time></trkpt><trkpt lat="43.37002853261106" lon="10.65204285367033"><ele>160.28571428571428</ele><time>2026-04-18T14:44:01Z</time></trkpt><trkpt lat="43.36995668211072" lon="10.652064452140241"><ele>161.0</ele><time>2026-04-18T14:44:02Z</time></trkpt><trkpt lat="43.36988988959558" lon="10.652082190103922"><ele>161.0</ele><time>2026-04-18T14:44:03Z</time></trkpt><trkpt lat="43.36982016821389" lon="10.652098580744875"><ele>161.0</ele><time>2026-04-18T14:44:04Z</time></trkpt><trkpt lat="43.36975563138996" lon="10.652101533922389"><ele>161.0</ele><time>2026-04-18T14:44:05Z</time></trkpt><trkpt lat="43.36969350928837" lon="10.65208119842756"><ele>161.0</ele><time>2026-04-18T14:44:06Z</time></trkpt><trkpt lat="43.36963770113541" lon="10.652033830325658"><ele>161.0</ele><time>2026-04-18T14:44:07Z</time></trkpt><trkpt lat="43.369579691682716" lon="10.65198108904149"><ele>161.0</ele><time>2026-04-18T14:44:08Z</time></trkpt><trkpt lat="43.36952569591762" lon="10.651924423139153"><ele>161.0</ele><time>2026-04-18T14:44:09Z</time></trkpt><trkpt lat="43.36947176566122" lon="10.651864734994273"><ele>161.83333333333331</ele><time>2026-04-18T14:44:10Z</time></trkpt><trkpt lat="43.36942007832714" lon="10.651804318622377"><ele>162.66666666666666</ele><time>2026-04-18T14:44:11Z</time></trkpt><trkpt lat="43.36936055627198" lon="10.651673205911479"><ele>163.5</ele><time>2026-04-18T14:44:13Z</time></trkpt><trkpt lat="43.369368338829005" lon="10.651521911202499"><ele>164.33333333333334</ele><time>2026-04-18T14:44:15Z</time></trkpt><trkpt lat="43.369373850457805" lon="10.651431249448487"><ele>165.16666666666669</ele><time>2026-04-18T14:44:16Z</time></trkpt><trkpt lat="43.36940085611639" lon="10.6513399091715"><ele>166.0</ele><time>2026-04-18T14:44:17Z</time></trkpt><trkpt lat="43.369432720453005" lon="10.651255877869282"><ele>166.0</ele><time>2026-04-18T14:44:18Z</time></trkpt><trkpt lat="43.36947943354732" lon="10.651184445628877"><ele>166.0</ele><time>2026-04-18T14:44:19Z</time></trkpt><trkpt lat="43.369511211127445" lon="10.65110485838852"><ele>166.0</ele><time>2026-04-18T14:44:20Z</time></trkpt><trkpt lat="43.369566274638075" lon="10.65096257268435"><ele>166.0</ele><time>2026-04-18T14:44:22Z</time></trkpt><trkpt lat="43.36962866398279" lon="10.650932126045259"><ele>166.0</ele><time>2026-04-18T14:44:23Z</time></trkpt><trkpt lat="43.36968302304891" lon="10.650879470094536"><ele>166.0</ele><time>2026-04-18T14:44:24Z</time></trkpt><trkpt lat="43.36975010193347" lon="10.65086290195378"><ele>167.7142857142857</ele><time>2026-04-18T14:44:25Z</time></trkpt><trkpt lat="43.369812824173586" lon="10.650844979965251"><ele>169.42857142857144</ele><time>2026-04-18T14:44:26Z</time></trkpt><trkpt lat="43.36987640540168" lon="10.650825089437742"><ele>171.14285714285714</ele><time>2026-04-18T14:44:27.001Z</time></trkpt><trkpt lat="43.369939129231405" lon="10.650795192030678"><ele>172.85714285714283</ele><time>2026-04-18T14:44:28.001Z</time></trkpt><trkpt lat="43.370009740116295" lon="10.650808733434442"><ele>174.57142857142856</ele><time>2026-04-18T14:44:29.001Z</time></trkpt><trkpt lat="43.3700834497264" lon="10.650818672495122"><ele>176.28571428571428</ele><time>2026-04-18T14:44:30.001Z</time></trkpt><trkpt lat="43.370161518803215" lon="10.650825806171813"><ele>178.0</ele><time>2026-04-18T14:44:31.001Z</time></trkpt><trkpt lat="43.370242562980714" lon="10.65083418813221"><ele>178.0</ele><time>2026-04-18T14:44:32.001Z</time></trkpt><trkpt lat="43.370384047600176" lon="10.650904141522954"><ele>178.0</ele><time>2026-04-18T14:44:34.001Z</time></trkpt><trkpt lat="43.37045455341478" lon="10.65091418705764"><ele>178.0</ele><time>2026-04-18T14:44:35.001Z</time></trkpt><trkpt lat="43.37050774801815" lon="10.650964823796814"><ele>178.0</ele><time>2026-04-18T14:44:36.001Z</time></trkpt><trkpt lat="43.370572796865424" lon="10.650964800766095"><ele>178.0</ele><time>2026-04-18T14:44:37.001Z</time></trkpt><trkpt lat="43.37064747554666" lon="10.650873791977459"><ele>178.0</ele><time>2026-04-18T14:44:39.001Z</time></trkpt><trkpt lat="43.3707319001851" lon="10.65078703996071"><ele>178.0</ele><time>2026-04-18T14:44:41.001Z</time></trkpt><trkpt lat="43.370824723288365" lon="10.650656273536022"><ele>178.0</ele><time>2026-04-18T14:44:43.001Z</time></trkpt><trkpt lat="43.37087287473001" lon="10.650585247940352"><ele>178.0</ele><time>2026-04-18T14:44:44.001Z</time></trkpt><trkpt lat="43.370923213065765" lon="10.650510996539579"><ele>178.0</ele><time>2026-04-18T14:44:45.001Z</time></trkpt><trkpt lat="43.37097504371515" lon="10.65043654718007"><ele>177.99999999999997</ele><time>2026-04-18T14:44:46.001Z</time></trkpt><trkpt lat="43.371026652364705" lon="10.650362221302347"><ele>178.0</ele><time>2026-04-18T14:44:47.001Z</time></trkpt><trkpt lat="43.37107761333359" lon="10.650288780483375"><ele>178.0</ele><time>2026-04-18T14:44:48.001Z</time></trkpt><trkpt lat="43.371126618672015" lon="10.650218157970544"><ele>178.0</ele><time>2026-04-18T14:44:49.001Z</time></trkpt><trkpt lat="43.37117513864868" lon="10.650148234948412"><ele>178.0</ele><time>2026-04-18T14:44:50.001Z</time></trkpt><trkpt lat="43.37122224124648" lon="10.650079377653249"><ele>177.99999999999997</ele><time>2026-04-18T14:44:51.001Z</time></trkpt><trkpt lat="43.371256735003065" lon="10.649997019613464"><ele>178.0</ele><time>2026-04-18T14:44:52.001Z</time></trkpt><trkpt lat="43.37130223788843" lon="10.649934615683513"><ele>177.8</ele><time>2026-04-18T14:44:53.001Z</time></trkpt><trkpt lat="43.37134905528559" lon="10.649871968375146"><ele>177.60000000000002</ele><time>2026-04-18T14:44:54.001Z</time></trkpt><trkpt lat="43.371440985937795" lon="10.649769071086883"><ele>177.39999999999998</ele><time>2026-04-18T14:44:56.001Z</time></trkpt><trkpt lat="43.3715113782286" lon="10.649627479646615"><ele>177.2</ele><time>2026-04-18T14:44:58.001Z</time></trkpt><trkpt lat="43.37155278727548" lon="10.649468627019397"><ele>177.0</ele><time>2026-04-18T14:45:00.001Z</time></trkpt><trkpt lat="43.37156844440281" lon="10.64931768215777"><ele>177.0</ele><time>2026-04-18T14:45:02.001Z</time></trkpt><trkpt lat="43.37156192485927" lon="10.649191376413983"><ele>177.0</ele><time>2026-04-18T14:45:04.001Z</time></trkpt><trkpt lat="43.37158905358667" lon="10.649086080306775"><ele>177.0</ele><time>2026-04-18T14:45:07.001Z</time></trkpt><trkpt lat="43.37168711359977" lon="10.649077225645948"><ele>177.0</ele><time>2026-04-18T14:45:09.001Z</time></trkpt><trkpt lat="43.3717948132475" lon="10.64906398126314"><ele>177.0</ele><time>2026-04-18T14:45:11.001Z</time></trkpt><trkpt lat="43.37192826460119" lon="10.649059153889313"><ele>177.0</ele><time>2026-04-18T14:45:13.001Z</time></trkpt><trkpt lat="43.37200230946505" lon="10.649055744971895"><ele>177.0</ele><time>2026-04-18T14:45:14.001Z</time></trkpt><trkpt lat="43.37208002044423" lon="10.649052167265458"><ele>177.0</ele><time>2026-04-18T14:45:15.001Z</time></trkpt><trkpt lat="43.37216268866107" lon="10.649048361350092"><ele>177.0</ele><time>2026-04-18T14:45:16.001Z</time></trkpt><trkpt lat="43.372244875453234" lon="10.649022358975479"><ele>177.0</ele><time>2026-04-18T14:45:17.001Z</time></trkpt><trkpt lat="43.372328856375425" lon="10.649040713016904"><ele>177.0</ele><time>2026-04-18T14:45:18.001Z</time></trkpt><trkpt lat="43.372415125328466" lon="10.649038786317679"><ele>177.2</ele><time>2026-04-18T14:45:19.001Z</time></trkpt><trkpt lat="43.372500895469535" lon="10.649036867442144"><ele>177.39999999999998</ele><time>2026-04-18T14:45:20.001Z</time></trkpt><trkpt lat="43.372668660340565" lon="10.64902799015545"><ele>177.60000000000002</ele><time>2026-04-18T14:45:22.001Z</time></trkpt><trkpt lat="43.3727476860722" lon="10.64902228649312"><ele>177.8</ele><time>2026-04-18T14:45:23.001Z</time></trkpt><trkpt lat="43.37282878951353" lon="10.648994830887512"><ele>178.0</ele><time>2026-04-18T14:45:24.001Z</time></trkpt><trkpt lat="43.37291145070874" lon="10.649011865588356"><ele>178.0</ele><time>2026-04-18T14:45:25.001Z</time></trkpt><trkpt lat="43.3729927486112" lon="10.649009819069924"><ele>178.0</ele><time>2026-04-18T14:45:26.001Z</time></trkpt><trkpt lat="43.3730735888703" lon="10.649006737933243"><ele>178.0</ele><time>2026-04-18T14:45:27.001Z</time></trkpt><trkpt lat="43.37315142658629" lon="10.649002045552281"><ele>178.0</ele><time>2026-04-18T14:45:28.001Z</time></trkpt><trkpt lat="43.37322719374456" lon="10.648976369384677"><ele>178.0</ele><time>2026-04-18T14:45:29.001Z</time></trkpt><trkpt lat="43.373301656549245" lon="10.648973888029742"><ele>178.0</ele><time>2026-04-18T14:45:30.001Z</time></trkpt><trkpt lat="43.37337332947211" lon="10.648970916155605"><ele>178.28571428571428</ele><time>2026-04-18T14:45:31.001Z</time></trkpt><trkpt lat="43.3734466530935" lon="10.648967588191987"><ele>178.57142857142856</ele><time>2026-04-18T14:45:32.001Z</time></trkpt><trkpt lat="43.37352239512087" lon="10.648958634423748"><ele>178.85714285714283</ele><time>2026-04-18T14:45:33.001Z</time></trkpt><trkpt lat="43.37360037504437" lon="10.648954005313517"><ele>179.14285714285714</ele><time>2026-04-18T14:45:34.001Z</time></trkpt><trkpt lat="43.37367995291378" lon="10.648946246995912"><ele>179.42857142857144</ele><time>2026-04-18T14:45:35.001Z</time></trkpt><trkpt lat="43.37375335925321" lon="10.648941716875385"><ele>179.7142857142857</ele><time>2026-04-18T14:45:36.002Z</time></trkpt><trkpt lat="43.37381933099267" lon="10.648937455696148"><ele>180.0</ele><time>2026-04-18T14:45:37.002Z</time></trkpt><trkpt lat="43.3739362646865" lon="10.648948174497106"><ele>179.0</ele><time>2026-04-18T14:45:39.002Z</time></trkpt><trkpt lat="43.37403335723946" lon="10.648913223998917"><ele>178.0</ele><time>2026-04-18T14:45:41.002Z</time></trkpt><trkpt lat="43.37417163392066" lon="10.64880532619434"><ele>177.0</ele><time>2026-04-18T14:45:44.002Z</time></trkpt><trkpt lat="43.37426635016573" lon="10.64871890175966"><ele>176.0</ele><time>2026-04-18T14:45:46.002Z</time></trkpt><trkpt lat="43.37436217933793" lon="10.648633120798491"><ele>176.25</ele><time>2026-04-18T14:45:48.002Z</time></trkpt><trkpt lat="43.37445963101085" lon="10.648549580449604"><ele>176.5</ele><time>2026-04-18T14:45:50.002Z</time></trkpt><trkpt lat="43.37456042297062" lon="10.648457030926998"><ele>176.75</ele><time>2026-04-18T14:45:52Z</time></trkpt><trkpt lat="43.3747107243637" lon="10.648316727324831"><ele>177.0</ele><time>2026-04-18T14:45:55Z</time></trkpt><trkpt lat="43.37481604534357" lon="10.648217367904994"><ele>177.0</ele><time>2026-04-18T14:45:57Z</time></trkpt><trkpt lat="43.3749281564009" lon="10.648113361812637"><ele>177.0</ele><time>2026-04-18T14:45:59Z</time></trkpt><trkpt lat="43.374989405739" lon="10.64805820314966"><ele>177.0</ele><time>2026-04-18T14:46:00Z</time></trkpt><trkpt lat="43.37505211365588" lon="10.648001539067563"><ele>177.0</ele><time>2026-04-18T14:46:01Z</time></trkpt><trkpt lat="43.37511122123396" lon="10.647945548261175"><ele>177.0</ele><time>2026-04-18T14:46:02Z</time></trkpt><trkpt lat="43.375171644409285" lon="10.647890725031163"><ele>177.0</ele><time>2026-04-18T14:46:03Z</time></trkpt><trkpt lat="43.375235394978354" lon="10.6478356549537"><ele>177.0</ele><time>2026-04-18T14:46:04Z</time></trkpt><trkpt lat="43.37530353652716" lon="10.647810322679373"><ele>177.0</ele><time>2026-04-18T14:46:05Z</time></trkpt><trkpt lat="43.37538206496243" lon="10.647802651701994"><ele>177.0</ele><time>2026-04-18T14:46:06Z</time></trkpt><trkpt lat="43.37546552233704" lon="10.647802051552405"><ele>177.0</ele><time>2026-04-18T14:46:07Z</time></trkpt><trkpt lat="43.375551079750274" lon="10.647802628173407"><ele>177.0</ele><time>2026-04-18T14:46:08Z</time></trkpt><trkpt lat="43.375640716151935" lon="10.64780904750877"><ele>177.0</ele><time>2026-04-18T14:46:09Z</time></trkpt><trkpt lat="43.37573222635313" lon="10.647799808694302"><ele>176.83333333333334</ele><time>2026-04-18T14:46:10Z</time></trkpt><trkpt lat="43.3758223799667" lon="10.647811605581124"><ele>176.66666666666666</ele><time>2026-04-18T14:46:11Z</time></trkpt><trkpt lat="43.375905720303344" lon="10.647838456592146"><ele>176.5</ele><time>2026-04-18T14:46:12Z</time></trkpt><trkpt lat="43.37598883557266" lon="10.647846822851152"><ele>176.33333333333331</ele><time>2026-04-18T14:46:13Z</time></trkpt><trkpt lat="43.376070915803346" lon="10.647832090207832"><ele>176.16666666666666</ele><time>2026-04-18T14:46:14Z</time></trkpt><trkpt lat="43.37614178011481" lon="10.647843920673111"><ele>176.0</ele><time>2026-04-18T14:46:15Z</time></trkpt><trkpt lat="43.37620793207025" lon="10.64782735622651"><ele>176.0</ele><time>2026-04-18T14:46:16Z</time></trkpt><trkpt lat="43.3762723255862" lon="10.647795333489539"><ele>176.0</ele><time>2026-04-18T14:46:17Z</time></trkpt><trkpt lat="43.37633226094441" lon="10.647740700681558"><ele>176.0</ele><time>2026-04-18T14:46:18Z</time></trkpt><trkpt lat="43.37639293561373" lon="10.647677724462701"><ele>176.0</ele><time>2026-04-18T14:46:19Z</time></trkpt><trkpt lat="43.37646665278902" lon="10.647637479529681"><ele>176.0</ele><time>2026-04-18T14:46:20Z</time></trkpt><trkpt lat="43.37655242386272" lon="10.64763391039554"><ele>176.0</ele><time>2026-04-18T14:46:21Z</time></trkpt><trkpt lat="43.37663893703489" lon="10.647671192128476"><ele>179.0</ele><time>2026-04-18T14:46:22Z</time></trkpt><trkpt lat="43.376729109317054" lon="10.647672084964588"><ele>182.0</ele><time>2026-04-18T14:46:23Z</time></trkpt><trkpt lat="43.37681004621462" lon="10.6476963840787"><ele>185.0</ele><time>2026-04-18T14:46:24Z</time></trkpt><trkpt lat="43.37689009861025" lon="10.64769675769354"><ele>188.0</ele><time>2026-04-18T14:46:25Z</time></trkpt><trkpt lat="43.3769717672473" lon="10.647684589284223"><ele>191.00000000000003</ele><time>2026-04-18T14:46:26Z</time></trkpt><trkpt lat="43.37705511767406" lon="10.647659364908952"><ele>194.0</ele><time>2026-04-18T14:46:27Z</time></trkpt><trkpt lat="43.37714006356414" lon="10.647642069956929"><ele>193.33333333333334</ele><time>2026-04-18T14:46:28Z</time></trkpt><trkpt lat="43.37722482810327" lon="10.647616496656786"><ele>192.66666666666669</ele><time>2026-04-18T14:46:29Z</time></trkpt><trkpt lat="43.37730787552062" lon="10.647594483686262"><ele>192.0</ele><time>2026-04-18T14:46:30Z</time></trkpt><trkpt lat="43.37739034682864" lon="10.647571633204217"><ele>191.33333333333334</ele><time>2026-04-18T14:46:31Z</time></trkpt><trkpt lat="43.377472454255035" lon="10.647549285911204"><ele>190.66666666666669</ele><time>2026-04-18T14:46:32Z</time></trkpt><trkpt lat="43.377556239964214" lon="10.64753254686469"><ele>190.0</ele><time>2026-04-18T14:46:33Z</time></trkpt><trkpt lat="43.37763814845738" lon="10.647521481204924"><ele>190.0</ele><time>2026-04-18T14:46:34Z</time></trkpt><trkpt lat="43.37771486269341" lon="10.64751094342926"><ele>190.0</ele><time>2026-04-18T14:46:35Z</time></trkpt><trkpt lat="43.377780126836306" lon="10.647467501123764"><ele>190.0</ele><time>2026-04-18T14:46:36Z</time></trkpt><trkpt lat="43.377844465591394" lon="10.647415207484629"><ele>190.0</ele><time>2026-04-18T14:46:37.001Z</time></trkpt><trkpt lat="43.37790475858268" lon="10.647351136005978"><ele>190.0</ele><time>2026-04-18T14:46:38.001Z</time></trkpt><trkpt lat="43.3779659182929" lon="10.647278613041793"><ele>190.0</ele><time>2026-04-18T14:46:39.001Z</time></trkpt><trkpt lat="43.37802815947178" lon="10.647202232099865"><ele>188.66666666666669</ele><time>2026-04-18T14:46:40.001Z</time></trkpt><trkpt lat="43.37809572788903" lon="10.647126874933925"><ele>187.33333333333334</ele><time>2026-04-18T14:46:41.001Z</time></trkpt><trkpt lat="43.37816807405836" lon="10.647057533784468"><ele>186.0</ele><time>2026-04-18T14:46:42.001Z</time></trkpt><trkpt lat="43.37824406048827" lon="10.646992774520784"><ele>184.66666666666666</ele><time>2026-04-18T14:46:43.001Z</time></trkpt><trkpt lat="43.37832817916169" lon="10.646947084971346"><ele>183.33333333333331</ele><time>2026-04-18T14:46:44.001Z</time></trkpt><trkpt lat="43.37839865901927" lon="10.646873699036961"><ele>182.0</ele><time>2026-04-18T14:46:45.001Z</time></trkpt><trkpt lat="43.3784602712394" lon="10.646793401144723"><ele>182.66666666666666</ele><time>2026-04-18T14:46:46.001Z</time></trkpt><trkpt lat="43.378514670079866" lon="10.646698113603321"><ele>183.33333333333331</ele><time>2026-04-18T14:46:47.001Z</time></trkpt><trkpt lat="43.378582510676445" lon="10.646629979705713"><ele>184.0</ele><time>2026-04-18T14:46:48.001Z</time></trkpt><trkpt lat="43.37866960878804" lon="10.646600673614934"><ele>184.66666666666666</ele><time>2026-04-18T14:46:49.001Z</time></trkpt><trkpt lat="43.37875308095565" lon="10.646554260605997"><ele>185.33333333333334</ele><time>2026-04-18T14:46:50.001Z</time></trkpt><trkpt lat="43.378833436799326" lon="10.646499166477813"><ele>186.0</ele><time>2026-04-18T14:46:51.001Z</time></trkpt><trkpt lat="43.37891301803274" lon="10.646449313782318"><ele>186.0</ele><time>2026-04-18T14:46:52.001Z</time></trkpt><trkpt lat="43.37899328971076" lon="10.646403144335066"><ele>186.0</ele><time>2026-04-18T14:46:53.001Z</time></trkpt><trkpt lat="43.37907219547837" lon="10.646397621038894"><ele>186.0</ele><time>2026-04-18T14:46:54.001Z</time></trkpt><trkpt lat="43.379144786238186" lon="10.64635139139995"><ele>186.0</ele><time>2026-04-18T14:46:55.001Z</time></trkpt><trkpt lat="43.379224436909" lon="10.646336076110511"><ele>186.0</ele><time>2026-04-18T14:46:56.001Z</time></trkpt><trkpt lat="43.379311672549974" lon="10.646323017813001"><ele>186.0</ele><time>2026-04-18T14:46:57.001Z</time></trkpt><trkpt lat="43.379391557423595" lon="10.646320557753969"><ele>186.0</ele><time>2026-04-18T14:46:58.001Z</time></trkpt><trkpt lat="43.379471593833244" lon="10.646311799716392"><ele>186.0</ele><time>2026-04-18T14:46:59.001Z</time></trkpt><trkpt lat="43.3795517579044" lon="10.646280602904367"><ele>186.0</ele><time>2026-04-18T14:47:00.001Z</time></trkpt><trkpt lat="43.379635135765646" lon="10.646241037044057"><ele>186.0</ele><time>2026-04-18T14:47:01.001Z</time></trkpt><trkpt lat="43.37970197315047" lon="10.646172687331207"><ele>186.0</ele><time>2026-04-18T14:47:02.001Z</time></trkpt><trkpt lat="43.37978229091405" lon="10.64612150345813"><ele>186.0</ele><time>2026-04-18T14:47:03.001Z</time></trkpt><trkpt lat="43.37986603417229" lon="10.64607259518201"><ele>189.0</ele><time>2026-04-18T14:47:04.001Z</time></trkpt><trkpt lat="43.37995640910268" lon="10.646038568622586"><ele>192.0</ele><time>2026-04-18T14:47:05.001Z</time></trkpt><trkpt lat="43.380049135464624" lon="10.646019803326743"><ele>195.0</ele><time>2026-04-18T14:47:06.001Z</time></trkpt><trkpt lat="43.380145019167315" lon="10.646037706072077"><ele>198.0</ele><time>2026-04-18T14:47:07.001Z</time></trkpt><trkpt lat="43.38023853704651" lon="10.646023500823498"><ele>201.0</ele><time>2026-04-18T14:47:08.001Z</time></trkpt><trkpt lat="43.380331471517174" lon="10.645988433129652"><ele>201.0</ele><time>2026-04-18T14:47:09.001Z</time></trkpt><trkpt lat="43.38041857703966" lon="10.645989553474626"><ele>201.0</ele><time>2026-04-18T14:47:10.001Z</time></trkpt><trkpt lat="43.38049715213727" lon="10.645987732388237"><ele>201.0</ele><time>2026-04-18T14:47:11.001Z</time></trkpt><trkpt lat="43.3805679980308" lon="10.64599632763358"><ele>201.0</ele><time>2026-04-18T14:47:12.001Z</time></trkpt><trkpt lat="43.380634122573426" lon="10.645997266142565"><ele>201.0</ele><time>2026-04-18T14:47:13.001Z</time></trkpt><trkpt lat="43.38069894329563" lon="10.645968470100964"><ele>201.0</ele><time>2026-04-18T14:47:14.001Z</time></trkpt><trkpt lat="43.380763280073566" lon="10.645926735695873"><ele>201.0</ele><time>2026-04-18T14:47:15.001Z</time></trkpt><trkpt lat="43.38081703065226" lon="10.645863886029808"><ele>200.0</ele><time>2026-04-18T14:47:16.001Z</time></trkpt><trkpt lat="43.38086637694475" lon="10.64579092088305"><ele>199.0</ele><time>2026-04-18T14:47:17.001Z</time></trkpt><trkpt lat="43.38091107790052" lon="10.64571010488157"><ele>198.0</ele><time>2026-04-18T14:47:18.001Z</time></trkpt><trkpt lat="43.380949357065354" lon="10.645620107096635"><ele>197.0</ele><time>2026-04-18T14:47:19.001Z</time></trkpt><trkpt lat="43.380981693628094" lon="10.645528905360003"><ele>196.0</ele><time>2026-04-18T14:47:20.001Z</time></trkpt><trkpt lat="43.381021796800724" lon="10.64545315094556"><ele>195.0</ele><time>2026-04-18T14:47:21.001Z</time></trkpt><trkpt lat="43.381032206696474" lon="10.645365757241834"><ele>194.0</ele><time>2026-04-18T14:47:22.001Z</time></trkpt><trkpt lat="43.381111106818814" lon="10.645302081045545"><ele>194.00000000000003</ele><time>2026-04-18T14:47:24.001Z</time></trkpt><trkpt lat="43.38120120479571" lon="10.645340685001724"><ele>194.0</ele><time>2026-04-18T14:47:26.001Z</time></trkpt><trkpt lat="43.381313176689126" lon="10.645434761874123"><ele>194.0</ele><time>2026-04-18T14:47:28.001Z</time></trkpt><trkpt lat="43.38136943408552" lon="10.64550144729445"><ele>194.0</ele><time>2026-04-18T14:47:29.001Z</time></trkpt><trkpt lat="43.381440179326916" lon="10.645537913497394"><ele>194.00000000000003</ele><time>2026-04-18T14:47:30.001Z</time></trkpt><trkpt lat="43.38150114604732" lon="10.645591059917788"><ele>194.0</ele><time>2026-04-18T14:47:31.001Z</time></trkpt><trkpt lat="43.381577614576926" lon="10.645610744203434"><ele>193.85714285714286</ele><time>2026-04-18T14:47:32.001Z</time></trkpt><trkpt lat="43.38164747149517" lon="10.64560184553486"><ele>193.71428571428572</ele><time>2026-04-18T14:47:33.001Z</time></trkpt><trkpt lat="43.38171721776199" lon="10.645555106041972"><ele>193.57142857142858</ele><time>2026-04-18T14:47:34.001Z</time></trkpt><trkpt lat="43.38176838436511" lon="10.645479727459488"><ele>193.42857142857144</ele><time>2026-04-18T14:47:35.001Z</time></trkpt><trkpt lat="43.38180004580962" lon="10.645394715626791"><ele>193.28571428571428</ele><time>2026-04-18T14:47:36.001Z</time></trkpt><trkpt lat="43.38184412240396" lon="10.645323698446946"><ele>193.14285714285717</ele><time>2026-04-18T14:47:37.001Z</time></trkpt><trkpt lat="43.38188859208528" lon="10.645250269237632"><ele>193.0</ele><time>2026-04-18T14:47:38.001Z</time></trkpt><trkpt lat="43.381934394922666" lon="10.6451782902459"><ele>195.16666666666666</ele><time>2026-04-18T14:47:39.001Z</time></trkpt><trkpt lat="43.38198150754301" lon="10.645107777448533"><ele>197.33333333333331</ele><time>2026-04-18T14:47:40.001Z</time></trkpt><trkpt lat="43.382023280131506" lon="10.645042202661019"><ele>199.5</ele><time>2026-04-18T14:47:41.001Z</time></trkpt><trkpt lat="43.38212339658999" lon="10.644951064471027"><ele>201.66666666666669</ele><time>2026-04-18T14:47:43.001Z</time></trkpt><trkpt lat="43.38222194454057" lon="10.644907024388074"><ele>203.83333333333334</ele><time>2026-04-18T14:47:45.001Z</time></trkpt><trkpt lat="43.38228508095644" lon="10.644899350529416"><ele>206.0</ele><time>2026-04-18T14:47:46.001Z</time></trkpt><trkpt lat="43.38235848039375" lon="10.644863123493712"><ele>206.33333333333334</ele><time>2026-04-18T14:47:47.001Z</time></trkpt><trkpt lat="43.38243575833137" lon="10.644832219790382"><ele>206.66666666666669</ele><time>2026-04-18T14:47:48.001Z</time></trkpt><trkpt lat="43.382521758167606" lon="10.644803556621001"><ele>207.0</ele><time>2026-04-18T14:47:49.001Z</time></trkpt><trkpt lat="43.382598928802466" lon="10.644713965850325"><ele>207.33333333333331</ele><time>2026-04-18T14:47:50.001Z</time></trkpt><trkpt lat="43.382664011361584" lon="10.644643684440487"><ele>207.66666666666666</ele><time>2026-04-18T14:47:51.002Z</time></trkpt><trkpt lat="43.3827263668854" lon="10.644585390238078"><ele>208.0</ele><time>2026-04-18T14:47:52.002Z</time></trkpt><trkpt lat="43.38276574080818" lon="10.644503597546253"><ele>210.60000000000002</ele><time>2026-04-18T14:47:53.002Z</time></trkpt><trkpt lat="43.382794357441774" lon="10.6443497165318"><ele>213.20000000000002</ele><time>2026-04-18T14:47:55.002Z</time></trkpt><trkpt lat="43.38281968658568" lon="10.644202422190475"><ele>215.8</ele><time>2026-04-18T14:47:57.002Z</time></trkpt><trkpt lat="43.38285656660126" lon="10.64406647639862"><ele>218.4</ele><time>2026-04-18T14:47:59Z</time></trkpt><trkpt lat="43.38290689421726" lon="10.643925362078383"><ele>221.0</ele><time>2026-04-18T14:48:01Z</time></trkpt><trkpt lat="43.38296373803426" lon="10.643825759568255"><ele>219.8</ele><time>2026-04-18T14:48:03Z</time></trkpt><trkpt lat="43.38306649297282" lon="10.643807338524006"><ele>218.60000000000002</ele><time>2026-04-18T14:48:05Z</time></trkpt><trkpt lat="43.38319066036952" lon="10.643801639500838"><ele>217.4</ele><time>2026-04-18T14:48:07Z</time></trkpt><trkpt lat="43.383254878970455" lon="10.643785322713882"><ele>216.2</ele><time>2026-04-18T14:48:08Z</time></trkpt><trkpt lat="43.38331478845396" lon="10.643747816534761"><ele>215.0</ele><time>2026-04-18T14:48:09Z</time></trkpt><trkpt lat="43.383377068287636" lon="10.64361894043265"><ele>217.8</ele><time>2026-04-18T14:48:11Z</time></trkpt><trkpt lat="43.38342179541381" lon="10.643504831350878"><ele>220.6</ele><time>2026-04-18T14:48:13Z</time></trkpt><trkpt lat="43.38348936804489" lon="10.643435516362851"><ele>223.39999999999998</ele><time>2026-04-18T14:48:15Z</time></trkpt><trkpt lat="43.38357047460162" lon="10.643359811334994"><ele>226.2</ele><time>2026-04-18T14:48:17Z</time></trkpt><trkpt lat="43.383649028511876" lon="10.643228285495239"><ele>229.0</ele><time>2026-04-18T14:48:19Z</time></trkpt><trkpt lat="43.38369993330246" lon="10.643073090156665"><ele>229.0</ele><time>2026-04-18T14:48:21Z</time></trkpt><trkpt lat="43.38375072787223" lon="10.642929294705752"><ele>228.99999999999997</ele><time>2026-04-18T14:48:23Z</time></trkpt><trkpt lat="43.383811620091286" lon="10.642808794161807"><ele>228.99999999999997</ele><time>2026-04-18T14:48:25Z</time></trkpt><trkpt lat="43.383911658791966" lon="10.64273023960869"><ele>229.0</ele><time>2026-04-18T14:48:27Z</time></trkpt><trkpt lat="43.383964312251194" lon="10.64267528904571"><ele>229.0</ele><time>2026-04-18T14:48:28Z</time></trkpt><trkpt lat="43.384027347332776" lon="10.642653123907417"><ele>230.33333333333331</ele><time>2026-04-18T14:48:29Z</time></trkpt><trkpt lat="43.384087719241315" lon="10.642612283195296"><ele>231.66666666666666</ele><time>2026-04-18T14:48:30Z</time></trkpt><trkpt lat="43.38414347695252" lon="10.642562152347072"><ele>233.0</ele><time>2026-04-18T14:48:31Z</time></trkpt><trkpt lat="43.38419120977293" lon="10.64250334904242"><ele>234.33333333333331</ele><time>2026-04-18T14:48:32Z</time></trkpt><trkpt lat="43.38427911033352" lon="10.642387466947046"><ele>235.66666666666666</ele><time>2026-04-18T14:48:34Z</time></trkpt><trkpt lat="43.38435910147632" lon="10.642276238685078"><ele>237.0</ele><time>2026-04-18T14:48:36Z</time></trkpt><trkpt lat="43.38446851653846" lon="10.642199645625665"><ele>236.99999999999997</ele><time>2026-04-18T14:48:38Z</time></trkpt><trkpt lat="43.38452609726384" lon="10.64215960603088"><ele>237.0</ele><time>2026-04-18T14:48:39Z</time></trkpt><trkpt lat="43.38457847004564" lon="10.642097576100976"><ele>236.99999999999997</ele><time>2026-04-18T14:48:40Z</time></trkpt><trkpt lat="43.384643293273" lon="10.642071716333154"><ele>236.99999999999997</ele><time>2026-04-18T14:48:41Z</time></trkpt><trkpt lat="43.38470065766341" lon="10.642018606746321"><ele>237.0</ele><time>2026-04-18T14:48:42Z</time></trkpt><trkpt lat="43.38475469452268" lon="10.641965175490277"><ele>236.99999999999997</ele><time>2026-04-18T14:48:43Z</time></trkpt><trkpt lat="43.38480677171598" lon="10.641913681909132"><ele>236.99999999999997</ele><time>2026-04-18T14:48:44Z</time></trkpt><trkpt lat="43.38489811390007" lon="10.641795955556937"><ele>239.0</ele><time>2026-04-18T14:48:46Z</time></trkpt><trkpt lat="43.38500585764448" lon="10.641718487873844"><ele>241.0</ele><time>2026-04-18T14:48:48Z</time></trkpt><trkpt lat="43.385110768718505" lon="10.641618964909018"><ele>243.0</ele><time>2026-04-18T14:48:50Z</time></trkpt><trkpt lat="43.38520754896491" lon="10.641528305011791"><ele>245.0</ele><time>2026-04-18T14:48:52Z</time></trkpt><trkpt lat="43.38527586479631" lon="10.641438853461171"><ele>245.00000000000003</ele><time>2026-04-18T14:48:54.001Z</time></trkpt><trkpt lat="43.385355207325055" lon="10.641397789004918"><ele>245.0</ele><time>2026-04-18T14:48:56.001Z</time></trkpt><trkpt lat="43.385435382970876" lon="10.64136841032154"><ele>245.0</ele><time>2026-04-18T14:48:58.001Z</time></trkpt><trkpt lat="43.385525625276195" lon="10.641398360697712"><ele>245.0</ele><time>2026-04-18T14:49:00.001Z</time></trkpt><trkpt lat="43.385567644474946" lon="10.641462903838617"><ele>245.00000000000003</ele><time>2026-04-18T14:49:01.001Z</time></trkpt><trkpt lat="43.385628601793435" lon="10.641501889502184"><ele>245.0</ele><time>2026-04-18T14:49:02.001Z</time></trkpt><trkpt lat="43.38566237409612" lon="10.641583545434608"><ele>246.0</ele><time>2026-04-18T14:49:03.001Z</time></trkpt><trkpt lat="43.38569668413073" lon="10.641657059700776"><ele>247.0</ele><time>2026-04-18T14:49:04.001Z</time></trkpt><trkpt lat="43.385725191397135" lon="10.6417465205984"><ele>248.0</ele><time>2026-04-18T14:49:05.001Z</time></trkpt><trkpt lat="43.385763255928126" lon="10.641824008702844"><ele>249.0</ele><time>2026-04-18T14:49:06.001Z</time></trkpt><trkpt lat="43.38577938374473" lon="10.64191204338377"><ele>250.0</ele><time>2026-04-18T14:49:07.001Z</time></trkpt><trkpt lat="43.38579095633986" lon="10.642000508540226"><ele>251.0</ele><time>2026-04-18T14:49:08.001Z</time></trkpt><trkpt lat="43.38578316887331" lon="10.642107134475099"><ele>252.0</ele><time>2026-04-18T14:49:09.001Z</time></trkpt><trkpt lat="43.38577524252743" lon="10.642202563280525"><ele>252.0</ele><time>2026-04-18T14:49:10.001Z</time></trkpt><trkpt lat="43.38576412699979" lon="10.642305610785149"><ele>252.0</ele><time>2026-04-18T14:49:11.001Z</time></trkpt><trkpt lat="43.38574635533425" lon="10.642418787381473"><ele>252.0</ele><time>2026-04-18T14:49:12.001Z</time></trkpt><trkpt lat="43.38573179581498" lon="10.642518107969138"><ele>252.0</ele><time>2026-04-18T14:49:13.001Z</time></trkpt><trkpt lat="43.38571892223839" lon="10.642611533711115"><ele>252.0</ele><time>2026-04-18T14:49:14.001Z</time></trkpt><trkpt lat="43.385718453637175" lon="10.642793601739442"><ele>252.0</ele><time>2026-04-18T14:49:16.001Z</time></trkpt><trkpt lat="43.385726657029664" lon="10.64289810965063"><ele>252.0</ele><time>2026-04-18T14:49:17.001Z</time></trkpt><trkpt lat="43.38574951988412" lon="10.64299620259146"><ele>252.0</ele><time>2026-04-18T14:49:18.001Z</time></trkpt><trkpt lat="43.385776876613185" lon="10.643086860256467"><ele>252.0</ele><time>2026-04-18T14:49:19.001Z</time></trkpt><trkpt lat="43.38583445348368" lon="10.643227377928127"><ele>252.0</ele><time>2026-04-18T14:49:21.001Z</time></trkpt><trkpt lat="43.38589495912032" lon="10.643344927422142"><ele>252.0</ele><time>2026-04-18T14:49:23.001Z</time></trkpt><trkpt lat="43.38599837691555" lon="10.64339292197436"><ele>252.0</ele><time>2026-04-18T14:49:25.001Z</time></trkpt><trkpt lat="43.38612498367476" lon="10.643397109693495"><ele>252.0</ele><time>2026-04-18T14:49:27.001Z</time></trkpt><trkpt lat="43.38619160908808" lon="10.643411998597704"><ele>252.0</ele><time>2026-04-18T14:49:28.001Z</time></trkpt><trkpt lat="43.38626281145349" lon="10.64342463692675"><ele>252.0</ele><time>2026-04-18T14:49:29.001Z</time></trkpt><trkpt lat="43.386336030537294" lon="10.64343552572893"><ele>252.0</ele><time>2026-04-18T14:49:30.001Z</time></trkpt><trkpt lat="43.3864087580814" lon="10.643448375842382"><ele>252.0</ele><time>2026-04-18T14:49:31.001Z</time></trkpt><trkpt lat="43.38648110295079" lon="10.643459112870984"><ele>253.14285714285714</ele><time>2026-04-18T14:49:32.001Z</time></trkpt><trkpt lat="43.386553872230266" lon="10.643471150911164"><ele>254.28571428571428</ele><time>2026-04-18T14:49:33.001Z</time></trkpt><trkpt lat="43.386626647335845" lon="10.643481760548706"><ele>255.42857142857144</ele><time>2026-04-18T14:49:34.001Z</time></trkpt><trkpt lat="43.386698774715455" lon="10.643493868739645"><ele>256.57142857142856</ele><time>2026-04-18T14:49:35.001Z</time></trkpt><trkpt lat="43.38677357475091" lon="10.643506200507746"><ele>257.7142857142857</ele><time>2026-04-18T14:49:36.001Z</time></trkpt><trkpt lat="43.38684658677515" lon="10.643519720570167"><ele>258.8571428571429</ele><time>2026-04-18T14:49:37.001Z</time></trkpt><trkpt lat="43.38692265737339" lon="10.643533338263884"><ele>260.0</ele><time>2026-04-18T14:49:38.001Z</time></trkpt><trkpt lat="43.38700059300166" lon="10.643544310751254"><ele>260.0</ele><time>2026-04-18T14:49:39.001Z</time></trkpt><trkpt lat="43.387081700215546" lon="10.643555171185815"><ele>260.0</ele><time>2026-04-18T14:49:40.001Z</time></trkpt><trkpt lat="43.387162424398056" lon="10.643567780578229"><ele>260.0</ele><time>2026-04-18T14:49:41.001Z</time></trkpt><trkpt lat="43.387243081967206" lon="10.64357889186617"><ele>260.0</ele><time>2026-04-18T14:49:42.001Z</time></trkpt><trkpt lat="43.38732278326742" lon="10.643592994927861"><ele>260.0</ele><time>2026-04-18T14:49:43.001Z</time></trkpt><trkpt lat="43.38739718962402" lon="10.643611716636899"><ele>260.0</ele><time>2026-04-18T14:49:44.001Z</time></trkpt><trkpt lat="43.38746490654238" lon="10.64364209129412"><ele>260.2</ele><time>2026-04-18T14:49:45.001Z</time></trkpt><trkpt lat="43.387566451797866" lon="10.64369432010691"><ele>260.4</ele><time>2026-04-18T14:49:47.001Z</time></trkpt><trkpt lat="43.387633112022655" lon="10.643655499529578"><ele>260.6</ele><time>2026-04-18T14:49:49.001Z</time></trkpt><trkpt lat="43.387661588922185" lon="10.643513271088908"><ele>260.8</ele><time>2026-04-18T14:49:52.001Z</time></trkpt><trkpt lat="43.387661416081514" lon="10.643381972281535"><ele>261.0</ele><time>2026-04-18T14:49:54.001Z</time></trkpt><trkpt lat="43.38767349022333" lon="10.643248725486531"><ele>262.6</ele><time>2026-04-18T14:49:56.001Z</time></trkpt><trkpt lat="43.38767732217864" lon="10.64312315193907"><ele>264.20000000000005</ele><time>2026-04-18T14:49:58.001Z</time></trkpt><trkpt lat="43.38768665511876" lon="10.643002962716329"><ele>265.79999999999995</ele><time>2026-04-18T14:50:00.001Z</time></trkpt><trkpt lat="43.38769271951828" lon="10.642885698960184"><ele>267.4</ele><time>2026-04-18T14:50:02.001Z</time></trkpt><trkpt lat="43.38769905621401" lon="10.64275931232239"><ele>269.0</ele><time>2026-04-18T14:50:04Z</time></trkpt><trkpt lat="43.38770922597909" lon="10.642620276062074"><ele>270.2</ele><time>2026-04-18T14:50:06Z</time></trkpt><trkpt lat="43.387716564285796" lon="10.642476575825357"><ele>271.4</ele><time>2026-04-18T14:50:08Z</time></trkpt><trkpt lat="43.387723930283364" lon="10.642323847891236"><ele>272.6</ele><time>2026-04-18T14:50:10Z</time></trkpt><trkpt lat="43.38773776091068" lon="10.642182687231601"><ele>273.8</ele><time>2026-04-18T14:50:12Z</time></trkpt><trkpt lat="43.38776185067731" lon="10.642051437961975"><ele>275.0</ele><time>2026-04-18T14:50:14Z</time></trkpt><trkpt lat="43.387830228486784" lon="10.641941187091088"><ele>275.8</ele><time>2026-04-18T14:50:16Z</time></trkpt><trkpt lat="43.387930345770684" lon="10.64188772106116"><ele>276.6</ele><time>2026-04-18T14:50:18Z</time></trkpt><trkpt lat="43.38803636996843" lon="10.641908402034472"><ele>277.4</ele><time>2026-04-18T14:50:20Z</time></trkpt><trkpt lat="43.38814370913556" lon="10.641947206576942"><ele>278.2</ele><time>2026-04-18T14:50:22Z</time></trkpt><trkpt lat="43.388254683621525" lon="10.641973295890143"><ele>279.0</ele><time>2026-04-18T14:50:24Z</time></trkpt><trkpt lat="43.38836047874758" lon="10.642005306092315"><ele>280.59999999999997</ele><time>2026-04-18T14:50:26Z</time></trkpt><trkpt lat="43.38846572447727" lon="10.642039057990042"><ele>282.2</ele><time>2026-04-18T14:50:28Z</time></trkpt><trkpt lat="43.38856810553589" lon="10.642068301407612"><ele>283.79999999999995</ele><time>2026-04-18T14:50:30Z</time></trkpt><trkpt lat="43.38866430603056" lon="10.64209543733935"><ele>285.4</ele><time>2026-04-18T14:50:32Z</time></trkpt><trkpt lat="43.38875908677142" lon="10.642103077728269"><ele>287.0</ele><time>2026-04-18T14:50:34Z</time></trkpt><trkpt lat="43.38885768970326" lon="10.642082987419744"><ele>288.4</ele><time>2026-04-18T14:50:36Z</time></trkpt><trkpt lat="43.38895308338607" lon="10.642052842317417"><ele>289.79999999999995</ele><time>2026-04-18T14:50:38Z</time></trkpt><trkpt lat="43.38906151409304" lon="10.641998706867936"><ele>291.2</ele><time>2026-04-18T14:50:40Z</time></trkpt><trkpt lat="43.3891819001957" lon="10.641940586666145"><ele>292.59999999999997</ele><time>2026-04-18T14:50:42Z</time></trkpt><trkpt lat="43.38924900710192" lon="10.64192115031197"><ele>294.0</ele><time>2026-04-18T14:50:43Z</time></trkpt><trkpt lat="43.389312532105784" lon="10.641891727478622"><ele>296.14285714285717</ele><time>2026-04-18T14:50:44Z</time></trkpt><trkpt lat="43.38938955821628" lon="10.641874076708229"><ele>298.2857142857143</ele><time>2026-04-18T14:50:45Z</time></trkpt><trkpt lat="43.3894596994799" lon="10.641880164544126"><ele>300.42857142857144</ele><time>2026-04-18T14:50:46Z</time></trkpt><trkpt lat="43.38952403906246" lon="10.641887537875931"><ele>302.57142857142856</ele><time>2026-04-18T14:50:47Z</time></trkpt><trkpt lat="43.38959227543891" lon="10.641885089910735"><ele>304.7142857142857</ele><time>2026-04-18T14:50:48Z</time></trkpt><trkpt lat="43.38966820791993" lon="10.64187402107026"><ele>306.8571428571429</ele><time>2026-04-18T14:50:49Z</time></trkpt><trkpt lat="43.38974020847357" lon="10.641846977400622"><ele>309.0</ele><time>2026-04-18T14:50:50Z</time></trkpt><trkpt lat="43.38981415105123" lon="10.641824924856488"><ele>309.8333333333333</ele><time>2026-04-18T14:50:51Z</time></trkpt><trkpt lat="43.389893797484866" lon="10.641839937144988"><ele>310.6666666666667</ele><time>2026-04-18T14:50:52Z</time></trkpt><trkpt lat="43.38996043436133" lon="10.641874142331755"><ele>311.5</ele><time>2026-04-18T14:50:53Z</time></trkpt><trkpt lat="43.39001939503527" lon="10.641928866930467"><ele>312.33333333333337</ele><time>2026-04-18T14:50:54Z</time></trkpt><trkpt lat="43.39008480004332" lon="10.641949063947012"><ele>313.1666666666667</ele><time>2026-04-18T14:50:55Z</time></trkpt><trkpt lat="43.390149418572484" lon="10.64195532339554"><ele>314.0</ele><time>2026-04-18T14:50:56Z</time></trkpt><trkpt lat="43.390275962143285" lon="10.641983915391089"><ele>312.83333333333337</ele><time>2026-04-18T14:50:58Z</time></trkpt><trkpt lat="43.39034844468005" lon="10.641992770261114"><ele>311.6666666666667</ele><time>2026-04-18T14:50:59Z</time></trkpt><trkpt lat="43.39042510537629" lon="10.642001161108"><ele>310.5</ele><time>2026-04-18T14:51:00Z</time></trkpt><trkpt lat="43.390500479053024" lon="10.64201298238195"><ele>309.3333333333333</ele><time>2026-04-18T14:51:01.001Z</time></trkpt><trkpt lat="43.390583785003926" lon="10.642024034264825"><ele>308.16666666666663</ele><time>2026-04-18T14:51:02.001Z</time></trkpt><trkpt lat="43.39066417193321" lon="10.642031851664811"><ele>307.0</ele><time>2026-04-18T14:51:03.001Z</time></trkpt><trkpt lat="43.39073980004181" lon="10.642038408958253"><ele>306.99999999999994</ele><time>2026-04-18T14:51:04.001Z</time></trkpt><trkpt lat="43.39081965259916" lon="10.64202997648751"><ele>307.0</ele><time>2026-04-18T14:51:05.001Z</time></trkpt><trkpt lat="43.39088392755409" lon="10.641989251353706"><ele>307.0</ele><time>2026-04-18T14:51:06.001Z</time></trkpt><trkpt lat="43.39094425685503" lon="10.641918505357236"><ele>307.0</ele><time>2026-04-18T14:51:07.001Z</time></trkpt><trkpt lat="43.39100791893577" lon="10.64185494997478"><ele>307.0</ele><time>2026-04-18T14:51:08.001Z</time></trkpt><trkpt lat="43.3910663719931" lon="10.64180719471909"><ele>306.99999999999994</ele><time>2026-04-18T14:51:09.001Z</time></trkpt><trkpt lat="43.39112787924497" lon="10.641769200998786"><ele>307.0</ele><time>2026-04-18T14:51:10.001Z</time></trkpt><trkpt lat="43.39120397133064" lon="10.641767432388455"><ele>308.66666666666663</ele><time>2026-04-18T14:51:11.001Z</time></trkpt><trkpt lat="43.39127526261938" lon="10.641797652475658"><ele>310.3333333333333</ele><time>2026-04-18T14:51:12.001Z</time></trkpt><trkpt lat="43.39133366336227" lon="10.641863244940517"><ele>312.0</ele><time>2026-04-18T14:51:13.001Z</time></trkpt><trkpt lat="43.39143279143948" lon="10.641944355479637"><ele>313.6666666666667</ele><time>2026-04-18T14:51:15.001Z</time></trkpt><trkpt lat="43.39154783706455" lon="10.641952658841966"><ele>315.33333333333337</ele><time>2026-04-18T14:51:17.001Z</time></trkpt><trkpt lat="43.39161067071172" lon="10.641935547536894"><ele>317.0</ele><time>2026-04-18T14:51:18.001Z</time></trkpt><trkpt lat="43.39173161260389" lon="10.64194908324144"><ele>317.6</ele><time>2026-04-18T14:51:20.001Z</time></trkpt><trkpt lat="43.39179760959929" lon="10.641952925579092"><ele>318.2</ele><time>2026-04-18T14:51:21.001Z</time></trkpt><trkpt lat="43.39186250510679" lon="10.641954100576367"><ele>318.8</ele><time>2026-04-18T14:51:22.001Z</time></trkpt><trkpt lat="43.391983182413405" lon="10.641955749538468"><ele>319.4</ele><time>2026-04-18T14:51:24.001Z</time></trkpt><trkpt lat="43.3920883530782" lon="10.641946102046985"><ele>320.0</ele><time>2026-04-18T14:51:26.001Z</time></trkpt><trkpt lat="43.39218685570218" lon="10.641944263768021"><ele>321.6666666666667</ele><time>2026-04-18T14:51:28.001Z</time></trkpt><trkpt lat="43.39227424586202" lon="10.641938845237252"><ele>323.33333333333337</ele><time>2026-04-18T14:51:30.001Z</time></trkpt><trkpt lat="43.39236768171546" lon="10.641923470130047"><ele>325.0</ele><time>2026-04-18T14:51:32.001Z</time></trkpt><trkpt lat="43.39246477934127" lon="10.641886975397476"><ele>326.6666666666667</ele><time>2026-04-18T14:51:34.001Z</time></trkpt><trkpt lat="43.39253650850955" lon="10.641823310460929"><ele>328.3333333333333</ele><time>2026-04-18T14:51:36.001Z</time></trkpt><trkpt lat="43.39258671624732" lon="10.641744780719776"><ele>330.0</ele><time>2026-04-18T14:51:38.001Z</time></trkpt><trkpt lat="43.3926232147732" lon="10.641656805709207"><ele>330.0</ele><time>2026-04-18T14:51:40.001Z</time></trkpt><trkpt lat="43.39265388005643" lon="10.641546600139513"><ele>330.0</ele><time>2026-04-18T14:51:42.001Z</time></trkpt><trkpt lat="43.392685333046906" lon="10.64142603149896"><ele>330.0</ele><time>2026-04-18T14:51:44.001Z</time></trkpt><trkpt lat="43.39271864661236" lon="10.641312034195641"><ele>330.0</ele><time>2026-04-18T14:51:46.001Z</time></trkpt><trkpt lat="43.392746628325305" lon="10.641196839529556"><ele>330.0</ele><time>2026-04-18T14:51:48.001Z</time></trkpt><trkpt lat="43.39277460006242" lon="10.641084626474457"><ele>330.0</ele><time>2026-04-18T14:51:50.001Z</time></trkpt><trkpt lat="43.392801051885016" lon="10.640981347784564"><ele>331.5</ele><time>2026-04-18T14:51:52.001Z</time></trkpt><trkpt lat="43.39282709564054" lon="10.640882098426037"><ele>333.0</ele><time>2026-04-18T14:51:54.001Z</time></trkpt><trkpt lat="43.39285245970868" lon="10.640778461701519"><ele>334.5</ele><time>2026-04-18T14:51:56.001Z</time></trkpt><trkpt lat="43.39287895798889" lon="10.640676664257413"><ele>336.0</ele><time>2026-04-18T14:51:58.001Z</time></trkpt><trkpt lat="43.39291096983667" lon="10.640570930588144"><ele>337.5</ele><time>2026-04-18T14:52:00.001Z</time></trkpt><trkpt lat="43.39296720101495" lon="10.640459707088818"><ele>339.0</ele><time>2026-04-18T14:52:02.001Z</time></trkpt><trkpt lat="43.393045839979735" lon="10.640365694469097"><ele>341.2</ele><time>2026-04-18T14:52:04.001Z</time></trkpt><trkpt lat="43.39312829922764" lon="10.640335747647134"><ele>343.4</ele><time>2026-04-18T14:52:06.001Z</time></trkpt><trkpt lat="43.39322841810629" lon="10.640375086376807"><ele>345.6</ele><time>2026-04-18T14:52:08.001Z</time></trkpt><trkpt lat="43.39331580347023" lon="10.640484310958744"><ele>347.8</ele><time>2026-04-18T14:52:10.001Z</time></trkpt><trkpt lat="43.393358859801" lon="10.64054792484754"><ele>350.0</ele><time>2026-04-18T14:52:11.001Z</time></trkpt><trkpt lat="43.39342696830573" lon="10.640682025773724"><ele>350.0</ele><time>2026-04-18T14:52:13.001Z</time></trkpt><trkpt lat="43.39350715544797" lon="10.640795963131167"><ele>350.0</ele><time>2026-04-18T14:52:15.001Z</time></trkpt><trkpt lat="43.3935768051639" lon="10.640894960392984"><ele>350.0</ele><time>2026-04-18T14:52:17Z</time></trkpt><trkpt lat="43.3936563063" lon="10.641007960518895"><ele>350.0</ele><time>2026-04-18T14:52:19Z</time></trkpt><trkpt lat="43.39374088123752" lon="10.641114318334056"><ele>350.0</ele><time>2026-04-18T14:52:21Z</time></trkpt><trkpt lat="43.393794696938514" lon="10.641238279166979"><ele>350.8</ele><time>2026-04-18T14:52:23Z</time></trkpt><trkpt lat="43.39386090715804" lon="10.641312251763441"><ele>351.6</ele><time>2026-04-18T14:52:25Z</time></trkpt><trkpt lat="43.39395029051769" lon="10.641323201427886"><ele>352.4</ele><time>2026-04-18T14:52:27Z</time></trkpt><trkpt lat="43.394051360192805" lon="10.641284202632646"><ele>353.2</ele><time>2026-04-18T14:52:29Z</time></trkpt><trkpt lat="43.39415099435026" lon="10.641288264153495"><ele>354.0</ele><time>2026-04-18T14:52:31Z</time></trkpt><trkpt lat="43.39425849347387" lon="10.641277124905931"><ele>354.0</ele><time>2026-04-18T14:52:33Z</time></trkpt><trkpt lat="43.39432302619749" lon="10.64125565811115"><ele>354.0</ele><time>2026-04-18T14:52:34Z</time></trkpt><trkpt lat="43.39444231954014" lon="10.641224591033927"><ele>354.0</ele><time>2026-04-18T14:52:36Z</time></trkpt><trkpt lat="43.39456173475505" lon="10.641198263038989"><ele>354.0</ele><time>2026-04-18T14:52:38Z</time></trkpt><trkpt lat="43.39468742804204" lon="10.641152585839304"><ele>354.0</ele><time>2026-04-18T14:52:40Z</time></trkpt><trkpt lat="43.394806379114534" lon="10.641127451921502"><ele>358.6</ele><time>2026-04-18T14:52:42Z</time></trkpt><trkpt lat="43.39490847788517" lon="10.641075186117323"><ele>363.2</ele><time>2026-04-18T14:52:44Z</time></trkpt><trkpt lat="43.39502709987425" lon="10.641030391740726"><ele>367.8</ele><time>2026-04-18T14:52:46Z</time></trkpt><trkpt lat="43.39509479440083" lon="10.641020825788756"><ele>372.40000000000003</ele><time>2026-04-18T14:52:47Z</time></trkpt><trkpt lat="43.395181575524525" lon="10.641006922075011"><ele>377.0</ele><time>2026-04-18T14:52:48Z</time></trkpt><trkpt lat="43.39525912622042" lon="10.640995594563215"><ele>376.99999999999994</ele><time>2026-04-18T14:52:49Z</time></trkpt><trkpt lat="43.39533740717757" lon="10.640982432865874"><ele>377.0</ele><time>2026-04-18T14:52:50Z</time></trkpt><trkpt lat="43.39541505883644" lon="10.640968129718674"><ele>377.0</ele><time>2026-04-18T14:52:51.001Z</time></trkpt><trkpt lat="43.395485004770855" lon="10.640961233888614"><ele>377.0</ele><time>2026-04-18T14:52:52.001Z</time></trkpt><trkpt lat="43.395549944448646" lon="10.640973896767212"><ele>377.0</ele><time>2026-04-18T14:52:53.001Z</time></trkpt><trkpt lat="43.39562049369338" lon="10.640976182427561"><ele>376.99999999999994</ele><time>2026-04-18T14:52:54.001Z</time></trkpt><trkpt lat="43.395686500793495" lon="10.64095997046387"><ele>377.0</ele><time>2026-04-18T14:52:55.001Z</time></trkpt><trkpt lat="43.39575036942857" lon="10.640956208677622"><ele>377.1666666666667</ele><time>2026-04-18T14:52:56.001Z</time></trkpt><trkpt lat="43.39587352452688" lon="10.6409266392419"><ele>377.33333333333337</ele><time>2026-04-18T14:52:58.001Z</time></trkpt><trkpt lat="43.39594253961493" lon="10.640918593396156"><ele>377.5</ele><time>2026-04-18T14:52:59.001Z</time></trkpt><trkpt lat="43.39601603132275" lon="10.640905216454259"><ele>377.6666666666667</ele><time>2026-04-18T14:53:00.001Z</time></trkpt><trkpt lat="43.396086978611336" lon="10.640907237324631"><ele>377.8333333333333</ele><time>2026-04-18T14:53:01.001Z</time></trkpt><trkpt lat="43.39615830823401" lon="10.640885654296461"><ele>378.0</ele><time>2026-04-18T14:53:02.001Z</time></trkpt><trkpt lat="43.39623223514921" lon="10.640860324529305"><ele>378.0</ele><time>2026-04-18T14:53:03.001Z</time></trkpt><trkpt lat="43.39631327345116" lon="10.640833584190121"><ele>378.0</ele><time>2026-04-18T14:53:04.001Z</time></trkpt><trkpt lat="43.39638783709009" lon="10.640799743696046"><ele>378.0</ele><time>2026-04-18T14:53:05.001Z</time></trkpt><trkpt lat="43.396457165268174" lon="10.640769664981331"><ele>378.0</ele><time>2026-04-18T14:53:06.001Z</time></trkpt><trkpt lat="43.39652564721228" lon="10.64074234968208"><ele>378.0</ele><time>2026-04-18T14:53:07.001Z</time></trkpt><trkpt lat="43.39658721100408" lon="10.640710985589727"><ele>378.0</ele><time>2026-04-18T14:53:08.001Z</time></trkpt><trkpt lat="43.39670292651368" lon="10.640672916862147"><ele>377.59999999999997</ele><time>2026-04-18T14:53:10.001Z</time></trkpt><trkpt lat="43.39679353907734" lon="10.640694005138347"><ele>377.2</ele><time>2026-04-18T14:53:12.001Z</time></trkpt><trkpt lat="43.39689217850814" lon="10.640742141469211"><ele>376.8</ele><time>2026-04-18T14:53:14.001Z</time></trkpt><trkpt lat="43.39698689696232" lon="10.640774158227131"><ele>376.4</ele><time>2026-04-18T14:53:16.001Z</time></trkpt><trkpt lat="43.39707241393788" lon="10.64081990510309"><ele>376.0</ele><time>2026-04-18T14:53:18.001Z</time></trkpt><trkpt lat="43.39718119107758" lon="10.640854342078374"><ele>376.0</ele><time>2026-04-18T14:53:20.001Z</time></trkpt><trkpt lat="43.39730502179952" lon="10.640892919917723"><ele>376.0</ele><time>2026-04-18T14:53:22.001Z</time></trkpt><trkpt lat="43.397427187280606" lon="10.640918564360051"><ele>376.0</ele><time>2026-04-18T14:53:24.001Z</time></trkpt><trkpt lat="43.39755914257439" lon="10.640931278915264"><ele>376.0</ele><time>2026-04-18T14:53:26.001Z</time></trkpt><trkpt lat="43.397627003011955" lon="10.640921827150768"><ele>376.0</ele><time>2026-04-18T14:53:27.001Z</time></trkpt><trkpt lat="43.39768835620531" lon="10.640898231003826"><ele>376.0</ele><time>2026-04-18T14:53:28.001Z</time></trkpt><trkpt lat="43.397805053721086" lon="10.640842667799417"><ele>376.0</ele><time>2026-04-18T14:53:30.001Z</time></trkpt><trkpt lat="43.3979218978084" lon="10.640766357508113"><ele>376.0</ele><time>2026-04-18T14:53:32.001Z</time></trkpt><trkpt lat="43.39799456341355" lon="10.640711433136032"><ele>376.0</ele><time>2026-04-18T14:53:33.001Z</time></trkpt><trkpt lat="43.398056672590364" lon="10.640657197723378"><ele>376.3333333333333</ele><time>2026-04-18T14:53:34.001Z</time></trkpt><trkpt lat="43.39812687157207" lon="10.64061948444222"><ele>376.66666666666663</ele><time>2026-04-18T14:53:35.001Z</time></trkpt><trkpt lat="43.39820166927038" lon="10.640592479916059"><ele>377.0</ele><time>2026-04-18T14:53:36.001Z</time></trkpt><trkpt lat="43.3982888949549" lon="10.640572704172719"><ele>377.3333333333333</ele><time>2026-04-18T14:53:37.001Z</time></trkpt><trkpt lat="43.39836965670582" lon="10.640564114181918"><ele>377.6666666666667</ele><time>2026-04-18T14:53:38.001Z</time></trkpt><trkpt lat="43.39845085434919" lon="10.640562350588393"><ele>378.0</ele><time>2026-04-18T14:53:39.001Z</time></trkpt><trkpt lat="43.39853097325029" lon="10.640558091941017"><ele>378.0</ele><time>2026-04-18T14:53:40.001Z</time></trkpt><trkpt lat="43.39860747403703" lon="10.640554116668323"><ele>378.0</ele><time>2026-04-18T14:53:41.001Z</time></trkpt><trkpt lat="43.39868499082313" lon="10.640545761725846"><ele>378.0</ele><time>2026-04-18T14:53:42.001Z</time></trkpt><trkpt lat="43.39876138750178" lon="10.640547537240138"><ele>378.0</ele><time>2026-04-18T14:53:43.001Z</time></trkpt><trkpt lat="43.3988334252431" lon="10.640558760025712"><ele>378.0</ele><time>2026-04-18T14:53:44.001Z</time></trkpt><trkpt lat="43.39890984112028" lon="10.640569994461949"><ele>378.0</ele><time>2026-04-18T14:53:45.001Z</time></trkpt><trkpt lat="43.39898320280364" lon="10.640592411084627"><ele>379.3333333333333</ele><time>2026-04-18T14:53:46.001Z</time></trkpt><trkpt lat="43.39905600749169" lon="10.640624312424377"><ele>380.66666666666663</ele><time>2026-04-18T14:53:47.001Z</time></trkpt><trkpt lat="43.399123278892844" lon="10.640659619459873"><ele>382.0</ele><time>2026-04-18T14:53:48.001Z</time></trkpt><trkpt lat="43.39919091326046" lon="10.640688545256886"><ele>383.3333333333333</ele><time>2026-04-18T14:53:49.001Z</time></trkpt><trkpt lat="43.399309043828104" lon="10.64074846468885"><ele>384.66666666666663</ele><time>2026-04-18T14:53:51.001Z</time></trkpt><trkpt lat="43.39936755884492" lon="10.640794537744034"><ele>386.0</ele><time>2026-04-18T14:53:52.001Z</time></trkpt><trkpt lat="43.39942396260363" lon="10.640842024504021"><ele>385.99999999999994</ele><time>2026-04-18T14:53:53.001Z</time></trkpt><trkpt lat="43.399479410148714" lon="10.640895274346885"><ele>386.0</ele><time>2026-04-18T14:53:54.001Z</time></trkpt><trkpt lat="43.39953410852807" lon="10.640948245668447"><ele>386.0</ele><time>2026-04-18T14:53:55.001Z</time></trkpt><trkpt lat="43.39958580231724" lon="10.640998030087667"><ele>386.0</ele><time>2026-04-18T14:53:56.001Z</time></trkpt><trkpt lat="43.39969060862237" lon="10.641062582412722"><ele>385.99999999999994</ele><time>2026-04-18T14:53:58.001Z</time></trkpt><trkpt lat="43.39979274985396" lon="10.641076003829873"><ele>386.0</ele><time>2026-04-18T14:54:00.001Z</time></trkpt><trkpt lat="43.399860657885554" lon="10.641000823137762"><ele>386.0</ele><time>2026-04-18T14:54:03.001Z</time></trkpt><trkpt lat="43.39975358515379" lon="10.640847634066567"><ele>386.0</ele><time>2026-04-18T14:54:06.001Z</time></trkpt><trkpt lat="43.39967214539481" lon="10.640756764097134"><ele>386.0</ele><time>2026-04-18T14:54:08.001Z</time></trkpt><trkpt lat="43.39959635157593" lon="10.640631047906203"><ele>386.0</ele><time>2026-04-18T14:54:10.001Z</time></trkpt><trkpt lat="43.39955803123494" lon="10.640472856820741"><ele>386.0</ele><time>2026-04-18T14:54:12.001Z</time></trkpt><trkpt lat="43.39956771952191" lon="10.640332748696286"><ele>386.0</ele><time>2026-04-18T14:54:14.001Z</time></trkpt><trkpt lat="43.399583240790925" lon="10.64018787179258"><ele>386.0</ele><time>2026-04-18T14:54:16Z</time></trkpt><trkpt lat="43.39957206006659" lon="10.6400271502914"><ele>386.0</ele><time>2026-04-18T14:54:18Z</time></trkpt><trkpt lat="43.399542380327176" lon="10.639864761484278"><ele>386.0</ele><time>2026-04-18T14:54:20Z</time></trkpt><trkpt lat="43.39950739912151" lon="10.639714016319228"><ele>388.20000000000005</ele><time>2026-04-18T14:54:22Z</time></trkpt><trkpt lat="43.39947352015495" lon="10.639578329431409"><ele>390.40000000000003</ele><time>2026-04-18T14:54:24Z</time></trkpt><trkpt lat="43.399433903918606" lon="10.63944648506261"><ele>392.6</ele><time>2026-04-18T14:54:26Z</time></trkpt><trkpt lat="43.399387131094535" lon="10.639317013030317"><ele>394.8</ele><time>2026-04-18T14:54:28Z</time></trkpt><trkpt lat="43.399328757415965" lon="10.639184172061507"><ele>397.0</ele><time>2026-04-18T14:54:30Z</time></trkpt><trkpt lat="43.399266932181554" lon="10.639061227512546"><ele>400.0</ele><time>2026-04-18T14:54:32Z</time></trkpt><trkpt lat="43.39920516448749" lon="10.638950879769652"><ele>403.0</ele><time>2026-04-18T14:54:34Z</time></trkpt><trkpt lat="43.39914248609301" lon="10.638852881163423"><ele>406.0</ele><time>2026-04-18T14:54:36Z</time></trkpt><trkpt lat="43.39906683194344" lon="10.638736354620761"><ele>409.0</ele><time>2026-04-18T14:54:38Z</time></trkpt><trkpt lat="43.398986656175865" lon="10.638612863888401"><ele>412.0</ele><time>2026-04-18T14:54:40Z</time></trkpt><trkpt lat="43.39890832572115" lon="10.638490572637066"><ele>414.40000000000003</ele><time>2026-04-18T14:54:42Z</time></trkpt><trkpt lat="43.39886705454883" lon="10.638352251097512"><ele>416.8</ele><time>2026-04-18T14:54:44Z</time></trkpt><trkpt lat="43.39887558975615" lon="10.638205630657973"><ele>419.2</ele><time>2026-04-18T14:54:46Z</time></trkpt><trkpt lat="43.39889105139289" lon="10.63804903077671"><ele>421.6</ele><time>2026-04-18T14:54:48Z</time></trkpt><trkpt lat="43.39889725510123" lon="10.63789316309769"><ele>424.0</ele><time>2026-04-18T14:54:50Z</time></trkpt><trkpt lat="43.39888641857902" lon="10.637801385449757"><ele>424.6</ele><time>2026-04-18T14:54:51Z</time></trkpt><trkpt lat="43.3988474910385" lon="10.637649040974946"><ele>425.2</ele><time>2026-04-18T14:54:53Z</time></trkpt><trkpt lat="43.39880979461788" lon="10.63749992285792"><ele>425.80000000000007</ele><time>2026-04-18T14:54:55Z</time></trkpt><trkpt lat="43.39877471318939" lon="10.637352336515127"><ele>426.40000000000003</ele><time>2026-04-18T14:54:57Z</time></trkpt><trkpt lat="43.3987366979581" lon="10.637222374745244"><ele>427.0</ele><time>2026-04-18T14:54:59Z</time></trkpt><trkpt lat="43.39868558111529" lon="10.637081463653143"><ele>430.20000000000005</ele><time>2026-04-18T14:55:01Z</time></trkpt><trkpt lat="43.398616217369124" lon="10.636945410080148"><ele>433.40000000000003</ele><time>2026-04-18T14:55:03Z</time></trkpt><trkpt lat="43.39856528750217" lon="10.636889710519084"><ele>436.59999999999997</ele><time>2026-04-18T14:55:04Z</time></trkpt><trkpt lat="43.39850827457959" lon="10.636849063687633"><ele>439.79999999999995</ele><time>2026-04-18T14:55:05Z</time></trkpt><trkpt lat="43.39840942637125" lon="10.636768910067543"><ele>443.0</ele><time>2026-04-18T14:55:07Z</time></trkpt><trkpt lat="43.39831173467595" lon="10.63669144171736"><ele>443.0</ele><time>2026-04-18T14:55:09Z</time></trkpt><trkpt lat="43.39821782443945" lon="10.636611391188254"><ele>443.0</ele><time>2026-04-18T14:55:11Z</time></trkpt><trkpt lat="43.39811356650606" lon="10.636544306863314"><ele>443.0</ele><time>2026-04-18T14:55:13Z</time></trkpt><trkpt lat="43.39803213284065" lon="10.636424946850344"><ele>443.0</ele><time>2026-04-18T14:55:15Z</time></trkpt><trkpt lat="43.39795207140505" lon="10.636317429692014"><ele>444.0</ele><time>2026-04-18T14:55:17.001Z</time></trkpt><trkpt lat="43.39788324117662" lon="10.636213911272751"><ele>444.99999999999994</ele><time>2026-04-18T14:55:19.001Z</time></trkpt><trkpt lat="43.39781480930909" lon="10.63610419769446"><ele>445.99999999999994</ele><time>2026-04-18T14:55:21.001Z</time></trkpt><trkpt lat="43.397747439530775" lon="10.635996281860782"><ele>447.0</ele><time>2026-04-18T14:55:23.001Z</time></trkpt><trkpt lat="43.39767273820991" lon="10.635879002675722"><ele>448.0</ele><time>2026-04-18T14:55:25.001Z</time></trkpt><trkpt lat="43.397596327562155" lon="10.635760713872406"><ele>449.6666666666667</ele><time>2026-04-18T14:55:27.001Z</time></trkpt><trkpt lat="43.39750723558963" lon="10.635638525900111"><ele>451.33333333333337</ele><time>2026-04-18T14:55:29.001Z</time></trkpt><trkpt lat="43.3974605371872" lon="10.635578785398755"><ele>453.0</ele><time>2026-04-18T14:55:30.001Z</time></trkpt><trkpt lat="43.397418533302314" lon="10.635503895331839"><ele>454.66666666666663</ele><time>2026-04-18T14:55:31.001Z</time></trkpt><trkpt lat="43.39738311045429" lon="10.635430373495744"><ele>456.3333333333333</ele><time>2026-04-18T14:55:32.001Z</time></trkpt><trkpt lat="43.397346378699496" lon="10.635267436651931"><ele>458.0</ele><time>2026-04-18T14:55:34.001Z</time></trkpt><trkpt lat="43.39733990476494" lon="10.635097030567852"><ele>459.66666666666663</ele><time>2026-04-18T14:55:36.001Z</time></trkpt><trkpt lat="43.39733697535164" lon="10.635005141856068"><ele>461.3333333333333</ele><time>2026-04-18T14:55:37.001Z</time></trkpt><trkpt lat="43.3973354940936" lon="10.634910737491369"><ele>463.0</ele><time>2026-04-18T14:55:38.001Z</time></trkpt><trkpt lat="43.39733637411055" lon="10.63481935234451"><ele>464.66666666666663</ele><time>2026-04-18T14:55:39.001Z</time></trkpt><trkpt lat="43.397338203299824" lon="10.634724092962772"><ele>466.3333333333333</ele><time>2026-04-18T14:55:40.001Z</time></trkpt><trkpt lat="43.39734193874735" lon="10.634559990867585"><ele>468.0</ele><time>2026-04-18T14:55:42.001Z</time></trkpt><trkpt lat="43.39734859122578" lon="10.634393347450962"><ele>468.14285714285717</ele><time>2026-04-18T14:55:44.001Z</time></trkpt><trkpt lat="43.39735679912998" lon="10.634302034952459"><ele>468.28571428571433</ele><time>2026-04-18T14:55:45.001Z</time></trkpt><trkpt lat="43.39737476247613" lon="10.634214039349297"><ele>468.42857142857144</ele><time>2026-04-18T14:55:46.001Z</time></trkpt><trkpt lat="43.39739711219991" lon="10.634115643296358"><ele>468.57142857142856</ele><time>2026-04-18T14:55:47.001Z</time></trkpt><trkpt lat="43.397420739706895" lon="10.634014438852832"><ele>468.7142857142857</ele><time>2026-04-18T14:55:48.001Z</time></trkpt><trkpt lat="43.39744202870082" lon="10.633909658267159"><ele>468.8571428571429</ele><time>2026-04-18T14:55:49.001Z</time></trkpt><trkpt lat="43.39746382617227" lon="10.633798977485139"><ele>469.0</ele><time>2026-04-18T14:55:50.001Z</time></trkpt><trkpt lat="43.39748403539524" lon="10.63369636125935"><ele>468.50000000000006</ele><time>2026-04-18T14:55:51.001Z</time></trkpt><trkpt lat="43.39750484763913" lon="10.633588943651"><ele>468.0</ele><time>2026-04-18T14:55:52.001Z</time></trkpt><trkpt lat="43.39752419683422" lon="10.633488830846675"><ele>467.5</ele><time>2026-04-18T14:55:53.001Z</time></trkpt><trkpt lat="43.3975420528109" lon="10.633395185359529"><ele>467.0</ele><time>2026-04-18T14:55:54.001Z</time></trkpt><trkpt lat="43.397561170757456" lon="10.633293078916843"><ele>466.50000000000006</ele><time>2026-04-18T14:55:55.001Z</time></trkpt><trkpt lat="43.39757092278943" lon="10.633184856526826"><ele>466.0</ele><time>2026-04-18T14:55:56.001Z</time></trkpt><trkpt lat="43.39758880193197" lon="10.633070352332025"><ele>466.00000000000006</ele><time>2026-04-18T14:55:57.001Z</time></trkpt><trkpt lat="43.397613923399476" lon="10.63295404083229"><ele>466.0</ele><time>2026-04-18T14:55:58.001Z</time></trkpt><trkpt lat="43.397635168785975" lon="10.632837040212067"><ele>466.0</ele><time>2026-04-18T14:55:59.001Z</time></trkpt><trkpt lat="43.39765690324293" lon="10.6327156299912"><ele>466.0</ele><time>2026-04-18T14:56:00.001Z</time></trkpt><trkpt lat="43.39768607333263" lon="10.632597996897255"><ele>466.00000000000006</ele><time>2026-04-18T14:56:01.001Z</time></trkpt><trkpt lat="43.39770283378259" lon="10.632481803166586"><ele>466.0</ele><time>2026-04-18T14:56:02.001Z</time></trkpt><trkpt lat="43.397725700104665" lon="10.632364770849337"><ele>466.33333333333337</ele><time>2026-04-18T14:56:03.001Z</time></trkpt><trkpt lat="43.39774985739938" lon="10.63224789195026"><ele>466.6666666666667</ele><time>2026-04-18T14:56:04.001Z</time></trkpt><trkpt lat="43.39778212560911" lon="10.632138702282944"><ele>467.0</ele><time>2026-04-18T14:56:05.001Z</time></trkpt><trkpt lat="43.39780138099954" lon="10.632027887563682"><ele>467.33333333333337</ele><time>2026-04-18T14:56:06.001Z</time></trkpt><trkpt lat="43.39782768849045" lon="10.631935517059318"><ele>467.6666666666667</ele><time>2026-04-18T14:56:07.001Z</time></trkpt><trkpt lat="43.39785642342162" lon="10.631851201615074"><ele>468.0</ele><time>2026-04-18T14:56:08.001Z</time></trkpt><trkpt lat="43.397891200858" lon="10.631772239855266"><ele>468.5</ele><time>2026-04-18T14:56:09.001Z</time></trkpt><trkpt lat="43.39795645961565" lon="10.631638734585584"><ele>469.0</ele><time>2026-04-18T14:56:11.001Z</time></trkpt><trkpt lat="43.39799474381494" lon="10.631569659823196"><ele>469.5</ele><time>2026-04-18T14:56:12.001Z</time></trkpt><trkpt lat="43.398034339944694" lon="10.631496889868046"><ele>470.0</ele><time>2026-04-18T14:56:13.001Z</time></trkpt><trkpt lat="43.39807040105111" lon="10.631422244892994"><ele>470.5</ele><time>2026-04-18T14:56:14.001Z</time></trkpt><trkpt lat="43.39810836780871" lon="10.631339425049282"><ele>471.0</ele><time>2026-04-18T14:56:15.001Z</time></trkpt><trkpt lat="43.398143359425944" lon="10.631254490584206"><ele>471.3333333333333</ele><time>2026-04-18T14:56:16.001Z</time></trkpt><trkpt lat="43.39817661728296" lon="10.631162887051781"><ele>471.66666666666663</ele><time>2026-04-18T14:56:17.001Z</time></trkpt><trkpt lat="43.39820679707614" lon="10.631073448720652"><ele>472.0</ele><time>2026-04-18T14:56:18.001Z</time></trkpt><trkpt lat="43.39822981728348" lon="10.63099031573116"><ele>472.3333333333333</ele><time>2026-04-18T14:56:19.001Z</time></trkpt><trkpt lat="43.398247580009176" lon="10.630828178193905"><ele>472.66666666666663</ele><time>2026-04-18T14:56:21Z</time></trkpt><trkpt lat="43.398231041228534" lon="10.630674458171907"><ele>473.0</ele><time>2026-04-18T14:56:23Z</time></trkpt><trkpt lat="43.39819456759146" lon="10.630539101517272"><ele>474.2</ele><time>2026-04-18T14:56:25Z</time></trkpt><trkpt lat="43.398151651258345" lon="10.630408874613874"><ele>475.4</ele><time>2026-04-18T14:56:27Z</time></trkpt><trkpt lat="43.39814091830846" lon="10.63027568864819"><ele>476.59999999999997</ele><time>2026-04-18T14:56:29Z</time></trkpt><trkpt lat="43.39813274049246" lon="10.630146283057783"><ele>477.79999999999995</ele><time>2026-04-18T14:56:31Z</time></trkpt><trkpt lat="43.39813343346834" lon="10.630021111485506"><ele>479.0</ele><time>2026-04-18T14:56:33Z</time></trkpt><trkpt lat="43.398140095022114" lon="10.629880451040314"><ele>481.4</ele><time>2026-04-18T14:56:35Z</time></trkpt><trkpt lat="43.39814542738078" lon="10.629752691180814"><ele>483.79999999999995</ele><time>2026-04-18T14:56:37Z</time></trkpt><trkpt lat="43.398129691060795" lon="10.629615509688428"><ele>486.20000000000005</ele><time>2026-04-18T14:56:39Z</time></trkpt><trkpt lat="43.39813732973208" lon="10.629501420619617"><ele>488.6</ele><time>2026-04-18T14:56:41Z</time></trkpt><trkpt lat="43.39813255839048" lon="10.629379960565783"><ele>491.0</ele><time>2026-04-18T14:56:43Z</time></trkpt><trkpt lat="43.39811125327813" lon="10.629258549850642"><ele>491.8</ele><time>2026-04-18T14:56:45Z</time></trkpt><trkpt lat="43.398118617558026" lon="10.629128645325434"><ele>492.6</ele><time>2026-04-18T14:56:47Z</time></trkpt><trkpt lat="43.39812163677808" lon="10.628987188299025"><ele>493.4</ele><time>2026-04-18T14:56:49Z</time></trkpt><trkpt lat="43.39810633882639" lon="10.628828011306705"><ele>494.2</ele><time>2026-04-18T14:56:51Z</time></trkpt><trkpt lat="43.398101741962854" lon="10.628691282968843"><ele>495.0</ele><time>2026-04-18T14:56:53Z</time></trkpt><trkpt lat="43.39810722673567" lon="10.628540605981023"><ele>495.3333333333333</ele><time>2026-04-18T14:56:55Z</time></trkpt><trkpt lat="43.39811422084845" lon="10.62843123083887"><ele>495.66666666666663</ele><time>2026-04-18T14:56:57Z</time></trkpt><trkpt lat="43.39811000890131" lon="10.628315619818625"><ele>496.0</ele><time>2026-04-18T14:56:59Z</time></trkpt><trkpt lat="43.39810751825169" lon="10.628207471229372"><ele>496.3333333333333</ele><time>2026-04-18T14:57:01Z</time></trkpt><trkpt lat="43.39811018230806" lon="10.62807913835702"><ele>496.66666666666663</ele><time>2026-04-18T14:57:03Z</time></trkpt><trkpt lat="43.398114064969235" lon="10.627944974136938"><ele>497.0</ele><time>2026-04-18T14:57:05Z</time></trkpt><trkpt lat="43.39812384545729" lon="10.62780770618975"><ele>497.66666666666663</ele><time>2026-04-18T14:57:07Z</time></trkpt><trkpt lat="43.39811520208746" lon="10.627670178803703"><ele>498.3333333333333</ele><time>2026-04-18T14:57:09Z</time></trkpt><trkpt lat="43.398058413967576" lon="10.627518538137114"><ele>499.0</ele><time>2026-04-18T14:57:11Z</time></trkpt><trkpt lat="43.39803179863897" lon="10.62743526169848"><ele>499.66666666666663</ele><time>2026-04-18T14:57:12Z</time></trkpt><trkpt lat="43.397999912923474" lon="10.627350694956563"><ele>500.3333333333333</ele><time>2026-04-18T14:57:13Z</time></trkpt><trkpt lat="43.397968157716946" lon="10.627259464448553"><ele>501.0</ele><time>2026-04-18T14:57:14Z</time></trkpt><trkpt lat="43.39793771950257" lon="10.627175831329811"><ele>501.6666666666667</ele><time>2026-04-18T14:57:15Z</time></trkpt><trkpt lat="43.397965124719676" lon="10.627067727816273"><ele>502.33333333333337</ele><time>2026-04-18T14:57:16Z</time></trkpt><trkpt lat="43.397975957844764" lon="10.626943374746078"><ele>503.0</ele><time>2026-04-18T14:57:18Z</time></trkpt><trkpt lat="43.39802633521817" lon="10.626803047658841"><ele>503.6666666666667</ele><time>2026-04-18T14:57:20Z</time></trkpt><trkpt lat="43.398070059431085" lon="10.626734162769303"><ele>504.33333333333337</ele><time>2026-04-18T14:57:21Z</time></trkpt><trkpt lat="43.398118142023314" lon="10.62667128012553"><ele>505.0</ele><time>2026-04-18T14:57:22Z</time></trkpt><trkpt lat="43.39817293503839" lon="10.626607775210726"><ele>506.00000000000006</ele><time>2026-04-18T14:57:23Z</time></trkpt><trkpt lat="43.39823408560493" lon="10.626552605282264"><ele>507.0</ele><time>2026-04-18T14:57:24Z</time></trkpt><trkpt lat="43.39830200215468" lon="10.6264943374909"><ele>508.0</ele><time>2026-04-18T14:57:25Z</time></trkpt><trkpt lat="43.398374036364714" lon="10.626428762051042"><ele>509.0</ele><time>2026-04-18T14:57:26Z</time></trkpt><trkpt lat="43.39843657962806" lon="10.62636384381248"><ele>510.00000000000006</ele><time>2026-04-18T14:57:27Z</time></trkpt><trkpt lat="43.39849287890006" lon="10.626299250811227"><ele>511.0</ele><time>2026-04-18T14:57:28Z</time></trkpt><trkpt lat="43.3985390574676" lon="10.62622683177769"><ele>511.00000000000006</ele><time>2026-04-18T14:57:29Z</time></trkpt><trkpt lat="43.39857576591195" lon="10.626145665328307"><ele>511.0</ele><time>2026-04-18T14:57:30Z</time></trkpt><trkpt lat="43.39859135121404" lon="10.626045637886417"><ele>511.0</ele><time>2026-04-18T14:57:31Z</time></trkpt><trkpt lat="43.3985595446907" lon="10.625923342514781"><ele>511.0</ele><time>2026-04-18T14:57:33Z</time></trkpt><trkpt lat="43.398490749423495" lon="10.625866993864038"><ele>511.00000000000006</ele><time>2026-04-18T14:57:35Z</time></trkpt><trkpt lat="43.39839769844874" lon="10.625858266597158"><ele>511.0</ele><time>2026-04-18T14:57:37Z</time></trkpt><trkpt lat="43.39829293796313" lon="10.625885956413752"><ele>513.2</ele><time>2026-04-18T14:57:39Z</time></trkpt><trkpt lat="43.398209539020804" lon="10.625849806982236"><ele>515.4000000000001</ele><time>2026-04-18T14:57:41Z</time></trkpt><trkpt lat="43.39813799182075" lon="10.625754407133137"><ele>517.6</ele><time>2026-04-18T14:57:43Z</time></trkpt><trkpt lat="43.39810918509139" lon="10.625608955769446"><ele>519.8000000000001</ele><time>2026-04-18T14:57:45Z</time></trkpt><trkpt lat="43.39810680303669" lon="10.625439704201911"><ele>522.0</ele><time>2026-04-18T14:57:47Z</time></trkpt><trkpt lat="43.398104250209826" lon="10.625276533936036"><ele>523.2</ele><time>2026-04-18T14:57:49Z</time></trkpt><trkpt lat="43.39810553539233" lon="10.625127717390528"><ele>524.4000000000001</ele><time>2026-04-18T14:57:51Z</time></trkpt><trkpt lat="43.398110681694945" lon="10.624979000896708"><ele>525.5999999999999</ele><time>2026-04-18T14:57:53Z</time></trkpt><trkpt lat="43.39811712726209" lon="10.624820637471242"><ele>526.8</ele><time>2026-04-18T14:57:55Z</time></trkpt><trkpt lat="43.39812101554803" lon="10.624689774731433"><ele>528.0</ele><time>2026-04-18T14:57:57.001Z</time></trkpt><trkpt lat="43.398122678300034" lon="10.624599011320386"><ele>528.0</ele><time>2026-04-18T14:57:59.001Z</time></trkpt><trkpt lat="43.39812205801922" lon="10.624507392677504"><ele>528.0</ele><time>2026-04-18T14:58:08.001Z</time></trkpt><trkpt lat="43.398105896418556" lon="10.624413251088965"><ele>528.0</ele><time>2026-04-18T14:58:13.001Z</time></trkpt><trkpt lat="43.39814899968144" lon="10.62449525744843"><ele>528.0</ele><time>2026-04-18T14:58:46Z</time></trkpt><trkpt lat="43.398139130158825" lon="10.624610124639444"><ele>528.0</ele><time>2026-04-18T14:58:49Z</time></trkpt><trkpt lat="43.39813735178668" lon="10.624707199325481"><ele>528.0</ele><time>2026-04-18T14:58:52Z</time></trkpt><trkpt lat="43.39813926493791" lon="10.624602767735682"><ele>528.0</ele><time>2026-04-18T14:58:58Z</time></trkpt><trkpt lat="43.3983798718972" lon="10.624537682617644"><ele>528.0</ele><time>2026-04-18T14:59:20Z</time></trkpt><trkpt lat="43.39844184376214" lon="10.624568761033798"><ele>528.0</ele><time>2026-04-18T14:59:27Z</time></trkpt><trkpt lat="43.39848898380452" lon="10.624639286894567"><ele>528.0</ele><time>2026-04-18T14:59:34Z</time></trkpt><trkpt lat="43.39842737487128" lon="10.62459205167373"><ele>528.0</ele><time>2026-04-18T15:01:14Z</time></trkpt><trkpt lat="43.39836830470594" lon="10.624539997091244"><ele>528.0</ele><time>2026-04-18T15:01:25Z</time></trkpt><trkpt lat="43.39843854748091" lon="10.624587186776385"><ele>528.0</ele><time>2026-04-18T15:02:04Z</time></trkpt><trkpt lat="43.39851352857843" lon="10.624616781299745"><ele>528.0</ele><time>2026-04-18T15:02:08Z</time></trkpt><trkpt lat="43.39851655299963" lon="10.62449620693035"><ele>528.0</ele><time>2026-04-18T15:02:11Z</time></trkpt><trkpt lat="43.398412195291115" lon="10.624491562943083"><ele>528.0</ele><time>2026-04-18T15:02:13.001Z</time></trkpt><trkpt lat="43.39831670455815" lon="10.624551668448262"><ele>528.0</ele><time>2026-04-18T15:02:15.001Z</time></trkpt><trkpt lat="43.398226816866355" lon="10.624623307950158"><ele>528.0</ele><time>2026-04-18T15:02:17.001Z</time></trkpt><trkpt lat="43.39813329474585" lon="10.624533337207568"><ele>528.0</ele><time>2026-04-18T15:02:19.001Z</time></trkpt><trkpt lat="43.39812143425927" lon="10.62439096099415"><ele>528.8</ele><time>2026-04-18T15:02:21.001Z</time></trkpt><trkpt lat="43.39810177820159" lon="10.624243876089096"><ele>529.5999999999999</ele><time>2026-04-18T15:02:23.001Z</time></trkpt><trkpt lat="43.398076175598376" lon="10.624094285076065"><ele>530.4000000000001</ele><time>2026-04-18T15:02:25.001Z</time></trkpt><trkpt lat="43.39804662213046" lon="10.623966571037256"><ele>531.2</ele><time>2026-04-18T15:02:27.001Z</time></trkpt><trkpt lat="43.39804031169436" lon="10.623836332819373"><ele>532.0</ele><time>2026-04-18T15:02:29.001Z</time></trkpt><trkpt lat="43.39805755925732" lon="10.623709257095088"><ele>532.3333333333334</ele><time>2026-04-18T15:02:31.001Z</time></trkpt><trkpt lat="43.39809543402277" lon="10.623624685766766"><ele>532.6666666666667</ele><time>2026-04-18T15:02:33.001Z</time></trkpt><trkpt lat="43.39814458560177" lon="10.623550545010461"><ele>533.0</ele><time>2026-04-18T15:02:43Z</time></trkpt><trkpt lat="43.3981910704377" lon="10.623473538815885"><ele>533.3333333333334</ele><time>2026-04-18T15:02:45Z</time></trkpt><trkpt lat="43.39825766561153" lon="10.623357261528403"><ele>533.6666666666666</ele><time>2026-04-18T15:02:47Z</time></trkpt><trkpt lat="43.39832615287307" lon="10.62323103127349"><ele>534.0</ele><time>2026-04-18T15:02:49Z</time></trkpt><trkpt lat="43.39837597845944" lon="10.623135459853913"><ele>534.0</ele><time>2026-04-18T15:02:51Z</time></trkpt><trkpt lat="43.39841861109391" lon="10.623046759968538"><ele>534.0</ele><time>2026-04-18T15:02:54Z</time></trkpt><trkpt lat="43.39845304820407" lon="10.622946106319088"><ele>534.0</ele><time>2026-04-18T15:02:56Z</time></trkpt><trkpt lat="43.398473987708456" lon="10.622818976574726"><ele>534.0</ele><time>2026-04-18T15:02:58Z</time></trkpt><trkpt lat="43.39847255018941" lon="10.62267248266385"><ele>534.0</ele><time>2026-04-18T15:03:00Z</time></trkpt><trkpt lat="43.39846423764912" lon="10.622504072054914"><ele>534.5</ele><time>2026-04-18T15:03:02Z</time></trkpt><trkpt lat="43.398456757174046" lon="10.622343556351325"><ele>535.0</ele><time>2026-04-18T15:03:04Z</time></trkpt><trkpt lat="43.39849143912641" lon="10.622208284396617"><ele>535.5</ele><time>2026-04-18T15:03:06Z</time></trkpt><trkpt lat="43.39854757291955" lon="10.6220585073714"><ele>536.0</ele><time>2026-04-18T15:03:08Z</time></trkpt><trkpt lat="43.3986179788299" lon="10.621926456080052"><ele>536.0</ele><time>2026-04-18T15:03:10Z</time></trkpt><trkpt lat="43.398656753873816" lon="10.621853849485667"><ele>536.0</ele><time>2026-04-18T15:03:11Z</time></trkpt><trkpt lat="43.3987274253491" lon="10.621721517221797"><ele>536.0</ele><time>2026-04-18T15:03:13Z</time></trkpt><trkpt lat="43.398784973979794" lon="10.621585473356683"><ele>536.0</ele><time>2026-04-18T15:03:15Z</time></trkpt><trkpt lat="43.398796563145844" lon="10.621496131992272"><ele>536.0</ele><time>2026-04-18T15:03:16Z</time></trkpt><trkpt lat="43.3987889582907" lon="10.621330117313908"><ele>536.0</ele><time>2026-04-18T15:03:18Z</time></trkpt><trkpt lat="43.39877158322901" lon="10.621172014352355"><ele>536.0</ele><time>2026-04-18T15:03:20Z</time></trkpt><trkpt lat="43.39877950489181" lon="10.621015486265357"><ele>536.0</ele><time>2026-04-18T15:03:22Z</time></trkpt><trkpt lat="43.3988129228851" lon="10.62086085255239"><ele>536.0</ele><time>2026-04-18T15:03:24Z</time></trkpt><trkpt lat="43.398882990905406" lon="10.620717372308597"><ele>536.1428571428571</ele><time>2026-04-18T15:03:26Z</time></trkpt><trkpt lat="43.39892486005182" lon="10.62064039460299"><ele>536.2857142857142</ele><time>2026-04-18T15:03:27Z</time></trkpt><trkpt lat="43.39896356047623" lon="10.62057180975381"><ele>536.4285714285713</ele><time>2026-04-18T15:03:28Z</time></trkpt><trkpt lat="43.39900485888642" lon="10.620501917366672"><ele>536.5714285714286</ele><time>2026-04-18T15:03:29Z</time></trkpt><trkpt lat="43.39904964200834" lon="10.620426127422135"><ele>536.7142857142857</ele><time>2026-04-18T15:03:30Z</time></trkpt><trkpt lat="43.39908930549924" lon="10.62035704308772"><ele>536.8571428571428</ele><time>2026-04-18T15:03:31Z</time></trkpt><trkpt lat="43.39913489500152" lon="10.62027109843967"><ele>537.0</ele><time>2026-04-18T15:03:33Z</time></trkpt><trkpt lat="43.39907827518136" lon="10.620376335010079"><ele>537.0</ele><time>2026-04-18T15:03:43Z</time></trkpt><trkpt lat="43.39902596542659" lon="10.62046619679729"><ele>537.0</ele><time>2026-04-18T15:03:45Z</time></trkpt><trkpt lat="43.39907735582635" lon="10.620377943121934"><ele>537.0</ele><time>2026-04-18T15:04:02.001Z</time></trkpt><trkpt lat="43.39912859979515" lon="10.620283446759299"><ele>537.0</ele><time>2026-04-18T15:04:04.001Z</time></trkpt><trkpt lat="43.39918435241276" lon="10.620173132527"><ele>537.0</ele><time>2026-04-18T15:04:06.001Z</time></trkpt><trkpt lat="43.399240467492646" lon="10.620050131024058"><ele>536.3333333333334</ele><time>2026-04-18T15:04:08.001Z</time></trkpt><trkpt lat="43.39929846977402" lon="10.619917967558226"><ele>535.6666666666666</ele><time>2026-04-18T15:04:10.001Z</time></trkpt><trkpt lat="43.39936179177313" lon="10.61976921121519"><ele>535.0</ele><time>2026-04-18T15:04:12.001Z</time></trkpt><trkpt lat="43.39939477823445" lon="10.619691504856199"><ele>534.3333333333333</ele><time>2026-04-18T15:04:13.001Z</time></trkpt><trkpt lat="43.399427669740405" lon="10.619609009027172"><ele>533.6666666666666</ele><time>2026-04-18T15:04:14.001Z</time></trkpt><trkpt lat="43.39945145189456" lon="10.619511717501496"><ele>533.0</ele><time>2026-04-18T15:04:15.001Z</time></trkpt><trkpt lat="43.3994643029407" lon="10.619414155308663"><ele>532.8</ele><time>2026-04-18T15:04:16.001Z</time></trkpt><trkpt lat="43.39947288293739" lon="10.619324047465136"><ele>532.5999999999999</ele><time>2026-04-18T15:04:17.001Z</time></trkpt><trkpt lat="43.399485393652746" lon="10.619163099325412"><ele>532.4000000000001</ele><time>2026-04-18T15:04:19.002Z</time></trkpt><trkpt lat="43.399497462212075" lon="10.61898834957172"><ele>532.2</ele><time>2026-04-18T15:04:21.002Z</time></trkpt><trkpt lat="43.39950678929513" lon="10.618827873262171"><ele>532.0</ele><time>2026-04-18T15:04:23.002Z</time></trkpt><trkpt lat="43.39951328083825" lon="10.61869677096241"><ele>532.0</ele><time>2026-04-18T15:04:25.002Z</time></trkpt><trkpt lat="43.39951669333106" lon="10.618608460502072"><ele>532.0</ele><time>2026-04-18T15:04:28.002Z</time></trkpt><trkpt lat="43.39953656607911" lon="10.618517565980884"><ele>532.0</ele><time>2026-04-18T15:05:52.001Z</time></trkpt><trkpt lat="43.39968916475918" lon="10.618619747167052"><ele>532.0</ele><time>2026-04-18T15:05:56.001Z</time></trkpt><trkpt lat="43.39974327532892" lon="10.618668643792434"><ele>532.0</ele><time>2026-04-18T15:05:57.001Z</time></trkpt><trkpt lat="43.399857060429675" lon="10.618759143228766"><ele>532.8333333333334</ele><time>2026-04-18T15:05:59.001Z</time></trkpt><trkpt lat="43.39992514696995" lon="10.61880610100927"><ele>533.6666666666667</ele><time>2026-04-18T15:06:00.001Z</time></trkpt><trkpt lat="43.399993389931346" lon="10.61885332598155"><ele>534.5</ele><time>2026-04-18T15:06:01.001Z</time></trkpt><trkpt lat="43.400062946731815" lon="10.618904644021956"><ele>535.3333333333334</ele><time>2026-04-18T15:06:02.001Z</time></trkpt><trkpt lat="43.400135094742744" lon="10.618960164867723"><ele>536.1666666666666</ele><time>2026-04-18T15:06:03.001Z</time></trkpt><trkpt lat="43.40020463467476" lon="10.619021824221779"><ele>537.0</ele><time>2026-04-18T15:06:04.001Z</time></trkpt><trkpt lat="43.400278576077575" lon="10.619080011442334"><ele>537.0</ele><time>2026-04-18T15:06:05.001Z</time></trkpt><trkpt lat="43.40035127143373" lon="10.619140039090736"><ele>537.0</ele><time>2026-04-18T15:06:06.001Z</time></trkpt><trkpt lat="43.40041824762194" lon="10.61919638678003"><ele>537.0</ele><time>2026-04-18T15:06:07.001Z</time></trkpt><trkpt lat="43.40049049669288" lon="10.6192403616327"><ele>537.0</ele><time>2026-04-18T15:06:08.001Z</time></trkpt><trkpt lat="43.4005617912102" lon="10.619272234593202"><ele>537.0</ele><time>2026-04-18T15:06:09.001Z</time></trkpt><trkpt lat="43.400640269537305" lon="10.619294040020973"><ele>537.0</ele><time>2026-04-18T15:06:10.001Z</time></trkpt><trkpt lat="43.40072244235816" lon="10.619300255088811"><ele>535.6666666666666</ele><time>2026-04-18T15:06:11.001Z</time></trkpt><trkpt lat="43.40079904393423" lon="10.619297910129545"><ele>534.3333333333334</ele><time>2026-04-18T15:06:12.001Z</time></trkpt><trkpt lat="43.40088232320739" lon="10.619307052943421"><ele>533.0</ele><time>2026-04-18T15:06:13.001Z</time></trkpt><trkpt lat="43.40096542189847" lon="10.619301695920125"><ele>531.6666666666667</ele><time>2026-04-18T15:06:14.001Z</time></trkpt><trkpt lat="43.401040041455616" lon="10.619290200142828"><ele>530.3333333333334</ele><time>2026-04-18T15:06:15.001Z</time></trkpt><trkpt lat="43.40111689616554" lon="10.619256620825752"><ele>529.0</ele><time>2026-04-18T15:06:16.001Z</time></trkpt><trkpt lat="43.401183774697785" lon="10.61920697747678"><ele>529.0</ele><time>2026-04-18T15:06:17.001Z</time></trkpt><trkpt lat="43.40124483784239" lon="10.619177456480399"><ele>529.0</ele><time>2026-04-18T15:06:18.001Z</time></trkpt><trkpt lat="43.401316615341514" lon="10.61916079118147"><ele>529.0</ele><time>2026-04-18T15:06:19.001Z</time></trkpt><trkpt lat="43.401387484729426" lon="10.619169379981944"><ele>529.0</ele><time>2026-04-18T15:06:20.001Z</time></trkpt><trkpt lat="43.40145275316302" lon="10.61920195832556"><ele>529.0</ele><time>2026-04-18T15:06:21.001Z</time></trkpt><trkpt lat="43.401525975522354" lon="10.619267143751363"><ele>529.0</ele><time>2026-04-18T15:06:22.001Z</time></trkpt><trkpt lat="43.40160993372556" lon="10.61935344697351"><ele>527.8</ele><time>2026-04-18T15:06:23.001Z</time></trkpt><trkpt lat="43.40169085507424" lon="10.619427472859725"><ele>526.5999999999999</ele><time>2026-04-18T15:06:24.001Z</time></trkpt><trkpt lat="43.401795810818165" lon="10.619496782621743"><ele>525.4</ele><time>2026-04-18T15:06:25.001Z</time></trkpt><trkpt lat="43.40190294756927" lon="10.619556651592056"><ele>524.1999999999999</ele><time>2026-04-18T15:06:26.001Z</time></trkpt><trkpt lat="43.40201212356551" lon="10.619622763874771"><ele>523.0</ele><time>2026-04-18T15:06:27.001Z</time></trkpt><trkpt lat="43.402125992236485" lon="10.619691109058278"><ele>518.4</ele><time>2026-04-18T15:06:28.001Z</time></trkpt><trkpt lat="43.4022312024064" lon="10.619760091132267"><ele>513.8</ele><time>2026-04-18T15:06:29.001Z</time></trkpt><trkpt lat="43.402326798571224" lon="10.619833510350276"><ele>509.2</ele><time>2026-04-18T15:06:30.001Z</time></trkpt><trkpt lat="43.402404775114334" lon="10.619921458858302"><ele>504.6</ele><time>2026-04-18T15:06:31.001Z</time></trkpt><trkpt lat="43.402478330207224" lon="10.620015712322518"><ele>500.0</ele><time>2026-04-18T15:06:32.001Z</time></trkpt><trkpt lat="43.402544960372914" lon="10.620118235127297"><ele>499.5</ele><time>2026-04-18T15:06:33.001Z</time></trkpt><trkpt lat="43.4026742848277" lon="10.620343456123903"><ele>499.0</ele><time>2026-04-18T15:06:35.001Z</time></trkpt><trkpt lat="43.40272674123646" lon="10.620464840214416"><ele>498.5</ele><time>2026-04-18T15:06:36.001Z</time></trkpt><trkpt lat="43.40277753355528" lon="10.620582715821401"><ele>498.0</ele><time>2026-04-18T15:06:37.001Z</time></trkpt><trkpt lat="43.40282897945995" lon="10.620698999176284"><ele>498.0</ele><time>2026-04-18T15:06:38.001Z</time></trkpt><trkpt lat="43.402877449750164" lon="10.620809794968935"><ele>497.99999999999994</ele><time>2026-04-18T15:06:39.001Z</time></trkpt><trkpt lat="43.40291395018725" lon="10.620921700267537"><ele>497.99999999999994</ele><time>2026-04-18T15:06:40.001Z</time></trkpt><trkpt lat="43.40292974076852" lon="10.621044177652482"><ele>498.0</ele><time>2026-04-18T15:06:41.001Z</time></trkpt><trkpt lat="43.402934894765366" lon="10.621182964078331"><ele>498.0</ele><time>2026-04-18T15:06:42.001Z</time></trkpt><trkpt lat="43.4029346997604" lon="10.621344589450558"><ele>496.75</ele><time>2026-04-18T15:06:43.001Z</time></trkpt><trkpt lat="43.40294268944261" lon="10.62151563984631"><ele>495.5</ele><time>2026-04-18T15:06:44.001Z</time></trkpt><trkpt lat="43.40296017266941" lon="10.621697942905268"><ele>494.25</ele><time>2026-04-18T15:06:45.001Z</time></trkpt><trkpt lat="43.402980498450844" lon="10.621879967909443"><ele>493.0</ele><time>2026-04-18T15:06:46.001Z</time></trkpt><trkpt lat="43.40299361512103" lon="10.622056188746173"><ele>492.5</ele><time>2026-04-18T15:06:47.001Z</time></trkpt><trkpt lat="43.40299430470484" lon="10.622228263910651"><ele>492.0</ele><time>2026-04-18T15:06:48.001Z</time></trkpt><trkpt lat="43.40298494469789" lon="10.622391294524672"><ele>491.5</ele><time>2026-04-18T15:06:49.001Z</time></trkpt><trkpt lat="43.4029605338094" lon="10.622543372944545"><ele>491.0</ele><time>2026-04-18T15:06:50.001Z</time></trkpt><trkpt lat="43.40292426544943" lon="10.622686613297303"><ele>490.8</ele><time>2026-04-18T15:06:51.001Z</time></trkpt><trkpt lat="43.402874404538" lon="10.622823770801652"><ele>490.6</ele><time>2026-04-18T15:06:52.001Z</time></trkpt><trkpt lat="43.40279828720464" lon="10.622947833821819"><ele>490.4</ele><time>2026-04-18T15:06:53.001Z</time></trkpt><trkpt lat="43.40276955066914" lon="10.623084394752036"><ele>490.2</ele><time>2026-04-18T15:06:54.001Z</time></trkpt><trkpt lat="43.40275049712406" lon="10.62322541605795"><ele>490.0</ele><time>2026-04-18T15:06:55.001Z</time></trkpt><trkpt lat="43.40274956450335" lon="10.623374282602471"><ele>490.0</ele><time>2026-04-18T15:06:56.001Z</time></trkpt><trkpt lat="43.40275892076303" lon="10.623522180124134"><ele>490.0</ele><time>2026-04-18T15:06:57.001Z</time></trkpt><trkpt lat="43.40277896596006" lon="10.62366493964406"><ele>490.0</ele><time>2026-04-18T15:06:58.001Z</time></trkpt><trkpt lat="43.40278679395418" lon="10.623804283961809"><ele>490.0</ele><time>2026-04-18T15:06:59.001Z</time></trkpt><trkpt lat="43.402812565579765" lon="10.623945565282813"><ele>490.0</ele><time>2026-04-18T15:07:00.001Z</time></trkpt><trkpt lat="43.40283674578992" lon="10.624078122413692"><ele>490.00000000000006</ele><time>2026-04-18T15:07:01.001Z</time></trkpt><trkpt lat="43.402881975150635" lon="10.624193190871663"><ele>490.0</ele><time>2026-04-18T15:07:02.001Z</time></trkpt><trkpt lat="43.40289786112842" lon="10.62430813382056"><ele>490.0</ele><time>2026-04-18T15:07:03.001Z</time></trkpt><trkpt lat="43.40291301467394" lon="10.624408874711557"><ele>490.0</ele><time>2026-04-18T15:07:04.001Z</time></trkpt><trkpt lat="43.40294203393075" lon="10.624515554688386"><ele>490.00000000000006</ele><time>2026-04-18T15:07:05.001Z</time></trkpt><trkpt lat="43.402979055701735" lon="10.624627852856204"><ele>490.0</ele><time>2026-04-18T15:07:06.001Z</time></trkpt><trkpt lat="43.403032373359096" lon="10.624736879141896"><ele>490.6</ele><time>2026-04-18T15:07:07.001Z</time></trkpt><trkpt lat="43.40308141381478" lon="10.624845090867648"><ele>491.2</ele><time>2026-04-18T15:07:08.001Z</time></trkpt><trkpt lat="43.403126719459046" lon="10.624960114718911"><ele>491.79999999999995</ele><time>2026-04-18T15:07:09.001Z</time></trkpt><trkpt lat="43.40315841142853" lon="10.625075354061572"><ele>492.4</ele><time>2026-04-18T15:07:10.001Z</time></trkpt><trkpt lat="43.403184346788855" lon="10.625196151725682"><ele>493.0</ele><time>2026-04-18T15:07:11.001Z</time></trkpt><trkpt lat="43.403209011422014" lon="10.625319027118307"><ele>489.2</ele><time>2026-04-18T15:07:12.001Z</time></trkpt><trkpt lat="43.40325232469308" lon="10.625439902334966"><ele>485.4</ele><time>2026-04-18T15:07:13.001Z</time></trkpt><trkpt lat="43.40331832447681" lon="10.625553587207229"><ele>481.59999999999997</ele><time>2026-04-18T15:07:14.001Z</time></trkpt><trkpt lat="43.40338690301282" lon="10.625664332161968"><ele>477.79999999999995</ele><time>2026-04-18T15:07:15.001Z</time></trkpt><trkpt lat="43.40345568496235" lon="10.62577999058957"><ele>474.0</ele><time>2026-04-18T15:07:16.001Z</time></trkpt><trkpt lat="43.40352409203026" lon="10.625898151164177"><ele>474.0</ele><time>2026-04-18T15:07:17.001Z</time></trkpt><trkpt lat="43.40358741370033" lon="10.626019483687454"><ele>474.0</ele><time>2026-04-18T15:07:18.001Z</time></trkpt><trkpt lat="43.403655159677285" lon="10.626139930652618"><ele>474.0</ele><time>2026-04-18T15:07:19.001Z</time></trkpt><trkpt lat="43.40372578729456" lon="10.6262656964626"><ele>474.0</ele><time>2026-04-18T15:07:20.001Z</time></trkpt><trkpt lat="43.40379602871208" lon="10.626397237154505"><ele>475.79999999999995</ele><time>2026-04-18T15:07:21.001Z</time></trkpt><trkpt lat="43.4038633693966" lon="10.626529216564968"><ele>477.59999999999997</ele><time>2026-04-18T15:07:22.001Z</time></trkpt><trkpt lat="43.40392904508934" lon="10.626654867222298"><ele>479.4</ele><time>2026-04-18T15:07:23.001Z</time></trkpt><trkpt lat="43.40399288716311" lon="10.626759772864766"><ele>481.2</ele><time>2026-04-18T15:07:24.001Z</time></trkpt><trkpt lat="43.404056313349585" lon="10.62685182225119"><ele>483.0</ele><time>2026-04-18T15:07:25.001Z</time></trkpt><trkpt lat="43.40412473669499" lon="10.626937857084165"><ele>479.6666666666667</ele><time>2026-04-18T15:07:26.001Z</time></trkpt><trkpt lat="43.404199422187695" lon="10.627018447642296"><ele>476.33333333333337</ele><time>2026-04-18T15:07:27.001Z</time></trkpt><trkpt lat="43.40427586340799" lon="10.627103047362287"><ele>473.0</ele><time>2026-04-18T15:07:28.001Z</time></trkpt><trkpt lat="43.40434522165049" lon="10.627183632752255"><ele>469.6666666666667</ele><time>2026-04-18T15:07:29.001Z</time></trkpt><trkpt lat="43.4044099094984" lon="10.627256511457903"><ele>466.33333333333337</ele><time>2026-04-18T15:07:30.001Z</time></trkpt><trkpt lat="43.40447692922526" lon="10.627314315532418"><ele>463.0</ele><time>2026-04-18T15:07:31.001Z</time></trkpt><trkpt lat="43.40454977796472" lon="10.627357180595904"><ele>463.00000000000006</ele><time>2026-04-18T15:07:32.001Z</time></trkpt><trkpt lat="43.40462776783912" lon="10.627380791854842"><ele>463.0</ele><time>2026-04-18T15:07:33.001Z</time></trkpt><trkpt lat="43.40471380341408" lon="10.627390228058418"><ele>463.0</ele><time>2026-04-18T15:07:34.001Z</time></trkpt><trkpt lat="43.40479968276873" lon="10.627401232350032"><ele>463.0</ele><time>2026-04-18T15:07:35.001Z</time></trkpt><trkpt lat="43.40488029616981" lon="10.627407799085422"><ele>463.00000000000006</ele><time>2026-04-18T15:07:36.001Z</time></trkpt><trkpt lat="43.40495881738724" lon="10.627416259100356"><ele>463.0</ele><time>2026-04-18T15:07:37.001Z</time></trkpt><trkpt lat="43.40503722625057" lon="10.627431818656804"><ele>464.00000000000006</ele><time>2026-04-18T15:07:38.001Z</time></trkpt><trkpt lat="43.40511549385178" lon="10.62745424955745"><ele>465.0</ele><time>2026-04-18T15:07:39.001Z</time></trkpt><trkpt lat="43.405187037120534" lon="10.627486976750292"><ele>466.0</ele><time>2026-04-18T15:07:40.001Z</time></trkpt><trkpt lat="43.405253387815776" lon="10.62754106325795"><ele>467.0</ele><time>2026-04-18T15:07:41.001Z</time></trkpt><trkpt lat="43.40531258899438" lon="10.627618843138892"><ele>468.00000000000006</ele><time>2026-04-18T15:07:42.001Z</time></trkpt><trkpt lat="43.40536313895473" lon="10.627703703945446"><ele>469.0</ele><time>2026-04-18T15:07:43.001Z</time></trkpt><trkpt lat="43.405404290431605" lon="10.62780072651681"><ele>466.33333333333337</ele><time>2026-04-18T15:07:44.001Z</time></trkpt><trkpt lat="43.40543338182624" lon="10.6279145294011"><ele>463.6666666666667</ele><time>2026-04-18T15:07:45.001Z</time></trkpt><trkpt lat="43.40546424379131" lon="10.62802869144363"><ele>461.0</ele><time>2026-04-18T15:07:46.001Z</time></trkpt><trkpt lat="43.40549178393888" lon="10.628134252715629"><ele>458.33333333333337</ele><time>2026-04-18T15:07:47.001Z</time></trkpt><trkpt lat="43.40552063476227" lon="10.628231431951065"><ele>455.6666666666667</ele><time>2026-04-18T15:07:48.001Z</time></trkpt><trkpt lat="43.40554937129607" lon="10.628310971930064"><ele>453.0</ele><time>2026-04-18T15:07:49.001Z</time></trkpt><trkpt lat="43.4055831559859" lon="10.628400497723677"><ele>453.0</ele><time>2026-04-18T15:07:51.001Z</time></trkpt><trkpt lat="43.40561061566574" lon="10.62850115241322"><ele>453.0</ele><time>2026-04-18T15:08:02.001Z</time></trkpt><trkpt lat="43.40563595322636" lon="10.62860023784505"><ele>453.0</ele><time>2026-04-18T15:08:04.001Z</time></trkpt><trkpt lat="43.40565713007792" lon="10.628708707669112"><ele>453.0</ele><time>2026-04-18T15:08:06.001Z</time></trkpt><trkpt lat="43.40567980264138" lon="10.62881225500622"><ele>453.0</ele><time>2026-04-18T15:08:08.001Z</time></trkpt><trkpt lat="43.405714593407815" lon="10.628902198101708"><ele>453.0</ele><time>2026-04-18T15:08:10.001Z</time></trkpt><trkpt lat="43.40575393409618" lon="10.62900401855017"><ele>452.8333333333333</ele><time>2026-04-18T15:08:12.001Z</time></trkpt><trkpt lat="43.405766486486336" lon="10.629112697806395"><ele>452.66666666666663</ele><time>2026-04-18T15:08:15.001Z</time></trkpt><trkpt lat="43.40579671418637" lon="10.629188843204208"><ele>452.5</ele><time>2026-04-18T15:08:18.001Z</time></trkpt><trkpt lat="43.40585040654628" lon="10.629282911483264"><ele>452.3333333333333</ele><time>2026-04-18T15:08:21.001Z</time></trkpt><trkpt lat="43.405901880874275" lon="10.629373251107701"><ele>452.16666666666663</ele><time>2026-04-18T15:08:23.001Z</time></trkpt><trkpt lat="43.40595575907637" lon="10.629474685265846"><ele>452.0</ele><time>2026-04-18T15:08:25.001Z</time></trkpt><trkpt lat="43.405979765572496" lon="10.629614528506492"><ele>451.49999999999994</ele><time>2026-04-18T15:08:27.001Z</time></trkpt><trkpt lat="43.40601394501684" lon="10.629763921020766"><ele>451.0</ele><time>2026-04-18T15:08:29.001Z</time></trkpt><trkpt lat="43.40604951512084" lon="10.629880912420376"><ele>450.5</ele><time>2026-04-18T15:08:31.001Z</time></trkpt><trkpt lat="43.40607238528353" lon="10.629974476447424"><ele>450.0</ele><time>2026-04-18T15:08:33.001Z</time></trkpt><trkpt lat="43.40610563419604" lon="10.630048138769668"><ele>449.49999999999994</ele><time>2026-04-18T15:08:36.001Z</time></trkpt><trkpt lat="43.406140884766955" lon="10.630131589078637"><ele>449.0</ele><time>2026-04-18T15:08:40.001Z</time></trkpt><trkpt lat="43.406181070992254" lon="10.630233690973535"><ele>448.3333333333333</ele><time>2026-04-18T15:08:44.001Z</time></trkpt><trkpt lat="43.40621959154423" lon="10.630316992355269"><ele>447.66666666666663</ele><time>2026-04-18T15:08:47.001Z</time></trkpt><trkpt lat="43.40625946936944" lon="10.63044354617013"><ele>447.0</ele><time>2026-04-18T15:08:50.001Z</time></trkpt><trkpt lat="43.40627578621252" lon="10.63054237385982"><ele>446.33333333333337</ele><time>2026-04-18T15:08:52.001Z</time></trkpt><trkpt lat="43.40628410930639" lon="10.630635526407916"><ele>445.6666666666667</ele><time>2026-04-18T15:08:56.002Z</time></trkpt><trkpt lat="43.40627782062776" lon="10.630744545364232"><ele>445.0</ele><time>2026-04-18T15:09:25.001Z</time></trkpt><trkpt lat="43.40628365242472" lon="10.630861549995503"><ele>445.0</ele><time>2026-04-18T15:09:28.001Z</time></trkpt><trkpt lat="43.406276634295665" lon="10.630953201878151"><ele>445.0</ele><time>2026-04-18T15:09:31.001Z</time></trkpt><trkpt lat="43.40630963235234" lon="10.631031172380917"><ele>445.0</ele><time>2026-04-18T15:09:33.001Z</time></trkpt><trkpt lat="43.40633393225671" lon="10.6311237404209"><ele>445.0</ele><time>2026-04-18T15:09:35.001Z</time></trkpt><trkpt lat="43.40633100097002" lon="10.631221280477707"><ele>445.0</ele><time>2026-04-18T15:09:37.001Z</time></trkpt><trkpt lat="43.40632524268855" lon="10.631319021825238"><ele>445.0</ele><time>2026-04-18T15:09:39.001Z</time></trkpt><trkpt lat="43.40629937166613" lon="10.63143981705931"><ele>445.0</ele><time>2026-04-18T15:09:41.001Z</time></trkpt><trkpt lat="43.40629407851294" lon="10.631562461219811"><ele>444.8571428571429</ele><time>2026-04-18T15:09:43.001Z</time></trkpt><trkpt lat="43.4062916647473" lon="10.631676702502565"><ele>444.71428571428567</ele><time>2026-04-18T15:09:45.001Z</time></trkpt><trkpt lat="43.40627262189417" lon="10.631775527138526"><ele>444.57142857142856</ele><time>2026-04-18T15:09:47.001Z</time></trkpt><trkpt lat="43.40627034962482" lon="10.631864302968"><ele>444.42857142857144</ele><time>2026-04-18T15:09:49.001Z</time></trkpt><trkpt lat="43.406271473873424" lon="10.631951576567284"><ele>444.28571428571433</ele><time>2026-04-18T15:09:51.001Z</time></trkpt><trkpt lat="43.406293033226135" lon="10.632069343876609"><ele>444.1428571428571</ele><time>2026-04-18T15:09:54.001Z</time></trkpt><trkpt lat="43.40630194226664" lon="10.632162475659412"><ele>444.0</ele><time>2026-04-18T15:09:56.001Z</time></trkpt><trkpt lat="43.40630716307668" lon="10.632285380413444"><ele>444.0</ele><time>2026-04-18T15:09:58.001Z</time></trkpt><trkpt lat="43.406315727781696" lon="10.632402472035201"><ele>444.0</ele><time>2026-04-18T15:10:00.001Z</time></trkpt><trkpt lat="43.40631347635887" lon="10.632517152217833"><ele>444.0</ele><time>2026-04-18T15:10:02.001Z</time></trkpt><trkpt lat="43.40630903740032" lon="10.632630103152596"><ele>444.0</ele><time>2026-04-18T15:10:04.001Z</time></trkpt><trkpt lat="43.406317022093276" lon="10.632717774237175"><ele>444.0</ele><time>2026-04-18T15:10:06.001Z</time></trkpt><trkpt lat="43.40628809522526" lon="10.632817780546658"><ele>444.0</ele><time>2026-04-18T15:10:09.001Z</time></trkpt><trkpt lat="43.406248586483215" lon="10.632923533876248"><ele>444.5</ele><time>2026-04-18T15:10:12.001Z</time></trkpt><trkpt lat="43.40620150932795" lon="10.633017534526365"><ele>445.0</ele><time>2026-04-18T15:10:15.001Z</time></trkpt><trkpt lat="43.406158799241034" lon="10.63311548561083"><ele>445.5</ele><time>2026-04-18T15:10:18.001Z</time></trkpt><trkpt lat="43.40609513518726" lon="10.633206950432854"><ele>446.0</ele><time>2026-04-18T15:10:21.001Z</time></trkpt><trkpt lat="43.406059422242436" lon="10.633299178841341"><ele>446.5</ele><time>2026-04-18T15:10:24.001Z</time></trkpt><trkpt lat="43.406039978919004" lon="10.633388774563175"><ele>447.0</ele><time>2026-04-18T15:10:36.001Z</time></trkpt><trkpt lat="43.40607853432923" lon="10.633468287008862"><ele>447.0</ele><time>2026-04-18T15:10:44.001Z</time></trkpt><trkpt lat="43.406044053945195" lon="10.633326031595551"><ele>447.0</ele><time>2026-04-18T15:11:25.001Z</time></trkpt><trkpt lat="43.40607437436033" lon="10.633223751676395"><ele>447.0</ele><time>2026-04-18T15:11:29.001Z</time></trkpt><trkpt lat="43.406117048708225" lon="10.63314740173801"><ele>447.0</ele><time>2026-04-18T15:11:32.001Z</time></trkpt><trkpt lat="43.406168900894016" lon="10.633076594542123"><ele>447.0</ele><time>2026-04-18T15:11:34.001Z</time></trkpt><trkpt lat="43.40621351520503" lon="10.633005327376253"><ele>447.0</ele><time>2026-04-18T15:11:36.001Z</time></trkpt><trkpt lat="43.406251874504754" lon="10.632930104945789"><ele>447.0</ele><time>2026-04-18T15:11:38.001Z</time></trkpt><trkpt lat="43.406282921863735" lon="10.632847389255868"><ele>447.0</ele><time>2026-04-18T15:11:40.001Z</time></trkpt><trkpt lat="43.406299958721604" lon="10.632743992358238"><ele>447.0</ele><time>2026-04-18T15:11:42.001Z</time></trkpt><trkpt lat="43.40630037670301" lon="10.632648263181121"><ele>447.0</ele><time>2026-04-18T15:11:45.001Z</time></trkpt><trkpt lat="43.406313465986834" lon="10.63252516716011"><ele>447.0</ele><time>2026-04-18T15:11:48.001Z</time></trkpt><trkpt lat="43.406323693623605" lon="10.632418446109487"><ele>447.0</ele><time>2026-04-18T15:11:51.001Z</time></trkpt><trkpt lat="43.40639410227512" lon="10.63234959404329"><ele>447.8333333333333</ele><time>2026-04-18T15:11:58.001Z</time></trkpt><trkpt lat="43.40647489980989" lon="10.632370705051839"><ele>448.66666666666663</ele><time>2026-04-18T15:12:01.001Z</time></trkpt><trkpt lat="43.40653350010878" lon="10.632432884669216"><ele>449.5</ele><time>2026-04-18T15:12:10.001Z</time></trkpt><trkpt lat="43.40658373132992" lon="10.632512249673336"><ele>450.3333333333333</ele><time>2026-04-18T15:12:14.001Z</time></trkpt><trkpt lat="43.406627714938374" lon="10.632580817165037"><ele>451.16666666666663</ele><time>2026-04-18T15:12:18.001Z</time></trkpt><trkpt lat="43.406663654263724" lon="10.632670573201503"><ele>452.0</ele><time>2026-04-18T15:12:41.001Z</time></trkpt><trkpt lat="43.406697284562206" lon="10.632778262557082"><ele>453.40000000000003</ele><time>2026-04-18T15:12:44.001Z</time></trkpt><trkpt lat="43.40673459886779" lon="10.632886810711586"><ele>454.80000000000007</ele><time>2026-04-18T15:12:47.001Z</time></trkpt><trkpt lat="43.40678372190921" lon="10.632991965794986"><ele>456.2</ele><time>2026-04-18T15:12:50.001Z</time></trkpt><trkpt lat="43.40680922808094" lon="10.633111840346857"><ele>457.6</ele><time>2026-04-18T15:12:53.001Z</time></trkpt><trkpt lat="43.406834990171454" lon="10.633231265532205"><ele>459.0</ele><time>2026-04-18T15:12:56.001Z</time></trkpt><trkpt lat="43.406849870631575" lon="10.63335516838699"><ele>459.0</ele><time>2026-04-18T15:12:59.001Z</time></trkpt><trkpt lat="43.40683960855677" lon="10.633453556840069"><ele>459.0</ele><time>2026-04-18T15:13:02.001Z</time></trkpt><trkpt lat="43.40682459904928" lon="10.633560547284162"><ele>459.0</ele><time>2026-04-18T15:13:06.001Z</time></trkpt><trkpt lat="43.40680660578656" lon="10.63366401012147"><ele>459.0</ele><time>2026-04-18T15:13:10.001Z</time></trkpt><trkpt lat="43.406790325825014" lon="10.633775207921445"><ele>459.0</ele><time>2026-04-18T15:13:14.001Z</time></trkpt><trkpt lat="43.40682207432822" lon="10.633871909366956"><ele>459.0</ele><time>2026-04-18T15:13:17.001Z</time></trkpt><trkpt lat="43.40687389280433" lon="10.63397497467982"><ele>459.14285714285717</ele><time>2026-04-18T15:13:20.001Z</time></trkpt><trkpt lat="43.4069078307085" lon="10.634055466099834"><ele>459.2857142857142</ele><time>2026-04-18T15:13:23.001Z</time></trkpt><trkpt lat="43.40693694805609" lon="10.634156736935465"><ele>459.4285714285714</ele><time>2026-04-18T15:13:27.001Z</time></trkpt><trkpt lat="43.40696029041506" lon="10.63426543291327"><ele>459.57142857142856</ele><time>2026-04-18T15:13:30.001Z</time></trkpt><trkpt lat="43.40697554010724" lon="10.634356397388798"><ele>459.71428571428567</ele><time>2026-04-18T15:13:33.001Z</time></trkpt><trkpt lat="43.40698312446768" lon="10.634442579603844"><ele>459.8571428571428</ele><time>2026-04-18T15:13:37.001Z</time></trkpt><trkpt lat="43.40697653614688" lon="10.634529607705785"><ele>459.99999999999994</ele><time>2026-04-18T15:13:44.001Z</time></trkpt><trkpt lat="43.40695518567307" lon="10.634614913645457"><ele>459.99999999999994</ele><time>2026-04-18T15:13:50.001Z</time></trkpt><trkpt lat="43.40693215981069" lon="10.63470633819696"><ele>460.0</ele><time>2026-04-18T15:13:56.001Z</time></trkpt><trkpt lat="43.406992115585645" lon="10.634743366935984"><ele>459.99999999999994</ele><time>2026-04-18T15:14:09.001Z</time></trkpt><trkpt lat="43.40701009096019" lon="10.634652050089976"><ele>459.99999999999994</ele><time>2026-04-18T15:14:16.001Z</time></trkpt><trkpt lat="43.40698968187144" lon="10.634567854327457"><ele>460.0</ele><time>2026-04-18T15:14:20.001Z</time></trkpt><trkpt lat="43.406976344513325" lon="10.634478487501681"><ele>459.99999999999994</ele><time>2026-04-18T15:14:23.001Z</time></trkpt><trkpt lat="43.40696808237984" lon="10.634365858232234"><ele>459.99999999999994</ele><time>2026-04-18T15:14:26.001Z</time></trkpt><trkpt lat="43.40695264180355" lon="10.634271823478104"><ele>460.00000000000006</ele><time>2026-04-18T15:14:30.001Z</time></trkpt><trkpt lat="43.406931713255055" lon="10.634178813700043"><ele>460.0</ele><time>2026-04-18T15:14:33.001Z</time></trkpt><trkpt lat="43.40690925869941" lon="10.634097721748953"><ele>460.0</ele><time>2026-04-18T15:14:36.001Z</time></trkpt><trkpt lat="43.40687023938556" lon="10.633987754920605"><ele>460.0</ele><time>2026-04-18T15:14:39.001Z</time></trkpt><trkpt lat="43.40682439905169" lon="10.633890238801973"><ele>460.00000000000006</ele><time>2026-04-18T15:14:41.001Z</time></trkpt><trkpt lat="43.4067849567215" lon="10.633764325171084"><ele>460.0</ele><time>2026-04-18T15:14:43.001Z</time></trkpt><trkpt lat="43.40679702840558" lon="10.633641054961647"><ele>459.8571428571428</ele><time>2026-04-18T15:14:45.001Z</time></trkpt><trkpt lat="43.40681324186149" lon="10.633553033256137"><ele>459.71428571428567</ele><time>2026-04-18T15:14:47.001Z</time></trkpt><trkpt lat="43.406825557797525" lon="10.633458382110222"><ele>459.57142857142856</ele><time>2026-04-18T15:14:50.001Z</time></trkpt><trkpt lat="43.40683439116498" lon="10.633371618315847"><ele>459.4285714285714</ele><time>2026-04-18T15:14:53.001Z</time></trkpt><trkpt lat="43.40682587971846" lon="10.633246162141235"><ele>459.2857142857142</ele><time>2026-04-18T15:14:56.001Z</time></trkpt><trkpt lat="43.40680720310911" lon="10.633149932135098"><ele>459.14285714285717</ele><time>2026-04-18T15:14:58.001Z</time></trkpt><trkpt lat="43.40678683182462" lon="10.63306177791017"><ele>459.0</ele><time>2026-04-18T15:15:00.001Z</time></trkpt><trkpt lat="43.40675628117021" lon="10.632965143972452"><ele>459.0</ele><time>2026-04-18T15:15:02.001Z</time></trkpt><trkpt lat="43.40671826526482" lon="10.632866066962377"><ele>459.0</ele><time>2026-04-18T15:15:04.001Z</time></trkpt><trkpt lat="43.406683334947246" lon="10.632753391181584"><ele>459.0</ele><time>2026-04-18T15:15:06.001Z</time></trkpt><trkpt lat="43.406658584229874" lon="10.63265782570543"><ele>459.0</ele><time>2026-04-18T15:15:08.001Z</time></trkpt><trkpt lat="43.40662485660078" lon="10.632578475532185"><ele>459.0</ele><time>2026-04-18T15:15:10.001Z</time></trkpt><trkpt lat="43.406582753037675" lon="10.632507836936885"><ele>459.0</ele><time>2026-04-18T15:15:12.001Z</time></trkpt><trkpt lat="43.40654132150279" lon="10.632437334061935"><ele>459.0</ele><time>2026-04-18T15:15:14.001Z</time></trkpt><trkpt lat="43.40648561553158" lon="10.6323766065758"><ele>457.8333333333333</ele><time>2026-04-18T15:15:17.001Z</time></trkpt><trkpt lat="43.406407072580784" lon="10.632336037890344"><ele>456.66666666666663</ele><time>2026-04-18T15:15:21.001Z</time></trkpt><trkpt lat="43.40634717102283" lon="10.632303759558564"><ele>455.5</ele><time>2026-04-18T15:15:24.001Z</time></trkpt><trkpt lat="43.40630101952546" lon="10.63220922945922"><ele>454.3333333333333</ele><time>2026-04-18T15:15:28.001Z</time></trkpt><trkpt lat="43.40628432980597" lon="10.632092680897712"><ele>453.16666666666663</ele><time>2026-04-18T15:15:31.001Z</time></trkpt><trkpt lat="43.40627896727813" lon="10.632005054883834"><ele>452.0</ele><time>2026-04-18T15:15:33.001Z</time></trkpt><trkpt lat="43.40627690829312" lon="10.631879913454105"><ele>450.99999999999994</ele><time>2026-04-18T15:15:36.001Z</time></trkpt><trkpt lat="43.406277876470504" lon="10.631765931736407"><ele>450.0</ele><time>2026-04-18T15:15:39.001Z</time></trkpt><trkpt lat="43.406283471372454" lon="10.631635710376806"><ele>449.0</ele><time>2026-04-18T15:15:42.001Z</time></trkpt><trkpt lat="43.40628078115711" lon="10.63153903124893"><ele>448.0</ele><time>2026-04-18T15:15:44.001Z</time></trkpt><trkpt lat="43.406301152352185" lon="10.631451564612139"><ele>446.99999999999994</ele><time>2026-04-18T15:15:46.001Z</time></trkpt><trkpt lat="43.40632402127099" lon="10.631349819505534"><ele>446.0</ele><time>2026-04-18T15:15:48.001Z</time></trkpt><trkpt lat="43.40633418754235" lon="10.63122316060542"><ele>445.8333333333333</ele><time>2026-04-18T15:15:50.001Z</time></trkpt><trkpt lat="43.40631920972081" lon="10.63112909369657"><ele>445.66666666666663</ele><time>2026-04-18T15:15:52.001Z</time></trkpt><trkpt lat="43.40630339899206" lon="10.6310376085301"><ele>445.5</ele><time>2026-04-18T15:15:54.001Z</time></trkpt><trkpt lat="43.406283054056985" lon="10.630951002354669"><ele>445.33333333333337</ele><time>2026-04-18T15:15:58.001Z</time></trkpt><trkpt lat="43.406274859486736" lon="10.630855218871808"><ele>445.1666666666667</ele><time>2026-04-18T15:16:06.001Z</time></trkpt><trkpt lat="43.406264128230816" lon="10.630736002993087"><ele>445.0</ele><time>2026-04-18T15:16:10.001Z</time></trkpt><trkpt lat="43.40628482920104" lon="10.630591922362983"><ele>445.00000000000006</ele><time>2026-04-18T15:16:13.001Z</time></trkpt><trkpt lat="43.4062953486336" lon="10.630500470732155"><ele>445.0</ele><time>2026-04-18T15:16:17.001Z</time></trkpt><trkpt lat="43.40625210988578" lon="10.630408386349417"><ele>445.0</ele><time>2026-04-18T15:16:43.001Z</time></trkpt><trkpt lat="43.40621440310727" lon="10.630333839929149"><ele>445.0</ele><time>2026-04-18T15:16:45.001Z</time></trkpt><trkpt lat="43.406164197679274" lon="10.630239464610991"><ele>445.00000000000006</ele><time>2026-04-18T15:16:48.001Z</time></trkpt><trkpt lat="43.40612509106494" lon="10.630134920170965"><ele>445.0</ele><time>2026-04-18T15:16:51.001Z</time></trkpt><trkpt lat="43.40609183678634" lon="10.630051370549962"><ele>445.8</ele><time>2026-04-18T15:16:53.001Z</time></trkpt><trkpt lat="43.40605415621413" lon="10.62996141991327"><ele>446.6</ele><time>2026-04-18T15:16:55.001Z</time></trkpt><trkpt lat="43.40602279684633" lon="10.629821483894672"><ele>447.4</ele><time>2026-04-18T15:16:57.001Z</time></trkpt><trkpt lat="43.406025524639" lon="10.629659846344605"><ele>448.2</ele><time>2026-04-18T15:16:59.001Z</time></trkpt><trkpt lat="43.40595644567128" lon="10.629541978817302"><ele>449.0</ele><time>2026-04-18T15:17:01.001Z</time></trkpt><trkpt lat="43.40591429707794" lon="10.629432827794169"><ele>449.6</ele><time>2026-04-18T15:17:03.001Z</time></trkpt><trkpt lat="43.40584230136888" lon="10.629298084262913"><ele>450.2</ele><time>2026-04-18T15:17:05.001Z</time></trkpt><trkpt lat="43.405793882251245" lon="10.62917665591946"><ele>450.80000000000007</ele><time>2026-04-18T15:17:07.001Z</time></trkpt><trkpt lat="43.40576910187029" lon="10.629084341682962"><ele>451.40000000000003</ele><time>2026-04-18T15:17:12.001Z</time></trkpt><trkpt lat="43.40572794446839" lon="10.628967445798368"><ele>452.0</ele><time>2026-04-18T15:17:15.001Z</time></trkpt><trkpt lat="43.405694374916024" lon="10.628854775192565"><ele>451.99999999999994</ele><time>2026-04-18T15:17:17.001Z</time></trkpt><trkpt lat="43.40565104323845" lon="10.628730621232236"><ele>452.0</ele><time>2026-04-18T15:17:19.001Z</time></trkpt><trkpt lat="43.40562193403367" lon="10.628630582848544"><ele>452.0</ele><time>2026-04-18T15:17:20.999Z</time></trkpt><trkpt lat="43.40560814899607" lon="10.628515165258845"><ele>452.0</ele><time>2026-04-18T15:17:22.999Z</time></trkpt><trkpt lat="43.40566547755678" lon="10.628457090058605"><ele>451.99999999999994</ele><time>2026-04-18T15:17:25.999Z</time></trkpt><trkpt lat="43.405761253146416" lon="10.62846633579467"><ele>452.0</ele><time>2026-04-18T15:17:28.999Z</time></trkpt><trkpt lat="43.40589116705638" lon="10.628521922176413"><ele>452.25</ele><time>2026-04-18T15:17:30.999Z</time></trkpt><trkpt lat="43.40597322457544" lon="10.628546747037483"><ele>452.5</ele><time>2026-04-18T15:17:31.999Z</time></trkpt><trkpt lat="43.40607106554005" lon="10.628567536563256"><ele>452.75</ele><time>2026-04-18T15:17:32.999Z</time></trkpt><trkpt lat="43.40617298576778" lon="10.62858541960458"><ele>453.0</ele><time>2026-04-18T15:17:33.999Z</time></trkpt><trkpt lat="43.406369011208156" lon="10.628640718747965"><ele>450.4</ele><time>2026-04-18T15:17:35.999Z</time></trkpt><trkpt lat="43.406462967794596" lon="10.6286665720497"><ele>447.79999999999995</ele><time>2026-04-18T15:17:36.999Z</time></trkpt><trkpt lat="43.406545454203936" lon="10.628702986861427"><ele>445.2</ele><time>2026-04-18T15:17:37.999Z</time></trkpt><trkpt lat="43.40662496226118" lon="10.628756087136422"><ele>442.6</ele><time>2026-04-18T15:17:38.999Z</time></trkpt><trkpt lat="43.406691051510435" lon="10.628844540681134"><ele>440.0</ele><time>2026-04-18T15:17:39.999Z</time></trkpt><trkpt lat="43.406747864693564" lon="10.628957886495366"><ele>440.0</ele><time>2026-04-18T15:17:40.999Z</time></trkpt><trkpt lat="43.40680824423034" lon="10.629082521063271"><ele>440.0</ele><time>2026-04-18T15:17:41.999Z</time></trkpt><trkpt lat="43.406876416423245" lon="10.629203147469513"><ele>440.0</ele><time>2026-04-18T15:17:42.999Z</time></trkpt><trkpt lat="43.40695148868408" lon="10.629322924306388"><ele>440.0</ele><time>2026-04-18T15:17:43.999Z</time></trkpt><trkpt lat="43.40702741804957" lon="10.629442736069988"><ele>440.6</ele><time>2026-04-18T15:17:44.999Z</time></trkpt><trkpt lat="43.40709858469158" lon="10.629564075856909"><ele>441.2</ele><time>2026-04-18T15:17:45.999Z</time></trkpt><trkpt lat="43.40716834063412" lon="10.629680292245293"><ele>441.79999999999995</ele><time>2026-04-18T15:17:46.999Z</time></trkpt><trkpt lat="43.40723605062259" lon="10.62979852862095"><ele>442.4</ele><time>2026-04-18T15:17:47.999Z</time></trkpt><trkpt lat="43.40730477982146" lon="10.629914647635578"><ele>443.0</ele><time>2026-04-18T15:17:48.999Z</time></trkpt><trkpt lat="43.40737005760637" lon="10.630023214444288"><ele>440.4</ele><time>2026-04-18T15:17:49.999Z</time></trkpt><trkpt lat="43.40743599772839" lon="10.630128104982319"><ele>437.79999999999995</ele><time>2026-04-18T15:17:50.999Z</time></trkpt><trkpt lat="43.40749851819647" lon="10.630230095391596"><ele>435.2</ele><time>2026-04-18T15:17:51.999Z</time></trkpt><trkpt lat="43.40756115947635" lon="10.630334770631091"><ele>432.6</ele><time>2026-04-18T15:17:52.999Z</time></trkpt><trkpt lat="43.407622386501956" lon="10.63044219596391"><ele>430.0</ele><time>2026-04-18T15:17:53.999Z</time></trkpt><trkpt lat="43.40768569050655" lon="10.630551081171353"><ele>430.0</ele><time>2026-04-18T15:17:54.999Z</time></trkpt><trkpt lat="43.407752157122985" lon="10.630650301800703"><ele>430.0</ele><time>2026-04-18T15:17:55.999Z</time></trkpt><trkpt lat="43.407816165006956" lon="10.630745027106345"><ele>430.0</ele><time>2026-04-18T15:17:56.999Z</time></trkpt><trkpt lat="43.407872363717225" lon="10.63084744151552"><ele>430.0</ele><time>2026-04-18T15:17:57.999Z</time></trkpt><trkpt lat="43.40792348914663" lon="10.630946018366375"><ele>430.0</ele><time>2026-04-18T15:17:58.999Z</time></trkpt><trkpt lat="43.40795951019585" lon="10.631050406306237"><ele>428.0</ele><time>2026-04-18T15:17:59.999Z</time></trkpt><trkpt lat="43.40800266656834" lon="10.631151296302551"><ele>426.0</ele><time>2026-04-18T15:18:00.999Z</time></trkpt><trkpt lat="43.40805452140172" lon="10.631248225757506"><ele>424.0</ele><time>2026-04-18T15:18:01.999Z</time></trkpt><trkpt lat="43.40812670465583" lon="10.631330138104966"><ele>422.0</ele><time>2026-04-18T15:18:02.999Z</time></trkpt><trkpt lat="43.40821478660091" lon="10.631391372843318"><ele>420.0</ele><time>2026-04-18T15:18:04Z</time></trkpt><trkpt lat="43.40830903406393" lon="10.63143385361803"><ele>420.0</ele><time>2026-04-18T15:18:05Z</time></trkpt><trkpt lat="43.40838863998076" lon="10.631470326696796"><ele>420.0</ele><time>2026-04-18T15:18:06Z</time></trkpt><trkpt lat="43.408457654500005" lon="10.631517146006615"><ele>420.0</ele><time>2026-04-18T15:18:07Z</time></trkpt><trkpt lat="43.40851738421604" lon="10.631570207288126"><ele>420.0</ele><time>2026-04-18T15:18:08Z</time></trkpt><trkpt lat="43.408570376783565" lon="10.631622244865744"><ele>420.0</ele><time>2026-04-18T15:18:09Z</time></trkpt><trkpt lat="43.408670625033366" lon="10.631705760922364"><ele>420.0</ele><time>2026-04-18T15:18:11Z</time></trkpt><trkpt lat="43.408776499805754" lon="10.631767064692001"><ele>417.8333333333333</ele><time>2026-04-18T15:18:13Z</time></trkpt><trkpt lat="43.40885376836509" lon="10.631764286321031"><ele>415.66666666666663</ele><time>2026-04-18T15:18:14Z</time></trkpt><trkpt lat="43.4089290184311" lon="10.631754811344342"><ele>413.5</ele><time>2026-04-18T15:18:15Z</time></trkpt><trkpt lat="43.40899179491816" lon="10.631736797030706"><ele>411.3333333333333</ele><time>2026-04-18T15:18:16Z</time></trkpt><trkpt lat="43.40909865605306" lon="10.631707160347608"><ele>409.16666666666663</ele><time>2026-04-18T15:18:18Z</time></trkpt><trkpt lat="43.40920201753573" lon="10.631672600835971"><ele>407.0</ele><time>2026-04-18T15:18:20Z</time></trkpt><trkpt lat="43.409269599593" lon="10.631659292761872"><ele>406.99999999999994</ele><time>2026-04-18T15:18:21Z</time></trkpt><trkpt lat="43.409340177326875" lon="10.631637813303616"><ele>407.0</ele><time>2026-04-18T15:18:22Z</time></trkpt><trkpt lat="43.40941601871427" lon="10.63161948210539"><ele>407.0</ele><time>2026-04-18T15:18:23Z</time></trkpt><trkpt lat="43.40949108359892" lon="10.631604591032769"><ele>407.0</ele><time>2026-04-18T15:18:24Z</time></trkpt><trkpt lat="43.409568495251584" lon="10.631583940894384"><ele>406.99999999999994</ele><time>2026-04-18T15:18:25Z</time></trkpt><trkpt lat="43.40964396758111" lon="10.631557827754651"><ele>407.0</ele><time>2026-04-18T15:18:26Z</time></trkpt><trkpt lat="43.40971113486678" lon="10.631538458268"><ele>406.3333333333333</ele><time>2026-04-18T15:18:27Z</time></trkpt><trkpt lat="43.40983566076595" lon="10.631550948006124"><ele>405.66666666666663</ele><time>2026-04-18T15:18:29Z</time></trkpt><trkpt lat="43.409898021477616" lon="10.631595517791013"><ele>405.0</ele><time>2026-04-18T15:18:30Z</time></trkpt><trkpt lat="43.40995597740389" lon="10.631676090773832"><ele>404.33333333333337</ele><time>2026-04-18T15:18:31Z</time></trkpt><trkpt lat="43.41000903525687" lon="10.631775009429514"><ele>403.6666666666667</ele><time>2026-04-18T15:18:32Z</time></trkpt><trkpt lat="43.41003978687116" lon="10.631877748053641"><ele>403.0</ele><time>2026-04-18T15:18:33Z</time></trkpt><trkpt lat="43.41007471969109" lon="10.631974486154004"><ele>403.00000000000006</ele><time>2026-04-18T15:18:34Z</time></trkpt><trkpt lat="43.41010642356371" lon="10.63207456236468"><ele>403.0</ele><time>2026-04-18T15:18:35Z</time></trkpt><trkpt lat="43.410143209290545" lon="10.63217777059568"><ele>403.0</ele><time>2026-04-18T15:18:36Z</time></trkpt><trkpt lat="43.41018058113683" lon="10.632276536682147"><ele>403.0</ele><time>2026-04-18T15:18:37Z</time></trkpt><trkpt lat="43.4102170271826" lon="10.63237345549552"><ele>403.00000000000006</ele><time>2026-04-18T15:18:38Z</time></trkpt><trkpt lat="43.4102514334335" lon="10.632464852916812"><ele>403.0</ele><time>2026-04-18T15:18:39Z</time></trkpt><trkpt lat="43.41029887868611" lon="10.63254264548507"><ele>403.0</ele><time>2026-04-18T15:18:40Z</time></trkpt><trkpt lat="43.410375265961264" lon="10.632600658526972"><ele>403.0</ele><time>2026-04-18T15:18:41Z</time></trkpt><trkpt lat="43.410462610991" lon="10.63265066003362"><ele>403.0</ele><time>2026-04-18T15:18:42Z</time></trkpt><trkpt lat="43.41063938112809" lon="10.632723143193592"><ele>403.0</ele><time>2026-04-18T15:18:44Z</time></trkpt><trkpt lat="43.410719827175356" lon="10.632754458032414"><ele>400.1666666666667</ele><time>2026-04-18T15:18:45Z</time></trkpt><trkpt lat="43.410795574623776" lon="10.632777137900115"><ele>397.33333333333337</ele><time>2026-04-18T15:18:46Z</time></trkpt><trkpt lat="43.41087372921148" lon="10.6328093030561"><ele>394.5</ele><time>2026-04-18T15:18:47Z</time></trkpt><trkpt lat="43.41094479233273" lon="10.632853283327805"><ele>391.66666666666663</ele><time>2026-04-18T15:18:48Z</time></trkpt><trkpt lat="43.411012601773926" lon="10.632915697856557"><ele>388.8333333333333</ele><time>2026-04-18T15:18:49Z</time></trkpt><trkpt lat="43.41106533055961" lon="10.632996064003818"><ele>386.0</ele><time>2026-04-18T15:18:50Z</time></trkpt><trkpt lat="43.41110254201525" lon="10.633074219172682"><ele>386.0</ele><time>2026-04-18T15:18:51Z</time></trkpt><trkpt lat="43.4111475773773" lon="10.63322370664055"><ele>386.0</ele><time>2026-04-18T15:18:53Z</time></trkpt><trkpt lat="43.4111858496171" lon="10.633370482976085"><ele>386.0</ele><time>2026-04-18T15:18:55Z</time></trkpt><trkpt lat="43.41123339321861" lon="10.633533383354445"><ele>386.0</ele><time>2026-04-18T15:18:57Z</time></trkpt><trkpt lat="43.411261344280376" lon="10.6336203117778"><ele>386.0</ele><time>2026-04-18T15:18:58Z</time></trkpt><trkpt lat="43.41128631366504" lon="10.633702505053977"><ele>384.20000000000005</ele><time>2026-04-18T15:18:59Z</time></trkpt><trkpt lat="43.41134302080654" lon="10.633855401659718"><ele>382.40000000000003</ele><time>2026-04-18T15:19:01Z</time></trkpt><trkpt lat="43.41138060812115" lon="10.634037082248348"><ele>380.6</ele><time>2026-04-18T15:19:03Z</time></trkpt><trkpt lat="43.41137674447005" lon="10.634155192437436"><ele>378.8</ele><time>2026-04-18T15:19:04Z</time></trkpt><trkpt lat="43.41140656003743" lon="10.634271835320709"><ele>377.0</ele><time>2026-04-18T15:19:05Z</time></trkpt><trkpt lat="43.411424713994705" lon="10.634383786449188"><ele>377.6666666666667</ele><time>2026-04-18T15:19:06Z</time></trkpt><trkpt lat="43.411462621446496" lon="10.634483791032316"><ele>378.33333333333337</ele><time>2026-04-18T15:19:07Z</time></trkpt><trkpt lat="43.41150699528786" lon="10.634574203885348"><ele>379.0</ele><time>2026-04-18T15:19:08Z</time></trkpt><trkpt lat="43.41155565812939" lon="10.63466481828889"><ele>379.6666666666667</ele><time>2026-04-18T15:19:09Z</time></trkpt><trkpt lat="43.411579903274536" lon="10.634760247817699"><ele>380.3333333333333</ele><time>2026-04-18T15:19:10Z</time></trkpt><trkpt lat="43.41162174120849" lon="10.634843599305613"><ele>381.0</ele><time>2026-04-18T15:19:11Z</time></trkpt><trkpt lat="43.411663873172465" lon="10.63492625597102"><ele>381.0</ele><time>2026-04-18T15:19:12Z</time></trkpt><trkpt lat="43.41171794060655" lon="10.634992750391586"><ele>381.0</ele><time>2026-04-18T15:19:13Z</time></trkpt><trkpt lat="43.41177576215658" lon="10.635124606200717"><ele>381.0</ele><time>2026-04-18T15:19:15Z</time></trkpt><trkpt lat="43.41183358828897" lon="10.63521495782769"><ele>381.0</ele><time>2026-04-18T15:19:17Z</time></trkpt><trkpt lat="43.41187550016013" lon="10.635312374917238"><ele>381.0</ele><time>2026-04-18T15:19:19Z</time></trkpt><trkpt lat="43.41189885076976" lon="10.635459183033877"><ele>381.5</ele><time>2026-04-18T15:19:21Z</time></trkpt><trkpt lat="43.41190366501396" lon="10.6355469974878"><ele>382.0</ele><time>2026-04-18T15:19:22Z</time></trkpt><trkpt lat="43.411925706658444" lon="10.635642130458905"><ele>382.5</ele><time>2026-04-18T15:19:23Z</time></trkpt><trkpt lat="43.411895474453495" lon="10.63578944743863"><ele>383.0</ele><time>2026-04-18T15:19:25Z</time></trkpt><trkpt lat="43.411920462188505" lon="10.635920723463704"><ele>383.5</ele><time>2026-04-18T15:19:26.998Z</time></trkpt><trkpt lat="43.411939737700955" lon="10.636013143827405"><ele>384.0</ele><time>2026-04-18T15:19:28.998Z</time></trkpt><trkpt lat="43.4119726188653" lon="10.63614390556455"><ele>384.0</ele><time>2026-04-18T15:19:31.998Z</time></trkpt><trkpt lat="43.41200794554198" lon="10.636249950188741"><ele>384.0</ele><time>2026-04-18T15:19:33.998Z</time></trkpt><trkpt lat="43.412041367110795" lon="10.636334404867506"><ele>384.0</ele><time>2026-04-18T15:19:35.999Z</time></trkpt><trkpt lat="43.4120809214102" lon="10.636415410114326"><ele>384.0</ele><time>2026-04-18T15:19:37.999Z</time></trkpt><trkpt lat="43.412126702187784" lon="10.636496450380077"><ele>384.0</ele><time>2026-04-18T15:19:39.999Z</time></trkpt><trkpt lat="43.412181990720576" lon="10.636581696633481"><ele>384.0</ele><time>2026-04-18T15:19:41.999Z</time></trkpt><trkpt lat="43.4122536684172" lon="10.636686598745516"><ele>382.0</ele><time>2026-04-18T15:19:43.999Z</time></trkpt><trkpt lat="43.41234415674661" lon="10.636817853126185"><ele>380.0</ele><time>2026-04-18T15:19:45.999Z</time></trkpt><trkpt lat="43.412392969721274" lon="10.636887731936264"><ele>378.0</ele><time>2026-04-18T15:19:46.999Z</time></trkpt><trkpt lat="43.41243879095992" lon="10.636953327748431"><ele>376.0</ele><time>2026-04-18T15:19:47.999Z</time></trkpt><trkpt lat="43.412528693111724" lon="10.637062795733618"><ele>374.0</ele><time>2026-04-18T15:19:49.999Z</time></trkpt><trkpt lat="43.41261124291503" lon="10.637182711230698"><ele>373.4285714285714</ele><time>2026-04-18T15:19:51.999Z</time></trkpt><trkpt lat="43.412653921634764" lon="10.637248483799077"><ele>372.8571428571429</ele><time>2026-04-18T15:19:52.999Z</time></trkpt><trkpt lat="43.41269948662534" lon="10.63731946454464"><ele>372.2857142857143</ele><time>2026-04-18T15:19:53.999Z</time></trkpt><trkpt lat="43.41274701611449" lon="10.637391256694412"><ele>371.71428571428567</ele><time>2026-04-18T15:19:54.999Z</time></trkpt><trkpt lat="43.41278196240137" lon="10.637482880816433"><ele>371.1428571428571</ele><time>2026-04-18T15:19:55.999Z</time></trkpt><trkpt lat="43.41284194318989" lon="10.637547721849304"><ele>370.57142857142856</ele><time>2026-04-18T15:19:56.999Z</time></trkpt><trkpt lat="43.4128894871653" lon="10.637627254846652"><ele>370.0</ele><time>2026-04-18T15:19:57.999Z</time></trkpt><trkpt lat="43.41293839455375" lon="10.637697607410752"><ele>369.1428571428571</ele><time>2026-04-18T15:19:58.999Z</time></trkpt><trkpt lat="43.413008958458406" lon="10.637746183296322"><ele>368.2857142857143</ele><time>2026-04-18T15:20:00.999Z</time></trkpt><trkpt lat="43.4130745589404" lon="10.637763079545282"><ele>367.42857142857144</ele><time>2026-04-18T15:20:02.999Z</time></trkpt><trkpt lat="43.41313596912606" lon="10.637801502340682"><ele>366.57142857142856</ele><time>2026-04-18T15:20:05Z</time></trkpt><trkpt lat="43.41320406102471" lon="10.637819656204474"><ele>365.7142857142857</ele><time>2026-04-18T15:20:07Z</time></trkpt><trkpt lat="43.413290783877834" lon="10.637844350131108"><ele>364.85714285714283</ele><time>2026-04-18T15:20:10Z</time></trkpt><trkpt lat="43.413358700042174" lon="10.637863606286345"><ele>364.0</ele><time>2026-04-18T15:20:12Z</time></trkpt><trkpt lat="43.413445024390896" lon="10.637882051156438"><ele>364.2</ele><time>2026-04-18T15:20:14Z</time></trkpt><trkpt lat="43.413543150559285" lon="10.637905735261734"><ele>364.4</ele><time>2026-04-18T15:20:16Z</time></trkpt><trkpt lat="43.413635888357895" lon="10.637970655142832"><ele>364.6</ele><time>2026-04-18T15:20:18Z</time></trkpt><trkpt lat="43.41371938119173" lon="10.638054854638927"><ele>364.8</ele><time>2026-04-18T15:20:20Z</time></trkpt><trkpt lat="43.41380115820404" lon="10.63814597633705"><ele>365.0</ele><time>2026-04-18T15:20:22Z</time></trkpt><trkpt lat="43.41387659117919" lon="10.63819538349917"><ele>365.0</ele><time>2026-04-18T15:20:24Z</time></trkpt><trkpt lat="43.41396411224762" lon="10.638287476274119"><ele>365.0</ele><time>2026-04-18T15:20:26Z</time></trkpt><trkpt lat="43.41404314226743" lon="10.638310134350071"><ele>365.0</ele><time>2026-04-18T15:20:27Z</time></trkpt><trkpt lat="43.414129774508694" lon="10.638353638692035"><ele>365.0</ele><time>2026-04-18T15:20:28Z</time></trkpt><trkpt lat="43.41422439559373" lon="10.638395104370831"><ele>365.0</ele><time>2026-04-18T15:20:29Z</time></trkpt><trkpt lat="43.414302318920946" lon="10.63846634462094"><ele>365.0</ele><time>2026-04-18T15:20:30Z</time></trkpt><trkpt lat="43.41436643092311" lon="10.638562316015491"><ele>365.0</ele><time>2026-04-18T15:20:31Z</time></trkpt><trkpt lat="43.41441997849791" lon="10.638670949922112"><ele>365.0</ele><time>2026-04-18T15:20:32Z</time></trkpt><trkpt lat="43.41447684293596" lon="10.638772682649174"><ele>365.0</ele><time>2026-04-18T15:20:33Z</time></trkpt><trkpt lat="43.41454772901077" lon="10.638854013873798"><ele>365.0</ele><time>2026-04-18T15:20:34Z</time></trkpt><trkpt lat="43.41463156777553" lon="10.638922290199169"><ele>363.8</ele><time>2026-04-18T15:20:35Z</time></trkpt><trkpt lat="43.41471548803229" lon="10.639003217827755"><ele>362.6</ele><time>2026-04-18T15:20:36Z</time></trkpt><trkpt lat="43.41481827193535" lon="10.639052784151968"><ele>361.4</ele><time>2026-04-18T15:20:37Z</time></trkpt><trkpt lat="43.41491866249094" lon="10.639126798990223"><ele>360.2</ele><time>2026-04-18T15:20:38Z</time></trkpt><trkpt lat="43.415014988552365" lon="10.639205388086033"><ele>359.0</ele><time>2026-04-18T15:20:39Z</time></trkpt><trkpt lat="43.415109334149015" lon="10.639280876595901"><ele>359.0</ele><time>2026-04-18T15:20:40Z</time></trkpt><trkpt lat="43.415202994477994" lon="10.639360248204676"><ele>359.0</ele><time>2026-04-18T15:20:41Z</time></trkpt><trkpt lat="43.41528983865642" lon="10.639453583677344"><ele>359.0</ele><time>2026-04-18T15:20:42Z</time></trkpt><trkpt lat="43.41537137619378" lon="10.639558157759385"><ele>359.0</ele><time>2026-04-18T15:20:43Z</time></trkpt><trkpt lat="43.415447401890994" lon="10.639670261517232"><ele>359.0</ele><time>2026-04-18T15:20:44Z</time></trkpt><trkpt lat="43.41552698780885" lon="10.63977204284588"><ele>360.2</ele><time>2026-04-18T15:20:45Z</time></trkpt><trkpt lat="43.41561443135662" lon="10.639852365626577"><ele>361.4</ele><time>2026-04-18T15:20:46Z</time></trkpt><trkpt lat="43.4156984573911" lon="10.639936303014025"><ele>362.6</ele><time>2026-04-18T15:20:47Z</time></trkpt><trkpt lat="43.41578503706864" lon="10.64000060840539"><ele>363.8</ele><time>2026-04-18T15:20:48Z</time></trkpt><trkpt lat="43.41586849880715" lon="10.64005659521913"><ele>365.0</ele><time>2026-04-18T15:20:49Z</time></trkpt><trkpt lat="43.41595000222032" lon="10.64010502484379"><ele>365.0</ele><time>2026-04-18T15:20:50Z</time></trkpt><trkpt lat="43.41603675044237" lon="10.640143043674223"><ele>365.0</ele><time>2026-04-18T15:20:51Z</time></trkpt><trkpt lat="43.41613356934564" lon="10.640166205888828"><ele>365.0</ele><time>2026-04-18T15:20:52Z</time></trkpt><trkpt lat="43.41623149384324" lon="10.640184112399522"><ele>365.0</ele><time>2026-04-18T15:20:53Z</time></trkpt><trkpt lat="43.41632953680752" lon="10.640179631110454"><ele>365.0</ele><time>2026-04-18T15:20:54Z</time></trkpt><trkpt lat="43.41641979930732" lon="10.640206211585598"><ele>365.5</ele><time>2026-04-18T15:20:55Z</time></trkpt><trkpt lat="43.416504212924096" lon="10.640227870359121"><ele>366.0</ele><time>2026-04-18T15:20:56Z</time></trkpt><trkpt lat="43.41658225642204" lon="10.640262886714641"><ele>366.5</ele><time>2026-04-18T15:20:57Z</time></trkpt><trkpt lat="43.4166513614883" lon="10.64032105133012"><ele>367.0</ele><time>2026-04-18T15:20:58Z</time></trkpt><trkpt lat="43.416713815129214" lon="10.640408695674209"><ele>367.5</ele><time>2026-04-18T15:20:59Z</time></trkpt><trkpt lat="43.41678105718434" lon="10.640514463022757"><ele>368.0</ele><time>2026-04-18T15:21:00Z</time></trkpt><trkpt lat="43.41686836743419" lon="10.640625629599556"><ele>367.5</ele><time>2026-04-18T15:21:01Z</time></trkpt><trkpt lat="43.41696874948312" lon="10.640740925601646"><ele>367.0</ele><time>2026-04-18T15:21:02Z</time></trkpt><trkpt lat="43.41707497212336" lon="10.64086262358542"><ele>366.5</ele><time>2026-04-18T15:21:03Z</time></trkpt><trkpt lat="43.41717778155966" lon="10.640994892001137"><ele>366.0</ele><time>2026-04-18T15:21:04Z</time></trkpt><trkpt lat="43.41728521689536" lon="10.641125996760698"><ele>365.75</ele><time>2026-04-18T15:21:05Z</time></trkpt><trkpt lat="43.41738969023984" lon="10.641261159785062"><ele>365.5</ele><time>2026-04-18T15:21:06Z</time></trkpt><trkpt lat="43.41748994079937" lon="10.641386012013424"><ele>365.25</ele><time>2026-04-18T15:21:07Z</time></trkpt><trkpt lat="43.417582330518194" lon="10.64149423882311"><ele>365.0</ele><time>2026-04-18T15:21:08Z</time></trkpt><trkpt lat="43.41766459652903" lon="10.641594891938196"><ele>365.0</ele><time>2026-04-18T15:21:09Z</time></trkpt><trkpt lat="43.41774403719619" lon="10.641694221855422"><ele>365.0</ele><time>2026-04-18T15:21:10Z</time></trkpt><trkpt lat="43.41781594555905" lon="10.641799722723471"><ele>365.0</ele><time>2026-04-18T15:21:11Z</time></trkpt><trkpt lat="43.41788009234894" lon="10.641902066435009"><ele>365.0</ele><time>2026-04-18T15:21:12Z</time></trkpt><trkpt lat="43.417947265581404" lon="10.641997223007795"><ele>365.0</ele><time>2026-04-18T15:21:13Z</time></trkpt><trkpt lat="43.41802074227581" lon="10.642082794357124"><ele>365.5</ele><time>2026-04-18T15:21:14Z</time></trkpt><trkpt lat="43.418101237810376" lon="10.64215142438241"><ele>366.0</ele><time>2026-04-18T15:21:15Z</time></trkpt><trkpt lat="43.41818459790947" lon="10.642210976026817"><ele>366.5</ele><time>2026-04-18T15:21:16Z</time></trkpt><trkpt lat="43.4182617937648" lon="10.642271638191318"><ele>367.0</ele><time>2026-04-18T15:21:17Z</time></trkpt><trkpt lat="43.41833093124509" lon="10.642343776296109"><ele>367.5</ele><time>2026-04-18T15:21:18Z</time></trkpt><trkpt lat="43.41839052590634" lon="10.642424646282919"><ele>368.0</ele><time>2026-04-18T15:21:19Z</time></trkpt><trkpt lat="43.41845379820261" lon="10.642502061967477"><ele>368.0</ele><time>2026-04-18T15:21:20Z</time></trkpt><trkpt lat="43.41852905734125" lon="10.64256280423428"><ele>368.0</ele><time>2026-04-18T15:21:21Z</time></trkpt><trkpt lat="43.41861079461155" lon="10.642613090478022"><ele>368.0</ele><time>2026-04-18T15:21:22Z</time></trkpt><trkpt lat="43.418695115595185" lon="10.64266853889691"><ele>368.0</ele><time>2026-04-18T15:21:23Z</time></trkpt><trkpt lat="43.4187803514499" lon="10.642725915812884"><ele>368.0</ele><time>2026-04-18T15:21:24Z</time></trkpt><trkpt lat="43.418864266533625" lon="10.642786432676289"><ele>369.59999999999997</ele><time>2026-04-18T15:21:25Z</time></trkpt><trkpt lat="43.4189449359887" lon="10.642856584822932"><ele>371.2</ele><time>2026-04-18T15:21:26Z</time></trkpt><trkpt lat="43.41902416164778" lon="10.642937518948795"><ele>372.8</ele><time>2026-04-18T15:21:27.001Z</time></trkpt><trkpt lat="43.41911004543225" lon="10.6430205898225"><ele>374.4</ele><time>2026-04-18T15:21:28.001Z</time></trkpt><trkpt lat="43.41920715747591" lon="10.643093382492118"><ele>376.0</ele><time>2026-04-18T15:21:29.001Z</time></trkpt><trkpt lat="43.419310125577326" lon="10.643154874475874"><ele>376.0</ele><time>2026-04-18T15:21:30.001Z</time></trkpt><trkpt lat="43.41940589652153" lon="10.6432109689562"><ele>376.0</ele><time>2026-04-18T15:21:31.001Z</time></trkpt><trkpt lat="43.419493179793456" lon="10.64325795361613"><ele>376.0</ele><time>2026-04-18T15:21:32.001Z</time></trkpt><trkpt lat="43.41956986294612" lon="10.64329972107477"><ele>376.0</ele><time>2026-04-18T15:21:33Z</time></trkpt><trkpt lat="43.41962536911124" lon="10.643372282623037"><ele>376.0</ele><time>2026-04-18T15:21:34Z</time></trkpt><trkpt lat="43.41968146883048" lon="10.643431775433319"><ele>376.0</ele><time>2026-04-18T15:21:35Z</time></trkpt><trkpt lat="43.41974146855286" lon="10.643491031025059"><ele>376.66666666666663</ele><time>2026-04-18T15:21:36Z</time></trkpt><trkpt lat="43.41978812020349" lon="10.643577830597302"><ele>377.3333333333333</ele><time>2026-04-18T15:21:37Z</time></trkpt><trkpt lat="43.41983630999253" lon="10.643659912478261"><ele>378.0</ele><time>2026-04-18T15:21:38Z</time></trkpt><trkpt lat="43.419885803105274" lon="10.643740883723806"><ele>378.6666666666667</ele><time>2026-04-18T15:21:39Z</time></trkpt><trkpt lat="43.419936115197714" lon="10.643821682745054"><ele>379.33333333333337</ele><time>2026-04-18T15:21:40Z</time></trkpt><trkpt lat="43.41999149274642" lon="10.643906674672621"><ele>380.0</ele><time>2026-04-18T15:21:41Z</time></trkpt><trkpt lat="43.42005428066562" lon="10.643996748021566"><ele>380.0</ele><time>2026-04-18T15:21:42Z</time></trkpt><trkpt lat="43.42012380518978" lon="10.644090518014252"><ele>380.0</ele><time>2026-04-18T15:21:43Z</time></trkpt><trkpt lat="43.420191993869366" lon="10.644180124339186"><ele>380.0</ele><time>2026-04-18T15:21:44Z</time></trkpt><trkpt lat="43.42026073597348" lon="10.6442650100571"><ele>380.0</ele><time>2026-04-18T15:21:45Z</time></trkpt><trkpt lat="43.42033537472997" lon="10.644329239784168"><ele>380.0</ele><time>2026-04-18T15:21:46Z</time></trkpt><trkpt lat="43.42039963151497" lon="10.64441478551696"><ele>378.83333333333337</ele><time>2026-04-18T15:21:47Z</time></trkpt><trkpt lat="43.42045361622192" lon="10.644473831016372"><ele>377.6666666666667</ele><time>2026-04-18T15:21:48Z</time></trkpt><trkpt lat="43.42052401801303" lon="10.644520575729759"><ele>376.5</ele><time>2026-04-18T15:21:49Z</time></trkpt><trkpt lat="43.420592165695524" lon="10.644568614786063"><ele>375.3333333333333</ele><time>2026-04-18T15:21:50Z</time></trkpt><trkpt lat="43.420660930200945" lon="10.644619219069012"><ele>374.16666666666663</ele><time>2026-04-18T15:21:51Z</time></trkpt><trkpt lat="43.42072554845865" lon="10.644671751489163"><ele>373.0</ele><time>2026-04-18T15:21:52Z</time></trkpt><trkpt lat="43.42079638718604" lon="10.644730868256977"><ele>373.0</ele><time>2026-04-18T15:21:53Z</time></trkpt><trkpt lat="43.42086262594947" lon="10.6447981019457"><ele>373.0</ele><time>2026-04-18T15:21:54Z</time></trkpt><trkpt lat="43.420928939973216" lon="10.644870321560628"><ele>373.0</ele><time>2026-04-18T15:21:55Z</time></trkpt><trkpt lat="43.42099874097653" lon="10.64494324224859"><ele>373.0</ele><time>2026-04-18T15:21:56Z</time></trkpt><trkpt lat="43.42105682770847" lon="10.6450349213943"><ele>373.0</ele><time>2026-04-18T15:21:57Z</time></trkpt><trkpt lat="43.421131186395634" lon="10.645119287618094"><ele>373.0</ele><time>2026-04-18T15:21:58Z</time></trkpt><trkpt lat="43.42122143746244" lon="10.645183818156985"><ele>373.0</ele><time>2026-04-18T15:21:59Z</time></trkpt><trkpt lat="43.421300454452116" lon="10.645273970009251"><ele>373.0</ele><time>2026-04-18T15:22:00Z</time></trkpt><trkpt lat="43.421381360533616" lon="10.64535900662729"><ele>373.0</ele><time>2026-04-18T15:22:01Z</time></trkpt><trkpt lat="43.421460208957456" lon="10.645439125306865"><ele>373.0</ele><time>2026-04-18T15:22:02Z</time></trkpt><trkpt lat="43.421541407422616" lon="10.645506810463138"><ele>373.0</ele><time>2026-04-18T15:22:03Z</time></trkpt><trkpt lat="43.42161750977358" lon="10.645571964556721"><ele>372.0</ele><time>2026-04-18T15:22:04Z</time></trkpt><trkpt lat="43.42169238253049" lon="10.64562792294173"><ele>371.0</ele><time>2026-04-18T15:22:05Z</time></trkpt><trkpt lat="43.421764980289886" lon="10.645673546271004"><ele>370.0</ele><time>2026-04-18T15:22:06Z</time></trkpt><trkpt lat="43.42182995800878" lon="10.645715355415215"><ele>369.0</ele><time>2026-04-18T15:22:07Z</time></trkpt><trkpt lat="43.421897832916265" lon="10.645758949130894"><ele>368.0</ele><time>2026-04-18T15:22:08Z</time></trkpt><trkpt lat="43.42196813664745" lon="10.645805681662456"><ele>367.0</ele><time>2026-04-18T15:22:09Z</time></trkpt><trkpt lat="43.4220385559954" lon="10.645855231286724"><ele>367.0</ele><time>2026-04-18T15:22:10Z</time></trkpt><trkpt lat="43.422113163442305" lon="10.645901776752076"><ele>367.0</ele><time>2026-04-18T15:22:11Z</time></trkpt><trkpt lat="43.42219301257204" lon="10.645939484814969"><ele>367.0</ele><time>2026-04-18T15:22:12Z</time></trkpt><trkpt lat="43.42226951518587" lon="10.645972749543654"><ele>367.0</ele><time>2026-04-18T15:22:13Z</time></trkpt><trkpt lat="43.42234380791543" lon="10.645995711197545"><ele>367.0</ele><time>2026-04-18T15:22:14Z</time></trkpt><trkpt lat="43.422419510517024" lon="10.646024342250547"><ele>367.0</ele><time>2026-04-18T15:22:15Z</time></trkpt><trkpt lat="43.42249295658914" lon="10.646071369152837"><ele>362.40000000000003</ele><time>2026-04-18T15:22:16Z</time></trkpt><trkpt lat="43.42257247396216" lon="10.646135889438769"><ele>357.8</ele><time>2026-04-18T15:22:17Z</time></trkpt><trkpt lat="43.42265704840298" lon="10.646211178184172"><ele>353.2</ele><time>2026-04-18T15:22:18Z</time></trkpt><trkpt lat="43.42275051594445" lon="10.646283628137843"><ele>348.6</ele><time>2026-04-18T15:22:19Z</time></trkpt><trkpt lat="43.42284905180769" lon="10.64635073675746"><ele>344.0</ele><time>2026-04-18T15:22:20Z</time></trkpt><trkpt lat="43.4229505364308" lon="10.646414084662675"><ele>344.4</ele><time>2026-04-18T15:22:21Z</time></trkpt><trkpt lat="43.42305136112176" lon="10.646476068718831"><ele>344.79999999999995</ele><time>2026-04-18T15:22:22Z</time></trkpt><trkpt lat="43.4231476850596" lon="10.646539701648619"><ele>345.20000000000005</ele><time>2026-04-18T15:22:23Z</time></trkpt><trkpt lat="43.423246846267006" lon="10.646603694924178"><ele>345.6</ele><time>2026-04-18T15:22:24Z</time></trkpt><trkpt lat="43.423348620968525" lon="10.64666607670677"><ele>346.0</ele><time>2026-04-18T15:22:25Z</time></trkpt><trkpt lat="43.42345355464092" lon="10.646722120644624"><ele>346.0</ele><time>2026-04-18T15:22:26Z</time></trkpt><trkpt lat="43.42355968709055" lon="10.646771932046246"><ele>346.0</ele><time>2026-04-18T15:22:27Z</time></trkpt><trkpt lat="43.42366524795699" lon="10.646821381141962"><ele>346.0</ele><time>2026-04-18T15:22:28Z</time></trkpt><trkpt lat="43.423773485054674" lon="10.646871923950995"><ele>346.0</ele><time>2026-04-18T15:22:29Z</time></trkpt><trkpt lat="43.42388194895575" lon="10.646913566239792"><ele>340.8</ele><time>2026-04-18T15:22:30Z</time></trkpt><trkpt lat="43.42397532706414" lon="10.646983798063044"><ele>335.6</ele><time>2026-04-18T15:22:31Z</time></trkpt><trkpt lat="43.424065570496936" lon="10.647046248061015"><ele>330.4</ele><time>2026-04-18T15:22:32Z</time></trkpt><trkpt lat="43.424152722149294" lon="10.647114375554834"><ele>325.2</ele><time>2026-04-18T15:22:33Z</time></trkpt><trkpt lat="43.4242393467537" lon="10.64718893937717"><ele>320.0</ele><time>2026-04-18T15:22:34Z</time></trkpt><trkpt lat="43.42432197641048" lon="10.647279550033991"><ele>320.0</ele><time>2026-04-18T15:22:35.001Z</time></trkpt><trkpt lat="43.42441490719383" lon="10.647358527211743"><ele>320.0</ele><time>2026-04-18T15:22:36.001Z</time></trkpt><trkpt lat="43.42450413728275" lon="10.647440525901324"><ele>320.0</ele><time>2026-04-18T15:22:37.001Z</time></trkpt><trkpt lat="43.424583940902586" lon="10.647534339403377"><ele>320.0</ele><time>2026-04-18T15:22:38.001Z</time></trkpt><trkpt lat="43.42466283090727" lon="10.64763162559952"><ele>320.0</ele><time>2026-04-18T15:22:39.001Z</time></trkpt><trkpt lat="43.424744585435434" lon="10.647714106441247"><ele>317.2</ele><time>2026-04-18T15:22:40.001Z</time></trkpt><trkpt lat="43.42482053179511" lon="10.647805768016935"><ele>314.4</ele><time>2026-04-18T15:22:41.001Z</time></trkpt><trkpt lat="43.42488390951567" lon="10.64792422313999"><ele>311.6</ele><time>2026-04-18T15:22:42.001Z</time></trkpt><trkpt lat="43.42489470679136" lon="10.648079791109527"><ele>308.8</ele><time>2026-04-18T15:22:43.001Z</time></trkpt><trkpt lat="43.42491587196607" lon="10.648209978971803"><ele>306.0</ele><time>2026-04-18T15:22:44.001Z</time></trkpt><trkpt lat="43.42493756857822" lon="10.648327633628183"><ele>306.0</ele><time>2026-04-18T15:22:45.001Z</time></trkpt><trkpt lat="43.424932705530395" lon="10.648431670439125"><ele>306.0</ele><time>2026-04-18T15:22:46.001Z</time></trkpt><trkpt lat="43.42492785648378" lon="10.648575987012535"><ele>306.0</ele><time>2026-04-18T15:22:48.001Z</time></trkpt><trkpt lat="43.42493510940035" lon="10.648728664325597"><ele>306.0</ele><time>2026-04-18T15:22:50.001Z</time></trkpt><trkpt lat="43.42494386351169" lon="10.648825043976345"><ele>306.0</ele><time>2026-04-18T15:22:51.001Z</time></trkpt><trkpt lat="43.42496912924498" lon="10.64892037868347"><ele>306.0</ele><time>2026-04-18T15:22:52.001Z</time></trkpt><trkpt lat="43.424988654174804" lon="10.649025466854434"><ele>305.6666666666667</ele><time>2026-04-18T15:22:53.001Z</time></trkpt><trkpt lat="43.425031517138315" lon="10.64913268049108"><ele>305.3333333333333</ele><time>2026-04-18T15:22:54.001Z</time></trkpt><trkpt lat="43.425090453070304" lon="10.649232144423955"><ele>305.0</ele><time>2026-04-18T15:22:55.001Z</time></trkpt><trkpt lat="43.42515588817213" lon="10.64931264991637"><ele>304.66666666666663</ele><time>2026-04-18T15:22:56.001Z</time></trkpt><trkpt lat="43.42521883671871" lon="10.649385301788072"><ele>304.3333333333333</ele><time>2026-04-18T15:22:57.001Z</time></trkpt><trkpt lat="43.425278850472786" lon="10.649452892538989"><ele>304.0</ele><time>2026-04-18T15:22:58.001Z</time></trkpt><trkpt lat="43.42533660761151" lon="10.64951789571696"><ele>303.5</ele><time>2026-04-18T15:22:59.001Z</time></trkpt><trkpt lat="43.42538347137089" lon="10.649601003418852"><ele>303.0</ele><time>2026-04-18T15:23:00.001Z</time></trkpt><trkpt lat="43.42541571940469" lon="10.649694256647006"><ele>302.5</ele><time>2026-04-18T15:23:01.001Z</time></trkpt><trkpt lat="43.42543199047687" lon="10.649797518238955"><ele>302.0</ele><time>2026-04-18T15:23:02.001Z</time></trkpt><trkpt lat="43.425435316778504" lon="10.649906282601616"><ele>301.5</ele><time>2026-04-18T15:23:03.001Z</time></trkpt><trkpt lat="43.42542074739323" lon="10.650016109880461"><ele>301.0</ele><time>2026-04-18T15:23:04.001Z</time></trkpt><trkpt lat="43.42538955168574" lon="10.650124360800673"><ele>301.0</ele><time>2026-04-18T15:23:05.001Z</time></trkpt><trkpt lat="43.425360417136574" lon="10.65022834790965"><ele>301.0</ele><time>2026-04-18T15:23:06.001Z</time></trkpt><trkpt lat="43.42534940009723" lon="10.650317624589317"><ele>301.0</ele><time>2026-04-18T15:23:07.001Z</time></trkpt><trkpt lat="43.425351542710814" lon="10.650451318797787"><ele>301.0</ele><time>2026-04-18T15:23:09.001Z</time></trkpt><trkpt lat="43.425346889611525" lon="10.650542529143578"><ele>301.0</ele><time>2026-04-18T15:23:10.001Z</time></trkpt><trkpt lat="43.42534216273116" lon="10.650647357446516"><ele>301.0</ele><time>2026-04-18T15:23:11.001Z</time></trkpt><trkpt lat="43.4253505351641" lon="10.650765857887942"><ele>298.66666666666663</ele><time>2026-04-18T15:23:12.001Z</time></trkpt><trkpt lat="43.42536894373593" lon="10.650892974007407"><ele>296.3333333333333</ele><time>2026-04-18T15:23:13.001Z</time></trkpt><trkpt lat="43.42539772443239" lon="10.651016131285672"><ele>294.0</ele><time>2026-04-18T15:23:14.001Z</time></trkpt><trkpt lat="43.425426874830904" lon="10.651129815299155"><ele>291.6666666666667</ele><time>2026-04-18T15:23:15.001Z</time></trkpt><trkpt lat="43.42546589376559" lon="10.651227834403816"><ele>289.33333333333337</ele><time>2026-04-18T15:23:16.001Z</time></trkpt><trkpt lat="43.42551998998409" lon="10.651317325139395"><ele>287.0</ele><time>2026-04-18T15:23:17.001Z</time></trkpt><trkpt lat="43.425588484738256" lon="10.651370257853806"><ele>283.4</ele><time>2026-04-18T15:23:18.001Z</time></trkpt><trkpt lat="43.42564723293208" lon="10.651453075250396"><ele>279.79999999999995</ele><time>2026-04-18T15:23:19.001Z</time></trkpt><trkpt lat="43.425720915786215" lon="10.651500731616993"><ele>276.2</ele><time>2026-04-18T15:23:20.001Z</time></trkpt><trkpt lat="43.425823405252" lon="10.651561377365072"><ele>272.59999999999997</ele><time>2026-04-18T15:23:22.001Z</time></trkpt><trkpt lat="43.42593028752847" lon="10.651638806842113"><ele>269.0</ele><time>2026-04-18T15:23:24.001Z</time></trkpt><trkpt lat="43.42598828429313" lon="10.651676314312535"><ele>269.0</ele><time>2026-04-18T15:23:25.001Z</time></trkpt><trkpt lat="43.42608876600068" lon="10.651745056075683"><ele>269.0</ele><time>2026-04-18T15:23:27.001Z</time></trkpt><trkpt lat="43.42618472928066" lon="10.6518216844609"><ele>269.0</ele><time>2026-04-18T15:23:29.001Z</time></trkpt><trkpt lat="43.42623001826771" lon="10.651882907617548"><ele>269.0</ele><time>2026-04-18T15:23:30.001Z</time></trkpt><trkpt lat="43.42627481874789" lon="10.651950810898914"><ele>269.0</ele><time>2026-04-18T15:23:31.001Z</time></trkpt><trkpt lat="43.42631866041271" lon="10.652018036921556"><ele>269.0</ele><time>2026-04-18T15:23:32.001Z</time></trkpt><trkpt lat="43.426364114857" lon="10.65208288757959"><ele>266.1666666666667</ele><time>2026-04-18T15:23:33.001Z</time></trkpt><trkpt lat="43.42641289316149" lon="10.65214182906306"><ele>263.33333333333337</ele><time>2026-04-18T15:23:34.001Z</time></trkpt><trkpt lat="43.42650912112482" lon="10.65223865150482"><ele>260.5</ele><time>2026-04-18T15:23:36.001Z</time></trkpt><trkpt lat="43.426561024239874" lon="10.652288178257097"><ele>257.6666666666667</ele><time>2026-04-18T15:23:37.001Z</time></trkpt><trkpt lat="43.42661624148548" lon="10.652329813644636"><ele>254.83333333333334</ele><time>2026-04-18T15:23:38.001Z</time></trkpt><trkpt lat="43.42673221562191" lon="10.652364134822415"><ele>252.0</ele><time>2026-04-18T15:23:40Z</time></trkpt><trkpt lat="43.426796360779925" lon="10.652372577245416"><ele>252.0</ele><time>2026-04-18T15:23:41Z</time></trkpt><trkpt lat="43.42686198245148" lon="10.652380332755499"><ele>252.0</ele><time>2026-04-18T15:23:42Z</time></trkpt><trkpt lat="43.4269766187627" lon="10.652397992224302"><ele>252.0</ele><time>2026-04-18T15:23:44Z</time></trkpt><trkpt lat="43.4270552459179" lon="10.652429059984312"><ele>252.0</ele><time>2026-04-18T15:23:46Z</time></trkpt><trkpt lat="43.42712984177733" lon="10.65246315812896"><ele>252.0</ele><time>2026-04-18T15:23:48Z</time></trkpt><trkpt lat="43.42721740840296" lon="10.652517050651602"><ele>252.0</ele><time>2026-04-18T15:23:50Z</time></trkpt><trkpt lat="43.42732712198074" lon="10.652581674347626"><ele>250.33333333333334</ele><time>2026-04-18T15:23:52Z</time></trkpt><trkpt lat="43.42738743661378" lon="10.652610233680491"><ele>248.66666666666669</ele><time>2026-04-18T15:23:53Z</time></trkpt><trkpt lat="43.42744559672642" lon="10.652655523156467"><ele>247.0</ele><time>2026-04-18T15:23:54Z</time></trkpt><trkpt lat="43.427500229342215" lon="10.652714726452848"><ele>245.33333333333334</ele><time>2026-04-18T15:23:55Z</time></trkpt><trkpt lat="43.42755258070778" lon="10.652768470048809"><ele>243.66666666666669</ele><time>2026-04-18T15:23:56Z</time></trkpt><trkpt lat="43.42761955922575" lon="10.652904961816352"><ele>242.0</ele><time>2026-04-18T15:23:58Z</time></trkpt><trkpt lat="43.42765178262219" lon="10.653068848878442"><ele>240.66666666666669</ele><time>2026-04-18T15:24:00Z</time></trkpt><trkpt lat="43.42765511514887" lon="10.653162255077573"><ele>239.33333333333334</ele><time>2026-04-18T15:24:01Z</time></trkpt><trkpt lat="43.4276478521986" lon="10.653261362642892"><ele>238.0</ele><time>2026-04-18T15:24:02Z</time></trkpt><trkpt lat="43.427633060364194" lon="10.653355721321194"><ele>236.66666666666669</ele><time>2026-04-18T15:24:03Z</time></trkpt><trkpt lat="43.4276115266968" lon="10.65344388150367"><ele>235.33333333333334</ele><time>2026-04-18T15:24:04Z</time></trkpt><trkpt lat="43.42757004806188" lon="10.653510427494583"><ele>234.0</ele><time>2026-04-18T15:24:05Z</time></trkpt><trkpt lat="43.42748762052053" lon="10.653638398282977"><ele>232.0</ele><time>2026-04-18T15:24:07Z</time></trkpt><trkpt lat="43.42744003004136" lon="10.653708554859682"><ele>230.0</ele><time>2026-04-18T15:24:08Z</time></trkpt><trkpt lat="43.427390891182114" lon="10.653780994204338"><ele>228.0</ele><time>2026-04-18T15:24:09Z</time></trkpt><trkpt lat="43.42734419095395" lon="10.653852608286911"><ele>226.0</ele><time>2026-04-18T15:24:10Z</time></trkpt><trkpt lat="43.42730224236299" lon="10.65392750471357"><ele>224.0</ele><time>2026-04-18T15:24:11Z</time></trkpt><trkpt lat="43.42724517149095" lon="10.654038372237727"><ele>222.0</ele><time>2026-04-18T15:24:13Z</time></trkpt><trkpt lat="43.42719303542617" lon="10.65417568784578"><ele>222.0</ele><time>2026-04-18T15:24:15Z</time></trkpt><trkpt lat="43.42719600975864" lon="10.654274872133989"><ele>222.0</ele><time>2026-04-18T15:24:16Z</time></trkpt><trkpt lat="43.42719741976305" lon="10.654365434180994"><ele>222.0</ele><time>2026-04-18T15:24:17Z</time></trkpt><trkpt lat="43.42720376144192" lon="10.654460830690507"><ele>222.0</ele><time>2026-04-18T15:24:18Z</time></trkpt><trkpt lat="43.42721788470414" lon="10.654553470636394"><ele>222.0</ele><time>2026-04-18T15:24:19Z</time></trkpt><trkpt lat="43.427254749596635" lon="10.65464241126452"><ele>222.0</ele><time>2026-04-18T15:24:20Z</time></trkpt><trkpt lat="43.42730406786971" lon="10.654727780595751"><ele>222.0</ele><time>2026-04-18T15:24:21Z</time></trkpt><trkpt lat="43.42736623802773" lon="10.654792393732164"><ele>219.6</ele><time>2026-04-18T15:24:22.001Z</time></trkpt><trkpt lat="43.42743141989416" lon="10.654836703001406"><ele>217.2</ele><time>2026-04-18T15:24:23.001Z</time></trkpt><trkpt lat="43.42749371190129" lon="10.654872991012727"><ele>214.8</ele><time>2026-04-18T15:24:24.001Z</time></trkpt><trkpt lat="43.42759886635671" lon="10.654924762878805"><ele>212.4</ele><time>2026-04-18T15:24:26.001Z</time></trkpt><trkpt lat="43.42769442638975" lon="10.654980060763922"><ele>210.0</ele><time>2026-04-18T15:24:28.001Z</time></trkpt><trkpt lat="43.42780386437217" lon="10.655035327301725"><ele>210.0</ele><time>2026-04-18T15:24:30.001Z</time></trkpt><trkpt lat="43.42792013101186" lon="10.655097939025046"><ele>210.0</ele><time>2026-04-18T15:24:32.001Z</time></trkpt><trkpt lat="43.428025093508424" lon="10.65515696844708"><ele>210.0</ele><time>2026-04-18T15:24:34.001Z</time></trkpt><trkpt lat="43.42808397171787" lon="10.655196773871419"><ele>210.0</ele><time>2026-04-18T15:24:35.001Z</time></trkpt><trkpt lat="43.428147612687944" lon="10.655244519497895"><ele>210.0</ele><time>2026-04-18T15:24:36.001Z</time></trkpt><trkpt lat="43.42821684156337" lon="10.655300079416653"><ele>207.33333333333334</ele><time>2026-04-18T15:24:37.001Z</time></trkpt><trkpt lat="43.428286798564685" lon="10.655364604334933"><ele>204.66666666666669</ele><time>2026-04-18T15:24:38.001Z</time></trkpt><trkpt lat="43.42835412878558" lon="10.655432803579778"><ele>202.0</ele><time>2026-04-18T15:24:39.001Z</time></trkpt><trkpt lat="43.42841654438831" lon="10.655505964829747"><ele>199.33333333333334</ele><time>2026-04-18T15:24:40.001Z</time></trkpt><trkpt lat="43.428476044616616" lon="10.655585113378645"><ele>196.66666666666669</ele><time>2026-04-18T15:24:41.001Z</time></trkpt><trkpt lat="43.4285108705855" lon="10.655688834655711"><ele>194.0</ele><time>2026-04-18T15:24:42.001Z</time></trkpt><trkpt lat="43.428557116665985" lon="10.655785785892345"><ele>194.00000000000003</ele><time>2026-04-18T15:24:43.001Z</time></trkpt><trkpt lat="43.428603156980486" lon="10.655876006495497"><ele>194.0</ele><time>2026-04-18T15:24:44.001Z</time></trkpt><trkpt lat="43.42866332123398" lon="10.655946607116066"><ele>194.0</ele><time>2026-04-18T15:24:45.001Z</time></trkpt><trkpt lat="43.42871705497467" lon="10.656020056198434"><ele>194.0</ele><time>2026-04-18T15:24:46.001Z</time></trkpt><trkpt lat="43.428779434420576" lon="10.656084612663113"><ele>194.00000000000003</ele><time>2026-04-18T15:24:47.001Z</time></trkpt><trkpt lat="43.428844650092294" lon="10.65613908664037"><ele>194.0</ele><time>2026-04-18T15:24:48.001Z</time></trkpt><trkpt lat="43.428909235704346" lon="10.656179533946533"><ele>192.33333333333334</ele><time>2026-04-18T15:24:49.001Z</time></trkpt><trkpt lat="43.428970602574566" lon="10.656203489974525"><ele>190.66666666666669</ele><time>2026-04-18T15:24:50.001Z</time></trkpt><trkpt lat="43.429035807267816" lon="10.656214595962497"><ele>189.0</ele><time>2026-04-18T15:24:51.001Z</time></trkpt><trkpt lat="43.4290945354516" lon="10.656252679721549"><ele>187.33333333333334</ele><time>2026-04-18T15:24:52.001Z</time></trkpt><trkpt lat="43.42925815517046" lon="10.65634266834053"><ele>185.66666666666669</ele><time>2026-04-18T15:24:55.001Z</time></trkpt><trkpt lat="43.429316633867636" lon="10.656382683418462"><ele>184.0</ele><time>2026-04-18T15:24:56.001Z</time></trkpt><trkpt lat="43.42937818394096" lon="10.656512273756942"><ele>184.0</ele><time>2026-04-18T15:24:58.001Z</time></trkpt><trkpt lat="43.42936883674487" lon="10.65661104871791"><ele>184.0</ele><time>2026-04-18T15:25:01.001Z</time></trkpt><trkpt lat="43.42951875398669" lon="10.656687026235687"><ele>184.0</ele><time>2026-04-18T15:25:03.001Z</time></trkpt><trkpt lat="43.42958211554193" lon="10.656713346096772"><ele>184.0</ele><time>2026-04-18T15:25:04.001Z</time></trkpt><trkpt lat="43.42965699740557" lon="10.656729332241728"><ele>184.0</ele><time>2026-04-18T15:25:05.001Z</time></trkpt><trkpt lat="43.429736057326046" lon="10.65677498161367"><ele>184.0</ele><time>2026-04-18T15:25:06.001Z</time></trkpt><trkpt lat="43.429821800963104" lon="10.65683143332782"><ele>184.0</ele><time>2026-04-18T15:25:07.001Z</time></trkpt><trkpt lat="43.42991614858056" lon="10.656892958436448"><ele>184.0</ele><time>2026-04-18T15:25:08.001Z</time></trkpt><trkpt lat="43.43001840252751" lon="10.656960430711809"><ele>184.0</ele><time>2026-04-18T15:25:09.001Z</time></trkpt><trkpt lat="43.43012658340036" lon="10.657032958946555"><ele>184.0</ele><time>2026-04-18T15:25:10.001Z</time></trkpt><trkpt lat="43.43023958112753" lon="10.657108339085507"><ele>183.75</ele><time>2026-04-18T15:25:11.001Z</time></trkpt><trkpt lat="43.43035663391496" lon="10.657187157241838"><ele>183.5</ele><time>2026-04-18T15:25:12.001Z</time></trkpt><trkpt lat="43.43047527606415" lon="10.657268216087534"><ele>183.25</ele><time>2026-04-18T15:25:13.001Z</time></trkpt><trkpt lat="43.430596814376734" lon="10.657350382508877"><ele>183.0</ele><time>2026-04-18T15:25:14.001Z</time></trkpt><trkpt lat="43.43072112145786" lon="10.657433894072557"><ele>182.75</ele><time>2026-04-18T15:25:15.001Z</time></trkpt><trkpt lat="43.430847626745795" lon="10.657519469088522"><ele>182.5</ele><time>2026-04-18T15:25:16.001Z</time></trkpt><trkpt lat="43.430976793978" lon="10.657606337697858"><ele>182.25</ele><time>2026-04-18T15:25:17.001Z</time></trkpt><trkpt lat="43.43110684012652" lon="10.657694454914676"><ele>182.0</ele><time>2026-04-18T15:25:18.001Z</time></trkpt><trkpt lat="43.43124002433819" lon="10.65778474760031"><ele>181.66666666666666</ele><time>2026-04-18T15:25:19.001Z</time></trkpt><trkpt lat="43.4313770494013" lon="10.657871648389944"><ele>181.33333333333334</ele><time>2026-04-18T15:25:20.001Z</time></trkpt><trkpt lat="43.431515926821355" lon="10.657961598637765"><ele>181.0</ele><time>2026-04-18T15:25:21.001Z</time></trkpt><trkpt lat="43.431656087342816" lon="10.658053077559574"><ele>181.0</ele><time>2026-04-18T15:25:22.001Z</time></trkpt><trkpt lat="43.43179713612051" lon="10.658147226936078"><ele>181.0</ele><time>2026-04-18T15:25:23.001Z</time></trkpt><trkpt lat="43.431938936497076" lon="10.658241941339831"><ele>181.0</ele><time>2026-04-18T15:25:24.001Z</time></trkpt><trkpt lat="43.432081679400575" lon="10.65833855644383"><ele>180.66666666666669</ele><time>2026-04-18T15:25:25.001Z</time></trkpt><trkpt lat="43.4322225248614" lon="10.658434593866337"><ele>180.33333333333334</ele><time>2026-04-18T15:25:26.001Z</time></trkpt><trkpt lat="43.43235947737938" lon="10.65852908015602"><ele>180.0</ele><time>2026-04-18T15:25:27.001Z</time></trkpt><trkpt lat="43.43248822074983" lon="10.658616251438445"><ele>179.5</ele><time>2026-04-18T15:25:28.001Z</time></trkpt><trkpt lat="43.432607729104696" lon="10.658697292208261"><ele>179.0</ele><time>2026-04-18T15:25:29.001Z</time></trkpt><trkpt lat="43.43271943550021" lon="10.65877267222026"><ele>178.5</ele><time>2026-04-18T15:25:30.001Z</time></trkpt><trkpt lat="43.432822721202484" lon="10.658846972282596"><ele>178.0</ele><time>2026-04-18T15:25:31.001Z</time></trkpt><trkpt lat="43.43291468095101" lon="10.658932824399615"><ele>177.8</ele><time>2026-04-18T15:25:32.001Z</time></trkpt><trkpt lat="43.43299301634723" lon="10.659040528763892"><ele>177.60000000000002</ele><time>2026-04-18T15:25:33.001Z</time></trkpt><trkpt lat="43.43305930741366" lon="10.65916283204616"><ele>177.39999999999998</ele><time>2026-04-18T15:25:34.001Z</time></trkpt><trkpt lat="43.433116063964576" lon="10.659291113664109"><ele>177.2</ele><time>2026-04-18T15:25:35.001Z</time></trkpt><trkpt lat="43.4331749091105" lon="10.65941672125862"><ele>177.0</ele><time>2026-04-18T15:25:36.001Z</time></trkpt><trkpt lat="43.433241989749845" lon="10.65953084361305"><ele>177.0</ele><time>2026-04-18T15:25:37.001Z</time></trkpt><trkpt lat="43.43332288977811" lon="10.659620477422315"><ele>177.0</ele><time>2026-04-18T15:25:38.001Z</time></trkpt><trkpt lat="43.43342063481145" lon="10.659677955495573"><ele>177.0</ele><time>2026-04-18T15:25:39.001Z</time></trkpt><trkpt lat="43.433528107990206" lon="10.659713305813376"><ele>177.0</ele><time>2026-04-18T15:25:40.001Z</time></trkpt><trkpt lat="43.43363641517646" lon="10.659765097449771"><ele>177.0</ele><time>2026-04-18T15:25:41.001Z</time></trkpt><trkpt lat="43.433752714627765" lon="10.659797772287433"><ele>177.75</ele><time>2026-04-18T15:25:42.001Z</time></trkpt><trkpt lat="43.433872362002056" lon="10.659831387753018"><ele>178.5</ele><time>2026-04-18T15:25:43.001Z</time></trkpt><trkpt lat="43.43399434329959" lon="10.659865658953473"><ele>179.25</ele><time>2026-04-18T15:25:44.001Z</time></trkpt><trkpt lat="43.43412218382479" lon="10.659886338536067"><ele>180.0</ele><time>2026-04-18T15:25:45.001Z</time></trkpt><trkpt lat="43.434247363135086" lon="10.659933814218713"><ele>180.0</ele><time>2026-04-18T15:25:46.001Z</time></trkpt><trkpt lat="43.4343733693246" lon="10.659984564114366"><ele>180.0</ele><time>2026-04-18T15:25:47.001Z</time></trkpt><trkpt lat="43.434497572251516" lon="10.660040011890864"><ele>180.0</ele><time>2026-04-18T15:25:48.001Z</time></trkpt><trkpt lat="43.434612944932816" lon="10.660121434634577"><ele>180.0</ele><time>2026-04-18T15:25:49.001Z</time></trkpt><trkpt lat="43.43473102499254" lon="10.660191839476033"><ele>180.25</ele><time>2026-04-18T15:25:50.001Z</time></trkpt><trkpt lat="43.4348463615509" lon="10.66026908050025"><ele>180.5</ele><time>2026-04-18T15:25:51.001Z</time></trkpt><trkpt lat="43.43496180203021" lon="10.660353175048769"><ele>180.75</ele><time>2026-04-18T15:25:52.001Z</time></trkpt><trkpt lat="43.435077532704625" lon="10.6604380679106"><ele>181.0</ele><time>2026-04-18T15:25:53.001Z</time></trkpt><trkpt lat="43.435194897333695" lon="10.660524160901838"><ele>180.0</ele><time>2026-04-18T15:25:54.001Z</time></trkpt><trkpt lat="43.43531165481107" lon="10.660612214338071"><ele>179.0</ele><time>2026-04-18T15:25:55.001Z</time></trkpt><trkpt lat="43.43542881757795" lon="10.660701155029061"><ele>178.0</ele><time>2026-04-18T15:25:56.001Z</time></trkpt><trkpt lat="43.43554393927858" lon="10.660788546232943"><ele>177.0</ele><time>2026-04-18T15:25:57.001Z</time></trkpt><trkpt lat="43.435657168867195" lon="10.660874501032053"><ele>177.0</ele><time>2026-04-18T15:25:58.001Z</time></trkpt><trkpt lat="43.43577074336422" lon="10.660960297364088"><ele>177.0</ele><time>2026-04-18T15:25:59.001Z</time></trkpt><trkpt lat="43.43588518343604" lon="10.661044925619446"><ele>177.0</ele><time>2026-04-18T15:26:00.001Z</time></trkpt><trkpt lat="43.4360080455047" lon="10.661110431973183"><ele>177.0</ele><time>2026-04-18T15:26:01.001Z</time></trkpt><trkpt lat="43.4361200048443" lon="10.661202425622973"><ele>175.75</ele><time>2026-04-18T15:26:02.001Z</time></trkpt><trkpt lat="43.43623746013343" lon="10.661290319026538"><ele>174.5</ele><time>2026-04-18T15:26:03.001Z</time></trkpt><trkpt lat="43.43635333645826" lon="10.661382761238043"><ele>173.25</ele><time>2026-04-18T15:26:04.001Z</time></trkpt><trkpt lat="43.43646973149177" lon="10.661469765666268"><ele>172.0</ele><time>2026-04-18T15:26:05.001Z</time></trkpt><trkpt lat="43.43658452000878" lon="10.661562001718602"><ele>172.0</ele><time>2026-04-18T15:26:06.001Z</time></trkpt><trkpt lat="43.4367033588336" lon="10.66164549812523"><ele>172.0</ele><time>2026-04-18T15:26:07.001Z</time></trkpt><trkpt lat="43.43682329219249" lon="10.661716417041307"><ele>172.0</ele><time>2026-04-18T15:26:08.001Z</time></trkpt><trkpt lat="43.43694868476123" lon="10.661784328827423"><ele>172.0</ele><time>2026-04-18T15:26:09.001Z</time></trkpt><trkpt lat="43.4370762515534" lon="10.661841397626253"><ele>170.75</ele><time>2026-04-18T15:26:10.001Z</time></trkpt><trkpt lat="43.437198528958035" lon="10.661917834892849"><ele>169.5</ele><time>2026-04-18T15:26:11.001Z</time></trkpt><trkpt lat="43.43732800374507" lon="10.661978086012025"><ele>168.25</ele><time>2026-04-18T15:26:12.001Z</time></trkpt><trkpt lat="43.43747494710837" lon="10.661982925960633"><ele>167.0</ele><time>2026-04-18T15:26:13.001Z</time></trkpt><trkpt lat="43.4376123878533" lon="10.662031639722805"><ele>167.0</ele><time>2026-04-18T15:26:14.001Z</time></trkpt><trkpt lat="43.43775143472845" lon="10.662084192179547"><ele>167.0</ele><time>2026-04-18T15:26:15.001Z</time></trkpt><trkpt lat="43.43789351796412" lon="10.662134869576615"><ele>167.0</ele><time>2026-04-18T15:26:16.001Z</time></trkpt><trkpt lat="43.43803246909651" lon="10.662194060121188"><ele>167.0</ele><time>2026-04-18T15:26:17.001Z</time></trkpt><trkpt lat="43.4381722294018" lon="10.662250957775752"><ele>167.75</ele><time>2026-04-18T15:26:18.001Z</time></trkpt><trkpt lat="43.43830906901544" lon="10.662304054827668"><ele>168.5</ele><time>2026-04-18T15:26:19.001Z</time></trkpt><trkpt lat="43.43844669518438" lon="10.662355699321695"><ele>169.25</ele><time>2026-04-18T15:26:20.001Z</time></trkpt><trkpt lat="43.43858170274469" lon="10.662411784367498"><ele>170.0</ele><time>2026-04-18T15:26:21.001Z</time></trkpt><trkpt lat="43.43871357017568" lon="10.662473255604198"><ele>169.75</ele><time>2026-04-18T15:26:22.001Z</time></trkpt><trkpt lat="43.438834365083046" lon="10.662555954609822"><ele>169.5</ele><time>2026-04-18T15:26:23.001Z</time></trkpt><trkpt lat="43.43894535824624" lon="10.662655852833726"><ele>169.25</ele><time>2026-04-18T15:26:24.001Z</time></trkpt><trkpt lat="43.439044182780115" lon="10.662770396530563"><ele>169.0</ele><time>2026-04-18T15:26:25.001Z</time></trkpt><trkpt lat="43.43913594246389" lon="10.66289184366965"><ele>169.0</ele><time>2026-04-18T15:26:26.001Z</time></trkpt><trkpt lat="43.43922923556554" lon="10.663015955678802"><ele>169.0</ele><time>2026-04-18T15:26:27.001Z</time></trkpt><trkpt lat="43.43932416049941" lon="10.663141410039254"><ele>169.0</ele><time>2026-04-18T15:26:28.001Z</time></trkpt><trkpt lat="43.439419722152955" lon="10.663266889131641"><ele>169.0</ele><time>2026-04-18T15:26:29.001Z</time></trkpt><trkpt lat="43.439514780446345" lon="10.663394048612748"><ele>169.0</ele><time>2026-04-18T15:26:30.001Z</time></trkpt><trkpt lat="43.43961183000452" lon="10.663516189234425"><ele>169.0</ele><time>2026-04-18T15:26:31.001Z</time></trkpt><trkpt lat="43.43970718991959" lon="10.663639812368773"><ele>169.0</ele><time>2026-04-18T15:26:32.001Z</time></trkpt><trkpt lat="43.43980220227745" lon="10.663766911372717"><ele>169.0</ele><time>2026-04-18T15:26:33.001Z</time></trkpt><trkpt lat="43.439896635510706" lon="10.663893856228414"><ele>168.0</ele><time>2026-04-18T15:26:34.001Z</time></trkpt><trkpt lat="43.43999150223852" lon="10.664016304134229"><ele>167.0</ele><time>2026-04-18T15:26:35.001Z</time></trkpt><trkpt lat="43.44007977072869" lon="10.664127229797497"><ele>166.0</ele><time>2026-04-18T15:26:36.001Z</time></trkpt><trkpt lat="43.44016321368941" lon="10.664227022972163"><ele>165.0</ele><time>2026-04-18T15:26:37.001Z</time></trkpt><trkpt lat="43.44024202993514" lon="10.664316390876229"><ele>165.0</ele><time>2026-04-18T15:26:38.001Z</time></trkpt><trkpt lat="43.440326084197885" lon="10.664397995294236"><ele>165.0</ele><time>2026-04-18T15:26:39.001Z</time></trkpt><trkpt lat="43.440415028934716" lon="10.664473556415427"><ele>165.0</ele><time>2026-04-18T15:26:40.001Z</time></trkpt><trkpt lat="43.44050684773597" lon="10.664541253135127"><ele>165.0</ele><time>2026-04-18T15:26:41.001Z</time></trkpt><trkpt lat="43.44060169412479" lon="10.664602652727012"><ele>165.0</ele><time>2026-04-18T15:26:42.001Z</time></trkpt><trkpt lat="43.440697450357064" lon="10.664659186297948"><ele>164.4</ele><time>2026-04-18T15:26:43.001Z</time></trkpt><trkpt lat="43.440796710119805" lon="10.664709181997852"><ele>163.8</ele><time>2026-04-18T15:26:44.001Z</time></trkpt><trkpt lat="43.4408987899258" lon="10.664752886845472"><ele>163.2</ele><time>2026-04-18T15:26:45.001Z</time></trkpt><trkpt lat="43.44100254931485" lon="10.664787787549008"><ele>162.6</ele><time>2026-04-18T15:26:46.001Z</time></trkpt><trkpt lat="43.44110847078783" lon="10.66481701673109"><ele>162.0</ele><time>2026-04-18T15:26:47.001Z</time></trkpt><trkpt lat="43.44121434336597" lon="10.664847271463666"><ele>161.8</ele><time>2026-04-18T15:26:48.001Z</time></trkpt><trkpt lat="43.44132068010265" lon="10.66488005270492"><ele>161.6</ele><time>2026-04-18T15:26:49.001Z</time></trkpt><trkpt lat="43.4414287728438" lon="10.664911984234816"><ele>161.4</ele><time>2026-04-18T15:26:50.001Z</time></trkpt><trkpt lat="43.441536073159796" lon="10.664945147739578"><ele>161.20000000000002</ele><time>2026-04-18T15:26:51.001Z</time></trkpt><trkpt lat="43.441640502991454" lon="10.664978786572634"><ele>161.0</ele><time>2026-04-18T15:26:52.001Z</time></trkpt><trkpt lat="43.441733253595764" lon="10.665010084948905"><ele>161.0</ele><time>2026-04-18T15:26:53.001Z</time></trkpt><trkpt lat="43.44181618582263" lon="10.665038020614613"><ele>161.0</ele><time>2026-04-18T15:26:54.001Z</time></trkpt><trkpt lat="43.44188860156935" lon="10.665060970246222"><ele>161.0</ele><time>2026-04-18T15:26:55.001Z</time></trkpt><trkpt lat="43.441972198026306" lon="10.66508601380875"><ele>161.0</ele><time>2026-04-18T15:26:57.001Z</time></trkpt><trkpt lat="43.442040849859204" lon="10.665121290603484"><ele>161.0</ele><time>2026-04-18T15:27:06.001Z</time></trkpt><trkpt lat="43.44210587107049" lon="10.665136995955995"><ele>161.0</ele><time>2026-04-18T15:27:08.001Z</time></trkpt><trkpt lat="43.44220311695712" lon="10.66516357630904"><ele>160.66666666666666</ele><time>2026-04-18T15:27:10.001Z</time></trkpt><trkpt lat="43.44232500475749" lon="10.66519605961071"><ele>160.33333333333331</ele><time>2026-04-18T15:27:12.001Z</time></trkpt><trkpt lat="43.442394285287214" lon="10.665215037365671"><ele>160.0</ele><time>2026-04-18T15:27:13.001Z</time></trkpt><trkpt lat="43.442468771297115" lon="10.665235777465346"><ele>159.66666666666666</ele><time>2026-04-18T15:27:14.001Z</time></trkpt><trkpt lat="43.442546991231595" lon="10.665283917574666"><ele>159.33333333333334</ele><time>2026-04-18T15:27:15.001Z</time></trkpt><trkpt lat="43.442638552466285" lon="10.665290177511652"><ele>159.0</ele><time>2026-04-18T15:27:16.001Z</time></trkpt><trkpt lat="43.44273216299035" lon="10.665321908951217"><ele>159.0</ele><time>2026-04-18T15:27:17.001Z</time></trkpt><trkpt lat="43.442830318745465" lon="10.6653548649729"><ele>159.0</ele><time>2026-04-18T15:27:18.001Z</time></trkpt><trkpt lat="43.44293459449498" lon="10.665388745014278"><ele>159.0</ele><time>2026-04-18T15:27:19.001Z</time></trkpt><trkpt lat="43.44304345072417" lon="10.665423678605233"><ele>159.0</ele><time>2026-04-18T15:27:20.001Z</time></trkpt><trkpt lat="43.44315700567583" lon="10.665459470894438"><ele>159.0</ele><time>2026-04-18T15:27:21.001Z</time></trkpt><trkpt lat="43.443274529833815" lon="10.665496940061342"><ele>158.5</ele><time>2026-04-18T15:27:22.001Z</time></trkpt><trkpt lat="43.44339662139951" lon="10.665536515152109"><ele>158.0</ele><time>2026-04-18T15:27:23.001Z</time></trkpt><trkpt lat="43.44352355334" lon="10.665575557943745"><ele>157.5</ele><time>2026-04-18T15:27:24.001Z</time></trkpt><trkpt lat="43.443654617782634" lon="10.665617413453049"><ele>157.0</ele><time>2026-04-18T15:27:25.001Z</time></trkpt><trkpt lat="43.443789084683885" lon="10.66566580214122"><ele>157.0</ele><time>2026-04-18T15:27:26.001Z</time></trkpt><trkpt lat="43.44392764910517" lon="10.665715738076134"><ele>157.0</ele><time>2026-04-18T15:27:27.001Z</time></trkpt><trkpt lat="43.444069601464264" lon="10.665768529458358"><ele>157.0</ele><time>2026-04-18T15:27:28.001Z</time></trkpt><trkpt lat="43.44421264619865" lon="10.665827015054683"><ele>157.0</ele><time>2026-04-18T15:27:29.001Z</time></trkpt><trkpt lat="43.44435785798563" lon="10.665886131510396"><ele>157.0</ele><time>2026-04-18T15:27:30.001Z</time></trkpt><trkpt lat="43.44450597297477" lon="10.665945444927615"><ele>157.0</ele><time>2026-04-18T15:27:31.001Z</time></trkpt><trkpt lat="43.444654031375684" lon="10.666005095886344"><ele>157.0</ele><time>2026-04-18T15:27:32.001Z</time></trkpt><trkpt lat="43.44480281140999" lon="10.666065979874377"><ele>155.66666666666669</ele><time>2026-04-18T15:27:33.001Z</time></trkpt><trkpt lat="43.44495217496002" lon="10.666126444130423"><ele>154.33333333333334</ele><time>2026-04-18T15:27:34.001Z</time></trkpt><trkpt lat="43.445101881953775" lon="10.666190572965922"><ele>153.0</ele><time>2026-04-18T15:27:35.002Z</time></trkpt><trkpt lat="43.44525281999365" lon="10.666254591834901"><ele>153.0</ele><time>2026-04-18T15:27:36.002Z</time></trkpt><trkpt lat="43.44540605883711" lon="10.6663176653824"><ele>153.0</ele><time>2026-04-18T15:27:37.002Z</time></trkpt><trkpt lat="43.44555955143435" lon="10.66638021338003"><ele>153.0</ele><time>2026-04-18T15:27:38.002Z</time></trkpt><trkpt lat="43.44571402349906" lon="10.666443722703377"><ele>153.0</ele><time>2026-04-18T15:27:39.002Z</time></trkpt><trkpt lat="43.44586948149127" lon="10.666504370169227"><ele>153.0</ele><time>2026-04-18T15:27:40.002Z</time></trkpt><trkpt lat="43.446024634871506" lon="10.666561906900455"><ele>153.0</ele><time>2026-04-18T15:27:41.002Z</time></trkpt><trkpt lat="43.44617920902525" lon="10.666619799806657"><ele>152.33333333333334</ele><time>2026-04-18T15:27:42.002Z</time></trkpt><trkpt lat="43.44633317761343" lon="10.666680660713881"><ele>151.66666666666669</ele><time>2026-04-18T15:27:43.002Z</time></trkpt><trkpt lat="43.44648884927874" lon="10.666739146513086"><ele>151.0</ele><time>2026-04-18T15:27:44.002Z</time></trkpt><trkpt lat="43.44664302590436" lon="10.666799722288495"><ele>151.0</ele><time>2026-04-18T15:27:45.002Z</time></trkpt><trkpt lat="43.44679427046358" lon="10.666871217294542"><ele>151.0</ele><time>2026-04-18T15:27:46.002Z</time></trkpt><trkpt lat="43.44694871769983" lon="10.666939560880639"><ele>151.0</ele><time>2026-04-18T15:27:47.002Z</time></trkpt><trkpt lat="43.44710342310441" lon="10.667004932442397"><ele>150.66666666666669</ele><time>2026-04-18T15:27:48.002Z</time></trkpt><trkpt lat="43.44725831699596" lon="10.667067407055699"><ele>150.33333333333334</ele><time>2026-04-18T15:27:49.002Z</time></trkpt><trkpt lat="43.447413690350636" lon="10.667127938511825"><ele>150.0</ele><time>2026-04-18T15:27:50.002Z</time></trkpt><trkpt lat="43.44757012952352" lon="10.667186482914904"><ele>150.0</ele><time>2026-04-18T15:27:51.001Z</time></trkpt><trkpt lat="43.44772495530275" lon="10.6672478317233"><ele>150.0</ele><time>2026-04-18T15:27:52.001Z</time></trkpt><trkpt lat="43.44787833359034" lon="10.667309576991686"><ele>150.0</ele><time>2026-04-18T15:27:53.001Z</time></trkpt><trkpt lat="43.44803028099276" lon="10.667369156049414"><ele>150.0</ele><time>2026-04-18T15:27:54.001Z</time></trkpt><trkpt lat="43.44818055092967" lon="10.667432486448655"><ele>150.0</ele><time>2026-04-18T15:27:55.001Z</time></trkpt><trkpt lat="43.44833445991823" lon="10.66749066479311"><ele>150.0</ele><time>2026-04-18T15:27:56.001Z</time></trkpt><trkpt lat="43.44848290207421" lon="10.667517714264662"><ele>150.0</ele><time>2026-04-18T15:27:57.001Z</time></trkpt><trkpt lat="43.44862387234113" lon="10.667582686418518"><ele>150.0</ele><time>2026-04-18T15:27:58.001Z</time></trkpt><trkpt lat="43.44877200362511" lon="10.66759228274574"><ele>150.0</ele><time>2026-04-18T15:27:59.001Z</time></trkpt><trkpt lat="43.448912391904706" lon="10.66761530654686"><ele>150.0</ele><time>2026-04-18T15:28:00.001Z</time></trkpt><trkpt lat="43.44904900238148" lon="10.667629650381254"><ele>150.25</ele><time>2026-04-18T15:28:01.001Z</time></trkpt><trkpt lat="43.44918697516774" lon="10.66764008185929"><ele>150.5</ele><time>2026-04-18T15:28:02.001Z</time></trkpt><trkpt lat="43.449323272990284" lon="10.66764114859482"><ele>150.75</ele><time>2026-04-18T15:28:03.001Z</time></trkpt><trkpt lat="43.449455262113794" lon="10.667614470930685"><ele>151.0</ele><time>2026-04-18T15:28:04.001Z</time></trkpt><trkpt lat="43.44958030526624" lon="10.667567792753838"><ele>150.5</ele><time>2026-04-18T15:28:05.001Z</time></trkpt><trkpt lat="43.44969881976718" lon="10.667510005432005"><ele>150.0</ele><time>2026-04-18T15:28:06.001Z</time></trkpt><trkpt lat="43.44981656864768" lon="10.667454123724239"><ele>149.5</ele><time>2026-04-18T15:28:07.001Z</time></trkpt><trkpt lat="43.44993226605407" lon="10.667392775822439"><ele>149.0</ele><time>2026-04-18T15:28:08.001Z</time></trkpt><trkpt lat="43.450051126964766" lon="10.667355483423206"><ele>149.0</ele><time>2026-04-18T15:28:09.001Z</time></trkpt><trkpt lat="43.45016487964787" lon="10.667308464565325"><ele>149.0</ele><time>2026-04-18T15:28:10.001Z</time></trkpt><trkpt lat="43.45027751789233" lon="10.667253334486936"><ele>149.0</ele><time>2026-04-18T15:28:11.001Z</time></trkpt><trkpt lat="43.45039302790256" lon="10.667236151944588"><ele>149.0</ele><time>2026-04-18T15:28:12.001Z</time></trkpt><trkpt lat="43.450512877755266" lon="10.6672405367466"><ele>149.0</ele><time>2026-04-18T15:28:13.001Z</time></trkpt><trkpt lat="43.45063157478522" lon="10.667275671050033"><ele>149.0</ele><time>2026-04-18T15:28:14.001Z</time></trkpt><trkpt lat="43.4507538654838" lon="10.667299708900568"><ele>149.0</ele><time>2026-04-18T15:28:15.001Z</time></trkpt><trkpt lat="43.45087979098935" lon="10.667324883683694"><ele>149.0</ele><time>2026-04-18T15:28:16.001Z</time></trkpt><trkpt lat="43.45100917949946" lon="10.667351585161425"><ele>149.0</ele><time>2026-04-18T15:28:17.001Z</time></trkpt><trkpt lat="43.45113966519661" lon="10.667378512905124"><ele>149.0</ele><time>2026-04-18T15:28:18.001Z</time></trkpt><trkpt lat="43.45127311375175" lon="10.667406052128658"><ele>149.0</ele><time>2026-04-18T15:28:19.001Z</time></trkpt><trkpt lat="43.45140553099798" lon="10.667416154802662"><ele>149.0</ele><time>2026-04-18T15:28:20.001Z</time></trkpt><trkpt lat="43.45153460413121" lon="10.667444970535213"><ele>149.5</ele><time>2026-04-18T15:28:21.001Z</time></trkpt><trkpt lat="43.45166181715317" lon="10.667470662833558"><ele>150.0</ele><time>2026-04-18T15:28:22.001Z</time></trkpt><trkpt lat="43.45178683934457" lon="10.667497927995981"><ele>150.5</ele><time>2026-04-18T15:28:23.001Z</time></trkpt><trkpt lat="43.45191097646" lon="10.667523026541703"><ele>151.0</ele><time>2026-04-18T15:28:24.001Z</time></trkpt><trkpt lat="43.45203565503239" lon="10.667548821929646"><ele>150.5</ele><time>2026-04-18T15:28:25.001Z</time></trkpt><trkpt lat="43.452160400718945" lon="10.667576627974464"><ele>150.0</ele><time>2026-04-18T15:28:26.001Z</time></trkpt><trkpt lat="43.45228581887565" lon="10.667595537603999"><ele>149.5</ele><time>2026-04-18T15:28:27.001Z</time></trkpt><trkpt lat="43.45241184889456" lon="10.66760076224412"><ele>149.0</ele><time>2026-04-18T15:28:28.001Z</time></trkpt><trkpt lat="43.45253782086681" lon="10.667628927768169"><ele>149.0</ele><time>2026-04-18T15:28:29.001Z</time></trkpt><trkpt lat="43.45266819523486" lon="10.667603312061225"><ele>149.0</ele><time>2026-04-18T15:28:30.001Z</time></trkpt><trkpt lat="43.452799307086806" lon="10.667599517580836"><ele>149.0</ele><time>2026-04-18T15:28:31.001Z</time></trkpt><trkpt lat="43.45293131463731" lon="10.667592237542621"><ele>149.0</ele><time>2026-04-18T15:28:32.001Z</time></trkpt><trkpt lat="43.45306185240715" lon="10.667581847340195"><ele>148.75</ele><time>2026-04-18T15:28:33.001Z</time></trkpt><trkpt lat="43.45319266063965" lon="10.667576313155948"><ele>148.5</ele><time>2026-04-18T15:28:34.001Z</time></trkpt><trkpt lat="43.45332108238581" lon="10.667584958559036"><ele>148.25</ele><time>2026-04-18T15:28:35.001Z</time></trkpt><trkpt lat="43.453455421067126" lon="10.667601016242306"><ele>148.0</ele><time>2026-04-18T15:28:36.001Z</time></trkpt><trkpt lat="43.45357718596067" lon="10.667625799692402"><ele>148.0</ele><time>2026-04-18T15:28:37.001Z</time></trkpt><trkpt lat="43.45370471645517" lon="10.667648492064986"><ele>148.0</ele><time>2026-04-18T15:28:38.001Z</time></trkpt><trkpt lat="43.45383016301846" lon="10.667668004508197"><ele>148.0</ele><time>2026-04-18T15:28:39.001Z</time></trkpt><trkpt lat="43.453952909000265" lon="10.667688608779974"><ele>148.0</ele><time>2026-04-18T15:28:40.001Z</time></trkpt><trkpt lat="43.454074252126055" lon="10.66770746395269"><ele>147.25</ele><time>2026-04-18T15:28:41.001Z</time></trkpt><trkpt lat="43.454195163461605" lon="10.667731900107768"><ele>146.5</ele><time>2026-04-18T15:28:42.001Z</time></trkpt><trkpt lat="43.454317853733805" lon="10.667758308707604"><ele>145.75</ele><time>2026-04-18T15:28:43.001Z</time></trkpt><trkpt lat="43.45444338237385" lon="10.667781186113867"><ele>145.0</ele><time>2026-04-18T15:28:44.001Z</time></trkpt><trkpt lat="43.4545705179284" lon="10.667806403933813"><ele>144.75</ele><time>2026-04-18T15:28:45.001Z</time></trkpt><trkpt lat="43.454698510604025" lon="10.667833080184543"><ele>144.5</ele><time>2026-04-18T15:28:46.001Z</time></trkpt><trkpt lat="43.45482866122392" lon="10.667858411880399"><ele>144.25</ele><time>2026-04-18T15:28:47.001Z</time></trkpt><trkpt lat="43.4549586875993" lon="10.66787943051036"><ele>144.0</ele><time>2026-04-18T15:28:48.001Z</time></trkpt><trkpt lat="43.45508638934159" lon="10.667901409799043"><ele>144.0</ele><time>2026-04-18T15:28:49.001Z</time></trkpt><trkpt lat="43.455211393648746" lon="10.667926208079157"><ele>144.0</ele><time>2026-04-18T15:28:50.001Z</time></trkpt><trkpt lat="43.45533489853651" lon="10.66794875168778"><ele>144.0</ele><time>2026-04-18T15:28:51.001Z</time></trkpt><trkpt lat="43.45545673502845" lon="10.66796854822308"><ele>144.0</ele><time>2026-04-18T15:28:52.001Z</time></trkpt><trkpt lat="43.45557697264525" lon="10.667992375794952"><ele>143.75</ele><time>2026-04-18T15:28:53.001Z</time></trkpt><trkpt lat="43.455697174232384" lon="10.668029380177396"><ele>143.5</ele><time>2026-04-18T15:28:54.001Z</time></trkpt><trkpt lat="43.455817512452846" lon="10.668080849006508"><ele>143.25</ele><time>2026-04-18T15:28:55.001Z</time></trkpt><trkpt lat="43.455939360834286" lon="10.66814421144862"><ele>143.0</ele><time>2026-04-18T15:28:56.001Z</time></trkpt><trkpt lat="43.456061504588334" lon="10.668220855351782"><ele>143.0</ele><time>2026-04-18T15:28:57.001Z</time></trkpt><trkpt lat="43.456185475632836" lon="10.66830846165867"><ele>143.0</ele><time>2026-04-18T15:28:58.001Z</time></trkpt><trkpt lat="43.456312223520825" lon="10.66840037768228"><ele>143.0</ele><time>2026-04-18T15:28:59.001Z</time></trkpt><trkpt lat="43.45644040824899" lon="10.668494255074208"><ele>143.0</ele><time>2026-04-18T15:29:00.001Z</time></trkpt><trkpt lat="43.4565708142106" lon="10.668586151632171"><ele>142.5</ele><time>2026-04-18T15:29:01.001Z</time></trkpt><trkpt lat="43.45670162360781" lon="10.668681648050287"><ele>142.0</ele><time>2026-04-18T15:29:02.001Z</time></trkpt><trkpt lat="43.45683146814778" lon="10.668781068782204"><ele>141.5</ele><time>2026-04-18T15:29:03.001Z</time></trkpt><trkpt lat="43.45696428213101" lon="10.668877928667953"><ele>141.0</ele><time>2026-04-18T15:29:04.001Z</time></trkpt><trkpt lat="43.45710056543027" lon="10.668971678747758"><ele>140.66666666666666</ele><time>2026-04-18T15:29:05.001Z</time></trkpt><trkpt lat="43.45723827138402" lon="10.669065342632027"><ele>140.33333333333331</ele><time>2026-04-18T15:29:06.001Z</time></trkpt><trkpt lat="43.45737593709958" lon="10.669164153341649"><ele>140.0</ele><time>2026-04-18T15:29:07.001Z</time></trkpt><trkpt lat="43.45751214789447" lon="10.66926637807386"><ele>140.0</ele><time>2026-04-18T15:29:08.001Z</time></trkpt><trkpt lat="43.45764935657477" lon="10.669367605800232"><ele>140.0</ele><time>2026-04-18T15:29:09.001Z</time></trkpt><trkpt lat="43.45778709423667" lon="10.669468341705244"><ele>140.0</ele><time>2026-04-18T15:29:10.001Z</time></trkpt><trkpt lat="43.457926077445116" lon="10.669568861114094"><ele>139.66666666666666</ele><time>2026-04-18T15:29:11.001Z</time></trkpt><trkpt lat="43.45806970083574" lon="10.669672655456793"><ele>139.33333333333334</ele><time>2026-04-18T15:29:12.001Z</time></trkpt><trkpt lat="43.458219055472334" lon="10.669781032836642"><ele>139.0</ele><time>2026-04-18T15:29:13.001Z</time></trkpt><trkpt lat="43.458374334408525" lon="10.669891082338363"><ele>139.0</ele><time>2026-04-18T15:29:14.001Z</time></trkpt><trkpt lat="43.458536974027396" lon="10.670004821112844"><ele>139.0</ele><time>2026-04-18T15:29:15.001Z</time></trkpt><trkpt lat="43.45870259605087" lon="10.67012063010993"><ele>139.0</ele><time>2026-04-18T15:29:16.001Z</time></trkpt><trkpt lat="43.4588620222932" lon="10.670263100559579"><ele>137.66666666666669</ele><time>2026-04-18T15:29:17.001Z</time></trkpt><trkpt lat="43.459034984763726" lon="10.670385558757337"><ele>136.33333333333334</ele><time>2026-04-18T15:29:18.001Z</time></trkpt><trkpt lat="43.45921134665769" lon="10.670509342040232"><ele>135.0</ele><time>2026-04-18T15:29:19.001Z</time></trkpt><trkpt lat="43.45939146822581" lon="10.670635599343852"><ele>135.0</ele><time>2026-04-18T15:29:20.001Z</time></trkpt><trkpt lat="43.45957398703887" lon="10.670767269433377"><ele>135.0</ele><time>2026-04-18T15:29:21.001Z</time></trkpt><trkpt lat="43.45975923269296" lon="10.670900906679144"><ele>135.0</ele><time>2026-04-18T15:29:22.001Z</time></trkpt><trkpt lat="43.4599496668004" lon="10.67103818336263"><ele>134.0</ele><time>2026-04-18T15:29:23.001Z</time></trkpt><trkpt lat="43.46015403107215" lon="10.671160261339137"><ele>133.0</ele><time>2026-04-18T15:29:24.001Z</time></trkpt><trkpt lat="43.46035448981284" lon="10.671312297840624"><ele>132.5</ele><time>2026-04-18T15:29:25.001Z</time></trkpt><trkpt lat="43.46056084172996" lon="10.671461648316523"><ele>132.0</ele><time>2026-04-18T15:29:26.001Z</time></trkpt><trkpt lat="43.46076943472642" lon="10.671608289849319"><ele>132.0</ele><time>2026-04-18T15:29:27.001Z</time></trkpt><trkpt lat="43.46097813453496" lon="10.671757127087876"><ele>132.0</ele><time>2026-04-18T15:29:28.001Z</time></trkpt><trkpt lat="43.46118454800387" lon="10.671907243746944"><ele>131.5</ele><time>2026-04-18T15:29:29.001Z</time></trkpt><trkpt lat="43.46138985333913" lon="10.672057148787164"><ele>131.0</ele><time>2026-04-18T15:29:30.001Z</time></trkpt><trkpt lat="43.46159257743355" lon="10.672205493249894"><ele>131.0</ele><time>2026-04-18T15:29:31.001Z</time></trkpt><trkpt lat="43.461791561300466" lon="10.67234922171193"><ele>131.0</ele><time>2026-04-18T15:29:32.001Z</time></trkpt><trkpt lat="43.461986749450816" lon="10.672489357960183"><ele>131.0</ele><time>2026-04-18T15:29:33.001Z</time></trkpt><trkpt lat="43.462179033832676" lon="10.672623785935311"><ele>130.66666666666666</ele><time>2026-04-18T15:29:34.001Z</time></trkpt><trkpt lat="43.46236745031795" lon="10.672758146631699"><ele>130.33333333333334</ele><time>2026-04-18T15:29:35.001Z</time></trkpt><trkpt lat="43.462551932141494" lon="10.67288820010289"><ele>130.0</ele><time>2026-04-18T15:29:36.001Z</time></trkpt><trkpt lat="43.46273382079617" lon="10.673015929795723"><ele>130.0</ele><time>2026-04-18T15:29:37.001Z</time></trkpt><trkpt lat="43.462914801200014" lon="10.673145717125019"><ele>130.0</ele><time>2026-04-18T15:29:38.001Z</time></trkpt><trkpt lat="43.4630992193906" lon="10.673270082127681"><ele>130.0</ele><time>2026-04-18T15:29:39.001Z</time></trkpt><trkpt lat="43.463279871881895" lon="10.673400041407849"><ele>130.66666666666669</ele><time>2026-04-18T15:29:40.001Z</time></trkpt><trkpt lat="43.46346094449885" lon="10.673531326318315"><ele>131.33333333333334</ele><time>2026-04-18T15:29:41.001Z</time></trkpt><trkpt lat="43.463642389931906" lon="10.673662044930643"><ele>132.0</ele><time>2026-04-18T15:29:42.001Z</time></trkpt><trkpt lat="43.46382530307945" lon="10.673791737915076"><ele>130.66666666666666</ele><time>2026-04-18T15:29:43.001Z</time></trkpt><trkpt lat="43.46400769160391" lon="10.673922444831037"><ele>129.33333333333331</ele><time>2026-04-18T15:29:44.001Z</time></trkpt><trkpt lat="43.46418801030789" lon="10.674051261923822"><ele>128.0</ele><time>2026-04-18T15:29:45.001Z</time></trkpt><trkpt lat="43.464363313612836" lon="10.674183279339523"><ele>128.0</ele><time>2026-04-18T15:29:46.001Z</time></trkpt><trkpt lat="43.46452956582239" lon="10.674325625803275"><ele>128.0</ele><time>2026-04-18T15:29:47.001Z</time></trkpt><trkpt lat="43.464686364747536" lon="10.67447949643345"><ele>128.0</ele><time>2026-04-18T15:29:48.002Z</time></trkpt><trkpt lat="43.46483350735233" lon="10.674642800838795"><ele>127.33333333333333</ele><time>2026-04-18T15:29:49.002Z</time></trkpt><trkpt lat="43.46497198503379" lon="10.674814145337379"><ele>126.66666666666666</ele><time>2026-04-18T15:29:50.002Z</time></trkpt><trkpt lat="43.46510070773676" lon="10.674995136554589"><ele>126.0</ele><time>2026-04-18T15:29:51.002Z</time></trkpt><trkpt lat="43.46521620114479" lon="10.675189700119047"><ele>125.66666666666666</ele><time>2026-04-18T15:29:52.002Z</time></trkpt><trkpt lat="43.465320822952016" lon="10.675396689988359"><ele>125.33333333333333</ele><time>2026-04-18T15:29:53.002Z</time></trkpt><trkpt lat="43.465416040865755" lon="10.675612322785629"><ele>125.0</ele><time>2026-04-18T15:29:54.002Z</time></trkpt><trkpt lat="43.46550203308634" lon="10.675836692641594"><ele>126.0</ele><time>2026-04-18T15:29:55.002Z</time></trkpt><trkpt lat="43.46558876541636" lon="10.676062957572123"><ele>127.0</ele><time>2026-04-18T15:29:56.002Z</time></trkpt><trkpt lat="43.465676208128805" lon="10.676293096825495"><ele>128.0</ele><time>2026-04-18T15:29:57.001Z</time></trkpt><trkpt lat="43.465762218897964" lon="10.676527248324085"><ele>128.0</ele><time>2026-04-18T15:29:58.001Z</time></trkpt><trkpt lat="43.4658491834123" lon="10.676763818906522"><ele>128.0</ele><time>2026-04-18T15:29:59.001Z</time></trkpt><trkpt lat="43.46593823382125" lon="10.677001037521622"><ele>128.0</ele><time>2026-04-18T15:30:00.001Z</time></trkpt><trkpt lat="43.46602882805461" lon="10.677238896741951"><ele>128.33333333333331</ele><time>2026-04-18T15:30:01.001Z</time></trkpt><trkpt lat="43.4661199214873" lon="10.677476673580772"><ele>128.66666666666666</ele><time>2026-04-18T15:30:02.001Z</time></trkpt><trkpt lat="43.46620803731836" lon="10.677714265199581"><ele>129.0</ele><time>2026-04-18T15:30:03.001Z</time></trkpt><trkpt lat="43.466298015567745" lon="10.677947102352126"><ele>129.0</ele><time>2026-04-18T15:30:04.001Z</time></trkpt><trkpt lat="43.46638670622713" lon="10.678176803996168"><ele>129.0</ele><time>2026-04-18T15:30:05.001Z</time></trkpt><trkpt lat="43.466474486117725" lon="10.678400408527514"><ele>129.0</ele><time>2026-04-18T15:30:06.001Z</time></trkpt><trkpt lat="43.466559696469744" lon="10.67861195468478"><ele>126.33333333333334</ele><time>2026-04-18T15:30:07.001Z</time></trkpt><trkpt lat="43.46664477546139" lon="10.678808618618552"><ele>123.66666666666667</ele><time>2026-04-18T15:30:08.001Z</time></trkpt><trkpt lat="43.46673193355982" lon="10.678996666712123"><ele>121.0</ele><time>2026-04-18T15:30:09.001Z</time></trkpt><trkpt lat="43.46682718910427" lon="10.679178282503802"><ele>121.0</ele><time>2026-04-18T15:30:10.001Z</time></trkpt><trkpt lat="43.466930432479536" lon="10.67935448947534"><ele>121.0</ele><time>2026-04-18T15:30:11.001Z</time></trkpt><trkpt lat="43.467039018721636" lon="10.679527942445521"><ele>121.0</ele><time>2026-04-18T15:30:12.001Z</time></trkpt><trkpt lat="43.46714314737988" lon="10.679708094601743"><ele>121.0</ele><time>2026-04-18T15:30:13.001Z</time></trkpt><trkpt lat="43.46724795812196" lon="10.679889792471915"><ele>121.0</ele><time>2026-04-18T15:30:14.001Z</time></trkpt><trkpt lat="43.46735446381204" lon="10.680071982763046"><ele>121.0</ele><time>2026-04-18T15:30:15.001Z</time></trkpt><trkpt lat="43.46746117549029" lon="10.680254857024806"><ele>120.33333333333334</ele><time>2026-04-18T15:30:16.001Z</time></trkpt><trkpt lat="43.46756732263072" lon="10.680435319180239"><ele>119.66666666666666</ele><time>2026-04-18T15:30:17.001Z</time></trkpt><trkpt lat="43.46767027505617" lon="10.68061413576767"><ele>119.0</ele><time>2026-04-18T15:30:18.001Z</time></trkpt><trkpt lat="43.46777333998091" lon="10.680788912760667"><ele>119.0</ele><time>2026-04-18T15:30:19.001Z</time></trkpt><trkpt lat="43.46787621147885" lon="10.680959844611913"><ele>119.0</ele><time>2026-04-18T15:30:20.001Z</time></trkpt><trkpt lat="43.467973921953245" lon="10.681125720063038"><ele>119.0</ele><time>2026-04-18T15:30:21.001Z</time></trkpt><trkpt lat="43.4680693468909" lon="10.681289299386686"><ele>119.75</ele><time>2026-04-18T15:30:22.001Z</time></trkpt><trkpt lat="43.468163668790076" lon="10.681450371623054"><ele>120.5</ele><time>2026-04-18T15:30:23.001Z</time></trkpt><trkpt lat="43.46825774249496" lon="10.681609575596964"><ele>121.25</ele><time>2026-04-18T15:30:24.001Z</time></trkpt><trkpt lat="43.46834777483725" lon="10.681772506474772"><ele>122.0</ele><time>2026-04-18T15:30:25.001Z</time></trkpt><trkpt lat="43.46843600018719" lon="10.681931985781304"><ele>122.0</ele><time>2026-04-18T15:30:26.001Z</time></trkpt><trkpt lat="43.46852493255924" lon="10.682090020317807"><ele>122.0</ele><time>2026-04-18T15:30:27.001Z</time></trkpt><trkpt lat="43.4686070556612" lon="10.682243537881796"><ele>122.0</ele><time>2026-04-18T15:30:28.001Z</time></trkpt><trkpt lat="43.46868140457844" lon="10.68239607827307"><ele>122.0</ele><time>2026-04-18T15:30:29.001Z</time></trkpt><trkpt lat="43.46873431283003" lon="10.682552948787679"><ele>122.0</ele><time>2026-04-18T15:30:30.001Z</time></trkpt><trkpt lat="43.46876465810818" lon="10.682717973982339"><ele>122.0</ele><time>2026-04-18T15:30:31.001Z</time></trkpt><trkpt lat="43.46877544495586" lon="10.68288280589883"><ele>122.0</ele><time>2026-04-18T15:30:32.001Z</time></trkpt><trkpt lat="43.46876508747562" lon="10.683059713464946"><ele>122.0</ele><time>2026-04-18T15:30:33.001Z</time></trkpt><trkpt lat="43.46874189853937" lon="10.683234090652498"><ele>121.6</ele><time>2026-04-18T15:30:34.001Z</time></trkpt><trkpt lat="43.46871963882514" lon="10.683405184016111"><ele>121.19999999999999</ele><time>2026-04-18T15:30:35.001Z</time></trkpt><trkpt lat="43.46870368684352" lon="10.683565697227376"><ele>120.8</ele><time>2026-04-18T15:30:36.001Z</time></trkpt><trkpt lat="43.46869215628008" lon="10.683701763939096"><ele>120.4</ele><time>2026-04-18T15:30:37.001Z</time></trkpt><trkpt lat="43.468693236165805" lon="10.683829356537645"><ele>120.0</ele><time>2026-04-18T15:30:38.001Z</time></trkpt><trkpt lat="43.468715836929945" lon="10.683961209868666"><ele>119.4</ele><time>2026-04-18T15:30:39.001Z</time></trkpt><trkpt lat="43.468760092488345" lon="10.684092724372073"><ele>118.8</ele><time>2026-04-18T15:30:40.001Z</time></trkpt><trkpt lat="43.468818273081716" lon="10.68422380700848"><ele>118.19999999999999</ele><time>2026-04-18T15:30:41.001Z</time></trkpt><trkpt lat="43.46889466015746" lon="10.684337793114187"><ele>117.6</ele><time>2026-04-18T15:30:42.001Z</time></trkpt><trkpt lat="43.46898985800363" lon="10.684434039410073"><ele>117.0</ele><time>2026-04-18T15:30:43.001Z</time></trkpt><trkpt lat="43.469096598788596" lon="10.684526061680966"><ele>117.0</ele><time>2026-04-18T15:30:44.001Z</time></trkpt><trkpt lat="43.46920892742045" lon="10.684624706620061"><ele>117.0</ele><time>2026-04-18T15:30:45.001Z</time></trkpt><trkpt lat="43.469325777987734" lon="10.68472754171263"><ele>117.0</ele><time>2026-04-18T15:30:46.001Z</time></trkpt><trkpt lat="43.46944605676723" lon="10.684833543438764"><ele>117.0</ele><time>2026-04-18T15:30:47.001Z</time></trkpt><trkpt lat="43.46957084412622" lon="10.68493896393831"><ele>116.0</ele><time>2026-04-18T15:30:48.001Z</time></trkpt><trkpt lat="43.46969628167088" lon="10.685047866617959"><ele>115.0</ele><time>2026-04-18T15:30:49.001Z</time></trkpt><trkpt lat="43.469820597707184" lon="10.685159452258016"><ele>114.0</ele><time>2026-04-18T15:30:50.001Z</time></trkpt><trkpt lat="43.46994472124279" lon="10.685270951933672"><ele>113.0</ele><time>2026-04-18T15:30:51.001Z</time></trkpt><trkpt lat="43.470070265480174" lon="10.68537835665166"><ele>113.0</ele><time>2026-04-18T15:30:52.001Z</time></trkpt><trkpt lat="43.47020049636805" lon="10.685477552593095"><ele>113.0</ele><time>2026-04-18T15:30:53.001Z</time></trkpt><trkpt lat="43.4703322436205" lon="10.685569281028844"><ele>113.0</ele><time>2026-04-18T15:30:54.001Z</time></trkpt><trkpt lat="43.47046888697889" lon="10.685658089112078"><ele>113.0</ele><time>2026-04-18T15:30:55.001Z</time></trkpt><trkpt lat="43.470607101496064" lon="10.685745347630865"><ele>113.33333333333333</ele><time>2026-04-18T15:30:56.001Z</time></trkpt><trkpt lat="43.47074549986109" lon="10.685832291779368"><ele>113.66666666666666</ele><time>2026-04-18T15:30:57.001Z</time></trkpt><trkpt lat="43.470882239496596" lon="10.68591851720781"><ele>114.0</ele><time>2026-04-18T15:30:58.001Z</time></trkpt><trkpt lat="43.471015520076186" lon="10.686007256782169"><ele>113.75</ele><time>2026-04-18T15:30:59.001Z</time></trkpt><trkpt lat="43.47113788993662" lon="10.686120339874302"><ele>113.5</ele><time>2026-04-18T15:31:00.001Z</time></trkpt><trkpt lat="43.471270895940684" lon="10.68620628260632"><ele>113.25</ele><time>2026-04-18T15:31:01.001Z</time></trkpt><trkpt lat="43.47138193161843" lon="10.686340636579276"><ele>113.0</ele><time>2026-04-18T15:31:02.001Z</time></trkpt><trkpt lat="43.471494135471964" lon="10.68647108349948"><ele>113.0</ele><time>2026-04-18T15:31:03.001Z</time></trkpt><trkpt lat="43.47160035191351" lon="10.68660909303141"><ele>113.0</ele><time>2026-04-18T15:31:04.001Z</time></trkpt><trkpt lat="43.471699231419855" lon="10.686754870020476"><ele>113.0</ele><time>2026-04-18T15:31:05.001Z</time></trkpt><trkpt lat="43.47179288541759" lon="10.68690348085215"><ele>113.0</ele><time>2026-04-18T15:31:06.001Z</time></trkpt><trkpt lat="43.47188119065068" lon="10.68705465568532"><ele>113.0</ele><time>2026-04-18T15:31:07.001Z</time></trkpt><trkpt lat="43.47197560826358" lon="10.68719418933732"><ele>113.0</ele><time>2026-04-18T15:31:08.001Z</time></trkpt><trkpt lat="43.47204960878886" lon="10.687336394745962"><ele>113.0</ele><time>2026-04-18T15:31:09.001Z</time></trkpt><trkpt lat="43.47211444470742" lon="10.687469939292848"><ele>113.0</ele><time>2026-04-18T15:31:10.001Z</time></trkpt><trkpt lat="43.47217355622034" lon="10.687589096874326"><ele>112.99999999999999</ele><time>2026-04-18T15:31:11.001Z</time></trkpt><trkpt lat="43.47222535840459" lon="10.687690142096422"><ele>113.0</ele><time>2026-04-18T15:31:12.001Z</time></trkpt><trkpt lat="43.47226416567431" lon="10.687769567805788"><ele>113.0</ele><time>2026-04-18T15:31:13.001Z</time></trkpt><trkpt lat="43.47228160657091" lon="10.6878743666699"><ele>113.0</ele><time>2026-04-18T15:31:15.001Z</time></trkpt><trkpt lat="43.472207725482605" lon="10.687944712502098"><ele>112.99999999999999</ele><time>2026-04-18T15:31:17.001Z</time></trkpt><trkpt lat="43.47212732339336" lon="10.688049175650933"><ele>113.0</ele><time>2026-04-18T15:31:19.001Z</time></trkpt><trkpt lat="43.472082691108554" lon="10.688111380555712"><ele>112.33333333333333</ele><time>2026-04-18T15:31:20.001Z</time></trkpt><trkpt lat="43.47203360047264" lon="10.688181337505396"><ele>111.66666666666666</ele><time>2026-04-18T15:31:21.001Z</time></trkpt><trkpt lat="43.4719816658427" lon="10.688257119039342"><ele>111.0</ele><time>2026-04-18T15:31:22.001Z</time></trkpt><trkpt lat="43.47192571585725" lon="10.688338759653387"><ele>110.33333333333334</ele><time>2026-04-18T15:31:23.001Z</time></trkpt><trkpt lat="43.47186396266181" lon="10.688428868138777"><ele>109.66666666666667</ele><time>2026-04-18T15:31:24.001Z</time></trkpt><trkpt lat="43.471797143980346" lon="10.68852636803712"><ele>109.0</ele><time>2026-04-18T15:31:25.001Z</time></trkpt><trkpt lat="43.4717278904738" lon="10.688627420766654"><ele>109.0</ele><time>2026-04-18T15:31:26.001Z</time></trkpt><trkpt lat="43.47165743127924" lon="10.688730232803255"><ele>109.0</ele><time>2026-04-18T15:31:27.001Z</time></trkpt><trkpt lat="43.47158704462757" lon="10.688835699001148"><ele>109.0</ele><time>2026-04-18T15:31:28.001Z</time></trkpt><trkpt lat="43.47152523850291" lon="10.68892887029945"><ele>109.0</ele><time>2026-04-18T15:31:29.001Z</time></trkpt><trkpt lat="43.47147712210444" lon="10.689001404681694"><ele>109.0</ele><time>2026-04-18T15:31:30.001Z</time></trkpt><trkpt lat="43.47142006006803" lon="10.689086224413165"><ele>109.00000000000001</ele><time>2026-04-18T15:31:32.001Z</time></trkpt><trkpt lat="43.47136773756628" lon="10.689161376480934"><ele>109.0</ele><time>2026-04-18T15:31:34.001Z</time></trkpt><trkpt lat="43.47131312685932" lon="10.689239815144772"><ele>109.0</ele><time>2026-04-18T15:31:36.001Z</time></trkpt><trkpt lat="43.47125655006894" lon="10.689323919981991"><ele>109.0</ele><time>2026-04-18T15:31:38.001Z</time></trkpt><trkpt lat="43.471194886232766" lon="10.689416644118868"><ele>109.00000000000001</ele><time>2026-04-18T15:31:40.001Z</time></trkpt><trkpt lat="43.47112544225885" lon="10.689521067266496"><ele>109.0</ele><time>2026-04-18T15:31:42.001Z</time></trkpt><trkpt lat="43.47105123145685" lon="10.689629986357327"><ele>109.00000000000001</ele><time>2026-04-18T15:31:44.001Z</time></trkpt><trkpt lat="43.470984886214644" lon="10.6897529090056"><ele>109.0</ele><time>2026-04-18T15:31:46.001Z</time></trkpt><trkpt lat="43.47087645321655" lon="10.689829450277239"><ele>109.0</ele><time>2026-04-18T15:31:48.001Z</time></trkpt><trkpt lat="43.470826505549276" lon="10.689884536826439"><ele>109.0</ele><time>2026-04-18T15:31:49.001Z</time></trkpt><trkpt lat="43.47077938297193" lon="10.689950965525675"><ele>109.00000000000001</ele><time>2026-04-18T15:31:50.001Z</time></trkpt><trkpt lat="43.470735594282985" lon="10.690024358502086"><ele>109.0</ele><time>2026-04-18T15:31:51.001Z</time></trkpt><trkpt lat="43.470693270872474" lon="10.69009726032031"><ele>109.0</ele><time>2026-04-18T15:31:52.001Z</time></trkpt><trkpt lat="43.47065041013465" lon="10.690169417417733"><ele>109.0</ele><time>2026-04-18T15:31:53.002Z</time></trkpt><trkpt lat="43.47060619920466" lon="10.690235551681504"><ele>109.0</ele><time>2026-04-18T15:31:54.002Z</time></trkpt><trkpt lat="43.470555935169074" lon="10.6902938196071"><ele>109.0</ele><time>2026-04-18T15:31:55.002Z</time></trkpt><trkpt lat="43.470480764685306" lon="10.690396948017218"><ele>109.0</ele><time>2026-04-18T15:31:57.002Z</time></trkpt><trkpt lat="43.47040740281395" lon="10.690383241552519"><ele>109.0</ele><time>2026-04-18T15:31:59.002Z</time></trkpt><trkpt lat="43.470380656087386" lon="10.69029538595292"><ele>109.0</ele><time>2026-04-18T15:32:01.002Z</time></trkpt><trkpt lat="43.47034426122369" lon="10.690177774433536"><ele>108.71428571428572</ele><time>2026-04-18T15:32:04.001Z</time></trkpt><trkpt lat="43.470291486315155" lon="10.690110168930575"><ele>108.42857142857143</ele><time>2026-04-18T15:32:07.001Z</time></trkpt><trkpt lat="43.47021388752384" lon="10.690099349768047"><ele>108.14285714285714</ele><time>2026-04-18T15:32:16.001Z</time></trkpt><trkpt lat="43.470136964578195" lon="10.690158889353876"><ele>107.85714285714286</ele><time>2026-04-18T15:32:20.001Z</time></trkpt><trkpt lat="43.4700745455946" lon="10.690205768362292"><ele>107.57142857142857</ele><time>2026-04-18T15:32:30.001Z</time></trkpt><trkpt lat="43.47002664751237" lon="10.690268756283885"><ele>107.28571428571429</ele><time>2026-04-18T15:32:35.001Z</time></trkpt><trkpt lat="43.46995914387817" lon="10.690295275340318"><ele>107.0</ele><time>2026-04-18T15:32:40.001Z</time></trkpt><trkpt lat="43.4699193434604" lon="10.690363850582035"><ele>106.8</ele><time>2026-04-18T15:32:45.001Z</time></trkpt><trkpt lat="43.469822490302484" lon="10.690521988444686"><ele>106.6</ele><time>2026-04-18T15:32:48.001Z</time></trkpt><trkpt lat="43.46973983143606" lon="10.690521503031556"><ele>106.39999999999999</ele><time>2026-04-18T15:32:51.001Z</time></trkpt><trkpt lat="43.46966864921765" lon="10.690522570368431"><ele>106.19999999999999</ele><time>2026-04-18T15:32:54.001Z</time></trkpt><trkpt lat="43.46973355216223" lon="10.690521597186713"><ele>106.0</ele><time>2026-04-18T15:34:37.001Z</time></trkpt><trkpt lat="43.46988451077809" lon="10.690391434881736"><ele>106.0</ele><time>2026-04-18T15:34:41.001Z</time></trkpt><trkpt lat="43.46993577520213" lon="10.69034030707413"><ele>106.0</ele><time>2026-04-18T15:34:46.001Z</time></trkpt><trkpt lat="43.46999893425675" lon="10.69028458453404"><ele>106.0</ele><time>2026-04-18T15:34:50.001Z</time></trkpt><trkpt lat="43.470062690585024" lon="10.690217652112505"><ele>106.0</ele><time>2026-04-18T15:34:54.001Z</time></trkpt><trkpt lat="43.47012279869355" lon="10.690169528465075"><ele>106.0</ele><time>2026-04-18T15:34:57.001Z</time></trkpt><trkpt lat="43.470180186403894" lon="10.690126428113064"><ele>106.0</ele><time>2026-04-18T15:35:00.001Z</time></trkpt><trkpt lat="43.470247686580365" lon="10.690096857776615"><ele>106.0</ele><time>2026-04-18T15:35:03.001Z</time></trkpt><trkpt lat="43.470316449529285" lon="10.69011074561753"><ele>106.0</ele><time>2026-04-18T15:35:06.001Z</time></trkpt><trkpt lat="43.47038108567608" lon="10.69029481476634"><ele>106.0</ele><time>2026-04-18T15:35:18.001Z</time></trkpt><trkpt lat="43.47041486025408" lon="10.690385155040385"><ele>106.0</ele><time>2026-04-18T15:35:21.001Z</time></trkpt><trkpt lat="43.470486736084915" lon="10.690381922485699"><ele>106.0</ele><time>2026-04-18T15:36:35.001Z</time></trkpt><trkpt lat="43.47054883070589" lon="10.690331667010899"><ele>106.0</ele><time>2026-04-18T15:36:37.001Z</time></trkpt><trkpt lat="43.4706240974529" lon="10.690277401901646"><ele>106.75</ele><time>2026-04-18T15:36:39.001Z</time></trkpt><trkpt lat="43.47069179087437" lon="10.690172350282799"><ele>107.5</ele><time>2026-04-18T15:36:41.001Z</time></trkpt><trkpt lat="43.47076123209229" lon="10.690053555244537"><ele>108.25</ele><time>2026-04-18T15:36:43.001Z</time></trkpt><trkpt lat="43.47083768507111" lon="10.689933767338724"><ele>109.0</ele><time>2026-04-18T15:36:45.001Z</time></trkpt><trkpt lat="43.47093799176019" lon="10.689833573322337"><ele>109.00000000000001</ele><time>2026-04-18T15:36:47.001Z</time></trkpt><trkpt lat="43.471016770391316" lon="10.689743757904163"><ele>109.0</ele><time>2026-04-18T15:36:49.001Z</time></trkpt><trkpt lat="43.47106577228089" lon="10.689675350093665"><ele>109.0</ele><time>2026-04-18T15:36:51.001Z</time></trkpt><trkpt lat="43.47111740163442" lon="10.689600781473212"><ele>109.0</ele><time>2026-04-18T15:36:53.001Z</time></trkpt><trkpt lat="43.47116971051119" lon="10.689522313375484"><ele>109.00000000000001</ele><time>2026-04-18T15:36:55.001Z</time></trkpt><trkpt lat="43.47122679807347" lon="10.689436470607765"><ele>109.0</ele><time>2026-04-18T15:36:57.001Z</time></trkpt><trkpt lat="43.47128223658254" lon="10.689353107513037"><ele>109.0</ele><time>2026-04-18T15:36:59.001Z</time></trkpt><trkpt lat="43.47132968674819" lon="10.68928220250125"><ele>109.0</ele><time>2026-04-18T15:37:01.001Z</time></trkpt><trkpt lat="43.471383517879175" lon="10.689204883553403"><ele>109.0</ele><time>2026-04-18T15:37:03.001Z</time></trkpt><trkpt lat="43.47143227881448" lon="10.689105898605941"><ele>109.0</ele><time>2026-04-18T15:37:05.001Z</time></trkpt><trkpt lat="43.47149744303216" lon="10.689005092650126"><ele>109.0</ele><time>2026-04-18T15:37:07.001Z</time></trkpt><trkpt lat="43.47157889652413" lon="10.688882944402739"><ele>109.00000000000001</ele><time>2026-04-18T15:37:09.001Z</time></trkpt><trkpt lat="43.47162615057183" lon="10.688812155485808"><ele>109.0</ele><time>2026-04-18T15:37:10.001Z</time></trkpt><trkpt lat="43.47168789423333" lon="10.688752506903004"><ele>109.0</ele><time>2026-04-18T15:37:11.001Z</time></trkpt><trkpt lat="43.471740523169814" lon="10.688675712233051"><ele>109.0</ele><time>2026-04-18T15:37:12.001Z</time></trkpt><trkpt lat="43.471785981598366" lon="10.688582940424402"><ele>109.00000000000001</ele><time>2026-04-18T15:37:13.001Z</time></trkpt><trkpt lat="43.471843580781666" lon="10.688502188173166"><ele>109.0</ele><time>2026-04-18T15:37:14.001Z</time></trkpt><trkpt lat="43.4719010669168" lon="10.68841902558853"><ele>109.0</ele><time>2026-04-18T15:37:15.001Z</time></trkpt><trkpt lat="43.47195818434353" lon="10.688335337234841"><ele>109.0</ele><time>2026-04-18T15:37:16.001Z</time></trkpt><trkpt lat="43.47201170387245" lon="10.688254133365529"><ele>109.0</ele><time>2026-04-18T15:37:17.001Z</time></trkpt><trkpt lat="43.47206391871961" lon="10.688178645768987"><ele>109.0</ele><time>2026-04-18T15:37:18.001Z</time></trkpt><trkpt lat="43.47211435167316" lon="10.688105747260394"><ele>109.0</ele><time>2026-04-18T15:37:19.001Z</time></trkpt><trkpt lat="43.472163352486824" lon="10.688035402596702"><ele>109.0</ele><time>2026-04-18T15:37:20.001Z</time></trkpt><trkpt lat="43.47221864880254" lon="10.687989615208322"><ele>109.0</ele><time>2026-04-18T15:37:21.001Z</time></trkpt><trkpt lat="43.47226492444563" lon="10.687919888993564"><ele>109.2</ele><time>2026-04-18T15:37:23.001Z</time></trkpt><trkpt lat="43.47235643463367" lon="10.687996501662333"><ele>109.4</ele><time>2026-04-18T15:37:38.001Z</time></trkpt><trkpt lat="43.47242352199289" lon="10.688139212340777"><ele>109.6</ele><time>2026-04-18T15:37:40.001Z</time></trkpt><trkpt lat="43.47246448219233" lon="10.688228958733092"><ele>109.8</ele><time>2026-04-18T15:37:41.001Z</time></trkpt><trkpt lat="43.472523368888744" lon="10.688322759017742"><ele>110.0</ele><time>2026-04-18T15:37:42.001Z</time></trkpt><trkpt lat="43.47257141782706" lon="10.688442513474145"><ele>110.0</ele><time>2026-04-18T15:37:43.001Z</time></trkpt><trkpt lat="43.47262450596921" lon="10.688573262910177"><ele>110.0</ele><time>2026-04-18T15:37:44.001Z</time></trkpt><trkpt lat="43.47268081915632" lon="10.68871553750949"><ele>110.0</ele><time>2026-04-18T15:37:45.001Z</time></trkpt><trkpt lat="43.47274156147856" lon="10.68886788616509"><ele>110.0</ele><time>2026-04-18T15:37:46.001Z</time></trkpt><trkpt lat="43.47280516288476" lon="10.689028345540663"><ele>109.5</ele><time>2026-04-18T15:37:47.001Z</time></trkpt><trkpt lat="43.47286983267628" lon="10.689196828331882"><ele>109.0</ele><time>2026-04-18T15:37:48.001Z</time></trkpt><trkpt lat="43.47293660907757" lon="10.68936941656092"><ele>108.5</ele><time>2026-04-18T15:37:49.001Z</time></trkpt><trkpt lat="43.473003475374995" lon="10.689545271223253"><ele>108.0</ele><time>2026-04-18T15:37:50.001Z</time></trkpt><trkpt lat="43.47307068891185" lon="10.689723131292155"><ele>108.0</ele><time>2026-04-18T15:37:51.001Z</time></trkpt><trkpt lat="43.47313864206629" lon="10.689902660835097"><ele>108.0</ele><time>2026-04-18T15:37:52.001Z</time></trkpt><trkpt lat="43.473206929535884" lon="10.690082472771344"><ele>108.0</ele><time>2026-04-18T15:37:53.001Z</time></trkpt><trkpt lat="43.473276092420804" lon="10.690263328708202"><ele>108.0</ele><time>2026-04-18T15:37:54.001Z</time></trkpt><trkpt lat="43.473344359797416" lon="10.690446599257497"><ele>108.0</ele><time>2026-04-18T15:37:55.001Z</time></trkpt><trkpt lat="43.473415128827284" lon="10.69062976397183"><ele>108.0</ele><time>2026-04-18T15:37:56.001Z</time></trkpt><trkpt lat="43.47348573825195" lon="10.690814886825292"><ele>108.0</ele><time>2026-04-18T15:37:57.001Z</time></trkpt><trkpt lat="43.4735560802117" lon="10.691001736868795"><ele>108.0</ele><time>2026-04-18T15:37:58.001Z</time></trkpt><trkpt lat="43.473626741941935" lon="10.691189869755107"><ele>108.0</ele><time>2026-04-18T15:37:59.001Z</time></trkpt><trkpt lat="43.47369744453812" lon="10.691378289837598"><ele>108.0</ele><time>2026-04-18T15:38:00.001Z</time></trkpt><trkpt lat="43.47376931673323" lon="10.691565401156906"><ele>108.25</ele><time>2026-04-18T15:38:01.001Z</time></trkpt><trkpt lat="43.47384052754876" lon="10.691749548409831"><ele>108.5</ele><time>2026-04-18T15:38:02.001Z</time></trkpt><trkpt lat="43.47391015856115" lon="10.691932629588141"><ele>108.75</ele><time>2026-04-18T15:38:03.001Z</time></trkpt><trkpt lat="43.473978804095" lon="10.692113319427689"><ele>109.0</ele><time>2026-04-18T15:38:04.001Z</time></trkpt><trkpt lat="43.474046952631475" lon="10.692291771036427"><ele>109.0</ele><time>2026-04-18T15:38:05.001Z</time></trkpt><trkpt lat="43.474115680736546" lon="10.692467181458168"><ele>109.0</ele><time>2026-04-18T15:38:06.001Z</time></trkpt><trkpt lat="43.474183155916506" lon="10.692642008224938"><ele>109.0</ele><time>2026-04-18T15:38:07.001Z</time></trkpt><trkpt lat="43.47425077828997" lon="10.692818114047917"><ele>109.0</ele><time>2026-04-18T15:38:08.001Z</time></trkpt><trkpt lat="43.47430497869491" lon="10.693007439546417"><ele>108.25</ele><time>2026-04-18T15:38:09.001Z</time></trkpt><trkpt lat="43.47437427688105" lon="10.693188975001304"><ele>107.5</ele><time>2026-04-18T15:38:10.001Z</time></trkpt><trkpt lat="43.474458841909346" lon="10.693361106333223"><ele>106.75</ele><time>2026-04-18T15:38:11.001Z</time></trkpt><trkpt lat="43.47452821774349" lon="10.69354268209441"><ele>106.0</ele><time>2026-04-18T15:38:12.001Z</time></trkpt><trkpt lat="43.47459653758343" lon="10.69372236073826"><ele>107.25</ele><time>2026-04-18T15:38:13.001Z</time></trkpt><trkpt lat="43.47466173895266" lon="10.693901135723209"><ele>108.5</ele><time>2026-04-18T15:38:14.001Z</time></trkpt><trkpt lat="43.47472790423231" lon="10.694075902122224"><ele>109.75</ele><time>2026-04-18T15:38:15.001Z</time></trkpt><trkpt lat="43.474796246184134" lon="10.694246137450433"><ele>111.0</ele><time>2026-04-18T15:38:16.001Z</time></trkpt><trkpt lat="43.47486750521149" lon="10.694412184861562"><ele>109.25</ele><time>2026-04-18T15:38:17.001Z</time></trkpt><trkpt lat="43.47494336652124" lon="10.694576691229459"><ele>107.5</ele><time>2026-04-18T15:38:18.001Z</time></trkpt><trkpt lat="43.47502351720966" lon="10.69474130949946"><ele>105.75</ele><time>2026-04-18T15:38:19.001Z</time></trkpt><trkpt lat="43.47510618694183" lon="10.694897206945708"><ele>104.0</ele><time>2026-04-18T15:38:20.001Z</time></trkpt><trkpt lat="43.475199947984734" lon="10.695061198783705"><ele>104.0</ele><time>2026-04-18T15:38:21.001Z</time></trkpt><trkpt lat="43.47529529373766" lon="10.695223415909089"><ele>104.0</ele><time>2026-04-18T15:38:22.001Z</time></trkpt><trkpt lat="43.4753792376467" lon="10.695405123577762"><ele>104.0</ele><time>2026-04-18T15:38:23.001Z</time></trkpt><trkpt lat="43.475487920596784" lon="10.69556335267484"><ele>104.66666666666666</ele><time>2026-04-18T15:38:24.001Z</time></trkpt><trkpt lat="43.47558446256919" lon="10.695737424433476"><ele>105.33333333333334</ele><time>2026-04-18T15:38:25.001Z</time></trkpt><trkpt lat="43.47567066137421" lon="10.69592605496836"><ele>106.0</ele><time>2026-04-18T15:38:26.001Z</time></trkpt><trkpt lat="43.475771045210784" lon="10.696104201979455"><ele>104.66666666666667</ele><time>2026-04-18T15:38:27.001Z</time></trkpt><trkpt lat="43.47587249971536" lon="10.696283804443235"><ele>103.33333333333334</ele><time>2026-04-18T15:38:28.001Z</time></trkpt><trkpt lat="43.47597439681698" lon="10.69646134849014"><ele>102.0</ele><time>2026-04-18T15:38:29.001Z</time></trkpt><trkpt lat="43.47608837748699" lon="10.696626264660981"><ele>102.0</ele><time>2026-04-18T15:38:30.001Z</time></trkpt><trkpt lat="43.4761866393554" lon="10.696804865975993"><ele>102.0</ele><time>2026-04-18T15:38:31.001Z</time></trkpt><trkpt lat="43.47628661522478" lon="10.69697585559916"><ele>102.0</ele><time>2026-04-18T15:38:32.001Z</time></trkpt><trkpt lat="43.47639240038585" lon="10.697136281100128"><ele>101.33333333333334</ele><time>2026-04-18T15:38:33.001Z</time></trkpt><trkpt lat="43.47650231104116" lon="10.697287702173902"><ele>100.66666666666667</ele><time>2026-04-18T15:38:34.001Z</time></trkpt><trkpt lat="43.47661406469742" lon="10.697430978277822"><ele>100.0</ele><time>2026-04-18T15:38:35.001Z</time></trkpt><trkpt lat="43.476726480866034" lon="10.697573871540127"><ele>100.0</ele><time>2026-04-18T15:38:36.001Z</time></trkpt><trkpt lat="43.47682555026587" lon="10.69770621485382"><ele>100.0</ele><time>2026-04-18T15:38:37.001Z</time></trkpt><trkpt lat="43.476925708657234" lon="10.697831496075393"><ele>100.0</ele><time>2026-04-18T15:38:38.001Z</time></trkpt><trkpt lat="43.47701993034894" lon="10.697953916856621"><ele>100.0</ele><time>2026-04-18T15:38:39.001Z</time></trkpt><trkpt lat="43.477109488609784" lon="10.698070422559795"><ele>98.66666666666667</ele><time>2026-04-18T15:38:40.001Z</time></trkpt><trkpt lat="43.47731328783591" lon="10.698326275967926"><ele>97.33333333333334</ele><time>2026-04-18T15:38:42.001Z</time></trkpt><trkpt lat="43.47738320347733" lon="10.698419830475705"><ele>96.0</ele><time>2026-04-18T15:38:43.001Z</time></trkpt><trkpt lat="43.47745077101642" lon="10.69850329143719"><ele>96.0</ele><time>2026-04-18T15:38:44.001Z</time></trkpt><trkpt lat="43.47750345926235" lon="10.698562593528743"><ele>96.0</ele><time>2026-04-18T15:38:45.001Z</time></trkpt><trkpt lat="43.47762630025466" lon="10.698445689321991"><ele>96.0</ele><time>2026-04-18T15:38:48.001Z</time></trkpt><trkpt lat="43.477656546192726" lon="10.698338715503073"><ele>96.0</ele><time>2026-04-18T15:38:49.001Z</time></trkpt><trkpt lat="43.47770879617336" lon="10.698248412388503"><ele>96.0</ele><time>2026-04-18T15:38:50.001Z</time></trkpt><trkpt lat="43.47778938273874" lon="10.698178858262038"><ele>96.0</ele><time>2026-04-18T15:38:51.001Z</time></trkpt><trkpt lat="43.47787741630525" lon="10.698102813120395"><ele>96.0</ele><time>2026-04-18T15:38:52.001Z</time></trkpt><trkpt lat="43.4779743908246" lon="10.698022145823977"><ele>96.0</ele><time>2026-04-18T15:38:53.001Z</time></trkpt><trkpt lat="43.478074993173635" lon="10.697943174981901"><ele>96.0</ele><time>2026-04-18T15:38:54.001Z</time></trkpt><trkpt lat="43.478168125636955" lon="10.697850625396486"><ele>96.0</ele><time>2026-04-18T15:38:55.001Z</time></trkpt><trkpt lat="43.47827541087067" lon="10.697775374468847"><ele>96.5</ele><time>2026-04-18T15:38:56.001Z</time></trkpt><trkpt lat="43.47837827115286" lon="10.697692852906867"><ele>97.0</ele><time>2026-04-18T15:38:57.001Z</time></trkpt><trkpt lat="43.47848762712213" lon="10.697612799027082"><ele>97.5</ele><time>2026-04-18T15:38:58.001Z</time></trkpt><trkpt lat="43.4785921806332" lon="10.697531541078712"><ele>98.0</ele><time>2026-04-18T15:38:59.001Z</time></trkpt><trkpt lat="43.47869407785654" lon="10.697443070913012"><ele>99.2</ele><time>2026-04-18T15:39:00.001Z</time></trkpt><trkpt lat="43.478776435820485" lon="10.697335133666398"><ele>100.4</ele><time>2026-04-18T15:39:01.001Z</time></trkpt><trkpt lat="43.47883547936782" lon="10.697214961644098"><ele>101.60000000000001</ele><time>2026-04-18T15:39:02.001Z</time></trkpt><trkpt lat="43.47886414111968" lon="10.6970639332671"><ele>102.80000000000001</ele><time>2026-04-18T15:39:03.001Z</time></trkpt><trkpt lat="43.478887676566956" lon="10.696911162573095"><ele>104.0</ele><time>2026-04-18T15:39:04.001Z</time></trkpt><trkpt lat="43.47891007184406" lon="10.696754306545898"><ele>104.0</ele><time>2026-04-18T15:39:05.001Z</time></trkpt><trkpt lat="43.478933082376756" lon="10.696592247485086"><ele>104.0</ele><time>2026-04-18T15:39:06.001Z</time></trkpt><trkpt lat="43.47895919929373" lon="10.696428258245884"><ele>104.0</ele><time>2026-04-18T15:39:07.001Z</time></trkpt><trkpt lat="43.47898840999668" lon="10.696262466351971"><ele>104.0</ele><time>2026-04-18T15:39:08.001Z</time></trkpt><trkpt lat="43.47903918214187" lon="10.696104291484357"><ele>104.25</ele><time>2026-04-18T15:39:09.001Z</time></trkpt><trkpt lat="43.479077788748775" lon="10.695940278132396"><ele>104.5</ele><time>2026-04-18T15:39:10.001Z</time></trkpt><trkpt lat="43.47911992875187" lon="10.695773729813943"><ele>104.75</ele><time>2026-04-18T15:39:11.001Z</time></trkpt><trkpt lat="43.479168053657304" lon="10.69560617527689"><ele>105.0</ele><time>2026-04-18T15:39:12.001Z</time></trkpt><trkpt lat="43.4792063892375" lon="10.695428242339615"><ele>105.0</ele><time>2026-04-18T15:39:13.001Z</time></trkpt><trkpt lat="43.479269457740536" lon="10.695261599812447"><ele>105.0</ele><time>2026-04-18T15:39:14.001Z</time></trkpt><trkpt lat="43.479341639779214" lon="10.695098721299756"><ele>105.0</ele><time>2026-04-18T15:39:15.001Z</time></trkpt><trkpt lat="43.4794212909053" lon="10.694935751727051"><ele>105.0</ele><time>2026-04-18T15:39:16.001Z</time></trkpt><trkpt lat="43.479506488222505" lon="10.694778416057366"><ele>105.5</ele><time>2026-04-18T15:39:17.001Z</time></trkpt><trkpt lat="43.479600530153085" lon="10.694631181967155"><ele>106.0</ele><time>2026-04-18T15:39:18.001Z</time></trkpt><trkpt lat="43.479694397430094" lon="10.69448485351182"><ele>106.5</ele><time>2026-04-18T15:39:19.001Z</time></trkpt><trkpt lat="43.47979169034148" lon="10.694342751828646"><ele>107.0</ele><time>2026-04-18T15:39:20.001Z</time></trkpt><trkpt lat="43.47989520717778" lon="10.694211084050313"><ele>107.0</ele><time>2026-04-18T15:39:21.001Z</time></trkpt><trkpt lat="43.47999799041144" lon="10.694090125875286"><ele>107.0</ele><time>2026-04-18T15:39:22.001Z</time></trkpt><trkpt lat="43.48009859105667" lon="10.693985839572745"><ele>107.0</ele><time>2026-04-18T15:39:23.001Z</time></trkpt><trkpt lat="43.480197814578474" lon="10.693905146052623"><ele>107.0</ele><time>2026-04-18T15:39:24.001Z</time></trkpt><trkpt lat="43.48030482829541" lon="10.693848625286346"><ele>107.0</ele><time>2026-04-18T15:39:25.001Z</time></trkpt><trkpt lat="43.4804125938757" lon="10.69380781215878"><ele>106.99999999999999</ele><time>2026-04-18T15:39:26.001Z</time></trkpt><trkpt lat="43.480516113432074" lon="10.693760039399084"><ele>106.99999999999999</ele><time>2026-04-18T15:39:27.001Z</time></trkpt><trkpt lat="43.48060553398956" lon="10.693681475165448"><ele>107.0</ele><time>2026-04-18T15:39:28.001Z</time></trkpt><trkpt lat="43.4806796986454" lon="10.69357276162789"><ele>107.0</ele><time>2026-04-18T15:39:29.001Z</time></trkpt><trkpt lat="43.48073453753126" lon="10.693441020458058"><ele>106.75</ele><time>2026-04-18T15:39:30.001Z</time></trkpt><trkpt lat="43.48078662897947" lon="10.693299300934724"><ele>106.5</ele><time>2026-04-18T15:39:31.001Z</time></trkpt><trkpt lat="43.48084097154023" lon="10.693165315823883"><ele>106.25</ele><time>2026-04-18T15:39:32.001Z</time></trkpt><trkpt lat="43.48089661377259" lon="10.693027009832274"><ele>106.0</ele><time>2026-04-18T15:39:33.001Z</time></trkpt><trkpt lat="43.480944695008674" lon="10.692885636858922"><ele>106.25</ele><time>2026-04-18T15:39:34.001Z</time></trkpt><trkpt lat="43.48098066433886" lon="10.692734145685796"><ele>106.5</ele><time>2026-04-18T15:39:35.001Z</time></trkpt><trkpt lat="43.48100509557526" lon="10.692573064090222"><ele>106.75</ele><time>2026-04-18T15:39:36.001Z</time></trkpt><trkpt lat="43.48102333815238" lon="10.692407279406924"><ele>107.0</ele><time>2026-04-18T15:39:37.001Z</time></trkpt><trkpt lat="43.48104315255789" lon="10.692237946617537"><ele>107.0</ele><time>2026-04-18T15:39:38.001Z</time></trkpt><trkpt lat="43.481067532748014" lon="10.692069958170787"><ele>107.0</ele><time>2026-04-18T15:39:39.001Z</time></trkpt><trkpt lat="43.48109697490429" lon="10.691898821405227"><ele>107.0</ele><time>2026-04-18T15:39:40.001Z</time></trkpt><trkpt lat="43.481144394668775" lon="10.691729178427275"><ele>107.0</ele><time>2026-04-18T15:39:41.001Z</time></trkpt><trkpt lat="43.48116461431623" lon="10.691546428077327"><ele>107.5</ele><time>2026-04-18T15:39:42.001Z</time></trkpt><trkpt lat="43.48120106059889" lon="10.691362507275857"><ele>108.0</ele><time>2026-04-18T15:39:43.001Z</time></trkpt><trkpt lat="43.481235105663934" lon="10.691176766801705"><ele>108.5</ele><time>2026-04-18T15:39:44.001Z</time></trkpt><trkpt lat="43.48127073656228" lon="10.690990483726996"><ele>109.0</ele><time>2026-04-18T15:39:45.001Z</time></trkpt><trkpt lat="43.48130881289808" lon="10.690804134523244"><ele>109.5</ele><time>2026-04-18T15:39:46.001Z</time></trkpt><trkpt lat="43.481343662642544" lon="10.690618013379428"><ele>110.0</ele><time>2026-04-18T15:39:47.001Z</time></trkpt><trkpt lat="43.48137711570948" lon="10.69042923605368"><ele>110.5</ele><time>2026-04-18T15:39:48.001Z</time></trkpt><trkpt lat="43.48140351938989" lon="10.69024256677317"><ele>111.0</ele><time>2026-04-18T15:39:49.001Z</time></trkpt><trkpt lat="43.481421062445655" lon="10.690056842323976"><ele>111.0</ele><time>2026-04-18T15:39:50.001Z</time></trkpt><trkpt lat="43.48142791988869" lon="10.689870925159191"><ele>111.0</ele><time>2026-04-18T15:39:51.001Z</time></trkpt><trkpt lat="43.48142624303793" lon="10.689688038208347"><ele>111.0</ele><time>2026-04-18T15:39:52.001Z</time></trkpt><trkpt lat="43.48141442848981" lon="10.689508594133986"><ele>111.0</ele><time>2026-04-18T15:39:53.001Z</time></trkpt><trkpt lat="43.48139616791276" lon="10.68933302798887"><ele>111.75</ele><time>2026-04-18T15:39:54.001Z</time></trkpt><trkpt lat="43.481379761156575" lon="10.689154469110678"><ele>112.5</ele><time>2026-04-18T15:39:55.001Z</time></trkpt><trkpt lat="43.48136826472436" lon="10.688974660533503"><ele>113.25</ele><time>2026-04-18T15:39:56.001Z</time></trkpt><trkpt lat="43.481353131939315" lon="10.688799581518978"><ele>114.0</ele><time>2026-04-18T15:39:57.001Z</time></trkpt><trkpt lat="43.48134251931815" lon="10.688623614766403"><ele>115.0</ele><time>2026-04-18T15:39:58.001Z</time></trkpt><trkpt lat="43.481330572550036" lon="10.688452128340542"><ele>116.0</ele><time>2026-04-18T15:39:59.001Z</time></trkpt><trkpt lat="43.48131781020776" lon="10.688285695052583"><ele>117.0</ele><time>2026-04-18T15:40:00.001Z</time></trkpt><trkpt lat="43.48131543609853" lon="10.688122146279209"><ele>118.0</ele><time>2026-04-18T15:40:01.001Z</time></trkpt><trkpt lat="43.48132063875407" lon="10.687962730354759"><ele>118.0</ele><time>2026-04-18T15:40:02.001Z</time></trkpt><trkpt lat="43.48133496354853" lon="10.687804361947496"><ele>118.0</ele><time>2026-04-18T15:40:03.001Z</time></trkpt><trkpt lat="43.481354366065915" lon="10.6876485333827"><ele>118.0</ele><time>2026-04-18T15:40:04.001Z</time></trkpt><trkpt lat="43.481381249072136" lon="10.687490679654934"><ele>118.0</ele><time>2026-04-18T15:40:05.001Z</time></trkpt><trkpt lat="43.481406327248266" lon="10.687332857390837"><ele>117.75</ele><time>2026-04-18T15:40:06.001Z</time></trkpt><trkpt lat="43.48143214837551" lon="10.687171542902"><ele>117.5</ele><time>2026-04-18T15:40:07.001Z</time></trkpt><trkpt lat="43.48146372016167" lon="10.687007847686177"><ele>117.25</ele><time>2026-04-18T15:40:08.001Z</time></trkpt><trkpt lat="43.48149434366281" lon="10.686842038257792"><ele>117.0</ele><time>2026-04-18T15:40:09.001Z</time></trkpt><trkpt lat="43.48152191948938" lon="10.686673158355596"><ele>116.25</ele><time>2026-04-18T15:40:10.001Z</time></trkpt><trkpt lat="43.48155129947625" lon="10.68650921618781"><ele>115.5</ele><time>2026-04-18T15:40:11.001Z</time></trkpt><trkpt lat="43.4815847139176" lon="10.686351649499038"><ele>114.75</ele><time>2026-04-18T15:40:12.001Z</time></trkpt><trkpt lat="43.481622203087404" lon="10.686200761819332"><ele>114.0</ele><time>2026-04-18T15:40:13.001Z</time></trkpt><trkpt lat="43.48166130048726" lon="10.68605629133473"><ele>113.80000000000001</ele><time>2026-04-18T15:40:14.001Z</time></trkpt><trkpt lat="43.48169683513103" lon="10.685912108879393"><ele>113.60000000000001</ele><time>2026-04-18T15:40:15.001Z</time></trkpt><trkpt lat="43.48171999880796" lon="10.685764215113474"><ele>113.4</ele><time>2026-04-18T15:40:16.001Z</time></trkpt><trkpt lat="43.48172458878598" lon="10.685610925878418"><ele>113.2</ele><time>2026-04-18T15:40:17.001Z</time></trkpt><trkpt lat="43.4817085793781" lon="10.685455682299386"><ele>113.0</ele><time>2026-04-18T15:40:18.001Z</time></trkpt><trkpt lat="43.48168595117596" lon="10.685297230451708"><ele>113.5</ele><time>2026-04-18T15:40:19.001Z</time></trkpt><trkpt lat="43.481661617726076" lon="10.68514022093823"><ele>114.0</ele><time>2026-04-18T15:40:20.001Z</time></trkpt><trkpt lat="43.48163774021889" lon="10.684982185470323"><ele>114.5</ele><time>2026-04-18T15:40:21.001Z</time></trkpt><trkpt lat="43.48161474490174" lon="10.684830694768335"><ele>115.0</ele><time>2026-04-18T15:40:22.001Z</time></trkpt><trkpt lat="43.481602831334136" lon="10.684675320248708"><ele>115.0</ele><time>2026-04-18T15:40:23.001Z</time></trkpt><trkpt lat="43.48157481175863" lon="10.684523309143541"><ele>115.0</ele><time>2026-04-18T15:40:24.001Z</time></trkpt><trkpt lat="43.48154233830278" lon="10.684373182096687"><ele>115.0</ele><time>2026-04-18T15:40:25.001Z</time></trkpt><trkpt lat="43.48149214046427" lon="10.684229440158223"><ele>115.0</ele><time>2026-04-18T15:40:26Z</time></trkpt><trkpt lat="43.481449350737975" lon="10.684081140682936"><ele>115.25</ele><time>2026-04-18T15:40:27Z</time></trkpt><trkpt lat="43.48139794405937" lon="10.683936876282425"><ele>115.5</ele><time>2026-04-18T15:40:28Z</time></trkpt><trkpt lat="43.481338696557835" lon="10.683797750420121"><ele>115.75</ele><time>2026-04-18T15:40:29Z</time></trkpt><trkpt lat="43.481280245252826" lon="10.683660163833787"><ele>116.0</ele><time>2026-04-18T15:40:30Z</time></trkpt><trkpt lat="43.481228073192945" lon="10.683522437899875"><ele>116.0</ele><time>2026-04-18T15:40:31Z</time></trkpt><trkpt lat="43.48118166892436" lon="10.683385560536067"><ele>116.0</ele><time>2026-04-18T15:40:32Z</time></trkpt><trkpt lat="43.48114364683366" lon="10.683239024975261"><ele>116.0</ele><time>2026-04-18T15:40:33Z</time></trkpt><trkpt lat="43.481125345144314" lon="10.683086057357817"><ele>116.0</ele><time>2026-04-18T15:40:34Z</time></trkpt><trkpt lat="43.48113930032269" lon="10.682920212395112"><ele>116.5</ele><time>2026-04-18T15:40:35Z</time></trkpt><trkpt lat="43.48115051673135" lon="10.682755426920506"><ele>117.0</ele><time>2026-04-18T15:40:36Z</time></trkpt><trkpt lat="43.481162209144216" lon="10.682578186993632"><ele>117.5</ele><time>2026-04-18T15:40:37Z</time></trkpt><trkpt lat="43.48117346496063" lon="10.682391957571182"><ele>118.0</ele><time>2026-04-18T15:40:38Z</time></trkpt><trkpt lat="43.48117155424656" lon="10.682199906829071"><ele>118.0</ele><time>2026-04-18T15:40:39Z</time></trkpt><trkpt lat="43.48118523618109" lon="10.682014298799414"><ele>118.0</ele><time>2026-04-18T15:40:40Z</time></trkpt><trkpt lat="43.481197192274195" lon="10.681830131805873"><ele>118.0</ele><time>2026-04-18T15:40:41Z</time></trkpt><trkpt lat="43.481211068362015" lon="10.681649035945465"><ele>118.0</ele><time>2026-04-18T15:40:42Z</time></trkpt><trkpt lat="43.48122334909912" lon="10.681468784536513"><ele>118.25</ele><time>2026-04-18T15:40:43Z</time></trkpt><trkpt lat="43.48123681682768" lon="10.681292016292414"><ele>118.5</ele><time>2026-04-18T15:40:44Z</time></trkpt><trkpt lat="43.48124858710097" lon="10.681114982000958"><ele>118.75</ele><time>2026-04-18T15:40:45Z</time></trkpt><trkpt lat="43.481260144133245" lon="10.680938308361972"><ele>119.0</ele><time>2026-04-18T15:40:46Z</time></trkpt><trkpt lat="43.481270317309075" lon="10.680759286688563"><ele>119.0</ele><time>2026-04-18T15:40:47Z</time></trkpt><trkpt lat="43.481280005086745" lon="10.680582786362288"><ele>119.0</ele><time>2026-04-18T15:40:48Z</time></trkpt><trkpt lat="43.481295189009835" lon="10.680389901483379"><ele>119.0</ele><time>2026-04-18T15:40:49Z</time></trkpt><trkpt lat="43.48129863740107" lon="10.680192767572425"><ele>119.0</ele><time>2026-04-18T15:40:50Z</time></trkpt><trkpt lat="43.4813103043554" lon="10.679997955372679"><ele>119.5</ele><time>2026-04-18T15:40:51Z</time></trkpt><trkpt lat="43.48132284336501" lon="10.679801784855645"><ele>120.0</ele><time>2026-04-18T15:40:52Z</time></trkpt><trkpt lat="43.48133419591607" lon="10.679606385233884"><ele>120.5</ele><time>2026-04-18T15:40:53Z</time></trkpt><trkpt lat="43.481342667318515" lon="10.679415212614126"><ele>121.0</ele><time>2026-04-18T15:40:54Z</time></trkpt><trkpt lat="43.48135103015435" lon="10.679225584886689"><ele>121.5</ele><time>2026-04-18T15:40:55Z</time></trkpt><trkpt lat="43.481359942105044" lon="10.679038673966213"><ele>122.0</ele><time>2026-04-18T15:40:56Z</time></trkpt><trkpt lat="43.481370849617946" lon="10.67885107387924"><ele>122.5</ele><time>2026-04-18T15:40:57Z</time></trkpt><trkpt lat="43.481378894150545" lon="10.678668350948277"><ele>123.0</ele><time>2026-04-18T15:40:58Z</time></trkpt><trkpt lat="43.48139005380998" lon="10.678486184746697"><ele>123.5</ele><time>2026-04-18T15:40:59Z</time></trkpt><trkpt lat="43.481405356422506" lon="10.678307059878444"><ele>124.0</ele><time>2026-04-18T15:41:00Z</time></trkpt><trkpt lat="43.4814342056464" lon="10.67813193604487"><ele>124.5</ele><time>2026-04-18T15:41:01Z</time></trkpt><trkpt lat="43.48147149412755" lon="10.677954175301668"><ele>125.0</ele><time>2026-04-18T15:41:02Z</time></trkpt><trkpt lat="43.481513012580216" lon="10.677777363164505"><ele>125.5</ele><time>2026-04-18T15:41:03Z</time></trkpt><trkpt lat="43.48156357116314" lon="10.67759848047704"><ele>126.0</ele><time>2026-04-18T15:41:04Z</time></trkpt><trkpt lat="43.481617369509216" lon="10.677417396867884"><ele>126.5</ele><time>2026-04-18T15:41:05Z</time></trkpt><trkpt lat="43.48167254134947" lon="10.67724141232103"><ele>127.0</ele><time>2026-04-18T15:41:06Z</time></trkpt><trkpt lat="43.481725665130234" lon="10.6770661021158"><ele>127.75</ele><time>2026-04-18T15:41:07Z</time></trkpt><trkpt lat="43.48177897745604" lon="10.676891346247311"><ele>128.5</ele><time>2026-04-18T15:41:08Z</time></trkpt><trkpt lat="43.48183248417678" lon="10.67671715162468"><ele>129.25</ele><time>2026-04-18T15:41:09Z</time></trkpt><trkpt lat="43.48188532560206" lon="10.676548066107637"><ele>130.0</ele><time>2026-04-18T15:41:10Z</time></trkpt><trkpt lat="43.481936545535724" lon="10.676378754754273"><ele>130.0</ele><time>2026-04-18T15:41:11Z</time></trkpt><trkpt lat="43.48198160976316" lon="10.67620726920193"><ele>130.0</ele><time>2026-04-18T15:41:12Z</time></trkpt><trkpt lat="43.48204915800216" lon="10.676047368164568"><ele>130.0</ele><time>2026-04-18T15:41:13Z</time></trkpt><trkpt lat="43.48208903088776" lon="10.675870681524486"><ele>130.0</ele><time>2026-04-18T15:41:14Z</time></trkpt><trkpt lat="43.482144894483774" lon="10.675700850016318"><ele>131.0</ele><time>2026-04-18T15:41:15Z</time></trkpt><trkpt lat="43.48221281944181" lon="10.675540680492999"><ele>132.0</ele><time>2026-04-18T15:41:16Z</time></trkpt><trkpt lat="43.48224975190737" lon="10.67536121894268"><ele>133.0</ele><time>2026-04-18T15:41:17Z</time></trkpt><trkpt lat="43.4822960728629" lon="10.675191881193024"><ele>134.0</ele><time>2026-04-18T15:41:18Z</time></trkpt><trkpt lat="43.48233483233627" lon="10.675020627658544"><ele>134.6</ele><time>2026-04-18T15:41:19Z</time></trkpt><trkpt lat="43.482356230175164" lon="10.674849679111148"><ele>135.2</ele><time>2026-04-18T15:41:20Z</time></trkpt><trkpt lat="43.48236676013258" lon="10.674698285190791"><ele>135.79999999999998</ele><time>2026-04-18T15:41:21Z</time></trkpt><trkpt lat="43.482366437555314" lon="10.674559891873201"><ele>136.4</ele><time>2026-04-18T15:41:22Z</time></trkpt><trkpt lat="43.48235341891045" lon="10.674419756293362"><ele>137.0</ele><time>2026-04-18T15:41:23Z</time></trkpt><trkpt lat="43.48232556135239" lon="10.67427747819325"><ele>137.0</ele><time>2026-04-18T15:41:24Z</time></trkpt><trkpt lat="43.48228517694401" lon="10.674142078461545"><ele>137.0</ele><time>2026-04-18T15:41:25Z</time></trkpt><trkpt lat="43.482247196231626" lon="10.674032109253169"><ele>137.0</ele><time>2026-04-18T15:41:26Z</time></trkpt><trkpt lat="43.48221567418908" lon="10.673941687832798"><ele>137.0</ele><time>2026-04-18T15:41:27Z</time></trkpt><trkpt lat="43.48218382963179" lon="10.67378208818838"><ele>137.0</ele><time>2026-04-18T15:41:29Z</time></trkpt><trkpt lat="43.48200040382611" lon="10.673766957892289"><ele>137.0</ele><time>2026-04-18T15:41:31Z</time></trkpt><trkpt lat="43.481920111707666" lon="10.673763495164344"><ele>137.0</ele><time>2026-04-18T15:41:32Z</time></trkpt><trkpt lat="43.481833750081805" lon="10.673753668824768"><ele>137.0</ele><time>2026-04-18T15:41:33Z</time></trkpt><trkpt lat="43.481745366098814" lon="10.673710925977094"><ele>137.0</ele><time>2026-04-18T15:41:34Z</time></trkpt><trkpt lat="43.48165798179785" lon="10.67367163026263"><ele>137.0</ele><time>2026-04-18T15:41:35Z</time></trkpt><trkpt lat="43.48158088257468" lon="10.673605321883693"><ele>137.0</ele><time>2026-04-18T15:41:36Z</time></trkpt><trkpt lat="43.48152318133533" lon="10.673509869113389"><ele>137.0</ele><time>2026-04-18T15:41:37Z</time></trkpt><trkpt lat="43.48147168358413" lon="10.673401944912758"><ele>137.0</ele><time>2026-04-18T15:41:38Z</time></trkpt><trkpt lat="43.481422251283" lon="10.673284545841188"><ele>137.0</ele><time>2026-04-18T15:41:39Z</time></trkpt><trkpt lat="43.48138033412595" lon="10.673161735740871"><ele>137.0</ele><time>2026-04-18T15:41:40Z</time></trkpt><trkpt lat="43.48133790685099" lon="10.673035477059296"><ele>137.0</ele><time>2026-04-18T15:41:41Z</time></trkpt><trkpt lat="43.48129331693119" lon="10.672908384324039"><ele>137.79999999999998</ele><time>2026-04-18T15:41:42Z</time></trkpt><trkpt lat="43.48123562891601" lon="10.672790320142502"><ele>138.6</ele><time>2026-04-18T15:41:43Z</time></trkpt><trkpt lat="43.48120916070579" lon="10.672649316842923"><ele>139.39999999999998</ele><time>2026-04-18T15:41:44Z</time></trkpt><trkpt lat="43.48117490934952" lon="10.672510394222936"><ele>140.2</ele><time>2026-04-18T15:41:45Z</time></trkpt><trkpt lat="43.48114156229437" lon="10.67236877922427"><ele>141.0</ele><time>2026-04-18T15:41:46Z</time></trkpt><trkpt lat="43.48110848727126" lon="10.672226306518372"><ele>141.6</ele><time>2026-04-18T15:41:47Z</time></trkpt><trkpt lat="43.481075438225865" lon="10.672083945771154"><ele>142.2</ele><time>2026-04-18T15:41:48Z</time></trkpt><trkpt lat="43.4810431166377" lon="10.671944718542871"><ele>142.8</ele><time>2026-04-18T15:41:49Z</time></trkpt><trkpt lat="43.48100986045717" lon="10.671810309910832"><ele>143.4</ele><time>2026-04-18T15:41:50Z</time></trkpt><trkpt lat="43.48097755664574" lon="10.671679724676252"><ele>144.0</ele><time>2026-04-18T15:41:51Z</time></trkpt><trkpt lat="43.48094659314189" lon="10.671553075029886"><ele>145.33333333333334</ele><time>2026-04-18T15:41:52Z</time></trkpt><trkpt lat="43.48091773503659" lon="10.671429859753854"><ele>146.66666666666666</ele><time>2026-04-18T15:41:53Z</time></trkpt><trkpt lat="43.480891407456724" lon="10.67131001713841"><ele>148.0</ele><time>2026-04-18T15:41:54Z</time></trkpt><trkpt lat="43.48086920764237" lon="10.671196026633677"><ele>149.33333333333331</ele><time>2026-04-18T15:41:55Z</time></trkpt><trkpt lat="43.480860128311186" lon="10.671098097591251"><ele>150.66666666666666</ele><time>2026-04-18T15:41:56Z</time></trkpt><trkpt lat="43.480869765931615" lon="10.67100654167704"><ele>152.0</ele><time>2026-04-18T15:41:57Z</time></trkpt><trkpt lat="43.48089073285984" lon="10.670916956631558"><ele>153.33333333333331</ele><time>2026-04-18T15:41:58Z</time></trkpt><trkpt lat="43.48091114747275" lon="10.67082167831178"><ele>154.66666666666666</ele><time>2026-04-18T15:41:59Z</time></trkpt><trkpt lat="43.48093338295132" lon="10.670721661183643"><ele>156.0</ele><time>2026-04-18T15:42:00Z</time></trkpt><trkpt lat="43.48095263778426" lon="10.670615944683963"><ele>157.33333333333334</ele><time>2026-04-18T15:42:01Z</time></trkpt><trkpt lat="43.48094433530723" lon="10.670503078739555"><ele>158.66666666666669</ele><time>2026-04-18T15:42:02Z</time></trkpt><trkpt lat="43.48094744284849" lon="10.670389985401764"><ele>160.0</ele><time>2026-04-18T15:42:03Z</time></trkpt><trkpt lat="43.48089741764194" lon="10.670289353412622"><ele>159.6</ele><time>2026-04-18T15:42:04Z</time></trkpt><trkpt lat="43.48086650295785" lon="10.670178470193932"><ele>159.2</ele><time>2026-04-18T15:42:05Z</time></trkpt><trkpt lat="43.48080719575787" lon="10.670082077270784"><ele>158.8</ele><time>2026-04-18T15:42:06Z</time></trkpt><trkpt lat="43.48074317056195" lon="10.669981953531698"><ele>158.4</ele><time>2026-04-18T15:42:07Z</time></trkpt><trkpt lat="43.48067241737053" lon="10.66987677987269"><ele>158.0</ele><time>2026-04-18T15:42:08Z</time></trkpt><trkpt lat="43.48060140042894" lon="10.669766563967277"><ele>158.0</ele><time>2026-04-18T15:42:09Z</time></trkpt><trkpt lat="43.48052775050983" lon="10.669647310529156"><ele>158.0</ele><time>2026-04-18T15:42:10Z</time></trkpt><trkpt lat="43.48044999778084" lon="10.669521413860965"><ele>158.0</ele><time>2026-04-18T15:42:11Z</time></trkpt><trkpt lat="43.480368277435694" lon="10.669389092828673"><ele>158.0</ele><time>2026-04-18T15:42:12Z</time></trkpt><trkpt lat="43.480274234867416" lon="10.669268203315127"><ele>157.25</ele><time>2026-04-18T15:42:13Z</time></trkpt><trkpt lat="43.48020371383285" lon="10.669119484512578"><ele>156.5</ele><time>2026-04-18T15:42:14Z</time></trkpt><trkpt lat="43.48012740941431" lon="10.668985141116062"><ele>155.75</ele><time>2026-04-18T15:42:15Z</time></trkpt><trkpt lat="43.4800587475925" lon="10.668852316723369"><ele>155.0</ele><time>2026-04-18T15:42:16Z</time></trkpt><trkpt lat="43.479997112407936" lon="10.668721357235075"><ele>154.0</ele><time>2026-04-18T15:42:17Z</time></trkpt><trkpt lat="43.47994246158582" lon="10.668599930317955"><ele>153.0</ele><time>2026-04-18T15:42:18Z</time></trkpt><trkpt lat="43.479883556855576" lon="10.668487287242135"><ele>152.0</ele><time>2026-04-18T15:42:19Z</time></trkpt><trkpt lat="43.47982367750225" lon="10.66838895377414"><ele>151.0</ele><time>2026-04-18T15:42:20Z</time></trkpt><trkpt lat="43.47976548057135" lon="10.668323069925513"><ele>150.0</ele><time>2026-04-18T15:42:21Z</time></trkpt><trkpt lat="43.4796959854903" lon="10.66828251977194"><ele>149.0</ele><time>2026-04-18T15:42:22Z</time></trkpt><trkpt lat="43.47962175524171" lon="10.668267779802187"><ele>150.16666666666666</ele><time>2026-04-18T15:42:23Z</time></trkpt><trkpt lat="43.47954980536353" lon="10.668277145145993"><ele>151.33333333333331</ele><time>2026-04-18T15:42:24Z</time></trkpt><trkpt lat="43.479481035801584" lon="10.668307850291878"><ele>152.5</ele><time>2026-04-18T15:42:25Z</time></trkpt><trkpt lat="43.479414773256835" lon="10.668346881001645"><ele>153.66666666666666</ele><time>2026-04-18T15:42:26Z</time></trkpt><trkpt lat="43.47935765723598" lon="10.6683898479744"><ele>154.83333333333334</ele><time>2026-04-18T15:42:27Z</time></trkpt><trkpt lat="43.47925559921412" lon="10.668474943214093"><ele>156.0</ele><time>2026-04-18T15:42:29Z</time></trkpt><trkpt lat="43.479197115140416" lon="10.66851487312373"><ele>156.0</ele><time>2026-04-18T15:42:30Z</time></trkpt><trkpt lat="43.47913306560298" lon="10.668546233610753"><ele>156.0</ele><time>2026-04-18T15:42:31Z</time></trkpt><trkpt lat="43.4790220008019" lon="10.668565089423456"><ele>156.0</ele><time>2026-04-18T15:42:32.999Z</time></trkpt><trkpt lat="43.47888895625633" lon="10.668554299410717"><ele>156.0</ele><time>2026-04-18T15:42:34.999Z</time></trkpt><trkpt lat="43.47881461382468" lon="10.668543405362957"><ele>156.0</ele><time>2026-04-18T15:42:35.999Z</time></trkpt><trkpt lat="43.47873406975717" lon="10.66852641108869"><ele>156.0</ele><time>2026-04-18T15:42:36.999Z</time></trkpt><trkpt lat="43.478648536162105" lon="10.668502063032467"><ele>156.0</ele><time>2026-04-18T15:42:37.999Z</time></trkpt><trkpt lat="43.478553739664186" lon="10.668477214951663"><ele>156.0</ele><time>2026-04-18T15:42:38.999Z</time></trkpt><trkpt lat="43.47845504461112" lon="10.668449034437367"><ele>156.0</ele><time>2026-04-18T15:42:39.999Z</time></trkpt><trkpt lat="43.47835043317917" lon="10.668417036455486"><ele>156.0</ele><time>2026-04-18T15:42:40.999Z</time></trkpt><trkpt lat="43.478241770135895" lon="10.668383092119642"><ele>156.0</ele><time>2026-04-18T15:42:41.999Z</time></trkpt><trkpt lat="43.478136123384104" lon="10.668350213493447"><ele>156.0</ele><time>2026-04-18T15:42:42.999Z</time></trkpt><trkpt lat="43.47803257967477" lon="10.668328255788154"><ele>156.0</ele><time>2026-04-18T15:42:43.999Z</time></trkpt><trkpt lat="43.477928500082406" lon="10.668320738750063"><ele>156.0</ele><time>2026-04-18T15:42:44.999Z</time></trkpt><trkpt lat="43.47782629888816" lon="10.668329568978423"><ele>156.0</ele><time>2026-04-18T15:42:45.999Z</time></trkpt><trkpt lat="43.47772829284775" lon="10.668346258833147"><ele>156.6</ele><time>2026-04-18T15:42:46.999Z</time></trkpt><trkpt lat="43.477628453500365" lon="10.668368026755607"><ele>157.2</ele><time>2026-04-18T15:42:47.999Z</time></trkpt><trkpt lat="43.47752828985578" lon="10.668392106608778"><ele>157.8</ele><time>2026-04-18T15:42:48.999Z</time></trkpt><trkpt lat="43.477425637185014" lon="10.668417496048853"><ele>158.4</ele><time>2026-04-18T15:42:49.999Z</time></trkpt><trkpt lat="43.477319373823676" lon="10.668436078962502"><ele>159.0</ele><time>2026-04-18T15:42:50.999Z</time></trkpt><trkpt lat="43.477207505855475" lon="10.668458913653048"><ele>158.25</ele><time>2026-04-18T15:42:51.999Z</time></trkpt><trkpt lat="43.47709135321908" lon="10.66848639450218"><ele>157.5</ele><time>2026-04-18T15:42:52.999Z</time></trkpt><trkpt lat="43.47697151221183" lon="10.668523112850743"><ele>156.75</ele><time>2026-04-18T15:42:53.999Z</time></trkpt><trkpt lat="43.476848949117546" lon="10.66856129775362"><ele>156.0</ele><time>2026-04-18T15:42:54.999Z</time></trkpt><trkpt lat="43.47672388898992" lon="10.668599761446167"><ele>156.0</ele><time>2026-04-18T15:42:56Z</time></trkpt><trkpt lat="43.47659819440347" lon="10.66864004231595"><ele>156.0</ele><time>2026-04-18T15:42:57Z</time></trkpt><trkpt lat="43.47647447452385" lon="10.668673512304514"><ele>156.0</ele><time>2026-04-18T15:42:58Z</time></trkpt><trkpt lat="43.47635135882503" lon="10.668709844430913"><ele>156.0</ele><time>2026-04-18T15:42:59Z</time></trkpt><trkpt lat="43.47622959088103" lon="10.668748297541066"><ele>156.0</ele><time>2026-04-18T15:43:00Z</time></trkpt><trkpt lat="43.476109577685406" lon="10.668782846500825"><ele>156.0</ele><time>2026-04-18T15:43:01Z</time></trkpt><trkpt lat="43.47599102004697" lon="10.668817305266103"><ele>156.0</ele><time>2026-04-18T15:43:02Z</time></trkpt><trkpt lat="43.475874244899025" lon="10.668851025172534"><ele>156.0</ele><time>2026-04-18T15:43:03Z</time></trkpt><trkpt lat="43.475759281869394" lon="10.66888848512365"><ele>156.0</ele><time>2026-04-18T15:43:04Z</time></trkpt><trkpt lat="43.47564617279378" lon="10.668925259139092"><ele>156.0</ele><time>2026-04-18T15:43:05Z</time></trkpt><trkpt lat="43.4755351377247" lon="10.66895004316276"><ele>156.0</ele><time>2026-04-18T15:43:06Z</time></trkpt><trkpt lat="43.475423689960664" lon="10.668956911967932"><ele>156.0</ele><time>2026-04-18T15:43:07Z</time></trkpt><trkpt lat="43.475317915542476" lon="10.66893265726545"><ele>156.0</ele><time>2026-04-18T15:43:08Z</time></trkpt><trkpt lat="43.47521728821777" lon="10.668892657295245"><ele>158.0</ele><time>2026-04-18T15:43:09Z</time></trkpt><trkpt lat="43.47515139966056" lon="10.668794532893441"><ele>160.0</ele><time>2026-04-18T15:43:10Z</time></trkpt><trkpt lat="43.47508714580562" lon="10.66871353021115"><ele>162.0</ele><time>2026-04-18T15:43:11Z</time></trkpt><trkpt lat="43.47496482809931" lon="10.66856400982219"><ele>164.0</ele><time>2026-04-18T15:43:13Z</time></trkpt><trkpt lat="43.47489740434636" lon="10.668500763556354"><ele>166.0</ele><time>2026-04-18T15:43:14Z</time></trkpt><trkpt lat="43.47482723653497" lon="10.668449237002658"><ele>166.0</ele><time>2026-04-18T15:43:15Z</time></trkpt><trkpt lat="43.47475068379488" lon="10.668405791150647"><ele>166.0</ele><time>2026-04-18T15:43:16Z</time></trkpt><trkpt lat="43.474670945470926" lon="10.66836651537675"><ele>166.0</ele><time>2026-04-18T15:43:17Z</time></trkpt><trkpt lat="43.47458816246732" lon="10.66832655864509"><ele>166.0</ele><time>2026-04-18T15:43:18Z</time></trkpt><trkpt lat="43.47449994098956" lon="10.66828754912205"><ele>166.0</ele><time>2026-04-18T15:43:19Z</time></trkpt><trkpt lat="43.474409718780315" lon="10.668248789424956"><ele>166.0</ele><time>2026-04-18T15:43:20Z</time></trkpt><trkpt lat="43.474319673506955" lon="10.668211484948152"><ele>166.83333333333334</ele><time>2026-04-18T15:43:21Z</time></trkpt><trkpt lat="43.47423115703082" lon="10.668174813840588"><ele>167.66666666666669</ele><time>2026-04-18T15:43:22Z</time></trkpt><trkpt lat="43.47414995842981" lon="10.668139624683214"><ele>168.5</ele><time>2026-04-18T15:43:23Z</time></trkpt><trkpt lat="43.474071127804464" lon="10.668122222357026"><ele>169.33333333333334</ele><time>2026-04-18T15:43:24Z</time></trkpt><trkpt lat="43.47400081189019" lon="10.668087190458477"><ele>170.16666666666666</ele><time>2026-04-18T15:43:25Z</time></trkpt><trkpt lat="43.47393293740656" lon="10.668062826459233"><ele>171.0</ele><time>2026-04-18T15:43:26Z</time></trkpt><trkpt lat="43.473870078692016" lon="10.668034165647493"><ele>170.99999999999997</ele><time>2026-04-18T15:43:27Z</time></trkpt><trkpt lat="43.47380831070005" lon="10.668004619577463"><ele>171.0</ele><time>2026-04-18T15:43:28Z</time></trkpt><trkpt lat="43.473753037159966" lon="10.667954682452184"><ele>171.0</ele><time>2026-04-18T15:43:29Z</time></trkpt><trkpt lat="43.47369264752071" lon="10.667925316330829"><ele>171.0</ele><time>2026-04-18T15:43:30Z</time></trkpt><trkpt lat="43.47362704923056" lon="10.667914766631473"><ele>171.0</ele><time>2026-04-18T15:43:31Z</time></trkpt><trkpt lat="43.47356580510227" lon="10.667885668413785"><ele>170.99999999999997</ele><time>2026-04-18T15:43:32Z</time></trkpt><trkpt lat="43.47350140775247" lon="10.667848461920846"><ele>171.0</ele><time>2026-04-18T15:43:33Z</time></trkpt><trkpt lat="43.47343592852484" lon="10.66780632143186"><ele>172.28571428571428</ele><time>2026-04-18T15:43:34Z</time></trkpt><trkpt lat="43.473375146223354" lon="10.667753788019828"><ele>173.57142857142856</ele><time>2026-04-18T15:43:35Z</time></trkpt><trkpt lat="43.47331158396826" lon="10.667709618609063"><ele>174.85714285714283</ele><time>2026-04-18T15:43:36Z</time></trkpt><trkpt lat="43.473248510231485" lon="10.667658584929194"><ele>176.14285714285714</ele><time>2026-04-18T15:43:37Z</time></trkpt><trkpt lat="43.473195872804965" lon="10.667595658530002"><ele>177.42857142857144</ele><time>2026-04-18T15:43:38Z</time></trkpt><trkpt lat="43.47315182273174" lon="10.667526679890024"><ele>178.7142857142857</ele><time>2026-04-18T15:43:39Z</time></trkpt><trkpt lat="43.47311769655103" lon="10.667452129474201"><ele>180.0</ele><time>2026-04-18T15:43:40Z</time></trkpt><trkpt lat="43.47308391292093" lon="10.667373104569524"><ele>180.0</ele><time>2026-04-18T15:43:41Z</time></trkpt><trkpt lat="43.473046552125744" lon="10.667294642638984"><ele>180.0</ele><time>2026-04-18T15:43:42Z</time></trkpt><trkpt lat="43.47299683128248" lon="10.667226158518748"><ele>180.0</ele><time>2026-04-18T15:43:43Z</time></trkpt><trkpt lat="43.47295929481175" lon="10.667146408668938"><ele>180.0</ele><time>2026-04-18T15:43:44Z</time></trkpt><trkpt lat="43.47291446701747" lon="10.667064014970334"><ele>180.0</ele><time>2026-04-18T15:43:45Z</time></trkpt><trkpt lat="43.47287564554232" lon="10.666969879059994"><ele>180.0</ele><time>2026-04-18T15:43:46Z</time></trkpt><trkpt lat="43.47280834341486" lon="10.666914337261264"><ele>180.0</ele><time>2026-04-18T15:43:47Z</time></trkpt><trkpt lat="43.47274928954282" lon="10.666829581744931"><ele>181.4</ele><time>2026-04-18T15:43:48Z</time></trkpt><trkpt lat="43.47267028565664" lon="10.66675921098003"><ele>182.8</ele><time>2026-04-18T15:43:49Z</time></trkpt><trkpt lat="43.47258396734009" lon="10.66668815487651"><ele>184.2</ele><time>2026-04-18T15:43:50Z</time></trkpt><trkpt lat="43.47249214749946" lon="10.66661205177583"><ele>185.6</ele><time>2026-04-18T15:43:51Z</time></trkpt><trkpt lat="43.47239637444994" lon="10.666541451911709"><ele>187.0</ele><time>2026-04-18T15:43:52Z</time></trkpt><trkpt lat="43.47229859855727" lon="10.666471543288507"><ele>187.0</ele><time>2026-04-18T15:43:53Z</time></trkpt><trkpt lat="43.472201632455686" lon="10.66640072986703"><ele>187.0</ele><time>2026-04-18T15:43:54Z</time></trkpt><trkpt lat="43.47210407213146" lon="10.666326123641367"><ele>187.0</ele><time>2026-04-18T15:43:55Z</time></trkpt><trkpt lat="43.47200612916752" lon="10.66625122464372"><ele>187.0</ele><time>2026-04-18T15:43:56Z</time></trkpt><trkpt lat="43.47190829040817" lon="10.666176405431253"><ele>187.0</ele><time>2026-04-18T15:43:57Z</time></trkpt><trkpt lat="43.47181111626825" lon="10.666102094438507"><ele>188.25</ele><time>2026-04-18T15:43:58Z</time></trkpt><trkpt lat="43.47171390215189" lon="10.666026705526383"><ele>189.5</ele><time>2026-04-18T15:43:59Z</time></trkpt><trkpt lat="43.471616244990315" lon="10.665950886687964"><ele>190.75</ele><time>2026-04-18T15:44:00Z</time></trkpt><trkpt lat="43.471516579367574" lon="10.665873510128312"><ele>192.0</ele><time>2026-04-18T15:44:01Z</time></trkpt><trkpt lat="43.47141566496812" lon="10.6657951624327"><ele>192.0</ele><time>2026-04-18T15:44:02Z</time></trkpt><trkpt lat="43.47131401261967" lon="10.665716329457064"><ele>192.0</ele><time>2026-04-18T15:44:03Z</time></trkpt><trkpt lat="43.47121130358432" lon="10.665637005119306"><ele>192.0</ele><time>2026-04-18T15:44:04Z</time></trkpt><trkpt lat="43.47111193018491" lon="10.665560257367797"><ele>192.0</ele><time>2026-04-18T15:44:05Z</time></trkpt><trkpt lat="43.471017743926545" lon="10.665487515405815"><ele>192.39999999999998</ele><time>2026-04-18T15:44:06Z</time></trkpt><trkpt lat="43.4709316721281" lon="10.665422553126161"><ele>192.79999999999998</ele><time>2026-04-18T15:44:07Z</time></trkpt><trkpt lat="43.47085623218516" lon="10.665368237389545"><ele>193.2</ele><time>2026-04-18T15:44:08Z</time></trkpt><trkpt lat="43.470790590907534" lon="10.665318963294133"><ele>193.6</ele><time>2026-04-18T15:44:09Z</time></trkpt><trkpt lat="43.47070136531766" lon="10.665226265562163"><ele>194.0</ele><time>2026-04-18T15:44:11Z</time></trkpt><trkpt lat="43.47063015932849" lon="10.66510970420366"><ele>195.16666666666669</ele><time>2026-04-18T15:44:13Z</time></trkpt><trkpt lat="43.47055864734682" lon="10.664968240548742"><ele>196.33333333333334</ele><time>2026-04-18T15:44:15Z</time></trkpt><trkpt lat="43.47052330051633" lon="10.664894337306826"><ele>197.5</ele><time>2026-04-18T15:44:16Z</time></trkpt><trkpt lat="43.47048872979956" lon="10.664820009149174"><ele>198.66666666666669</ele><time>2026-04-18T15:44:17Z</time></trkpt><trkpt lat="43.47045541474647" lon="10.664746406135096"><ele>199.83333333333334</ele><time>2026-04-18T15:44:18Z</time></trkpt><trkpt lat="43.470388095720004" lon="10.664594952201625"><ele>201.0</ele><time>2026-04-18T15:44:20Z</time></trkpt><trkpt lat="43.47035367592897" lon="10.664517482112094"><ele>204.0</ele><time>2026-04-18T15:44:21Z</time></trkpt><trkpt lat="43.47029810083859" lon="10.664364665269998"><ele>207.0</ele><time>2026-04-18T15:44:23Z</time></trkpt><trkpt lat="43.47027966474961" lon="10.664277016318124"><ele>210.0</ele><time>2026-04-18T15:44:24Z</time></trkpt><trkpt lat="43.47027311567773" lon="10.664182280273744"><ele>213.0</ele><time>2026-04-18T15:44:25Z</time></trkpt><trkpt lat="43.470275203662425" lon="10.664083219992797"><ele>216.0</ele><time>2026-04-18T15:44:26Z</time></trkpt><trkpt lat="43.47028123069349" lon="10.663970698610376"><ele>219.0</ele><time>2026-04-18T15:44:27Z</time></trkpt><trkpt lat="43.47028836533986" lon="10.66385426632856"><ele>219.0</ele><time>2026-04-18T15:44:28Z</time></trkpt><trkpt lat="43.47029530527204" lon="10.66373339012792"><ele>219.0</ele><time>2026-04-18T15:44:29Z</time></trkpt><trkpt lat="43.47029946382441" lon="10.663611549262388"><ele>219.0</ele><time>2026-04-18T15:44:30Z</time></trkpt><trkpt lat="43.47030352369689" lon="10.663492599468164"><ele>219.0</ele><time>2026-04-18T15:44:31Z</time></trkpt><trkpt lat="43.47030342868019" lon="10.663370629301943"><ele>219.0</ele><time>2026-04-18T15:44:32Z</time></trkpt><trkpt lat="43.47029135643702" lon="10.663246570855295"><ele>219.0</ele><time>2026-04-18T15:44:33Z</time></trkpt><trkpt lat="43.4702577074118" lon="10.66312944685097"><ele>219.83333333333334</ele><time>2026-04-18T15:44:34Z</time></trkpt><trkpt lat="43.470194701599816" lon="10.663033052613983"><ele>220.66666666666669</ele><time>2026-04-18T15:44:35Z</time></trkpt><trkpt lat="43.47013628391207" lon="10.662945000807467"><ele>221.5</ele><time>2026-04-18T15:44:36Z</time></trkpt><trkpt lat="43.470074707043416" lon="10.662863598187005"><ele>222.33333333333334</ele><time>2026-04-18T15:44:37Z</time></trkpt><trkpt lat="43.47001225042509" lon="10.662784180652475"><ele>223.16666666666669</ele><time>2026-04-18T15:44:37.999Z</time></trkpt><trkpt lat="43.46995042506348" lon="10.662705565549334"><ele>224.0</ele><time>2026-04-18T15:44:38.999Z</time></trkpt><trkpt lat="43.46988616810292" lon="10.662623858096444"><ele>224.66666666666669</ele><time>2026-04-18T15:44:39.999Z</time></trkpt><trkpt lat="43.46982065137918" lon="10.66254096218173"><ele>225.33333333333334</ele><time>2026-04-18T15:44:40.999Z</time></trkpt><trkpt lat="43.46975424199517" lon="10.66245721436111"><ele>226.0</ele><time>2026-04-18T15:44:41.999Z</time></trkpt><trkpt lat="43.46968792292754" lon="10.662375951121494"><ele>226.66666666666669</ele><time>2026-04-18T15:44:42.999Z</time></trkpt><trkpt lat="43.46962446503783" lon="10.662298192851223"><ele>227.33333333333334</ele><time>2026-04-18T15:44:43.999Z</time></trkpt><trkpt lat="43.46955882941129" lon="10.662226276492964"><ele>228.0</ele><time>2026-04-18T15:44:44.999Z</time></trkpt><trkpt lat="43.469500332121164" lon="10.66215484505259"><ele>228.85714285714283</ele><time>2026-04-18T15:44:45.999Z</time></trkpt><trkpt lat="43.469446824742164" lon="10.662082442087193"><ele>229.7142857142857</ele><time>2026-04-18T15:44:46.999Z</time></trkpt><trkpt lat="43.4693950948953" lon="10.662010398108594"><ele>230.57142857142856</ele><time>2026-04-18T15:44:47.999Z</time></trkpt><trkpt lat="43.46934812452525" lon="10.661939978869178"><ele>231.42857142857144</ele><time>2026-04-18T15:44:48.999Z</time></trkpt><trkpt lat="43.46930355251087" lon="10.661868087901029"><ele>232.2857142857143</ele><time>2026-04-18T15:44:49.999Z</time></trkpt><trkpt lat="43.469260347275025" lon="10.661785680210938"><ele>233.14285714285717</ele><time>2026-04-18T15:44:50.999Z</time></trkpt><trkpt lat="43.46922089402751" lon="10.661691549802542"><ele>234.0</ele><time>2026-04-18T15:44:51.999Z</time></trkpt><trkpt lat="43.469176641595546" lon="10.661585890669947"><ele>234.0</ele><time>2026-04-18T15:44:52.999Z</time></trkpt><trkpt lat="43.46912828995954" lon="10.661475464385402"><ele>233.99999999999997</ele><time>2026-04-18T15:44:53.999Z</time></trkpt><trkpt lat="43.46907699114505" lon="10.66135858635966"><ele>233.99999999999997</ele><time>2026-04-18T15:44:54.999Z</time></trkpt><trkpt lat="43.469023470205386" lon="10.661237066495948"><ele>234.0</ele><time>2026-04-18T15:44:55.999Z</time></trkpt><trkpt lat="43.46896966676743" lon="10.661114905275943"><ele>234.0</ele><time>2026-04-18T15:44:56.999Z</time></trkpt><trkpt lat="43.46891460974515" lon="10.660996100239569"><ele>233.79999999999998</ele><time>2026-04-18T15:44:57.999Z</time></trkpt><trkpt lat="43.46886071731805" lon="10.66088319620604"><ele>233.59999999999997</ele><time>2026-04-18T15:44:58.999Z</time></trkpt><trkpt lat="43.46880667436117" lon="10.660778745381332"><ele>233.4</ele><time>2026-04-18T15:45:00Z</time></trkpt><trkpt lat="43.46875112913451" lon="10.660681426984437"><ele>233.2</ele><time>2026-04-18T15:45:01Z</time></trkpt><trkpt lat="43.46869370843422" lon="10.660590833906658"><ele>233.0</ele><time>2026-04-18T15:45:02Z</time></trkpt><trkpt lat="43.468636043417895" lon="10.66050101339417"><ele>233.50000000000003</ele><time>2026-04-18T15:45:03Z</time></trkpt><trkpt lat="43.4685760373546" lon="10.660413719920635"><ele>234.0</ele><time>2026-04-18T15:45:04Z</time></trkpt><trkpt lat="43.46851455631226" lon="10.660324280876349"><ele>234.5</ele><time>2026-04-18T15:45:05Z</time></trkpt><trkpt lat="43.4684529075243" lon="10.6602345978268"><ele>235.0</ele><time>2026-04-18T15:45:06Z</time></trkpt><trkpt lat="43.46839106920533" lon="10.660144639136888"><ele>235.50000000000003</ele><time>2026-04-18T15:45:07Z</time></trkpt><trkpt lat="43.46832862873892" lon="10.660054362567001"><ele>236.0</ele><time>2026-04-18T15:45:08Z</time></trkpt><trkpt lat="43.46826587576542" lon="10.659964634734477"><ele>237.33333333333334</ele><time>2026-04-18T15:45:09Z</time></trkpt><trkpt lat="43.46820397890934" lon="10.659876130934027"><ele>238.66666666666669</ele><time>2026-04-18T15:45:10Z</time></trkpt><trkpt lat="43.468143606352406" lon="10.659789806661239"><ele>240.0</ele><time>2026-04-18T15:45:11Z</time></trkpt><trkpt lat="43.468083805546684" lon="10.659704300041867"><ele>241.33333333333331</ele><time>2026-04-18T15:45:12Z</time></trkpt><trkpt lat="43.468024740139995" lon="10.659619844807043"><ele>242.66666666666666</ele><time>2026-04-18T15:45:13Z</time></trkpt><trkpt lat="43.4679697664327" lon="10.65954124029474"><ele>244.0</ele><time>2026-04-18T15:45:14Z</time></trkpt><trkpt lat="43.46791776375991" lon="10.659466883821754"><ele>246.16666666666666</ele><time>2026-04-18T15:45:15Z</time></trkpt><trkpt lat="43.46786633364011" lon="10.65939294708568"><ele>248.33333333333331</ele><time>2026-04-18T15:45:16Z</time></trkpt><trkpt lat="43.4678144749517" lon="10.659317679370218"><ele>250.5</ele><time>2026-04-18T15:45:17Z</time></trkpt><trkpt lat="43.46773763618115" lon="10.659206155589468"><ele>252.66666666666669</ele><time>2026-04-18T15:45:19Z</time></trkpt><trkpt lat="43.46767798349536" lon="10.659121847128647"><ele>254.83333333333334</ele><time>2026-04-18T15:45:21Z</time></trkpt><trkpt lat="43.467614558685206" lon="10.659037475550909"><ele>257.0</ele><time>2026-04-18T15:45:23Z</time></trkpt><trkpt lat="43.46754520348291" lon="10.658953136280173"><ele>257.0</ele><time>2026-04-18T15:45:25Z</time></trkpt><trkpt lat="43.467468321612294" lon="10.658869087327648"><ele>257.0</ele><time>2026-04-18T15:45:27Z</time></trkpt><trkpt lat="43.467388049836956" lon="10.658781757236587"><ele>257.0</ele><time>2026-04-18T15:45:29Z</time></trkpt><trkpt lat="43.467297925983786" lon="10.658683708873689"><ele>257.0</ele><time>2026-04-18T15:45:31Z</time></trkpt><trkpt lat="43.467247799571396" lon="10.658630328431478"><ele>257.0</ele><time>2026-04-18T15:45:32Z</time></trkpt><trkpt lat="43.467194610645436" lon="10.65857397924743"><ele>257.0</ele><time>2026-04-18T15:45:33Z</time></trkpt><trkpt lat="43.467138995730735" lon="10.658515059936255"><ele>259.1666666666667</ele><time>2026-04-18T15:45:34Z</time></trkpt><trkpt lat="43.4670813618283" lon="10.65845400166127"><ele>261.33333333333337</ele><time>2026-04-18T15:45:35Z</time></trkpt><trkpt lat="43.467021494376525" lon="10.65839057709606"><ele>263.5</ele><time>2026-04-18T15:45:36Z</time></trkpt><trkpt lat="43.46696161328208" lon="10.658327138177919"><ele>265.6666666666667</ele><time>2026-04-18T15:45:37Z</time></trkpt><trkpt lat="43.46690330693529" lon="10.658265367472119"><ele>267.8333333333333</ele><time>2026-04-18T15:45:38Z</time></trkpt><trkpt lat="43.466852691985" lon="10.658211745189083"><ele>270.0</ele><time>2026-04-18T15:45:39Z</time></trkpt><trkpt lat="43.46677447061938" lon="10.658128877508783"><ele>270.0</ele><time>2026-04-18T15:45:41Z</time></trkpt><trkpt lat="43.46671264239423" lon="10.658063376171327"><ele>270.0</ele><time>2026-04-18T15:45:43Z</time></trkpt><trkpt lat="43.46664886850584" lon="10.65799581277924"><ele>270.0</ele><time>2026-04-18T15:45:46Z</time></trkpt><trkpt lat="43.46659655986175" lon="10.657940396071046"><ele>270.0</ele><time>2026-04-18T15:45:49Z</time></trkpt><trkpt lat="43.46653501965209" lon="10.657874949902487"><ele>270.0</ele><time>2026-04-18T15:45:52Z</time></trkpt><trkpt lat="43.466472355501146" lon="10.657810423466655"><ele>270.0</ele><time>2026-04-18T15:45:55Z</time></trkpt><trkpt lat="43.466400222577064" lon="10.657735518140674"><ele>270.6666666666667</ele><time>2026-04-18T15:45:58Z</time></trkpt><trkpt lat="43.466347526031" lon="10.657669117181326"><ele>271.3333333333333</ele><time>2026-04-18T15:46:00Z</time></trkpt><trkpt lat="43.46628899108806" lon="10.657579198664202"><ele>272.0</ele><time>2026-04-18T15:46:02Z</time></trkpt><trkpt lat="43.46625052772501" lon="10.657445194950894"><ele>272.66666666666663</ele><time>2026-04-18T15:46:04Z</time></trkpt><trkpt lat="43.46623210284263" lon="10.65736130639821"><ele>273.3333333333333</ele><time>2026-04-18T15:46:05Z</time></trkpt><trkpt lat="43.466213175425715" lon="10.657268010415583"><ele>274.0</ele><time>2026-04-18T15:46:06Z</time></trkpt><trkpt lat="43.46619268917491" lon="10.657175049179044"><ele>274.28571428571433</ele><time>2026-04-18T15:46:07Z</time></trkpt><trkpt lat="43.46617141423502" lon="10.657081922425386"><ele>274.57142857142856</ele><time>2026-04-18T15:46:08Z</time></trkpt><trkpt lat="43.466150124620924" lon="10.656990627122674"><ele>274.8571428571429</ele><time>2026-04-18T15:46:09Z</time></trkpt><trkpt lat="43.46612888492014" lon="10.656899545589605"><ele>275.14285714285717</ele><time>2026-04-18T15:46:10Z</time></trkpt><trkpt lat="43.46610786861112" lon="10.65680942248506"><ele>275.42857142857144</ele><time>2026-04-18T15:46:11Z</time></trkpt><trkpt lat="43.46608739190221" lon="10.656721692003371"><ele>275.7142857142857</ele><time>2026-04-18T15:46:12Z</time></trkpt><trkpt lat="43.46606704537882" lon="10.656635155938964"><ele>276.0</ele><time>2026-04-18T15:46:13Z</time></trkpt><trkpt lat="43.46604678005788" lon="10.656548965131236"><ele>276.7142857142857</ele><time>2026-04-18T15:46:14Z</time></trkpt><trkpt lat="43.466027120803346" lon="10.656465351130997"><ele>277.42857142857144</ele><time>2026-04-18T15:46:15Z</time></trkpt><trkpt lat="43.46600735866976" lon="10.656381252334413"><ele>278.14285714285717</ele><time>2026-04-18T15:46:16Z</time></trkpt><trkpt lat="43.46598797099735" lon="10.656298420522225"><ele>278.8571428571429</ele><time>2026-04-18T15:46:17Z</time></trkpt><trkpt lat="43.46594949291899" lon="10.65613402799497"><ele>279.57142857142856</ele><time>2026-04-18T15:46:19Z</time></trkpt><trkpt lat="43.465929619460965" lon="10.65604912078975"><ele>280.28571428571433</ele><time>2026-04-18T15:46:20Z</time></trkpt><trkpt lat="43.46590958745891" lon="10.655963536312157"><ele>281.0</ele><time>2026-04-18T15:46:21Z</time></trkpt><trkpt lat="43.46589002110458" lon="10.65587808744154"><ele>281.8571428571429</ele><time>2026-04-18T15:46:22Z</time></trkpt><trkpt lat="43.46587065754907" lon="10.65579274855527"><ele>282.7142857142857</ele><time>2026-04-18T15:46:23Z</time></trkpt><trkpt lat="43.46585164237162" lon="10.655708945537748"><ele>283.57142857142856</ele><time>2026-04-18T15:46:24Z</time></trkpt><trkpt lat="43.46583275201087" lon="10.655625692207423"><ele>284.42857142857144</ele><time>2026-04-18T15:46:25Z</time></trkpt><trkpt lat="43.46581379509977" lon="10.655542145751319"><ele>285.2857142857143</ele><time>2026-04-18T15:46:26Z</time></trkpt><trkpt lat="43.46579428747465" lon="10.655456172288009"><ele>286.14285714285717</ele><time>2026-04-18T15:46:27Z</time></trkpt><trkpt lat="43.46577435801224" lon="10.655368339439327"><ele>287.0</ele><time>2026-04-18T15:46:28Z</time></trkpt><trkpt lat="43.46575421374254" lon="10.655279560009268"><ele>287.57142857142856</ele><time>2026-04-18T15:46:29Z</time></trkpt><trkpt lat="43.46573303517655" lon="10.655187350676878"><ele>288.1428571428571</ele><time>2026-04-18T15:46:30Z</time></trkpt><trkpt lat="43.46571193209617" lon="10.65509695038268"><ele>288.7142857142857</ele><time>2026-04-18T15:46:31Z</time></trkpt><trkpt lat="43.465690437983255" lon="10.655004874541854"><ele>289.2857142857143</ele><time>2026-04-18T15:46:32Z</time></trkpt><trkpt lat="43.465668847540336" lon="10.654912386359399"><ele>289.85714285714283</ele><time>2026-04-18T15:46:33Z</time></trkpt><trkpt lat="43.46564693685139" lon="10.654818525710294"><ele>290.42857142857144</ele><time>2026-04-18T15:46:34Z</time></trkpt><trkpt lat="43.465624444940076" lon="10.654722175966448"><ele>291.0</ele><time>2026-04-18T15:46:35Z</time></trkpt><trkpt lat="43.465601474929095" lon="10.654623777822998"><ele>291.0</ele><time>2026-04-18T15:46:36Z</time></trkpt><trkpt lat="43.46557821565121" lon="10.654524140845222"><ele>291.0</ele><time>2026-04-18T15:46:37Z</time></trkpt><trkpt lat="43.46555466652626" lon="10.654423261931164"><ele>291.0</ele><time>2026-04-18T15:46:38Z</time></trkpt><trkpt lat="43.46553094758563" lon="10.654321655545756"><ele>291.0</ele><time>2026-04-18T15:46:39Z</time></trkpt><trkpt lat="43.46550754936963" lon="10.654221423233247"><ele>291.0</ele><time>2026-04-18T15:46:40Z</time></trkpt><trkpt lat="43.465483725521274" lon="10.654120976111733"><ele>291.0</ele><time>2026-04-18T15:46:41Z</time></trkpt><trkpt lat="43.46545980490974" lon="10.654020768082983"><ele>292.1666666666667</ele><time>2026-04-18T15:46:42Z</time></trkpt><trkpt lat="43.465435584260895" lon="10.653919302331596"><ele>293.3333333333333</ele><time>2026-04-18T15:46:43Z</time></trkpt><trkpt lat="43.46541083767823" lon="10.65381563321087"><ele>294.5</ele><time>2026-04-18T15:46:44Z</time></trkpt><trkpt lat="43.465386890399074" lon="10.653709583614722"><ele>295.66666666666663</ele><time>2026-04-18T15:46:45Z</time></trkpt><trkpt lat="43.465362910475044" lon="10.653600316161711"><ele>296.8333333333333</ele><time>2026-04-18T15:46:46Z</time></trkpt><trkpt lat="43.465338720190054" lon="10.653490090238307"><ele>298.0</ele><time>2026-04-18T15:46:47Z</time></trkpt><trkpt lat="43.465314263843446" lon="10.653378652012288"><ele>298.5</ele><time>2026-04-18T15:46:48Z</time></trkpt><trkpt lat="43.46528836277728" lon="10.65326572709801"><ele>299.0</ele><time>2026-04-18T15:46:49Z</time></trkpt><trkpt lat="43.465260411541536" lon="10.653152759085147"><ele>299.5</ele><time>2026-04-18T15:46:50Z</time></trkpt><trkpt lat="43.465232555480775" lon="10.653040175618452"><ele>300.0</ele><time>2026-04-18T15:46:51Z</time></trkpt><trkpt lat="43.46520511542181" lon="10.652929273611774"><ele>300.5</ele><time>2026-04-18T15:46:52Z</time></trkpt><trkpt lat="43.465177741165334" lon="10.65281863765888"><ele>301.0</ele><time>2026-04-18T15:46:53Z</time></trkpt><trkpt lat="43.46515036941293" lon="10.652708011546567"><ele>301.42857142857144</ele><time>2026-04-18T15:46:54Z</time></trkpt><trkpt lat="43.465129113026414" lon="10.652605251998125"><ele>301.8571428571429</ele><time>2026-04-18T15:46:55Z</time></trkpt><trkpt lat="43.46512382848099" lon="10.652508075615073"><ele>302.2857142857143</ele><time>2026-04-18T15:46:56Z</time></trkpt><trkpt lat="43.46513225503259" lon="10.652415798999423"><ele>302.7142857142857</ele><time>2026-04-18T15:46:57Z</time></trkpt><trkpt lat="43.465144749582294" lon="10.652316081927415"><ele>303.14285714285717</ele><time>2026-04-18T15:46:58Z</time></trkpt><trkpt lat="43.465159407055204" lon="10.65221754130188"><ele>303.57142857142856</ele><time>2026-04-18T15:46:59Z</time></trkpt><trkpt lat="43.46517613383843" lon="10.652115807541412"><ele>304.0</ele><time>2026-04-18T15:47:00Z</time></trkpt><trkpt lat="43.46519269779275" lon="10.65201506411893"><ele>304.2857142857143</ele><time>2026-04-18T15:47:01Z</time></trkpt><trkpt lat="43.46520866884407" lon="10.651912470861634"><ele>304.5714285714286</ele><time>2026-04-18T15:47:02Z</time></trkpt><trkpt lat="43.465223120777665" lon="10.651810083379996"><ele>304.8571428571429</ele><time>2026-04-18T15:47:03Z</time></trkpt><trkpt lat="43.46523637152994" lon="10.651707903830669"><ele>305.1428571428571</ele><time>2026-04-18T15:47:04Z</time></trkpt><trkpt lat="43.465249355387684" lon="10.651607569944959"><ele>305.42857142857144</ele><time>2026-04-18T15:47:05Z</time></trkpt><trkpt lat="43.46526208965425" lon="10.651509164734367"><ele>305.7142857142857</ele><time>2026-04-18T15:47:06Z</time></trkpt><trkpt lat="43.465274811358995" lon="10.651410856658886"><ele>306.0</ele><time>2026-04-18T15:47:07Z</time></trkpt><trkpt lat="43.46528727578033" lon="10.651314536625257"><ele>306.0</ele><time>2026-04-18T15:47:08Z</time></trkpt><trkpt lat="43.465299324518995" lon="10.651221429094665"><ele>306.0</ele><time>2026-04-18T15:47:09Z</time></trkpt><trkpt lat="43.46531156724162" lon="10.651126822314048"><ele>306.0</ele><time>2026-04-18T15:47:10Z</time></trkpt><trkpt lat="43.46532361760016" lon="10.651033702023987"><ele>306.0</ele><time>2026-04-18T15:47:11Z</time></trkpt><trkpt lat="43.465335527593" lon="10.650941666398037"><ele>306.0</ele><time>2026-04-18T15:47:12Z</time></trkpt><trkpt lat="43.465346592939824" lon="10.650850617786382"><ele>306.0</ele><time>2026-04-18T15:47:13Z</time></trkpt><trkpt lat="43.46535716922535" lon="10.650761450934894"><ele>306.0</ele><time>2026-04-18T15:47:14Z</time></trkpt><trkpt lat="43.46536721320818" lon="10.650673946244648"><ele>306.2</ele><time>2026-04-18T15:47:15Z</time></trkpt><trkpt lat="43.46538541690413" lon="10.65050419070374"><ele>306.40000000000003</ele><time>2026-04-18T15:47:17Z</time></trkpt><trkpt lat="43.46540076840308" lon="10.650342200969245"><ele>306.6</ele><time>2026-04-18T15:47:19Z</time></trkpt><trkpt lat="43.4654107539869" lon="10.650206127561916"><ele>306.8</ele><time>2026-04-18T15:47:21Z</time></trkpt><trkpt lat="43.465427124698884" lon="10.650081414971066"><ele>307.0</ele><time>2026-04-18T15:47:23Z</time></trkpt><trkpt lat="43.46545582941748" lon="10.649941530285957"><ele>307.0</ele><time>2026-04-18T15:47:25Z</time></trkpt><trkpt lat="43.465490326501026" lon="10.649784594936119"><ele>307.0</ele><time>2026-04-18T15:47:27Z</time></trkpt><trkpt lat="43.46551484246348" lon="10.649666768735559"><ele>307.0</ele><time>2026-04-18T15:47:29Z</time></trkpt><trkpt lat="43.46553924586875" lon="10.649548455188603"><ele>307.0</ele><time>2026-04-18T15:47:32Z</time></trkpt><trkpt lat="43.46556202042634" lon="10.649441918820685"><ele>307.0</ele><time>2026-04-18T15:47:34Z</time></trkpt><trkpt lat="43.465591677888426" lon="10.649303185065925"><ele>306.99999999999994</ele><time>2026-04-18T15:47:36Z</time></trkpt><trkpt lat="43.46560999137637" lon="10.649217517004995"><ele>307.0</ele><time>2026-04-18T15:47:37Z</time></trkpt><trkpt lat="43.465629361093804" lon="10.649126907962588"><ele>307.0</ele><time>2026-04-18T15:47:38Z</time></trkpt><trkpt lat="43.46564908479145" lon="10.649034643121144"><ele>307.0</ele><time>2026-04-18T15:47:39Z</time></trkpt><trkpt lat="43.46566866384639" lon="10.648943054878412"><ele>307.0</ele><time>2026-04-18T15:47:40Z</time></trkpt><trkpt lat="43.46568865629994" lon="10.648849532806663"><ele>306.99999999999994</ele><time>2026-04-18T15:47:41Z</time></trkpt><trkpt lat="43.46570793284675" lon="10.648756894884604"><ele>307.0</ele><time>2026-04-18T15:47:42Z</time></trkpt><trkpt lat="43.46572602815546" lon="10.648661830375078"><ele>304.6</ele><time>2026-04-18T15:47:43Z</time></trkpt><trkpt lat="43.46574331614779" lon="10.648566581709362"><ele>302.2</ele><time>2026-04-18T15:47:44Z</time></trkpt><trkpt lat="43.46575645229189" lon="10.648477275473969"><ele>299.8</ele><time>2026-04-18T15:47:45Z</time></trkpt><trkpt lat="43.465778542859944" lon="10.64832213876955"><ele>297.4</ele><time>2026-04-18T15:47:47Z</time></trkpt><trkpt lat="43.465795938510404" lon="10.648177939111841"><ele>295.0</ele><time>2026-04-18T15:47:49Z</time></trkpt><trkpt lat="43.46581359357482" lon="10.648023996396127"><ele>295.0</ele><time>2026-04-18T15:47:51Z</time></trkpt><trkpt lat="43.46582451107123" lon="10.64793333065257"><ele>295.0</ele><time>2026-04-18T15:47:52Z</time></trkpt><trkpt lat="43.46583627920125" lon="10.64783560054324"><ele>295.0</ele><time>2026-04-18T15:47:53Z</time></trkpt><trkpt lat="43.46585033452794" lon="10.64773285487904"><ele>295.0</ele><time>2026-04-18T15:47:54Z</time></trkpt><trkpt lat="43.46586540104287" lon="10.647622631440091"><ele>295.0</ele><time>2026-04-18T15:47:55Z</time></trkpt><trkpt lat="43.46588053987616" lon="10.647509571186943"><ele>295.0</ele><time>2026-04-18T15:47:56Z</time></trkpt><trkpt lat="43.465894649065994" lon="10.647393553175807"><ele>293.8333333333333</ele><time>2026-04-18T15:47:57Z</time></trkpt><trkpt lat="43.46590866630487" lon="10.647278291114423"><ele>292.66666666666663</ele><time>2026-04-18T15:47:58Z</time></trkpt><trkpt lat="43.46592138769118" lon="10.647160444712155"><ele>291.5</ele><time>2026-04-18T15:47:59Z</time></trkpt><trkpt lat="43.46593255397762" lon="10.64704300296671"><ele>290.3333333333333</ele><time>2026-04-18T15:48:00Z</time></trkpt><trkpt lat="43.46594123447155" lon="10.646929667987607"><ele>289.1666666666667</ele><time>2026-04-18T15:48:01Z</time></trkpt><trkpt lat="43.465949592797614" lon="10.646820539194875"><ele>288.0</ele><time>2026-04-18T15:48:02Z</time></trkpt><trkpt lat="43.46595775821344" lon="10.646713929143758"><ele>288.00000000000006</ele><time>2026-04-18T15:48:03Z</time></trkpt><trkpt lat="43.46596729351937" lon="10.6466118744418"><ele>288.0</ele><time>2026-04-18T15:48:04Z</time></trkpt><trkpt lat="43.46597759006648" lon="10.646514953070994"><ele>288.0</ele><time>2026-04-18T15:48:05Z</time></trkpt><trkpt lat="43.46598894329976" lon="10.646418805900812"><ele>288.0</ele><time>2026-04-18T15:48:06Z</time></trkpt><trkpt lat="43.466002025857634" lon="10.646321488496476"><ele>288.0</ele><time>2026-04-18T15:48:07Z</time></trkpt><trkpt lat="43.46601626501386" lon="10.646226281909051"><ele>288.00000000000006</ele><time>2026-04-18T15:48:08Z</time></trkpt><trkpt lat="43.46603192041724" lon="10.646132413397742"><ele>288.0</ele><time>2026-04-18T15:48:09Z</time></trkpt><trkpt lat="43.46604956467548" lon="10.646038940100668"><ele>288.00000000000006</ele><time>2026-04-18T15:48:10Z</time></trkpt><trkpt lat="43.46606875962996" lon="10.645944065402796"><ele>288.0</ele><time>2026-04-18T15:48:11Z</time></trkpt><trkpt lat="43.46608882809756" lon="10.645848407056496"><ele>288.0</ele><time>2026-04-18T15:48:12Z</time></trkpt><trkpt lat="43.46611131843803" lon="10.645749710463209"><ele>288.0</ele><time>2026-04-18T15:48:13Z</time></trkpt><trkpt lat="43.46613465787985" lon="10.64564968413688"><ele>288.0</ele><time>2026-04-18T15:48:14Z</time></trkpt><trkpt lat="43.46615798855976" lon="10.645549695479826"><ele>288.00000000000006</ele><time>2026-04-18T15:48:15Z</time></trkpt><trkpt lat="43.46618088210449" lon="10.645449111616983"><ele>288.0</ele><time>2026-04-18T15:48:16Z</time></trkpt><trkpt lat="43.46620237737362" lon="10.64535133365433"><ele>288.14285714285717</ele><time>2026-04-18T15:48:17Z</time></trkpt><trkpt lat="43.46622373111698" lon="10.645254199344087"><ele>288.2857142857143</ele><time>2026-04-18T15:48:18Z</time></trkpt><trkpt lat="43.46624520232088" lon="10.645156530777307"><ele>288.42857142857144</ele><time>2026-04-18T15:48:19Z</time></trkpt><trkpt lat="43.46626630037237" lon="10.64506055952873"><ele>288.57142857142856</ele><time>2026-04-18T15:48:20Z</time></trkpt><trkpt lat="43.466287732136585" lon="10.644964161763221"><ele>288.7142857142857</ele><time>2026-04-18T15:48:21Z</time></trkpt><trkpt lat="43.46630927580821" lon="10.644867407644947"><ele>288.8571428571429</ele><time>2026-04-18T15:48:22Z</time></trkpt><trkpt lat="43.46633230518047" lon="10.644773019643617"><ele>289.0</ele><time>2026-04-18T15:48:23Z</time></trkpt><trkpt lat="43.46635972554398" lon="10.64468102439884"><ele>289.66666666666663</ele><time>2026-04-18T15:48:24Z</time></trkpt><trkpt lat="43.46639199007475" lon="10.644591986015827"><ele>290.3333333333333</ele><time>2026-04-18T15:48:25Z</time></trkpt><trkpt lat="43.46642692153139" lon="10.644496698194601"><ele>291.0</ele><time>2026-04-18T15:48:26Z</time></trkpt><trkpt lat="43.46646270588206" lon="10.644399083729182"><ele>291.6666666666667</ele><time>2026-04-18T15:48:27Z</time></trkpt><trkpt lat="43.46649965435873" lon="10.644298293731012"><ele>292.33333333333337</ele><time>2026-04-18T15:48:28Z</time></trkpt><trkpt lat="43.466535535559075" lon="10.644197131463308"><ele>293.0</ele><time>2026-04-18T15:48:29Z</time></trkpt><trkpt lat="43.46657099975225" lon="10.644096872128753"><ele>293.6666666666667</ele><time>2026-04-18T15:48:30Z</time></trkpt><trkpt lat="43.46660532512515" lon="10.643998368242448"><ele>294.33333333333337</ele><time>2026-04-18T15:48:31Z</time></trkpt><trkpt lat="43.46663938302998" lon="10.643902803850327"><ele>295.0</ele><time>2026-04-18T15:48:32Z</time></trkpt><trkpt lat="43.466674022723694" lon="10.643807835950177"><ele>295.6666666666667</ele><time>2026-04-18T15:48:33Z</time></trkpt><trkpt lat="43.466708632907824" lon="10.643712948894459"><ele>296.3333333333333</ele><time>2026-04-18T15:48:34Z</time></trkpt><trkpt lat="43.46674231996366" lon="10.643619910267011"><ele>297.0</ele><time>2026-04-18T15:48:35Z</time></trkpt><trkpt lat="43.46677477829705" lon="10.643526632270463"><ele>297.8333333333333</ele><time>2026-04-18T15:48:36Z</time></trkpt><trkpt lat="43.46680643348524" lon="10.643435662325826"><ele>298.6666666666667</ele><time>2026-04-18T15:48:37Z</time></trkpt><trkpt lat="43.46683766144502" lon="10.643345920123123"><ele>299.5</ele><time>2026-04-18T15:48:38Z</time></trkpt><trkpt lat="43.466870260477066" lon="10.643263304192784"><ele>300.33333333333337</ele><time>2026-04-18T15:48:39Z</time></trkpt><trkpt lat="43.46690237272294" lon="10.643181657944913"><ele>301.1666666666667</ele><time>2026-04-18T15:48:40Z</time></trkpt><trkpt lat="43.46694823264103" lon="10.643025482363335"><ele>302.0</ele><time>2026-04-18T15:48:42Z</time></trkpt><trkpt lat="43.46694756623238" lon="10.642863751040885"><ele>303.2</ele><time>2026-04-18T15:48:44Z</time></trkpt><trkpt lat="43.46690817394411" lon="10.642739544680685"><ele>304.4</ele><time>2026-04-18T15:48:46Z</time></trkpt><trkpt lat="43.466957812078036" lon="10.642633195746898"><ele>305.6</ele><time>2026-04-18T15:48:49Z</time></trkpt><trkpt lat="43.467016713113225" lon="10.642547362276257"><ele>306.8</ele><time>2026-04-18T15:48:51Z</time></trkpt><trkpt lat="43.467093655003325" lon="10.642466883400585"><ele>308.0</ele><time>2026-04-18T15:48:53Z</time></trkpt><trkpt lat="43.46717430750897" lon="10.642378441691818"><ele>308.8</ele><time>2026-04-18T15:48:55Z</time></trkpt><trkpt lat="43.46725250091798" lon="10.64228384807512"><ele>309.6</ele><time>2026-04-18T15:48:57Z</time></trkpt><trkpt lat="43.46732014802432" lon="10.642184082547507"><ele>310.4</ele><time>2026-04-18T15:48:59Z</time></trkpt><trkpt lat="43.467380747539956" lon="10.642082993094053"><ele>311.2</ele><time>2026-04-18T15:49:01Z</time></trkpt><trkpt lat="43.46743110911059" lon="10.641983974240155"><ele>312.0</ele><time>2026-04-18T15:49:03Z</time></trkpt><trkpt lat="43.46747682115103" lon="10.641884540053102"><ele>313.1666666666667</ele><time>2026-04-18T15:49:05Z</time></trkpt><trkpt lat="43.467517635178204" lon="10.641791969504473"><ele>314.3333333333333</ele><time>2026-04-18T15:49:07Z</time></trkpt><trkpt lat="43.4675563733558" lon="10.641696896952707"><ele>315.5</ele><time>2026-04-18T15:49:09Z</time></trkpt><trkpt lat="43.467592709190114" lon="10.641597075371145"><ele>316.66666666666663</ele><time>2026-04-18T15:49:11Z</time></trkpt><trkpt lat="43.46762814598539" lon="10.641502066612"><ele>317.8333333333333</ele><time>2026-04-18T15:49:13Z</time></trkpt><trkpt lat="43.46766298178378" lon="10.641408669089591"><ele>319.0</ele><time>2026-04-18T15:49:15Z</time></trkpt><trkpt lat="43.46770224979132" lon="10.641302265515302"><ele>319.0</ele><time>2026-04-18T15:49:17Z</time></trkpt><trkpt lat="43.46774523126744" lon="10.641185596761003"><ele>319.0</ele><time>2026-04-18T15:49:19Z</time></trkpt><trkpt lat="43.467788270212694" lon="10.641068772261542"><ele>319.0</ele><time>2026-04-18T15:49:21Z</time></trkpt><trkpt lat="43.46782595276626" lon="10.640962939854521"><ele>319.0</ele><time>2026-04-18T15:49:23Z</time></trkpt><trkpt lat="43.46786659318616" lon="10.64084659810713"><ele>319.0</ele><time>2026-04-18T15:49:25Z</time></trkpt><trkpt lat="43.46791553611585" lon="10.640706532106044"><ele>320.5</ele><time>2026-04-18T15:49:27Z</time></trkpt><trkpt lat="43.46796833621549" lon="10.640559459120139"><ele>322.0</ele><time>2026-04-18T15:49:29Z</time></trkpt><trkpt lat="43.46802346729346" lon="10.64041251826512"><ele>323.5</ele><time>2026-04-18T15:49:31Z</time></trkpt><trkpt lat="43.46808281534588" lon="10.640267381708744"><ele>325.0</ele><time>2026-04-18T15:49:33Z</time></trkpt><trkpt lat="43.468153931564686" lon="10.640146850108257"><ele>326.4</ele><time>2026-04-18T15:49:35Z</time></trkpt><trkpt lat="43.468238680987795" lon="10.640046961891631"><ele>327.8</ele><time>2026-04-18T15:49:37Z</time></trkpt><trkpt lat="43.46832593505832" lon="10.639966004669827"><ele>329.20000000000005</ele><time>2026-04-18T15:49:39Z</time></trkpt><trkpt lat="43.46842218379948" lon="10.63988388788136"><ele>330.6</ele><time>2026-04-18T15:49:41Z</time></trkpt><trkpt lat="43.46853455690433" lon="10.63983495302912"><ele>332.0</ele><time>2026-04-18T15:49:43Z</time></trkpt><trkpt lat="43.46864159971777" lon="10.639785060868492"><ele>332.0</ele><time>2026-04-18T15:49:45Z</time></trkpt><trkpt lat="43.468729069176106" lon="10.63973736896301"><ele>332.0</ele><time>2026-04-18T15:49:47Z</time></trkpt><trkpt lat="43.468816097993646" lon="10.639682570898204"><ele>332.0</ele><time>2026-04-18T15:49:49Z</time></trkpt><trkpt lat="43.46892327135248" lon="10.639616547355518"><ele>332.0</ele><time>2026-04-18T15:49:51Z</time></trkpt><trkpt lat="43.46898153104542" lon="10.63957533900454"><ele>332.0</ele><time>2026-04-18T15:49:52Z</time></trkpt><trkpt lat="43.46903940985957" lon="10.639528453715808"><ele>332.0</ele><time>2026-04-18T15:49:53Z</time></trkpt><trkpt lat="43.46909994894029" lon="10.639479296858344"><ele>332.20000000000005</ele><time>2026-04-18T15:49:54Z</time></trkpt><trkpt lat="43.46915495650791" lon="10.639429080164502"><ele>332.4</ele><time>2026-04-18T15:49:55Z</time></trkpt><trkpt lat="43.46925002511739" lon="10.639334780102587"><ele>332.6</ele><time>2026-04-18T15:49:57Z</time></trkpt><trkpt lat="43.46934458406951" lon="10.639261578550082"><ele>332.79999999999995</ele><time>2026-04-18T15:49:59Z</time></trkpt><trkpt lat="43.469417949602324" lon="10.63916556411631"><ele>333.0</ele><time>2026-04-18T15:50:01Z</time></trkpt><trkpt lat="43.469472956131646" lon="10.639047976918988"><ele>333.0</ele><time>2026-04-18T15:50:03Z</time></trkpt><trkpt lat="43.469514395412" lon="10.638916855975388"><ele>333.0</ele><time>2026-04-18T15:50:05Z</time></trkpt><trkpt lat="43.469536429367416" lon="10.638831602718971"><ele>333.0</ele><time>2026-04-18T15:50:07Z</time></trkpt><trkpt lat="43.46955361049512" lon="10.638734182237906"><ele>333.0</ele><time>2026-04-18T15:50:13Z</time></trkpt><trkpt lat="43.46957082021469" lon="10.638644607447937"><ele>333.0</ele><time>2026-04-18T15:50:17Z</time></trkpt><trkpt lat="43.46959682213236" lon="10.638559770737839"><ele>333.0</ele><time>2026-04-18T15:50:27Z</time></trkpt><trkpt lat="43.469636493896026" lon="10.638457478358914"><ele>335.0</ele><time>2026-04-18T15:50:31Z</time></trkpt><trkpt lat="43.46967893841005" lon="10.638365718010782"><ele>337.0</ele><time>2026-04-18T15:50:34Z</time></trkpt><trkpt lat="43.469739617167846" lon="10.638299039254276"><ele>339.0</ele><time>2026-04-18T15:50:37Z</time></trkpt><trkpt lat="43.46980040122931" lon="10.638233593884454"><ele>341.0</ele><time>2026-04-18T15:50:40Z</time></trkpt><trkpt lat="43.46988039556518" lon="10.63814403054965"><ele>343.0</ele><time>2026-04-18T15:50:43Z</time></trkpt><trkpt lat="43.4699489727389" lon="10.638120817897608"><ele>345.0</ele><time>2026-04-18T15:50:45Z</time></trkpt><trkpt lat="43.47001916340693" lon="10.63806176374963"><ele>345.0</ele><time>2026-04-18T15:51:31Z</time></trkpt><trkpt lat="43.4701091306434" lon="10.638014321341213"><ele>345.0</ele><time>2026-04-18T15:51:33Z</time></trkpt><trkpt lat="43.47020896060324" lon="10.637956094588038"><ele>345.0</ele><time>2026-04-18T15:51:35Z</time></trkpt><trkpt lat="43.47031301075482" lon="10.63790288143696"><ele>345.0</ele><time>2026-04-18T15:51:37Z</time></trkpt><trkpt lat="43.47042402806614" lon="10.637852609638683"><ele>345.0</ele><time>2026-04-18T15:51:39Z</time></trkpt><trkpt lat="43.47054002782852" lon="10.63780097995257"><ele>346.25</ele><time>2026-04-18T15:51:41Z</time></trkpt><trkpt lat="43.47064681201363" lon="10.637728045802563"><ele>347.5</ele><time>2026-04-18T15:51:43Z</time></trkpt><trkpt lat="43.47076623684249" lon="10.637705411097858"><ele>348.75</ele><time>2026-04-18T15:51:45Z</time></trkpt><trkpt lat="43.470872797317945" lon="10.63763594704237"><ele>350.0</ele><time>2026-04-18T15:51:47Z</time></trkpt><trkpt lat="43.47097154335555" lon="10.63756116191503"><ele>350.0</ele><time>2026-04-18T15:51:49Z</time></trkpt><trkpt lat="43.4710509375844" lon="10.637475891104327"><ele>350.0</ele><time>2026-04-18T15:51:51Z</time></trkpt><trkpt lat="43.47113074969383" lon="10.637400993974712"><ele>350.0</ele><time>2026-04-18T15:51:53Z</time></trkpt><trkpt lat="43.471206506710566" lon="10.63730438206931"><ele>350.0</ele><time>2026-04-18T15:51:55Z</time></trkpt><trkpt lat="43.47131565561461" lon="10.637220576272878"><ele>350.0</ele><time>2026-04-18T15:51:57Z</time></trkpt><trkpt lat="43.47137364271438" lon="10.637162664434378"><ele>349.33333333333337</ele><time>2026-04-18T15:51:58Z</time></trkpt><trkpt lat="43.47143670127887" lon="10.637103843122025"><ele>348.6666666666667</ele><time>2026-04-18T15:51:59Z</time></trkpt><trkpt lat="43.4715035385563" lon="10.637048563648797"><ele>348.0</ele><time>2026-04-18T15:52:00Z</time></trkpt><trkpt lat="43.471570999646055" lon="10.6369957476104"><ele>347.3333333333333</ele><time>2026-04-18T15:52:01Z</time></trkpt><trkpt lat="43.471640141447224" lon="10.636941803374532"><ele>346.66666666666663</ele><time>2026-04-18T15:52:02Z</time></trkpt><trkpt lat="43.471710035554516" lon="10.636887272166298"><ele>346.0</ele><time>2026-04-18T15:52:03Z</time></trkpt><trkpt lat="43.47177831208434" lon="10.636834002992437"><ele>346.85714285714283</ele><time>2026-04-18T15:52:04Z</time></trkpt><trkpt lat="43.47184365520447" lon="10.636783709719712"><ele>347.7142857142857</ele><time>2026-04-18T15:52:05Z</time></trkpt><trkpt lat="43.47190721501666" lon="10.636735859186086"><ele>348.57142857142856</ele><time>2026-04-18T15:52:06Z</time></trkpt><trkpt lat="43.471969080028344" lon="10.636691378102581"><ele>349.42857142857144</ele><time>2026-04-18T15:52:07Z</time></trkpt><trkpt lat="43.472031044274914" lon="10.636646586197996"><ele>350.2857142857143</ele><time>2026-04-18T15:52:08Z</time></trkpt><trkpt lat="43.47209012326261" lon="10.636598248861842"><ele>351.14285714285717</ele><time>2026-04-18T15:52:09Z</time></trkpt><trkpt lat="43.472147653669694" lon="10.636546427212556"><ele>352.0</ele><time>2026-04-18T15:52:10Z</time></trkpt><trkpt lat="43.47219590944769" lon="10.636477296362742"><ele>352.0</ele><time>2026-04-18T15:52:11Z</time></trkpt><trkpt lat="43.47225595494679" lon="10.636430093806997"><ele>352.0</ele><time>2026-04-18T15:52:12Z</time></trkpt><trkpt lat="43.47231055215777" lon="10.63638067472752"><ele>352.0</ele><time>2026-04-18T15:52:13Z</time></trkpt><trkpt lat="43.472364199490045" lon="10.63633324620584"><ele>352.0</ele><time>2026-04-18T15:52:14Z</time></trkpt><trkpt lat="43.472460174967274" lon="10.636251464140084"><ele>352.0</ele><time>2026-04-18T15:52:16Z</time></trkpt><trkpt lat="43.47252555742068" lon="10.636188253712147"><ele>352.0</ele><time>2026-04-18T15:52:18Z</time></trkpt><trkpt lat="43.47237083451448" lon="10.636130196085029"><ele>352.0</ele><time>2026-04-18T15:52:26Z</time></trkpt><trkpt lat="43.472250709504245" lon="10.636155587953997"><ele>352.0</ele><time>2026-04-18T15:52:28Z</time></trkpt><trkpt lat="43.47218293246685" lon="10.636155089507128"><ele>352.0</ele><time>2026-04-18T15:52:29Z</time></trkpt><trkpt lat="43.47211107461081" lon="10.636140301740452"><ele>352.0</ele><time>2026-04-18T15:52:30Z</time></trkpt><trkpt lat="43.47204345013542" lon="10.636120678129519"><ele>352.0</ele><time>2026-04-18T15:52:31Z</time></trkpt><trkpt lat="43.47197813698095" lon="10.636081146959583"><ele>352.0</ele><time>2026-04-18T15:52:32Z</time></trkpt><trkpt lat="43.471923445491576" lon="10.636005774410318"><ele>353.3333333333333</ele><time>2026-04-18T15:52:33Z</time></trkpt><trkpt lat="43.47186642486753" lon="10.635934882862287"><ele>354.66666666666663</ele><time>2026-04-18T15:52:34Z</time></trkpt><trkpt lat="43.47181400406902" lon="10.635848777622922"><ele>356.0</ele><time>2026-04-18T15:52:35Z</time></trkpt><trkpt lat="43.471753876248215" lon="10.635762756719446"><ele>357.3333333333333</ele><time>2026-04-18T15:52:36Z</time></trkpt><trkpt lat="43.47170913231776" lon="10.635651050274761"><ele>358.6666666666667</ele><time>2026-04-18T15:52:37Z</time></trkpt><trkpt lat="43.47166372562313" lon="10.635532561121897"><ele>360.0</ele><time>2026-04-18T15:52:38Z</time></trkpt><trkpt lat="43.47161626298989" lon="10.635410683587954"><ele>360.6</ele><time>2026-04-18T15:52:39Z</time></trkpt><trkpt lat="43.47157124816726" lon="10.635289494974634"><ele>361.2</ele><time>2026-04-18T15:52:40Z</time></trkpt><trkpt lat="43.47152565854754" lon="10.635165579431433"><ele>361.79999999999995</ele><time>2026-04-18T15:52:41Z</time></trkpt><trkpt lat="43.47147719791659" lon="10.635040724554868"><ele>362.4</ele><time>2026-04-18T15:52:42Z</time></trkpt><trkpt lat="43.47142770041165" lon="10.634916127772398"><ele>363.0</ele><time>2026-04-18T15:52:43Z</time></trkpt><trkpt lat="43.471375059388514" lon="10.634785026099204"><ele>363.0</ele><time>2026-04-18T15:52:44Z</time></trkpt><trkpt lat="43.47132277919931" lon="10.634651205691622"><ele>363.0</ele><time>2026-04-18T15:52:45Z</time></trkpt><trkpt lat="43.471270935451244" lon="10.634515949579715"><ele>363.0</ele><time>2026-04-18T15:52:46Z</time></trkpt><trkpt lat="43.471220871488654" lon="10.63438256028759"><ele>363.0</ele><time>2026-04-18T15:52:47Z</time></trkpt><trkpt lat="43.47116996846712" lon="10.634250805575974"><ele>363.0</ele><time>2026-04-18T15:52:48Z</time></trkpt><trkpt lat="43.471120440235424" lon="10.634120199216316"><ele>362.2</ele><time>2026-04-18T15:52:49Z</time></trkpt><trkpt lat="43.47107154758751" lon="10.633989358303753"><ele>361.4</ele><time>2026-04-18T15:52:50Z</time></trkpt><trkpt lat="43.47102071604875" lon="10.633860542679317"><ele>360.59999999999997</ele><time>2026-04-18T15:52:51Z</time></trkpt><trkpt lat="43.470976192437284" lon="10.63372919812838"><ele>359.79999999999995</ele><time>2026-04-18T15:52:52Z</time></trkpt><trkpt lat="43.47092257120334" lon="10.63360563175858"><ele>359.0</ele><time>2026-04-18T15:52:53Z</time></trkpt><trkpt lat="43.47088882880738" lon="10.633468372889315"><ele>359.0</ele><time>2026-04-18T15:52:54Z</time></trkpt><trkpt lat="43.47084039340005" lon="10.633342879090366"><ele>359.0</ele><time>2026-04-18T15:52:55Z</time></trkpt><trkpt lat="43.47079016980398" lon="10.633217979133663"><ele>359.0</ele><time>2026-04-18T15:52:56Z</time></trkpt><trkpt lat="43.47073418751189" lon="10.63309807703554"><ele>359.0</ele><time>2026-04-18T15:52:57Z</time></trkpt><trkpt lat="43.47066972336102" lon="10.63298839572071"><ele>359.0</ele><time>2026-04-18T15:52:58Z</time></trkpt><trkpt lat="43.47059731139039" lon="10.632887222820587"><ele>357.4</ele><time>2026-04-18T15:52:59Z</time></trkpt><trkpt lat="43.47052055721071" lon="10.632789557039851"><ele>355.79999999999995</ele><time>2026-04-18T15:53:00Z</time></trkpt><trkpt lat="43.470443441751144" lon="10.632695378951391"><ele>354.20000000000005</ele><time>2026-04-18T15:53:01Z</time></trkpt><trkpt lat="43.47036493263829" lon="10.6325994987657"><ele>352.6</ele><time>2026-04-18T15:53:02Z</time></trkpt><trkpt lat="43.470287799282076" lon="10.632502409525893"><ele>351.0</ele><time>2026-04-18T15:53:03Z</time></trkpt><trkpt lat="43.470199697646215" lon="10.63241718252512"><ele>351.0</ele><time>2026-04-18T15:53:04Z</time></trkpt><trkpt lat="43.4701273286098" lon="10.632309426864701"><ele>351.0</ele><time>2026-04-18T15:53:05Z</time></trkpt><trkpt lat="43.47005423067882" lon="10.632201396667872"><ele>351.0</ele><time>2026-04-18T15:53:06Z</time></trkpt><trkpt lat="43.469977778957144" lon="10.632100235872528"><ele>351.0</ele><time>2026-04-18T15:53:07Z</time></trkpt><trkpt lat="43.46988796697371" lon="10.632017125591052"><ele>351.0</ele><time>2026-04-18T15:53:08Z</time></trkpt><trkpt lat="43.46978738466245" lon="10.631959363453884"><ele>348.6</ele><time>2026-04-18T15:53:09Z</time></trkpt><trkpt lat="43.46968341585659" lon="10.631919345830324"><ele>346.20000000000005</ele><time>2026-04-18T15:53:10Z</time></trkpt><trkpt lat="43.46958075446817" lon="10.631883961442508"><ele>343.79999999999995</ele><time>2026-04-18T15:53:11Z</time></trkpt><trkpt lat="43.469491656856306" lon="10.631843285278645"><ele>341.4</ele><time>2026-04-18T15:53:12Z</time></trkpt><trkpt lat="43.46942598597063" lon="10.631784289230021"><ele>339.0</ele><time>2026-04-18T15:53:13Z</time></trkpt><trkpt lat="43.46939591231814" lon="10.6316906737901"><ele>339.0</ele><time>2026-04-18T15:53:14Z</time></trkpt><trkpt lat="43.46939048525546" lon="10.631597300847243"><ele>339.0</ele><time>2026-04-18T15:53:15Z</time></trkpt><trkpt lat="43.469399085562515" lon="10.631492326264095"><ele>339.0</ele><time>2026-04-18T15:53:16Z</time></trkpt><trkpt lat="43.46940247465385" lon="10.631372137662177"><ele>339.0</ele><time>2026-04-18T15:53:17Z</time></trkpt><trkpt lat="43.46939038619406" lon="10.63124178769106"><ele>339.0</ele><time>2026-04-18T15:53:18Z</time></trkpt><trkpt lat="43.46933732676341" lon="10.63111757680873"><ele>339.0</ele><time>2026-04-18T15:53:19Z</time></trkpt><trkpt lat="43.4693100129351" lon="10.630982322095548"><ele>341.0</ele><time>2026-04-18T15:53:20Z</time></trkpt><trkpt lat="43.46926667283749" lon="10.630856902987171"><ele>343.0</ele><time>2026-04-18T15:53:21Z</time></trkpt><trkpt lat="43.46922899280932" lon="10.630730097311538"><ele>345.0</ele><time>2026-04-18T15:53:22Z</time></trkpt><trkpt lat="43.46920474490101" lon="10.630599745592631"><ele>347.0</ele><time>2026-04-18T15:53:23Z</time></trkpt><trkpt lat="43.46920991188285" lon="10.630474269454135"><ele>349.0</ele><time>2026-04-18T15:53:24Z</time></trkpt><trkpt lat="43.46924164844057" lon="10.630358628256579"><ele>351.0</ele><time>2026-04-18T15:53:25Z</time></trkpt><trkpt lat="43.469310743507194" lon="10.630285650614287"><ele>353.0</ele><time>2026-04-18T15:53:26Z</time></trkpt><trkpt lat="43.469379197504516" lon="10.630198542422466"><ele>355.0</ele><time>2026-04-18T15:53:27Z</time></trkpt><trkpt lat="43.46943497064166" lon="10.630094644852996"><ele>357.0</ele><time>2026-04-18T15:53:28Z</time></trkpt><trkpt lat="43.46947478983597" lon="10.62998191677377"><ele>359.0</ele><time>2026-04-18T15:53:29Z</time></trkpt><trkpt lat="43.46949695326724" lon="10.62985514387563"><ele>359.0</ele><time>2026-04-18T15:53:30Z</time></trkpt><trkpt lat="43.469504458512624" lon="10.629733876146275"><ele>359.0</ele><time>2026-04-18T15:53:31Z</time></trkpt><trkpt lat="43.46948945566165" lon="10.629632756152002"><ele>359.0</ele><time>2026-04-18T15:53:32Z</time></trkpt><trkpt lat="43.4694300408176" lon="10.62957339373329"><ele>359.0</ele><time>2026-04-18T15:53:33Z</time></trkpt><trkpt lat="43.46937087669333" lon="10.629536738581406"><ele>359.0</ele><time>2026-04-18T15:53:34Z</time></trkpt><trkpt lat="43.46929613475796" lon="10.629525155912964"><ele>359.0</ele><time>2026-04-18T15:53:35Z</time></trkpt><trkpt lat="43.469221671244206" lon="10.629541392477762"><ele>359.0</ele><time>2026-04-18T15:53:36Z</time></trkpt><trkpt lat="43.46915213635603" lon="10.629596164230556"><ele>359.0</ele><time>2026-04-18T15:53:37Z</time></trkpt><trkpt lat="43.46909087618292" lon="10.629668004492313"><ele>359.0</ele><time>2026-04-18T15:53:38Z</time></trkpt><trkpt lat="43.46902363452095" lon="10.629738857398713"><ele>359.0</ele><time>2026-04-18T15:53:39Z</time></trkpt><trkpt lat="43.46895005409911" lon="10.629802171155418"><ele>359.0</ele><time>2026-04-18T15:53:40Z</time></trkpt><trkpt lat="43.46886950688865" lon="10.629862912480023"><ele>359.0</ele><time>2026-04-18T15:53:41Z</time></trkpt><trkpt lat="43.46878651804" lon="10.629927269903003"><ele>360.0</ele><time>2026-04-18T15:53:42Z</time></trkpt><trkpt lat="43.4687114223913" lon="10.630009553702566"><ele>361.0</ele><time>2026-04-18T15:53:43Z</time></trkpt><trkpt lat="43.46864529343827" lon="10.630111067359119"><ele>362.0</ele><time>2026-04-18T15:53:44Z</time></trkpt><trkpt lat="43.46859336024054" lon="10.630230086851254"><ele>363.0</ele><time>2026-04-18T15:53:45Z</time></trkpt><trkpt lat="43.4685578074756" lon="10.630365981136482"><ele>364.0</ele><time>2026-04-18T15:53:46Z</time></trkpt><trkpt lat="43.468528911677225" lon="10.630510792022896"><ele>364.0</ele><time>2026-04-18T15:53:47Z</time></trkpt><trkpt lat="43.46850163858652" lon="10.6306559927566"><ele>364.0</ele><time>2026-04-18T15:53:48Z</time></trkpt><trkpt lat="43.468473811915665" lon="10.630799838831654"><ele>364.0</ele><time>2026-04-18T15:53:49Z</time></trkpt><trkpt lat="43.46843857190902" lon="10.630941968778439"><ele>364.0</ele><time>2026-04-18T15:53:50Z</time></trkpt><trkpt lat="43.468395332549804" lon="10.631068724711904"><ele>364.0</ele><time>2026-04-18T15:53:51Z</time></trkpt><trkpt lat="43.46832941916263" lon="10.63117516333794"><ele>364.25</ele><time>2026-04-18T15:53:52Z</time></trkpt><trkpt lat="43.46824817261535" lon="10.631247599089345"><ele>364.5</ele><time>2026-04-18T15:53:53Z</time></trkpt><trkpt lat="43.46807562353196" lon="10.631211729775984"><ele>364.75</ele><time>2026-04-18T15:53:55Z</time></trkpt><trkpt lat="43.46798828640471" lon="10.631167200266065"><ele>365.0</ele><time>2026-04-18T15:53:56Z</time></trkpt><trkpt lat="43.46789936664254" lon="10.631115668078143"><ele>365.0</ele><time>2026-04-18T15:53:57Z</time></trkpt><trkpt lat="43.46780640973277" lon="10.6310624349194"><ele>365.0</ele><time>2026-04-18T15:53:58Z</time></trkpt><trkpt lat="43.46770261109594" lon="10.631031401024385"><ele>365.0</ele><time>2026-04-18T15:53:59Z</time></trkpt><trkpt lat="43.46759710467825" lon="10.63098640309609"><ele>365.0</ele><time>2026-04-18T15:54:00Z</time></trkpt><trkpt lat="43.46748695659821" lon="10.630933792482429"><ele>365.0</ele><time>2026-04-18T15:54:01Z</time></trkpt><trkpt lat="43.467375704965484" lon="10.630884531947606"><ele>365.0</ele><time>2026-04-18T15:54:02Z</time></trkpt><trkpt lat="43.4672672129788" lon="10.6308301257511"><ele>365.0</ele><time>2026-04-18T15:54:03Z</time></trkpt><trkpt lat="43.46716569201552" lon="10.630771896894398"><ele>365.0</ele><time>2026-04-18T15:54:04Z</time></trkpt><trkpt lat="43.46706333597375" lon="10.63074524857424"><ele>365.0</ele><time>2026-04-18T15:54:05Z</time></trkpt><trkpt lat="43.466959047883016" lon="10.630748880905404"><ele>365.0</ele><time>2026-04-18T15:54:06Z</time></trkpt><trkpt lat="43.466855637652706" lon="10.630783884649507"><ele>364.8</ele><time>2026-04-18T15:54:07Z</time></trkpt><trkpt lat="43.46675167931232" lon="10.63083262552524"><ele>364.6</ele><time>2026-04-18T15:54:08Z</time></trkpt><trkpt lat="43.46664626851506" lon="10.630881223992228"><ele>364.4</ele><time>2026-04-18T15:54:09Z</time></trkpt><trkpt lat="43.46654898132883" lon="10.630925654073787"><ele>364.2</ele><time>2026-04-18T15:54:10Z</time></trkpt><trkpt lat="43.46645924363588" lon="10.630952884553151"><ele>364.0</ele><time>2026-04-18T15:54:11Z</time></trkpt><trkpt lat="43.466374818810635" lon="10.63095433984568"><ele>364.0</ele><time>2026-04-18T15:54:12Z</time></trkpt><trkpt lat="43.46629781529071" lon="10.630928042255787"><ele>364.0</ele><time>2026-04-18T15:54:13Z</time></trkpt><trkpt lat="43.466228693566784" lon="10.630880028845615"><ele>364.0</ele><time>2026-04-18T15:54:14Z</time></trkpt><trkpt lat="43.46616930969824" lon="10.630829145120606"><ele>364.0</ele><time>2026-04-18T15:54:15Z</time></trkpt><trkpt lat="43.46608404568766" lon="10.630735955191525"><ele>364.0</ele><time>2026-04-18T15:54:17Z</time></trkpt><trkpt lat="43.46606996829657" lon="10.630589047970519"><ele>364.0</ele><time>2026-04-18T15:54:19Z</time></trkpt><trkpt lat="43.466049120995024" lon="10.630440784521523"><ele>364.2</ele><time>2026-04-18T15:54:21Z</time></trkpt><trkpt lat="43.46605687398291" lon="10.630276080111027"><ele>364.4</ele><time>2026-04-18T15:54:23Z</time></trkpt><trkpt lat="43.46606537907465" lon="10.630188138067947"><ele>364.6</ele><time>2026-04-18T15:54:24Z</time></trkpt><trkpt lat="43.46607704822934" lon="10.630032984746391"><ele>364.8</ele><time>2026-04-18T15:54:26Z</time></trkpt><trkpt lat="43.46604438453467" lon="10.62987020479488"><ele>365.0</ele><time>2026-04-18T15:54:28Z</time></trkpt><trkpt lat="43.46599834343292" lon="10.629804598919447"><ele>365.00000000000006</ele><time>2026-04-18T15:54:29Z</time></trkpt><trkpt lat="43.46596005226185" lon="10.629734030756875"><ele>365.0</ele><time>2026-04-18T15:54:30Z</time></trkpt><trkpt lat="43.46593265556388" lon="10.629650042881025"><ele>365.0</ele><time>2026-04-18T15:54:31Z</time></trkpt><trkpt lat="43.465889273068655" lon="10.629575229028056"><ele>365.0</ele><time>2026-04-18T15:54:32Z</time></trkpt><trkpt lat="43.46584216762" lon="10.629501408057278"><ele>365.0</ele><time>2026-04-18T15:54:33Z</time></trkpt><trkpt lat="43.46579249616738" lon="10.629426295342588"><ele>365.00000000000006</ele><time>2026-04-18T15:54:34Z</time></trkpt><trkpt lat="43.46574224391678" lon="10.629351929913836"><ele>365.0</ele><time>2026-04-18T15:54:35Z</time></trkpt><trkpt lat="43.46569296418745" lon="10.629279431194163"><ele>364.14285714285717</ele><time>2026-04-18T15:54:36Z</time></trkpt><trkpt lat="43.465633867848936" lon="10.629226676918076"><ele>363.2857142857143</ele><time>2026-04-18T15:54:37Z</time></trkpt><trkpt lat="43.46558216561797" lon="10.629171421866753"><ele>362.42857142857144</ele><time>2026-04-18T15:54:38Z</time></trkpt><trkpt lat="43.46552357602787" lon="10.629126610925102"><ele>361.57142857142856</ele><time>2026-04-18T15:54:39Z</time></trkpt><trkpt lat="43.465466452052056" lon="10.629084316612117"><ele>360.7142857142857</ele><time>2026-04-18T15:54:40Z</time></trkpt><trkpt lat="43.46540949108165" lon="10.629038821480648"><ele>359.8571428571429</ele><time>2026-04-18T15:54:41Z</time></trkpt><trkpt lat="43.46536954375285" lon="10.62896180166615"><ele>359.0</ele><time>2026-04-18T15:54:42Z</time></trkpt><trkpt lat="43.465322177912334" lon="10.628890777257325"><ele>359.0</ele><time>2026-04-18T15:54:43Z</time></trkpt><trkpt lat="43.465274217842946" lon="10.628816238720116"><ele>359.0</ele><time>2026-04-18T15:54:44Z</time></trkpt><trkpt lat="43.465228829957354" lon="10.62874560400216"><ele>359.0</ele><time>2026-04-18T15:54:45Z</time></trkpt><trkpt lat="43.46518789391808" lon="10.628679331600877"><ele>359.0</ele><time>2026-04-18T15:54:46Z</time></trkpt><trkpt lat="43.46511804763653" lon="10.628551127274594"><ele>359.0</ele><time>2026-04-18T15:54:48Z</time></trkpt><trkpt lat="43.4650598137977" lon="10.628416276730396"><ele>359.0</ele><time>2026-04-18T15:54:50Z</time></trkpt><trkpt lat="43.46503480490612" lon="10.628282468718123"><ele>360.6</ele><time>2026-04-18T15:54:52Z</time></trkpt><trkpt lat="43.465071755232806" lon="10.628164626862358"><ele>362.2</ele><time>2026-04-18T15:54:54Z</time></trkpt><trkpt lat="43.46513180295251" lon="10.628039675084436"><ele>363.8</ele><time>2026-04-18T15:54:56Z</time></trkpt><trkpt lat="43.465188702110815" lon="10.627902553308086"><ele>365.40000000000003</ele><time>2026-04-18T15:54:58Z</time></trkpt><trkpt lat="43.465273184222134" lon="10.62778705141087"><ele>367.0</ele><time>2026-04-18T15:55:00Z</time></trkpt><trkpt lat="43.46535186263541" lon="10.627672614239236"><ele>367.8</ele><time>2026-04-18T15:55:02Z</time></trkpt><trkpt lat="43.46542404579065" lon="10.627563977681493"><ele>368.6</ele><time>2026-04-18T15:55:04Z</time></trkpt><trkpt lat="43.465480879424454" lon="10.627463319009962"><ele>369.40000000000003</ele><time>2026-04-18T15:55:06Z</time></trkpt><trkpt lat="43.46553386373158" lon="10.627368931805666"><ele>370.20000000000005</ele><time>2026-04-18T15:55:07.999Z</time></trkpt><trkpt lat="43.46555106312509" lon="10.627236596522966"><ele>371.0</ele><time>2026-04-18T15:55:09.999Z</time></trkpt><trkpt lat="43.46546336561606" lon="10.627141030599152"><ele>371.0</ele><time>2026-04-18T15:55:11.999Z</time></trkpt><trkpt lat="43.46534907827813" lon="10.62708838377831"><ele>371.0</ele><time>2026-04-18T15:55:13.999Z</time></trkpt><trkpt lat="43.46522636028178" lon="10.627060131754932"><ele>371.0</ele><time>2026-04-18T15:55:15.999Z</time></trkpt><trkpt lat="43.4651112199897" lon="10.627037864389223"><ele>371.0</ele><time>2026-04-18T15:55:17.999Z</time></trkpt><trkpt lat="43.46500024347691" lon="10.62703416915806"><ele>371.0</ele><time>2026-04-18T15:55:19.999Z</time></trkpt><trkpt lat="43.46489001834549" lon="10.627007255041365"><ele>371.0</ele><time>2026-04-18T15:55:21.999Z</time></trkpt><trkpt lat="43.46478434237252" lon="10.626983414473933"><ele>371.0</ele><time>2026-04-18T15:55:23.999Z</time></trkpt><trkpt lat="43.46468642048232" lon="10.626929930331714"><ele>371.0</ele><time>2026-04-18T15:55:25.999Z</time></trkpt><trkpt lat="43.46460107096316" lon="10.626844873890988"><ele>371.0</ele><time>2026-04-18T15:55:27.999Z</time></trkpt><trkpt lat="43.46452055006654" lon="10.626761787651368"><ele>370.0</ele><time>2026-04-18T15:55:29.999Z</time></trkpt><trkpt lat="43.46447180632271" lon="10.626634345449299"><ele>369.0</ele><time>2026-04-18T15:55:31.999Z</time></trkpt><trkpt lat="43.464443152422625" lon="10.626504900779537"><ele>368.0</ele><time>2026-04-18T15:55:33.999Z</time></trkpt><trkpt lat="43.46442507721644" lon="10.62635543702208"><ele>367.0</ele><time>2026-04-18T15:55:35.999Z</time></trkpt><trkpt lat="43.46441698147759" lon="10.626196141029611"><ele>366.0</ele><time>2026-04-18T15:55:38Z</time></trkpt><trkpt lat="43.46442990975993" lon="10.626047679484552"><ele>366.0</ele><time>2026-04-18T15:55:40Z</time></trkpt><trkpt lat="43.46447926793124" lon="10.62591634656635"><ele>366.0</ele><time>2026-04-18T15:55:42Z</time></trkpt><trkpt lat="43.46455139879242" lon="10.62578558846366"><ele>366.0</ele><time>2026-04-18T15:55:44Z</time></trkpt><trkpt lat="43.46462649513529" lon="10.625651063671429"><ele>366.0</ele><time>2026-04-18T15:55:46Z</time></trkpt><trkpt lat="43.46469896158098" lon="10.625531087803838"><ele>372.20000000000005</ele><time>2026-04-18T15:55:48Z</time></trkpt><trkpt lat="43.46475510186739" lon="10.6254117312719"><ele>378.40000000000003</ele><time>2026-04-18T15:55:50Z</time></trkpt><trkpt lat="43.464767674856944" lon="10.625246794706849"><ele>384.6</ele><time>2026-04-18T15:55:52Z</time></trkpt><trkpt lat="43.4647426062385" lon="10.625107659834596"><ele>390.8</ele><time>2026-04-18T15:55:54Z</time></trkpt><trkpt lat="43.464735805542674" lon="10.624984219809926"><ele>397.0</ele><time>2026-04-18T15:55:56Z</time></trkpt><trkpt lat="43.464785619651494" lon="10.624852074824668"><ele>397.0</ele><time>2026-04-18T15:55:58Z</time></trkpt><trkpt lat="43.4648283708035" lon="10.62478839542397"><ele>397.0</ele><time>2026-04-18T15:55:59Z</time></trkpt><trkpt lat="43.464874845702205" lon="10.624721340020148"><ele>397.0</ele><time>2026-04-18T15:56:00Z</time></trkpt><trkpt lat="43.46492204127098" lon="10.624650143839926"><ele>397.0</ele><time>2026-04-18T15:56:01Z</time></trkpt><trkpt lat="43.46496376326251" lon="10.62457654057125"><ele>397.0</ele><time>2026-04-18T15:56:02Z</time></trkpt><trkpt lat="43.46499456889458" lon="10.62449672697007"><ele>397.0</ele><time>2026-04-18T15:56:03Z</time></trkpt><trkpt lat="43.46503910621223" lon="10.62443298536665"><ele>397.0</ele><time>2026-04-18T15:56:04Z</time></trkpt><trkpt lat="43.465117577693306" lon="10.624306346262042"><ele>394.40000000000003</ele><time>2026-04-18T15:56:06Z</time></trkpt><trkpt lat="43.46517402411785" lon="10.624154853550552"><ele>391.8</ele><time>2026-04-18T15:56:08Z</time></trkpt><trkpt lat="43.46524601841152" lon="10.62401733321526"><ele>389.2</ele><time>2026-04-18T15:56:10Z</time></trkpt><trkpt lat="43.46531174477675" lon="10.623875919500055"><ele>386.6</ele><time>2026-04-18T15:56:12Z</time></trkpt><trkpt lat="43.46534743101695" lon="10.623799138609732"><ele>384.0</ele><time>2026-04-18T15:56:13Z</time></trkpt><trkpt lat="43.46538183642918" lon="10.623722025471041"><ele>381.85714285714283</ele><time>2026-04-18T15:56:14Z</time></trkpt><trkpt lat="43.46541641615811" lon="10.623643225082642"><ele>379.7142857142857</ele><time>2026-04-18T15:56:15Z</time></trkpt><trkpt lat="43.465457066521836" lon="10.62356936942813"><ele>377.57142857142856</ele><time>2026-04-18T15:56:16Z</time></trkpt><trkpt lat="43.465491322052394" lon="10.623491023475012"><ele>375.42857142857144</ele><time>2026-04-18T15:56:17Z</time></trkpt><trkpt lat="43.465518039493624" lon="10.623408308504091"><ele>373.2857142857143</ele><time>2026-04-18T15:56:18Z</time></trkpt><trkpt lat="43.465543946573625" lon="10.623325265617057"><ele>371.1428571428571</ele><time>2026-04-18T15:56:19Z</time></trkpt><trkpt lat="43.465589324135316" lon="10.62326080254009"><ele>369.0</ele><time>2026-04-18T15:56:20Z</time></trkpt><trkpt lat="43.465609080866805" lon="10.623173102567192"><ele>375.2</ele><time>2026-04-18T15:56:21Z</time></trkpt><trkpt lat="43.46564987195832" lon="10.623101742487385"><ele>381.4</ele><time>2026-04-18T15:56:22Z</time></trkpt><trkpt lat="43.46575300890346" lon="10.623011008136773"><ele>387.6</ele><time>2026-04-18T15:56:24Z</time></trkpt><trkpt lat="43.46586962607241" lon="10.622966049522635"><ele>393.8</ele><time>2026-04-18T15:56:26Z</time></trkpt><trkpt lat="43.46599240883594" lon="10.622928306409232"><ele>400.0</ele><time>2026-04-18T15:56:28Z</time></trkpt><trkpt lat="43.4661022379876" lon="10.6228912367143"><ele>400.00000000000006</ele><time>2026-04-18T15:56:30Z</time></trkpt><trkpt lat="43.46619605831985" lon="10.62285896121844"><ele>400.0</ele><time>2026-04-18T15:56:32Z</time></trkpt><trkpt lat="43.46628484477287" lon="10.62280123722239"><ele>400.0</ele><time>2026-04-18T15:56:34Z</time></trkpt><trkpt lat="43.466337755171416" lon="10.622750660156884"><ele>400.0</ele><time>2026-04-18T15:56:35Z</time></trkpt><trkpt lat="43.46638665441594" lon="10.622682171396544"><ele>400.00000000000006</ele><time>2026-04-18T15:56:36Z</time></trkpt><trkpt lat="43.46642457233173" lon="10.622591207153086"><ele>400.0</ele><time>2026-04-18T15:56:37Z</time></trkpt><trkpt lat="43.466449138023094" lon="10.622480711617374"><ele>400.6</ele><time>2026-04-18T15:56:38Z</time></trkpt><trkpt lat="43.46646527728107" lon="10.62238066370198"><ele>401.2</ele><time>2026-04-18T15:56:39Z</time></trkpt><trkpt lat="43.466477950349" lon="10.622278780194224"><ele>401.79999999999995</ele><time>2026-04-18T15:56:40Z</time></trkpt><trkpt lat="43.466478113190796" lon="10.622181097543697"><ele>402.4</ele><time>2026-04-18T15:56:41Z</time></trkpt><trkpt lat="43.46647306304021" lon="10.622015590545008"><ele>403.0</ele><time>2026-04-18T15:56:43Z</time></trkpt><trkpt lat="43.46648126281734" lon="10.62186469806439"><ele>403.0</ele><time>2026-04-18T15:56:45Z</time></trkpt><trkpt lat="43.4665105580428" lon="10.621693661353138"><ele>403.0</ele><time>2026-04-18T15:56:47Z</time></trkpt><trkpt lat="43.46655985937904" lon="10.621554492276674"><ele>403.0</ele><time>2026-04-18T15:56:49Z</time></trkpt><trkpt lat="43.466636227657546" lon="10.621454255717737"><ele>403.0</ele><time>2026-04-18T15:56:51Z</time></trkpt><trkpt lat="43.46671599157911" lon="10.62134533502629"><ele>403.0</ele><time>2026-04-18T15:56:53Z</time></trkpt><trkpt lat="43.4667997870211" lon="10.621235955776129"><ele>403.0</ele><time>2026-04-18T15:56:55Z</time></trkpt><trkpt lat="43.46687827709563" lon="10.621126144065341"><ele>403.0</ele><time>2026-04-18T15:56:57Z</time></trkpt><trkpt lat="43.46689854401476" lon="10.621040097940691"><ele>403.0</ele><time>2026-04-18T15:56:58Z</time></trkpt><trkpt lat="43.46689619073933" lon="10.620864500164389"><ele>403.0</ele><time>2026-04-18T15:57:00Z</time></trkpt><trkpt lat="43.46687798755457" lon="10.620779061211978"><ele>403.50000000000006</ele><time>2026-04-18T15:57:01Z</time></trkpt><trkpt lat="43.46683637636242" lon="10.620701702212637"><ele>404.0</ele><time>2026-04-18T15:57:02Z</time></trkpt><trkpt lat="43.46679391856603" lon="10.620622816058296"><ele>404.5</ele><time>2026-04-18T15:57:03Z</time></trkpt><trkpt lat="43.46674774334871" lon="10.620543544302198"><ele>405.0</ele><time>2026-04-18T15:57:04Z</time></trkpt><trkpt lat="43.466670618042585" lon="10.620419967446132"><ele>405.50000000000006</ele><time>2026-04-18T15:57:06Z</time></trkpt><trkpt lat="43.46663343680815" lon="10.620297228627681"><ele>406.0</ele><time>2026-04-18T15:57:08Z</time></trkpt><trkpt lat="43.466644266071235" lon="10.620163185173093"><ele>406.0</ele><time>2026-04-18T15:57:10Z</time></trkpt><trkpt lat="43.46666494011789" lon="10.620004957427929"><ele>406.0</ele><time>2026-04-18T15:57:11.999Z</time></trkpt><trkpt lat="43.46668615318371" lon="10.619838922922613"><ele>406.0</ele><time>2026-04-18T15:57:13.999Z</time></trkpt><trkpt lat="43.466684302811416" lon="10.61967756232972"><ele>406.0</ele><time>2026-04-18T15:57:15.999Z</time></trkpt><trkpt lat="43.466694983684235" lon="10.619526575338718"><ele>407.5</ele><time>2026-04-18T15:57:17.999Z</time></trkpt><trkpt lat="43.46668390818475" lon="10.619366809902777"><ele>409.0</ele><time>2026-04-18T15:57:19.999Z</time></trkpt><trkpt lat="43.46665820045547" lon="10.619197916211006"><ele>410.5</ele><time>2026-04-18T15:57:21.999Z</time></trkpt><trkpt lat="43.466643045998744" lon="10.619034626903188"><ele>412.0</ele><time>2026-04-18T15:57:23.999Z</time></trkpt><trkpt lat="43.46664323514903" lon="10.618863765824086"><ele>412.0</ele><time>2026-04-18T15:57:25.999Z</time></trkpt><trkpt lat="43.466643579281495" lon="10.618699810078954"><ele>412.0</ele><time>2026-04-18T15:57:27.999Z</time></trkpt><trkpt lat="43.46659278336905" lon="10.61855927962269"><ele>412.0</ele><time>2026-04-18T15:57:29.999Z</time></trkpt><trkpt lat="43.46651808007413" lon="10.618443605329999"><ele>412.0</ele><time>2026-04-18T15:57:31.999Z</time></trkpt><trkpt lat="43.46644922030707" lon="10.618324053057105"><ele>412.33333333333337</ele><time>2026-04-18T15:57:33.999Z</time></trkpt><trkpt lat="43.466389634172174" lon="10.618199110924298"><ele>412.6666666666667</ele><time>2026-04-18T15:57:35.999Z</time></trkpt><trkpt lat="43.466342655195966" lon="10.618135873419293"><ele>413.0</ele><time>2026-04-18T15:57:36.999Z</time></trkpt><trkpt lat="43.466301986977385" lon="10.618065610677858"><ele>413.33333333333337</ele><time>2026-04-18T15:57:37.999Z</time></trkpt><trkpt lat="43.46627005737227" lon="10.617984142573395"><ele>413.6666666666667</ele><time>2026-04-18T15:57:38.999Z</time></trkpt><trkpt lat="43.46619805569715" lon="10.617842940445206"><ele>414.0</ele><time>2026-04-18T15:57:40.999Z</time></trkpt><trkpt lat="43.46614619963251" lon="10.617675829272752"><ele>414.00000000000006</ele><time>2026-04-18T15:57:42.999Z</time></trkpt><trkpt lat="43.46611663459923" lon="10.617591656649875"><ele>414.0</ele><time>2026-04-18T15:57:43.999Z</time></trkpt><trkpt lat="43.46608411249221" lon="10.617502575916513"><ele>414.0</ele><time>2026-04-18T15:57:44.999Z</time></trkpt><trkpt lat="43.46603787449852" lon="10.617422619297272"><ele>414.0</ele><time>2026-04-18T15:57:45.999Z</time></trkpt><trkpt lat="43.466016200729364" lon="10.617321653713018"><ele>414.0</ele><time>2026-04-18T15:57:46.999Z</time></trkpt><trkpt lat="43.465983057863994" lon="10.617233086027532"><ele>414.00000000000006</ele><time>2026-04-18T15:57:47.999Z</time></trkpt><trkpt lat="43.46595141171779" lon="10.617146807209977"><ele>414.0</ele><time>2026-04-18T15:57:48.999Z</time></trkpt><trkpt lat="43.46592076113748" lon="10.617061320823726"><ele>417.6</ele><time>2026-04-18T15:57:49.999Z</time></trkpt><trkpt lat="43.465891825423995" lon="10.616979173592057"><ele>421.2</ele><time>2026-04-18T15:57:50.999Z</time></trkpt><trkpt lat="43.465864664134415" lon="10.616900230604429"><ele>424.80000000000007</ele><time>2026-04-18T15:57:51.999Z</time></trkpt><trkpt lat="43.4658142867031" lon="10.616745853061007"><ele>428.40000000000003</ele><time>2026-04-18T15:57:53.999Z</time></trkpt><trkpt lat="43.46576049134492" lon="10.616605164983081"><ele>432.0</ele><time>2026-04-18T15:57:55.999Z</time></trkpt><trkpt lat="43.46573077545604" lon="10.616458517692257"><ele>432.0</ele><time>2026-04-18T15:57:57.999Z</time></trkpt><trkpt lat="43.46569841938197" lon="10.616306051030403"><ele>432.00000000000006</ele><time>2026-04-18T15:57:59.999Z</time></trkpt><trkpt lat="43.4656637374488" lon="10.616154547483971"><ele>432.00000000000006</ele><time>2026-04-18T15:58:01.999Z</time></trkpt><trkpt lat="43.46562490817854" lon="10.616019103758429"><ele>432.0</ele><time>2026-04-18T15:58:03.999Z</time></trkpt><trkpt lat="43.46558955969658" lon="10.61589450645318"><ele>432.0</ele><time>2026-04-18T15:58:05.999Z</time></trkpt><trkpt lat="43.46559128664425" lon="10.61575222175773"><ele>433.8</ele><time>2026-04-18T15:58:07.999Z</time></trkpt><trkpt lat="43.4656219590498" lon="10.615605839722825"><ele>435.6</ele><time>2026-04-18T15:58:09.999Z</time></trkpt><trkpt lat="43.4656758351598" lon="10.615496831068318"><ele>437.40000000000003</ele><time>2026-04-18T15:58:11.999Z</time></trkpt><trkpt lat="43.46574929070783" lon="10.615379840684435"><ele>439.20000000000005</ele><time>2026-04-18T15:58:14Z</time></trkpt><trkpt lat="43.46579721798822" lon="10.615230291599742"><ele>441.0</ele><time>2026-04-18T15:58:16Z</time></trkpt><trkpt lat="43.46580783136067" lon="10.615070402800196"><ele>441.25</ele><time>2026-04-18T15:58:18Z</time></trkpt><trkpt lat="43.465821397709036" lon="10.614910811374324"><ele>441.5</ele><time>2026-04-18T15:58:20Z</time></trkpt><trkpt lat="43.46584276759964" lon="10.61475537800695"><ele>441.75</ele><time>2026-04-18T15:58:22Z</time></trkpt><trkpt lat="43.46588382996872" lon="10.614613271474017"><ele>442.0</ele><time>2026-04-18T15:58:24Z</time></trkpt><trkpt lat="43.46593983942151" lon="10.614472528975966"><ele>443.8</ele><time>2026-04-18T15:58:26Z</time></trkpt><trkpt lat="43.46597542231068" lon="10.614400257429002"><ele>445.6</ele><time>2026-04-18T15:58:27Z</time></trkpt><trkpt lat="43.466047047823935" lon="10.614260120875075"><ele>447.40000000000003</ele><time>2026-04-18T15:58:29Z</time></trkpt><trkpt lat="43.46611724891903" lon="10.61412473706836"><ele>449.20000000000005</ele><time>2026-04-18T15:58:31Z</time></trkpt><trkpt lat="43.46617042194144" lon="10.613976672156385"><ele>451.0</ele><time>2026-04-18T15:58:33Z</time></trkpt><trkpt lat="43.4662388438957" lon="10.613845404407071"><ele>451.0</ele><time>2026-04-18T15:58:35Z</time></trkpt><trkpt lat="43.46626315445126" lon="10.613688367978753"><ele>451.0</ele><time>2026-04-18T15:58:37Z</time></trkpt><trkpt lat="43.46623233048461" lon="10.613536156418682"><ele>451.0</ele><time>2026-04-18T15:58:39Z</time></trkpt><trkpt lat="43.4661406259098" lon="10.613420529190796"><ele>451.0</ele><time>2026-04-18T15:58:41Z</time></trkpt><trkpt lat="43.46603539805461" lon="10.613426917091497"><ele>451.0</ele><time>2026-04-18T15:58:43Z</time></trkpt><trkpt lat="43.46596263917679" lon="10.613546792888455"><ele>451.0</ele><time>2026-04-18T15:58:45Z</time></trkpt><trkpt lat="43.46588005214587" lon="10.613641770967943"><ele>451.0</ele><time>2026-04-18T15:58:47Z</time></trkpt><trkpt lat="43.465813928112176" lon="10.613733565812383"><ele>451.0</ele><time>2026-04-18T15:58:49Z</time></trkpt><trkpt lat="43.4657574248145" lon="10.61381200462216"><ele>451.0</ele><time>2026-04-18T15:58:51Z</time></trkpt><trkpt lat="43.46566251375795" lon="10.613946442158122"><ele>451.00000000000006</ele><time>2026-04-18T15:58:54Z</time></trkpt><trkpt lat="43.46561131346156" lon="10.61401929750121"><ele>451.0</ele><time>2026-04-18T15:58:56Z</time></trkpt><trkpt lat="43.46554611886761" lon="10.614112065929342"><ele>451.0</ele><time>2026-04-18T15:58:59Z</time></trkpt><trkpt lat="43.46548941120465" lon="10.614192757966697"><ele>451.0</ele><time>2026-04-18T15:59:01Z</time></trkpt><trkpt lat="43.465435953346564" lon="10.614269389481564"><ele>451.00000000000006</ele><time>2026-04-18T15:59:04Z</time></trkpt><trkpt lat="43.46537973222821" lon="10.61435024742481"><ele>451.0</ele><time>2026-04-18T15:59:07Z</time></trkpt><trkpt lat="43.465316471857115" lon="10.614441229316647"><ele>454.20000000000005</ele><time>2026-04-18T15:59:09Z</time></trkpt><trkpt lat="43.46523400354519" lon="10.614561532544222"><ele>457.40000000000003</ele><time>2026-04-18T15:59:12Z</time></trkpt><trkpt lat="43.465179471489876" lon="10.614642443409055"><ele>460.6</ele><time>2026-04-18T15:59:14Z</time></trkpt><trkpt lat="43.46511970905538" lon="10.614731735800264"><ele>463.8</ele><time>2026-04-18T15:59:16Z</time></trkpt><trkpt lat="43.46507515587001" lon="10.614825189968728"><ele>467.0</ele><time>2026-04-18T15:59:17.999Z</time></trkpt><trkpt lat="43.46501174040223" lon="10.614897057680095"><ele>467.0</ele><time>2026-04-18T15:59:19.999Z</time></trkpt><trkpt lat="43.464962306557766" lon="10.614982384454269"><ele>467.00000000000006</ele><time>2026-04-18T15:59:21.999Z</time></trkpt><trkpt lat="43.46489818447505" lon="10.615080398771397"><ele>467.00000000000006</ele><time>2026-04-18T15:59:23.999Z</time></trkpt><trkpt lat="43.46484479277414" lon="10.615173948852501"><ele>467.0</ele><time>2026-04-18T15:59:25.999Z</time></trkpt><trkpt lat="43.46478358916371" lon="10.615284757297546"><ele>467.0</ele><time>2026-04-18T15:59:27.999Z</time></trkpt><trkpt lat="43.46472184664291" lon="10.615404109107885"><ele>468.16666666666663</ele><time>2026-04-18T15:59:29.999Z</time></trkpt><trkpt lat="43.4646756885763" lon="10.615497862215504"><ele>469.3333333333333</ele><time>2026-04-18T15:59:31.999Z</time></trkpt><trkpt lat="43.46464592657182" lon="10.615596079259275"><ele>470.5</ele><time>2026-04-18T15:59:33.999Z</time></trkpt><trkpt lat="43.46460023908408" lon="10.615681499720168"><ele>471.66666666666663</ele><time>2026-04-18T15:59:35.999Z</time></trkpt><trkpt lat="43.46456401997791" lon="10.61575280880039"><ele>472.8333333333333</ele><time>2026-04-18T15:59:37.999Z</time></trkpt><trkpt lat="43.46450305267341" lon="10.61584046802689"><ele>474.0</ele><time>2026-04-18T15:59:39.999Z</time></trkpt><trkpt lat="43.464451489806386" lon="10.615923714666685"><ele>474.0</ele><time>2026-04-18T15:59:41.999Z</time></trkpt><trkpt lat="43.464424500408356" lon="10.616014862366965"><ele>474.0</ele><time>2026-04-18T15:59:43.999Z</time></trkpt><trkpt lat="43.46437116283652" lon="10.616103167787237"><ele>474.0</ele><time>2026-04-18T15:59:45.999Z</time></trkpt><trkpt lat="43.46436172924706" lon="10.616221790848172"><ele>474.0</ele><time>2026-04-18T15:59:47.999Z</time></trkpt><trkpt lat="43.46432668069803" lon="10.616332736864642"><ele>474.0</ele><time>2026-04-18T15:59:49.999Z</time></trkpt><trkpt lat="43.464284367550505" lon="10.616458969363766"><ele>474.0</ele><time>2026-04-18T15:59:51.999Z</time></trkpt><trkpt lat="43.46424337754273" lon="10.616574617720499"><ele>469.75</ele><time>2026-04-18T15:59:53.999Z</time></trkpt><trkpt lat="43.464205296005005" lon="10.616662187618548"><ele>465.5</ele><time>2026-04-18T15:59:55.999Z</time></trkpt><trkpt lat="43.4641642160909" lon="10.616738341421403"><ele>461.25</ele><time>2026-04-18T15:59:58.999Z</time></trkpt><trkpt lat="43.46410716953292" lon="10.616781468175212"><ele>457.0</ele><time>2026-04-18T16:00:44.999Z</time></trkpt><trkpt lat="43.4639361555825" lon="10.616256776910822"><ele>460.20000000000005</ele><time>2026-04-18T16:02:18Z</time></trkpt><trkpt lat="43.46388913545616" lon="10.616135410007086"><ele>463.40000000000003</ele><time>2026-04-18T16:02:20Z</time></trkpt><trkpt lat="43.46384572213218" lon="10.616022676634632"><ele>466.59999999999997</ele><time>2026-04-18T16:02:22Z</time></trkpt><trkpt lat="43.463785483730035" lon="10.615893559187105"><ele>469.79999999999995</ele><time>2026-04-18T16:02:24Z</time></trkpt><trkpt lat="43.46374021517402" lon="10.615786547415848"><ele>473.0</ele><time>2026-04-18T16:02:26Z</time></trkpt><trkpt lat="43.463701443229915" lon="10.615703142386785"><ele>472.99999999999994</ele><time>2026-04-18T16:02:28Z</time></trkpt><trkpt lat="43.46364499523991" lon="10.615595719871774"><ele>473.0</ele><time>2026-04-18T16:02:30Z</time></trkpt><trkpt lat="43.46358059440382" lon="10.615482261923665"><ele>473.0</ele><time>2026-04-18T16:02:32Z</time></trkpt><trkpt lat="43.463511378633946" lon="10.615398564320053"><ele>473.0</ele><time>2026-04-18T16:02:34Z</time></trkpt><trkpt lat="43.46347635663148" lon="10.615318121904757"><ele>472.99999999999994</ele><time>2026-04-18T16:02:36Z</time></trkpt><trkpt lat="43.46343405142141" lon="10.615232096280646"><ele>473.0</ele><time>2026-04-18T16:02:38Z</time></trkpt><trkpt lat="43.46339321675698" lon="10.6151601208037"><ele>473.0</ele><time>2026-04-18T16:02:40Z</time></trkpt><trkpt lat="43.463302465253484" lon="10.615144759207105"><ele>472.99999999999994</ele><time>2026-04-18T16:02:42Z</time></trkpt><trkpt lat="43.463228969745195" lon="10.61519666049075"><ele>472.99999999999994</ele><time>2026-04-18T16:02:44Z</time></trkpt><trkpt lat="43.46322762943213" lon="10.615346975120152"><ele>473.0</ele><time>2026-04-18T16:02:46Z</time></trkpt><trkpt lat="43.46323719840821" lon="10.615510302509568"><ele>473.0</ele><time>2026-04-18T16:02:48Z</time></trkpt><trkpt lat="43.463232322309004" lon="10.61560448855446"><ele>472.99999999999994</ele><time>2026-04-18T16:02:49Z</time></trkpt><trkpt lat="43.463236683481945" lon="10.615695462939877"><ele>473.0</ele><time>2026-04-18T16:02:50Z</time></trkpt><trkpt lat="43.46323720160843" lon="10.615785451158374"><ele>473.0</ele><time>2026-04-18T16:02:51Z</time></trkpt><trkpt lat="43.463224266587" lon="10.61592891664498"><ele>473.0</ele><time>2026-04-18T16:02:53Z</time></trkpt><trkpt lat="43.46323880035726" lon="10.61604203784003"><ele>472.99999999999994</ele><time>2026-04-18T16:02:55Z</time></trkpt><trkpt lat="43.463257623011295" lon="10.616193715021717"><ele>473.0</ele><time>2026-04-18T16:02:57Z</time></trkpt><trkpt lat="43.46326428266103" lon="10.616340461354639"><ele>471.0</ele><time>2026-04-18T16:02:59Z</time></trkpt><trkpt lat="43.46322163495135" lon="10.616466990559701"><ele>468.99999999999994</ele><time>2026-04-18T16:03:01Z</time></trkpt><trkpt lat="43.46316930735961" lon="10.616593820079446"><ele>466.99999999999994</ele><time>2026-04-18T16:03:03Z</time></trkpt><trkpt lat="43.463107376008075" lon="10.616684094254405"><ele>465.0</ele><time>2026-04-18T16:03:05Z</time></trkpt><trkpt lat="43.46304176627257" lon="10.616779435716373"><ele>463.0</ele><time>2026-04-18T16:03:07Z</time></trkpt><trkpt lat="43.46293803262793" lon="10.616828316178404"><ele>463.0</ele><time>2026-04-18T16:03:09Z</time></trkpt><trkpt lat="43.462843795961724" lon="10.61685535457772"><ele>462.99999999999994</ele><time>2026-04-18T16:03:11Z</time></trkpt><trkpt lat="43.462758434532816" lon="10.616834359411696"><ele>462.99999999999994</ele><time>2026-04-18T16:03:13Z</time></trkpt><trkpt lat="43.46267307638487" lon="10.616790304105702"><ele>463.0</ele><time>2026-04-18T16:03:15Z</time></trkpt><trkpt lat="43.46259669984068" lon="10.616722619189757"><ele>463.0</ele><time>2026-04-18T16:03:17Z</time></trkpt><trkpt lat="43.4625212050621" lon="10.616639042285614"><ele>463.0</ele><time>2026-04-18T16:03:19Z</time></trkpt><trkpt lat="43.462476455604246" lon="10.616516806956136"><ele>462.99999999999994</ele><time>2026-04-18T16:03:21Z</time></trkpt><trkpt lat="43.46242206468249" lon="10.61640994780142"><ele>462.99999999999994</ele><time>2026-04-18T16:03:23Z</time></trkpt><trkpt lat="43.462358041405956" lon="10.616331334183178"><ele>463.0</ele><time>2026-04-18T16:03:25Z</time></trkpt><trkpt lat="43.462306184976036" lon="10.616235823082302"><ele>463.0</ele><time>2026-04-18T16:03:27Z</time></trkpt><trkpt lat="43.4622521042002" lon="10.616135859878835"><ele>464.1666666666667</ele><time>2026-04-18T16:03:29Z</time></trkpt><trkpt lat="43.46220168031954" lon="10.616073579013053"><ele>465.33333333333337</ele><time>2026-04-18T16:03:30.999Z</time></trkpt><trkpt lat="43.4621388649694" lon="10.616061518820018"><ele>466.5</ele><time>2026-04-18T16:03:33Z</time></trkpt><trkpt lat="43.46206037870858" lon="10.616100780111049"><ele>467.66666666666663</ele><time>2026-04-18T16:03:36Z</time></trkpt><trkpt lat="43.46200060375595" lon="10.616155646431128"><ele>468.8333333333333</ele><time>2026-04-18T16:03:39Z</time></trkpt><trkpt lat="43.46193898317592" lon="10.616235346009924"><ele>470.0</ele><time>2026-04-18T16:03:41Z</time></trkpt><trkpt lat="43.46185299670859" lon="10.616364853453096"><ele>470.0</ele><time>2026-04-18T16:03:43Z</time></trkpt><trkpt lat="43.461786419551146" lon="10.616488214536151"><ele>470.0</ele><time>2026-04-18T16:03:45Z</time></trkpt><trkpt lat="43.461731701498" lon="10.616602386332902"><ele>470.0</ele><time>2026-04-18T16:03:47Z</time></trkpt><trkpt lat="43.46166915521076" lon="10.616763660208745"><ele>470.0</ele><time>2026-04-18T16:03:49Z</time></trkpt><trkpt lat="43.46164328223253" lon="10.616854310815242"><ele>470.0</ele><time>2026-04-18T16:03:50Z</time></trkpt><trkpt lat="43.461614695014134" lon="10.61693928469307"><ele>466.2</ele><time>2026-04-18T16:03:51Z</time></trkpt><trkpt lat="43.46158178750902" lon="10.617032039694125"><ele>462.4</ele><time>2026-04-18T16:03:52Z</time></trkpt><trkpt lat="43.46151698824397" lon="10.61716774412943"><ele>458.6</ele><time>2026-04-18T16:03:54Z</time></trkpt><trkpt lat="43.461435928485564" lon="10.617256448510553"><ele>454.8</ele><time>2026-04-18T16:03:56Z</time></trkpt><trkpt lat="43.46136695526868" lon="10.61732586864365"><ele>451.0</ele><time>2026-04-18T16:03:58Z</time></trkpt><trkpt lat="43.46129586011909" lon="10.617375839027295"><ele>456.1666666666667</ele><time>2026-04-18T16:04:00Z</time></trkpt><trkpt lat="43.461238531566806" lon="10.61746403191837"><ele>461.33333333333337</ele><time>2026-04-18T16:04:02Z</time></trkpt><trkpt lat="43.46116738852084" lon="10.61754578715378"><ele>466.5</ele><time>2026-04-18T16:04:04Z</time></trkpt><trkpt lat="43.46110518561296" lon="10.617650184872922"><ele>471.66666666666663</ele><time>2026-04-18T16:04:06Z</time></trkpt><trkpt lat="43.461076531544926" lon="10.617756885113504"><ele>476.8333333333333</ele><time>2026-04-18T16:04:09Z</time></trkpt><trkpt lat="43.46107211789455" lon="10.617845928883172"><ele>482.0</ele><time>2026-04-18T16:04:11Z</time></trkpt><trkpt lat="43.461097754179605" lon="10.61796500271759"><ele>482.0</ele><time>2026-04-18T16:04:13Z</time></trkpt><trkpt lat="43.46110703671776" lon="10.618095533753603"><ele>482.00000000000006</ele><time>2026-04-18T16:04:15Z</time></trkpt><trkpt lat="43.461097357993026" lon="10.618263010827542"><ele>482.00000000000006</ele><time>2026-04-18T16:04:17Z</time></trkpt><trkpt lat="43.46108205448186" lon="10.618407178403015"><ele>482.0</ele><time>2026-04-18T16:04:19Z</time></trkpt><trkpt lat="43.461055131840986" lon="10.61854677150344"><ele>482.0</ele><time>2026-04-18T16:04:21Z</time></trkpt><trkpt lat="43.46103063853948" lon="10.618667713792867"><ele>478.0</ele><time>2026-04-18T16:04:23.001Z</time></trkpt><trkpt lat="43.46096878192883" lon="10.618794803918723"><ele>474.0</ele><time>2026-04-18T16:04:25.001Z</time></trkpt><trkpt lat="43.46089107167378" lon="10.61890298813531"><ele>470.0</ele><time>2026-04-18T16:04:27.001Z</time></trkpt><trkpt lat="43.46080966609877" lon="10.619011600529166"><ele>466.0</ele><time>2026-04-18T16:04:29.001Z</time></trkpt><trkpt lat="43.460724946323154" lon="10.619128845284827"><ele>466.0</ele><time>2026-04-18T16:04:31.001Z</time></trkpt><trkpt lat="43.46065709795106" lon="10.619221551809842"><ele>466.0</ele><time>2026-04-18T16:04:34.001Z</time></trkpt><trkpt lat="43.46060550612656" lon="10.619310258587136"><ele>466.0</ele><time>2026-04-18T16:04:36.001Z</time></trkpt><trkpt lat="43.4605400505741" lon="10.619401103202877"><ele>466.0</ele><time>2026-04-18T16:04:38.001Z</time></trkpt><trkpt lat="43.46051200417908" lon="10.6195252660205"><ele>466.0</ele><time>2026-04-18T16:04:40.001Z</time></trkpt><trkpt lat="43.46049270429402" lon="10.619684377545354"><ele>467.33333333333337</ele><time>2026-04-18T16:04:42.001Z</time></trkpt><trkpt lat="43.460470455782236" lon="10.619829584671807"><ele>468.6666666666667</ele><time>2026-04-18T16:04:44.001Z</time></trkpt><trkpt lat="43.460450485180175" lon="10.619952894437366"><ele>470.0</ele><time>2026-04-18T16:04:46.001Z</time></trkpt><trkpt lat="43.4604230798697" lon="10.620069992838705"><ele>471.33333333333337</ele><time>2026-04-18T16:04:48.001Z</time></trkpt><trkpt lat="43.46039303726729" lon="10.620166530215378"><ele>472.6666666666667</ele><time>2026-04-18T16:04:50.001Z</time></trkpt><trkpt lat="43.460364253539645" lon="10.620255145315697"><ele>474.0</ele><time>2026-04-18T16:04:52.001Z</time></trkpt><trkpt lat="43.460335998911994" lon="10.620343076875551"><ele>474.0</ele><time>2026-04-18T16:04:54.001Z</time></trkpt><trkpt lat="43.46030632248061" lon="10.620441683256367"><ele>474.0</ele><time>2026-04-18T16:04:56.001Z</time></trkpt><trkpt lat="43.46029313247882" lon="10.620555606342018"><ele>474.0</ele><time>2026-04-18T16:04:58.001Z</time></trkpt><trkpt lat="43.460265023508214" lon="10.62066101551628"><ele>474.0</ele><time>2026-04-18T16:05:00.001Z</time></trkpt><trkpt lat="43.460226178707074" lon="10.620789949233282"><ele>474.0</ele><time>2026-04-18T16:05:02.001Z</time></trkpt><trkpt lat="43.46017981272284" lon="10.620914971428965"><ele>474.0</ele><time>2026-04-18T16:05:04.001Z</time></trkpt><trkpt lat="43.4601426394839" lon="10.621053594504566"><ele>470.6</ele><time>2026-04-18T16:05:06.001Z</time></trkpt><trkpt lat="43.46009674870794" lon="10.621200652773526"><ele>467.2</ele><time>2026-04-18T16:05:08.001Z</time></trkpt><trkpt lat="43.46004593390831" lon="10.621345212869231"><ele>463.80000000000007</ele><time>2026-04-18T16:05:10.001Z</time></trkpt><trkpt lat="43.45998557559639" lon="10.621479876648563"><ele>460.40000000000003</ele><time>2026-04-18T16:05:12.001Z</time></trkpt><trkpt lat="43.45994182980886" lon="10.621605200081648"><ele>457.0</ele><time>2026-04-18T16:05:14.001Z</time></trkpt><trkpt lat="43.45989833858435" lon="10.621744975505067"><ele>457.0</ele><time>2026-04-18T16:05:16.001Z</time></trkpt><trkpt lat="43.459834412138974" lon="10.621868512433071"><ele>457.00000000000006</ele><time>2026-04-18T16:05:18.001Z</time></trkpt><trkpt lat="43.45977757409129" lon="10.622004544827078"><ele>457.00000000000006</ele><time>2026-04-18T16:05:20.001Z</time></trkpt><trkpt lat="43.459735266074404" lon="10.62210425997248"><ele>457.0</ele><time>2026-04-18T16:05:22.001Z</time></trkpt><trkpt lat="43.45969317402833" lon="10.622216788173379"><ele>457.0</ele><time>2026-04-18T16:05:25.001Z</time></trkpt><trkpt lat="43.4596366143925" lon="10.62228789252789"><ele>454.6666666666667</ele><time>2026-04-18T16:05:27.001Z</time></trkpt><trkpt lat="43.45958033698564" lon="10.62235578466573"><ele>452.33333333333337</ele><time>2026-04-18T16:05:29.001Z</time></trkpt><trkpt lat="43.459494322319415" lon="10.622366516502192"><ele>450.0</ele><time>2026-04-18T16:05:31.001Z</time></trkpt><trkpt lat="43.4594169303459" lon="10.622363484361985"><ele>447.66666666666663</ele><time>2026-04-18T16:05:33.001Z</time></trkpt><trkpt lat="43.45933306579001" lon="10.622370776999709"><ele>445.3333333333333</ele><time>2026-04-18T16:05:35Z</time></trkpt><trkpt lat="43.459233891940855" lon="10.622352406402655"><ele>443.0</ele><time>2026-04-18T16:05:37Z</time></trkpt><trkpt lat="43.45913164236242" lon="10.622321589198966"><ele>442.99999999999994</ele><time>2026-04-18T16:05:39Z</time></trkpt><trkpt lat="43.45903909271782" lon="10.622296904137297"><ele>443.0</ele><time>2026-04-18T16:05:41Z</time></trkpt><trkpt lat="43.458956225919" lon="10.622268752789187"><ele>443.0</ele><time>2026-04-18T16:05:43Z</time></trkpt><trkpt lat="43.458896880549226" lon="10.622212943826524"><ele>443.0</ele><time>2026-04-18T16:05:45Z</time></trkpt><trkpt lat="43.45883216184379" lon="10.622156569053605"><ele>442.99999999999994</ele><time>2026-04-18T16:05:47Z</time></trkpt><trkpt lat="43.458792066904465" lon="10.62207892414471"><ele>443.0</ele><time>2026-04-18T16:05:50Z</time></trkpt><trkpt lat="43.45874748120563" lon="10.62197443388293"><ele>441.3333333333333</ele><time>2026-04-18T16:05:53Z</time></trkpt><trkpt lat="43.458691610224264" lon="10.621905812164547"><ele>439.66666666666663</ele><time>2026-04-18T16:05:55Z</time></trkpt><trkpt lat="43.45862298235821" lon="10.621818232376166"><ele>438.0</ele><time>2026-04-18T16:05:57Z</time></trkpt><trkpt lat="43.45856384755621" lon="10.621741140778422"><ele>436.33333333333337</ele><time>2026-04-18T16:05:59Z</time></trkpt><trkpt lat="43.45851168495039" lon="10.621660792963736"><ele>434.6666666666667</ele><time>2026-04-18T16:06:02Z</time></trkpt><trkpt lat="43.458450272086935" lon="10.621569423644628"><ele>433.0</ele><time>2026-04-18T16:06:05Z</time></trkpt><trkpt lat="43.458404291926804" lon="10.621497043704462"><ele>433.00000000000006</ele><time>2026-04-18T16:06:07Z</time></trkpt><trkpt lat="43.45836700746427" lon="10.621397280498792"><ele>433.0</ele><time>2026-04-18T16:06:09Z</time></trkpt><trkpt lat="43.45833387327669" lon="10.62130906565574"><ele>433.0</ele><time>2026-04-18T16:06:11Z</time></trkpt><trkpt lat="43.45829795897692" lon="10.621204067314645"><ele>433.0</ele><time>2026-04-18T16:06:13Z</time></trkpt><trkpt lat="43.45825479369942" lon="10.621109215940894"><ele>433.00000000000006</ele><time>2026-04-18T16:06:16Z</time></trkpt><trkpt lat="43.458223074343" lon="10.620997622988906"><ele>433.0</ele><time>2026-04-18T16:06:18Z</time></trkpt><trkpt lat="43.45820007316376" lon="10.620892478388841"><ele>435.59999999999997</ele><time>2026-04-18T16:06:19Z</time></trkpt><trkpt lat="43.45818986732628" lon="10.620796535437382"><ele>438.19999999999993</ele><time>2026-04-18T16:06:20.001Z</time></trkpt><trkpt lat="43.45816808781047" lon="10.62065878990163"><ele>440.8</ele><time>2026-04-18T16:06:22.001Z</time></trkpt><trkpt lat="43.45814437495729" lon="10.62047801784353"><ele>443.4</ele><time>2026-04-18T16:06:24.001Z</time></trkpt><trkpt lat="43.45814070527935" lon="10.620381277923821"><ele>446.0</ele><time>2026-04-18T16:06:25.001Z</time></trkpt><trkpt lat="43.458156526317225" lon="10.620214771398416"><ele>446.4</ele><time>2026-04-18T16:06:27.001Z</time></trkpt><trkpt lat="43.45817574552871" lon="10.62012278571433"><ele>446.8</ele><time>2026-04-18T16:06:28.001Z</time></trkpt><trkpt lat="43.45822653930817" lon="10.619989868450368"><ele>447.19999999999993</ele><time>2026-04-18T16:06:30.001Z</time></trkpt><trkpt lat="43.45826321412227" lon="10.619831437442263"><ele>447.59999999999997</ele><time>2026-04-18T16:06:32.001Z</time></trkpt><trkpt lat="43.45827535859555" lon="10.619684964968666"><ele>448.0</ele><time>2026-04-18T16:06:34.001Z</time></trkpt><trkpt lat="43.458272045606556" lon="10.61957618156192"><ele>447.7142857142857</ele><time>2026-04-18T16:06:36.001Z</time></trkpt><trkpt lat="43.4582777202031" lon="10.619478266201376"><ele>447.42857142857144</ele><time>2026-04-18T16:06:38.001Z</time></trkpt><trkpt lat="43.45828392032771" lon="10.619375760954098"><ele>447.1428571428571</ele><time>2026-04-18T16:06:40.001Z</time></trkpt><trkpt lat="43.458294808741044" lon="10.619283822808386"><ele>446.8571428571429</ele><time>2026-04-18T16:06:43.001Z</time></trkpt><trkpt lat="43.458287612379614" lon="10.619171711257064"><ele>446.57142857142856</ele><time>2026-04-18T16:06:46.001Z</time></trkpt><trkpt lat="43.45829302399913" lon="10.619073403529214"><ele>446.2857142857143</ele><time>2026-04-18T16:06:49.001Z</time></trkpt><trkpt lat="43.458287326072885" lon="10.618969389551804"><ele>446.0</ele><time>2026-04-18T16:06:51.001Z</time></trkpt><trkpt lat="43.45826170553275" lon="10.618826940540956"><ele>446.0</ele><time>2026-04-18T16:06:53.001Z</time></trkpt><trkpt lat="43.45823622614219" lon="10.618696620748398"><ele>446.0</ele><time>2026-04-18T16:06:55.001Z</time></trkpt><trkpt lat="43.45819787396722" lon="10.618597579782167"><ele>446.0</ele><time>2026-04-18T16:06:57.001Z</time></trkpt><trkpt lat="43.458144797166966" lon="10.618478978741678"><ele>446.0</ele><time>2026-04-18T16:06:59.001Z</time></trkpt><trkpt lat="43.458096903163465" lon="10.618374061178493"><ele>446.0</ele><time>2026-04-18T16:07:01.001Z</time></trkpt><trkpt lat="43.45804102704992" lon="10.618273311491972"><ele>447.16666666666663</ele><time>2026-04-18T16:07:03.001Z</time></trkpt><trkpt lat="43.457994476594166" lon="10.618163557028932"><ele>448.3333333333333</ele><time>2026-04-18T16:07:05.001Z</time></trkpt><trkpt lat="43.457961468043415" lon="10.618035335616728"><ele>449.5</ele><time>2026-04-18T16:07:07.001Z</time></trkpt><trkpt lat="43.45793028348079" lon="10.617930153188652"><ele>450.66666666666663</ele><time>2026-04-18T16:07:09.001Z</time></trkpt><trkpt lat="43.457905807031864" lon="10.617847771452375"><ele>451.8333333333333</ele><time>2026-04-18T16:07:11.001Z</time></trkpt><trkpt lat="43.45788612220115" lon="10.617724896001741"><ele>453.0</ele><time>2026-04-18T16:07:14.001Z</time></trkpt><trkpt lat="43.4578512812872" lon="10.617637118411936"><ele>448.6666666666667</ele><time>2026-04-18T16:07:16.001Z</time></trkpt><trkpt lat="43.45783498777067" lon="10.617551500626467"><ele>444.33333333333337</ele><time>2026-04-18T16:07:18.001Z</time></trkpt><trkpt lat="43.45781678339991" lon="10.617417403347892"><ele>440.0</ele><time>2026-04-18T16:07:21.001Z</time></trkpt><trkpt lat="43.457809622817685" lon="10.617314997116033"><ele>435.6666666666667</ele><time>2026-04-18T16:07:26.001Z</time></trkpt><trkpt lat="43.45780652124739" lon="10.617209894408928"><ele>431.33333333333337</ele><time>2026-04-18T16:07:30.001Z</time></trkpt><trkpt lat="43.45780592950423" lon="10.617122616369649"><ele>427.0</ele><time>2026-04-18T16:08:57.001Z</time></trkpt><trkpt lat="43.45780812719086" lon="10.61701208268611"><ele>426.83333333333337</ele><time>2026-04-18T16:09:13.001Z</time></trkpt><trkpt lat="43.45782002387848" lon="10.616898383727134"><ele>426.6666666666667</ele><time>2026-04-18T16:09:17.001Z</time></trkpt><trkpt lat="43.457841012373095" lon="10.616776557908587"><ele>426.5</ele><time>2026-04-18T16:09:20.001Z</time></trkpt><trkpt lat="43.457861087963764" lon="10.61666885492791"><ele>426.33333333333337</ele><time>2026-04-18T16:09:22.001Z</time></trkpt><trkpt lat="43.45787620111263" lon="10.61654813411876"><ele>426.1666666666667</ele><time>2026-04-18T16:09:24.001Z</time></trkpt><trkpt lat="43.45788969987445" lon="10.616426060922793"><ele>426.0</ele><time>2026-04-18T16:09:26.001Z</time></trkpt><trkpt lat="43.45786838611359" lon="10.616316799092134"><ele>426.0</ele><time>2026-04-18T16:09:28.001Z</time></trkpt><trkpt lat="43.45783240995602" lon="10.616220624850243"><ele>426.0</ele><time>2026-04-18T16:09:30.001Z</time></trkpt><trkpt lat="43.457800169551454" lon="10.616109138084305"><ele>426.0</ele><time>2026-04-18T16:09:32.001Z</time></trkpt><trkpt lat="43.4577549071797" lon="10.61597764358189"><ele>426.0</ele><time>2026-04-18T16:09:34.001Z</time></trkpt><trkpt lat="43.45770953069458" lon="10.615876092524793"><ele>426.0</ele><time>2026-04-18T16:09:36.001Z</time></trkpt><trkpt lat="43.45766853043193" lon="10.615782270732819"><ele>426.0</ele><time>2026-04-18T16:09:38.001Z</time></trkpt><trkpt lat="43.45761272522835" lon="10.615680776260874"><ele>426.8333333333333</ele><time>2026-04-18T16:09:40.001Z</time></trkpt><trkpt lat="43.45756857970735" lon="10.61559706408818"><ele>427.66666666666663</ele><time>2026-04-18T16:09:42.001Z</time></trkpt><trkpt lat="43.45753087699572" lon="10.615510938292367"><ele>428.5</ele><time>2026-04-18T16:09:44.001Z</time></trkpt><trkpt lat="43.45750135156656" lon="10.615401986623459"><ele>429.3333333333333</ele><time>2026-04-18T16:09:46.001Z</time></trkpt><trkpt lat="43.45749431197582" lon="10.615297717761617"><ele>430.16666666666663</ele><time>2026-04-18T16:09:48.001Z</time></trkpt><trkpt lat="43.45747055964616" lon="10.615202943393681"><ele>431.0</ele><time>2026-04-18T16:09:50.001Z</time></trkpt><trkpt lat="43.457457080019374" lon="10.615087376822647"><ele>431.8333333333333</ele><time>2026-04-18T16:09:52.001Z</time></trkpt><trkpt lat="43.457450199929056" lon="10.614978712881925"><ele>432.66666666666663</ele><time>2026-04-18T16:09:54.001Z</time></trkpt><trkpt lat="43.4574534231825" lon="10.614847761932742"><ele>433.5</ele><time>2026-04-18T16:09:56.001Z</time></trkpt><trkpt lat="43.45742169552547" lon="10.614745429064358"><ele>434.33333333333337</ele><time>2026-04-18T16:09:58.001Z</time></trkpt><trkpt lat="43.45742695026128" lon="10.614642662742748"><ele>435.1666666666667</ele><time>2026-04-18T16:10:00.001Z</time></trkpt><trkpt lat="43.45742759663811" lon="10.614512412527619"><ele>436.0</ele><time>2026-04-18T16:10:02.001Z</time></trkpt><trkpt lat="43.45743039821241" lon="10.614390934838502"><ele>436.20000000000005</ele><time>2026-04-18T16:10:04.001Z</time></trkpt><trkpt lat="43.45743639523967" lon="10.614255398066893"><ele>436.40000000000003</ele><time>2026-04-18T16:10:06.001Z</time></trkpt><trkpt lat="43.45744365528354" lon="10.614120184790446"><ele>436.6</ele><time>2026-04-18T16:10:08.001Z</time></trkpt><trkpt lat="43.457453694542096" lon="10.613988552832366"><ele>436.8</ele><time>2026-04-18T16:10:10.001Z</time></trkpt><trkpt lat="43.45745851077088" lon="10.613863603711653"><ele>437.0</ele><time>2026-04-18T16:10:12.001Z</time></trkpt><trkpt lat="43.457478486539124" lon="10.613721212312475"><ele>435.40000000000003</ele><time>2026-04-18T16:10:14.001Z</time></trkpt><trkpt lat="43.457504768786066" lon="10.613576834636868"><ele>433.80000000000007</ele><time>2026-04-18T16:10:16.001Z</time></trkpt><trkpt lat="43.457553980818496" lon="10.613446455256277"><ele>432.2</ele><time>2026-04-18T16:10:18.001Z</time></trkpt><trkpt lat="43.457598217395315" lon="10.613317278009646"><ele>430.6</ele><time>2026-04-18T16:10:20.001Z</time></trkpt><trkpt lat="43.45765538893647" lon="10.61321863740057"><ele>429.0</ele><time>2026-04-18T16:10:22.001Z</time></trkpt><trkpt lat="43.457709391497026" lon="10.613149241377592"><ele>429.0</ele><time>2026-04-18T16:10:24.001Z</time></trkpt><trkpt lat="43.45776852899024" lon="10.613083690093058"><ele>429.0</ele><time>2026-04-18T16:10:26.001Z</time></trkpt><trkpt lat="43.45784289568872" lon="10.613041554038741"><ele>429.0</ele><time>2026-04-18T16:10:28.001Z</time></trkpt><trkpt lat="43.457910157325145" lon="10.612995069788628"><ele>429.0</ele><time>2026-04-18T16:10:30.001Z</time></trkpt><trkpt lat="43.457991524931394" lon="10.612948480586011"><ele>429.0</ele><time>2026-04-18T16:10:32.001Z</time></trkpt><trkpt lat="43.458063534534936" lon="10.61284458170501"><ele>429.0</ele><time>2026-04-18T16:10:34.001Z</time></trkpt><trkpt lat="43.458093433259016" lon="10.612753117576325"><ele>432.1666666666667</ele><time>2026-04-18T16:10:37.001Z</time></trkpt><trkpt lat="43.45811691987379" lon="10.612652997988143"><ele>435.33333333333337</ele><time>2026-04-18T16:10:40.001Z</time></trkpt><trkpt lat="43.45805697797266" lon="10.6125668631423"><ele>438.5</ele><time>2026-04-18T16:13:00.001Z</time></trkpt><trkpt lat="43.45809109766671" lon="10.61247871489035"><ele>441.6666666666667</ele><time>2026-04-18T16:14:30.001Z</time></trkpt><trkpt lat="43.45811605309075" lon="10.612348483553582"><ele>444.83333333333337</ele><time>2026-04-18T16:14:33.001Z</time></trkpt><trkpt lat="43.45812049845142" lon="10.612236737049152"><ele>448.0</ele><time>2026-04-18T16:14:35.001Z</time></trkpt><trkpt lat="43.45812496900589" lon="10.612140051164943"><ele>448.00000000000006</ele><time>2026-04-18T16:14:37.001Z</time></trkpt><trkpt lat="43.45812906945189" lon="10.612028385150914"><ele>448.0</ele><time>2026-04-18T16:14:39.001Z</time></trkpt><trkpt lat="43.45813413321663" lon="10.611936823506419"><ele>448.0</ele><time>2026-04-18T16:14:41.001Z</time></trkpt><trkpt lat="43.458160937191344" lon="10.611821078443922"><ele>448.0</ele><time>2026-04-18T16:14:43.001Z</time></trkpt><trkpt lat="43.458208396783874" lon="10.611738349962616"><ele>448.00000000000006</ele><time>2026-04-18T16:14:45.001Z</time></trkpt><trkpt lat="43.458274906500264" lon="10.611799006198316"><ele>448.0</ele><time>2026-04-18T16:14:46.001Z</time></trkpt><trkpt lat="43.4583593210155" lon="10.611725713618831"><ele>446.42857142857144</ele><time>2026-04-18T16:14:48.001Z</time></trkpt><trkpt lat="43.45840516095773" lon="10.611659512944879"><ele>444.8571428571429</ele><time>2026-04-18T16:14:50.001Z</time></trkpt><trkpt lat="43.45845478947351" lon="10.611586275642559"><ele>443.2857142857143</ele><time>2026-04-18T16:14:53.001Z</time></trkpt><trkpt lat="43.45848679523473" lon="10.611510671107093"><ele>441.7142857142857</ele><time>2026-04-18T16:15:01.001Z</time></trkpt><trkpt lat="43.45854757291522" lon="10.61145441799482"><ele>440.14285714285717</ele><time>2026-04-18T16:15:05.001Z</time></trkpt><trkpt lat="43.45859273605063" lon="10.611392196140688"><ele>438.57142857142856</ele><time>2026-04-18T16:15:10.001Z</time></trkpt><trkpt lat="43.45854699128573" lon="10.611455219285777"><ele>437.0</ele><time>2026-04-18T16:15:23.001Z</time></trkpt><trkpt lat="43.45850235132671" lon="10.611519672939737"><ele>436.99999999999994</ele><time>2026-04-18T16:15:44.001Z</time></trkpt><trkpt lat="43.45845758326654" lon="10.611584865514507"><ele>437.0</ele><time>2026-04-18T16:16:05.002Z</time></trkpt><trkpt lat="43.458405382167" lon="10.611659214497584"><ele>437.0</ele><time>2026-04-18T16:16:10.002Z</time></trkpt><trkpt lat="43.45835853887007" lon="10.611720591828389"><ele>437.0</ele><time>2026-04-18T16:16:13.002Z</time></trkpt><trkpt lat="43.45829612401875" lon="10.611785072726798"><ele>436.99999999999994</ele><time>2026-04-18T16:16:16.002Z</time></trkpt><trkpt lat="43.45821563425717" lon="10.611828371044549"><ele>437.0</ele><time>2026-04-18T16:16:19.002Z</time></trkpt><trkpt lat="43.458167278066334" lon="10.611920129895681"><ele>436.99999999999994</ele><time>2026-04-18T16:16:22.002Z</time></trkpt><trkpt lat="43.45812109964313" lon="10.611979212793495"><ele>437.0</ele><time>2026-04-18T16:16:24.001Z</time></trkpt><trkpt lat="43.45813331049176" lon="10.612146631658545"><ele>437.0</ele><time>2026-04-18T16:16:26.001Z</time></trkpt><trkpt lat="43.45817520297138" lon="10.612260850724585"><ele>437.0</ele><time>2026-04-18T16:16:28.001Z</time></trkpt><trkpt lat="43.45817902565511" lon="10.612366849122399"><ele>436.99999999999994</ele><time>2026-04-18T16:16:30.001Z</time></trkpt><trkpt lat="43.45815775702081" lon="10.612481954274154"><ele>437.0</ele><time>2026-04-18T16:16:32.001Z</time></trkpt><trkpt lat="43.45813092014177" lon="10.612590642901463"><ele>438.8333333333333</ele><time>2026-04-18T16:16:34.001Z</time></trkpt><trkpt lat="43.45810726348528" lon="10.612701693707232"><ele>440.66666666666663</ele><time>2026-04-18T16:16:36.001Z</time></trkpt><trkpt lat="43.45807801027001" lon="10.612808914823974"><ele>442.5</ele><time>2026-04-18T16:16:38.001Z</time></trkpt><trkpt lat="43.4580491991293" lon="10.612913144395327"><ele>444.33333333333337</ele><time>2026-04-18T16:16:40.001Z</time></trkpt><trkpt lat="43.45802458184417" lon="10.613002203684132"><ele>446.1666666666667</ele><time>2026-04-18T16:16:42.001Z</time></trkpt><trkpt lat="43.45799373684193" lon="10.613113793331062"><ele>448.0</ele><time>2026-04-18T16:16:45.001Z</time></trkpt><trkpt lat="43.45796909836358" lon="10.613202929294442"><ele>446.1666666666667</ele><time>2026-04-18T16:16:47.001Z</time></trkpt><trkpt lat="43.457945383315455" lon="10.613288724517487"><ele>444.33333333333337</ele><time>2026-04-18T16:16:49.001Z</time></trkpt><trkpt lat="43.45791042340054" lon="10.613415200893256"><ele>442.5</ele><time>2026-04-18T16:16:52.001Z</time></trkpt><trkpt lat="43.45786503911804" lon="10.613513813340745"><ele>440.66666666666663</ele><time>2026-04-18T16:16:54.001Z</time></trkpt><trkpt lat="43.45780174572043" lon="10.613610140667737"><ele>438.8333333333333</ele><time>2026-04-18T16:16:56.001Z</time></trkpt><trkpt lat="43.457739649040924" lon="10.61369916476815"><ele>437.0</ele><time>2026-04-18T16:16:58.001Z</time></trkpt><trkpt lat="43.45767954796671" lon="10.613790902752632"><ele>437.0</ele><time>2026-04-18T16:17:00.001Z</time></trkpt><trkpt lat="43.45746306581938" lon="10.61373670154526"><ele>437.0</ele><time>2026-04-18T16:17:01.001Z</time></trkpt><trkpt lat="43.45744391226545" lon="10.613841594389795"><ele>437.0</ele><time>2026-04-18T16:17:03.001Z</time></trkpt><trkpt lat="43.457428899727915" lon="10.613954873738464"><ele>437.0</ele><time>2026-04-18T16:17:05.001Z</time></trkpt><trkpt lat="43.45741957518975" lon="10.61407739590858"><ele>437.0</ele><time>2026-04-18T16:17:07.001Z</time></trkpt><trkpt lat="43.457416845589044" lon="10.614201152102709"><ele>437.00000000000006</ele><time>2026-04-18T16:17:09.001Z</time></trkpt><trkpt lat="43.45741629720034" lon="10.614321564308678"><ele>437.00000000000006</ele><time>2026-04-18T16:17:11.001Z</time></trkpt><trkpt lat="43.45742948766321" lon="10.614459242428024"><ele>437.0</ele><time>2026-04-18T16:17:13.001Z</time></trkpt><trkpt lat="43.45744511190007" lon="10.614584405230843"><ele>437.0</ele><time>2026-04-18T16:17:15.001Z</time></trkpt><trkpt lat="43.457467238436855" lon="10.614693486953039"><ele>436.8333333333333</ele><time>2026-04-18T16:17:17.001Z</time></trkpt><trkpt lat="43.457494965637515" lon="10.61478356090763"><ele>436.66666666666663</ele><time>2026-04-18T16:17:19.001Z</time></trkpt><trkpt lat="43.45752439051535" lon="10.614880563394841"><ele>436.5</ele><time>2026-04-18T16:17:21.001Z</time></trkpt><trkpt lat="43.45752357162289" lon="10.614994127584525"><ele>436.33333333333337</ele><time>2026-04-18T16:17:23.001Z</time></trkpt><trkpt lat="43.457522323989224" lon="10.6151078726177"><ele>436.1666666666667</ele><time>2026-04-18T16:17:25.001Z</time></trkpt><trkpt lat="43.457518130591964" lon="10.615223152045896"><ele>436.0</ele><time>2026-04-18T16:17:27.001Z</time></trkpt><trkpt lat="43.457533545100816" lon="10.615330912037066"><ele>435.1666666666667</ele><time>2026-04-18T16:17:29.001Z</time></trkpt><trkpt lat="43.45755503285817" lon="10.61542594747621"><ele>434.33333333333337</ele><time>2026-04-18T16:17:31.001Z</time></trkpt><trkpt lat="43.45758958568315" lon="10.615504480061592"><ele>433.5</ele><time>2026-04-18T16:17:33.001Z</time></trkpt><trkpt lat="43.45764462888552" lon="10.61562662034917"><ele>432.66666666666663</ele><time>2026-04-18T16:17:35.001Z</time></trkpt><trkpt lat="43.45759512012714" lon="10.615750090244816"><ele>431.8333333333333</ele><time>2026-04-18T16:17:36.001Z</time></trkpt><trkpt lat="43.45764216140051" lon="10.61585646479781"><ele>431.0</ele><time>2026-04-18T16:17:38.001Z</time></trkpt><trkpt lat="43.45768767198713" lon="10.615970699669349"><ele>431.0</ele><time>2026-04-18T16:17:40.001Z</time></trkpt><trkpt lat="43.45773875610445" lon="10.616113292201788"><ele>431.0</ele><time>2026-04-18T16:17:42.001Z</time></trkpt><trkpt lat="43.45778566386448" lon="10.616246135299736"><ele>431.0</ele><time>2026-04-18T16:17:44.001Z</time></trkpt><trkpt lat="43.457816714830315" lon="10.61637284209381"><ele>431.0</ele><time>2026-04-18T16:17:46.001Z</time></trkpt><trkpt lat="43.457828720610756" lon="10.61648708496506"><ele>431.0</ele><time>2026-04-18T16:17:48.001Z</time></trkpt><trkpt lat="43.45781885098424" lon="10.616618835976945"><ele>430.20000000000005</ele><time>2026-04-18T16:17:50.001Z</time></trkpt><trkpt lat="43.457794307370094" lon="10.616750509873889"><ele>429.40000000000003</ele><time>2026-04-18T16:17:52.001Z</time></trkpt><trkpt lat="43.457766123443726" lon="10.616914790776892"><ele>428.6</ele><time>2026-04-18T16:17:54.001Z</time></trkpt><trkpt lat="43.45775753752572" lon="10.617036301743445"><ele>427.8</ele><time>2026-04-18T16:17:55.001Z</time></trkpt><trkpt lat="43.457756137784884" lon="10.617146392261539"><ele>427.0</ele><time>2026-04-18T16:17:56.001Z</time></trkpt><trkpt lat="43.45775673779432" lon="10.61723489371747"><ele>427.0</ele><time>2026-04-18T16:17:57.001Z</time></trkpt><trkpt lat="43.4577638607134" lon="10.617389298478265"><ele>427.00000000000006</ele><time>2026-04-18T16:17:59.001Z</time></trkpt><trkpt lat="43.45777836159071" lon="10.61753078085301"><ele>427.00000000000006</ele><time>2026-04-18T16:18:01.001Z</time></trkpt><trkpt lat="43.457803561871785" lon="10.617657385665892"><ele>427.0</ele><time>2026-04-18T16:18:03.001Z</time></trkpt><trkpt lat="43.45783366520815" lon="10.617770841437824"><ele>427.0</ele><time>2026-04-18T16:18:05.001Z</time></trkpt><trkpt lat="43.45787292501817" lon="10.617891485625668"><ele>426.20000000000005</ele><time>2026-04-18T16:18:07.001Z</time></trkpt><trkpt lat="43.45791447477289" lon="10.618007823775844"><ele>425.40000000000003</ele><time>2026-04-18T16:18:09.001Z</time></trkpt><trkpt lat="43.45795938007014" lon="10.61812639686025"><ele>424.6</ele><time>2026-04-18T16:18:11.001Z</time></trkpt><trkpt lat="43.45800941195255" lon="10.618260633029776"><ele>423.79999999999995</ele><time>2026-04-18T16:18:13.001Z</time></trkpt><trkpt lat="43.45806980813016" lon="10.618368928806527"><ele>423.0</ele><time>2026-04-18T16:18:15.001Z</time></trkpt><trkpt lat="43.45811579703234" lon="10.618493584028112"><ele>427.59999999999997</ele><time>2026-04-18T16:18:17.001Z</time></trkpt><trkpt lat="43.458176057698914" lon="10.618607723602189"><ele>432.2</ele><time>2026-04-18T16:18:19.001Z</time></trkpt><trkpt lat="43.458217670033925" lon="10.618747424520421"><ele>436.8</ele><time>2026-04-18T16:18:21.001Z</time></trkpt><trkpt lat="43.45824553683945" lon="10.618858136328637"><ele>441.4</ele><time>2026-04-18T16:18:23.001Z</time></trkpt><trkpt lat="43.45827990324157" lon="10.618982725232316"><ele>446.0</ele><time>2026-04-18T16:18:25.001Z</time></trkpt><trkpt lat="43.458268355214194" lon="10.619087524578259"><ele>445.99999999999994</ele><time>2026-04-18T16:18:27.001Z</time></trkpt><trkpt lat="43.45826397452601" lon="10.619207556013487"><ele>446.0</ele><time>2026-04-18T16:18:30.001Z</time></trkpt><trkpt lat="43.45826201209533" lon="10.619299745333812"><ele>446.0</ele><time>2026-04-18T16:18:32.001Z</time></trkpt><trkpt lat="43.45825731797357" lon="10.61940244077526"><ele>446.0</ele><time>2026-04-18T16:18:34.001Z</time></trkpt><trkpt lat="43.458250060370744" lon="10.61951227072537"><ele>445.99999999999994</ele><time>2026-04-18T16:18:36.001Z</time></trkpt><trkpt lat="43.45824582356105" lon="10.619624527265657"><ele>446.0</ele><time>2026-04-18T16:18:38.001Z</time></trkpt><trkpt lat="43.45821994746479" lon="10.619741835899932"><ele>446.0</ele><time>2026-04-18T16:18:40.001Z</time></trkpt><trkpt lat="43.458192378801606" lon="10.619862453075037"><ele>446.0</ele><time>2026-04-18T16:18:42.001Z</time></trkpt><trkpt lat="43.458167516988446" lon="10.619974847207136"><ele>446.0</ele><time>2026-04-18T16:18:44.001Z</time></trkpt><trkpt lat="43.45814680341692" lon="10.620103189980533"><ele>446.0</ele><time>2026-04-18T16:18:46.001Z</time></trkpt><trkpt lat="43.458103809408634" lon="10.620225736149116"><ele>446.0</ele><time>2026-04-18T16:18:48.001Z</time></trkpt><trkpt lat="43.458112420199825" lon="10.620371101219293"><ele>445.99999999999994</ele><time>2026-04-18T16:18:50.001Z</time></trkpt><trkpt lat="43.458105389028745" lon="10.620537262697022"><ele>446.0</ele><time>2026-04-18T16:18:52.001Z</time></trkpt><trkpt lat="43.458116977738285" lon="10.62063685296593"><ele>446.0</ele><time>2026-04-18T16:18:53.001Z</time></trkpt><trkpt lat="43.45813455055071" lon="10.620734576698757"><ele>446.0</ele><time>2026-04-18T16:18:54.001Z</time></trkpt><trkpt lat="43.45815492285335" lon="10.620830675188234"><ele>445.99999999999994</ele><time>2026-04-18T16:18:55.001Z</time></trkpt><trkpt lat="43.45817728644413" lon="10.620920888574505"><ele>446.0</ele><time>2026-04-18T16:18:56.001Z</time></trkpt><trkpt lat="43.458214409661046" lon="10.621002219476463"><ele>445.99999999999994</ele><time>2026-04-18T16:18:57.001Z</time></trkpt><trkpt lat="43.4582307286836" lon="10.62109343304455"><ele>446.0</ele><time>2026-04-18T16:18:58.001Z</time></trkpt><trkpt lat="43.458256480967485" lon="10.621176159149735"><ele>446.0</ele><time>2026-04-18T16:18:59.001Z</time></trkpt><trkpt lat="43.45830231031329" lon="10.621321598069116"><ele>446.0</ele><time>2026-04-18T16:19:01.001Z</time></trkpt><trkpt lat="43.45835260748037" lon="10.62145421180232"><ele>445.99999999999994</ele><time>2026-04-18T16:19:03.001Z</time></trkpt><trkpt lat="43.45839422773884" lon="10.62155344811109"><ele>446.0</ele><time>2026-04-18T16:19:05.001Z</time></trkpt><trkpt lat="43.45844260474783" lon="10.621655285472011"><ele>445.49999999999994</ele><time>2026-04-18T16:19:08.001Z</time></trkpt><trkpt lat="43.45848707186691" lon="10.621736654582982"><ele>445.0</ele><time>2026-04-18T16:19:10.001Z</time></trkpt><trkpt lat="43.45853630189891" lon="10.621815309460972"><ele>444.5</ele><time>2026-04-18T16:19:12.001Z</time></trkpt><trkpt lat="43.45858743909887" lon="10.62188701662356"><ele>444.0</ele><time>2026-04-18T16:19:14.001Z</time></trkpt><trkpt lat="43.458651479383924" lon="10.621972184605482"><ele>443.49999999999994</ele><time>2026-04-18T16:19:17.001Z</time></trkpt><trkpt lat="43.458720433720664" lon="10.622057395829914"><ele>443.0</ele><time>2026-04-18T16:19:20.001Z</time></trkpt><trkpt lat="43.458784847328864" lon="10.622134867889155"><ele>443.0</ele><time>2026-04-18T16:19:23.001Z</time></trkpt><trkpt lat="43.45885277112045" lon="10.622217647391272"><ele>442.99999999999994</ele><time>2026-04-18T16:19:26.001Z</time></trkpt><trkpt lat="43.45892947746279" lon="10.622298864711116"><ele>442.99999999999994</ele><time>2026-04-18T16:19:28.001Z</time></trkpt><trkpt lat="43.459027208444326" lon="10.622338514456725"><ele>443.0</ele><time>2026-04-18T16:19:30.001Z</time></trkpt><trkpt lat="43.45910896921629" lon="10.622362113268196"><ele>443.0</ele><time>2026-04-18T16:19:32.001Z</time></trkpt><trkpt lat="43.45920230458675" lon="10.622385901832363"><ele>442.99999999999994</ele><time>2026-04-18T16:19:34.001Z</time></trkpt><trkpt lat="43.459294246079615" lon="10.62240293842571"><ele>443.0</ele><time>2026-04-18T16:19:36.001Z</time></trkpt><trkpt lat="43.45937466746162" lon="10.622410559492927"><ele>443.0</ele><time>2026-04-18T16:19:38.001Z</time></trkpt><trkpt lat="43.45944719915606" lon="10.622408776659169"><ele>443.0</ele><time>2026-04-18T16:19:40.001Z</time></trkpt><trkpt lat="43.45953767211672" lon="10.622400339064907"><ele>442.99999999999994</ele><time>2026-04-18T16:19:42.001Z</time></trkpt><trkpt lat="43.45962135177545" lon="10.622357307348118"><ele>443.0</ele><time>2026-04-18T16:19:44.001Z</time></trkpt><trkpt lat="43.45968869240717" lon="10.62227713598012"><ele>441.16666666666663</ele><time>2026-04-18T16:19:46.001Z</time></trkpt><trkpt lat="43.45974359409407" lon="10.622172905131515"><ele>439.3333333333333</ele><time>2026-04-18T16:19:48.001Z</time></trkpt><trkpt lat="43.45978733453624" lon="10.62207319311484"><ele>437.5</ele><time>2026-04-18T16:19:50.001Z</time></trkpt><trkpt lat="43.4598165909092" lon="10.621961497311469"><ele>435.66666666666663</ele><time>2026-04-18T16:19:52.001Z</time></trkpt><trkpt lat="43.45986683906948" lon="10.62187859850551"><ele>433.8333333333333</ele><time>2026-04-18T16:19:54.001Z</time></trkpt><trkpt lat="43.459902042359616" lon="10.62177691943525"><ele>432.0</ele><time>2026-04-18T16:19:56.001Z</time></trkpt><trkpt lat="43.45994657175984" lon="10.621675927083436"><ele>437.0</ele><time>2026-04-18T16:19:58.001Z</time></trkpt><trkpt lat="43.45998103275756" lon="10.621565506451454"><ele>442.00000000000006</ele><time>2026-04-18T16:20:00.001Z</time></trkpt><trkpt lat="43.460039986855115" lon="10.62141138982494"><ele>447.00000000000006</ele><time>2026-04-18T16:20:03.001Z</time></trkpt><trkpt lat="43.46009021812851" lon="10.621312133474396"><ele>452.0</ele><time>2026-04-18T16:20:05.001Z</time></trkpt><trkpt lat="43.460125540019796" lon="10.62119743767073"><ele>457.0</ele><time>2026-04-18T16:20:07.001Z</time></trkpt><trkpt lat="43.46015691958652" lon="10.62108300788541"><ele>459.83333333333337</ele><time>2026-04-18T16:20:09.001Z</time></trkpt><trkpt lat="43.46020370194992" lon="10.620973766981091"><ele>462.6666666666667</ele><time>2026-04-18T16:20:11.001Z</time></trkpt><trkpt lat="43.460236631707" lon="10.620849957755661"><ele>465.5</ele><time>2026-04-18T16:20:13.001Z</time></trkpt><trkpt lat="43.46026663349586" lon="10.62073017044367"><ele>468.33333333333337</ele><time>2026-04-18T16:20:15.001Z</time></trkpt><trkpt lat="43.46029480896368" lon="10.620617626727428"><ele>471.1666666666667</ele><time>2026-04-18T16:20:17Z</time></trkpt><trkpt lat="43.460314977104034" lon="10.620506870481746"><ele>474.0</ele><time>2026-04-18T16:20:19Z</time></trkpt><trkpt lat="43.460344392323826" lon="10.62038356910046"><ele>476.5</ele><time>2026-04-18T16:20:21Z</time></trkpt><trkpt lat="43.46038577816964" lon="10.62027292751906"><ele>479.0</ele><time>2026-04-18T16:20:23Z</time></trkpt><trkpt lat="43.46041399596546" lon="10.62016435966619"><ele>481.5</ele><time>2026-04-18T16:20:25Z</time></trkpt><trkpt lat="43.460452602442345" lon="10.620056178427522"><ele>484.0</ele><time>2026-04-18T16:20:27Z</time></trkpt><trkpt lat="43.46047729253786" lon="10.61994807182245"><ele>486.5</ele><time>2026-04-18T16:20:29Z</time></trkpt><trkpt lat="43.460504545558905" lon="10.619837928084317"><ele>489.0</ele><time>2026-04-18T16:20:31Z</time></trkpt><trkpt lat="43.46052573532215" lon="10.61970967211871"><ele>485.1666666666667</ele><time>2026-04-18T16:20:33Z</time></trkpt><trkpt lat="43.460533321740634" lon="10.619595515545969"><ele>481.33333333333337</ele><time>2026-04-18T16:20:35Z</time></trkpt><trkpt lat="43.46054573300224" lon="10.619505418658502"><ele>477.5</ele><time>2026-04-18T16:20:37Z</time></trkpt><trkpt lat="43.460573776943754" lon="10.619412263686959"><ele>473.6666666666667</ele><time>2026-04-18T16:20:39Z</time></trkpt><trkpt lat="43.460614649494495" lon="10.619310657861542"><ele>469.83333333333337</ele><time>2026-04-18T16:20:41Z</time></trkpt><trkpt lat="43.460682644529314" lon="10.619242312237793"><ele>466.0</ele><time>2026-04-18T16:20:43Z</time></trkpt><trkpt lat="43.460748660270966" lon="10.619158904951691"><ele>466.00000000000006</ele><time>2026-04-18T16:20:45Z</time></trkpt><trkpt lat="43.460811112542665" lon="10.61906227872388"><ele>466.0</ele><time>2026-04-18T16:20:47Z</time></trkpt><trkpt lat="43.460862597219986" lon="10.618996638964859"><ele>466.0</ele><time>2026-04-18T16:20:49Z</time></trkpt><trkpt lat="43.46091392000419" lon="10.618936315803927"><ele>466.0</ele><time>2026-04-18T16:20:51Z</time></trkpt><trkpt lat="43.46095816308011" lon="10.618870642251782"><ele>466.00000000000006</ele><time>2026-04-18T16:20:53Z</time></trkpt><trkpt lat="43.46100642476176" lon="10.618784451986093"><ele>466.0</ele><time>2026-04-18T16:20:55Z</time></trkpt><trkpt lat="43.46105302574046" lon="10.618674878828596"><ele>469.20000000000005</ele><time>2026-04-18T16:20:57Z</time></trkpt><trkpt lat="43.461087992408316" lon="10.618555569313566"><ele>472.40000000000003</ele><time>2026-04-18T16:20:59Z</time></trkpt><trkpt lat="43.46110951775524" lon="10.618447281685256"><ele>475.6</ele><time>2026-04-18T16:21:01Z</time></trkpt><trkpt lat="43.4611265554832" lon="10.618314192330379"><ele>478.8</ele><time>2026-04-18T16:21:03Z</time></trkpt><trkpt lat="43.46113664826409" lon="10.618171910340859"><ele>482.0</ele><time>2026-04-18T16:21:05Z</time></trkpt><trkpt lat="43.46114234976891" lon="10.618048810030876"><ele>481.99999999999994</ele><time>2026-04-18T16:21:07Z</time></trkpt><trkpt lat="43.461147090792196" lon="10.617955327814887"><ele>482.0</ele><time>2026-04-18T16:21:08Z</time></trkpt><trkpt lat="43.4611343292966" lon="10.617809702516167"><ele>482.0</ele><time>2026-04-18T16:21:10Z</time></trkpt><trkpt lat="43.46113932073918" lon="10.617719241177218"><ele>482.0</ele><time>2026-04-18T16:21:12Z</time></trkpt><trkpt lat="43.46118363365155" lon="10.617599759916443"><ele>481.99999999999994</ele><time>2026-04-18T16:21:14Z</time></trkpt><trkpt lat="43.46119667461307" lon="10.617507888137458"><ele>482.0</ele><time>2026-04-18T16:21:15Z</time></trkpt><trkpt lat="43.46126870743721" lon="10.61739160713155"><ele>479.6</ele><time>2026-04-18T16:21:17Z</time></trkpt><trkpt lat="43.46132811667833" lon="10.617339259822362"><ele>477.20000000000005</ele><time>2026-04-18T16:21:18Z</time></trkpt><trkpt lat="43.461421854967526" lon="10.617252158804646"><ele>474.8</ele><time>2026-04-18T16:21:20Z</time></trkpt><trkpt lat="43.46149916420389" lon="10.617156556994548"><ele>472.4</ele><time>2026-04-18T16:21:22Z</time></trkpt><trkpt lat="43.46153874920609" lon="10.61704407966685"><ele>470.0</ele><time>2026-04-18T16:21:24Z</time></trkpt><trkpt lat="43.461586684843255" lon="10.616924915178299"><ele>470.0</ele><time>2026-04-18T16:21:26Z</time></trkpt><trkpt lat="43.4616653369499" lon="10.616894372252942"><ele>470.0</ele><time>2026-04-18T16:21:27Z</time></trkpt><trkpt lat="43.46170636171687" lon="10.616755451190215"><ele>470.0</ele><time>2026-04-18T16:21:29Z</time></trkpt><trkpt lat="43.46176241811707" lon="10.616622366809294"><ele>470.0</ele><time>2026-04-18T16:21:31Z</time></trkpt><trkpt lat="43.4618188536772" lon="10.616503967666405"><ele>470.0</ele><time>2026-04-18T16:21:33Z</time></trkpt><trkpt lat="43.461877905391155" lon="10.616395259502756"><ele>469.99999999999994</ele><time>2026-04-18T16:21:35Z</time></trkpt><trkpt lat="43.46193263190741" lon="10.616303048031492"><ele>470.0</ele><time>2026-04-18T16:21:37Z</time></trkpt><trkpt lat="43.46200579834409" lon="10.61621971734314"><ele>470.0</ele><time>2026-04-18T16:21:39Z</time></trkpt><trkpt lat="43.46206441447494" lon="10.616163969377267"><ele>470.0</ele><time>2026-04-18T16:21:41Z</time></trkpt><trkpt lat="43.462164106299774" lon="10.61614026082439"><ele>469.99999999999994</ele><time>2026-04-18T16:21:45Z</time></trkpt><trkpt lat="43.46224837715993" lon="10.616199472207873"><ele>470.0</ele><time>2026-04-18T16:21:47Z</time></trkpt><trkpt lat="43.46232601915652" lon="10.616322124799687"><ele>468.8333333333333</ele><time>2026-04-18T16:21:49Z</time></trkpt><trkpt lat="43.462368385342735" lon="10.61639113948177"><ele>467.66666666666663</ele><time>2026-04-18T16:21:50Z</time></trkpt><trkpt lat="43.46240779217229" lon="10.616460060038442"><ele>466.5</ele><time>2026-04-18T16:21:51Z</time></trkpt><trkpt lat="43.4624741591554" lon="10.616593484873395"><ele>465.33333333333337</ele><time>2026-04-18T16:21:53Z</time></trkpt><trkpt lat="43.462536832293786" lon="10.616706736376381"><ele>464.1666666666667</ele><time>2026-04-18T16:21:55Z</time></trkpt><trkpt lat="43.46258892779398" lon="10.61677410255374"><ele>463.0</ele><time>2026-04-18T16:21:56Z</time></trkpt><trkpt lat="43.46269216966876" lon="10.61685308445402"><ele>463.0</ele><time>2026-04-18T16:21:58Z</time></trkpt><trkpt lat="43.46280264418972" lon="10.616893276954226"><ele>463.0</ele><time>2026-04-18T16:22:00Z</time></trkpt><trkpt lat="43.46292743638092" lon="10.616880643618515"><ele>463.0</ele><time>2026-04-18T16:22:02Z</time></trkpt><trkpt lat="43.46301780610369" lon="10.61677040800424"><ele>463.0</ele><time>2026-04-18T16:22:04Z</time></trkpt><trkpt lat="43.46310200814655" lon="10.616686856466746"><ele>462.79999999999995</ele><time>2026-04-18T16:22:06Z</time></trkpt><trkpt lat="43.46317294762894" lon="10.616595399795449"><ele>462.59999999999997</ele><time>2026-04-18T16:22:08Z</time></trkpt><trkpt lat="43.46320653263539" lon="10.616479477579752"><ele>462.40000000000003</ele><time>2026-04-18T16:22:10Z</time></trkpt><trkpt lat="43.46323799880942" lon="10.616363818487939"><ele>462.20000000000005</ele><time>2026-04-18T16:22:12Z</time></trkpt><trkpt lat="43.463252522812475" lon="10.616173066436154"><ele>462.0</ele><time>2026-04-18T16:22:15Z</time></trkpt><trkpt lat="43.46324005859588" lon="10.616029215159525"><ele>464.20000000000005</ele><time>2026-04-18T16:22:17Z</time></trkpt><trkpt lat="43.46326932286905" lon="10.61587736934683"><ele>466.40000000000003</ele><time>2026-04-18T16:22:19Z</time></trkpt><trkpt lat="43.46326216790401" lon="10.615737786566765"><ele>468.59999999999997</ele><time>2026-04-18T16:22:21Z</time></trkpt><trkpt lat="43.4632588980722" lon="10.615647460972342"><ele>470.79999999999995</ele><time>2026-04-18T16:22:22Z</time></trkpt><trkpt lat="43.4632534385094" lon="10.615496646529689"><ele>473.0</ele><time>2026-04-18T16:22:23.999Z</time></trkpt><trkpt lat="43.463236900645796" lon="10.61534639526061"><ele>472.99999999999994</ele><time>2026-04-18T16:22:25.999Z</time></trkpt><trkpt lat="43.463263839789455" lon="10.615217977381592"><ele>473.0</ele><time>2026-04-18T16:22:27.999Z</time></trkpt><trkpt lat="43.46332318308333" lon="10.615170623992707"><ele>473.0</ele><time>2026-04-18T16:22:30.999Z</time></trkpt><trkpt lat="43.463389458824814" lon="10.615271438048158"><ele>473.0</ele><time>2026-04-18T16:22:33.999Z</time></trkpt><trkpt lat="43.463474287984745" lon="10.615386025987664"><ele>472.99999999999994</ele><time>2026-04-18T16:22:35.999Z</time></trkpt><trkpt lat="43.46351767083485" lon="10.615451413583529"><ele>473.0</ele><time>2026-04-18T16:22:36.999Z</time></trkpt><trkpt lat="43.46360497947158" lon="10.615568549541681"><ele>472.99999999999994</ele><time>2026-04-18T16:22:38.999Z</time></trkpt><trkpt lat="43.463658238920566" lon="10.615697214064545"><ele>473.0</ele><time>2026-04-18T16:22:40.999Z</time></trkpt><trkpt lat="43.46369568992783" lon="10.615772906557542"><ele>473.0</ele><time>2026-04-18T16:22:42.999Z</time></trkpt><trkpt lat="43.4637319900873" lon="10.61585742593649"><ele>473.0</ele><time>2026-04-18T16:22:44.999Z</time></trkpt><trkpt lat="43.46377631717348" lon="10.615969138288637"><ele>472.99999999999994</ele><time>2026-04-18T16:22:46.999Z</time></trkpt><trkpt lat="43.46381883765573" lon="10.6160811752825"><ele>473.0</ele><time>2026-04-18T16:22:48.999Z</time></trkpt><trkpt lat="43.46385696143919" lon="10.616186566503346"><ele>470.3333333333333</ele><time>2026-04-18T16:22:50.999Z</time></trkpt><trkpt lat="43.463900168937606" lon="10.616306340562987"><ele>467.66666666666663</ele><time>2026-04-18T16:22:52.999Z</time></trkpt><trkpt lat="43.4639490551053" lon="10.616436688233843"><ele>465.0</ele><time>2026-04-18T16:22:54.999Z</time></trkpt><trkpt lat="43.4639947232488" lon="10.616549180260774"><ele>462.33333333333337</ele><time>2026-04-18T16:22:56.999Z</time></trkpt><trkpt lat="43.46402814978745" lon="10.616631916496168"><ele>459.6666666666667</ele><time>2026-04-18T16:22:59.999Z</time></trkpt><trkpt lat="43.46406660003726" lon="10.616709984734479"><ele>457.0</ele><time>2026-04-18T16:23:04.999Z</time></trkpt><trkpt lat="43.46403280548442" lon="10.616636261712932"><ele>457.00000000000006</ele><time>2026-04-18T16:24:03Z</time></trkpt><trkpt lat="43.46399843920033" lon="10.61655837757679"><ele>457.0</ele><time>2026-04-18T16:24:11Z</time></trkpt><trkpt lat="43.46396512185787" lon="10.616475913211522"><ele>457.00000000000006</ele><time>2026-04-18T16:24:17Z</time></trkpt><trkpt lat="43.4639348947932" lon="10.61639933042852"><ele>457.00000000000006</ele><time>2026-04-18T16:24:21Z</time></trkpt><trkpt lat="43.463904789339914" lon="10.61631914858296"><ele>457.0</ele><time>2026-04-18T16:24:37.999Z</time></trkpt><trkpt lat="43.463874530019766" lon="10.616235267816592"><ele>457.00000000000006</ele><time>2026-04-18T16:24:43.999Z</time></trkpt><trkpt lat="43.46384367146867" lon="10.616149725731272"><ele>457.00000000000006</ele><time>2026-04-18T16:24:50.999Z</time></trkpt><trkpt lat="43.463814971330244" lon="10.616070987747158"><ele>459.28571428571433</ele><time>2026-04-18T16:25:51Z</time></trkpt><trkpt lat="43.463784305209565" lon="10.615990185678827"><ele>461.57142857142856</ele><time>2026-04-18T16:26:00Z</time></trkpt><trkpt lat="43.463752630344054" lon="10.615906725548909"><ele>463.8571428571429</ele><time>2026-04-18T16:26:07Z</time></trkpt><trkpt lat="43.463717935911646" lon="10.61582379732581"><ele>466.14285714285717</ele><time>2026-04-18T16:26:16Z</time></trkpt><trkpt lat="43.463682939728855" lon="10.615745704965681"><ele>468.42857142857144</ele><time>2026-04-18T16:26:26Z</time></trkpt><trkpt lat="43.46364261266258" lon="10.615667859796712"><ele>470.7142857142857</ele><time>2026-04-18T16:26:42.999Z</time></trkpt><trkpt lat="43.46368177972691" lon="10.615579343930216"><ele>473.0</ele><time>2026-04-18T16:26:48.999Z</time></trkpt><trkpt lat="43.46373380435506" lon="10.615507664001312"><ele>473.16666666666663</ele><time>2026-04-18T16:26:50.999Z</time></trkpt><trkpt lat="43.46379585641145" lon="10.61544537974738"><ele>473.3333333333333</ele><time>2026-04-18T16:26:53Z</time></trkpt><trkpt lat="43.46385129585293" lon="10.615354851101596"><ele>473.5</ele><time>2026-04-18T16:26:55Z</time></trkpt><trkpt lat="43.46390773899398" lon="10.61525366120672"><ele>473.66666666666663</ele><time>2026-04-18T16:26:57Z</time></trkpt><trkpt lat="43.463970492923956" lon="10.615156010731724"><ele>473.8333333333333</ele><time>2026-04-18T16:26:59Z</time></trkpt><trkpt lat="43.46403220158115" lon="10.615062602671617"><ele>474.0</ele><time>2026-04-18T16:27:01Z</time></trkpt><trkpt lat="43.46423533301109" lon="10.614817861199073"><ele>476.99999999999994</ele><time>2026-04-18T16:27:03Z</time></trkpt><trkpt lat="43.46426788947748" lon="10.614741949766014"><ele>480.0</ele><time>2026-04-18T16:27:08Z</time></trkpt><trkpt lat="43.46429285851851" lon="10.614649766819566"><ele>482.99999999999994</ele><time>2026-04-18T16:27:12Z</time></trkpt><trkpt lat="43.46431502546994" lon="10.614545573275715"><ele>485.99999999999994</ele><time>2026-04-18T16:27:16Z</time></trkpt><trkpt lat="43.46431938382425" lon="10.61445395973053"><ele>489.0</ele><time>2026-04-18T16:29:05Z</time></trkpt><trkpt lat="43.46434083082502" lon="10.614365522810369"><ele>491.99999999999994</ele><time>2026-04-18T16:29:16Z</time></trkpt><trkpt lat="43.46435978547094" lon="10.614280132884033"><ele>494.99999999999994</ele><time>2026-04-18T16:29:23Z</time></trkpt><trkpt lat="43.46437265875987" lon="10.614194232447298"><ele>497.1428571428571</ele><time>2026-04-18T16:29:29Z</time></trkpt><trkpt lat="43.4643999456708" lon="10.61409256390308"><ele>499.2857142857143</ele><time>2026-04-18T16:29:35Z</time></trkpt><trkpt lat="43.46442124595957" lon="10.614007379245685"><ele>501.42857142857144</ele><time>2026-04-18T16:29:40Z</time></trkpt><trkpt lat="43.46443386737855" lon="10.61390763638407"><ele>503.57142857142856</ele><time>2026-04-18T16:29:45Z</time></trkpt><trkpt lat="43.46445575287502" lon="10.613803061698013"><ele>505.7142857142858</ele><time>2026-04-18T16:29:49Z</time></trkpt><trkpt lat="43.464480806636175" lon="10.613720780123739"><ele>507.8571428571429</ele><time>2026-04-18T16:29:52Z</time></trkpt><trkpt lat="43.46450200996099" lon="10.613619489837564"><ele>510.0</ele><time>2026-04-18T16:29:56Z</time></trkpt><trkpt lat="43.464537129656996" lon="10.613516351537449"><ele>510.5</ele><time>2026-04-18T16:30:00.001Z</time></trkpt><trkpt lat="43.464571070578096" lon="10.613443013996072"><ele>511.0</ele><time>2026-04-18T16:30:03.001Z</time></trkpt><trkpt lat="43.46459965723668" lon="10.613357895127923"><ele>511.5</ele><time>2026-04-18T16:30:06.001Z</time></trkpt><trkpt lat="43.46463734987517" lon="10.613250387035766"><ele>512.0</ele><time>2026-04-18T16:30:09.001Z</time></trkpt><trkpt lat="43.464642588278295" lon="10.613137103440886"><ele>512.5</ele><time>2026-04-18T16:30:12.001Z</time></trkpt><trkpt lat="43.464623545343784" lon="10.613037545616695"><ele>513.0</ele><time>2026-04-18T16:30:15.001Z</time></trkpt><trkpt lat="43.46460213853261" lon="10.612933407508171"><ele>515.8333333333334</ele><time>2026-04-18T16:30:18.001Z</time></trkpt><trkpt lat="43.46459668110019" lon="10.61281911735416"><ele>518.6666666666666</ele><time>2026-04-18T16:30:21.001Z</time></trkpt><trkpt lat="43.46459229099463" lon="10.61272213975007"><ele>521.5</ele><time>2026-04-18T16:30:24.001Z</time></trkpt><trkpt lat="43.46459290557316" lon="10.612631590524948"><ele>524.3333333333333</ele><time>2026-04-18T16:30:27.001Z</time></trkpt><trkpt lat="43.46458178253478" lon="10.612532129720798"><ele>527.1666666666666</ele><time>2026-04-18T16:30:30.001Z</time></trkpt><trkpt lat="43.46457801227115" lon="10.612427187336758"><ele>530.0</ele><time>2026-04-18T16:30:33.001Z</time></trkpt><trkpt lat="43.46458280587907" lon="10.61229815204621"><ele>530.0</ele><time>2026-04-18T16:30:36.001Z</time></trkpt><trkpt lat="43.46458903690904" lon="10.61220039159704"><ele>530.0</ele><time>2026-04-18T16:30:38.001Z</time></trkpt><trkpt lat="43.464593058067926" lon="10.61210190233487"><ele>530.0</ele><time>2026-04-18T16:30:40.001Z</time></trkpt><trkpt lat="43.46459087891917" lon="10.611982804884715"><ele>530.0</ele><time>2026-04-18T16:30:43.001Z</time></trkpt><trkpt lat="43.46458663434047" lon="10.611878628113105"><ele>530.0</ele><time>2026-04-18T16:30:46.999Z</time></trkpt><trkpt lat="43.46456860777161" lon="10.611772342310067"><ele>530.0</ele><time>2026-04-18T16:30:50.999Z</time></trkpt><trkpt lat="43.46455991931525" lon="10.61167384440963"><ele>532.0</ele><time>2026-04-18T16:30:53.999Z</time></trkpt><trkpt lat="43.46457463181894" lon="10.611575179532428"><ele>534.0</ele><time>2026-04-18T16:30:56.999Z</time></trkpt><trkpt lat="43.46458573130192" lon="10.61147659074177"><ele>536.0</ele><time>2026-04-18T16:31:00.999Z</time></trkpt><trkpt lat="43.46459654331829" lon="10.611359002375941"><ele>538.0</ele><time>2026-04-18T16:31:03.999Z</time></trkpt><trkpt lat="43.464598058733294" lon="10.611246680992988"><ele>540.0</ele><time>2026-04-18T16:31:06.999Z</time></trkpt><trkpt lat="43.464624053447906" lon="10.61113141916315"><ele>542.0</ele><time>2026-04-18T16:31:09.999Z</time></trkpt><trkpt lat="43.4646787822678" lon="10.611035714543009"><ele>545.0</ele><time>2026-04-18T16:31:12.999Z</time></trkpt><trkpt lat="43.46473032675065" lon="10.610939838581587"><ele>548.0</ele><time>2026-04-18T16:31:15.999Z</time></trkpt><trkpt lat="43.4647741274467" lon="10.610841245147359"><ele>551.0</ele><time>2026-04-18T16:31:18.999Z</time></trkpt><trkpt lat="43.46482643032634" lon="10.610741324228352"><ele>554.0</ele><time>2026-04-18T16:31:21.999Z</time></trkpt><trkpt lat="43.46486660830821" lon="10.610674419111621"><ele>557.0</ele><time>2026-04-18T16:31:23.999Z</time></trkpt><trkpt lat="43.46491019591669" lon="10.610573332603376"><ele>560.0</ele><time>2026-04-18T16:31:27Z</time></trkpt><trkpt lat="43.46493641440724" lon="10.610458563428615"><ele>560.0</ele><time>2026-04-18T16:31:31Z</time></trkpt><trkpt lat="43.464991517712576" lon="10.610350542672629"><ele>560.0</ele><time>2026-04-18T16:31:34Z</time></trkpt><trkpt lat="43.46503333677933" lon="10.610278643634214"><ele>560.0</ele><time>2026-04-18T16:31:36Z</time></trkpt><trkpt lat="43.465052080379785" lon="10.610180548962957"><ele>560.0</ele><time>2026-04-18T16:31:38Z</time></trkpt><trkpt lat="43.46506695142979" lon="10.610072076177321"><ele>560.0</ele><time>2026-04-18T16:31:40Z</time></trkpt><trkpt lat="43.4650983236146" lon="10.60996278696954"><ele>560.0</ele><time>2026-04-18T16:31:42Z</time></trkpt><trkpt lat="43.46513898971482" lon="10.609863696507677"><ele>560.8</ele><time>2026-04-18T16:31:44Z</time></trkpt><trkpt lat="43.465177533684646" lon="10.609748412841096"><ele>561.6</ele><time>2026-04-18T16:31:46Z</time></trkpt><trkpt lat="43.46522765692085" lon="10.609634098802033"><ele>562.4</ele><time>2026-04-18T16:31:48Z</time></trkpt><trkpt lat="43.46530919581983" lon="10.609501926991136"><ele>563.2</ele><time>2026-04-18T16:31:50Z</time></trkpt><trkpt lat="43.465353184268416" lon="10.609382735402724"><ele>564.0</ele><time>2026-04-18T16:31:52Z</time></trkpt><trkpt lat="43.46539447296317" lon="10.609281725362353"><ele>565.8333333333334</ele><time>2026-04-18T16:31:54Z</time></trkpt><trkpt lat="43.465462731404614" lon="10.609202952526777"><ele>567.6666666666666</ele><time>2026-04-18T16:31:56Z</time></trkpt><trkpt lat="43.46552773467808" lon="10.609127275269085"><ele>569.5</ele><time>2026-04-18T16:31:58Z</time></trkpt><trkpt lat="43.465565017431004" lon="10.609056210652422"><ele>571.3333333333333</ele><time>2026-04-18T16:32:00Z</time></trkpt><trkpt lat="43.46557236260326" lon="10.608942826125933"><ele>573.1666666666666</ele><time>2026-04-18T16:32:03Z</time></trkpt><trkpt lat="43.46555237567262" lon="10.608855965730053"><ele>575.0</ele><time>2026-04-18T16:32:05Z</time></trkpt><trkpt lat="43.46552023772669" lon="10.60873715549688"><ele>575.1428571428571</ele><time>2026-04-18T16:32:08Z</time></trkpt><trkpt lat="43.46554590616762" lon="10.608627336578015"><ele>575.2857142857142</ele><time>2026-04-18T16:32:11Z</time></trkpt><trkpt lat="43.46560705860779" lon="10.608588255871144"><ele>575.4285714285714</ele><time>2026-04-18T16:32:13Z</time></trkpt><trkpt lat="43.46566650396981" lon="10.608546759013272"><ele>575.5714285714286</ele><time>2026-04-18T16:32:19Z</time></trkpt><trkpt lat="43.46573789535562" lon="10.608530018009963"><ele>575.7142857142858</ele><time>2026-04-18T16:32:44Z</time></trkpt><trkpt lat="43.465804963023984" lon="10.608524856846484"><ele>575.8571428571429</ele><time>2026-04-18T16:32:52Z</time></trkpt><trkpt lat="43.46587173358372" lon="10.608526076827484"><ele>576.0</ele><time>2026-04-18T16:32:58.999Z</time></trkpt><trkpt lat="43.465945393718904" lon="10.608527335563153"><ele>576.0</ele><time>2026-04-18T16:33:23Z</time></trkpt><trkpt lat="43.466009431806675" lon="10.60853196995955"><ele>576.0</ele><time>2026-04-18T16:33:27Z</time></trkpt><trkpt lat="43.466080385071834" lon="10.608524278983705"><ele>576.0</ele><time>2026-04-18T16:33:32Z</time></trkpt><trkpt lat="43.46615562266632" lon="10.608533072172865"><ele>576.0</ele><time>2026-04-18T16:33:36Z</time></trkpt><trkpt lat="43.466240679561686" lon="10.60852879293579"><ele>576.0</ele><time>2026-04-18T16:33:40Z</time></trkpt><trkpt lat="43.46636118290163" lon="10.608515134399655"><ele>576.0</ele><time>2026-04-18T16:33:44Z</time></trkpt><trkpt lat="43.466450995520375" lon="10.608458498734288"><ele>576.3333333333334</ele><time>2026-04-18T16:33:47Z</time></trkpt><trkpt lat="43.46651569110653" lon="10.608363140617485"><ele>576.6666666666666</ele><time>2026-04-18T16:33:50Z</time></trkpt><trkpt lat="43.466563379639176" lon="10.608301999464453"><ele>577.0</ele><time>2026-04-18T16:33:52Z</time></trkpt><trkpt lat="43.46662746465584" lon="10.60821829007999"><ele>577.3333333333333</ele><time>2026-04-18T16:33:55Z</time></trkpt><trkpt lat="43.46668304429217" lon="10.608161984451094"><ele>577.6666666666666</ele><time>2026-04-18T16:33:58Z</time></trkpt><trkpt lat="43.4667348023693" lon="10.608085005108565"><ele>578.0</ele><time>2026-04-18T16:34:01Z</time></trkpt><trkpt lat="43.46678497885784" lon="10.607999960364678"><ele>578.0</ele><time>2026-04-18T16:34:04Z</time></trkpt><trkpt lat="43.46682242038719" lon="10.607911032136672"><ele>578.0</ele><time>2026-04-18T16:34:07Z</time></trkpt><trkpt lat="43.46684243598518" lon="10.607822036975863"><ele>578.0</ele><time>2026-04-18T16:34:10Z</time></trkpt><trkpt lat="43.466894625342995" lon="10.607755822426274"><ele>578.0</ele><time>2026-04-18T16:34:14Z</time></trkpt><trkpt lat="43.46692612948143" lon="10.607677169761773"><ele>578.0</ele><time>2026-04-18T16:34:21.001Z</time></trkpt><trkpt lat="43.466930968254644" lon="10.607544797416677"><ele>578.0</ele><time>2026-04-18T16:35:02.999Z</time></trkpt><trkpt lat="43.466984049093966" lon="10.607479699540374"><ele>578.0</ele><time>2026-04-18T16:35:19.999Z</time></trkpt><trkpt lat="43.46707736944173" lon="10.607498148291837"><ele>577.3333333333333</ele><time>2026-04-18T16:35:32Z</time></trkpt><trkpt lat="43.467150360397305" lon="10.60752459933835"><ele>576.6666666666666</ele><time>2026-04-18T16:37:40Z</time></trkpt><trkpt lat="43.467214813678034" lon="10.607457506166378"><ele>576.0</ele><time>2026-04-18T16:38:11.001Z</time></trkpt><trkpt lat="43.46727867552054" lon="10.607378292543682"><ele>575.3333333333334</ele><time>2026-04-18T16:38:21.001Z</time></trkpt><trkpt lat="43.46734342398825" lon="10.607300954562048"><ele>574.6666666666667</ele><time>2026-04-18T16:38:23.001Z</time></trkpt><trkpt lat="43.467408794142166" lon="10.607208424754493"><ele>574.0</ele><time>2026-04-18T16:38:25.001Z</time></trkpt><trkpt lat="43.46747812612593" lon="10.607133682765907"><ele>574.0</ele><time>2026-04-18T16:38:27.001Z</time></trkpt><trkpt lat="43.46755455875717" lon="10.607086160929747"><ele>574.0</ele><time>2026-04-18T16:38:29.001Z</time></trkpt><trkpt lat="43.46763485648478" lon="10.607032905801095"><ele>574.0</ele><time>2026-04-18T16:38:31.001Z</time></trkpt><trkpt lat="43.467729415926954" lon="10.606980223875139"><ele>574.0</ele><time>2026-04-18T16:38:33.001Z</time></trkpt><trkpt lat="43.46779331293592" lon="10.606964380037851"><ele>574.0</ele><time>2026-04-18T16:38:34.001Z</time></trkpt><trkpt lat="43.46786878394926" lon="10.606925678156527"><ele>574.0</ele><time>2026-04-18T16:38:36.001Z</time></trkpt><trkpt lat="43.467924592467284" lon="10.606830649435263"><ele>574.6666666666667</ele><time>2026-04-18T16:38:38.001Z</time></trkpt><trkpt lat="43.46799489246726" lon="10.606737093721199"><ele>575.3333333333334</ele><time>2026-04-18T16:38:40.001Z</time></trkpt><trkpt lat="43.46802765276056" lon="10.606631175057151"><ele>576.0</ele><time>2026-04-18T16:38:42.001Z</time></trkpt><trkpt lat="43.46804926442451" lon="10.606511503260716"><ele>576.6666666666666</ele><time>2026-04-18T16:38:44.001Z</time></trkpt><trkpt lat="43.468072349660936" lon="10.60639472970515"><ele>577.3333333333333</ele><time>2026-04-18T16:38:46.001Z</time></trkpt><trkpt lat="43.46807889354081" lon="10.60627084133691"><ele>578.0</ele><time>2026-04-18T16:38:48.001Z</time></trkpt><trkpt lat="43.46807739028687" lon="10.606141206716629"><ele>578.6</ele><time>2026-04-18T16:38:50.001Z</time></trkpt><trkpt lat="43.46807380092099" lon="10.606014479553869"><ele>579.1999999999999</ele><time>2026-04-18T16:38:52.001Z</time></trkpt><trkpt lat="43.46808293709521" lon="10.605891621541273"><ele>579.8</ele><time>2026-04-18T16:38:54.001Z</time></trkpt><trkpt lat="43.46810255319156" lon="10.605766902384339"><ele>580.4</ele><time>2026-04-18T16:38:56.001Z</time></trkpt><trkpt lat="43.46811824239352" lon="10.605635358929264"><ele>581.0</ele><time>2026-04-18T16:38:58.001Z</time></trkpt><trkpt lat="43.46812270103373" lon="10.605437684444347"><ele>581.2</ele><time>2026-04-18T16:39:01.001Z</time></trkpt><trkpt lat="43.46811306077061" lon="10.605299563469945"><ele>581.4000000000001</ele><time>2026-04-18T16:39:03.002Z</time></trkpt><trkpt lat="43.46808601702886" lon="10.605157132821773"><ele>581.6</ele><time>2026-04-18T16:39:05.002Z</time></trkpt><trkpt lat="43.46805235210359" lon="10.605018246637874"><ele>581.8000000000001</ele><time>2026-04-18T16:39:07.002Z</time></trkpt><trkpt lat="43.468040900696046" lon="10.604868337303305"><ele>582.0</ele><time>2026-04-18T16:39:09.002Z</time></trkpt><trkpt lat="43.46804435867905" lon="10.60472590266731"><ele>582.0</ele><time>2026-04-18T16:39:11.001Z</time></trkpt><trkpt lat="43.46808095266092" lon="10.604611825505414"><ele>582.0</ele><time>2026-04-18T16:39:13.001Z</time></trkpt><trkpt lat="43.46810789795607" lon="10.604504090343353"><ele>582.0</ele><time>2026-04-18T16:39:16.001Z</time></trkpt><trkpt lat="43.468116520334576" lon="10.604408716581503"><ele>582.0</ele><time>2026-04-18T16:39:18.001Z</time></trkpt><trkpt lat="43.468154032848986" lon="10.604321045011918"><ele>582.0</ele><time>2026-04-18T16:39:22.001Z</time></trkpt><trkpt lat="43.468210940109046" lon="10.604276674721362"><ele>582.0</ele><time>2026-04-18T16:39:25.001Z</time></trkpt><trkpt lat="43.46826490479982" lon="10.604224803190975"><ele>582.0</ele><time>2026-04-18T16:39:28.001Z</time></trkpt><trkpt lat="43.46833799307356" lon="10.604151890251542"><ele>581.6666666666666</ele><time>2026-04-18T16:39:31.001Z</time></trkpt><trkpt lat="43.46839766952308" lon="10.604106198922311"><ele>581.3333333333334</ele><time>2026-04-18T16:39:33.001Z</time></trkpt><trkpt lat="43.46845681132612" lon="10.604037853398452"><ele>581.0</ele><time>2026-04-18T16:39:35.001Z</time></trkpt><trkpt lat="43.46846537856688" lon="10.60391576642055"><ele>580.6666666666667</ele><time>2026-04-18T16:39:37.001Z</time></trkpt><trkpt lat="43.46845697354581" lon="10.603782820226105"><ele>580.3333333333334</ele><time>2026-04-18T16:39:39.001Z</time></trkpt><trkpt lat="43.46843556861991" lon="10.603644176276795"><ele>580.0</ele><time>2026-04-18T16:39:41.001Z</time></trkpt><trkpt lat="43.46841248642117" lon="10.603493615005021"><ele>580.0</ele><time>2026-04-18T16:39:43.001Z</time></trkpt><trkpt lat="43.468384655378806" lon="10.603340440267317"><ele>580.0</ele><time>2026-04-18T16:39:45.001Z</time></trkpt><trkpt lat="43.46835207985985" lon="10.603213932893981"><ele>580.0</ele><time>2026-04-18T16:39:47.001Z</time></trkpt><trkpt lat="43.46832217177598" lon="10.603087855917291"><ele>580.0</ele><time>2026-04-18T16:39:49.001Z</time></trkpt><trkpt lat="43.46830889101476" lon="10.60294504513676"><ele>580.0</ele><time>2026-04-18T16:39:51.001Z</time></trkpt><trkpt lat="43.46833478164731" lon="10.602847440767665"><ele>580.0</ele><time>2026-04-18T16:39:53.001Z</time></trkpt><trkpt lat="43.4684009779565" lon="10.602823761904453"><ele>580.0</ele><time>2026-04-18T16:39:55.001Z</time></trkpt><trkpt lat="43.46848237851814" lon="10.60288352192785"><ele>580.0</ele><time>2026-04-18T16:39:57.001Z</time></trkpt><trkpt lat="43.46857414842942" lon="10.602934352962201"><ele>580.0</ele><time>2026-04-18T16:39:59.001Z</time></trkpt><trkpt lat="43.468690547105155" lon="10.602986658363909"><ele>580.0</ele><time>2026-04-18T16:40:01.001Z</time></trkpt><trkpt lat="43.46880107291987" lon="10.603040479865799"><ele>581.5</ele><time>2026-04-18T16:40:03.001Z</time></trkpt><trkpt lat="43.46885793407206" lon="10.603077854543997"><ele>583.0</ele><time>2026-04-18T16:40:06.001Z</time></trkpt><trkpt lat="43.46893816058216" lon="10.603123691753332"><ele>584.5</ele><time>2026-04-18T16:40:12.001Z</time></trkpt><trkpt lat="43.469045470648496" lon="10.60319198987811"><ele>586.0</ele><time>2026-04-18T16:40:14.001Z</time></trkpt><trkpt lat="43.46911141933592" lon="10.60323615700336"><ele>587.5</ele><time>2026-04-18T16:40:15.001Z</time></trkpt><trkpt lat="43.46917098495444" lon="10.603285693501178"><ele>589.0</ele><time>2026-04-18T16:40:16.001Z</time></trkpt><trkpt lat="43.46922816973233" lon="10.603341308713931"><ele>589.0</ele><time>2026-04-18T16:40:17.001Z</time></trkpt><trkpt lat="43.46928696894842" lon="10.603392635942432"><ele>589.0</ele><time>2026-04-18T16:40:18.001Z</time></trkpt><trkpt lat="43.46935264989714" lon="10.603443934755262"><ele>589.0</ele><time>2026-04-18T16:40:19.001Z</time></trkpt><trkpt lat="43.46942279779038" lon="10.603490106061649"><ele>589.0</ele><time>2026-04-18T16:40:20.001Z</time></trkpt><trkpt lat="43.46949688528905" lon="10.603544449190492"><ele>589.0</ele><time>2026-04-18T16:40:21.001Z</time></trkpt><trkpt lat="43.469572090932836" lon="10.603599957193184"><ele>589.0</ele><time>2026-04-18T16:40:22.001Z</time></trkpt><trkpt lat="43.46964584136123" lon="10.603662575279841"><ele>588.1666666666667</ele><time>2026-04-18T16:40:23.001Z</time></trkpt><trkpt lat="43.4697165859468" lon="10.603739327297136"><ele>587.3333333333334</ele><time>2026-04-18T16:40:24.001Z</time></trkpt><trkpt lat="43.46978314250499" lon="10.603812727562252"><ele>586.5</ele><time>2026-04-18T16:40:25.001Z</time></trkpt><trkpt lat="43.4698442496128" lon="10.603877381605853"><ele>585.6666666666666</ele><time>2026-04-18T16:40:26.001Z</time></trkpt><trkpt lat="43.46990659050099" lon="10.603927142252228"><ele>584.8333333333333</ele><time>2026-04-18T16:40:27.001Z</time></trkpt><trkpt lat="43.469994517269974" lon="10.603984958796193"><ele>584.0</ele><time>2026-04-18T16:40:29.001Z</time></trkpt><trkpt lat="43.47007537884118" lon="10.60402932834961"><ele>584.0</ele><time>2026-04-18T16:40:32.001Z</time></trkpt><trkpt lat="43.4701520481328" lon="10.604048227546787"><ele>584.0</ele><time>2026-04-18T16:40:34.001Z</time></trkpt><trkpt lat="43.47027169501233" lon="10.604086106309287"><ele>584.0</ele><time>2026-04-18T16:40:36.001Z</time></trkpt><trkpt lat="43.47035048638413" lon="10.604100610325249"><ele>584.0</ele><time>2026-04-18T16:40:37.001Z</time></trkpt><trkpt lat="43.47042669439077" lon="10.604124254796737"><ele>584.0</ele><time>2026-04-18T16:40:38.001Z</time></trkpt><trkpt lat="43.47050420334543" lon="10.604153698687629"><ele>584.0</ele><time>2026-04-18T16:40:39.001Z</time></trkpt><trkpt lat="43.47058486108006" lon="10.604179449767857"><ele>583.2</ele><time>2026-04-18T16:40:40.001Z</time></trkpt><trkpt lat="43.470675153556485" lon="10.604186928808193"><ele>582.4</ele><time>2026-04-18T16:40:41.001Z</time></trkpt><trkpt lat="43.47076437418283" lon="10.604168387304636"><ele>581.6</ele><time>2026-04-18T16:40:42.001Z</time></trkpt><trkpt lat="43.47085150803145" lon="10.604148717471075"><ele>580.8</ele><time>2026-04-18T16:40:43.001Z</time></trkpt><trkpt lat="43.47094026283381" lon="10.604123480872422"><ele>580.0</ele><time>2026-04-18T16:40:44.001Z</time></trkpt><trkpt lat="43.47103060980978" lon="10.604116019197326"><ele>580.0</ele><time>2026-04-18T16:40:45.001Z</time></trkpt><trkpt lat="43.47111925427863" lon="10.604135824240423"><ele>580.0</ele><time>2026-04-18T16:40:46.001Z</time></trkpt><trkpt lat="43.47120314781348" lon="10.60417451567535"><ele>580.0</ele><time>2026-04-18T16:40:47.001Z</time></trkpt><trkpt lat="43.47128378199935" lon="10.604214633445691"><ele>580.0</ele><time>2026-04-18T16:40:48.001Z</time></trkpt><trkpt lat="43.471371592448065" lon="10.604257771906186"><ele>580.0</ele><time>2026-04-18T16:40:49.001Z</time></trkpt><trkpt lat="43.471462856261056" lon="10.604278872918485"><ele>580.3333333333334</ele><time>2026-04-18T16:40:50.001Z</time></trkpt><trkpt lat="43.4715493921601" lon="10.604281789919476"><ele>580.6666666666667</ele><time>2026-04-18T16:40:51.001Z</time></trkpt><trkpt lat="43.47163431055291" lon="10.604272150424642"><ele>581.0</ele><time>2026-04-18T16:40:52.001Z</time></trkpt><trkpt lat="43.4717075721764" lon="10.60423809978551"><ele>581.3333333333334</ele><time>2026-04-18T16:40:53.001Z</time></trkpt><trkpt lat="43.47177555684888" lon="10.604203174438194"><ele>581.6666666666666</ele><time>2026-04-18T16:40:54.001Z</time></trkpt><trkpt lat="43.47183333501905" lon="10.604159447800141"><ele>582.0</ele><time>2026-04-18T16:40:55.001Z</time></trkpt><trkpt lat="43.47189382225262" lon="10.604108392613982"><ele>582.0</ele><time>2026-04-18T16:40:56.001Z</time></trkpt><trkpt lat="43.47195961535114" lon="10.604080777772973"><ele>582.0</ele><time>2026-04-18T16:40:57.001Z</time></trkpt><trkpt lat="43.47203346401211" lon="10.604080221092051"><ele>582.0</ele><time>2026-04-18T16:40:58.002Z</time></trkpt><trkpt lat="43.47210225413087" lon="10.604110624738333"><ele>582.0</ele><time>2026-04-18T16:40:59.002Z</time></trkpt><trkpt lat="43.47216199383692" lon="10.60416512744644"><ele>582.0</ele><time>2026-04-18T16:41:00.002Z</time></trkpt><trkpt lat="43.47221084583955" lon="10.60425416551495"><ele>582.0</ele><time>2026-04-18T16:41:01.002Z</time></trkpt><trkpt lat="43.4722471820058" lon="10.604357213069258"><ele>582.8000000000001</ele><time>2026-04-18T16:41:02.002Z</time></trkpt><trkpt lat="43.472281996340186" lon="10.604464694999097"><ele>583.6</ele><time>2026-04-18T16:41:03.002Z</time></trkpt><trkpt lat="43.472323868200505" lon="10.604581001236918"><ele>584.4000000000001</ele><time>2026-04-18T16:41:04.002Z</time></trkpt><trkpt lat="43.472375437149225" lon="10.604706629390803"><ele>585.2</ele><time>2026-04-18T16:41:05.002Z</time></trkpt><trkpt lat="43.472428541723524" lon="10.604812390648444"><ele>586.0</ele><time>2026-04-18T16:41:06.002Z</time></trkpt><trkpt lat="43.47247085010104" lon="10.604924491325052"><ele>586.0</ele><time>2026-04-18T16:41:07.002Z</time></trkpt><trkpt lat="43.47249893182879" lon="10.60503900746181"><ele>586.0</ele><time>2026-04-18T16:41:08.002Z</time></trkpt><trkpt lat="43.47251293806916" lon="10.605147622179375"><ele>586.0</ele><time>2026-04-18T16:41:09.002Z</time></trkpt><trkpt lat="43.472528715195836" lon="10.605247040230438"><ele>586.0</ele><time>2026-04-18T16:41:10.002Z</time></trkpt><trkpt lat="43.47254704732273" lon="10.605342860185967"><ele>586.0</ele><time>2026-04-18T16:41:11.002Z</time></trkpt><trkpt lat="43.47258592473944" lon="10.60543931780463"><ele>586.0</ele><time>2026-04-18T16:41:12.002Z</time></trkpt><trkpt lat="43.47263042308368" lon="10.605531121088976"><ele>586.3333333333334</ele><time>2026-04-18T16:41:13.002Z</time></trkpt><trkpt lat="43.472690098288304" lon="10.605611238318891"><ele>586.6666666666667</ele><time>2026-04-18T16:41:14.002Z</time></trkpt><trkpt lat="43.472750058366465" lon="10.605689026954167"><ele>587.0</ele><time>2026-04-18T16:41:15.002Z</time></trkpt><trkpt lat="43.47282401201964" lon="10.605765923483395"><ele>587.3333333333334</ele><time>2026-04-18T16:41:16Z</time></trkpt><trkpt lat="43.472900799272324" lon="10.605842077039986"><ele>587.6666666666666</ele><time>2026-04-18T16:41:17Z</time></trkpt><trkpt lat="43.47297535468988" lon="10.605913175921712"><ele>588.0</ele><time>2026-04-18T16:41:18Z</time></trkpt><trkpt lat="43.47304516366717" lon="10.60598244022714"><ele>588.0</ele><time>2026-04-18T16:41:19Z</time></trkpt><trkpt lat="43.47310918474353" lon="10.606047429824672"><ele>588.0</ele><time>2026-04-18T16:41:20Z</time></trkpt><trkpt lat="43.473171235115586" lon="10.606105885240394"><ele>588.0</ele><time>2026-04-18T16:41:21Z</time></trkpt><trkpt lat="43.473232148245074" lon="10.606172729900795"><ele>588.0</ele><time>2026-04-18T16:41:22Z</time></trkpt><trkpt lat="43.47328727105563" lon="10.60622328445686"><ele>588.0</ele><time>2026-04-18T16:41:23Z</time></trkpt><trkpt lat="43.47338212924865" lon="10.606276160239581"><ele>588.0</ele><time>2026-04-18T16:41:25Z</time></trkpt><trkpt lat="43.47347941220706" lon="10.606283642767828"><ele>587.0</ele><time>2026-04-18T16:41:27Z</time></trkpt><trkpt lat="43.473573135432055" lon="10.606273003223427"><ele>586.0</ele><time>2026-04-18T16:41:29Z</time></trkpt><trkpt lat="43.47366883286949" lon="10.606233701854379"><ele>585.0</ele><time>2026-04-18T16:41:31Z</time></trkpt><trkpt lat="43.47376951350789" lon="10.606191798298013"><ele>584.0</ele><time>2026-04-18T16:41:33Z</time></trkpt><trkpt lat="43.47383326764452" lon="10.60619097440596"><ele>583.0</ele><time>2026-04-18T16:41:34Z</time></trkpt><trkpt lat="43.47389971626459" lon="10.606200605186018"><ele>582.0</ele><time>2026-04-18T16:41:35Z</time></trkpt><trkpt lat="43.473972956286644" lon="10.606211607592689"><ele>581.4285714285714</ele><time>2026-04-18T16:41:36Z</time></trkpt><trkpt lat="43.47405036748164" lon="10.60622530289622"><ele>580.8571428571428</ele><time>2026-04-18T16:41:37Z</time></trkpt><trkpt lat="43.47412738211791" lon="10.60623323534486"><ele>580.2857142857142</ele><time>2026-04-18T16:41:38Z</time></trkpt><trkpt lat="43.47420098042606" lon="10.606235750166169"><ele>579.7142857142857</ele><time>2026-04-18T16:41:39Z</time></trkpt><trkpt lat="43.47426879525194" lon="10.606233430941034"><ele>579.1428571428571</ele><time>2026-04-18T16:41:40Z</time></trkpt><trkpt lat="43.474336220417285" lon="10.606212464752788"><ele>578.5714285714286</ele><time>2026-04-18T16:41:41Z</time></trkpt><trkpt lat="43.4744078100324" lon="10.606184790211989"><ele>578.0</ele><time>2026-04-18T16:41:42Z</time></trkpt><trkpt lat="43.47447155107305" lon="10.606162391465704"><ele>577.6666666666666</ele><time>2026-04-18T16:41:43Z</time></trkpt><trkpt lat="43.47454279743412" lon="10.60615260038884"><ele>577.3333333333333</ele><time>2026-04-18T16:41:44Z</time></trkpt><trkpt lat="43.474611582407476" lon="10.60614984622395"><ele>577.0</ele><time>2026-04-18T16:41:45Z</time></trkpt><trkpt lat="43.47472243665631" lon="10.606150596814178"><ele>576.6666666666666</ele><time>2026-04-18T16:41:47Z</time></trkpt><trkpt lat="43.47479823389739" lon="10.606156650994269"><ele>576.3333333333334</ele><time>2026-04-18T16:41:49Z</time></trkpt><trkpt lat="43.47486771237116" lon="10.606107264654485"><ele>576.0</ele><time>2026-04-18T16:41:57Z</time></trkpt><trkpt lat="43.47491062918155" lon="10.606019032408245"><ele>575.7142857142858</ele><time>2026-04-18T16:42:00Z</time></trkpt><trkpt lat="43.47497134253669" lon="10.605951340157246"><ele>575.4285714285714</ele><time>2026-04-18T16:42:07.001Z</time></trkpt><trkpt lat="43.4750011707943" lon="10.605855875070652"><ele>575.1428571428571</ele><time>2026-04-18T16:42:12.001Z</time></trkpt><trkpt lat="43.47501547803284" lon="10.6057492381699"><ele>574.8571428571429</ele><time>2026-04-18T16:42:17.001Z</time></trkpt><trkpt lat="43.47500981601935" lon="10.60566216566044"><ele>574.5714285714286</ele><time>2026-04-18T16:42:19.001Z</time></trkpt><trkpt lat="43.4749972942674" lon="10.605543706827026"><ele>574.2857142857143</ele><time>2026-04-18T16:42:22.001Z</time></trkpt><trkpt lat="43.474983415685834" lon="10.60545721679486"><ele>574.0</ele><time>2026-04-18T16:42:24.001Z</time></trkpt><trkpt lat="43.47496268818139" lon="10.60537164882873"><ele>574.5</ele><time>2026-04-18T16:42:26.001Z</time></trkpt><trkpt lat="43.47494184366095" lon="10.605261763307558"><ele>575.0</ele><time>2026-04-18T16:42:29.001Z</time></trkpt><trkpt lat="43.47493506077731" lon="10.605158014899414"><ele>575.5</ele><time>2026-04-18T16:42:32.001Z</time></trkpt><trkpt lat="43.47491905000397" lon="10.605056173638879"><ele>576.0</ele><time>2026-04-18T16:42:35.001Z</time></trkpt><trkpt lat="43.4748919121002" lon="10.604947092238424"><ele>576.5</ele><time>2026-04-18T16:42:38.001Z</time></trkpt><trkpt lat="43.47487054147389" lon="10.604839670103848"><ele>577.0</ele><time>2026-04-18T16:42:41.001Z</time></trkpt><trkpt lat="43.47483080514748" lon="10.604754882456437"><ele>577.0</ele><time>2026-04-18T16:42:44.001Z</time></trkpt><trkpt lat="43.474806143159825" lon="10.60466287957865"><ele>577.0</ele><time>2026-04-18T16:42:47.001Z</time></trkpt><trkpt lat="43.47481582689392" lon="10.60457487434021"><ele>577.0</ele><time>2026-04-18T16:42:50.001Z</time></trkpt><trkpt lat="43.47482042082488" lon="10.604464090786575"><ele>577.0</ele><time>2026-04-18T16:42:54.001Z</time></trkpt><trkpt lat="43.47483395571218" lon="10.604357069424601"><ele>577.0</ele><time>2026-04-18T16:42:56.001Z</time></trkpt><trkpt lat="43.474824279292505" lon="10.60425130288804"><ele>577.0</ele><time>2026-04-18T16:42:58.001Z</time></trkpt><trkpt lat="43.474816392970986" lon="10.604149743943973"><ele>577.0</ele><time>2026-04-18T16:43:00.001Z</time></trkpt><trkpt lat="43.47481459595116" lon="10.604051545154785"><ele>577.1428571428571</ele><time>2026-04-18T16:43:02.001Z</time></trkpt><trkpt lat="43.47483050783902" lon="10.603967100247312"><ele>577.2857142857143</ele><time>2026-04-18T16:43:04.001Z</time></trkpt><trkpt lat="43.474853594141344" lon="10.603880819080818"><ele>577.4285714285714</ele><time>2026-04-18T16:43:06.001Z</time></trkpt><trkpt lat="43.474872566038314" lon="10.603784742497897"><ele>577.5714285714286</ele><time>2026-04-18T16:43:08.001Z</time></trkpt><trkpt lat="43.47488518210946" lon="10.603691185897354"><ele>577.7142857142857</ele><time>2026-04-18T16:43:10.001Z</time></trkpt><trkpt lat="43.47488762482863" lon="10.603598754461201"><ele>577.8571428571429</ele><time>2026-04-18T16:43:12.001Z</time></trkpt><trkpt lat="43.47490027149484" lon="10.603492372409205"><ele>578.0</ele><time>2026-04-18T16:43:14.001Z</time></trkpt><trkpt lat="43.474974165999804" lon="10.603427217150678"><ele>578.0</ele><time>2026-04-18T16:43:16.001Z</time></trkpt><trkpt lat="43.47507126624049" lon="10.603383193436443"><ele>578.0</ele><time>2026-04-18T16:43:18.001Z</time></trkpt><trkpt lat="43.475182285543305" lon="10.603359797534228"><ele>578.0</ele><time>2026-04-18T16:43:20.001Z</time></trkpt><trkpt lat="43.47526030862293" lon="10.603387836503764"><ele>578.0</ele><time>2026-04-18T16:43:22Z</time></trkpt><trkpt lat="43.475349092565686" lon="10.603402015941843"><ele>578.0</ele><time>2026-04-18T16:43:26Z</time></trkpt><trkpt lat="43.47542309520885" lon="10.603372719207181"><ele>577.5</ele><time>2026-04-18T16:43:28Z</time></trkpt><trkpt lat="43.475528997831866" lon="10.603346019816465"><ele>577.0</ele><time>2026-04-18T16:43:30Z</time></trkpt><trkpt lat="43.47564535607381" lon="10.603335365206478"><ele>576.5</ele><time>2026-04-18T16:43:32Z</time></trkpt><trkpt lat="43.475711439265844" lon="10.603339272808736"><ele>576.0</ele><time>2026-04-18T16:43:33Z</time></trkpt><trkpt lat="43.4757814129473" lon="10.603347821480789"><ele>575.5</ele><time>2026-04-18T16:43:34Z</time></trkpt><trkpt lat="43.475855524021114" lon="10.603360584278128"><ele>575.0</ele><time>2026-04-18T16:43:35Z</time></trkpt><trkpt lat="43.475934895404414" lon="10.603383400014149"><ele>575.0</ele><time>2026-04-18T16:43:36Z</time></trkpt><trkpt lat="43.476010974259424" lon="10.603415665844263"><ele>575.0</ele><time>2026-04-18T16:43:37Z</time></trkpt><trkpt lat="43.476077965120425" lon="10.603453938788606"><ele>575.0</ele><time>2026-04-18T16:43:38Z</time></trkpt><trkpt lat="43.47613927910485" lon="10.60350583077769"><ele>575.0</ele><time>2026-04-18T16:43:39Z</time></trkpt><trkpt lat="43.476196883862144" lon="10.603565341732727"><ele>575.0</ele><time>2026-04-18T16:43:40Z</time></trkpt><trkpt lat="43.476248313907014" lon="10.603633027643268"><ele>575.0</ele><time>2026-04-18T16:43:41Z</time></trkpt><trkpt lat="43.47630100257649" lon="10.603699420890443"><ele>575.0</ele><time>2026-04-18T16:43:42Z</time></trkpt><trkpt lat="43.47635967805859" lon="10.603755858587062"><ele>573.8333333333333</ele><time>2026-04-18T16:43:43Z</time></trkpt><trkpt lat="43.47642035099292" lon="10.603799290758353"><ele>572.6666666666666</ele><time>2026-04-18T16:43:44Z</time></trkpt><trkpt lat="43.476537855105214" lon="10.60385046937763"><ele>571.5</ele><time>2026-04-18T16:43:46Z</time></trkpt><trkpt lat="43.47660428432261" lon="10.603862075763313"><ele>570.3333333333334</ele><time>2026-04-18T16:43:47Z</time></trkpt><trkpt lat="43.47668698067789" lon="10.603866100978713"><ele>569.1666666666667</ele><time>2026-04-18T16:43:49Z</time></trkpt><trkpt lat="43.47676332440942" lon="10.603859107434339"><ele>568.0</ele><time>2026-04-18T16:44:15Z</time></trkpt><trkpt lat="43.47682758783775" lon="10.60383518901831"><ele>568.0</ele><time>2026-04-18T16:44:18Z</time></trkpt><trkpt lat="43.47690562952356" lon="10.603794697412587"><ele>568.0</ele><time>2026-04-18T16:44:20Z</time></trkpt><trkpt lat="43.47700603175279" lon="10.603725484169333"><ele>568.0</ele><time>2026-04-18T16:44:22Z</time></trkpt><trkpt lat="43.477062996252904" lon="10.603687401096797"><ele>568.0</ele><time>2026-04-18T16:44:23Z</time></trkpt><trkpt lat="43.47712598860179" lon="10.603652797613016"><ele>568.0</ele><time>2026-04-18T16:44:24Z</time></trkpt><trkpt lat="43.47719852048817" lon="10.603638955383405"><ele>568.0</ele><time>2026-04-18T16:44:25Z</time></trkpt><trkpt lat="43.47727197281541" lon="10.603622208596265"><ele>566.7142857142857</ele><time>2026-04-18T16:44:26Z</time></trkpt><trkpt lat="43.47734647475391" lon="10.603604685484374"><ele>565.4285714285713</ele><time>2026-04-18T16:44:27Z</time></trkpt><trkpt lat="43.47741949121576" lon="10.603586395791941"><ele>564.1428571428571</ele><time>2026-04-18T16:44:28Z</time></trkpt><trkpt lat="43.47748504279108" lon="10.603563636362114"><ele>562.8571428571429</ele><time>2026-04-18T16:44:29Z</time></trkpt><trkpt lat="43.47754313596306" lon="10.603529650179969"><ele>561.5714285714287</ele><time>2026-04-18T16:44:30Z</time></trkpt><trkpt lat="43.47760077629832" lon="10.603483738695433"><ele>560.2857142857143</ele><time>2026-04-18T16:44:31Z</time></trkpt><trkpt lat="43.477660362337375" lon="10.603427078143024"><ele>559.0</ele><time>2026-04-18T16:44:32Z</time></trkpt><trkpt lat="43.4777216897046" lon="10.603352115060435"><ele>559.0</ele><time>2026-04-18T16:44:33Z</time></trkpt><trkpt lat="43.47778329624299" lon="10.603265915981908"><ele>559.0</ele><time>2026-04-18T16:44:34Z</time></trkpt><trkpt lat="43.47784965653555" lon="10.603167200628691"><ele>559.0</ele><time>2026-04-18T16:44:35Z</time></trkpt><trkpt lat="43.47792206595271" lon="10.603061436029094"><ele>559.0</ele><time>2026-04-18T16:44:36Z</time></trkpt><trkpt lat="43.47799412964635" lon="10.6029656015007"><ele>559.0</ele><time>2026-04-18T16:44:37Z</time></trkpt><trkpt lat="43.47806258287173" lon="10.602878544195743"><ele>556.6</ele><time>2026-04-18T16:44:38Z</time></trkpt><trkpt lat="43.478127735477564" lon="10.602787628280176"><ele>554.2</ele><time>2026-04-18T16:44:39Z</time></trkpt><trkpt lat="43.47817781823558" lon="10.602684719428591"><ele>551.8000000000001</ele><time>2026-04-18T16:44:40Z</time></trkpt><trkpt lat="43.478213700673635" lon="10.602559919073196"><ele>549.4</ele><time>2026-04-18T16:44:41Z</time></trkpt><trkpt lat="43.478243908345625" lon="10.602427779082804"><ele>547.0</ele><time>2026-04-18T16:44:42Z</time></trkpt><trkpt lat="43.478286130457796" lon="10.602298442748499"><ele>547.0</ele><time>2026-04-18T16:44:43Z</time></trkpt><trkpt lat="43.47834266080312" lon="10.602180372223298"><ele>547.0</ele><time>2026-04-18T16:44:44Z</time></trkpt><trkpt lat="43.47841209072589" lon="10.602079014727803"><ele>547.0</ele><time>2026-04-18T16:44:45Z</time></trkpt><trkpt lat="43.478488976386956" lon="10.601984302811683"><ele>547.0</ele><time>2026-04-18T16:44:46Z</time></trkpt><trkpt lat="43.47856418500158" lon="10.601892595784664"><ele>547.0</ele><time>2026-04-18T16:44:47Z</time></trkpt><trkpt lat="43.47864155572455" lon="10.601808937516195"><ele>546.6</ele><time>2026-04-18T16:44:48.001Z</time></trkpt><trkpt lat="43.478722211114636" lon="10.601735701864184"><ele>546.2</ele><time>2026-04-18T16:44:49.001Z</time></trkpt><trkpt lat="43.47881285386581" lon="10.601692869766586"><ele>545.8</ele><time>2026-04-18T16:44:50.001Z</time></trkpt><trkpt lat="43.47891205747747" lon="10.601678904372356"><ele>545.4</ele><time>2026-04-18T16:44:51.001Z</time></trkpt><trkpt lat="43.479016948424395" lon="10.601712611312124"><ele>545.0</ele><time>2026-04-18T16:44:52.001Z</time></trkpt><trkpt lat="43.47911547343048" lon="10.601765444822096"><ele>544.6</ele><time>2026-04-18T16:44:53.001Z</time></trkpt><trkpt lat="43.47920781744024" lon="10.601761137294377"><ele>544.2</ele><time>2026-04-18T16:44:54.001Z</time></trkpt><trkpt lat="43.479298421887506" lon="10.601701803044298"><ele>543.8</ele><time>2026-04-18T16:44:55.001Z</time></trkpt><trkpt lat="43.479375430199134" lon="10.601597706169727"><ele>543.4</ele><time>2026-04-18T16:44:56.001Z</time></trkpt><trkpt lat="43.4794470584586" lon="10.60146964565301"><ele>543.0</ele><time>2026-04-18T16:44:57.001Z</time></trkpt><trkpt lat="43.47952624719654" lon="10.601352156185355"><ele>541.1999999999999</ele><time>2026-04-18T16:44:58.001Z</time></trkpt><trkpt lat="43.479610955174344" lon="10.60125434863153"><ele>539.4</ele><time>2026-04-18T16:44:59.001Z</time></trkpt><trkpt lat="43.479694018090484" lon="10.601174785880096"><ele>537.5999999999999</ele><time>2026-04-18T16:45:00.001Z</time></trkpt><trkpt lat="43.47977987098087" lon="10.601115727487798"><ele>535.8</ele><time>2026-04-18T16:45:01.001Z</time></trkpt><trkpt lat="43.479844538085395" lon="10.601053070810114"><ele>534.0</ele><time>2026-04-18T16:45:02.001Z</time></trkpt><trkpt lat="43.47990706707719" lon="10.600987495229633"><ele>534.0</ele><time>2026-04-18T16:45:03.001Z</time></trkpt><trkpt lat="43.47994490263644" lon="10.600894632650594"><ele>534.0</ele><time>2026-04-18T16:45:04.001Z</time></trkpt><trkpt lat="43.47996551575035" lon="10.60077658701717"><ele>534.0</ele><time>2026-04-18T16:45:05.001Z</time></trkpt><trkpt lat="43.47997047412899" lon="10.600641455365334"><ele>534.0</ele><time>2026-04-18T16:45:06.001Z</time></trkpt><trkpt lat="43.479973841539355" lon="10.60049493003567"><ele>534.0</ele><time>2026-04-18T16:45:07.001Z</time></trkpt><trkpt lat="43.47998327778006" lon="10.600348787855188"><ele>533.2</ele><time>2026-04-18T16:45:08.001Z</time></trkpt><trkpt lat="43.480005109020205" lon="10.600217508687365"><ele>532.4</ele><time>2026-04-18T16:45:09.001Z</time></trkpt><trkpt lat="43.480051266289614" lon="10.600096762539822"><ele>531.6</ele><time>2026-04-18T16:45:10.001Z</time></trkpt><trkpt lat="43.48011431763713" lon="10.59998555173673"><ele>530.8</ele><time>2026-04-18T16:45:11.001Z</time></trkpt><trkpt lat="43.480184293609135" lon="10.599887977318154"><ele>530.0</ele><time>2026-04-18T16:45:12.001Z</time></trkpt><trkpt lat="43.480254597487445" lon="10.599818886530517"><ele>529.9999999999999</ele><time>2026-04-18T16:45:13.001Z</time></trkpt><trkpt lat="43.480319775072644" lon="10.599762885313739"><ele>530.0</ele><time>2026-04-18T16:45:14.001Z</time></trkpt><trkpt lat="43.48038012147101" lon="10.599716555213925"><ele>530.0</ele><time>2026-04-18T16:45:15.001Z</time></trkpt><trkpt lat="43.48044075517546" lon="10.599681889107295"><ele>530.0</ele><time>2026-04-18T16:45:16.001Z</time></trkpt><trkpt lat="43.48050555604063" lon="10.599646521611962"><ele>530.0</ele><time>2026-04-18T16:45:17.001Z</time></trkpt><trkpt lat="43.480574319044955" lon="10.59961909719784"><ele>529.9999999999999</ele><time>2026-04-18T16:45:18.001Z</time></trkpt><trkpt lat="43.48063630113261" lon="10.59959637004217"><ele>530.0</ele><time>2026-04-18T16:45:19.001Z</time></trkpt><trkpt lat="43.48070032649465" lon="10.599576267045151"><ele>529.4285714285713</ele><time>2026-04-18T16:45:20.001Z</time></trkpt><trkpt lat="43.48076840862039" lon="10.599550823205451"><ele>528.8571428571429</ele><time>2026-04-18T16:45:21.001Z</time></trkpt><trkpt lat="43.48083905763596" lon="10.599527143810498"><ele>528.2857142857142</ele><time>2026-04-18T16:45:22.001Z</time></trkpt><trkpt lat="43.480909603172464" lon="10.599507656471356"><ele>527.7142857142857</ele><time>2026-04-18T16:45:23.001Z</time></trkpt><trkpt lat="43.480980522806256" lon="10.599489922692397"><ele>527.1428571428571</ele><time>2026-04-18T16:45:24.001Z</time></trkpt><trkpt lat="43.48105440009324" lon="10.59946713487093"><ele>526.5714285714286</ele><time>2026-04-18T16:45:25.001Z</time></trkpt><trkpt lat="43.481132627651476" lon="10.599439665614673"><ele>526.0</ele><time>2026-04-18T16:45:26.001Z</time></trkpt><trkpt lat="43.481219119912794" lon="10.599408926147374"><ele>523.2</ele><time>2026-04-18T16:45:27.001Z</time></trkpt><trkpt lat="43.48130432541036" lon="10.599376327608267"><ele>520.4000000000001</ele><time>2026-04-18T16:45:28Z</time></trkpt><trkpt lat="43.48139841225723" lon="10.599344209098305"><ele>517.6</ele><time>2026-04-18T16:45:29Z</time></trkpt><trkpt lat="43.48150564627501" lon="10.599341787119887"><ele>514.8000000000001</ele><time>2026-04-18T16:45:30Z</time></trkpt><trkpt lat="43.481622910799004" lon="10.599339904566312"><ele>512.0</ele><time>2026-04-18T16:45:31Z</time></trkpt><trkpt lat="43.4817483826685" lon="10.599336524172985"><ele>512.0</ele><time>2026-04-18T16:45:32Z</time></trkpt><trkpt lat="43.48186918368433" lon="10.599329777858731"><ele>512.0</ele><time>2026-04-18T16:45:33Z</time></trkpt><trkpt lat="43.48198220399197" lon="10.599318024761475"><ele>512.0</ele><time>2026-04-18T16:45:34Z</time></trkpt><trkpt lat="43.48208783992247" lon="10.599310153659633"><ele>512.0</ele><time>2026-04-18T16:45:35Z</time></trkpt><trkpt lat="43.48219481717488" lon="10.599313423404078"><ele>512.0</ele><time>2026-04-18T16:45:36Z</time></trkpt><trkpt lat="43.48230214560334" lon="10.599336322105104"><ele>508.0</ele><time>2026-04-18T16:45:37Z</time></trkpt><trkpt lat="43.48241723162913" lon="10.599381677365086"><ele>504.0</ele><time>2026-04-18T16:45:38Z</time></trkpt><trkpt lat="43.482537327589924" lon="10.599447984464694"><ele>500.0</ele><time>2026-04-18T16:45:39Z</time></trkpt><trkpt lat="43.482659287439766" lon="10.59953042564752"><ele>496.0</ele><time>2026-04-18T16:45:40Z</time></trkpt><trkpt lat="43.48291698436463" lon="10.599692466975249"><ele>496.25</ele><time>2026-04-18T16:45:42Z</time></trkpt><trkpt lat="43.48304571765357" lon="10.599771807414067"><ele>496.5</ele><time>2026-04-18T16:45:43Z</time></trkpt><trkpt lat="43.483176322778284" lon="10.59985176423475"><ele>496.75</ele><time>2026-04-18T16:45:44Z</time></trkpt><trkpt lat="43.48330132883489" lon="10.599918907763243"><ele>497.0</ele><time>2026-04-18T16:45:45Z</time></trkpt><trkpt lat="43.483422639388316" lon="10.599977593295174"><ele>497.0</ele><time>2026-04-18T16:45:46Z</time></trkpt><trkpt lat="43.483540757586255" lon="10.600036016291446"><ele>497.0</ele><time>2026-04-18T16:45:47Z</time></trkpt><trkpt lat="43.483666314303534" lon="10.600079412781488"><ele>497.0</ele><time>2026-04-18T16:45:48Z</time></trkpt><trkpt lat="43.48380515895348" lon="10.600100276420324"><ele>497.0</ele><time>2026-04-18T16:45:49Z</time></trkpt><trkpt lat="43.48395602663671" lon="10.600109791425517"><ele>499.0</ele><time>2026-04-18T16:45:50Z</time></trkpt><trkpt lat="43.484110570070726" lon="10.600091308257275"><ele>501.0</ele><time>2026-04-18T16:45:51Z</time></trkpt><trkpt lat="43.484269794533105" lon="10.60007022116567"><ele>503.0</ele><time>2026-04-18T16:45:52Z</time></trkpt><trkpt lat="43.484433265869825" lon="10.60004375364753"><ele>503.66666666666663</ele><time>2026-04-18T16:45:53Z</time></trkpt><trkpt lat="43.48459732647279" lon="10.600026344664325"><ele>504.33333333333337</ele><time>2026-04-18T16:45:54Z</time></trkpt><trkpt lat="43.48475417843413" lon="10.600013370471538"><ele>505.0</ele><time>2026-04-18T16:45:55Z</time></trkpt><trkpt lat="43.48489789915659" lon="10.599997631019836"><ele>505.0</ele><time>2026-04-18T16:45:56Z</time></trkpt><trkpt lat="43.48503095491175" lon="10.599978681857754"><ele>505.0</ele><time>2026-04-18T16:45:57Z</time></trkpt><trkpt lat="43.485150875294636" lon="10.599952393199912"><ele>505.0</ele><time>2026-04-18T16:45:58Z</time></trkpt><trkpt lat="43.48524827705318" lon="10.5999012302773"><ele>505.0</ele><time>2026-04-18T16:45:59Z</time></trkpt><trkpt lat="43.485333903726236" lon="10.599868402859508"><ele>505.0</ele><time>2026-04-18T16:46:00Z</time></trkpt><trkpt lat="43.485411495584" lon="10.599828969014402"><ele>505.33333333333337</ele><time>2026-04-18T16:46:01Z</time></trkpt><trkpt lat="43.48548670263895" lon="10.599788841357"><ele>505.6666666666667</ele><time>2026-04-18T16:46:02Z</time></trkpt><trkpt lat="43.48555939478246" lon="10.599745123042775"><ele>506.0</ele><time>2026-04-18T16:46:03Z</time></trkpt><trkpt lat="43.485623202177756" lon="10.599708984482739"><ele>506.33333333333337</ele><time>2026-04-18T16:46:04Z</time></trkpt><trkpt lat="43.48569101427531" lon="10.599675859051288"><ele>506.6666666666667</ele><time>2026-04-18T16:46:05Z</time></trkpt><trkpt lat="43.48576417397403" lon="10.599646943296147"><ele>507.0</ele><time>2026-04-18T16:46:06Z</time></trkpt><trkpt lat="43.48584418631698" lon="10.599630852644848"><ele>507.0</ele><time>2026-04-18T16:46:07Z</time></trkpt><trkpt lat="43.48593171848867" lon="10.599620909519729"><ele>507.00000000000006</ele><time>2026-04-18T16:46:08Z</time></trkpt><trkpt lat="43.48603018699732" lon="10.599623990152097"><ele>507.00000000000006</ele><time>2026-04-18T16:46:09Z</time></trkpt><trkpt lat="43.48613864384941" lon="10.599633045285021"><ele>507.0</ele><time>2026-04-18T16:46:10Z</time></trkpt><trkpt lat="43.486250862922354" lon="10.599650318016884"><ele>507.0</ele><time>2026-04-18T16:46:11Z</time></trkpt><trkpt lat="43.48636597474629" lon="10.59967699654413"><ele>506.0</ele><time>2026-04-18T16:46:12Z</time></trkpt><trkpt lat="43.48647801513716" lon="10.599710854353347"><ele>505.00000000000006</ele><time>2026-04-18T16:46:13Z</time></trkpt><trkpt lat="43.486580256815145" lon="10.599738367946495"><ele>504.00000000000006</ele><time>2026-04-18T16:46:14Z</time></trkpt><trkpt lat="43.486682509944906" lon="10.599754622566124"><ele>503.0</ele><time>2026-04-18T16:46:15Z</time></trkpt><trkpt lat="43.4867800086939" lon="10.59975082784513"><ele>502.0</ele><time>2026-04-18T16:46:16Z</time></trkpt><trkpt lat="43.486875251948284" lon="10.599733521500903"><ele>502.0</ele><time>2026-04-18T16:46:17Z</time></trkpt><trkpt lat="43.4869669082993" lon="10.599696123837983"><ele>502.00000000000006</ele><time>2026-04-18T16:46:18Z</time></trkpt><trkpt lat="43.487055438336085" lon="10.59963617855388"><ele>502.00000000000006</ele><time>2026-04-18T16:46:19Z</time></trkpt><trkpt lat="43.487136965056415" lon="10.599555981530706"><ele>502.0</ele><time>2026-04-18T16:46:20Z</time></trkpt><trkpt lat="43.48721250660807" lon="10.59945677979238"><ele>502.0</ele><time>2026-04-18T16:46:21Z</time></trkpt><trkpt lat="43.48728097885471" lon="10.599351123131951"><ele>500.0</ele><time>2026-04-18T16:46:22Z</time></trkpt><trkpt lat="43.48735815633848" lon="10.5992412283811"><ele>498.0</ele><time>2026-04-18T16:46:23Z</time></trkpt><trkpt lat="43.48743661119536" lon="10.59912508526128"><ele>496.0</ele><time>2026-04-18T16:46:24Z</time></trkpt><trkpt lat="43.48751608576695" lon="10.599012038422446"><ele>494.0</ele><time>2026-04-18T16:46:25Z</time></trkpt><trkpt lat="43.48759106220846" lon="10.598900995062818"><ele>494.0</ele><time>2026-04-18T16:46:26Z</time></trkpt><trkpt lat="43.4876593970268" lon="10.598787894962001"><ele>494.0</ele><time>2026-04-18T16:46:27Z</time></trkpt><trkpt lat="43.4877195423216" lon="10.59866847033596"><ele>494.0</ele><time>2026-04-18T16:46:28Z</time></trkpt><trkpt lat="43.48776614144258" lon="10.598540449554417"><ele>494.0</ele><time>2026-04-18T16:46:29Z</time></trkpt><trkpt lat="43.48780645425574" lon="10.598409342168274"><ele>494.0</ele><time>2026-04-18T16:46:30Z</time></trkpt><trkpt lat="43.48784918460976" lon="10.59828078904102"><ele>493.79999999999995</ele><time>2026-04-18T16:46:31Z</time></trkpt><trkpt lat="43.48789799661684" lon="10.598152721009436"><ele>493.59999999999997</ele><time>2026-04-18T16:46:32Z</time></trkpt><trkpt lat="43.4879573051927" lon="10.598029214813879"><ele>493.4</ele><time>2026-04-18T16:46:33Z</time></trkpt><trkpt lat="43.488027878519524" lon="10.597915979609022"><ele>493.2</ele><time>2026-04-18T16:46:34Z</time></trkpt><trkpt lat="43.488102648010965" lon="10.597822504688398"><ele>493.0</ele><time>2026-04-18T16:46:35Z</time></trkpt><trkpt lat="43.48817658468918" lon="10.597732883001015"><ele>493.33333333333337</ele><time>2026-04-18T16:46:36Z</time></trkpt><trkpt lat="43.48823686819818" lon="10.597647299284972"><ele>493.6666666666667</ele><time>2026-04-18T16:46:37Z</time></trkpt><trkpt lat="43.48829708243542" lon="10.597568682609795"><ele>494.0</ele><time>2026-04-18T16:46:38Z</time></trkpt><trkpt lat="43.48835446355142" lon="10.597487296637027"><ele>494.33333333333337</ele><time>2026-04-18T16:46:39Z</time></trkpt><trkpt lat="43.48840735656509" lon="10.597398133835247"><ele>494.6666666666667</ele><time>2026-04-18T16:46:40Z</time></trkpt><trkpt lat="43.4884504481181" lon="10.597301696641477"><ele>495.0</ele><time>2026-04-18T16:46:41Z</time></trkpt><trkpt lat="43.488487094444395" lon="10.597196803815901"><ele>495.0</ele><time>2026-04-18T16:46:42Z</time></trkpt><trkpt lat="43.48852200057115" lon="10.597088159485391"><ele>495.0</ele><time>2026-04-18T16:46:43.001Z</time></trkpt><trkpt lat="43.488562534770566" lon="10.596975904135725"><ele>495.0</ele><time>2026-04-18T16:46:44.001Z</time></trkpt><trkpt lat="43.48861292978839" lon="10.59685685240174"><ele>495.0</ele><time>2026-04-18T16:46:45.001Z</time></trkpt><trkpt lat="43.48867325942922" lon="10.596735107548994"><ele>495.0</ele><time>2026-04-18T16:46:46.001Z</time></trkpt><trkpt lat="43.48873476662118" lon="10.596620191964586"><ele>494.4</ele><time>2026-04-18T16:46:47.001Z</time></trkpt><trkpt lat="43.48879455470083" lon="10.596518666415678"><ele>493.8</ele><time>2026-04-18T16:46:48.001Z</time></trkpt><trkpt lat="43.48886222815108" lon="10.596431621011787"><ele>493.20000000000005</ele><time>2026-04-18T16:46:49.001Z</time></trkpt><trkpt lat="43.48893992249618" lon="10.596373173661188"><ele>492.6</ele><time>2026-04-18T16:46:50.001Z</time></trkpt><trkpt lat="43.48902545471839" lon="10.596341495863648"><ele>492.0</ele><time>2026-04-18T16:46:51.001Z</time></trkpt><trkpt lat="43.48911657409486" lon="10.596342562122695"><ele>492.0</ele><time>2026-04-18T16:46:52.001Z</time></trkpt><trkpt lat="43.48920792247848" lon="10.596373616374336"><ele>492.0</ele><time>2026-04-18T16:46:53.001Z</time></trkpt><trkpt lat="43.489296573532755" lon="10.596427506303074"><ele>492.0</ele><time>2026-04-18T16:46:54.001Z</time></trkpt><trkpt lat="43.48938640384207" lon="10.59647583253387"><ele>492.0</ele><time>2026-04-18T16:46:55.001Z</time></trkpt><trkpt lat="43.489564730546924" lon="10.596528662056413"><ele>492.0</ele><time>2026-04-18T16:46:57.001Z</time></trkpt><trkpt lat="43.48965856711318" lon="10.596541308180669"><ele>492.00000000000006</ele><time>2026-04-18T16:46:58.001Z</time></trkpt><trkpt lat="43.48975509086821" lon="10.59654878298852"><ele>492.00000000000006</ele><time>2026-04-18T16:46:59.001Z</time></trkpt><trkpt lat="43.48985441358364" lon="10.596562711250689"><ele>492.0</ele><time>2026-04-18T16:47:00.001Z</time></trkpt><trkpt lat="43.489956088507085" lon="10.596555809523995"><ele>492.0</ele><time>2026-04-18T16:47:01.001Z</time></trkpt><trkpt lat="43.49005251093886" lon="10.596520368445068"><ele>492.0</ele><time>2026-04-18T16:47:02.001Z</time></trkpt><trkpt lat="43.49014319530248" lon="10.596463296255747"><ele>492.00000000000006</ele><time>2026-04-18T16:47:03.001Z</time></trkpt><trkpt lat="43.4902332770316" lon="10.596394682603332"><ele>492.00000000000006</ele><time>2026-04-18T16:47:04.001Z</time></trkpt><trkpt lat="43.49032701168724" lon="10.596339711046376"><ele>492.0</ele><time>2026-04-18T16:47:05.001Z</time></trkpt><trkpt lat="43.49042220151916" lon="10.596311217154915"><ele>492.0</ele><time>2026-04-18T16:47:06.001Z</time></trkpt><trkpt lat="43.490515138727915" lon="10.596305083906449"><ele>491.6</ele><time>2026-04-18T16:47:07.001Z</time></trkpt><trkpt lat="43.49060984572878" lon="10.5963200899002"><ele>491.20000000000005</ele><time>2026-04-18T16:47:08.001Z</time></trkpt><trkpt lat="43.49070790169424" lon="10.596337412850682"><ele>490.8</ele><time>2026-04-18T16:47:09.001Z</time></trkpt><trkpt lat="43.49080949838118" lon="10.596347647112962"><ele>490.4</ele><time>2026-04-18T16:47:10.001Z</time></trkpt><trkpt lat="43.49091110480782" lon="10.596351368312801"><ele>490.0</ele><time>2026-04-18T16:47:11.001Z</time></trkpt><trkpt lat="43.491015092349194" lon="10.596357203031909"><ele>490.0</ele><time>2026-04-18T16:47:12.001Z</time></trkpt><trkpt lat="43.49112088593277" lon="10.596354189367814"><ele>490.0</ele><time>2026-04-18T16:47:13.001Z</time></trkpt><trkpt lat="43.49122320430386" lon="10.596358326103035"><ele>490.0</ele><time>2026-04-18T16:47:14.001Z</time></trkpt><trkpt lat="43.49132336941081" lon="10.596382131108712"><ele>490.0</ele><time>2026-04-18T16:47:15.001Z</time></trkpt><trkpt lat="43.49142304478843" lon="10.596425822256238"><ele>490.0</ele><time>2026-04-18T16:47:16.001Z</time></trkpt><trkpt lat="43.49151787105938" lon="10.596491263495281"><ele>489.2</ele><time>2026-04-18T16:47:17.001Z</time></trkpt><trkpt lat="43.49161083637173" lon="10.596559073539677"><ele>488.4</ele><time>2026-04-18T16:47:18.001Z</time></trkpt><trkpt lat="43.49170295742755" lon="10.59662764219403"><ele>487.6</ele><time>2026-04-18T16:47:19.001Z</time></trkpt><trkpt lat="43.49178229307836" lon="10.59668722168961"><ele>486.8</ele><time>2026-04-18T16:47:20.001Z</time></trkpt><trkpt lat="43.49183819686179" lon="10.596744446526827"><ele>486.0</ele><time>2026-04-18T16:47:21.001Z</time></trkpt><trkpt lat="43.491890764813924" lon="10.596889967770256"><ele>486.0</ele><time>2026-04-18T16:47:23.001Z</time></trkpt><trkpt lat="43.49189939566567" lon="10.596984597065964"><ele>486.0</ele><time>2026-04-18T16:47:24.001Z</time></trkpt><trkpt lat="43.491907115483144" lon="10.597095271685989"><ele>486.0</ele><time>2026-04-18T16:47:25.001Z</time></trkpt><trkpt lat="43.49191775047879" lon="10.597217964038308"><ele>486.0</ele><time>2026-04-18T16:47:26.001Z</time></trkpt><trkpt lat="43.49194766752778" lon="10.597342204822997"><ele>486.0</ele><time>2026-04-18T16:47:27.001Z</time></trkpt><trkpt lat="43.4919799557261" lon="10.597465966118135"><ele>486.0</ele><time>2026-04-18T16:47:28.001Z</time></trkpt><trkpt lat="43.49199729066421" lon="10.597596933929974"><ele>485.5</ele><time>2026-04-18T16:47:29.001Z</time></trkpt><trkpt lat="43.49200678216291" lon="10.597729465421402"><ele>485.0</ele><time>2026-04-18T16:47:30.001Z</time></trkpt><trkpt lat="43.49201723604706" lon="10.597859085234171"><ele>484.5</ele><time>2026-04-18T16:47:31.001Z</time></trkpt><trkpt lat="43.492036952594624" lon="10.597980808843936"><ele>484.0</ele><time>2026-04-18T16:47:32.001Z</time></trkpt><trkpt lat="43.49206151136906" lon="10.59809845149031"><ele>483.5</ele><time>2026-04-18T16:47:33.001Z</time></trkpt><trkpt lat="43.492079186154335" lon="10.59819783468908"><ele>483.0</ele><time>2026-04-18T16:47:33.999Z</time></trkpt><trkpt lat="43.49207232660604" lon="10.598297020312335"><ele>481.5</ele><time>2026-04-18T16:47:34.999Z</time></trkpt><trkpt lat="43.49205768456075" lon="10.598395366840116"><ele>480.0</ele><time>2026-04-18T16:47:35.999Z</time></trkpt><trkpt lat="43.49204206996485" lon="10.598498036568943"><ele>478.5</ele><time>2026-04-18T16:47:36.999Z</time></trkpt><trkpt lat="43.49202441087882" lon="10.598602204883555"><ele>477.0</ele><time>2026-04-18T16:47:37.999Z</time></trkpt><trkpt lat="43.49200910467655" lon="10.59871151171741"><ele>475.5</ele><time>2026-04-18T16:47:38.999Z</time></trkpt><trkpt lat="43.49199192329647" lon="10.598820942848253"><ele>474.0</ele><time>2026-04-18T16:47:39.999Z</time></trkpt><trkpt lat="43.49196956422728" lon="10.598929456911335"><ele>473.0</ele><time>2026-04-18T16:47:40.999Z</time></trkpt><trkpt lat="43.49195891582405" lon="10.599043026497778"><ele>472.0</ele><time>2026-04-18T16:47:41.999Z</time></trkpt><trkpt lat="43.49197078826517" lon="10.599161072637935"><ele>471.0</ele><time>2026-04-18T16:47:42.999Z</time></trkpt><trkpt lat="43.49198349829483" lon="10.599278045890149"><ele>470.0</ele><time>2026-04-18T16:47:43.999Z</time></trkpt><trkpt lat="43.49198392243122" lon="10.599397204279926"><ele>469.0</ele><time>2026-04-18T16:47:44.999Z</time></trkpt><trkpt lat="43.49197417475367" lon="10.599517754130941"><ele>468.0</ele><time>2026-04-18T16:47:45.999Z</time></trkpt><trkpt lat="43.491975206669885" lon="10.599638883661816"><ele>467.79999999999995</ele><time>2026-04-18T16:47:46.999Z</time></trkpt><trkpt lat="43.491999966521426" lon="10.599757132769831"><ele>467.59999999999997</ele><time>2026-04-18T16:47:47.999Z</time></trkpt><trkpt lat="43.49204820877511" lon="10.599867214195893"><ele>467.40000000000003</ele><time>2026-04-18T16:47:48.999Z</time></trkpt><trkpt lat="43.49212992186426" lon="10.599955606175113"><ele>467.20000000000005</ele><time>2026-04-18T16:47:49.999Z</time></trkpt><trkpt lat="43.49223001769279" lon="10.600005375016725"><ele>467.0</ele><time>2026-04-18T16:47:50.999Z</time></trkpt><trkpt lat="43.492332319552894" lon="10.600050900102607"><ele>466.99999999999994</ele><time>2026-04-18T16:47:51.999Z</time></trkpt><trkpt lat="43.49240168127015" lon="10.600130255119115"><ele>467.0</ele><time>2026-04-18T16:47:52.999Z</time></trkpt><trkpt lat="43.49244108787565" lon="10.600216226069739"><ele>467.0</ele><time>2026-04-18T16:47:54Z</time></trkpt><trkpt lat="43.49248233971491" lon="10.600324089234451"><ele>467.0</ele><time>2026-04-18T16:47:56Z</time></trkpt><trkpt lat="43.49253349317222" lon="10.600401008276055"><ele>466.99999999999994</ele><time>2026-04-18T16:47:59Z</time></trkpt><trkpt lat="43.49248689127551" lon="10.60047793870222"><ele>467.0</ele><time>2026-04-18T16:49:40.999Z</time></trkpt><trkpt lat="43.49249000115007" lon="10.6005732618094"><ele>466.20000000000005</ele><time>2026-04-18T16:49:44.999Z</time></trkpt><trkpt lat="43.49252494344645" lon="10.600646672453863"><ele>465.40000000000003</ele><time>2026-04-18T16:49:46.999Z</time></trkpt><trkpt lat="43.49258353299549" lon="10.600725067044245"><ele>464.59999999999997</ele><time>2026-04-18T16:49:48.999Z</time></trkpt><trkpt lat="43.492669286371076" lon="10.600837605541237"><ele>463.79999999999995</ele><time>2026-04-18T16:49:50.999Z</time></trkpt><trkpt lat="43.49275697029082" lon="10.60095608749553"><ele>463.0</ele><time>2026-04-18T16:49:52.999Z</time></trkpt><trkpt lat="43.49284078963045" lon="10.601067951534706"><ele>463.4</ele><time>2026-04-18T16:49:54.999Z</time></trkpt><trkpt lat="43.49293641343449" lon="10.601158687136863"><ele>463.79999999999995</ele><time>2026-04-18T16:49:56.999Z</time></trkpt><trkpt lat="43.49304492305368" lon="10.60122970521654"><ele>464.2</ele><time>2026-04-18T16:49:58.999Z</time></trkpt><trkpt lat="43.49312484446739" lon="10.601277383228297"><ele>464.6</ele><time>2026-04-18T16:50:00.999Z</time></trkpt><trkpt lat="43.49319903423717" lon="10.60132310755019"><ele>465.0</ele><time>2026-04-18T16:50:02.999Z</time></trkpt><trkpt lat="43.49328085637772" lon="10.601380483240424"><ele>465.1428571428571</ele><time>2026-04-18T16:50:05Z</time></trkpt><trkpt lat="43.493369867428534" lon="10.601483828423019"><ele>465.28571428571433</ele><time>2026-04-18T16:50:07Z</time></trkpt><trkpt lat="43.49341634233745" lon="10.601542789377044"><ele>465.42857142857144</ele><time>2026-04-18T16:50:08Z</time></trkpt><trkpt lat="43.49346709409747" lon="10.601600858088108"><ele>465.57142857142856</ele><time>2026-04-18T16:50:09Z</time></trkpt><trkpt lat="43.49351782319469" lon="10.601660196938713"><ele>465.71428571428567</ele><time>2026-04-18T16:50:10Z</time></trkpt><trkpt lat="43.49356825324074" lon="10.601718933170224"><ele>465.8571428571429</ele><time>2026-04-18T16:50:11Z</time></trkpt><trkpt lat="43.493616035665276" lon="10.601781955047171"><ele>466.0</ele><time>2026-04-18T16:50:12Z</time></trkpt><trkpt lat="43.49365649621293" lon="10.601852849347626"><ele>466.00000000000006</ele><time>2026-04-18T16:50:13Z</time></trkpt><trkpt lat="43.493693911176" lon="10.601928520983426"><ele>466.0</ele><time>2026-04-18T16:50:14Z</time></trkpt><trkpt lat="43.49372714801223" lon="10.6020087622927"><ele>466.0</ele><time>2026-04-18T16:50:15Z</time></trkpt><trkpt lat="43.493751945023135" lon="10.602094330714094"><ele>466.0</ele><time>2026-04-18T16:50:16Z</time></trkpt><trkpt lat="43.49378132918294" lon="10.602236481505182"><ele>466.00000000000006</ele><time>2026-04-18T16:50:18Z</time></trkpt><trkpt lat="43.49379784571519" lon="10.60235847782367"><ele>466.0</ele><time>2026-04-18T16:50:20Z</time></trkpt><trkpt lat="43.49381318752425" lon="10.602464825365468"><ele>466.50000000000006</ele><time>2026-04-18T16:50:23Z</time></trkpt><trkpt lat="43.49382578922172" lon="10.602567507337374"><ele>467.0</ele><time>2026-04-18T16:50:27Z</time></trkpt><trkpt lat="43.493834785824056" lon="10.602654573232147"><ele>467.5</ele><time>2026-04-18T16:50:29Z</time></trkpt><trkpt lat="43.49384269803688" lon="10.60277929234109"><ele>468.0</ele><time>2026-04-18T16:50:31Z</time></trkpt><trkpt lat="43.4938564172667" lon="10.602918670413974"><ele>468.50000000000006</ele><time>2026-04-18T16:50:33Z</time></trkpt><trkpt lat="43.49391669079945" lon="10.603040600828967"><ele>469.0</ele><time>2026-04-18T16:50:35Z</time></trkpt><trkpt lat="43.493990651063356" lon="10.603156454373503"><ele>469.0</ele><time>2026-04-18T16:50:37Z</time></trkpt><trkpt lat="43.4940572509754" lon="10.603286024139743"><ele>469.0</ele><time>2026-04-18T16:50:39Z</time></trkpt><trkpt lat="43.49411312903457" lon="10.603411479213152"><ele>469.0</ele><time>2026-04-18T16:50:41Z</time></trkpt><trkpt lat="43.494170617540206" lon="10.603508766981466"><ele>469.0</ele><time>2026-04-18T16:50:43Z</time></trkpt><trkpt lat="43.49422565345124" lon="10.60358519170922"><ele>469.0</ele><time>2026-04-18T16:50:45Z</time></trkpt><trkpt lat="43.49427503094775" lon="10.603655659065348"><ele>469.00000000000006</ele><time>2026-04-18T16:50:47Z</time></trkpt><trkpt lat="43.49432004585816" lon="10.603719369541416"><ele>469.0</ele><time>2026-04-18T16:50:50Z</time></trkpt><trkpt lat="43.49436969765528" lon="10.603805598218958"><ele>469.0</ele><time>2026-04-18T16:50:54Z</time></trkpt><trkpt lat="43.49442714170019" lon="10.603901310819847"><ele>469.0</ele><time>2026-04-18T16:50:57Z</time></trkpt><trkpt lat="43.494487743312625" lon="10.603969467891135"><ele>469.00000000000006</ele><time>2026-04-18T16:50:59Z</time></trkpt><trkpt lat="43.49456481659148" lon="10.604024987622617"><ele>469.0</ele><time>2026-04-18T16:51:01Z</time></trkpt><trkpt lat="43.49463219831905" lon="10.60408791649888"><ele>469.00000000000006</ele><time>2026-04-18T16:51:03Z</time></trkpt><trkpt lat="43.494688773869406" lon="10.60414714624365"><ele>469.0</ele><time>2026-04-18T16:51:05Z</time></trkpt><trkpt lat="43.494766456089344" lon="10.60415334690796"><ele>469.0</ele><time>2026-04-18T16:51:17.001Z</time></trkpt><trkpt lat="43.49485650796055" lon="10.604183977991521"><ele>469.0</ele><time>2026-04-18T16:51:21.001Z</time></trkpt><trkpt lat="43.49493901917209" lon="10.60422041492164"><ele>469.00000000000006</ele><time>2026-04-18T16:51:24.001Z</time></trkpt><trkpt lat="43.495011787320166" lon="10.60425950936269"><ele>469.0</ele><time>2026-04-18T16:51:27.001Z</time></trkpt><trkpt lat="43.49507079905309" lon="10.60430504466836"><ele>469.0</ele><time>2026-04-18T16:51:30.001Z</time></trkpt><trkpt lat="43.49512041574326" lon="10.604368310251798"><ele>469.0</ele><time>2026-04-18T16:51:34.001Z</time></trkpt><trkpt lat="43.495173644879614" lon="10.604451641765623"><ele>469.0</ele><time>2026-04-18T16:51:38.001Z</time></trkpt><trkpt lat="43.49521042040544" lon="10.604535098659948"><ele>469.0</ele><time>2026-04-18T16:51:40.001Z</time></trkpt><trkpt lat="43.49526323798606" lon="10.604615951556976"><ele>469.0</ele><time>2026-04-18T16:51:42.001Z</time></trkpt><trkpt lat="43.4953195835535" lon="10.604673409142867"><ele>469.0</ele><time>2026-04-18T16:51:44.001Z</time></trkpt><trkpt lat="43.49537513308356" lon="10.604738839053184"><ele>469.0</ele><time>2026-04-18T16:51:47.999Z</time></trkpt><trkpt lat="43.495419541301246" lon="10.604800585665405"><ele>468.2</ele><time>2026-04-18T16:51:50.999Z</time></trkpt><trkpt lat="43.49543574838741" lon="10.604922644167155"><ele>467.4</ele><time>2026-04-18T16:51:52.999Z</time></trkpt><trkpt lat="43.495441005486924" lon="10.60508480983854"><ele>466.6</ele><time>2026-04-18T16:51:55Z</time></trkpt><trkpt lat="43.49544785063294" lon="10.60525882302866"><ele>465.8</ele><time>2026-04-18T16:51:57Z</time></trkpt><trkpt lat="43.495452354504465" lon="10.605348304851383"><ele>465.0</ele><time>2026-04-18T16:51:58Z</time></trkpt><trkpt lat="43.49547485731499" lon="10.605431767224978"><ele>465.0</ele><time>2026-04-18T16:51:59Z</time></trkpt><trkpt lat="43.495526083995614" lon="10.605585749454203"><ele>465.0</ele><time>2026-04-18T16:52:01Z</time></trkpt><trkpt lat="43.49557013572742" lon="10.605719809616883"><ele>465.0</ele><time>2026-04-18T16:52:03Z</time></trkpt><trkpt lat="43.49561958512383" lon="10.605830443584017"><ele>465.0</ele><time>2026-04-18T16:52:05Z</time></trkpt><trkpt lat="43.49567211221243" lon="10.605930455501664"><ele>465.0</ele><time>2026-04-18T16:52:07Z</time></trkpt><trkpt lat="43.49570721756419" lon="10.606024332161"><ele>465.0</ele><time>2026-04-18T16:52:09Z</time></trkpt><trkpt lat="43.49573803526727" lon="10.606105259276308"><ele>465.0</ele><time>2026-04-18T16:52:12Z</time></trkpt><trkpt lat="43.495747808637" lon="10.606200588275717"><ele>465.0</ele><time>2026-04-18T16:52:38Z</time></trkpt><trkpt lat="43.49576074556897" lon="10.606303167467065"><ele>465.0</ele><time>2026-04-18T16:52:47Z</time></trkpt><trkpt lat="43.4957674555321" lon="10.606408989303006"><ele>465.0</ele><time>2026-04-18T16:52:50Z</time></trkpt><trkpt lat="43.49576449105077" lon="10.6065232092637"><ele>465.0</ele><time>2026-04-18T16:52:54Z</time></trkpt><trkpt lat="43.4957486259208" lon="10.606609592382489"><ele>465.0</ele><time>2026-04-18T16:52:57Z</time></trkpt><trkpt lat="43.4957257036649" lon="10.606693432580265"><ele>465.42857142857144</ele><time>2026-04-18T16:53:03.001Z</time></trkpt><trkpt lat="43.49574328750589" lon="10.606781438366461"><ele>465.8571428571429</ele><time>2026-04-18T16:53:18.001Z</time></trkpt><trkpt lat="43.49581097694248" lon="10.606801448043932"><ele>466.28571428571433</ele><time>2026-04-18T16:53:24.001Z</time></trkpt><trkpt lat="43.495884423357026" lon="10.606803183569726"><ele>466.7142857142857</ele><time>2026-04-18T16:53:28.001Z</time></trkpt><trkpt lat="43.495957163402565" lon="10.60680255202084"><ele>467.1428571428572</ele><time>2026-04-18T16:53:32.001Z</time></trkpt><trkpt lat="43.496035047813685" lon="10.606800047083397"><ele>467.5714285714286</ele><time>2026-04-18T16:53:35.001Z</time></trkpt><trkpt lat="43.496099369587995" lon="10.606801700816138"><ele>468.0</ele><time>2026-04-18T16:53:37.001Z</time></trkpt><trkpt lat="43.49616909686344" lon="10.606809410629603"><ele>468.0</ele><time>2026-04-18T16:53:39.001Z</time></trkpt><trkpt lat="43.49624275256209" lon="10.60681647503687"><ele>468.0</ele><time>2026-04-18T16:53:41.001Z</time></trkpt><trkpt lat="43.496319756410536" lon="10.60683748030123"><ele>468.0</ele><time>2026-04-18T16:53:44.001Z</time></trkpt><trkpt lat="43.49638076750147" lon="10.606896711351958"><ele>468.0</ele><time>2026-04-18T16:53:50.001Z</time></trkpt><trkpt lat="43.4964142103559" lon="10.6069934879582"><ele>468.0</ele><time>2026-04-18T16:53:54.001Z</time></trkpt><trkpt lat="43.49642385869837" lon="10.607106819236396"><ele>468.0</ele><time>2026-04-18T16:53:58.001Z</time></trkpt><trkpt lat="43.49640882972635" lon="10.607197507475606"><ele>467.8571428571429</ele><time>2026-04-18T16:54:01.001Z</time></trkpt><trkpt lat="43.49639175573125" lon="10.607287716048294"><ele>467.7142857142858</ele><time>2026-04-18T16:54:04Z</time></trkpt><trkpt lat="43.4963714570938" lon="10.607390084730472"><ele>467.57142857142856</ele><time>2026-04-18T16:54:08Z</time></trkpt><trkpt lat="43.49635336337496" lon="10.607474854390375"><ele>467.42857142857144</ele><time>2026-04-18T16:54:11Z</time></trkpt><trkpt lat="43.496346433656676" lon="10.60759392994141"><ele>467.2857142857143</ele><time>2026-04-18T16:54:15Z</time></trkpt><trkpt lat="43.49635377505806" lon="10.607690411896613"><ele>467.1428571428571</ele><time>2026-04-18T16:54:19Z</time></trkpt><trkpt lat="43.49636869717779" lon="10.607798109591169"><ele>466.99999999999994</ele><time>2026-04-18T16:54:24Z</time></trkpt><trkpt lat="43.496372377619764" lon="10.607884994120694"><ele>467.99999999999994</ele><time>2026-04-18T16:54:28Z</time></trkpt><trkpt lat="43.49637290467192" lon="10.607973744515295"><ele>469.0</ele><time>2026-04-18T16:54:32Z</time></trkpt><trkpt lat="43.496354857858584" lon="10.608075110017246"><ele>469.99999999999994</ele><time>2026-04-18T16:54:36.001Z</time></trkpt><trkpt lat="43.49632985682728" lon="10.608161342009389"><ele>470.99999999999994</ele><time>2026-04-18T16:54:38.001Z</time></trkpt><trkpt lat="43.49629036679713" lon="10.608243764256027"><ele>472.0</ele><time>2026-04-18T16:54:40.001Z</time></trkpt><trkpt lat="43.49624255701483" lon="10.608313746261054"><ele>472.99999999999994</ele><time>2026-04-18T16:54:42.001Z</time></trkpt><trkpt lat="43.496184061042726" lon="10.608386790714237"><ele>473.99999999999994</ele><time>2026-04-18T16:54:45.001Z</time></trkpt><trkpt lat="43.49613327312159" lon="10.60845879059792"><ele>472.2857142857142</ele><time>2026-04-18T16:54:49.001Z</time></trkpt><trkpt lat="43.49609998384674" lon="10.608561676938372"><ele>470.57142857142856</ele><time>2026-04-18T16:54:53.001Z</time></trkpt><trkpt lat="43.49608697720539" lon="10.608662009004048"><ele>468.85714285714283</ele><time>2026-04-18T16:54:57.001Z</time></trkpt><trkpt lat="43.496078805139625" lon="10.608749651275518"><ele>467.1428571428571</ele><time>2026-04-18T16:55:02.001Z</time></trkpt><trkpt lat="43.4960615185404" lon="10.608835227529513"><ele>465.42857142857144</ele><time>2026-04-18T16:55:06.001Z</time></trkpt><trkpt lat="43.49603895863311" lon="10.608922386444274"><ele>463.7142857142857</ele><time>2026-04-18T16:55:09.001Z</time></trkpt><trkpt lat="43.4959991788986" lon="10.6090378143627"><ele>462.0</ele><time>2026-04-18T16:55:12.001Z</time></trkpt><trkpt lat="43.49596792245447" lon="10.609132609299376"><ele>462.0</ele><time>2026-04-18T16:55:14.001Z</time></trkpt><trkpt lat="43.495940763883084" lon="10.609231417459359"><ele>462.0</ele><time>2026-04-18T16:55:16.001Z</time></trkpt><trkpt lat="43.49592644145762" lon="10.60933462555287"><ele>462.0</ele><time>2026-04-18T16:55:18.001Z</time></trkpt><trkpt lat="43.49593205665501" lon="10.609428763852506"><ele>462.0</ele><time>2026-04-18T16:55:20.001Z</time></trkpt><trkpt lat="43.495965736307966" lon="10.609540090035805"><ele>462.0</ele><time>2026-04-18T16:55:23.001Z</time></trkpt><trkpt lat="43.496012219674114" lon="10.60962990142377"><ele>462.0</ele><time>2026-04-18T16:55:26.001Z</time></trkpt><trkpt lat="43.49606590291687" lon="10.60971097878072"><ele>460.3333333333333</ele><time>2026-04-18T16:55:29.001Z</time></trkpt><trkpt lat="43.4961145143226" lon="10.609770277622903"><ele>458.66666666666663</ele><time>2026-04-18T16:55:32.001Z</time></trkpt><trkpt lat="43.49618289313738" lon="10.60984643822215"><ele>457.0</ele><time>2026-04-18T16:55:35.001Z</time></trkpt><trkpt lat="43.496243077696334" lon="10.609923201201392"><ele>455.3333333333333</ele><time>2026-04-18T16:55:38.001Z</time></trkpt><trkpt lat="43.49628842386207" lon="10.610002097525731"><ele>453.66666666666663</ele><time>2026-04-18T16:55:41.001Z</time></trkpt><trkpt lat="43.49633535331851" lon="10.610068832914274"><ele>452.0</ele><time>2026-04-18T16:55:45.001Z</time></trkpt><trkpt lat="43.49639081441872" lon="10.610149109180213"><ele>452.14285714285717</ele><time>2026-04-18T16:55:48.001Z</time></trkpt><trkpt lat="43.49644766219557" lon="10.610224428985868"><ele>452.2857142857142</ele><time>2026-04-18T16:55:51.001Z</time></trkpt><trkpt lat="43.49649092478554" lon="10.610292405497374"><ele>452.4285714285714</ele><time>2026-04-18T16:55:54.001Z</time></trkpt><trkpt lat="43.49654773027706" lon="10.610379063143773"><ele>452.57142857142856</ele><time>2026-04-18T16:55:57.001Z</time></trkpt><trkpt lat="43.49659451799384" lon="10.610465992292088"><ele>452.71428571428567</ele><time>2026-04-18T16:56:00.001Z</time></trkpt><trkpt lat="43.49663361244213" lon="10.610547709521803"><ele>452.8571428571428</ele><time>2026-04-18T16:56:03.001Z</time></trkpt><trkpt lat="43.49666925088762" lon="10.610628366006848"><ele>452.99999999999994</ele><time>2026-04-18T16:56:05.001Z</time></trkpt><trkpt lat="43.496706339551885" lon="10.610716257818087"><ele>453.0</ele><time>2026-04-18T16:56:07.001Z</time></trkpt><trkpt lat="43.4967593761807" lon="10.610787187801314"><ele>453.0</ele><time>2026-04-18T16:56:09.001Z</time></trkpt><trkpt lat="43.49680433207969" lon="10.61087529815918"><ele>453.0</ele><time>2026-04-18T16:56:11.001Z</time></trkpt><trkpt lat="43.49686427656769" lon="10.610964199558696"><ele>453.0</ele><time>2026-04-18T16:56:14.001Z</time></trkpt><trkpt lat="43.49692452823669" lon="10.611047057106813"><ele>453.0</ele><time>2026-04-18T16:56:17.001Z</time></trkpt><trkpt lat="43.4969775564162" lon="10.611138516358345"><ele>453.0</ele><time>2026-04-18T16:56:20.001Z</time></trkpt><trkpt lat="43.497013579285046" lon="10.611260357770963"><ele>450.3333333333333</ele><time>2026-04-18T16:56:23.001Z</time></trkpt><trkpt lat="43.49701879488006" lon="10.61136984093229"><ele>447.66666666666663</ele><time>2026-04-18T16:56:26.001Z</time></trkpt><trkpt lat="43.497016158207465" lon="10.611463466419966"><ele>445.0</ele><time>2026-04-18T16:56:28.001Z</time></trkpt><trkpt lat="43.497007813290296" lon="10.611585659912146"><ele>442.3333333333333</ele><time>2026-04-18T16:56:31.001Z</time></trkpt><trkpt lat="43.49700418172414" lon="10.61170894490894"><ele>439.66666666666663</ele><time>2026-04-18T16:56:34.001Z</time></trkpt><trkpt lat="43.49700134867921" lon="10.611820291844056"><ele>437.0</ele><time>2026-04-18T16:56:37.001Z</time></trkpt><trkpt lat="43.4970048529114" lon="10.611937375285084"><ele>436.7142857142857</ele><time>2026-04-18T16:56:40.001Z</time></trkpt><trkpt lat="43.497023011087904" lon="10.612042809798766"><ele>436.42857142857144</ele><time>2026-04-18T16:56:43.001Z</time></trkpt><trkpt lat="43.4970579211959" lon="10.612116956002822"><ele>436.14285714285717</ele><time>2026-04-18T16:56:45.001Z</time></trkpt><trkpt lat="43.497104655499264" lon="10.612205783205328"><ele>435.8571428571429</ele><time>2026-04-18T16:56:48.001Z</time></trkpt><trkpt lat="43.49713613652565" lon="10.612309713285477"><ele>435.57142857142856</ele><time>2026-04-18T16:56:51.001Z</time></trkpt><trkpt lat="43.4971584546443" lon="10.612403229419618"><ele>435.28571428571433</ele><time>2026-04-18T16:56:54.001Z</time></trkpt><trkpt lat="43.49719272315628" lon="10.612492473565492"><ele>435.0</ele><time>2026-04-18T16:56:57.001Z</time></trkpt><trkpt lat="43.497247861537254" lon="10.61257095785009"><ele>435.00000000000006</ele><time>2026-04-18T16:57:00.001Z</time></trkpt><trkpt lat="43.49730778511437" lon="10.612642906662362"><ele>435.0</ele><time>2026-04-18T16:57:03.001Z</time></trkpt><trkpt lat="43.497365892765885" lon="10.612688671988785"><ele>435.0</ele><time>2026-04-18T16:57:06.001Z</time></trkpt><trkpt lat="43.49742591961228" lon="10.612743478146168"><ele>435.0</ele><time>2026-04-18T16:57:09.001Z</time></trkpt><trkpt lat="43.49747563160098" lon="10.61279734027734"><ele>435.0</ele><time>2026-04-18T16:57:12.001Z</time></trkpt><trkpt lat="43.497529271657235" lon="10.612858290241965"><ele>435.00000000000006</ele><time>2026-04-18T16:57:15.001Z</time></trkpt><trkpt lat="43.49759865776278" lon="10.612942548361604"><ele>435.0</ele><time>2026-04-18T16:57:18.001Z</time></trkpt><trkpt lat="43.49764584316621" lon="10.613002268705213"><ele>433.0</ele><time>2026-04-18T16:57:20.001Z</time></trkpt><trkpt lat="43.497702363855474" lon="10.613075179330394"><ele>431.0</ele><time>2026-04-18T16:57:22.001Z</time></trkpt><trkpt lat="43.49779927815945" lon="10.613187541102226"><ele>429.0</ele><time>2026-04-18T16:57:25.001Z</time></trkpt><trkpt lat="43.49785494759899" lon="10.613246181499512"><ele>427.0</ele><time>2026-04-18T16:57:27.001Z</time></trkpt><trkpt lat="43.49790766816605" lon="10.613303342674413"><ele>425.0</ele><time>2026-04-18T16:57:30.001Z</time></trkpt><trkpt lat="43.497957556935155" lon="10.6133609077458"><ele>423.0</ele><time>2026-04-18T16:57:32.001Z</time></trkpt><trkpt lat="43.498019912374396" lon="10.613426657917602"><ele>422.57142857142856</ele><time>2026-04-18T16:57:34.001Z</time></trkpt><trkpt lat="43.49807167677883" lon="10.613513603494859"><ele>422.14285714285717</ele><time>2026-04-18T16:57:36.001Z</time></trkpt><trkpt lat="43.498109415357526" lon="10.61359605432608"><ele>421.7142857142857</ele><time>2026-04-18T16:57:38.001Z</time></trkpt><trkpt lat="43.49814146536623" lon="10.613676073626204"><ele>421.2857142857143</ele><time>2026-04-18T16:57:40.001Z</time></trkpt><trkpt lat="43.498163528404014" lon="10.613766085558602"><ele>420.8571428571429</ele><time>2026-04-18T16:57:42.001Z</time></trkpt><trkpt lat="43.49818879189388" lon="10.613860520962527"><ele>420.42857142857144</ele><time>2026-04-18T16:57:44.001Z</time></trkpt><trkpt lat="43.498218604292866" lon="10.613964628637351"><ele>420.0</ele><time>2026-04-18T16:57:46.001Z</time></trkpt><trkpt lat="43.49824953554738" lon="10.614076347534905"><ele>420.0</ele><time>2026-04-18T16:57:48.001Z</time></trkpt><trkpt lat="43.498272594805684" lon="10.614187535825643"><ele>420.0</ele><time>2026-04-18T16:57:50.001Z</time></trkpt><trkpt lat="43.49831768186691" lon="10.61429057280303"><ele>420.0</ele><time>2026-04-18T16:57:52.001Z</time></trkpt><trkpt lat="43.49836864315032" lon="10.614379933722068"><ele>420.0</ele><time>2026-04-18T16:57:54.001Z</time></trkpt><trkpt lat="43.498404568278154" lon="10.614479120689492"><ele>420.0</ele><time>2026-04-18T16:57:57.001Z</time></trkpt><trkpt lat="43.49844657243274" lon="10.614586584719508"><ele>420.0</ele><time>2026-04-18T16:58:00.001Z</time></trkpt><trkpt lat="43.49849042997332" lon="10.614688161330282"><ele>420.0</ele><time>2026-04-18T16:58:02.001Z</time></trkpt><trkpt lat="43.498535887977184" lon="10.614820439832561"><ele>420.0</ele><time>2026-04-18T16:58:04.001Z</time></trkpt><trkpt lat="43.498578944266555" lon="10.614937328911777"><ele>420.0</ele><time>2026-04-18T16:58:06.001Z</time></trkpt><trkpt lat="43.49862512612203" lon="10.615022955578002"><ele>420.0</ele><time>2026-04-18T16:58:08.001Z</time></trkpt><trkpt lat="43.49869714271249" lon="10.615066276082645"><ele>420.0</ele><time>2026-04-18T16:58:10.001Z</time></trkpt><trkpt lat="43.49880109292439" lon="10.615081678757914"><ele>418.7142857142857</ele><time>2026-04-18T16:58:12.001Z</time></trkpt><trkpt lat="43.498879386954854" lon="10.615079967795953"><ele>417.42857142857144</ele><time>2026-04-18T16:58:14Z</time></trkpt><trkpt lat="43.49895722403836" lon="10.615104434778408"><ele>416.1428571428571</ele><time>2026-04-18T16:58:18Z</time></trkpt><trkpt lat="43.49901994843511" lon="10.615143412550225"><ele>414.8571428571429</ele><time>2026-04-18T16:58:28Z</time></trkpt><trkpt lat="43.49907300045085" lon="10.615197187385789"><ele>413.57142857142856</ele><time>2026-04-18T16:58:35Z</time></trkpt><trkpt lat="43.499134379078626" lon="10.615256540048197"><ele>412.2857142857143</ele><time>2026-04-18T16:58:41Z</time></trkpt><trkpt lat="43.49916614800841" lon="10.6153514262222"><ele>411.0</ele><time>2026-04-18T16:58:46Z</time></trkpt><trkpt lat="43.49920490337145" lon="10.615484525455035"><ele>410.2857142857143</ele><time>2026-04-18T16:59:51.001Z</time></trkpt><trkpt lat="43.49917893014973" lon="10.615593082713023"><ele>409.57142857142856</ele><time>2026-04-18T16:59:55.001Z</time></trkpt><trkpt lat="43.49912731538773" lon="10.615677648114689"><ele>408.8571428571429</ele><time>2026-04-18T16:59:59.001Z</time></trkpt><trkpt lat="43.49909066093886" lon="10.615759443484183"><ele>408.1428571428571</ele><time>2026-04-18T17:00:03.001Z</time></trkpt><trkpt lat="43.49905375270262" lon="10.615835942220713"><ele>407.42857142857144</ele><time>2026-04-18T17:00:06.001Z</time></trkpt><trkpt lat="43.499022186179516" lon="10.615918374336058"><ele>406.7142857142857</ele><time>2026-04-18T17:00:09.001Z</time></trkpt><trkpt lat="43.4989925158352" lon="10.61599530552922"><ele>406.0</ele><time>2026-04-18T17:00:12.001Z</time></trkpt><trkpt lat="43.49900386878502" lon="10.616095525725147"><ele>404.1666666666667</ele><time>2026-04-18T17:00:31Z</time></trkpt><trkpt lat="43.4990678809755" lon="10.616177886547256"><ele>402.33333333333337</ele><time>2026-04-18T17:00:34Z</time></trkpt><trkpt lat="43.499143743788935" lon="10.616232784255212"><ele>400.5</ele><time>2026-04-18T17:00:37Z</time></trkpt><trkpt lat="43.4992100428612" lon="10.616256240488891"><ele>398.66666666666663</ele><time>2026-04-18T17:00:39Z</time></trkpt><trkpt lat="43.49929580139904" lon="10.61628675367816"><ele>396.8333333333333</ele><time>2026-04-18T17:00:41Z</time></trkpt><trkpt lat="43.499382865131054" lon="10.616318135144269"><ele>395.0</ele><time>2026-04-18T17:00:43Z</time></trkpt><trkpt lat="43.49945270336911" lon="10.616321044663453"><ele>394.99999999999994</ele><time>2026-04-18T17:00:45Z</time></trkpt><trkpt lat="43.49951705181507" lon="10.616307990413022"><ele>395.0</ele><time>2026-04-18T17:00:47Z</time></trkpt><trkpt lat="43.49960866506836" lon="10.61630736957347"><ele>395.0</ele><time>2026-04-18T17:00:50Z</time></trkpt><trkpt lat="43.49968772948906" lon="10.616327153968733"><ele>395.0</ele><time>2026-04-18T17:00:53Z</time></trkpt><trkpt lat="43.4997498687357" lon="10.61634798485215"><ele>394.99999999999994</ele><time>2026-04-18T17:00:55Z</time></trkpt><trkpt lat="43.499828671954006" lon="10.616387509504206"><ele>395.0</ele><time>2026-04-18T17:00:58Z</time></trkpt><trkpt lat="43.499917382557896" lon="10.616395013147843"><ele>395.16666666666663</ele><time>2026-04-18T17:01:02Z</time></trkpt><trkpt lat="43.499992550304185" lon="10.616367710274263"><ele>395.3333333333333</ele><time>2026-04-18T17:01:05Z</time></trkpt><trkpt lat="43.500073116841286" lon="10.616322596836891"><ele>395.5</ele><time>2026-04-18T17:01:08Z</time></trkpt><trkpt lat="43.500138946981885" lon="10.61626777390784"><ele>395.66666666666663</ele><time>2026-04-18T17:01:11Z</time></trkpt><trkpt lat="43.50020877640582" lon="10.616206198179258"><ele>395.8333333333333</ele><time>2026-04-18T17:01:15Z</time></trkpt><trkpt lat="43.500273573588345" lon="10.61614302239024"><ele>396.0</ele><time>2026-04-18T17:01:19Z</time></trkpt><trkpt lat="43.50034322798305" lon="10.616103952061497"><ele>396.0</ele><time>2026-04-18T17:01:22Z</time></trkpt><trkpt lat="43.50040842452485" lon="10.616094098796527"><ele>396.0</ele><time>2026-04-18T17:01:25Z</time></trkpt><trkpt lat="43.50048386538797" lon="10.616111931157706"><ele>396.0</ele><time>2026-04-18T17:01:29.001Z</time></trkpt><trkpt lat="43.50054320904722" lon="10.616160541788844"><ele>396.0</ele><time>2026-04-18T17:01:32.001Z</time></trkpt><trkpt lat="43.50061179783868" lon="10.61623590475425"><ele>396.0</ele><time>2026-04-18T17:01:35.001Z</time></trkpt><trkpt lat="43.500690945629344" lon="10.616292782246983"><ele>396.0</ele><time>2026-04-18T17:01:38.001Z</time></trkpt><trkpt lat="43.5007837802334" lon="10.616304632330468"><ele>394.3333333333333</ele><time>2026-04-18T17:01:41.001Z</time></trkpt><trkpt lat="43.50085967229934" lon="10.616286642526383"><ele>392.66666666666663</ele><time>2026-04-18T17:01:44.001Z</time></trkpt><trkpt lat="43.50092371729187" lon="10.616270454305546"><ele>391.0</ele><time>2026-04-18T17:01:47.001Z</time></trkpt><trkpt lat="43.50100382428775" lon="10.616251137498402"><ele>389.3333333333333</ele><time>2026-04-18T17:01:51.001Z</time></trkpt><trkpt lat="43.501070807374845" lon="10.616233053879016"><ele>387.66666666666663</ele><time>2026-04-18T17:01:54.001Z</time></trkpt><trkpt lat="43.501159411283076" lon="10.616225770670603"><ele>386.0</ele><time>2026-04-18T17:01:57.001Z</time></trkpt><trkpt lat="43.501246460319656" lon="10.616194224563749"><ele>387.49999999999994</ele><time>2026-04-18T17:02:00.001Z</time></trkpt><trkpt lat="43.50130795359284" lon="10.616128456731072"><ele>389.0</ele><time>2026-04-18T17:02:03.001Z</time></trkpt><trkpt lat="43.501362115146435" lon="10.616057337272014"><ele>390.5</ele><time>2026-04-18T17:02:05.001Z</time></trkpt><trkpt lat="43.501408933877464" lon="10.615978860685916"><ele>392.0</ele><time>2026-04-18T17:02:07.001Z</time></trkpt><trkpt lat="43.501444495523835" lon="10.615901328560918"><ele>393.49999999999994</ele><time>2026-04-18T17:02:09.001Z</time></trkpt><trkpt lat="43.50150895561458" lon="10.61583127179992"><ele>395.0</ele><time>2026-04-18T17:02:12.001Z</time></trkpt><trkpt lat="43.50157590387469" lon="10.615779066341824"><ele>395.0</ele><time>2026-04-18T17:02:16Z</time></trkpt><trkpt lat="43.501636371220854" lon="10.615717912799452"><ele>395.0</ele><time>2026-04-18T17:02:20Z</time></trkpt><trkpt lat="43.50170277345545" lon="10.615686844464436"><ele>395.0</ele><time>2026-04-18T17:02:25Z</time></trkpt><trkpt lat="43.50176606131756" lon="10.61566795660847"><ele>395.0</ele><time>2026-04-18T17:02:29Z</time></trkpt><trkpt lat="43.501830139925495" lon="10.615653629510197"><ele>395.0</ele><time>2026-04-18T17:02:35Z</time></trkpt><trkpt lat="43.50189333790918" lon="10.615656344365027"><ele>395.0</ele><time>2026-04-18T17:02:39Z</time></trkpt><trkpt lat="43.50197339277973" lon="10.615649468269183"><ele>395.0</ele><time>2026-04-18T17:02:43Z</time></trkpt><trkpt lat="43.5020414921946" lon="10.615639263650841"><ele>394.0</ele><time>2026-04-18T17:02:47Z</time></trkpt><trkpt lat="43.50210990160262" lon="10.615622752621334"><ele>393.0</ele><time>2026-04-18T17:02:50Z</time></trkpt><trkpt lat="43.502190177921406" lon="10.615619975419447"><ele>392.0</ele><time>2026-04-18T17:02:54Z</time></trkpt><trkpt lat="43.5022566155595" lon="10.615618233938822"><ele>391.0</ele><time>2026-04-18T17:02:58Z</time></trkpt><trkpt lat="43.50232100327598" lon="10.61563530878036"><ele>390.0</ele><time>2026-04-18T17:03:02.001Z</time></trkpt><trkpt lat="43.50239100641424" lon="10.615675150433034"><ele>389.0</ele><time>2026-04-18T17:03:09.001Z</time></trkpt><trkpt lat="43.50245244623191" lon="10.61571428713601"><ele>388.0</ele><time>2026-04-18T17:03:12.001Z</time></trkpt><trkpt lat="43.50251170981402" lon="10.61577068073216"><ele>388.0</ele><time>2026-04-18T17:03:14.001Z</time></trkpt><trkpt lat="43.50256785401843" lon="10.615824159050872"><ele>388.0</ele><time>2026-04-18T17:03:16.001Z</time></trkpt><trkpt lat="43.5026225381023" lon="10.615868980352936"><ele>388.0</ele><time>2026-04-18T17:03:18.001Z</time></trkpt><trkpt lat="43.50268824582539" lon="10.615889396079847"><ele>388.0</ele><time>2026-04-18T17:03:20.001Z</time></trkpt><trkpt lat="43.50275899800367" lon="10.615909658180547"><ele>388.0</ele><time>2026-04-18T17:03:22.001Z</time></trkpt><trkpt lat="43.50282266560643" lon="10.61587266276993"><ele>388.0</ele><time>2026-04-18T17:03:25.001Z</time></trkpt><trkpt lat="43.50286765963962" lon="10.615807592276573"><ele>388.0</ele><time>2026-04-18T17:03:28.001Z</time></trkpt><trkpt lat="43.50291256504003" lon="10.61573688092591"><ele>387.00000000000006</ele><time>2026-04-18T17:03:31.001Z</time></trkpt><trkpt lat="43.50295367716433" lon="10.61566887433426"><ele>386.0</ele><time>2026-04-18T17:03:34.001Z</time></trkpt><trkpt lat="43.50300916548172" lon="10.615588183732045"><ele>385.0</ele><time>2026-04-18T17:03:37.001Z</time></trkpt><trkpt lat="43.503087175728055" lon="10.615534872841746"><ele>384.0</ele><time>2026-04-18T17:03:40.001Z</time></trkpt><trkpt lat="43.503166255962" lon="10.615511050786981"><ele>383.0</ele><time>2026-04-18T17:03:43.001Z</time></trkpt><trkpt lat="43.50323719203288" lon="10.615486272391259"><ele>382.0</ele><time>2026-04-18T17:03:47.001Z</time></trkpt><trkpt lat="43.50330657775558" lon="10.615444853722542"><ele>382.0</ele><time>2026-04-18T17:03:50.001Z</time></trkpt><trkpt lat="43.503359663929785" lon="10.61539406165855"><ele>382.0</ele><time>2026-04-18T17:03:52.001Z</time></trkpt><trkpt lat="43.503400101953034" lon="10.615311283300564"><ele>382.0</ele><time>2026-04-18T17:03:54.001Z</time></trkpt><trkpt lat="43.50342161247305" lon="10.615205885168235"><ele>382.0</ele><time>2026-04-18T17:03:57.001Z</time></trkpt><trkpt lat="43.503447997635995" lon="10.61510942059734"><ele>382.0</ele><time>2026-04-18T17:04:00.001Z</time></trkpt><trkpt lat="43.503485629648736" lon="10.614999678851758"><ele>382.0</ele><time>2026-04-18T17:04:04.001Z</time></trkpt><trkpt lat="43.50353046097154" lon="10.61490254888588"><ele>382.0</ele><time>2026-04-18T17:04:07.001Z</time></trkpt><trkpt lat="43.503585746430495" lon="10.614848135181884"><ele>382.0</ele><time>2026-04-18T17:04:13.001Z</time></trkpt><trkpt lat="43.50365547609937" lon="10.6148096277029"><ele>382.0</ele><time>2026-04-18T17:04:20.001Z</time></trkpt><trkpt lat="43.50372418879436" lon="10.61478060539075"><ele>382.0</ele><time>2026-04-18T17:04:28Z</time></trkpt><trkpt lat="43.503788546715576" lon="10.614748847580756"><ele>382.0</ele><time>2026-04-18T17:04:36Z</time></trkpt><trkpt lat="43.50385851952467" lon="10.614712871271504"><ele>382.0</ele><time>2026-04-18T17:04:43Z</time></trkpt><trkpt lat="43.50392296202835" lon="10.61467869583578"><ele>382.0</ele><time>2026-04-18T17:04:47.001Z</time></trkpt><trkpt lat="43.50399223721045" lon="10.614659492636147"><ele>379.7142857142857</ele><time>2026-04-18T17:04:50.001Z</time></trkpt><trkpt lat="43.50407936753923" lon="10.61466170145184"><ele>377.4285714285714</ele><time>2026-04-18T17:04:53.001Z</time></trkpt><trkpt lat="43.504151871587396" lon="10.61468323771669"><ele>375.1428571428571</ele><time>2026-04-18T17:04:56.001Z</time></trkpt><trkpt lat="43.50422036625754" lon="10.614709967804398"><ele>372.8571428571429</ele><time>2026-04-18T17:05:07.001Z</time></trkpt><trkpt lat="43.5042736005081" lon="10.614756369601997"><ele>370.57142857142856</ele><time>2026-04-18T17:05:11.001Z</time></trkpt><trkpt lat="43.50431375956108" lon="10.614825079374272"><ele>368.2857142857143</ele><time>2026-04-18T17:05:15.001Z</time></trkpt><trkpt lat="43.5043737148241" lon="10.614896133405031"><ele>366.0</ele><time>2026-04-18T17:05:20.001Z</time></trkpt><trkpt lat="43.504435786604965" lon="10.614957664292037"><ele>366.0</ele><time>2026-04-18T17:05:25.001Z</time></trkpt><trkpt lat="43.50450236615984" lon="10.614996028532987"><ele>366.0</ele><time>2026-04-18T17:05:29.001Z</time></trkpt><trkpt lat="43.50456568822012" lon="10.615015302399485"><ele>366.0</ele><time>2026-04-18T17:05:32.001Z</time></trkpt><trkpt lat="43.50464017969055" lon="10.61504514925111"><ele>366.0</ele><time>2026-04-18T17:05:36.001Z</time></trkpt><trkpt lat="43.50470388998293" lon="10.615077313720798"><ele>366.0</ele><time>2026-04-18T17:05:39.001Z</time></trkpt><trkpt lat="43.50477860851217" lon="10.615109160593134"><ele>366.0</ele><time>2026-04-18T17:05:42.001Z</time></trkpt><trkpt lat="43.50484900088436" lon="10.615143564006644"><ele>366.0</ele><time>2026-04-18T17:05:47.001Z</time></trkpt><trkpt lat="43.50491624340628" lon="10.615148997301315"><ele>363.57142857142856</ele><time>2026-04-18T17:05:51.001Z</time></trkpt><trkpt lat="43.504981933758664" lon="10.615138263716673"><ele>361.14285714285717</ele><time>2026-04-18T17:05:56.001Z</time></trkpt><trkpt lat="43.50504963850898" lon="10.615127554424083"><ele>358.71428571428567</ele><time>2026-04-18T17:06:02.001Z</time></trkpt><trkpt lat="43.50511707466118" lon="10.61511819730671"><ele>356.2857142857143</ele><time>2026-04-18T17:06:06.001Z</time></trkpt><trkpt lat="43.505182623106975" lon="10.61510792659353"><ele>353.85714285714283</ele><time>2026-04-18T17:06:10.001Z</time></trkpt><trkpt lat="43.50525723127742" lon="10.615065249920232"><ele>351.4285714285714</ele><time>2026-04-18T17:06:16.001Z</time></trkpt><trkpt lat="43.50531151090252" lon="10.615015934772304"><ele>349.0</ele><time>2026-04-18T17:06:19.001Z</time></trkpt><trkpt lat="43.50537769391646" lon="10.61496083497199"><ele>346.57142857142856</ele><time>2026-04-18T17:06:23.001Z</time></trkpt><trkpt lat="43.505427167215046" lon="10.614904108571274"><ele>344.1428571428571</ele><time>2026-04-18T17:06:26.001Z</time></trkpt><trkpt lat="43.505484536569455" lon="10.614833322041681"><ele>341.71428571428567</ele><time>2026-04-18T17:06:28.999Z</time></trkpt><trkpt lat="43.50555088670839" lon="10.614758611129977"><ele>339.2857142857143</ele><time>2026-04-18T17:06:31.999Z</time></trkpt><trkpt lat="43.50561228487775" lon="10.614737413297034"><ele>336.8571428571429</ele><time>2026-04-18T17:06:34.999Z</time></trkpt><trkpt lat="43.505682919532454" lon="10.614756797886598"><ele>334.4285714285714</ele><time>2026-04-18T17:06:37.999Z</time></trkpt><trkpt lat="43.50576489906314" lon="10.614779657591654"><ele>332.0</ele><time>2026-04-18T17:06:40.999Z</time></trkpt><trkpt lat="43.50584692304235" lon="10.614824088931565"><ele>332.0</ele><time>2026-04-18T17:06:43.999Z</time></trkpt><trkpt lat="43.50590675497007" lon="10.614879179951267"><ele>332.0</ele><time>2026-04-18T17:06:46Z</time></trkpt><trkpt lat="43.505969875141005" lon="10.614915347972655"><ele>332.0</ele><time>2026-04-18T17:06:49Z</time></trkpt><trkpt lat="43.5060333328504" lon="10.614908995802432"><ele>332.0</ele><time>2026-04-18T17:06:52Z</time></trkpt><trkpt lat="43.506125947574375" lon="10.614930795306696"><ele>332.0</ele><time>2026-04-18T17:06:56Z</time></trkpt><trkpt lat="43.506174626329525" lon="10.61505831404162"><ele>332.0</ele><time>2026-04-18T17:06:58Z</time></trkpt><trkpt lat="43.506243632579064" lon="10.6151953617953"><ele>332.0</ele><time>2026-04-18T17:07:00Z</time></trkpt><trkpt lat="43.506260387788245" lon="10.615293553933451"><ele>332.0</ele><time>2026-04-18T17:07:01Z</time></trkpt><trkpt lat="43.50630030521002" lon="10.615378569909273"><ele>332.0</ele><time>2026-04-18T17:07:02Z</time></trkpt><trkpt lat="43.506341825925375" lon="10.615464056572812"><ele>332.0</ele><time>2026-04-18T17:07:03Z</time></trkpt><trkpt lat="43.50638239277067" lon="10.615547579271167"><ele>332.0</ele><time>2026-04-18T17:07:04Z</time></trkpt><trkpt lat="43.5064233936643" lon="10.615629688606969"><ele>332.0</ele><time>2026-04-18T17:07:05Z</time></trkpt><trkpt lat="43.50650512672585" lon="10.615733305081365"><ele>330.7142857142857</ele><time>2026-04-18T17:07:07Z</time></trkpt><trkpt lat="43.50655968242528" lon="10.61580723139792"><ele>329.42857142857144</ele><time>2026-04-18T17:07:10Z</time></trkpt><trkpt lat="43.50659323889068" lon="10.615884740546486"><ele>328.14285714285717</ele><time>2026-04-18T17:07:18Z</time></trkpt><trkpt lat="43.50665395608432" lon="10.615960926073344"><ele>326.8571428571429</ele><time>2026-04-18T17:07:22Z</time></trkpt><trkpt lat="43.50670632570146" lon="10.616020684239967"><ele>325.57142857142856</ele><time>2026-04-18T17:07:24Z</time></trkpt><trkpt lat="43.5067602453527" lon="10.616065656510075"><ele>324.28571428571433</ele><time>2026-04-18T17:07:26Z</time></trkpt><trkpt lat="43.506852577086185" lon="10.616085875500017"><ele>323.0</ele><time>2026-04-18T17:07:28Z</time></trkpt><trkpt lat="43.50696657078922" lon="10.616072831114044"><ele>321.83333333333337</ele><time>2026-04-18T17:07:30Z</time></trkpt><trkpt lat="43.50708852897628" lon="10.616053521612024"><ele>320.6666666666667</ele><time>2026-04-18T17:07:32Z</time></trkpt><trkpt lat="43.50715817068313" lon="10.616044608993478"><ele>319.5</ele><time>2026-04-18T17:07:33Z</time></trkpt><trkpt lat="43.50723052266228" lon="10.616033363496491"><ele>318.3333333333333</ele><time>2026-04-18T17:07:34Z</time></trkpt><trkpt lat="43.50730026296843" lon="10.616016500475459"><ele>317.16666666666663</ele><time>2026-04-18T17:07:35Z</time></trkpt><trkpt lat="43.507367792167095" lon="10.615991999655444"><ele>316.0</ele><time>2026-04-18T17:07:36Z</time></trkpt><trkpt lat="43.507428712723815" lon="10.615941670126636"><ele>316.0</ele><time>2026-04-18T17:07:37Z</time></trkpt><trkpt lat="43.507496274782554" lon="10.615907014176228"><ele>316.0</ele><time>2026-04-18T17:07:38Z</time></trkpt><trkpt lat="43.50757046814728" lon="10.615890333468233"><ele>316.0</ele><time>2026-04-18T17:07:39Z</time></trkpt><trkpt lat="43.50764025108812" lon="10.615849949712091"><ele>316.0</ele><time>2026-04-18T17:07:40Z</time></trkpt><trkpt lat="43.50771077317368" lon="10.61580618653385"><ele>316.0</ele><time>2026-04-18T17:07:41Z</time></trkpt><trkpt lat="43.507781815609256" lon="10.615762100459255"><ele>316.0</ele><time>2026-04-18T17:07:42Z</time></trkpt><trkpt lat="43.50785130428259" lon="10.615721310124243"><ele>314.3333333333333</ele><time>2026-04-18T17:07:43Z</time></trkpt><trkpt lat="43.507924351367734" lon="10.61568888842196"><ele>312.66666666666663</ele><time>2026-04-18T17:07:44Z</time></trkpt><trkpt lat="43.50800019528176" lon="10.61566773766796"><ele>311.0</ele><time>2026-04-18T17:07:45Z</time></trkpt><trkpt lat="43.50807781742241" lon="10.615645055212507"><ele>309.3333333333333</ele><time>2026-04-18T17:07:46Z</time></trkpt><trkpt lat="43.508152340387326" lon="10.615617053184355"><ele>307.6666666666667</ele><time>2026-04-18T17:07:47Z</time></trkpt><trkpt lat="43.50822685687873" lon="10.615588261583909"><ele>306.0</ele><time>2026-04-18T17:07:48Z</time></trkpt><trkpt lat="43.50830060408806" lon="10.615552995698936"><ele>306.0</ele><time>2026-04-18T17:07:49Z</time></trkpt><trkpt lat="43.508373611309054" lon="10.61550163379617"><ele>306.0</ele><time>2026-04-18T17:07:50Z</time></trkpt><trkpt lat="43.50843670157325" lon="10.615428734426333"><ele>306.0</ele><time>2026-04-18T17:07:51Z</time></trkpt><trkpt lat="43.508488721417926" lon="10.615336011636115"><ele>306.0</ele><time>2026-04-18T17:07:52Z</time></trkpt><trkpt lat="43.50851903470978" lon="10.615234938093586"><ele>306.0</ele><time>2026-04-18T17:07:53Z</time></trkpt><trkpt lat="43.50855656783739" lon="10.615164318032376"><ele>306.0</ele><time>2026-04-18T17:07:54Z</time></trkpt><trkpt lat="43.508629615515304" lon="10.61509676089526"><ele>307.5</ele><time>2026-04-18T17:07:56Z</time></trkpt><trkpt lat="43.508694911474116" lon="10.61509497263593"><ele>309.0</ele><time>2026-04-18T17:07:58Z</time></trkpt><trkpt lat="43.508727529429436" lon="10.615193703192677"><ele>310.5</ele><time>2026-04-18T17:08:01Z</time></trkpt><trkpt lat="43.50877128489149" lon="10.61528768483507"><ele>312.0</ele><time>2026-04-18T17:08:03Z</time></trkpt><trkpt lat="43.508812731233014" lon="10.615397281740059"><ele>313.5</ele><time>2026-04-18T17:08:05Z</time></trkpt><trkpt lat="43.508846688671014" lon="10.615511415018172"><ele>315.0</ele><time>2026-04-18T17:08:07Z</time></trkpt><trkpt lat="43.50886811191864" lon="10.615634211638904"><ele>310.8</ele><time>2026-04-18T17:08:09Z</time></trkpt><trkpt lat="43.50888270275229" lon="10.615758930553367"><ele>306.6</ele><time>2026-04-18T17:08:11.001Z</time></trkpt><trkpt lat="43.50890380622946" lon="10.615892470043663"><ele>302.4</ele><time>2026-04-18T17:08:13.001Z</time></trkpt><trkpt lat="43.50895310743598" lon="10.6160205453731"><ele>298.2</ele><time>2026-04-18T17:08:15.001Z</time></trkpt><trkpt lat="43.50901330882583" lon="10.616100645237585"><ele>294.0</ele><time>2026-04-18T17:08:17.001Z</time></trkpt><trkpt lat="43.50902012383727" lon="10.616238645525467"><ele>293.6666666666667</ele><time>2026-04-18T17:08:20.001Z</time></trkpt><trkpt lat="43.508992149322026" lon="10.616325908461116"><ele>293.3333333333333</ele><time>2026-04-18T17:08:22.001Z</time></trkpt><trkpt lat="43.5089133903069" lon="10.616379164299731"><ele>293.0</ele><time>2026-04-18T17:08:25.001Z</time></trkpt><trkpt lat="43.50884801882123" lon="10.616436633648265"><ele>292.66666666666663</ele><time>2026-04-18T17:08:53.999Z</time></trkpt><trkpt lat="43.508755965238755" lon="10.616556316216833"><ele>292.3333333333333</ele><time>2026-04-18T17:08:55.999Z</time></trkpt><trkpt lat="43.50869968405141" lon="10.616615258694441"><ele>292.0</ele><time>2026-04-18T17:08:56.999Z</time></trkpt><trkpt lat="43.5086357537173" lon="10.616686041850114"><ele>291.4</ele><time>2026-04-18T17:08:58Z</time></trkpt><trkpt lat="43.5085741793848" lon="10.616759825553876"><ele>290.79999999999995</ele><time>2026-04-18T17:08:59Z</time></trkpt><trkpt lat="43.50851289827198" lon="10.616836679112716"><ele>290.2</ele><time>2026-04-18T17:09:00Z</time></trkpt><trkpt lat="43.508454618596915" lon="10.616915742204617"><ele>289.59999999999997</ele><time>2026-04-18T17:09:01Z</time></trkpt><trkpt lat="43.50835029479956" lon="10.617080228229508"><ele>289.0</ele><time>2026-04-18T17:09:03Z</time></trkpt><trkpt lat="43.508306185123566" lon="10.617159396640137"><ele>289.0</ele><time>2026-04-18T17:09:04Z</time></trkpt><trkpt lat="43.508235088166636" lon="10.617307371260924"><ele>289.0</ele><time>2026-04-18T17:09:06Z</time></trkpt><trkpt lat="43.50820138919762" lon="10.617403694314"><ele>289.0</ele><time>2026-04-18T17:09:07Z</time></trkpt><trkpt lat="43.50816833741123" lon="10.617506102956991"><ele>289.0</ele><time>2026-04-18T17:09:08Z</time></trkpt><trkpt lat="43.50813334921691" lon="10.617610723039892"><ele>289.0</ele><time>2026-04-18T17:09:09Z</time></trkpt><trkpt lat="43.508093061646136" lon="10.617719905198552"><ele>288.3333333333333</ele><time>2026-04-18T17:09:10Z</time></trkpt><trkpt lat="43.508050288077" lon="10.617831571581164"><ele>287.66666666666663</ele><time>2026-04-18T17:09:11Z</time></trkpt><trkpt lat="43.508011213959655" lon="10.617936083894172"><ele>287.0</ele><time>2026-04-18T17:09:12Z</time></trkpt><trkpt lat="43.507974504151036" lon="10.618038968851494"><ele>286.3333333333333</ele><time>2026-04-18T17:09:13Z</time></trkpt><trkpt lat="43.507938678009154" lon="10.618127060660486"><ele>285.6666666666667</ele><time>2026-04-18T17:09:14Z</time></trkpt><trkpt lat="43.5078964456263" lon="10.618215007680181"><ele>285.0</ele><time>2026-04-18T17:09:15Z</time></trkpt><trkpt lat="43.50785022425221" lon="10.618302228187284"><ele>285.0</ele><time>2026-04-18T17:09:16Z</time></trkpt><trkpt lat="43.507809310396645" lon="10.618398379896808"><ele>285.0</ele><time>2026-04-18T17:09:17Z</time></trkpt><trkpt lat="43.50775508132239" lon="10.618481575013652"><ele>285.0</ele><time>2026-04-18T17:09:18Z</time></trkpt><trkpt lat="43.507677925283886" lon="10.618536781173082"><ele>285.0</ele><time>2026-04-18T17:09:19Z</time></trkpt><trkpt lat="43.50760434333469" lon="10.618602370103819"><ele>285.0</ele><time>2026-04-18T17:09:20Z</time></trkpt><trkpt lat="43.50752122860092" lon="10.618668270856691"><ele>285.0</ele><time>2026-04-18T17:09:21Z</time></trkpt><trkpt lat="43.507445877431415" lon="10.618730335246298"><ele>285.6666666666667</ele><time>2026-04-18T17:09:22Z</time></trkpt><trkpt lat="43.507359085515716" lon="10.618753355388293"><ele>286.3333333333333</ele><time>2026-04-18T17:09:23Z</time></trkpt><trkpt lat="43.507279800289396" lon="10.618775520628022"><ele>287.0</ele><time>2026-04-18T17:09:24Z</time></trkpt><trkpt lat="43.50720996721039" lon="10.618820346996099"><ele>287.66666666666663</ele><time>2026-04-18T17:09:25Z</time></trkpt><trkpt lat="43.50714501788389" lon="10.618872081130336"><ele>288.3333333333333</ele><time>2026-04-18T17:09:26Z</time></trkpt><trkpt lat="43.507085449702515" lon="10.618931120141923"><ele>289.0</ele><time>2026-04-18T17:09:27Z</time></trkpt><trkpt lat="43.506987683341066" lon="10.619045257581627"><ele>289.0</ele><time>2026-04-18T17:09:29Z</time></trkpt><trkpt lat="43.506908416867304" lon="10.619159157651486"><ele>289.0</ele><time>2026-04-18T17:09:31Z</time></trkpt><trkpt lat="43.50681373450697" lon="10.61921907083315"><ele>289.0</ele><time>2026-04-18T17:09:33Z</time></trkpt><trkpt lat="43.506719823451895" lon="10.619258917112086"><ele>289.0</ele><time>2026-04-18T17:09:35Z</time></trkpt><trkpt lat="43.50661527775669" lon="10.619310153834482"><ele>289.0</ele><time>2026-04-18T17:09:37Z</time></trkpt><trkpt lat="43.506493863091904" lon="10.619326407679033"><ele>289.0</ele><time>2026-04-18T17:09:39Z</time></trkpt><trkpt lat="43.50642902885939" lon="10.61931125769326"><ele>289.0</ele><time>2026-04-18T17:09:40Z</time></trkpt><trkpt lat="43.506363753261795" lon="10.61929870585618"><ele>289.0</ele><time>2026-04-18T17:09:41Z</time></trkpt><trkpt lat="43.50629702099168" lon="10.619302206224354"><ele>289.0</ele><time>2026-04-18T17:09:42Z</time></trkpt><trkpt lat="43.50623223919896" lon="10.619320862911893"><ele>289.0</ele><time>2026-04-18T17:09:43Z</time></trkpt><trkpt lat="43.506166382238106" lon="10.619322077984025"><ele>289.0</ele><time>2026-04-18T17:09:44Z</time></trkpt><trkpt lat="43.50610492220063" lon="10.61934148083371"><ele>289.0</ele><time>2026-04-18T17:09:45Z</time></trkpt><trkpt lat="43.506045909196196" lon="10.619383360608508"><ele>291.2</ele><time>2026-04-18T17:09:46Z</time></trkpt><trkpt lat="43.505981661098275" lon="10.619381071926053"><ele>293.4</ele><time>2026-04-18T17:09:47Z</time></trkpt><trkpt lat="43.50592490691513" lon="10.619423333424159"><ele>295.6</ele><time>2026-04-18T17:09:48Z</time></trkpt><trkpt lat="43.5058070279869" lon="10.619460953664705"><ele>297.8</ele><time>2026-04-18T17:09:50Z</time></trkpt><trkpt lat="43.50568864595085" lon="10.619464727733483"><ele>300.0</ele><time>2026-04-18T17:09:52Z</time></trkpt><trkpt lat="43.50556255551589" lon="10.619421236004404"><ele>300.0</ele><time>2026-04-18T17:09:54Z</time></trkpt><trkpt lat="43.50549656540419" lon="10.619392782788916"><ele>300.0</ele><time>2026-04-18T17:09:55Z</time></trkpt><trkpt lat="43.505432164054966" lon="10.619366760432941"><ele>300.0</ele><time>2026-04-18T17:09:56Z</time></trkpt><trkpt lat="43.50536736711315" lon="10.61934359192467"><ele>300.0</ele><time>2026-04-18T17:09:57Z</time></trkpt><trkpt lat="43.50527101430568" lon="10.619320650232725"><ele>300.0</ele><time>2026-04-18T17:09:59Z</time></trkpt><trkpt lat="43.50519932738281" lon="10.61934600885998"><ele>300.0</ele><time>2026-04-18T17:10:01Z</time></trkpt><trkpt lat="43.50512670829453" lon="10.61948059010977"><ele>301.8</ele><time>2026-04-18T17:10:03Z</time></trkpt><trkpt lat="43.50508429355694" lon="10.619560024475298"><ele>303.6</ele><time>2026-04-18T17:10:04.001Z</time></trkpt><trkpt lat="43.505074471467054" lon="10.619655655935114"><ele>305.4</ele><time>2026-04-18T17:10:05.001Z</time></trkpt><trkpt lat="43.505015137771096" lon="10.61978218184333"><ele>307.2</ele><time>2026-04-18T17:10:07.001Z</time></trkpt><trkpt lat="43.50495296383103" lon="10.619886809176451"><ele>309.0</ele><time>2026-04-18T17:10:09.001Z</time></trkpt><trkpt lat="43.504848218155274" lon="10.61996770269245"><ele>309.0</ele><time>2026-04-18T17:10:11.001Z</time></trkpt><trkpt lat="43.50477023320722" lon="10.620062034260695"><ele>309.0</ele><time>2026-04-18T17:10:13.001Z</time></trkpt><trkpt lat="43.5047108812785" lon="10.62013281757148"><ele>309.0</ele><time>2026-04-18T17:11:34.001Z</time></trkpt><trkpt lat="43.504728159496004" lon="10.620376649106099"><ele>309.0</ele><time>2026-04-18T17:11:38.001Z</time></trkpt><trkpt lat="43.50477337437523" lon="10.620462234442734"><ele>309.0</ele><time>2026-04-18T17:11:40.001Z</time></trkpt><trkpt lat="43.50482251602645" lon="10.620555252536395"><ele>308.1666666666667</ele><time>2026-04-18T17:11:42.001Z</time></trkpt><trkpt lat="43.50487946148523" lon="10.620659050799624"><ele>307.3333333333333</ele><time>2026-04-18T17:11:44.001Z</time></trkpt><trkpt lat="43.504940198046555" lon="10.620759840583883"><ele>306.5</ele><time>2026-04-18T17:11:46.001Z</time></trkpt><trkpt lat="43.50499089115785" lon="10.620864662667413"><ele>305.66666666666663</ele><time>2026-04-18T17:11:48.001Z</time></trkpt><trkpt lat="43.50501961635858" lon="10.620954088047403"><ele>304.8333333333333</ele><time>2026-04-18T17:11:50.001Z</time></trkpt><trkpt lat="43.505045845437934" lon="10.621050603246806"><ele>304.0</ele><time>2026-04-18T17:11:52.001Z</time></trkpt><trkpt lat="43.50506741440493" lon="10.621144798585327"><ele>304.0</ele><time>2026-04-18T17:11:54.001Z</time></trkpt><trkpt lat="43.505086740972665" lon="10.621255263394477"><ele>304.0</ele><time>2026-04-18T17:11:57.001Z</time></trkpt><trkpt lat="43.50507175075063" lon="10.621167631315954"><ele>304.0</ele><time>2026-04-18T17:17:35.002Z</time></trkpt><trkpt lat="43.505062473461734" lon="10.621077535492551"><ele>304.0</ele><time>2026-04-18T17:17:41.002Z</time></trkpt><trkpt lat="43.50504431448201" lon="10.620986823486854"><ele>304.0</ele><time>2026-04-18T17:17:52.002Z</time></trkpt><trkpt lat="43.505007082943415" lon="10.620914027963604"><ele>304.0</ele><time>2026-04-18T17:17:56.002Z</time></trkpt><trkpt lat="43.50497708829562" lon="10.620798797389003"><ele>304.0</ele><time>2026-04-18T17:17:59.002Z</time></trkpt><trkpt lat="43.50493667272111" lon="10.620728429356653"><ele>304.0</ele><time>2026-04-18T17:18:01.002Z</time></trkpt><trkpt lat="43.504881735090876" lon="10.620629667171961"><ele>304.0</ele><time>2026-04-18T17:18:04.002Z</time></trkpt><trkpt lat="43.504822081568044" lon="10.62052761691363"><ele>304.0</ele><time>2026-04-18T17:18:07.002Z</time></trkpt><trkpt lat="43.50477777817763" lon="10.620457262122104"><ele>304.0</ele><time>2026-04-18T17:18:09.002Z</time></trkpt><trkpt lat="43.50471965629843" lon="10.620331735636185"><ele>304.0</ele><time>2026-04-18T17:18:13.002Z</time></trkpt><trkpt lat="43.5046930067375" lon="10.620243506186394"><ele>304.0</ele><time>2026-04-18T17:19:31Z</time></trkpt><trkpt lat="43.50471865588669" lon="10.620157780709105"><ele>309.0</ele><time>2026-04-18T17:19:37Z</time></trkpt></trkseg></trk></gpx>